<?xml version="1.0" encoding="UTF-8" standalone="no" ?>
<gpx xmlns="http://www.topografix.com/GPX/1/1" xmlns:xsi="http://www.w3.org/2001/XMLSchema-instance" xsi:schemaLocation="http://www.topografix.com/GPX/1/1 http://www.topografix.com/GPX/1/1/gpx.xsd" version="1.1" creator="VisuGPX - https://www.visugpx.com">
  <metadata>
    <name>Réserve Naturelle de la combe Lavaux</name>
    <desc><![CDATA[Dessus combe Lavaux]]></desc>
  </metadata>
  <trk>
    <name><![CDATA[15 mai 2022 10:58:49]]></name>
    <desc><![CDATA[Dessus combe Lavaux]]></desc>
    <trkseg>
      <trkpt lat="47.22398" lon="4.92614">
        <ele>437</ele>
        <time>2022-05-15T08:58:51Z</time>
      </trkpt>
      <trkpt lat="47.22399" lon="4.92615">
        <ele>435</ele>
        <time>2022-05-15T08:59:21Z</time>
      </trkpt>
      <trkpt lat="47.22402" lon="4.92614">
        <ele>435</ele>
        <time>2022-05-15T08:59:23Z</time>
      </trkpt>
      <trkpt lat="47.22403" lon="4.92614">
        <ele>435</ele>
        <time>2022-05-15T08:59:24Z</time>
      </trkpt>
      <trkpt lat="47.22403" lon="4.92613">
        <ele>436</ele>
        <time>2022-05-15T08:59:26Z</time>
      </trkpt>
      <trkpt lat="47.22404" lon="4.92612">
        <ele>434</ele>
        <time>2022-05-15T08:59:29Z</time>
      </trkpt>
      <trkpt lat="47.22405" lon="4.92611">
        <ele>435</ele>
        <time>2022-05-15T08:59:31Z</time>
      </trkpt>
      <trkpt lat="47.22407" lon="4.9261">
        <ele>436</ele>
        <time>2022-05-15T08:59:32Z</time>
      </trkpt>
      <trkpt lat="47.22408" lon="4.9261">
        <ele>436</ele>
        <time>2022-05-15T08:59:33Z</time>
      </trkpt>
      <trkpt lat="47.2241" lon="4.92609">
        <ele>438</ele>
        <time>2022-05-15T08:59:34Z</time>
      </trkpt>
      <trkpt lat="47.22412" lon="4.92609">
        <ele>438</ele>
        <time>2022-05-15T08:59:35Z</time>
      </trkpt>
      <trkpt lat="47.22414" lon="4.9261">
        <ele>436</ele>
        <time>2022-05-15T08:59:36Z</time>
      </trkpt>
      <trkpt lat="47.22415" lon="4.92609">
        <ele>439</ele>
        <time>2022-05-15T08:59:38Z</time>
      </trkpt>
      <trkpt lat="47.22417" lon="4.92609">
        <ele>440</ele>
        <time>2022-05-15T08:59:40Z</time>
      </trkpt>
      <trkpt lat="47.22418" lon="4.92609">
        <ele>440</ele>
        <time>2022-05-15T08:59:42Z</time>
      </trkpt>
      <trkpt lat="47.22419" lon="4.92609">
        <ele>441</ele>
        <time>2022-05-15T08:59:43Z</time>
      </trkpt>
      <trkpt lat="47.22421" lon="4.92608">
        <ele>441</ele>
        <time>2022-05-15T08:59:45Z</time>
      </trkpt>
      <trkpt lat="47.22422" lon="4.92608">
        <ele>442</ele>
        <time>2022-05-15T08:59:46Z</time>
      </trkpt>
      <trkpt lat="47.22424" lon="4.92608">
        <ele>442</ele>
        <time>2022-05-15T08:59:47Z</time>
      </trkpt>
      <trkpt lat="47.22425" lon="4.92607">
        <ele>441</ele>
        <time>2022-05-15T08:59:48Z</time>
      </trkpt>
      <trkpt lat="47.22426" lon="4.92606">
        <ele>442</ele>
        <time>2022-05-15T08:59:49Z</time>
      </trkpt>
      <trkpt lat="47.22427" lon="4.92605">
        <ele>440</ele>
        <time>2022-05-15T08:59:50Z</time>
      </trkpt>
      <trkpt lat="47.22428" lon="4.92604">
        <ele>441</ele>
        <time>2022-05-15T08:59:52Z</time>
      </trkpt>
      <trkpt lat="47.2243" lon="4.92603">
        <ele>441</ele>
        <time>2022-05-15T08:59:54Z</time>
      </trkpt>
      <trkpt lat="47.22431" lon="4.92602">
        <ele>441</ele>
        <time>2022-05-15T08:59:55Z</time>
      </trkpt>
      <trkpt lat="47.22433" lon="4.92601">
        <ele>441</ele>
        <time>2022-05-15T08:59:57Z</time>
      </trkpt>
      <trkpt lat="47.22436" lon="4.926">
        <ele>441</ele>
        <time>2022-05-15T08:59:58Z</time>
      </trkpt>
      <trkpt lat="47.22437" lon="4.92599">
        <ele>440</ele>
        <time>2022-05-15T08:59:59Z</time>
      </trkpt>
      <trkpt lat="47.22439" lon="4.92598">
        <ele>439</ele>
        <time>2022-05-15T09:00:00Z</time>
      </trkpt>
      <trkpt lat="47.2244" lon="4.92598">
        <ele>439</ele>
        <time>2022-05-15T09:00:01Z</time>
      </trkpt>
      <trkpt lat="47.22441" lon="4.92597">
        <ele>439</ele>
        <time>2022-05-15T09:00:02Z</time>
      </trkpt>
      <trkpt lat="47.22442" lon="4.92596">
        <ele>440</ele>
        <time>2022-05-15T09:00:03Z</time>
      </trkpt>
      <trkpt lat="47.22443" lon="4.92595">
        <ele>440</ele>
        <time>2022-05-15T09:00:04Z</time>
      </trkpt>
      <trkpt lat="47.22443" lon="4.92594">
        <ele>441</ele>
        <time>2022-05-15T09:00:05Z</time>
      </trkpt>
      <trkpt lat="47.22445" lon="4.92591">
        <ele>441</ele>
        <time>2022-05-15T09:00:07Z</time>
      </trkpt>
      <trkpt lat="47.22446" lon="4.9259">
        <ele>442</ele>
        <time>2022-05-15T09:00:08Z</time>
      </trkpt>
      <trkpt lat="47.22447" lon="4.9259">
        <ele>443</ele>
        <time>2022-05-15T09:00:09Z</time>
      </trkpt>
      <trkpt lat="47.22448" lon="4.92589">
        <ele>442</ele>
        <time>2022-05-15T09:00:10Z</time>
      </trkpt>
      <trkpt lat="47.2245" lon="4.92589">
        <ele>443</ele>
        <time>2022-05-15T09:00:11Z</time>
      </trkpt>
      <trkpt lat="47.22451" lon="4.92588">
        <ele>443</ele>
        <time>2022-05-15T09:00:12Z</time>
      </trkpt>
      <trkpt lat="47.22453" lon="4.92587">
        <ele>442</ele>
        <time>2022-05-15T09:00:15Z</time>
      </trkpt>
      <trkpt lat="47.22454" lon="4.92586">
        <ele>443</ele>
        <time>2022-05-15T09:00:16Z</time>
      </trkpt>
      <trkpt lat="47.22455" lon="4.92586">
        <ele>444</ele>
        <time>2022-05-15T09:00:17Z</time>
      </trkpt>
      <trkpt lat="47.22456" lon="4.92584">
        <ele>445</ele>
        <time>2022-05-15T09:00:19Z</time>
      </trkpt>
      <trkpt lat="47.22458" lon="4.92583">
        <ele>444</ele>
        <time>2022-05-15T09:00:21Z</time>
      </trkpt>
      <trkpt lat="47.22459" lon="4.92583">
        <ele>445</ele>
        <time>2022-05-15T09:00:22Z</time>
      </trkpt>
      <trkpt lat="47.22461" lon="4.92582">
        <ele>444</ele>
        <time>2022-05-15T09:00:23Z</time>
      </trkpt>
      <trkpt lat="47.22462" lon="4.92581">
        <ele>444</ele>
        <time>2022-05-15T09:00:24Z</time>
      </trkpt>
      <trkpt lat="47.22463" lon="4.92581">
        <ele>442</ele>
        <time>2022-05-15T09:00:25Z</time>
      </trkpt>
      <trkpt lat="47.22464" lon="4.9258">
        <ele>445</ele>
        <time>2022-05-15T09:00:26Z</time>
      </trkpt>
      <trkpt lat="47.22465" lon="4.92579">
        <ele>445</ele>
        <time>2022-05-15T09:00:27Z</time>
      </trkpt>
      <trkpt lat="47.22467" lon="4.92579">
        <ele>444</ele>
        <time>2022-05-15T09:00:28Z</time>
      </trkpt>
      <trkpt lat="47.22468" lon="4.92579">
        <ele>444</ele>
        <time>2022-05-15T09:00:29Z</time>
      </trkpt>
      <trkpt lat="47.22469" lon="4.92578">
        <ele>443</ele>
        <time>2022-05-15T09:00:30Z</time>
      </trkpt>
      <trkpt lat="47.22471" lon="4.92575">
        <ele>443</ele>
        <time>2022-05-15T09:00:32Z</time>
      </trkpt>
      <trkpt lat="47.22473" lon="4.92573">
        <ele>442</ele>
        <time>2022-05-15T09:00:34Z</time>
      </trkpt>
      <trkpt lat="47.22474" lon="4.92573">
        <ele>442</ele>
        <time>2022-05-15T09:00:35Z</time>
      </trkpt>
      <trkpt lat="47.22476" lon="4.92572">
        <ele>442</ele>
        <time>2022-05-15T09:00:36Z</time>
      </trkpt>
      <trkpt lat="47.22478" lon="4.92571">
        <ele>442</ele>
        <time>2022-05-15T09:00:37Z</time>
      </trkpt>
      <trkpt lat="47.22479" lon="4.9257">
        <ele>442</ele>
        <time>2022-05-15T09:00:38Z</time>
      </trkpt>
      <trkpt lat="47.22481" lon="4.92569">
        <ele>441</ele>
        <time>2022-05-15T09:00:39Z</time>
      </trkpt>
      <trkpt lat="47.22482" lon="4.92567">
        <ele>438</ele>
        <time>2022-05-15T09:00:41Z</time>
      </trkpt>
      <trkpt lat="47.22483" lon="4.92566">
        <ele>439</ele>
        <time>2022-05-15T09:00:42Z</time>
      </trkpt>
      <trkpt lat="47.22485" lon="4.92565">
        <ele>439</ele>
        <time>2022-05-15T09:00:43Z</time>
      </trkpt>
      <trkpt lat="47.22486" lon="4.92563">
        <ele>438</ele>
        <time>2022-05-15T09:00:44Z</time>
      </trkpt>
      <trkpt lat="47.22487" lon="4.92561">
        <ele>438</ele>
        <time>2022-05-15T09:00:45Z</time>
      </trkpt>
      <trkpt lat="47.22488" lon="4.92559">
        <ele>438</ele>
        <time>2022-05-15T09:00:47Z</time>
      </trkpt>
      <trkpt lat="47.22489" lon="4.92558">
        <ele>436</ele>
        <time>2022-05-15T09:00:49Z</time>
      </trkpt>
      <trkpt lat="47.2249" lon="4.92558">
        <ele>436</ele>
        <time>2022-05-15T09:00:51Z</time>
      </trkpt>
      <trkpt lat="47.2249" lon="4.9256">
        <ele>440</ele>
        <time>2022-05-15T09:00:57Z</time>
      </trkpt>
      <trkpt lat="47.22491" lon="4.92561">
        <ele>442</ele>
        <time>2022-05-15T09:01:00Z</time>
      </trkpt>
      <trkpt lat="47.22491" lon="4.92559">
        <ele>441</ele>
        <time>2022-05-15T09:01:21Z</time>
      </trkpt>
      <trkpt lat="47.22491" lon="4.92557">
        <ele>442</ele>
        <time>2022-05-15T09:01:22Z</time>
      </trkpt>
      <trkpt lat="47.22491" lon="4.92556">
        <ele>443</ele>
        <time>2022-05-15T09:01:23Z</time>
      </trkpt>
      <trkpt lat="47.22492" lon="4.92554">
        <ele>443</ele>
        <time>2022-05-15T09:01:25Z</time>
      </trkpt>
      <trkpt lat="47.22494" lon="4.92551">
        <ele>444</ele>
        <time>2022-05-15T09:01:27Z</time>
      </trkpt>
      <trkpt lat="47.22495" lon="4.9255">
        <ele>446</ele>
        <time>2022-05-15T09:01:28Z</time>
      </trkpt>
      <trkpt lat="47.22496" lon="4.92549">
        <ele>445</ele>
        <time>2022-05-15T09:01:29Z</time>
      </trkpt>
      <trkpt lat="47.22498" lon="4.92548">
        <ele>444</ele>
        <time>2022-05-15T09:01:30Z</time>
      </trkpt>
      <trkpt lat="47.22499" lon="4.92547">
        <ele>445</ele>
        <time>2022-05-15T09:01:31Z</time>
      </trkpt>
      <trkpt lat="47.225" lon="4.92546">
        <ele>445</ele>
        <time>2022-05-15T09:01:32Z</time>
      </trkpt>
      <trkpt lat="47.22502" lon="4.92546">
        <ele>446</ele>
        <time>2022-05-15T09:01:33Z</time>
      </trkpt>
      <trkpt lat="47.22504" lon="4.92544">
        <ele>446</ele>
        <time>2022-05-15T09:01:34Z</time>
      </trkpt>
      <trkpt lat="47.22506" lon="4.92543">
        <ele>446</ele>
        <time>2022-05-15T09:01:35Z</time>
      </trkpt>
      <trkpt lat="47.22507" lon="4.92541">
        <ele>446</ele>
        <time>2022-05-15T09:01:36Z</time>
      </trkpt>
      <trkpt lat="47.22508" lon="4.9254">
        <ele>446</ele>
        <time>2022-05-15T09:01:37Z</time>
      </trkpt>
      <trkpt lat="47.22509" lon="4.92539">
        <ele>446</ele>
        <time>2022-05-15T09:01:38Z</time>
      </trkpt>
      <trkpt lat="47.2251" lon="4.92538">
        <ele>445</ele>
        <time>2022-05-15T09:01:39Z</time>
      </trkpt>
      <trkpt lat="47.22511" lon="4.92537">
        <ele>445</ele>
        <time>2022-05-15T09:01:40Z</time>
      </trkpt>
      <trkpt lat="47.22512" lon="4.92535">
        <ele>447</ele>
        <time>2022-05-15T09:01:41Z</time>
      </trkpt>
      <trkpt lat="47.22513" lon="4.92534">
        <ele>447</ele>
        <time>2022-05-15T09:01:42Z</time>
      </trkpt>
      <trkpt lat="47.22514" lon="4.92534">
        <ele>450</ele>
        <time>2022-05-15T09:01:43Z</time>
      </trkpt>
      <trkpt lat="47.22515" lon="4.92534">
        <ele>451</ele>
        <time>2022-05-15T09:01:44Z</time>
      </trkpt>
      <trkpt lat="47.22516" lon="4.92533">
        <ele>450</ele>
        <time>2022-05-15T09:01:45Z</time>
      </trkpt>
      <trkpt lat="47.22517" lon="4.92531">
        <ele>450</ele>
        <time>2022-05-15T09:01:46Z</time>
      </trkpt>
      <trkpt lat="47.22518" lon="4.9253">
        <ele>450</ele>
        <time>2022-05-15T09:01:47Z</time>
      </trkpt>
      <trkpt lat="47.22518" lon="4.92529">
        <ele>449</ele>
        <time>2022-05-15T09:01:48Z</time>
      </trkpt>
      <trkpt lat="47.2252" lon="4.92528">
        <ele>451</ele>
        <time>2022-05-15T09:01:49Z</time>
      </trkpt>
      <trkpt lat="47.22521" lon="4.92526">
        <ele>450</ele>
        <time>2022-05-15T09:01:50Z</time>
      </trkpt>
      <trkpt lat="47.22522" lon="4.92525">
        <ele>450</ele>
        <time>2022-05-15T09:01:51Z</time>
      </trkpt>
      <trkpt lat="47.22524" lon="4.92523">
        <ele>450</ele>
        <time>2022-05-15T09:01:54Z</time>
      </trkpt>
      <trkpt lat="47.22525" lon="4.9252">
        <ele>450</ele>
        <time>2022-05-15T09:01:56Z</time>
      </trkpt>
      <trkpt lat="47.22526" lon="4.92518">
        <ele>450</ele>
        <time>2022-05-15T09:01:57Z</time>
      </trkpt>
      <trkpt lat="47.22525" lon="4.92517">
        <ele>451</ele>
        <time>2022-05-15T09:02:00Z</time>
      </trkpt>
      <trkpt lat="47.22525" lon="4.92515">
        <ele>451</ele>
        <time>2022-05-15T09:02:01Z</time>
      </trkpt>
      <trkpt lat="47.22525" lon="4.92512">
        <ele>447</ele>
        <time>2022-05-15T09:02:03Z</time>
      </trkpt>
      <trkpt lat="47.22526" lon="4.92511">
        <ele>447</ele>
        <time>2022-05-15T09:02:04Z</time>
      </trkpt>
      <trkpt lat="47.22526" lon="4.92509">
        <ele>446</ele>
        <time>2022-05-15T09:02:05Z</time>
      </trkpt>
      <trkpt lat="47.22527" lon="4.92508">
        <ele>445</ele>
        <time>2022-05-15T09:02:06Z</time>
      </trkpt>
      <trkpt lat="47.22527" lon="4.92505">
        <ele>446</ele>
        <time>2022-05-15T09:02:08Z</time>
      </trkpt>
      <trkpt lat="47.22527" lon="4.92504">
        <ele>444</ele>
        <time>2022-05-15T09:02:09Z</time>
      </trkpt>
      <trkpt lat="47.22528" lon="4.92502">
        <ele>446</ele>
        <time>2022-05-15T09:02:11Z</time>
      </trkpt>
      <trkpt lat="47.2253" lon="4.92502">
        <ele>446</ele>
        <time>2022-05-15T09:02:12Z</time>
      </trkpt>
      <trkpt lat="47.22532" lon="4.92501">
        <ele>446</ele>
        <time>2022-05-15T09:02:13Z</time>
      </trkpt>
      <trkpt lat="47.22533" lon="4.925">
        <ele>447</ele>
        <time>2022-05-15T09:02:14Z</time>
      </trkpt>
      <trkpt lat="47.22534" lon="4.925">
        <ele>448</ele>
        <time>2022-05-15T09:02:15Z</time>
      </trkpt>
      <trkpt lat="47.22535" lon="4.92499">
        <ele>449</ele>
        <time>2022-05-15T09:02:17Z</time>
      </trkpt>
      <trkpt lat="47.22536" lon="4.92499">
        <ele>450</ele>
        <time>2022-05-15T09:02:18Z</time>
      </trkpt>
      <trkpt lat="47.22538" lon="4.92499">
        <ele>449</ele>
        <time>2022-05-15T09:02:20Z</time>
      </trkpt>
      <trkpt lat="47.22539" lon="4.92499">
        <ele>449</ele>
        <time>2022-05-15T09:02:21Z</time>
      </trkpt>
      <trkpt lat="47.2254" lon="4.92498">
        <ele>449</ele>
        <time>2022-05-15T09:02:22Z</time>
      </trkpt>
      <trkpt lat="47.22542" lon="4.92498">
        <ele>448</ele>
        <time>2022-05-15T09:02:23Z</time>
      </trkpt>
      <trkpt lat="47.22544" lon="4.92497">
        <ele>448</ele>
        <time>2022-05-15T09:02:25Z</time>
      </trkpt>
      <trkpt lat="47.22546" lon="4.92497">
        <ele>448</ele>
        <time>2022-05-15T09:02:26Z</time>
      </trkpt>
      <trkpt lat="47.22547" lon="4.92496">
        <ele>448</ele>
        <time>2022-05-15T09:02:27Z</time>
      </trkpt>
      <trkpt lat="47.22548" lon="4.92496">
        <ele>448</ele>
        <time>2022-05-15T09:02:29Z</time>
      </trkpt>
      <trkpt lat="47.22549" lon="4.92496">
        <ele>449</ele>
        <time>2022-05-15T09:02:30Z</time>
      </trkpt>
      <trkpt lat="47.2255" lon="4.92497">
        <ele>450</ele>
        <time>2022-05-15T09:02:31Z</time>
      </trkpt>
      <trkpt lat="47.22551" lon="4.92497">
        <ele>453</ele>
        <time>2022-05-15T09:02:33Z</time>
      </trkpt>
      <trkpt lat="47.22552" lon="4.92498">
        <ele>452</ele>
        <time>2022-05-15T09:02:36Z</time>
      </trkpt>
      <trkpt lat="47.22551" lon="4.92499">
        <ele>451</ele>
        <time>2022-05-15T09:02:41Z</time>
      </trkpt>
      <trkpt lat="47.22552" lon="4.925">
        <ele>454</ele>
        <time>2022-05-15T09:02:43Z</time>
      </trkpt>
      <trkpt lat="47.22553" lon="4.92501">
        <ele>452</ele>
        <time>2022-05-15T09:02:44Z</time>
      </trkpt>
      <trkpt lat="47.22554" lon="4.92501">
        <ele>451</ele>
        <time>2022-05-15T09:02:46Z</time>
      </trkpt>
      <trkpt lat="47.22556" lon="4.925">
        <ele>451</ele>
        <time>2022-05-15T09:02:48Z</time>
      </trkpt>
      <trkpt lat="47.22557" lon="4.92499">
        <ele>451</ele>
        <time>2022-05-15T09:02:50Z</time>
      </trkpt>
      <trkpt lat="47.22559" lon="4.92499">
        <ele>450</ele>
        <time>2022-05-15T09:02:51Z</time>
      </trkpt>
      <trkpt lat="47.2256" lon="4.92499">
        <ele>451</ele>
        <time>2022-05-15T09:02:53Z</time>
      </trkpt>
      <trkpt lat="47.22562" lon="4.92498">
        <ele>454</ele>
        <time>2022-05-15T09:02:55Z</time>
      </trkpt>
      <trkpt lat="47.22564" lon="4.92497">
        <ele>454</ele>
        <time>2022-05-15T09:03:00Z</time>
      </trkpt>
      <trkpt lat="47.22567" lon="4.92496">
        <ele>453</ele>
        <time>2022-05-15T09:03:01Z</time>
      </trkpt>
      <trkpt lat="47.22569" lon="4.92495">
        <ele>455</ele>
        <time>2022-05-15T09:03:02Z</time>
      </trkpt>
      <trkpt lat="47.2257" lon="4.92494">
        <ele>455</ele>
        <time>2022-05-15T09:03:03Z</time>
      </trkpt>
      <trkpt lat="47.22572" lon="4.92495">
        <ele>457</ele>
        <time>2022-05-15T09:03:05Z</time>
      </trkpt>
      <trkpt lat="47.22573" lon="4.92495">
        <ele>456</ele>
        <time>2022-05-15T09:03:08Z</time>
      </trkpt>
      <trkpt lat="47.22574" lon="4.92494">
        <ele>448</ele>
        <time>2022-05-15T09:03:10Z</time>
      </trkpt>
      <trkpt lat="47.22576" lon="4.92491">
        <ele>451</ele>
        <time>2022-05-15T09:03:12Z</time>
      </trkpt>
      <trkpt lat="47.22577" lon="4.9249">
        <ele>451</ele>
        <time>2022-05-15T09:03:13Z</time>
      </trkpt>
      <trkpt lat="47.22579" lon="4.92489">
        <ele>454</ele>
        <time>2022-05-15T09:03:15Z</time>
      </trkpt>
      <trkpt lat="47.22581" lon="4.92488">
        <ele>455</ele>
        <time>2022-05-15T09:03:16Z</time>
      </trkpt>
      <trkpt lat="47.22582" lon="4.92488">
        <ele>455</ele>
        <time>2022-05-15T09:03:17Z</time>
      </trkpt>
      <trkpt lat="47.22583" lon="4.92487">
        <ele>455</ele>
        <time>2022-05-15T09:03:18Z</time>
      </trkpt>
      <trkpt lat="47.22584" lon="4.92486">
        <ele>458</ele>
        <time>2022-05-15T09:03:20Z</time>
      </trkpt>
      <trkpt lat="47.22586" lon="4.92485">
        <ele>458</ele>
        <time>2022-05-15T09:03:21Z</time>
      </trkpt>
      <trkpt lat="47.22587" lon="4.92485">
        <ele>458</ele>
        <time>2022-05-15T09:03:22Z</time>
      </trkpt>
      <trkpt lat="47.22588" lon="4.92484">
        <ele>457</ele>
        <time>2022-05-15T09:03:23Z</time>
      </trkpt>
      <trkpt lat="47.22589" lon="4.92483">
        <ele>456</ele>
        <time>2022-05-15T09:03:24Z</time>
      </trkpt>
      <trkpt lat="47.22591" lon="4.92483">
        <ele>457</ele>
        <time>2022-05-15T09:03:25Z</time>
      </trkpt>
      <trkpt lat="47.22593" lon="4.92483">
        <ele>454</ele>
        <time>2022-05-15T09:03:26Z</time>
      </trkpt>
      <trkpt lat="47.22594" lon="4.92483">
        <ele>456</ele>
        <time>2022-05-15T09:03:27Z</time>
      </trkpt>
      <trkpt lat="47.22595" lon="4.92483">
        <ele>454</ele>
        <time>2022-05-15T09:03:33Z</time>
      </trkpt>
      <trkpt lat="47.22597" lon="4.92483">
        <ele>453</ele>
        <time>2022-05-15T09:03:38Z</time>
      </trkpt>
      <trkpt lat="47.22598" lon="4.92484">
        <ele>453</ele>
        <time>2022-05-15T09:03:39Z</time>
      </trkpt>
      <trkpt lat="47.22599" lon="4.92483">
        <ele>452</ele>
        <time>2022-05-15T09:03:41Z</time>
      </trkpt>
      <trkpt lat="47.226" lon="4.92483">
        <ele>453</ele>
        <time>2022-05-15T09:03:43Z</time>
      </trkpt>
      <trkpt lat="47.22601" lon="4.92483">
        <ele>450</ele>
        <time>2022-05-15T09:03:46Z</time>
      </trkpt>
      <trkpt lat="47.22602" lon="4.92483">
        <ele>451</ele>
        <time>2022-05-15T09:03:49Z</time>
      </trkpt>
      <trkpt lat="47.22603" lon="4.92483">
        <ele>452</ele>
        <time>2022-05-15T09:03:51Z</time>
      </trkpt>
      <trkpt lat="47.22604" lon="4.92482">
        <ele>453</ele>
        <time>2022-05-15T09:03:54Z</time>
      </trkpt>
      <trkpt lat="47.22605" lon="4.92481">
        <ele>453</ele>
        <time>2022-05-15T09:03:56Z</time>
      </trkpt>
      <trkpt lat="47.22606" lon="4.92481">
        <ele>452</ele>
        <time>2022-05-15T09:03:57Z</time>
      </trkpt>
      <trkpt lat="47.22607" lon="4.9248">
        <ele>451</ele>
        <time>2022-05-15T09:03:59Z</time>
      </trkpt>
      <trkpt lat="47.22608" lon="4.92481">
        <ele>451</ele>
        <time>2022-05-15T09:04:00Z</time>
      </trkpt>
      <trkpt lat="47.2261" lon="4.92481">
        <ele>452</ele>
        <time>2022-05-15T09:04:01Z</time>
      </trkpt>
      <trkpt lat="47.22611" lon="4.92482">
        <ele>452</ele>
        <time>2022-05-15T09:04:03Z</time>
      </trkpt>
      <trkpt lat="47.22612" lon="4.92482">
        <ele>449</ele>
        <time>2022-05-15T09:04:06Z</time>
      </trkpt>
      <trkpt lat="47.22614" lon="4.92481">
        <ele>450</ele>
        <time>2022-05-15T09:04:08Z</time>
      </trkpt>
      <trkpt lat="47.22615" lon="4.92481">
        <ele>450</ele>
        <time>2022-05-15T09:04:09Z</time>
      </trkpt>
      <trkpt lat="47.22616" lon="4.9248">
        <ele>450</ele>
        <time>2022-05-15T09:04:10Z</time>
      </trkpt>
      <trkpt lat="47.22617" lon="4.92479">
        <ele>449</ele>
        <time>2022-05-15T09:04:11Z</time>
      </trkpt>
      <trkpt lat="47.22617" lon="4.92478">
        <ele>451</ele>
        <time>2022-05-15T09:04:13Z</time>
      </trkpt>
      <trkpt lat="47.22619" lon="4.92478">
        <ele>449</ele>
        <time>2022-05-15T09:04:15Z</time>
      </trkpt>
      <trkpt lat="47.2262" lon="4.92478">
        <ele>450</ele>
        <time>2022-05-15T09:04:16Z</time>
      </trkpt>
      <trkpt lat="47.22621" lon="4.92478">
        <ele>450</ele>
        <time>2022-05-15T09:04:17Z</time>
      </trkpt>
      <trkpt lat="47.22623" lon="4.92478">
        <ele>453</ele>
        <time>2022-05-15T09:04:20Z</time>
      </trkpt>
      <trkpt lat="47.22624" lon="4.92478">
        <ele>455</ele>
        <time>2022-05-15T09:04:21Z</time>
      </trkpt>
      <trkpt lat="47.22626" lon="4.92478">
        <ele>455</ele>
        <time>2022-05-15T09:04:22Z</time>
      </trkpt>
      <trkpt lat="47.22628" lon="4.92478">
        <ele>455</ele>
        <time>2022-05-15T09:04:23Z</time>
      </trkpt>
      <trkpt lat="47.2263" lon="4.92478">
        <ele>455</ele>
        <time>2022-05-15T09:04:24Z</time>
      </trkpt>
      <trkpt lat="47.22631" lon="4.92478">
        <ele>455</ele>
        <time>2022-05-15T09:04:25Z</time>
      </trkpt>
      <trkpt lat="47.22632" lon="4.92478">
        <ele>457</ele>
        <time>2022-05-15T09:04:26Z</time>
      </trkpt>
      <trkpt lat="47.22633" lon="4.92478">
        <ele>457</ele>
        <time>2022-05-15T09:04:27Z</time>
      </trkpt>
      <trkpt lat="47.22634" lon="4.92478">
        <ele>458</ele>
        <time>2022-05-15T09:04:28Z</time>
      </trkpt>
      <trkpt lat="47.22635" lon="4.92478">
        <ele>457</ele>
        <time>2022-05-15T09:04:29Z</time>
      </trkpt>
      <trkpt lat="47.22637" lon="4.92479">
        <ele>457</ele>
        <time>2022-05-15T09:04:30Z</time>
      </trkpt>
      <trkpt lat="47.22639" lon="4.9248">
        <ele>456</ele>
        <time>2022-05-15T09:04:31Z</time>
      </trkpt>
      <trkpt lat="47.22641" lon="4.92481">
        <ele>455</ele>
        <time>2022-05-15T09:04:32Z</time>
      </trkpt>
      <trkpt lat="47.22642" lon="4.92481">
        <ele>455</ele>
        <time>2022-05-15T09:04:33Z</time>
      </trkpt>
      <trkpt lat="47.22643" lon="4.92482">
        <ele>456</ele>
        <time>2022-05-15T09:04:34Z</time>
      </trkpt>
      <trkpt lat="47.22644" lon="4.92484">
        <ele>457</ele>
        <time>2022-05-15T09:04:36Z</time>
      </trkpt>
      <trkpt lat="47.22645" lon="4.92485">
        <ele>459</ele>
        <time>2022-05-15T09:04:38Z</time>
      </trkpt>
      <trkpt lat="47.22646" lon="4.92485">
        <ele>460</ele>
        <time>2022-05-15T09:04:39Z</time>
      </trkpt>
      <trkpt lat="47.22648" lon="4.92483">
        <ele>460</ele>
        <time>2022-05-15T09:04:41Z</time>
      </trkpt>
      <trkpt lat="47.22649" lon="4.92483">
        <ele>460</ele>
        <time>2022-05-15T09:04:42Z</time>
      </trkpt>
      <trkpt lat="47.2265" lon="4.92483">
        <ele>460</ele>
        <time>2022-05-15T09:04:43Z</time>
      </trkpt>
      <trkpt lat="47.22651" lon="4.92483">
        <ele>459</ele>
        <time>2022-05-15T09:04:44Z</time>
      </trkpt>
      <trkpt lat="47.22652" lon="4.92483">
        <ele>459</ele>
        <time>2022-05-15T09:04:45Z</time>
      </trkpt>
      <trkpt lat="47.22654" lon="4.92483">
        <ele>460</ele>
        <time>2022-05-15T09:04:46Z</time>
      </trkpt>
      <trkpt lat="47.22655" lon="4.92483">
        <ele>459</ele>
        <time>2022-05-15T09:04:48Z</time>
      </trkpt>
      <trkpt lat="47.22657" lon="4.92483">
        <ele>460</ele>
        <time>2022-05-15T09:04:49Z</time>
      </trkpt>
      <trkpt lat="47.22658" lon="4.92483">
        <ele>461</ele>
        <time>2022-05-15T09:04:50Z</time>
      </trkpt>
      <trkpt lat="47.2266" lon="4.92483">
        <ele>460</ele>
        <time>2022-05-15T09:04:52Z</time>
      </trkpt>
      <trkpt lat="47.22661" lon="4.92483">
        <ele>461</ele>
        <time>2022-05-15T09:04:53Z</time>
      </trkpt>
      <trkpt lat="47.22662" lon="4.92483">
        <ele>461</ele>
        <time>2022-05-15T09:04:54Z</time>
      </trkpt>
      <trkpt lat="47.22664" lon="4.92483">
        <ele>461</ele>
        <time>2022-05-15T09:04:55Z</time>
      </trkpt>
      <trkpt lat="47.22666" lon="4.92484">
        <ele>462</ele>
        <time>2022-05-15T09:04:57Z</time>
      </trkpt>
      <trkpt lat="47.22667" lon="4.92484">
        <ele>462</ele>
        <time>2022-05-15T09:04:58Z</time>
      </trkpt>
      <trkpt lat="47.22668" lon="4.92484">
        <ele>463</ele>
        <time>2022-05-15T09:04:59Z</time>
      </trkpt>
      <trkpt lat="47.2267" lon="4.92484">
        <ele>464</ele>
        <time>2022-05-15T09:05:01Z</time>
      </trkpt>
      <trkpt lat="47.22671" lon="4.92484">
        <ele>463</ele>
        <time>2022-05-15T09:05:02Z</time>
      </trkpt>
      <trkpt lat="47.22672" lon="4.92484">
        <ele>464</ele>
        <time>2022-05-15T09:05:03Z</time>
      </trkpt>
      <trkpt lat="47.22673" lon="4.92483">
        <ele>463</ele>
        <time>2022-05-15T09:05:05Z</time>
      </trkpt>
      <trkpt lat="47.22674" lon="4.92484">
        <ele>463</ele>
        <time>2022-05-15T09:05:08Z</time>
      </trkpt>
      <trkpt lat="47.22675" lon="4.92484">
        <ele>453</ele>
        <time>2022-05-15T09:05:10Z</time>
      </trkpt>
      <trkpt lat="47.22677" lon="4.92484">
        <ele>455</ele>
        <time>2022-05-15T09:05:11Z</time>
      </trkpt>
      <trkpt lat="47.22678" lon="4.92484">
        <ele>457</ele>
        <time>2022-05-15T09:05:12Z</time>
      </trkpt>
      <trkpt lat="47.22679" lon="4.92484">
        <ele>459</ele>
        <time>2022-05-15T09:05:13Z</time>
      </trkpt>
      <trkpt lat="47.2268" lon="4.92483">
        <ele>459</ele>
        <time>2022-05-15T09:05:14Z</time>
      </trkpt>
      <trkpt lat="47.22682" lon="4.92483">
        <ele>463</ele>
        <time>2022-05-15T09:05:16Z</time>
      </trkpt>
      <trkpt lat="47.22683" lon="4.92483">
        <ele>462</ele>
        <time>2022-05-15T09:05:17Z</time>
      </trkpt>
      <trkpt lat="47.22685" lon="4.92483">
        <ele>463</ele>
        <time>2022-05-15T09:05:18Z</time>
      </trkpt>
      <trkpt lat="47.22686" lon="4.92483">
        <ele>463</ele>
        <time>2022-05-15T09:05:19Z</time>
      </trkpt>
      <trkpt lat="47.22687" lon="4.92483">
        <ele>464</ele>
        <time>2022-05-15T09:05:20Z</time>
      </trkpt>
      <trkpt lat="47.22688" lon="4.92484">
        <ele>464</ele>
        <time>2022-05-15T09:05:21Z</time>
      </trkpt>
      <trkpt lat="47.22689" lon="4.92484">
        <ele>465</ele>
        <time>2022-05-15T09:05:22Z</time>
      </trkpt>
      <trkpt lat="47.22691" lon="4.92483">
        <ele>466</ele>
        <time>2022-05-15T09:05:23Z</time>
      </trkpt>
      <trkpt lat="47.22692" lon="4.92483">
        <ele>466</ele>
        <time>2022-05-15T09:05:24Z</time>
      </trkpt>
      <trkpt lat="47.22693" lon="4.92484">
        <ele>464</ele>
        <time>2022-05-15T09:05:26Z</time>
      </trkpt>
      <trkpt lat="47.22694" lon="4.92485">
        <ele>464</ele>
        <time>2022-05-15T09:05:27Z</time>
      </trkpt>
      <trkpt lat="47.22696" lon="4.92484">
        <ele>464</ele>
        <time>2022-05-15T09:05:31Z</time>
      </trkpt>
      <trkpt lat="47.22697" lon="4.92483">
        <ele>462</ele>
        <time>2022-05-15T09:05:33Z</time>
      </trkpt>
      <trkpt lat="47.22698" lon="4.92484">
        <ele>463</ele>
        <time>2022-05-15T09:05:35Z</time>
      </trkpt>
      <trkpt lat="47.227" lon="4.92484">
        <ele>462</ele>
        <time>2022-05-15T09:05:36Z</time>
      </trkpt>
      <trkpt lat="47.22701" lon="4.92484">
        <ele>461</ele>
        <time>2022-05-15T09:05:37Z</time>
      </trkpt>
      <trkpt lat="47.22703" lon="4.92485">
        <ele>460</ele>
        <time>2022-05-15T09:05:38Z</time>
      </trkpt>
      <trkpt lat="47.22704" lon="4.92485">
        <ele>461</ele>
        <time>2022-05-15T09:05:39Z</time>
      </trkpt>
      <trkpt lat="47.22705" lon="4.92486">
        <ele>461</ele>
        <time>2022-05-15T09:05:40Z</time>
      </trkpt>
      <trkpt lat="47.22706" lon="4.92486">
        <ele>462</ele>
        <time>2022-05-15T09:05:41Z</time>
      </trkpt>
      <trkpt lat="47.22708" lon="4.92486">
        <ele>462</ele>
        <time>2022-05-15T09:05:42Z</time>
      </trkpt>
      <trkpt lat="47.22709" lon="4.92485">
        <ele>462</ele>
        <time>2022-05-15T09:05:43Z</time>
      </trkpt>
      <trkpt lat="47.22711" lon="4.92485">
        <ele>463</ele>
        <time>2022-05-15T09:05:44Z</time>
      </trkpt>
      <trkpt lat="47.22712" lon="4.92485">
        <ele>464</ele>
        <time>2022-05-15T09:05:45Z</time>
      </trkpt>
      <trkpt lat="47.22714" lon="4.92484">
        <ele>464</ele>
        <time>2022-05-15T09:05:46Z</time>
      </trkpt>
      <trkpt lat="47.22715" lon="4.92484">
        <ele>463</ele>
        <time>2022-05-15T09:05:47Z</time>
      </trkpt>
      <trkpt lat="47.22717" lon="4.92484">
        <ele>461</ele>
        <time>2022-05-15T09:05:49Z</time>
      </trkpt>
      <trkpt lat="47.22719" lon="4.92483">
        <ele>461</ele>
        <time>2022-05-15T09:05:50Z</time>
      </trkpt>
      <trkpt lat="47.2272" lon="4.92482">
        <ele>461</ele>
        <time>2022-05-15T09:05:51Z</time>
      </trkpt>
      <trkpt lat="47.22722" lon="4.92483">
        <ele>461</ele>
        <time>2022-05-15T09:05:52Z</time>
      </trkpt>
      <trkpt lat="47.22723" lon="4.92483">
        <ele>461</ele>
        <time>2022-05-15T09:05:53Z</time>
      </trkpt>
      <trkpt lat="47.22724" lon="4.92484">
        <ele>461</ele>
        <time>2022-05-15T09:05:54Z</time>
      </trkpt>
      <trkpt lat="47.22726" lon="4.92484">
        <ele>460</ele>
        <time>2022-05-15T09:05:56Z</time>
      </trkpt>
      <trkpt lat="47.22727" lon="4.92484">
        <ele>462</ele>
        <time>2022-05-15T09:05:58Z</time>
      </trkpt>
      <trkpt lat="47.22728" lon="4.92484">
        <ele>462</ele>
        <time>2022-05-15T09:05:59Z</time>
      </trkpt>
      <trkpt lat="47.2273" lon="4.92485">
        <ele>460</ele>
        <time>2022-05-15T09:06:00Z</time>
      </trkpt>
      <trkpt lat="47.22731" lon="4.92485">
        <ele>461</ele>
        <time>2022-05-15T09:06:01Z</time>
      </trkpt>
      <trkpt lat="47.22733" lon="4.92485">
        <ele>461</ele>
        <time>2022-05-15T09:06:02Z</time>
      </trkpt>
      <trkpt lat="47.22734" lon="4.92485">
        <ele>462</ele>
        <time>2022-05-15T09:06:03Z</time>
      </trkpt>
      <trkpt lat="47.22735" lon="4.92485">
        <ele>462</ele>
        <time>2022-05-15T09:06:04Z</time>
      </trkpt>
      <trkpt lat="47.22736" lon="4.92485">
        <ele>462</ele>
        <time>2022-05-15T09:06:05Z</time>
      </trkpt>
      <trkpt lat="47.22738" lon="4.92485">
        <ele>462</ele>
        <time>2022-05-15T09:06:06Z</time>
      </trkpt>
      <trkpt lat="47.22739" lon="4.92484">
        <ele>461</ele>
        <time>2022-05-15T09:06:07Z</time>
      </trkpt>
      <trkpt lat="47.2274" lon="4.92484">
        <ele>463</ele>
        <time>2022-05-15T09:06:08Z</time>
      </trkpt>
      <trkpt lat="47.22742" lon="4.92485">
        <ele>462</ele>
        <time>2022-05-15T09:06:09Z</time>
      </trkpt>
      <trkpt lat="47.22744" lon="4.92485">
        <ele>461</ele>
        <time>2022-05-15T09:06:10Z</time>
      </trkpt>
      <trkpt lat="47.22745" lon="4.92485">
        <ele>461</ele>
        <time>2022-05-15T09:06:11Z</time>
      </trkpt>
      <trkpt lat="47.22746" lon="4.92485">
        <ele>462</ele>
        <time>2022-05-15T09:06:12Z</time>
      </trkpt>
      <trkpt lat="47.22748" lon="4.92484">
        <ele>461</ele>
        <time>2022-05-15T09:06:13Z</time>
      </trkpt>
      <trkpt lat="47.22749" lon="4.92483">
        <ele>461</ele>
        <time>2022-05-15T09:06:14Z</time>
      </trkpt>
      <trkpt lat="47.2275" lon="4.92482">
        <ele>462</ele>
        <time>2022-05-15T09:06:15Z</time>
      </trkpt>
      <trkpt lat="47.22751" lon="4.92481">
        <ele>462</ele>
        <time>2022-05-15T09:06:16Z</time>
      </trkpt>
      <trkpt lat="47.22752" lon="4.92481">
        <ele>462</ele>
        <time>2022-05-15T09:06:17Z</time>
      </trkpt>
      <trkpt lat="47.22753" lon="4.9248">
        <ele>463</ele>
        <time>2022-05-15T09:06:18Z</time>
      </trkpt>
      <trkpt lat="47.22754" lon="4.92479">
        <ele>465</ele>
        <time>2022-05-15T09:06:19Z</time>
      </trkpt>
      <trkpt lat="47.22755" lon="4.92478">
        <ele>465</ele>
        <time>2022-05-15T09:06:20Z</time>
      </trkpt>
      <trkpt lat="47.22755" lon="4.92476">
        <ele>466</ele>
        <time>2022-05-15T09:06:21Z</time>
      </trkpt>
      <trkpt lat="47.22756" lon="4.92475">
        <ele>466</ele>
        <time>2022-05-15T09:06:22Z</time>
      </trkpt>
      <trkpt lat="47.22757" lon="4.92474">
        <ele>467</ele>
        <time>2022-05-15T09:06:23Z</time>
      </trkpt>
      <trkpt lat="47.22759" lon="4.92475">
        <ele>466</ele>
        <time>2022-05-15T09:06:24Z</time>
      </trkpt>
      <trkpt lat="47.2276" lon="4.92475">
        <ele>468</ele>
        <time>2022-05-15T09:06:25Z</time>
      </trkpt>
      <trkpt lat="47.22761" lon="4.92475">
        <ele>468</ele>
        <time>2022-05-15T09:06:26Z</time>
      </trkpt>
      <trkpt lat="47.22762" lon="4.92475">
        <ele>471</ele>
        <time>2022-05-15T09:06:28Z</time>
      </trkpt>
      <trkpt lat="47.22763" lon="4.92475">
        <ele>471</ele>
        <time>2022-05-15T09:06:29Z</time>
      </trkpt>
      <trkpt lat="47.22765" lon="4.92473">
        <ele>473</ele>
        <time>2022-05-15T09:06:31Z</time>
      </trkpt>
      <trkpt lat="47.22767" lon="4.92473">
        <ele>472</ele>
        <time>2022-05-15T09:06:32Z</time>
      </trkpt>
      <trkpt lat="47.22768" lon="4.92472">
        <ele>473</ele>
        <time>2022-05-15T09:06:34Z</time>
      </trkpt>
      <trkpt lat="47.22769" lon="4.92471">
        <ele>472</ele>
        <time>2022-05-15T09:06:35Z</time>
      </trkpt>
      <trkpt lat="47.2277" lon="4.92471">
        <ele>471</ele>
        <time>2022-05-15T09:06:37Z</time>
      </trkpt>
      <trkpt lat="47.22772" lon="4.92471">
        <ele>470</ele>
        <time>2022-05-15T09:06:38Z</time>
      </trkpt>
      <trkpt lat="47.22774" lon="4.9247">
        <ele>469</ele>
        <time>2022-05-15T09:06:40Z</time>
      </trkpt>
      <trkpt lat="47.22775" lon="4.9247">
        <ele>469</ele>
        <time>2022-05-15T09:06:41Z</time>
      </trkpt>
      <trkpt lat="47.22776" lon="4.9247">
        <ele>470</ele>
        <time>2022-05-15T09:06:42Z</time>
      </trkpt>
      <trkpt lat="47.22777" lon="4.92469">
        <ele>469</ele>
        <time>2022-05-15T09:06:43Z</time>
      </trkpt>
      <trkpt lat="47.22778" lon="4.92467">
        <ele>469</ele>
        <time>2022-05-15T09:06:45Z</time>
      </trkpt>
      <trkpt lat="47.22778" lon="4.92465">
        <ele>468</ele>
        <time>2022-05-15T09:06:46Z</time>
      </trkpt>
      <trkpt lat="47.22778" lon="4.92463">
        <ele>468</ele>
        <time>2022-05-15T09:06:48Z</time>
      </trkpt>
      <trkpt lat="47.22779" lon="4.92461">
        <ele>468</ele>
        <time>2022-05-15T09:06:49Z</time>
      </trkpt>
      <trkpt lat="47.22779" lon="4.9246">
        <ele>467</ele>
        <time>2022-05-15T09:06:50Z</time>
      </trkpt>
      <trkpt lat="47.2278" lon="4.92458">
        <ele>468</ele>
        <time>2022-05-15T09:06:51Z</time>
      </trkpt>
      <trkpt lat="47.22781" lon="4.92457">
        <ele>467</ele>
        <time>2022-05-15T09:06:52Z</time>
      </trkpt>
      <trkpt lat="47.22782" lon="4.92456">
        <ele>469</ele>
        <time>2022-05-15T09:06:54Z</time>
      </trkpt>
      <trkpt lat="47.22783" lon="4.92454">
        <ele>469</ele>
        <time>2022-05-15T09:06:56Z</time>
      </trkpt>
      <trkpt lat="47.22784" lon="4.92451">
        <ele>469</ele>
        <time>2022-05-15T09:06:59Z</time>
      </trkpt>
      <trkpt lat="47.22785" lon="4.92452">
        <ele>470</ele>
        <time>2022-05-15T09:07:03Z</time>
      </trkpt>
      <trkpt lat="47.22787" lon="4.92451">
        <ele>470</ele>
        <time>2022-05-15T09:07:05Z</time>
      </trkpt>
      <trkpt lat="47.22789" lon="4.9245">
        <ele>470</ele>
        <time>2022-05-15T09:07:07Z</time>
      </trkpt>
      <trkpt lat="47.2279" lon="4.92449">
        <ele>470</ele>
        <time>2022-05-15T09:07:08Z</time>
      </trkpt>
      <trkpt lat="47.22792" lon="4.92448">
        <ele>448</ele>
        <time>2022-05-15T09:07:09Z</time>
      </trkpt>
      <trkpt lat="47.22793" lon="4.92446">
        <ele>455</ele>
        <time>2022-05-15T09:07:10Z</time>
      </trkpt>
      <trkpt lat="47.22794" lon="4.92444">
        <ele>461</ele>
        <time>2022-05-15T09:07:12Z</time>
      </trkpt>
      <trkpt lat="47.22794" lon="4.92443">
        <ele>464</ele>
        <time>2022-05-15T09:07:13Z</time>
      </trkpt>
      <trkpt lat="47.22795" lon="4.92441">
        <ele>465</ele>
        <time>2022-05-15T09:07:14Z</time>
      </trkpt>
      <trkpt lat="47.22796" lon="4.9244">
        <ele>466</ele>
        <time>2022-05-15T09:07:15Z</time>
      </trkpt>
      <trkpt lat="47.22797" lon="4.92439">
        <ele>468</ele>
        <time>2022-05-15T09:07:16Z</time>
      </trkpt>
      <trkpt lat="47.22797" lon="4.92436">
        <ele>468</ele>
        <time>2022-05-15T09:07:18Z</time>
      </trkpt>
      <trkpt lat="47.22798" lon="4.92434">
        <ele>467</ele>
        <time>2022-05-15T09:07:20Z</time>
      </trkpt>
      <trkpt lat="47.22798" lon="4.92432">
        <ele>466</ele>
        <time>2022-05-15T09:07:21Z</time>
      </trkpt>
      <trkpt lat="47.22799" lon="4.9243">
        <ele>467</ele>
        <time>2022-05-15T09:07:22Z</time>
      </trkpt>
      <trkpt lat="47.228" lon="4.92428">
        <ele>467</ele>
        <time>2022-05-15T09:07:23Z</time>
      </trkpt>
      <trkpt lat="47.22801" lon="4.92426">
        <ele>469</ele>
        <time>2022-05-15T09:07:24Z</time>
      </trkpt>
      <trkpt lat="47.22802" lon="4.92425">
        <ele>470</ele>
        <time>2022-05-15T09:07:25Z</time>
      </trkpt>
      <trkpt lat="47.22802" lon="4.92424">
        <ele>470</ele>
        <time>2022-05-15T09:07:26Z</time>
      </trkpt>
      <trkpt lat="47.22803" lon="4.92422">
        <ele>472</ele>
        <time>2022-05-15T09:07:27Z</time>
      </trkpt>
      <trkpt lat="47.22804" lon="4.92421">
        <ele>471</ele>
        <time>2022-05-15T09:07:28Z</time>
      </trkpt>
      <trkpt lat="47.22805" lon="4.9242">
        <ele>471</ele>
        <time>2022-05-15T09:07:29Z</time>
      </trkpt>
      <trkpt lat="47.22808" lon="4.92419">
        <ele>470</ele>
        <time>2022-05-15T09:07:30Z</time>
      </trkpt>
      <trkpt lat="47.22809" lon="4.92418">
        <ele>469</ele>
        <time>2022-05-15T09:07:31Z</time>
      </trkpt>
      <trkpt lat="47.22811" lon="4.92417">
        <ele>469</ele>
        <time>2022-05-15T09:07:32Z</time>
      </trkpt>
      <trkpt lat="47.22812" lon="4.92417">
        <ele>470</ele>
        <time>2022-05-15T09:07:33Z</time>
      </trkpt>
      <trkpt lat="47.22814" lon="4.92416">
        <ele>470</ele>
        <time>2022-05-15T09:07:34Z</time>
      </trkpt>
      <trkpt lat="47.22817" lon="4.92415">
        <ele>470</ele>
        <time>2022-05-15T09:07:35Z</time>
      </trkpt>
      <trkpt lat="47.22818" lon="4.92415">
        <ele>471</ele>
        <time>2022-05-15T09:07:36Z</time>
      </trkpt>
      <trkpt lat="47.2282" lon="4.92414">
        <ele>473</ele>
        <time>2022-05-15T09:07:37Z</time>
      </trkpt>
      <trkpt lat="47.22822" lon="4.92413">
        <ele>474</ele>
        <time>2022-05-15T09:07:38Z</time>
      </trkpt>
      <trkpt lat="47.22823" lon="4.92411">
        <ele>475</ele>
        <time>2022-05-15T09:07:40Z</time>
      </trkpt>
      <trkpt lat="47.22824" lon="4.9241">
        <ele>474</ele>
        <time>2022-05-15T09:07:41Z</time>
      </trkpt>
      <trkpt lat="47.22827" lon="4.92409">
        <ele>471</ele>
        <time>2022-05-15T09:07:43Z</time>
      </trkpt>
      <trkpt lat="47.22828" lon="4.92409">
        <ele>469</ele>
        <time>2022-05-15T09:07:44Z</time>
      </trkpt>
      <trkpt lat="47.22828" lon="4.92407">
        <ele>472</ele>
        <time>2022-05-15T09:07:49Z</time>
      </trkpt>
      <trkpt lat="47.22829" lon="4.92406">
        <ele>472</ele>
        <time>2022-05-15T09:07:50Z</time>
      </trkpt>
      <trkpt lat="47.2283" lon="4.92405">
        <ele>471</ele>
        <time>2022-05-15T09:07:51Z</time>
      </trkpt>
      <trkpt lat="47.22831" lon="4.92403">
        <ele>468</ele>
        <time>2022-05-15T09:07:55Z</time>
      </trkpt>
      <trkpt lat="47.22832" lon="4.92401">
        <ele>467</ele>
        <time>2022-05-15T09:07:56Z</time>
      </trkpt>
      <trkpt lat="47.22832" lon="4.924">
        <ele>467</ele>
        <time>2022-05-15T09:07:57Z</time>
      </trkpt>
      <trkpt lat="47.22833" lon="4.92397">
        <ele>466</ele>
        <time>2022-05-15T09:08:00Z</time>
      </trkpt>
      <trkpt lat="47.22833" lon="4.92395">
        <ele>465</ele>
        <time>2022-05-15T09:08:02Z</time>
      </trkpt>
      <trkpt lat="47.22835" lon="4.92393">
        <ele>465</ele>
        <time>2022-05-15T09:08:03Z</time>
      </trkpt>
      <trkpt lat="47.22836" lon="4.92392">
        <ele>463</ele>
        <time>2022-05-15T09:08:04Z</time>
      </trkpt>
      <trkpt lat="47.22837" lon="4.92391">
        <ele>465</ele>
        <time>2022-05-15T09:08:05Z</time>
      </trkpt>
      <trkpt lat="47.22838" lon="4.9239">
        <ele>466</ele>
        <time>2022-05-15T09:08:06Z</time>
      </trkpt>
      <trkpt lat="47.22841" lon="4.92388">
        <ele>467</ele>
        <time>2022-05-15T09:08:07Z</time>
      </trkpt>
      <trkpt lat="47.22842" lon="4.92387">
        <ele>465</ele>
        <time>2022-05-15T09:08:08Z</time>
      </trkpt>
      <trkpt lat="47.22843" lon="4.92386">
        <ele>466</ele>
        <time>2022-05-15T09:08:09Z</time>
      </trkpt>
      <trkpt lat="47.22844" lon="4.92384">
        <ele>465</ele>
        <time>2022-05-15T09:08:11Z</time>
      </trkpt>
      <trkpt lat="47.22845" lon="4.92383">
        <ele>465</ele>
        <time>2022-05-15T09:08:12Z</time>
      </trkpt>
      <trkpt lat="47.22847" lon="4.92382">
        <ele>465</ele>
        <time>2022-05-15T09:08:13Z</time>
      </trkpt>
      <trkpt lat="47.22848" lon="4.92382">
        <ele>463</ele>
        <time>2022-05-15T09:08:15Z</time>
      </trkpt>
      <trkpt lat="47.2285" lon="4.92383">
        <ele>462</ele>
        <time>2022-05-15T09:08:16Z</time>
      </trkpt>
      <trkpt lat="47.22851" lon="4.92382">
        <ele>460</ele>
        <time>2022-05-15T09:08:17Z</time>
      </trkpt>
      <trkpt lat="47.2285" lon="4.92381">
        <ele>460</ele>
        <time>2022-05-15T09:08:18Z</time>
      </trkpt>
      <trkpt lat="47.22851" lon="4.9238">
        <ele>459</ele>
        <time>2022-05-15T09:08:21Z</time>
      </trkpt>
      <trkpt lat="47.22852" lon="4.92378">
        <ele>459</ele>
        <time>2022-05-15T09:08:23Z</time>
      </trkpt>
      <trkpt lat="47.22853" lon="4.92376">
        <ele>459</ele>
        <time>2022-05-15T09:08:24Z</time>
      </trkpt>
      <trkpt lat="47.22854" lon="4.92374">
        <ele>460</ele>
        <time>2022-05-15T09:08:26Z</time>
      </trkpt>
      <trkpt lat="47.22855" lon="4.92372">
        <ele>462</ele>
        <time>2022-05-15T09:08:28Z</time>
      </trkpt>
      <trkpt lat="47.22856" lon="4.9237">
        <ele>462</ele>
        <time>2022-05-15T09:08:29Z</time>
      </trkpt>
      <trkpt lat="47.22857" lon="4.9237">
        <ele>463</ele>
        <time>2022-05-15T09:08:30Z</time>
      </trkpt>
      <trkpt lat="47.22859" lon="4.9237">
        <ele>463</ele>
        <time>2022-05-15T09:08:31Z</time>
      </trkpt>
      <trkpt lat="47.2286" lon="4.9237">
        <ele>463</ele>
        <time>2022-05-15T09:08:33Z</time>
      </trkpt>
      <trkpt lat="47.22863" lon="4.92368">
        <ele>466</ele>
        <time>2022-05-15T09:08:35Z</time>
      </trkpt>
      <trkpt lat="47.22865" lon="4.92367">
        <ele>466</ele>
        <time>2022-05-15T09:08:36Z</time>
      </trkpt>
      <trkpt lat="47.22866" lon="4.92367">
        <ele>464</ele>
        <time>2022-05-15T09:08:37Z</time>
      </trkpt>
      <trkpt lat="47.22867" lon="4.92366">
        <ele>461</ele>
        <time>2022-05-15T09:08:39Z</time>
      </trkpt>
      <trkpt lat="47.22868" lon="4.92366">
        <ele>462</ele>
        <time>2022-05-15T09:08:40Z</time>
      </trkpt>
      <trkpt lat="47.2287" lon="4.92366">
        <ele>461</ele>
        <time>2022-05-15T09:08:41Z</time>
      </trkpt>
      <trkpt lat="47.22872" lon="4.92365">
        <ele>460</ele>
        <time>2022-05-15T09:08:42Z</time>
      </trkpt>
      <trkpt lat="47.22871" lon="4.92366">
        <ele>461</ele>
        <time>2022-05-15T09:08:44Z</time>
      </trkpt>
      <trkpt lat="47.22873" lon="4.92365">
        <ele>461</ele>
        <time>2022-05-15T09:08:46Z</time>
      </trkpt>
      <trkpt lat="47.22875" lon="4.92364">
        <ele>461</ele>
        <time>2022-05-15T09:08:47Z</time>
      </trkpt>
      <trkpt lat="47.22876" lon="4.92364">
        <ele>462</ele>
        <time>2022-05-15T09:08:48Z</time>
      </trkpt>
      <trkpt lat="47.22877" lon="4.92363">
        <ele>462</ele>
        <time>2022-05-15T09:08:49Z</time>
      </trkpt>
      <trkpt lat="47.22877" lon="4.92362">
        <ele>462</ele>
        <time>2022-05-15T09:08:50Z</time>
      </trkpt>
      <trkpt lat="47.22878" lon="4.92361">
        <ele>462</ele>
        <time>2022-05-15T09:08:51Z</time>
      </trkpt>
      <trkpt lat="47.2288" lon="4.9236">
        <ele>462</ele>
        <time>2022-05-15T09:08:52Z</time>
      </trkpt>
      <trkpt lat="47.22881" lon="4.92359">
        <ele>461</ele>
        <time>2022-05-15T09:08:53Z</time>
      </trkpt>
      <trkpt lat="47.22883" lon="4.92359">
        <ele>460</ele>
        <time>2022-05-15T09:08:54Z</time>
      </trkpt>
      <trkpt lat="47.22884" lon="4.92359">
        <ele>461</ele>
        <time>2022-05-15T09:08:55Z</time>
      </trkpt>
      <trkpt lat="47.22885" lon="4.92358">
        <ele>464</ele>
        <time>2022-05-15T09:09:01Z</time>
      </trkpt>
      <trkpt lat="47.22886" lon="4.92357">
        <ele>465</ele>
        <time>2022-05-15T09:09:02Z</time>
      </trkpt>
      <trkpt lat="47.22887" lon="4.92356">
        <ele>464</ele>
        <time>2022-05-15T09:09:03Z</time>
      </trkpt>
      <trkpt lat="47.22888" lon="4.92356">
        <ele>465</ele>
        <time>2022-05-15T09:09:04Z</time>
      </trkpt>
      <trkpt lat="47.22889" lon="4.92356">
        <ele>465</ele>
        <time>2022-05-15T09:09:05Z</time>
      </trkpt>
      <trkpt lat="47.2289" lon="4.92356">
        <ele>466</ele>
        <time>2022-05-15T09:09:06Z</time>
      </trkpt>
      <trkpt lat="47.22892" lon="4.92355">
        <ele>468</ele>
        <time>2022-05-15T09:09:08Z</time>
      </trkpt>
      <trkpt lat="47.22893" lon="4.92355">
        <ele>468</ele>
        <time>2022-05-15T09:09:09Z</time>
      </trkpt>
      <trkpt lat="47.22895" lon="4.92355">
        <ele>470</ele>
        <time>2022-05-15T09:09:10Z</time>
      </trkpt>
      <trkpt lat="47.22896" lon="4.92355">
        <ele>470</ele>
        <time>2022-05-15T09:09:11Z</time>
      </trkpt>
      <trkpt lat="47.22898" lon="4.92355">
        <ele>470</ele>
        <time>2022-05-15T09:09:12Z</time>
      </trkpt>
      <trkpt lat="47.22899" lon="4.92354">
        <ele>470</ele>
        <time>2022-05-15T09:09:13Z</time>
      </trkpt>
      <trkpt lat="47.229" lon="4.92353">
        <ele>471</ele>
        <time>2022-05-15T09:09:14Z</time>
      </trkpt>
      <trkpt lat="47.22902" lon="4.92353">
        <ele>470</ele>
        <time>2022-05-15T09:09:15Z</time>
      </trkpt>
      <trkpt lat="47.22904" lon="4.92353">
        <ele>471</ele>
        <time>2022-05-15T09:09:16Z</time>
      </trkpt>
      <trkpt lat="47.22905" lon="4.92352">
        <ele>470</ele>
        <time>2022-05-15T09:09:17Z</time>
      </trkpt>
      <trkpt lat="47.22907" lon="4.92352">
        <ele>470</ele>
        <time>2022-05-15T09:09:18Z</time>
      </trkpt>
      <trkpt lat="47.22908" lon="4.92352">
        <ele>470</ele>
        <time>2022-05-15T09:09:19Z</time>
      </trkpt>
      <trkpt lat="47.22909" lon="4.92351">
        <ele>470</ele>
        <time>2022-05-15T09:09:20Z</time>
      </trkpt>
      <trkpt lat="47.2291" lon="4.92351">
        <ele>470</ele>
        <time>2022-05-15T09:09:21Z</time>
      </trkpt>
      <trkpt lat="47.22912" lon="4.92351">
        <ele>468</ele>
        <time>2022-05-15T09:09:22Z</time>
      </trkpt>
      <trkpt lat="47.22914" lon="4.9235">
        <ele>468</ele>
        <time>2022-05-15T09:09:23Z</time>
      </trkpt>
      <trkpt lat="47.22915" lon="4.92349">
        <ele>468</ele>
        <time>2022-05-15T09:09:24Z</time>
      </trkpt>
      <trkpt lat="47.22917" lon="4.92349">
        <ele>467</ele>
        <time>2022-05-15T09:09:25Z</time>
      </trkpt>
      <trkpt lat="47.22918" lon="4.92348">
        <ele>465</ele>
        <time>2022-05-15T09:09:26Z</time>
      </trkpt>
      <trkpt lat="47.2292" lon="4.92347">
        <ele>463</ele>
        <time>2022-05-15T09:09:27Z</time>
      </trkpt>
      <trkpt lat="47.22921" lon="4.92346">
        <ele>462</ele>
        <time>2022-05-15T09:09:28Z</time>
      </trkpt>
      <trkpt lat="47.22923" lon="4.92346">
        <ele>466</ele>
        <time>2022-05-15T09:09:29Z</time>
      </trkpt>
      <trkpt lat="47.22924" lon="4.92346">
        <ele>466</ele>
        <time>2022-05-15T09:09:30Z</time>
      </trkpt>
      <trkpt lat="47.22925" lon="4.92346">
        <ele>465</ele>
        <time>2022-05-15T09:09:31Z</time>
      </trkpt>
      <trkpt lat="47.22926" lon="4.92346">
        <ele>465</ele>
        <time>2022-05-15T09:09:32Z</time>
      </trkpt>
      <trkpt lat="47.22928" lon="4.92346">
        <ele>465</ele>
        <time>2022-05-15T09:09:33Z</time>
      </trkpt>
      <trkpt lat="47.22929" lon="4.92346">
        <ele>465</ele>
        <time>2022-05-15T09:09:34Z</time>
      </trkpt>
      <trkpt lat="47.22931" lon="4.92345">
        <ele>465</ele>
        <time>2022-05-15T09:09:35Z</time>
      </trkpt>
      <trkpt lat="47.22932" lon="4.92345">
        <ele>465</ele>
        <time>2022-05-15T09:09:37Z</time>
      </trkpt>
      <trkpt lat="47.22933" lon="4.92346">
        <ele>466</ele>
        <time>2022-05-15T09:09:38Z</time>
      </trkpt>
      <trkpt lat="47.22935" lon="4.92346">
        <ele>467</ele>
        <time>2022-05-15T09:09:39Z</time>
      </trkpt>
      <trkpt lat="47.22935" lon="4.92346">
        <ele>468</ele>
        <time>2022-05-15T09:09:40Z</time>
      </trkpt>
      <trkpt lat="47.22935" lon="4.92344">
        <ele>470</ele>
        <time>2022-05-15T09:09:41Z</time>
      </trkpt>
      <trkpt lat="47.22936" lon="4.92344">
        <ele>471</ele>
        <time>2022-05-15T09:09:43Z</time>
      </trkpt>
      <trkpt lat="47.22937" lon="4.92343">
        <ele>472</ele>
        <time>2022-05-15T09:09:45Z</time>
      </trkpt>
      <trkpt lat="47.22938" lon="4.92342">
        <ele>473</ele>
        <time>2022-05-15T09:09:46Z</time>
      </trkpt>
      <trkpt lat="47.22938" lon="4.92341">
        <ele>474</ele>
        <time>2022-05-15T09:09:47Z</time>
      </trkpt>
      <trkpt lat="47.2294" lon="4.92339">
        <ele>475</ele>
        <time>2022-05-15T09:09:50Z</time>
      </trkpt>
      <trkpt lat="47.22941" lon="4.92339">
        <ele>476</ele>
        <time>2022-05-15T09:09:51Z</time>
      </trkpt>
      <trkpt lat="47.22942" lon="4.92339">
        <ele>476</ele>
        <time>2022-05-15T09:09:52Z</time>
      </trkpt>
      <trkpt lat="47.22943" lon="4.92338">
        <ele>476</ele>
        <time>2022-05-15T09:09:53Z</time>
      </trkpt>
      <trkpt lat="47.22944" lon="4.92338">
        <ele>477</ele>
        <time>2022-05-15T09:09:54Z</time>
      </trkpt>
      <trkpt lat="47.22946" lon="4.92338">
        <ele>476</ele>
        <time>2022-05-15T09:09:55Z</time>
      </trkpt>
      <trkpt lat="47.22947" lon="4.92338">
        <ele>476</ele>
        <time>2022-05-15T09:09:56Z</time>
      </trkpt>
      <trkpt lat="47.22949" lon="4.92339">
        <ele>476</ele>
        <time>2022-05-15T09:09:57Z</time>
      </trkpt>
      <trkpt lat="47.2295" lon="4.9234">
        <ele>477</ele>
        <time>2022-05-15T09:09:58Z</time>
      </trkpt>
      <trkpt lat="47.22952" lon="4.92339">
        <ele>478</ele>
        <time>2022-05-15T09:10:01Z</time>
      </trkpt>
      <trkpt lat="47.22951" lon="4.92336">
        <ele>481</ele>
        <time>2022-05-15T09:10:03Z</time>
      </trkpt>
      <trkpt lat="47.22952" lon="4.92335">
        <ele>480</ele>
        <time>2022-05-15T09:10:04Z</time>
      </trkpt>
      <trkpt lat="47.22953" lon="4.92334">
        <ele>480</ele>
        <time>2022-05-15T09:10:05Z</time>
      </trkpt>
      <trkpt lat="47.22955" lon="4.92334">
        <ele>480</ele>
        <time>2022-05-15T09:10:06Z</time>
      </trkpt>
      <trkpt lat="47.22956" lon="4.92333">
        <ele>480</ele>
        <time>2022-05-15T09:10:07Z</time>
      </trkpt>
      <trkpt lat="47.22957" lon="4.92332">
        <ele>479</ele>
        <time>2022-05-15T09:10:08Z</time>
      </trkpt>
      <trkpt lat="47.22958" lon="4.92331">
        <ele>480</ele>
        <time>2022-05-15T09:10:10Z</time>
      </trkpt>
      <trkpt lat="47.22959" lon="4.9233">
        <ele>480</ele>
        <time>2022-05-15T09:10:11Z</time>
      </trkpt>
      <trkpt lat="47.2296" lon="4.92327">
        <ele>480</ele>
        <time>2022-05-15T09:10:13Z</time>
      </trkpt>
      <trkpt lat="47.22961" lon="4.92326">
        <ele>480</ele>
        <time>2022-05-15T09:10:14Z</time>
      </trkpt>
      <trkpt lat="47.22963" lon="4.92325">
        <ele>480</ele>
        <time>2022-05-15T09:10:16Z</time>
      </trkpt>
      <trkpt lat="47.22962" lon="4.92324">
        <ele>481</ele>
        <time>2022-05-15T09:10:19Z</time>
      </trkpt>
      <trkpt lat="47.22962" lon="4.92323">
        <ele>483</ele>
        <time>2022-05-15T09:10:20Z</time>
      </trkpt>
      <trkpt lat="47.22963" lon="4.92321">
        <ele>483</ele>
        <time>2022-05-15T09:10:21Z</time>
      </trkpt>
      <trkpt lat="47.22964" lon="4.9232">
        <ele>483</ele>
        <time>2022-05-15T09:10:22Z</time>
      </trkpt>
      <trkpt lat="47.22964" lon="4.92318">
        <ele>481</ele>
        <time>2022-05-15T09:10:24Z</time>
      </trkpt>
      <trkpt lat="47.22966" lon="4.92316">
        <ele>480</ele>
        <time>2022-05-15T09:10:26Z</time>
      </trkpt>
      <trkpt lat="47.22967" lon="4.92315">
        <ele>481</ele>
        <time>2022-05-15T09:10:27Z</time>
      </trkpt>
      <trkpt lat="47.22968" lon="4.92313">
        <ele>479</ele>
        <time>2022-05-15T09:10:28Z</time>
      </trkpt>
      <trkpt lat="47.22969" lon="4.92312">
        <ele>478</ele>
        <time>2022-05-15T09:10:29Z</time>
      </trkpt>
      <trkpt lat="47.22971" lon="4.92311">
        <ele>480</ele>
        <time>2022-05-15T09:10:31Z</time>
      </trkpt>
      <trkpt lat="47.22973" lon="4.92311">
        <ele>479</ele>
        <time>2022-05-15T09:10:32Z</time>
      </trkpt>
      <trkpt lat="47.22974" lon="4.9231">
        <ele>479</ele>
        <time>2022-05-15T09:10:33Z</time>
      </trkpt>
      <trkpt lat="47.22976" lon="4.9231">
        <ele>478</ele>
        <time>2022-05-15T09:10:34Z</time>
      </trkpt>
      <trkpt lat="47.22977" lon="4.92309">
        <ele>477</ele>
        <time>2022-05-15T09:10:35Z</time>
      </trkpt>
      <trkpt lat="47.22978" lon="4.92309">
        <ele>475</ele>
        <time>2022-05-15T09:10:36Z</time>
      </trkpt>
      <trkpt lat="47.2298" lon="4.92309">
        <ele>475</ele>
        <time>2022-05-15T09:10:37Z</time>
      </trkpt>
      <trkpt lat="47.22982" lon="4.92309">
        <ele>476</ele>
        <time>2022-05-15T09:10:38Z</time>
      </trkpt>
      <trkpt lat="47.22985" lon="4.92309">
        <ele>475</ele>
        <time>2022-05-15T09:10:40Z</time>
      </trkpt>
      <trkpt lat="47.22986" lon="4.92308">
        <ele>475</ele>
        <time>2022-05-15T09:10:41Z</time>
      </trkpt>
      <trkpt lat="47.22987" lon="4.92307">
        <ele>474</ele>
        <time>2022-05-15T09:10:42Z</time>
      </trkpt>
      <trkpt lat="47.22988" lon="4.92305">
        <ele>475</ele>
        <time>2022-05-15T09:10:43Z</time>
      </trkpt>
      <trkpt lat="47.22989" lon="4.92304">
        <ele>475</ele>
        <time>2022-05-15T09:10:46Z</time>
      </trkpt>
      <trkpt lat="47.2299" lon="4.92303">
        <ele>476</ele>
        <time>2022-05-15T09:10:47Z</time>
      </trkpt>
      <trkpt lat="47.22992" lon="4.92301">
        <ele>478</ele>
        <time>2022-05-15T09:10:48Z</time>
      </trkpt>
      <trkpt lat="47.22994" lon="4.92301">
        <ele>478</ele>
        <time>2022-05-15T09:10:49Z</time>
      </trkpt>
      <trkpt lat="47.22996" lon="4.92301">
        <ele>478</ele>
        <time>2022-05-15T09:10:50Z</time>
      </trkpt>
      <trkpt lat="47.22998" lon="4.92301">
        <ele>478</ele>
        <time>2022-05-15T09:10:51Z</time>
      </trkpt>
      <trkpt lat="47.22999" lon="4.923">
        <ele>479</ele>
        <time>2022-05-15T09:10:52Z</time>
      </trkpt>
      <trkpt lat="47.23" lon="4.92299">
        <ele>478</ele>
        <time>2022-05-15T09:10:54Z</time>
      </trkpt>
      <trkpt lat="47.23001" lon="4.92299">
        <ele>446</ele>
        <time>2022-05-15T09:10:55Z</time>
      </trkpt>
      <trkpt lat="47.23002" lon="4.92297">
        <ele>465</ele>
        <time>2022-05-15T09:10:58Z</time>
      </trkpt>
      <trkpt lat="47.23003" lon="4.92296">
        <ele>469</ele>
        <time>2022-05-15T09:10:59Z</time>
      </trkpt>
      <trkpt lat="47.23003" lon="4.92294">
        <ele>470</ele>
        <time>2022-05-15T09:11:00Z</time>
      </trkpt>
      <trkpt lat="47.23006" lon="4.92293">
        <ele>471</ele>
        <time>2022-05-15T09:11:02Z</time>
      </trkpt>
      <trkpt lat="47.2301" lon="4.92292">
        <ele>471</ele>
        <time>2022-05-15T09:11:04Z</time>
      </trkpt>
      <trkpt lat="47.23013" lon="4.92292">
        <ele>472</ele>
        <time>2022-05-15T09:11:05Z</time>
      </trkpt>
      <trkpt lat="47.23015" lon="4.92291">
        <ele>472</ele>
        <time>2022-05-15T09:11:06Z</time>
      </trkpt>
      <trkpt lat="47.23016" lon="4.92291">
        <ele>471</ele>
        <time>2022-05-15T09:11:07Z</time>
      </trkpt>
      <trkpt lat="47.23018" lon="4.9229">
        <ele>471</ele>
        <time>2022-05-15T09:11:08Z</time>
      </trkpt>
      <trkpt lat="47.23019" lon="4.92289">
        <ele>471</ele>
        <time>2022-05-15T09:11:09Z</time>
      </trkpt>
      <trkpt lat="47.2302" lon="4.92288">
        <ele>472</ele>
        <time>2022-05-15T09:11:10Z</time>
      </trkpt>
      <trkpt lat="47.23019" lon="4.92286">
        <ele>473</ele>
        <time>2022-05-15T09:11:11Z</time>
      </trkpt>
      <trkpt lat="47.23019" lon="4.92285">
        <ele>474</ele>
        <time>2022-05-15T09:11:12Z</time>
      </trkpt>
      <trkpt lat="47.23019" lon="4.92284">
        <ele>476</ele>
        <time>2022-05-15T09:11:13Z</time>
      </trkpt>
      <trkpt lat="47.2302" lon="4.92282">
        <ele>480</ele>
        <time>2022-05-15T09:11:15Z</time>
      </trkpt>
      <trkpt lat="47.23022" lon="4.92281">
        <ele>482</ele>
        <time>2022-05-15T09:11:18Z</time>
      </trkpt>
      <trkpt lat="47.23024" lon="4.92281">
        <ele>481</ele>
        <time>2022-05-15T09:11:19Z</time>
      </trkpt>
      <trkpt lat="47.23025" lon="4.92281">
        <ele>482</ele>
        <time>2022-05-15T09:11:20Z</time>
      </trkpt>
      <trkpt lat="47.23026" lon="4.92281">
        <ele>482</ele>
        <time>2022-05-15T09:11:21Z</time>
      </trkpt>
      <trkpt lat="47.23027" lon="4.92281">
        <ele>482</ele>
        <time>2022-05-15T09:11:22Z</time>
      </trkpt>
      <trkpt lat="47.23028" lon="4.92279">
        <ele>480</ele>
        <time>2022-05-15T09:11:25Z</time>
      </trkpt>
      <trkpt lat="47.23027" lon="4.92278">
        <ele>479</ele>
        <time>2022-05-15T09:11:30Z</time>
      </trkpt>
      <trkpt lat="47.23028" lon="4.92277">
        <ele>480</ele>
        <time>2022-05-15T09:11:32Z</time>
      </trkpt>
      <trkpt lat="47.23029" lon="4.92276">
        <ele>480</ele>
        <time>2022-05-15T09:11:33Z</time>
      </trkpt>
      <trkpt lat="47.2303" lon="4.92276">
        <ele>480</ele>
        <time>2022-05-15T09:11:34Z</time>
      </trkpt>
      <trkpt lat="47.23032" lon="4.92276">
        <ele>479</ele>
        <time>2022-05-15T09:11:35Z</time>
      </trkpt>
      <trkpt lat="47.23032" lon="4.92274">
        <ele>477</ele>
        <time>2022-05-15T09:11:38Z</time>
      </trkpt>
      <trkpt lat="47.23033" lon="4.92272">
        <ele>476</ele>
        <time>2022-05-15T09:11:39Z</time>
      </trkpt>
      <trkpt lat="47.23035" lon="4.92272">
        <ele>476</ele>
        <time>2022-05-15T09:11:40Z</time>
      </trkpt>
      <trkpt lat="47.23036" lon="4.92273">
        <ele>476</ele>
        <time>2022-05-15T09:11:41Z</time>
      </trkpt>
      <trkpt lat="47.23038" lon="4.92274">
        <ele>476</ele>
        <time>2022-05-15T09:11:42Z</time>
      </trkpt>
      <trkpt lat="47.23039" lon="4.92275">
        <ele>476</ele>
        <time>2022-05-15T09:11:43Z</time>
      </trkpt>
      <trkpt lat="47.23041" lon="4.92275">
        <ele>473</ele>
        <time>2022-05-15T09:11:45Z</time>
      </trkpt>
      <trkpt lat="47.23043" lon="4.92275">
        <ele>472</ele>
        <time>2022-05-15T09:11:46Z</time>
      </trkpt>
      <trkpt lat="47.23046" lon="4.92274">
        <ele>472</ele>
        <time>2022-05-15T09:11:47Z</time>
      </trkpt>
      <trkpt lat="47.23047" lon="4.92273">
        <ele>472</ele>
        <time>2022-05-15T09:11:48Z</time>
      </trkpt>
      <trkpt lat="47.23049" lon="4.92273">
        <ele>473</ele>
        <time>2022-05-15T09:11:49Z</time>
      </trkpt>
      <trkpt lat="47.23051" lon="4.92272">
        <ele>473</ele>
        <time>2022-05-15T09:11:50Z</time>
      </trkpt>
      <trkpt lat="47.23052" lon="4.92272">
        <ele>473</ele>
        <time>2022-05-15T09:11:51Z</time>
      </trkpt>
      <trkpt lat="47.23053" lon="4.92271">
        <ele>473</ele>
        <time>2022-05-15T09:11:52Z</time>
      </trkpt>
      <trkpt lat="47.23055" lon="4.92271">
        <ele>472</ele>
        <time>2022-05-15T09:11:53Z</time>
      </trkpt>
      <trkpt lat="47.23057" lon="4.92271">
        <ele>473</ele>
        <time>2022-05-15T09:11:54Z</time>
      </trkpt>
      <trkpt lat="47.23059" lon="4.92271">
        <ele>474</ele>
        <time>2022-05-15T09:11:55Z</time>
      </trkpt>
      <trkpt lat="47.2306" lon="4.9227">
        <ele>474</ele>
        <time>2022-05-15T09:11:56Z</time>
      </trkpt>
      <trkpt lat="47.23061" lon="4.92269">
        <ele>473</ele>
        <time>2022-05-15T09:11:57Z</time>
      </trkpt>
      <trkpt lat="47.23062" lon="4.92268">
        <ele>473</ele>
        <time>2022-05-15T09:11:58Z</time>
      </trkpt>
      <trkpt lat="47.23063" lon="4.92267">
        <ele>473</ele>
        <time>2022-05-15T09:12:00Z</time>
      </trkpt>
      <trkpt lat="47.23064" lon="4.92266">
        <ele>474</ele>
        <time>2022-05-15T09:12:01Z</time>
      </trkpt>
      <trkpt lat="47.23065" lon="4.92266">
        <ele>473</ele>
        <time>2022-05-15T09:12:02Z</time>
      </trkpt>
      <trkpt lat="47.23067" lon="4.92265">
        <ele>475</ele>
        <time>2022-05-15T09:12:05Z</time>
      </trkpt>
      <trkpt lat="47.23067" lon="4.92264">
        <ele>479</ele>
        <time>2022-05-15T09:12:08Z</time>
      </trkpt>
      <trkpt lat="47.23068" lon="4.92262">
        <ele>478</ele>
        <time>2022-05-15T09:12:10Z</time>
      </trkpt>
      <trkpt lat="47.23069" lon="4.92262">
        <ele>478</ele>
        <time>2022-05-15T09:12:11Z</time>
      </trkpt>
      <trkpt lat="47.2307" lon="4.92261">
        <ele>478</ele>
        <time>2022-05-15T09:12:12Z</time>
      </trkpt>
      <trkpt lat="47.23072" lon="4.92261">
        <ele>478</ele>
        <time>2022-05-15T09:12:14Z</time>
      </trkpt>
      <trkpt lat="47.23074" lon="4.92261">
        <ele>478</ele>
        <time>2022-05-15T09:12:15Z</time>
      </trkpt>
      <trkpt lat="47.23076" lon="4.92261">
        <ele>477</ele>
        <time>2022-05-15T09:12:16Z</time>
      </trkpt>
      <trkpt lat="47.23077" lon="4.9226">
        <ele>478</ele>
        <time>2022-05-15T09:12:17Z</time>
      </trkpt>
      <trkpt lat="47.23078" lon="4.92259">
        <ele>477</ele>
        <time>2022-05-15T09:12:18Z</time>
      </trkpt>
      <trkpt lat="47.23079" lon="4.92258">
        <ele>478</ele>
        <time>2022-05-15T09:12:19Z</time>
      </trkpt>
      <trkpt lat="47.2308" lon="4.92257">
        <ele>479</ele>
        <time>2022-05-15T09:12:20Z</time>
      </trkpt>
      <trkpt lat="47.23081" lon="4.92256">
        <ele>478</ele>
        <time>2022-05-15T09:12:22Z</time>
      </trkpt>
      <trkpt lat="47.23082" lon="4.92255">
        <ele>478</ele>
        <time>2022-05-15T09:12:24Z</time>
      </trkpt>
      <trkpt lat="47.23083" lon="4.92254">
        <ele>479</ele>
        <time>2022-05-15T09:12:27Z</time>
      </trkpt>
      <trkpt lat="47.23084" lon="4.92253">
        <ele>478</ele>
        <time>2022-05-15T09:12:28Z</time>
      </trkpt>
      <trkpt lat="47.23085" lon="4.92252">
        <ele>478</ele>
        <time>2022-05-15T09:12:29Z</time>
      </trkpt>
      <trkpt lat="47.23085" lon="4.92251">
        <ele>478</ele>
        <time>2022-05-15T09:12:30Z</time>
      </trkpt>
      <trkpt lat="47.23086" lon="4.92249">
        <ele>478</ele>
        <time>2022-05-15T09:12:32Z</time>
      </trkpt>
      <trkpt lat="47.23086" lon="4.92247">
        <ele>477</ele>
        <time>2022-05-15T09:12:34Z</time>
      </trkpt>
      <trkpt lat="47.23085" lon="4.92245">
        <ele>480</ele>
        <time>2022-05-15T09:12:35Z</time>
      </trkpt>
      <trkpt lat="47.23087" lon="4.92242">
        <ele>477</ele>
        <time>2022-05-15T09:12:37Z</time>
      </trkpt>
      <trkpt lat="47.23088" lon="4.92241">
        <ele>478</ele>
        <time>2022-05-15T09:12:38Z</time>
      </trkpt>
      <trkpt lat="47.23089" lon="4.92241">
        <ele>478</ele>
        <time>2022-05-15T09:12:39Z</time>
      </trkpt>
      <trkpt lat="47.2309" lon="4.9224">
        <ele>479</ele>
        <time>2022-05-15T09:12:40Z</time>
      </trkpt>
      <trkpt lat="47.23091" lon="4.9224">
        <ele>480</ele>
        <time>2022-05-15T09:12:41Z</time>
      </trkpt>
      <trkpt lat="47.23093" lon="4.9224">
        <ele>481</ele>
        <time>2022-05-15T09:12:42Z</time>
      </trkpt>
      <trkpt lat="47.23094" lon="4.92239">
        <ele>482</ele>
        <time>2022-05-15T09:12:43Z</time>
      </trkpt>
      <trkpt lat="47.23096" lon="4.92239">
        <ele>481</ele>
        <time>2022-05-15T09:12:44Z</time>
      </trkpt>
      <trkpt lat="47.23097" lon="4.92237">
        <ele>481</ele>
        <time>2022-05-15T09:12:46Z</time>
      </trkpt>
      <trkpt lat="47.23098" lon="4.92236">
        <ele>481</ele>
        <time>2022-05-15T09:12:47Z</time>
      </trkpt>
      <trkpt lat="47.23099" lon="4.92236">
        <ele>483</ele>
        <time>2022-05-15T09:12:48Z</time>
      </trkpt>
      <trkpt lat="47.231" lon="4.92234">
        <ele>483</ele>
        <time>2022-05-15T09:12:50Z</time>
      </trkpt>
      <trkpt lat="47.231" lon="4.92232">
        <ele>485</ele>
        <time>2022-05-15T09:12:52Z</time>
      </trkpt>
      <trkpt lat="47.23099" lon="4.92231">
        <ele>484</ele>
        <time>2022-05-15T09:12:53Z</time>
      </trkpt>
      <trkpt lat="47.23098" lon="4.9223">
        <ele>483</ele>
        <time>2022-05-15T09:12:54Z</time>
      </trkpt>
      <trkpt lat="47.23098" lon="4.92229">
        <ele>483</ele>
        <time>2022-05-15T09:12:56Z</time>
      </trkpt>
      <trkpt lat="47.231" lon="4.9223">
        <ele>486</ele>
        <time>2022-05-15T09:12:58Z</time>
      </trkpt>
      <trkpt lat="47.23102" lon="4.92231">
        <ele>485</ele>
        <time>2022-05-15T09:12:59Z</time>
      </trkpt>
      <trkpt lat="47.23103" lon="4.92231">
        <ele>485</ele>
        <time>2022-05-15T09:13:00Z</time>
      </trkpt>
      <trkpt lat="47.23105" lon="4.92231">
        <ele>484</ele>
        <time>2022-05-15T09:13:01Z</time>
      </trkpt>
      <trkpt lat="47.23106" lon="4.92229">
        <ele>483</ele>
        <time>2022-05-15T09:13:02Z</time>
      </trkpt>
      <trkpt lat="47.23108" lon="4.92228">
        <ele>483</ele>
        <time>2022-05-15T09:13:03Z</time>
      </trkpt>
      <trkpt lat="47.23109" lon="4.92227">
        <ele>483</ele>
        <time>2022-05-15T09:13:04Z</time>
      </trkpt>
      <trkpt lat="47.23109" lon="4.92225">
        <ele>484</ele>
        <time>2022-05-15T09:13:06Z</time>
      </trkpt>
      <trkpt lat="47.23111" lon="4.92223">
        <ele>483</ele>
        <time>2022-05-15T09:13:07Z</time>
      </trkpt>
      <trkpt lat="47.23113" lon="4.92221">
        <ele>483</ele>
        <time>2022-05-15T09:13:08Z</time>
      </trkpt>
      <trkpt lat="47.23114" lon="4.9222">
        <ele>483</ele>
        <time>2022-05-15T09:13:09Z</time>
      </trkpt>
      <trkpt lat="47.23116" lon="4.9222">
        <ele>483</ele>
        <time>2022-05-15T09:13:10Z</time>
      </trkpt>
      <trkpt lat="47.23117" lon="4.9222">
        <ele>485</ele>
        <time>2022-05-15T09:13:11Z</time>
      </trkpt>
      <trkpt lat="47.23118" lon="4.92218">
        <ele>486</ele>
        <time>2022-05-15T09:13:15Z</time>
      </trkpt>
      <trkpt lat="47.23119" lon="4.92216">
        <ele>484</ele>
        <time>2022-05-15T09:13:16Z</time>
      </trkpt>
      <trkpt lat="47.2312" lon="4.92215">
        <ele>483</ele>
        <time>2022-05-15T09:13:17Z</time>
      </trkpt>
      <trkpt lat="47.23123" lon="4.92213">
        <ele>481</ele>
        <time>2022-05-15T09:13:18Z</time>
      </trkpt>
      <trkpt lat="47.23126" lon="4.92211">
        <ele>481</ele>
        <time>2022-05-15T09:13:19Z</time>
      </trkpt>
      <trkpt lat="47.23127" lon="4.9221">
        <ele>481</ele>
        <time>2022-05-15T09:13:20Z</time>
      </trkpt>
      <trkpt lat="47.23129" lon="4.92209">
        <ele>481</ele>
        <time>2022-05-15T09:13:21Z</time>
      </trkpt>
      <trkpt lat="47.23131" lon="4.92208">
        <ele>480</ele>
        <time>2022-05-15T09:13:22Z</time>
      </trkpt>
      <trkpt lat="47.23132" lon="4.92207">
        <ele>480</ele>
        <time>2022-05-15T09:13:23Z</time>
      </trkpt>
      <trkpt lat="47.23134" lon="4.92206">
        <ele>480</ele>
        <time>2022-05-15T09:13:24Z</time>
      </trkpt>
      <trkpt lat="47.23135" lon="4.92206">
        <ele>480</ele>
        <time>2022-05-15T09:13:25Z</time>
      </trkpt>
      <trkpt lat="47.23136" lon="4.92205">
        <ele>480</ele>
        <time>2022-05-15T09:13:26Z</time>
      </trkpt>
      <trkpt lat="47.23137" lon="4.92204">
        <ele>480</ele>
        <time>2022-05-15T09:13:27Z</time>
      </trkpt>
      <trkpt lat="47.23138" lon="4.92203">
        <ele>481</ele>
        <time>2022-05-15T09:13:28Z</time>
      </trkpt>
      <trkpt lat="47.2314" lon="4.92202">
        <ele>480</ele>
        <time>2022-05-15T09:13:29Z</time>
      </trkpt>
      <trkpt lat="47.2314" lon="4.92201">
        <ele>477</ele>
        <time>2022-05-15T09:13:31Z</time>
      </trkpt>
      <trkpt lat="47.23141" lon="4.92201">
        <ele>477</ele>
        <time>2022-05-15T09:13:32Z</time>
      </trkpt>
      <trkpt lat="47.23143" lon="4.92201">
        <ele>479</ele>
        <time>2022-05-15T09:13:34Z</time>
      </trkpt>
      <trkpt lat="47.23143" lon="4.922">
        <ele>479</ele>
        <time>2022-05-15T09:13:36Z</time>
      </trkpt>
      <trkpt lat="47.23143" lon="4.92198">
        <ele>480</ele>
        <time>2022-05-15T09:13:38Z</time>
      </trkpt>
      <trkpt lat="47.23143" lon="4.92195">
        <ele>479</ele>
        <time>2022-05-15T09:13:42Z</time>
      </trkpt>
      <trkpt lat="47.23144" lon="4.92193">
        <ele>476</ele>
        <time>2022-05-15T09:13:43Z</time>
      </trkpt>
      <trkpt lat="47.23145" lon="4.92192">
        <ele>477</ele>
        <time>2022-05-15T09:13:44Z</time>
      </trkpt>
      <trkpt lat="47.23146" lon="4.92192">
        <ele>478</ele>
        <time>2022-05-15T09:13:45Z</time>
      </trkpt>
      <trkpt lat="47.23147" lon="4.92193">
        <ele>477</ele>
        <time>2022-05-15T09:13:46Z</time>
      </trkpt>
      <trkpt lat="47.23149" lon="4.92192">
        <ele>477</ele>
        <time>2022-05-15T09:13:47Z</time>
      </trkpt>
      <trkpt lat="47.2315" lon="4.92192">
        <ele>477</ele>
        <time>2022-05-15T09:13:48Z</time>
      </trkpt>
      <trkpt lat="47.23153" lon="4.92191">
        <ele>478</ele>
        <time>2022-05-15T09:13:49Z</time>
      </trkpt>
      <trkpt lat="47.23156" lon="4.92191">
        <ele>478</ele>
        <time>2022-05-15T09:13:50Z</time>
      </trkpt>
      <trkpt lat="47.23157" lon="4.92192">
        <ele>477</ele>
        <time>2022-05-15T09:13:51Z</time>
      </trkpt>
      <trkpt lat="47.23159" lon="4.92192">
        <ele>478</ele>
        <time>2022-05-15T09:13:52Z</time>
      </trkpt>
      <trkpt lat="47.2316" lon="4.92192">
        <ele>478</ele>
        <time>2022-05-15T09:13:53Z</time>
      </trkpt>
      <trkpt lat="47.23162" lon="4.92192">
        <ele>479</ele>
        <time>2022-05-15T09:13:54Z</time>
      </trkpt>
      <trkpt lat="47.23163" lon="4.92191">
        <ele>478</ele>
        <time>2022-05-15T09:13:55Z</time>
      </trkpt>
      <trkpt lat="47.23164" lon="4.92191">
        <ele>479</ele>
        <time>2022-05-15T09:13:56Z</time>
      </trkpt>
      <trkpt lat="47.23166" lon="4.92191">
        <ele>479</ele>
        <time>2022-05-15T09:13:57Z</time>
      </trkpt>
      <trkpt lat="47.23168" lon="4.92191">
        <ele>479</ele>
        <time>2022-05-15T09:13:58Z</time>
      </trkpt>
      <trkpt lat="47.23169" lon="4.92191">
        <ele>477</ele>
        <time>2022-05-15T09:13:59Z</time>
      </trkpt>
      <trkpt lat="47.23171" lon="4.9219">
        <ele>477</ele>
        <time>2022-05-15T09:14:00Z</time>
      </trkpt>
      <trkpt lat="47.23173" lon="4.92189">
        <ele>475</ele>
        <time>2022-05-15T09:14:01Z</time>
      </trkpt>
      <trkpt lat="47.23174" lon="4.92188">
        <ele>474</ele>
        <time>2022-05-15T09:14:03Z</time>
      </trkpt>
      <trkpt lat="47.23175" lon="4.92186">
        <ele>476</ele>
        <time>2022-05-15T09:14:07Z</time>
      </trkpt>
      <trkpt lat="47.23176" lon="4.92185">
        <ele>477</ele>
        <time>2022-05-15T09:14:08Z</time>
      </trkpt>
      <trkpt lat="47.23177" lon="4.92185">
        <ele>476</ele>
        <time>2022-05-15T09:14:11Z</time>
      </trkpt>
      <trkpt lat="47.23178" lon="4.92184">
        <ele>477</ele>
        <time>2022-05-15T09:14:12Z</time>
      </trkpt>
      <trkpt lat="47.23179" lon="4.92184">
        <ele>476</ele>
        <time>2022-05-15T09:14:13Z</time>
      </trkpt>
      <trkpt lat="47.23181" lon="4.92184">
        <ele>476</ele>
        <time>2022-05-15T09:14:14Z</time>
      </trkpt>
      <trkpt lat="47.23184" lon="4.92184">
        <ele>475</ele>
        <time>2022-05-15T09:14:15Z</time>
      </trkpt>
      <trkpt lat="47.23186" lon="4.92184">
        <ele>476</ele>
        <time>2022-05-15T09:14:16Z</time>
      </trkpt>
      <trkpt lat="47.23187" lon="4.92184">
        <ele>476</ele>
        <time>2022-05-15T09:14:17Z</time>
      </trkpt>
      <trkpt lat="47.23189" lon="4.92184">
        <ele>477</ele>
        <time>2022-05-15T09:14:18Z</time>
      </trkpt>
      <trkpt lat="47.2319" lon="4.92183">
        <ele>481</ele>
        <time>2022-05-15T09:14:19Z</time>
      </trkpt>
      <trkpt lat="47.23192" lon="4.92183">
        <ele>480</ele>
        <time>2022-05-15T09:14:20Z</time>
      </trkpt>
      <trkpt lat="47.23193" lon="4.92184">
        <ele>480</ele>
        <time>2022-05-15T09:14:21Z</time>
      </trkpt>
      <trkpt lat="47.23195" lon="4.92184">
        <ele>479</ele>
        <time>2022-05-15T09:14:22Z</time>
      </trkpt>
      <trkpt lat="47.23196" lon="4.92184">
        <ele>481</ele>
        <time>2022-05-15T09:14:25Z</time>
      </trkpt>
      <trkpt lat="47.23198" lon="4.92183">
        <ele>481</ele>
        <time>2022-05-15T09:14:27Z</time>
      </trkpt>
      <trkpt lat="47.23198" lon="4.92182">
        <ele>480</ele>
        <time>2022-05-15T09:14:29Z</time>
      </trkpt>
      <trkpt lat="47.23199" lon="4.92181">
        <ele>478</ele>
        <time>2022-05-15T09:14:30Z</time>
      </trkpt>
      <trkpt lat="47.23199" lon="4.92179">
        <ele>479</ele>
        <time>2022-05-15T09:14:31Z</time>
      </trkpt>
      <trkpt lat="47.232" lon="4.92179">
        <ele>479</ele>
        <time>2022-05-15T09:14:32Z</time>
      </trkpt>
      <trkpt lat="47.23201" lon="4.92178">
        <ele>480</ele>
        <time>2022-05-15T09:14:33Z</time>
      </trkpt>
      <trkpt lat="47.23202" lon="4.92177">
        <ele>481</ele>
        <time>2022-05-15T09:14:35Z</time>
      </trkpt>
      <trkpt lat="47.23203" lon="4.92177">
        <ele>480</ele>
        <time>2022-05-15T09:14:38Z</time>
      </trkpt>
      <trkpt lat="47.23203" lon="4.92179">
        <ele>480</ele>
        <time>2022-05-15T09:14:40Z</time>
      </trkpt>
      <trkpt lat="47.23203" lon="4.9218">
        <ele>482</ele>
        <time>2022-05-15T09:14:42Z</time>
      </trkpt>
      <trkpt lat="47.23204" lon="4.9218">
        <ele>483</ele>
        <time>2022-05-15T09:14:44Z</time>
      </trkpt>
      <trkpt lat="47.23205" lon="4.92179">
        <ele>482</ele>
        <time>2022-05-15T09:14:46Z</time>
      </trkpt>
      <trkpt lat="47.23206" lon="4.92178">
        <ele>482</ele>
        <time>2022-05-15T09:14:50Z</time>
      </trkpt>
      <trkpt lat="47.23207" lon="4.92177">
        <ele>482</ele>
        <time>2022-05-15T09:14:52Z</time>
      </trkpt>
      <trkpt lat="47.23209" lon="4.92176">
        <ele>483</ele>
        <time>2022-05-15T09:14:53Z</time>
      </trkpt>
      <trkpt lat="47.23211" lon="4.92177">
        <ele>481</ele>
        <time>2022-05-15T09:14:54Z</time>
      </trkpt>
      <trkpt lat="47.23212" lon="4.92177">
        <ele>481</ele>
        <time>2022-05-15T09:14:55Z</time>
      </trkpt>
      <trkpt lat="47.23214" lon="4.92178">
        <ele>481</ele>
        <time>2022-05-15T09:14:56Z</time>
      </trkpt>
      <trkpt lat="47.23216" lon="4.92179">
        <ele>478</ele>
        <time>2022-05-15T09:14:57Z</time>
      </trkpt>
      <trkpt lat="47.23218" lon="4.92179">
        <ele>478</ele>
        <time>2022-05-15T09:14:58Z</time>
      </trkpt>
      <trkpt lat="47.23221" lon="4.9218">
        <ele>478</ele>
        <time>2022-05-15T09:14:59Z</time>
      </trkpt>
      <trkpt lat="47.23222" lon="4.9218">
        <ele>478</ele>
        <time>2022-05-15T09:15:00Z</time>
      </trkpt>
      <trkpt lat="47.23224" lon="4.9218">
        <ele>478</ele>
        <time>2022-05-15T09:15:01Z</time>
      </trkpt>
      <trkpt lat="47.23225" lon="4.9218">
        <ele>479</ele>
        <time>2022-05-15T09:15:02Z</time>
      </trkpt>
      <trkpt lat="47.23227" lon="4.92181">
        <ele>479</ele>
        <time>2022-05-15T09:15:03Z</time>
      </trkpt>
      <trkpt lat="47.23229" lon="4.92181">
        <ele>479</ele>
        <time>2022-05-15T09:15:04Z</time>
      </trkpt>
      <trkpt lat="47.23231" lon="4.92181">
        <ele>479</ele>
        <time>2022-05-15T09:15:05Z</time>
      </trkpt>
      <trkpt lat="47.23232" lon="4.92181">
        <ele>480</ele>
        <time>2022-05-15T09:15:06Z</time>
      </trkpt>
      <trkpt lat="47.23234" lon="4.92182">
        <ele>480</ele>
        <time>2022-05-15T09:15:08Z</time>
      </trkpt>
      <trkpt lat="47.23236" lon="4.92182">
        <ele>481</ele>
        <time>2022-05-15T09:15:09Z</time>
      </trkpt>
      <trkpt lat="47.23237" lon="4.92182">
        <ele>481</ele>
        <time>2022-05-15T09:15:10Z</time>
      </trkpt>
      <trkpt lat="47.23238" lon="4.92182">
        <ele>481</ele>
        <time>2022-05-15T09:15:11Z</time>
      </trkpt>
      <trkpt lat="47.2324" lon="4.92183">
        <ele>482</ele>
        <time>2022-05-15T09:15:13Z</time>
      </trkpt>
      <trkpt lat="47.23241" lon="4.92183">
        <ele>482</ele>
        <time>2022-05-15T09:15:15Z</time>
      </trkpt>
      <trkpt lat="47.23243" lon="4.92183">
        <ele>482</ele>
        <time>2022-05-15T09:15:16Z</time>
      </trkpt>
      <trkpt lat="47.23244" lon="4.92183">
        <ele>481</ele>
        <time>2022-05-15T09:15:17Z</time>
      </trkpt>
      <trkpt lat="47.23246" lon="4.92183">
        <ele>480</ele>
        <time>2022-05-15T09:15:18Z</time>
      </trkpt>
      <trkpt lat="47.23247" lon="4.92183">
        <ele>481</ele>
        <time>2022-05-15T09:15:19Z</time>
      </trkpt>
      <trkpt lat="47.23248" lon="4.92183">
        <ele>482</ele>
        <time>2022-05-15T09:15:20Z</time>
      </trkpt>
      <trkpt lat="47.23249" lon="4.92182">
        <ele>482</ele>
        <time>2022-05-15T09:15:22Z</time>
      </trkpt>
      <trkpt lat="47.23252" lon="4.92182">
        <ele>481</ele>
        <time>2022-05-15T09:15:23Z</time>
      </trkpt>
      <trkpt lat="47.23253" lon="4.92182">
        <ele>481</ele>
        <time>2022-05-15T09:15:24Z</time>
      </trkpt>
      <trkpt lat="47.23254" lon="4.92182">
        <ele>481</ele>
        <time>2022-05-15T09:15:25Z</time>
      </trkpt>
      <trkpt lat="47.23256" lon="4.92182">
        <ele>480</ele>
        <time>2022-05-15T09:15:26Z</time>
      </trkpt>
      <trkpt lat="47.23257" lon="4.92182">
        <ele>480</ele>
        <time>2022-05-15T09:15:27Z</time>
      </trkpt>
      <trkpt lat="47.23258" lon="4.92181">
        <ele>482</ele>
        <time>2022-05-15T09:15:28Z</time>
      </trkpt>
      <trkpt lat="47.23259" lon="4.92181">
        <ele>485</ele>
        <time>2022-05-15T09:15:30Z</time>
      </trkpt>
      <trkpt lat="47.2326" lon="4.92181">
        <ele>485</ele>
        <time>2022-05-15T09:15:31Z</time>
      </trkpt>
      <trkpt lat="47.23262" lon="4.92182">
        <ele>484</ele>
        <time>2022-05-15T09:15:33Z</time>
      </trkpt>
      <trkpt lat="47.23264" lon="4.92182">
        <ele>484</ele>
        <time>2022-05-15T09:15:36Z</time>
      </trkpt>
      <trkpt lat="47.23265" lon="4.92183">
        <ele>484</ele>
        <time>2022-05-15T09:15:37Z</time>
      </trkpt>
      <trkpt lat="47.23267" lon="4.92183">
        <ele>483</ele>
        <time>2022-05-15T09:15:38Z</time>
      </trkpt>
      <trkpt lat="47.23268" lon="4.92183">
        <ele>483</ele>
        <time>2022-05-15T09:15:39Z</time>
      </trkpt>
      <trkpt lat="47.2327" lon="4.92183">
        <ele>484</ele>
        <time>2022-05-15T09:15:40Z</time>
      </trkpt>
      <trkpt lat="47.23271" lon="4.92183">
        <ele>484</ele>
        <time>2022-05-15T09:15:41Z</time>
      </trkpt>
      <trkpt lat="47.23273" lon="4.92183">
        <ele>482</ele>
        <time>2022-05-15T09:15:42Z</time>
      </trkpt>
      <trkpt lat="47.23275" lon="4.92182">
        <ele>481</ele>
        <time>2022-05-15T09:15:43Z</time>
      </trkpt>
      <trkpt lat="47.23276" lon="4.92181">
        <ele>483</ele>
        <time>2022-05-15T09:15:44Z</time>
      </trkpt>
      <trkpt lat="47.23277" lon="4.92181">
        <ele>483</ele>
        <time>2022-05-15T09:15:46Z</time>
      </trkpt>
      <trkpt lat="47.23279" lon="4.9218">
        <ele>485</ele>
        <time>2022-05-15T09:15:48Z</time>
      </trkpt>
      <trkpt lat="47.2328" lon="4.9218">
        <ele>485</ele>
        <time>2022-05-15T09:15:49Z</time>
      </trkpt>
      <trkpt lat="47.23281" lon="4.92178">
        <ele>486</ele>
        <time>2022-05-15T09:15:51Z</time>
      </trkpt>
      <trkpt lat="47.23281" lon="4.92176">
        <ele>486</ele>
        <time>2022-05-15T09:15:52Z</time>
      </trkpt>
      <trkpt lat="47.23282" lon="4.92175">
        <ele>485</ele>
        <time>2022-05-15T09:15:53Z</time>
      </trkpt>
      <trkpt lat="47.23284" lon="4.92173">
        <ele>486</ele>
        <time>2022-05-15T09:15:54Z</time>
      </trkpt>
      <trkpt lat="47.23286" lon="4.92173">
        <ele>487</ele>
        <time>2022-05-15T09:15:55Z</time>
      </trkpt>
      <trkpt lat="47.23287" lon="4.92174">
        <ele>486</ele>
        <time>2022-05-15T09:15:56Z</time>
      </trkpt>
      <trkpt lat="47.23289" lon="4.92174">
        <ele>485</ele>
        <time>2022-05-15T09:15:57Z</time>
      </trkpt>
      <trkpt lat="47.23291" lon="4.92174">
        <ele>486</ele>
        <time>2022-05-15T09:15:58Z</time>
      </trkpt>
      <trkpt lat="47.23293" lon="4.92175">
        <ele>487</ele>
        <time>2022-05-15T09:15:59Z</time>
      </trkpt>
      <trkpt lat="47.23294" lon="4.92175">
        <ele>486</ele>
        <time>2022-05-15T09:16:00Z</time>
      </trkpt>
      <trkpt lat="47.23296" lon="4.92175">
        <ele>488</ele>
        <time>2022-05-15T09:16:02Z</time>
      </trkpt>
      <trkpt lat="47.23297" lon="4.92176">
        <ele>490</ele>
        <time>2022-05-15T09:16:05Z</time>
      </trkpt>
      <trkpt lat="47.23298" lon="4.92176">
        <ele>490</ele>
        <time>2022-05-15T09:16:06Z</time>
      </trkpt>
      <trkpt lat="47.23301" lon="4.92173">
        <ele>491</ele>
        <time>2022-05-15T09:16:09Z</time>
      </trkpt>
      <trkpt lat="47.23302" lon="4.92173">
        <ele>490</ele>
        <time>2022-05-15T09:16:10Z</time>
      </trkpt>
      <trkpt lat="47.23304" lon="4.9217">
        <ele>490</ele>
        <time>2022-05-15T09:16:13Z</time>
      </trkpt>
      <trkpt lat="47.23305" lon="4.92168">
        <ele>491</ele>
        <time>2022-05-15T09:16:14Z</time>
      </trkpt>
      <trkpt lat="47.23307" lon="4.92167">
        <ele>493</ele>
        <time>2022-05-15T09:16:16Z</time>
      </trkpt>
      <trkpt lat="47.23308" lon="4.92168">
        <ele>494</ele>
        <time>2022-05-15T09:16:19Z</time>
      </trkpt>
      <trkpt lat="47.23309" lon="4.92168">
        <ele>494</ele>
        <time>2022-05-15T09:16:20Z</time>
      </trkpt>
      <trkpt lat="47.23311" lon="4.92167">
        <ele>494</ele>
        <time>2022-05-15T09:16:21Z</time>
      </trkpt>
      <trkpt lat="47.23314" lon="4.92166">
        <ele>494</ele>
        <time>2022-05-15T09:16:22Z</time>
      </trkpt>
      <trkpt lat="47.23315" lon="4.92166">
        <ele>496</ele>
        <time>2022-05-15T09:16:23Z</time>
      </trkpt>
      <trkpt lat="47.23316" lon="4.92165">
        <ele>496</ele>
        <time>2022-05-15T09:16:26Z</time>
      </trkpt>
      <trkpt lat="47.23317" lon="4.92164">
        <ele>497</ele>
        <time>2022-05-15T09:16:27Z</time>
      </trkpt>
      <trkpt lat="47.23318" lon="4.92163">
        <ele>498</ele>
        <time>2022-05-15T09:16:28Z</time>
      </trkpt>
      <trkpt lat="47.2332" lon="4.92163">
        <ele>497</ele>
        <time>2022-05-15T09:16:29Z</time>
      </trkpt>
      <trkpt lat="47.23322" lon="4.92163">
        <ele>499</ele>
        <time>2022-05-15T09:16:30Z</time>
      </trkpt>
      <trkpt lat="47.23323" lon="4.92163">
        <ele>497</ele>
        <time>2022-05-15T09:16:31Z</time>
      </trkpt>
      <trkpt lat="47.23325" lon="4.92163">
        <ele>497</ele>
        <time>2022-05-15T09:16:33Z</time>
      </trkpt>
      <trkpt lat="47.23326" lon="4.92162">
        <ele>498</ele>
        <time>2022-05-15T09:16:34Z</time>
      </trkpt>
      <trkpt lat="47.23327" lon="4.9216">
        <ele>497</ele>
        <time>2022-05-15T09:16:36Z</time>
      </trkpt>
      <trkpt lat="47.23328" lon="4.92159">
        <ele>496</ele>
        <time>2022-05-15T09:16:37Z</time>
      </trkpt>
      <trkpt lat="47.23329" lon="4.92158">
        <ele>496</ele>
        <time>2022-05-15T09:16:38Z</time>
      </trkpt>
      <trkpt lat="47.23331" lon="4.92157">
        <ele>495</ele>
        <time>2022-05-15T09:16:39Z</time>
      </trkpt>
      <trkpt lat="47.23334" lon="4.92157">
        <ele>494</ele>
        <time>2022-05-15T09:16:40Z</time>
      </trkpt>
      <trkpt lat="47.23335" lon="4.92156">
        <ele>493</ele>
        <time>2022-05-15T09:16:41Z</time>
      </trkpt>
      <trkpt lat="47.23337" lon="4.92155">
        <ele>493</ele>
        <time>2022-05-15T09:16:42Z</time>
      </trkpt>
      <trkpt lat="47.23338" lon="4.92154">
        <ele>491</ele>
        <time>2022-05-15T09:16:43Z</time>
      </trkpt>
      <trkpt lat="47.23339" lon="4.92153">
        <ele>491</ele>
        <time>2022-05-15T09:16:44Z</time>
      </trkpt>
      <trkpt lat="47.23341" lon="4.92152">
        <ele>491</ele>
        <time>2022-05-15T09:16:45Z</time>
      </trkpt>
      <trkpt lat="47.23343" lon="4.92152">
        <ele>490</ele>
        <time>2022-05-15T09:16:46Z</time>
      </trkpt>
      <trkpt lat="47.23345" lon="4.92151">
        <ele>490</ele>
        <time>2022-05-15T09:16:47Z</time>
      </trkpt>
      <trkpt lat="47.23347" lon="4.9215">
        <ele>491</ele>
        <time>2022-05-15T09:16:48Z</time>
      </trkpt>
      <trkpt lat="47.23347" lon="4.92148">
        <ele>491</ele>
        <time>2022-05-15T09:16:49Z</time>
      </trkpt>
      <trkpt lat="47.23348" lon="4.92146">
        <ele>491</ele>
        <time>2022-05-15T09:16:50Z</time>
      </trkpt>
      <trkpt lat="47.23348" lon="4.92144">
        <ele>490</ele>
        <time>2022-05-15T09:16:51Z</time>
      </trkpt>
      <trkpt lat="47.23347" lon="4.92143">
        <ele>493</ele>
        <time>2022-05-15T09:16:52Z</time>
      </trkpt>
      <trkpt lat="47.23347" lon="4.9214">
        <ele>491</ele>
        <time>2022-05-15T09:16:54Z</time>
      </trkpt>
      <trkpt lat="47.23347" lon="4.92139">
        <ele>491</ele>
        <time>2022-05-15T09:16:55Z</time>
      </trkpt>
      <trkpt lat="47.23347" lon="4.92136">
        <ele>490</ele>
        <time>2022-05-15T09:16:57Z</time>
      </trkpt>
      <trkpt lat="47.23346" lon="4.92135">
        <ele>490</ele>
        <time>2022-05-15T09:16:58Z</time>
      </trkpt>
      <trkpt lat="47.23347" lon="4.92133">
        <ele>489</ele>
        <time>2022-05-15T09:17:00Z</time>
      </trkpt>
      <trkpt lat="47.23348" lon="4.92132">
        <ele>489</ele>
        <time>2022-05-15T09:17:01Z</time>
      </trkpt>
      <trkpt lat="47.23349" lon="4.92131">
        <ele>489</ele>
        <time>2022-05-15T09:17:02Z</time>
      </trkpt>
      <trkpt lat="47.2335" lon="4.92129">
        <ele>489</ele>
        <time>2022-05-15T09:17:03Z</time>
      </trkpt>
      <trkpt lat="47.23351" lon="4.92127">
        <ele>490</ele>
        <time>2022-05-15T09:17:04Z</time>
      </trkpt>
      <trkpt lat="47.23352" lon="4.92126">
        <ele>490</ele>
        <time>2022-05-15T09:17:05Z</time>
      </trkpt>
      <trkpt lat="47.23353" lon="4.92125">
        <ele>490</ele>
        <time>2022-05-15T09:17:06Z</time>
      </trkpt>
      <trkpt lat="47.23354" lon="4.92124">
        <ele>491</ele>
        <time>2022-05-15T09:17:07Z</time>
      </trkpt>
      <trkpt lat="47.23355" lon="4.92123">
        <ele>493</ele>
        <time>2022-05-15T09:17:08Z</time>
      </trkpt>
      <trkpt lat="47.23357" lon="4.92121">
        <ele>491</ele>
        <time>2022-05-15T09:17:10Z</time>
      </trkpt>
      <trkpt lat="47.23357" lon="4.92119">
        <ele>491</ele>
        <time>2022-05-15T09:17:12Z</time>
      </trkpt>
      <trkpt lat="47.23358" lon="4.92118">
        <ele>492</ele>
        <time>2022-05-15T09:17:13Z</time>
      </trkpt>
      <trkpt lat="47.2336" lon="4.92116">
        <ele>492</ele>
        <time>2022-05-15T09:17:14Z</time>
      </trkpt>
      <trkpt lat="47.23361" lon="4.92114">
        <ele>492</ele>
        <time>2022-05-15T09:17:16Z</time>
      </trkpt>
      <trkpt lat="47.23361" lon="4.92113">
        <ele>493</ele>
        <time>2022-05-15T09:17:17Z</time>
      </trkpt>
      <trkpt lat="47.23362" lon="4.92111">
        <ele>494</ele>
        <time>2022-05-15T09:17:18Z</time>
      </trkpt>
      <trkpt lat="47.23362" lon="4.9211">
        <ele>493</ele>
        <time>2022-05-15T09:17:19Z</time>
      </trkpt>
      <trkpt lat="47.23364" lon="4.92109">
        <ele>494</ele>
        <time>2022-05-15T09:17:20Z</time>
      </trkpt>
      <trkpt lat="47.23365" lon="4.92107">
        <ele>494</ele>
        <time>2022-05-15T09:17:21Z</time>
      </trkpt>
      <trkpt lat="47.23367" lon="4.92105">
        <ele>493</ele>
        <time>2022-05-15T09:17:23Z</time>
      </trkpt>
      <trkpt lat="47.23368" lon="4.92105">
        <ele>493</ele>
        <time>2022-05-15T09:17:24Z</time>
      </trkpt>
      <trkpt lat="47.23369" lon="4.92103">
        <ele>492</ele>
        <time>2022-05-15T09:17:25Z</time>
      </trkpt>
      <trkpt lat="47.2337" lon="4.92102">
        <ele>492</ele>
        <time>2022-05-15T09:17:26Z</time>
      </trkpt>
      <trkpt lat="47.23371" lon="4.921">
        <ele>492</ele>
        <time>2022-05-15T09:17:27Z</time>
      </trkpt>
      <trkpt lat="47.23371" lon="4.92099">
        <ele>492</ele>
        <time>2022-05-15T09:17:28Z</time>
      </trkpt>
      <trkpt lat="47.2337" lon="4.92097">
        <ele>491</ele>
        <time>2022-05-15T09:17:29Z</time>
      </trkpt>
      <trkpt lat="47.23369" lon="4.92094">
        <ele>491</ele>
        <time>2022-05-15T09:17:30Z</time>
      </trkpt>
      <trkpt lat="47.23368" lon="4.92093">
        <ele>491</ele>
        <time>2022-05-15T09:17:31Z</time>
      </trkpt>
      <trkpt lat="47.23367" lon="4.92091">
        <ele>491</ele>
        <time>2022-05-15T09:17:32Z</time>
      </trkpt>
      <trkpt lat="47.23367" lon="4.92089">
        <ele>491</ele>
        <time>2022-05-15T09:17:33Z</time>
      </trkpt>
      <trkpt lat="47.23366" lon="4.92087">
        <ele>490</ele>
        <time>2022-05-15T09:17:34Z</time>
      </trkpt>
      <trkpt lat="47.23366" lon="4.92085">
        <ele>488</ele>
        <time>2022-05-15T09:17:35Z</time>
      </trkpt>
      <trkpt lat="47.23366" lon="4.92083">
        <ele>489</ele>
        <time>2022-05-15T09:17:36Z</time>
      </trkpt>
      <trkpt lat="47.23367" lon="4.92082">
        <ele>488</ele>
        <time>2022-05-15T09:17:37Z</time>
      </trkpt>
      <trkpt lat="47.23368" lon="4.92081">
        <ele>487</ele>
        <time>2022-05-15T09:17:38Z</time>
      </trkpt>
      <trkpt lat="47.23369" lon="4.9208">
        <ele>487</ele>
        <time>2022-05-15T09:17:39Z</time>
      </trkpt>
      <trkpt lat="47.2337" lon="4.92079">
        <ele>487</ele>
        <time>2022-05-15T09:17:40Z</time>
      </trkpt>
      <trkpt lat="47.23371" lon="4.92078">
        <ele>487</ele>
        <time>2022-05-15T09:17:41Z</time>
      </trkpt>
      <trkpt lat="47.23373" lon="4.92077">
        <ele>488</ele>
        <time>2022-05-15T09:17:42Z</time>
      </trkpt>
      <trkpt lat="47.23374" lon="4.92076">
        <ele>488</ele>
        <time>2022-05-15T09:17:43Z</time>
      </trkpt>
      <trkpt lat="47.23375" lon="4.92076">
        <ele>488</ele>
        <time>2022-05-15T09:17:44Z</time>
      </trkpt>
      <trkpt lat="47.23377" lon="4.92076">
        <ele>486</ele>
        <time>2022-05-15T09:17:45Z</time>
      </trkpt>
      <trkpt lat="47.23378" lon="4.92076">
        <ele>486</ele>
        <time>2022-05-15T09:17:46Z</time>
      </trkpt>
      <trkpt lat="47.23379" lon="4.92075">
        <ele>486</ele>
        <time>2022-05-15T09:17:47Z</time>
      </trkpt>
      <trkpt lat="47.23381" lon="4.92074">
        <ele>487</ele>
        <time>2022-05-15T09:17:48Z</time>
      </trkpt>
      <trkpt lat="47.23382" lon="4.92072">
        <ele>485</ele>
        <time>2022-05-15T09:17:49Z</time>
      </trkpt>
      <trkpt lat="47.23384" lon="4.92071">
        <ele>486</ele>
        <time>2022-05-15T09:17:50Z</time>
      </trkpt>
      <trkpt lat="47.23384" lon="4.9207">
        <ele>486</ele>
        <time>2022-05-15T09:17:51Z</time>
      </trkpt>
      <trkpt lat="47.23383" lon="4.92068">
        <ele>487</ele>
        <time>2022-05-15T09:17:52Z</time>
      </trkpt>
      <trkpt lat="47.23382" lon="4.92067">
        <ele>489</ele>
        <time>2022-05-15T09:17:54Z</time>
      </trkpt>
      <trkpt lat="47.2338" lon="4.92065">
        <ele>489</ele>
        <time>2022-05-15T09:17:55Z</time>
      </trkpt>
      <trkpt lat="47.23381" lon="4.92064">
        <ele>489</ele>
        <time>2022-05-15T09:17:56Z</time>
      </trkpt>
      <trkpt lat="47.23382" lon="4.92063">
        <ele>488</ele>
        <time>2022-05-15T09:17:57Z</time>
      </trkpt>
      <trkpt lat="47.23384" lon="4.92062">
        <ele>487</ele>
        <time>2022-05-15T09:17:58Z</time>
      </trkpt>
      <trkpt lat="47.23385" lon="4.92061">
        <ele>486</ele>
        <time>2022-05-15T09:17:59Z</time>
      </trkpt>
      <trkpt lat="47.23386" lon="4.92061">
        <ele>486</ele>
        <time>2022-05-15T09:18:00Z</time>
      </trkpt>
      <trkpt lat="47.23387" lon="4.9206">
        <ele>483</ele>
        <time>2022-05-15T09:18:01Z</time>
      </trkpt>
      <trkpt lat="47.23388" lon="4.92058">
        <ele>485</ele>
        <time>2022-05-15T09:18:03Z</time>
      </trkpt>
      <trkpt lat="47.23389" lon="4.92058">
        <ele>485</ele>
        <time>2022-05-15T09:18:05Z</time>
      </trkpt>
      <trkpt lat="47.2339" lon="4.92058">
        <ele>484</ele>
        <time>2022-05-15T09:18:12Z</time>
      </trkpt>
      <trkpt lat="47.23392" lon="4.92058">
        <ele>483</ele>
        <time>2022-05-15T09:18:14Z</time>
      </trkpt>
      <trkpt lat="47.23393" lon="4.92059">
        <ele>483</ele>
        <time>2022-05-15T09:18:15Z</time>
      </trkpt>
      <trkpt lat="47.23393" lon="4.9206">
        <ele>484</ele>
        <time>2022-05-15T09:18:18Z</time>
      </trkpt>
      <trkpt lat="47.23392" lon="4.92061">
        <ele>484</ele>
        <time>2022-05-15T09:18:21Z</time>
      </trkpt>
      <trkpt lat="47.23391" lon="4.92059">
        <ele>480</ele>
        <time>2022-05-15T09:18:30Z</time>
      </trkpt>
      <trkpt lat="47.23392" lon="4.92061">
        <ele>480</ele>
        <time>2022-05-15T09:18:34Z</time>
      </trkpt>
      <trkpt lat="47.23389" lon="4.92058">
        <ele>477</ele>
        <time>2022-05-15T09:18:40Z</time>
      </trkpt>
      <trkpt lat="47.23388" lon="4.92057">
        <ele>475</ele>
        <time>2022-05-15T09:18:42Z</time>
      </trkpt>
      <trkpt lat="47.23389" lon="4.92055">
        <ele>475</ele>
        <time>2022-05-15T09:18:46Z</time>
      </trkpt>
      <trkpt lat="47.23389" lon="4.92054">
        <ele>476</ele>
        <time>2022-05-15T09:18:48Z</time>
      </trkpt>
      <trkpt lat="47.23391" lon="4.92053">
        <ele>476</ele>
        <time>2022-05-15T09:18:57Z</time>
      </trkpt>
      <trkpt lat="47.23392" lon="4.92052">
        <ele>476</ele>
        <time>2022-05-15T09:18:58Z</time>
      </trkpt>
      <trkpt lat="47.23393" lon="4.92049">
        <ele>476</ele>
        <time>2022-05-15T09:19:00Z</time>
      </trkpt>
      <trkpt lat="47.23394" lon="4.92047">
        <ele>477</ele>
        <time>2022-05-15T09:19:02Z</time>
      </trkpt>
      <trkpt lat="47.23395" lon="4.92046">
        <ele>478</ele>
        <time>2022-05-15T09:19:03Z</time>
      </trkpt>
      <trkpt lat="47.23396" lon="4.92046">
        <ele>477</ele>
        <time>2022-05-15T09:19:06Z</time>
      </trkpt>
      <trkpt lat="47.23396" lon="4.92047">
        <ele>478</ele>
        <time>2022-05-15T09:19:12Z</time>
      </trkpt>
      <trkpt lat="47.23397" lon="4.92046">
        <ele>478</ele>
        <time>2022-05-15T09:19:19Z</time>
      </trkpt>
      <trkpt lat="47.23398" lon="4.92044">
        <ele>479</ele>
        <time>2022-05-15T09:19:23Z</time>
      </trkpt>
      <trkpt lat="47.23398" lon="4.92043">
        <ele>480</ele>
        <time>2022-05-15T09:19:24Z</time>
      </trkpt>
      <trkpt lat="47.23399" lon="4.92042">
        <ele>480</ele>
        <time>2022-05-15T09:19:26Z</time>
      </trkpt>
      <trkpt lat="47.23401" lon="4.92039">
        <ele>482</ele>
        <time>2022-05-15T09:19:28Z</time>
      </trkpt>
      <trkpt lat="47.23402" lon="4.92037">
        <ele>482</ele>
        <time>2022-05-15T09:19:29Z</time>
      </trkpt>
      <trkpt lat="47.23403" lon="4.92036">
        <ele>482</ele>
        <time>2022-05-15T09:19:31Z</time>
      </trkpt>
      <trkpt lat="47.23404" lon="4.92035">
        <ele>482</ele>
        <time>2022-05-15T09:19:34Z</time>
      </trkpt>
      <trkpt lat="47.23405" lon="4.92034">
        <ele>480</ele>
        <time>2022-05-15T09:19:35Z</time>
      </trkpt>
      <trkpt lat="47.23405" lon="4.92032">
        <ele>480</ele>
        <time>2022-05-15T09:19:36Z</time>
      </trkpt>
      <trkpt lat="47.23405" lon="4.92031">
        <ele>481</ele>
        <time>2022-05-15T09:19:37Z</time>
      </trkpt>
      <trkpt lat="47.23406" lon="4.92028">
        <ele>482</ele>
        <time>2022-05-15T09:19:39Z</time>
      </trkpt>
      <trkpt lat="47.23406" lon="4.92027">
        <ele>483</ele>
        <time>2022-05-15T09:19:40Z</time>
      </trkpt>
      <trkpt lat="47.23407" lon="4.92026">
        <ele>485</ele>
        <time>2022-05-15T09:19:41Z</time>
      </trkpt>
      <trkpt lat="47.23408" lon="4.92025">
        <ele>483</ele>
        <time>2022-05-15T09:19:42Z</time>
      </trkpt>
      <trkpt lat="47.23409" lon="4.92024">
        <ele>481</ele>
        <time>2022-05-15T09:19:44Z</time>
      </trkpt>
      <trkpt lat="47.23411" lon="4.92023">
        <ele>481</ele>
        <time>2022-05-15T09:19:46Z</time>
      </trkpt>
      <trkpt lat="47.23412" lon="4.92022">
        <ele>481</ele>
        <time>2022-05-15T09:19:47Z</time>
      </trkpt>
      <trkpt lat="47.23413" lon="4.9202">
        <ele>480</ele>
        <time>2022-05-15T09:19:48Z</time>
      </trkpt>
      <trkpt lat="47.23415" lon="4.92018">
        <ele>479</ele>
        <time>2022-05-15T09:19:49Z</time>
      </trkpt>
      <trkpt lat="47.23416" lon="4.92016">
        <ele>479</ele>
        <time>2022-05-15T09:19:50Z</time>
      </trkpt>
      <trkpt lat="47.23416" lon="4.92015">
        <ele>480</ele>
        <time>2022-05-15T09:19:51Z</time>
      </trkpt>
      <trkpt lat="47.23416" lon="4.92013">
        <ele>480</ele>
        <time>2022-05-15T09:19:54Z</time>
      </trkpt>
      <trkpt lat="47.23416" lon="4.92011">
        <ele>479</ele>
        <time>2022-05-15T09:19:55Z</time>
      </trkpt>
      <trkpt lat="47.23416" lon="4.92009">
        <ele>479</ele>
        <time>2022-05-15T09:19:56Z</time>
      </trkpt>
      <trkpt lat="47.23416" lon="4.92008">
        <ele>479</ele>
        <time>2022-05-15T09:19:57Z</time>
      </trkpt>
      <trkpt lat="47.23417" lon="4.92006">
        <ele>480</ele>
        <time>2022-05-15T09:19:58Z</time>
      </trkpt>
      <trkpt lat="47.23417" lon="4.92005">
        <ele>481</ele>
        <time>2022-05-15T09:19:59Z</time>
      </trkpt>
      <trkpt lat="47.23418" lon="4.92002">
        <ele>482</ele>
        <time>2022-05-15T09:20:01Z</time>
      </trkpt>
      <trkpt lat="47.23419" lon="4.91999">
        <ele>481</ele>
        <time>2022-05-15T09:20:02Z</time>
      </trkpt>
      <trkpt lat="47.2342" lon="4.91997">
        <ele>481</ele>
        <time>2022-05-15T09:20:03Z</time>
      </trkpt>
      <trkpt lat="47.23421" lon="4.91995">
        <ele>481</ele>
        <time>2022-05-15T09:20:04Z</time>
      </trkpt>
      <trkpt lat="47.23423" lon="4.91995">
        <ele>483</ele>
        <time>2022-05-15T09:20:05Z</time>
      </trkpt>
      <trkpt lat="47.23425" lon="4.91995">
        <ele>484</ele>
        <time>2022-05-15T09:20:06Z</time>
      </trkpt>
      <trkpt lat="47.23426" lon="4.91996">
        <ele>485</ele>
        <time>2022-05-15T09:20:07Z</time>
      </trkpt>
      <trkpt lat="47.23427" lon="4.91997">
        <ele>485</ele>
        <time>2022-05-15T09:20:08Z</time>
      </trkpt>
      <trkpt lat="47.23428" lon="4.91998">
        <ele>485</ele>
        <time>2022-05-15T09:20:09Z</time>
      </trkpt>
      <trkpt lat="47.23431" lon="4.91996">
        <ele>486</ele>
        <time>2022-05-15T09:20:10Z</time>
      </trkpt>
      <trkpt lat="47.23432" lon="4.91995">
        <ele>486</ele>
        <time>2022-05-15T09:20:11Z</time>
      </trkpt>
      <trkpt lat="47.23432" lon="4.91993">
        <ele>487</ele>
        <time>2022-05-15T09:20:13Z</time>
      </trkpt>
      <trkpt lat="47.23431" lon="4.91992">
        <ele>487</ele>
        <time>2022-05-15T09:20:14Z</time>
      </trkpt>
      <trkpt lat="47.23433" lon="4.9199">
        <ele>488</ele>
        <time>2022-05-15T09:20:16Z</time>
      </trkpt>
      <trkpt lat="47.23435" lon="4.91988">
        <ele>489</ele>
        <time>2022-05-15T09:20:17Z</time>
      </trkpt>
      <trkpt lat="47.23437" lon="4.91986">
        <ele>489</ele>
        <time>2022-05-15T09:20:18Z</time>
      </trkpt>
      <trkpt lat="47.23438" lon="4.91984">
        <ele>490</ele>
        <time>2022-05-15T09:20:19Z</time>
      </trkpt>
      <trkpt lat="47.23439" lon="4.91983">
        <ele>491</ele>
        <time>2022-05-15T09:20:20Z</time>
      </trkpt>
      <trkpt lat="47.23438" lon="4.91981">
        <ele>492</ele>
        <time>2022-05-15T09:20:21Z</time>
      </trkpt>
      <trkpt lat="47.23438" lon="4.91979">
        <ele>492</ele>
        <time>2022-05-15T09:20:22Z</time>
      </trkpt>
      <trkpt lat="47.23438" lon="4.91977">
        <ele>492</ele>
        <time>2022-05-15T09:20:23Z</time>
      </trkpt>
      <trkpt lat="47.23439" lon="4.91975">
        <ele>492</ele>
        <time>2022-05-15T09:20:24Z</time>
      </trkpt>
      <trkpt lat="47.2344" lon="4.91975">
        <ele>492</ele>
        <time>2022-05-15T09:20:25Z</time>
      </trkpt>
      <trkpt lat="47.23441" lon="4.91974">
        <ele>492</ele>
        <time>2022-05-15T09:20:26Z</time>
      </trkpt>
      <trkpt lat="47.23442" lon="4.91972">
        <ele>493</ele>
        <time>2022-05-15T09:20:28Z</time>
      </trkpt>
      <trkpt lat="47.23443" lon="4.91971">
        <ele>494</ele>
        <time>2022-05-15T09:20:29Z</time>
      </trkpt>
      <trkpt lat="47.23443" lon="4.91969">
        <ele>493</ele>
        <time>2022-05-15T09:20:30Z</time>
      </trkpt>
      <trkpt lat="47.23444" lon="4.91967">
        <ele>493</ele>
        <time>2022-05-15T09:20:32Z</time>
      </trkpt>
      <trkpt lat="47.23443" lon="4.91966">
        <ele>494</ele>
        <time>2022-05-15T09:20:33Z</time>
      </trkpt>
      <trkpt lat="47.23443" lon="4.91964">
        <ele>494</ele>
        <time>2022-05-15T09:20:34Z</time>
      </trkpt>
      <trkpt lat="47.23444" lon="4.91963">
        <ele>495</ele>
        <time>2022-05-15T09:20:35Z</time>
      </trkpt>
      <trkpt lat="47.23445" lon="4.91962">
        <ele>495</ele>
        <time>2022-05-15T09:20:36Z</time>
      </trkpt>
      <trkpt lat="47.23446" lon="4.91961">
        <ele>495</ele>
        <time>2022-05-15T09:20:38Z</time>
      </trkpt>
      <trkpt lat="47.23446" lon="4.91959">
        <ele>495</ele>
        <time>2022-05-15T09:20:40Z</time>
      </trkpt>
      <trkpt lat="47.23446" lon="4.91958">
        <ele>495</ele>
        <time>2022-05-15T09:20:42Z</time>
      </trkpt>
      <trkpt lat="47.23447" lon="4.91957">
        <ele>496</ele>
        <time>2022-05-15T09:20:45Z</time>
      </trkpt>
      <trkpt lat="47.23448" lon="4.91957">
        <ele>496</ele>
        <time>2022-05-15T09:20:48Z</time>
      </trkpt>
      <trkpt lat="47.23449" lon="4.91956">
        <ele>496</ele>
        <time>2022-05-15T09:20:51Z</time>
      </trkpt>
      <trkpt lat="47.23451" lon="4.91955">
        <ele>495</ele>
        <time>2022-05-15T09:20:53Z</time>
      </trkpt>
      <trkpt lat="47.23452" lon="4.91954">
        <ele>494</ele>
        <time>2022-05-15T09:20:54Z</time>
      </trkpt>
      <trkpt lat="47.23453" lon="4.91953">
        <ele>495</ele>
        <time>2022-05-15T09:20:55Z</time>
      </trkpt>
      <trkpt lat="47.23455" lon="4.91952">
        <ele>494</ele>
        <time>2022-05-15T09:20:57Z</time>
      </trkpt>
      <trkpt lat="47.23456" lon="4.91951">
        <ele>494</ele>
        <time>2022-05-15T09:20:58Z</time>
      </trkpt>
      <trkpt lat="47.23457" lon="4.91949">
        <ele>494</ele>
        <time>2022-05-15T09:21:00Z</time>
      </trkpt>
      <trkpt lat="47.23458" lon="4.91948">
        <ele>495</ele>
        <time>2022-05-15T09:21:01Z</time>
      </trkpt>
      <trkpt lat="47.23459" lon="4.91948">
        <ele>495</ele>
        <time>2022-05-15T09:21:02Z</time>
      </trkpt>
      <trkpt lat="47.2346" lon="4.91947">
        <ele>495</ele>
        <time>2022-05-15T09:21:04Z</time>
      </trkpt>
      <trkpt lat="47.23461" lon="4.91947">
        <ele>495</ele>
        <time>2022-05-15T09:21:06Z</time>
      </trkpt>
      <trkpt lat="47.23463" lon="4.91946">
        <ele>496</ele>
        <time>2022-05-15T09:21:07Z</time>
      </trkpt>
      <trkpt lat="47.23464" lon="4.91945">
        <ele>496</ele>
        <time>2022-05-15T09:21:08Z</time>
      </trkpt>
      <trkpt lat="47.23465" lon="4.91945">
        <ele>495</ele>
        <time>2022-05-15T09:21:09Z</time>
      </trkpt>
      <trkpt lat="47.23466" lon="4.91944">
        <ele>495</ele>
        <time>2022-05-15T09:21:11Z</time>
      </trkpt>
      <trkpt lat="47.23467" lon="4.91942">
        <ele>493</ele>
        <time>2022-05-15T09:21:13Z</time>
      </trkpt>
      <trkpt lat="47.23468" lon="4.91941">
        <ele>493</ele>
        <time>2022-05-15T09:21:14Z</time>
      </trkpt>
      <trkpt lat="47.23469" lon="4.9194">
        <ele>493</ele>
        <time>2022-05-15T09:21:15Z</time>
      </trkpt>
      <trkpt lat="47.2347" lon="4.91939">
        <ele>492</ele>
        <time>2022-05-15T09:21:16Z</time>
      </trkpt>
      <trkpt lat="47.2347" lon="4.91936">
        <ele>492</ele>
        <time>2022-05-15T09:21:18Z</time>
      </trkpt>
      <trkpt lat="47.2347" lon="4.91935">
        <ele>493</ele>
        <time>2022-05-15T09:21:19Z</time>
      </trkpt>
      <trkpt lat="47.23471" lon="4.91933">
        <ele>490</ele>
        <time>2022-05-15T09:21:21Z</time>
      </trkpt>
      <trkpt lat="47.23472" lon="4.91932">
        <ele>490</ele>
        <time>2022-05-15T09:21:22Z</time>
      </trkpt>
      <trkpt lat="47.23473" lon="4.91931">
        <ele>489</ele>
        <time>2022-05-15T09:21:23Z</time>
      </trkpt>
      <trkpt lat="47.23475" lon="4.91932">
        <ele>487</ele>
        <time>2022-05-15T09:21:24Z</time>
      </trkpt>
      <trkpt lat="47.23476" lon="4.91931">
        <ele>490</ele>
        <time>2022-05-15T09:21:25Z</time>
      </trkpt>
      <trkpt lat="47.23477" lon="4.91931">
        <ele>490</ele>
        <time>2022-05-15T09:21:26Z</time>
      </trkpt>
      <trkpt lat="47.23478" lon="4.9193">
        <ele>492</ele>
        <time>2022-05-15T09:21:27Z</time>
      </trkpt>
      <trkpt lat="47.2348" lon="4.91928">
        <ele>492</ele>
        <time>2022-05-15T09:21:28Z</time>
      </trkpt>
      <trkpt lat="47.23481" lon="4.91925">
        <ele>491</ele>
        <time>2022-05-15T09:21:29Z</time>
      </trkpt>
      <trkpt lat="47.23482" lon="4.91923">
        <ele>490</ele>
        <time>2022-05-15T09:21:30Z</time>
      </trkpt>
      <trkpt lat="47.23483" lon="4.91921">
        <ele>490</ele>
        <time>2022-05-15T09:21:31Z</time>
      </trkpt>
      <trkpt lat="47.23484" lon="4.9192">
        <ele>489</ele>
        <time>2022-05-15T09:21:32Z</time>
      </trkpt>
      <trkpt lat="47.23485" lon="4.91919">
        <ele>489</ele>
        <time>2022-05-15T09:21:34Z</time>
      </trkpt>
      <trkpt lat="47.23486" lon="4.91918">
        <ele>487</ele>
        <time>2022-05-15T09:21:35Z</time>
      </trkpt>
      <trkpt lat="47.23486" lon="4.91915">
        <ele>488</ele>
        <time>2022-05-15T09:21:36Z</time>
      </trkpt>
      <trkpt lat="47.23486" lon="4.91914">
        <ele>488</ele>
        <time>2022-05-15T09:21:37Z</time>
      </trkpt>
      <trkpt lat="47.23487" lon="4.91912">
        <ele>487</ele>
        <time>2022-05-15T09:21:39Z</time>
      </trkpt>
      <trkpt lat="47.23488" lon="4.9191">
        <ele>486</ele>
        <time>2022-05-15T09:21:41Z</time>
      </trkpt>
      <trkpt lat="47.23488" lon="4.91908">
        <ele>486</ele>
        <time>2022-05-15T09:21:43Z</time>
      </trkpt>
      <trkpt lat="47.23487" lon="4.91904">
        <ele>485</ele>
        <time>2022-05-15T09:21:44Z</time>
      </trkpt>
      <trkpt lat="47.23487" lon="4.91902">
        <ele>484</ele>
        <time>2022-05-15T09:21:45Z</time>
      </trkpt>
      <trkpt lat="47.23487" lon="4.91899">
        <ele>484</ele>
        <time>2022-05-15T09:21:47Z</time>
      </trkpt>
      <trkpt lat="47.23487" lon="4.91898">
        <ele>483</ele>
        <time>2022-05-15T09:21:48Z</time>
      </trkpt>
      <trkpt lat="47.23486" lon="4.91896">
        <ele>483</ele>
        <time>2022-05-15T09:21:49Z</time>
      </trkpt>
      <trkpt lat="47.23487" lon="4.91893">
        <ele>482</ele>
        <time>2022-05-15T09:21:50Z</time>
      </trkpt>
      <trkpt lat="47.23488" lon="4.9189">
        <ele>481</ele>
        <time>2022-05-15T09:21:51Z</time>
      </trkpt>
      <trkpt lat="47.23489" lon="4.91888">
        <ele>480</ele>
        <time>2022-05-15T09:21:52Z</time>
      </trkpt>
      <trkpt lat="47.2349" lon="4.91887">
        <ele>481</ele>
        <time>2022-05-15T09:21:53Z</time>
      </trkpt>
      <trkpt lat="47.2349" lon="4.91885">
        <ele>482</ele>
        <time>2022-05-15T09:21:55Z</time>
      </trkpt>
      <trkpt lat="47.2349" lon="4.91884">
        <ele>482</ele>
        <time>2022-05-15T09:21:56Z</time>
      </trkpt>
      <trkpt lat="47.2349" lon="4.91882">
        <ele>484</ele>
        <time>2022-05-15T09:21:57Z</time>
      </trkpt>
      <trkpt lat="47.23491" lon="4.9188">
        <ele>483</ele>
        <time>2022-05-15T09:21:58Z</time>
      </trkpt>
      <trkpt lat="47.23491" lon="4.91877">
        <ele>482</ele>
        <time>2022-05-15T09:21:59Z</time>
      </trkpt>
      <trkpt lat="47.23491" lon="4.91874">
        <ele>484</ele>
        <time>2022-05-15T09:22:00Z</time>
      </trkpt>
      <trkpt lat="47.23491" lon="4.91873">
        <ele>484</ele>
        <time>2022-05-15T09:22:02Z</time>
      </trkpt>
      <trkpt lat="47.23491" lon="4.91871">
        <ele>483</ele>
        <time>2022-05-15T09:22:04Z</time>
      </trkpt>
      <trkpt lat="47.23491" lon="4.91869">
        <ele>483</ele>
        <time>2022-05-15T09:22:05Z</time>
      </trkpt>
      <trkpt lat="47.23491" lon="4.91867">
        <ele>482</ele>
        <time>2022-05-15T09:22:06Z</time>
      </trkpt>
      <trkpt lat="47.23491" lon="4.91865">
        <ele>482</ele>
        <time>2022-05-15T09:22:07Z</time>
      </trkpt>
      <trkpt lat="47.23492" lon="4.91863">
        <ele>482</ele>
        <time>2022-05-15T09:22:08Z</time>
      </trkpt>
      <trkpt lat="47.23493" lon="4.91861">
        <ele>482</ele>
        <time>2022-05-15T09:22:09Z</time>
      </trkpt>
      <trkpt lat="47.23493" lon="4.91859">
        <ele>482</ele>
        <time>2022-05-15T09:22:10Z</time>
      </trkpt>
      <trkpt lat="47.23494" lon="4.91858">
        <ele>485</ele>
        <time>2022-05-15T09:22:12Z</time>
      </trkpt>
      <trkpt lat="47.23495" lon="4.91856">
        <ele>485</ele>
        <time>2022-05-15T09:22:14Z</time>
      </trkpt>
      <trkpt lat="47.23496" lon="4.91855">
        <ele>484</ele>
        <time>2022-05-15T09:22:15Z</time>
      </trkpt>
      <trkpt lat="47.23496" lon="4.91852">
        <ele>485</ele>
        <time>2022-05-15T09:22:16Z</time>
      </trkpt>
      <trkpt lat="47.23496" lon="4.9185">
        <ele>484</ele>
        <time>2022-05-15T09:22:17Z</time>
      </trkpt>
      <trkpt lat="47.23497" lon="4.91848">
        <ele>484</ele>
        <time>2022-05-15T09:22:19Z</time>
      </trkpt>
      <trkpt lat="47.23497" lon="4.91846">
        <ele>485</ele>
        <time>2022-05-15T09:22:21Z</time>
      </trkpt>
      <trkpt lat="47.23496" lon="4.91843">
        <ele>486</ele>
        <time>2022-05-15T09:22:24Z</time>
      </trkpt>
      <trkpt lat="47.23496" lon="4.9184">
        <ele>485</ele>
        <time>2022-05-15T09:22:25Z</time>
      </trkpt>
      <trkpt lat="47.23496" lon="4.91837">
        <ele>485</ele>
        <time>2022-05-15T09:22:26Z</time>
      </trkpt>
      <trkpt lat="47.23496" lon="4.91835">
        <ele>485</ele>
        <time>2022-05-15T09:22:27Z</time>
      </trkpt>
      <trkpt lat="47.23497" lon="4.91833">
        <ele>484</ele>
        <time>2022-05-15T09:22:28Z</time>
      </trkpt>
      <trkpt lat="47.23497" lon="4.91832">
        <ele>484</ele>
        <time>2022-05-15T09:22:29Z</time>
      </trkpt>
      <trkpt lat="47.23497" lon="4.9183">
        <ele>485</ele>
        <time>2022-05-15T09:22:31Z</time>
      </trkpt>
      <trkpt lat="47.23496" lon="4.91828">
        <ele>485</ele>
        <time>2022-05-15T09:22:33Z</time>
      </trkpt>
      <trkpt lat="47.23496" lon="4.91825">
        <ele>485</ele>
        <time>2022-05-15T09:22:34Z</time>
      </trkpt>
      <trkpt lat="47.23497" lon="4.91821">
        <ele>485</ele>
        <time>2022-05-15T09:22:35Z</time>
      </trkpt>
      <trkpt lat="47.23497" lon="4.91817">
        <ele>484</ele>
        <time>2022-05-15T09:22:36Z</time>
      </trkpt>
      <trkpt lat="47.23497" lon="4.91815">
        <ele>484</ele>
        <time>2022-05-15T09:22:37Z</time>
      </trkpt>
      <trkpt lat="47.23497" lon="4.91814">
        <ele>485</ele>
        <time>2022-05-15T09:22:40Z</time>
      </trkpt>
      <trkpt lat="47.23497" lon="4.9181">
        <ele>485</ele>
        <time>2022-05-15T09:22:43Z</time>
      </trkpt>
      <trkpt lat="47.23497" lon="4.91807">
        <ele>485</ele>
        <time>2022-05-15T09:22:44Z</time>
      </trkpt>
      <trkpt lat="47.23497" lon="4.91805">
        <ele>485</ele>
        <time>2022-05-15T09:22:45Z</time>
      </trkpt>
      <trkpt lat="47.23498" lon="4.91803">
        <ele>485</ele>
        <time>2022-05-15T09:22:46Z</time>
      </trkpt>
      <trkpt lat="47.23498" lon="4.91802">
        <ele>486</ele>
        <time>2022-05-15T09:22:48Z</time>
      </trkpt>
      <trkpt lat="47.23498" lon="4.918">
        <ele>486</ele>
        <time>2022-05-15T09:22:50Z</time>
      </trkpt>
      <trkpt lat="47.23498" lon="4.91797">
        <ele>485</ele>
        <time>2022-05-15T09:22:51Z</time>
      </trkpt>
      <trkpt lat="47.23497" lon="4.91795">
        <ele>486</ele>
        <time>2022-05-15T09:22:52Z</time>
      </trkpt>
      <trkpt lat="47.23497" lon="4.91792">
        <ele>487</ele>
        <time>2022-05-15T09:22:53Z</time>
      </trkpt>
      <trkpt lat="47.23496" lon="4.9179">
        <ele>486</ele>
        <time>2022-05-15T09:22:54Z</time>
      </trkpt>
      <trkpt lat="47.23496" lon="4.91789">
        <ele>487</ele>
        <time>2022-05-15T09:22:55Z</time>
      </trkpt>
      <trkpt lat="47.23495" lon="4.91788">
        <ele>486</ele>
        <time>2022-05-15T09:22:56Z</time>
      </trkpt>
      <trkpt lat="47.23494" lon="4.91787">
        <ele>486</ele>
        <time>2022-05-15T09:22:57Z</time>
      </trkpt>
      <trkpt lat="47.23494" lon="4.91785">
        <ele>485</ele>
        <time>2022-05-15T09:22:58Z</time>
      </trkpt>
      <trkpt lat="47.23493" lon="4.91783">
        <ele>485</ele>
        <time>2022-05-15T09:22:59Z</time>
      </trkpt>
      <trkpt lat="47.23493" lon="4.9178">
        <ele>484</ele>
        <time>2022-05-15T09:23:00Z</time>
      </trkpt>
      <trkpt lat="47.23493" lon="4.91778">
        <ele>484</ele>
        <time>2022-05-15T09:23:01Z</time>
      </trkpt>
      <trkpt lat="47.23494" lon="4.91775">
        <ele>485</ele>
        <time>2022-05-15T09:23:02Z</time>
      </trkpt>
      <trkpt lat="47.23493" lon="4.91773">
        <ele>485</ele>
        <time>2022-05-15T09:23:03Z</time>
      </trkpt>
      <trkpt lat="47.23493" lon="4.91772">
        <ele>485</ele>
        <time>2022-05-15T09:23:05Z</time>
      </trkpt>
      <trkpt lat="47.23493" lon="4.9177">
        <ele>485</ele>
        <time>2022-05-15T09:23:07Z</time>
      </trkpt>
      <trkpt lat="47.23492" lon="4.91768">
        <ele>484</ele>
        <time>2022-05-15T09:23:08Z</time>
      </trkpt>
      <trkpt lat="47.23491" lon="4.91764">
        <ele>485</ele>
        <time>2022-05-15T09:23:09Z</time>
      </trkpt>
      <trkpt lat="47.23491" lon="4.91763">
        <ele>487</ele>
        <time>2022-05-15T09:23:10Z</time>
      </trkpt>
      <trkpt lat="47.23491" lon="4.91761">
        <ele>487</ele>
        <time>2022-05-15T09:23:13Z</time>
      </trkpt>
      <trkpt lat="47.23492" lon="4.91758">
        <ele>487</ele>
        <time>2022-05-15T09:23:15Z</time>
      </trkpt>
      <trkpt lat="47.23493" lon="4.91754">
        <ele>487</ele>
        <time>2022-05-15T09:23:16Z</time>
      </trkpt>
      <trkpt lat="47.23493" lon="4.91752">
        <ele>486</ele>
        <time>2022-05-15T09:23:17Z</time>
      </trkpt>
      <trkpt lat="47.23493" lon="4.91751">
        <ele>486</ele>
        <time>2022-05-15T09:23:18Z</time>
      </trkpt>
      <trkpt lat="47.23494" lon="4.91749">
        <ele>486</ele>
        <time>2022-05-15T09:23:20Z</time>
      </trkpt>
      <trkpt lat="47.23494" lon="4.91746">
        <ele>485</ele>
        <time>2022-05-15T09:23:21Z</time>
      </trkpt>
      <trkpt lat="47.23495" lon="4.91743">
        <ele>484</ele>
        <time>2022-05-15T09:23:22Z</time>
      </trkpt>
      <trkpt lat="47.23495" lon="4.9174">
        <ele>483</ele>
        <time>2022-05-15T09:23:23Z</time>
      </trkpt>
      <trkpt lat="47.23496" lon="4.91738">
        <ele>484</ele>
        <time>2022-05-15T09:23:24Z</time>
      </trkpt>
      <trkpt lat="47.23496" lon="4.91737">
        <ele>483</ele>
        <time>2022-05-15T09:23:25Z</time>
      </trkpt>
      <trkpt lat="47.23497" lon="4.91736">
        <ele>483</ele>
        <time>2022-05-15T09:23:27Z</time>
      </trkpt>
      <trkpt lat="47.23498" lon="4.91734">
        <ele>485</ele>
        <time>2022-05-15T09:23:28Z</time>
      </trkpt>
      <trkpt lat="47.23499" lon="4.91731">
        <ele>484</ele>
        <time>2022-05-15T09:23:29Z</time>
      </trkpt>
      <trkpt lat="47.23499" lon="4.91728">
        <ele>484</ele>
        <time>2022-05-15T09:23:30Z</time>
      </trkpt>
      <trkpt lat="47.23499" lon="4.91726">
        <ele>484</ele>
        <time>2022-05-15T09:23:31Z</time>
      </trkpt>
      <trkpt lat="47.23499" lon="4.91725">
        <ele>483</ele>
        <time>2022-05-15T09:23:33Z</time>
      </trkpt>
      <trkpt lat="47.235" lon="4.91724">
        <ele>481</ele>
        <time>2022-05-15T09:23:40Z</time>
      </trkpt>
      <trkpt lat="47.235" lon="4.91722">
        <ele>482</ele>
        <time>2022-05-15T09:23:42Z</time>
      </trkpt>
      <trkpt lat="47.23501" lon="4.91721">
        <ele>483</ele>
        <time>2022-05-15T09:23:47Z</time>
      </trkpt>
      <trkpt lat="47.23502" lon="4.91721">
        <ele>482</ele>
        <time>2022-05-15T09:23:50Z</time>
      </trkpt>
      <trkpt lat="47.23502" lon="4.91723">
        <ele>482</ele>
        <time>2022-05-15T09:23:54Z</time>
      </trkpt>
      <trkpt lat="47.23502" lon="4.91724">
        <ele>482</ele>
        <time>2022-05-15T09:23:57Z</time>
      </trkpt>
      <trkpt lat="47.23502" lon="4.91723">
        <ele>481</ele>
        <time>2022-05-15T09:24:20Z</time>
      </trkpt>
      <trkpt lat="47.23503" lon="4.91723">
        <ele>483</ele>
        <time>2022-05-15T09:24:31Z</time>
      </trkpt>
      <trkpt lat="47.23503" lon="4.91724">
        <ele>484</ele>
        <time>2022-05-15T09:24:39Z</time>
      </trkpt>
      <trkpt lat="47.23503" lon="4.91725">
        <ele>484</ele>
        <time>2022-05-15T09:24:42Z</time>
      </trkpt>
      <trkpt lat="47.23503" lon="4.91727">
        <ele>483</ele>
        <time>2022-05-15T09:24:48Z</time>
      </trkpt>
      <trkpt lat="47.23504" lon="4.91727">
        <ele>483</ele>
        <time>2022-05-15T09:24:51Z</time>
      </trkpt>
      <trkpt lat="47.23505" lon="4.91725">
        <ele>482</ele>
        <time>2022-05-15T09:25:02Z</time>
      </trkpt>
      <trkpt lat="47.23504" lon="4.91724">
        <ele>482</ele>
        <time>2022-05-15T09:25:04Z</time>
      </trkpt>
      <trkpt lat="47.23506" lon="4.91724">
        <ele>482</ele>
        <time>2022-05-15T09:25:07Z</time>
      </trkpt>
      <trkpt lat="47.23507" lon="4.91723">
        <ele>483</ele>
        <time>2022-05-15T09:25:11Z</time>
      </trkpt>
      <trkpt lat="47.23506" lon="4.91725">
        <ele>484</ele>
        <time>2022-05-15T09:25:19Z</time>
      </trkpt>
      <trkpt lat="47.23504" lon="4.91727">
        <ele>483</ele>
        <time>2022-05-15T09:25:20Z</time>
      </trkpt>
      <trkpt lat="47.23505" lon="4.91727">
        <ele>485</ele>
        <time>2022-05-15T09:25:35Z</time>
      </trkpt>
      <trkpt lat="47.23505" lon="4.91725">
        <ele>485</ele>
        <time>2022-05-15T09:25:51Z</time>
      </trkpt>
      <trkpt lat="47.23506" lon="4.91725">
        <ele>486</ele>
        <time>2022-05-15T09:25:59Z</time>
      </trkpt>
      <trkpt lat="47.23507" lon="4.91724">
        <ele>486</ele>
        <time>2022-05-15T09:26:08Z</time>
      </trkpt>
      <trkpt lat="47.23508" lon="4.91724">
        <ele>486</ele>
        <time>2022-05-15T09:26:10Z</time>
      </trkpt>
      <trkpt lat="47.23509" lon="4.91724">
        <ele>484</ele>
        <time>2022-05-15T09:26:20Z</time>
      </trkpt>
      <trkpt lat="47.23508" lon="4.91725">
        <ele>486</ele>
        <time>2022-05-15T09:26:30Z</time>
      </trkpt>
      <trkpt lat="47.23507" lon="4.91726">
        <ele>486</ele>
        <time>2022-05-15T09:26:43Z</time>
      </trkpt>
      <trkpt lat="47.23506" lon="4.91727">
        <ele>487</ele>
        <time>2022-05-15T09:26:48Z</time>
      </trkpt>
      <trkpt lat="47.23506" lon="4.91725">
        <ele>485</ele>
        <time>2022-05-15T09:27:02Z</time>
      </trkpt>
      <trkpt lat="47.23506" lon="4.91723">
        <ele>486</ele>
        <time>2022-05-15T09:27:05Z</time>
      </trkpt>
      <trkpt lat="47.23506" lon="4.91722">
        <ele>486</ele>
        <time>2022-05-15T09:27:07Z</time>
      </trkpt>
      <trkpt lat="47.23507" lon="4.91723">
        <ele>487</ele>
        <time>2022-05-15T09:27:15Z</time>
      </trkpt>
      <trkpt lat="47.23508" lon="4.91724">
        <ele>486</ele>
        <time>2022-05-15T09:27:22Z</time>
      </trkpt>
      <trkpt lat="47.23507" lon="4.91723">
        <ele>484</ele>
        <time>2022-05-15T09:27:25Z</time>
      </trkpt>
      <trkpt lat="47.23506" lon="4.91721">
        <ele>484</ele>
        <time>2022-05-15T09:27:28Z</time>
      </trkpt>
      <trkpt lat="47.23505" lon="4.91721">
        <ele>483</ele>
        <time>2022-05-15T09:27:35Z</time>
      </trkpt>
      <trkpt lat="47.23504" lon="4.91721">
        <ele>483</ele>
        <time>2022-05-15T09:27:36Z</time>
      </trkpt>
      <trkpt lat="47.23502" lon="4.91721">
        <ele>483</ele>
        <time>2022-05-15T09:27:37Z</time>
      </trkpt>
      <trkpt lat="47.23503" lon="4.91719">
        <ele>483</ele>
        <time>2022-05-15T09:27:40Z</time>
      </trkpt>
      <trkpt lat="47.23504" lon="4.9172">
        <ele>483</ele>
        <time>2022-05-15T09:27:44Z</time>
      </trkpt>
      <trkpt lat="47.23505" lon="4.9172">
        <ele>484</ele>
        <time>2022-05-15T09:27:46Z</time>
      </trkpt>
      <trkpt lat="47.23507" lon="4.9172">
        <ele>484</ele>
        <time>2022-05-15T09:27:52Z</time>
      </trkpt>
      <trkpt lat="47.23507" lon="4.91721">
        <ele>485</ele>
        <time>2022-05-15T09:27:56Z</time>
      </trkpt>
      <trkpt lat="47.23509" lon="4.9172">
        <ele>489</ele>
        <time>2022-05-15T09:28:13Z</time>
      </trkpt>
      <trkpt lat="47.23509" lon="4.91722">
        <ele>488</ele>
        <time>2022-05-15T09:28:17Z</time>
      </trkpt>
      <trkpt lat="47.2351" lon="4.91723">
        <ele>488</ele>
        <time>2022-05-15T09:28:30Z</time>
      </trkpt>
      <trkpt lat="47.2351" lon="4.91724">
        <ele>487</ele>
        <time>2022-05-15T09:28:42Z</time>
      </trkpt>
      <trkpt lat="47.23509" lon="4.91726">
        <ele>489</ele>
        <time>2022-05-15T09:28:53Z</time>
      </trkpt>
      <trkpt lat="47.23508" lon="4.91726">
        <ele>490</ele>
        <time>2022-05-15T09:29:46Z</time>
      </trkpt>
      <trkpt lat="47.23509" lon="4.91724">
        <ele>489</ele>
        <time>2022-05-15T09:29:49Z</time>
      </trkpt>
      <trkpt lat="47.23509" lon="4.91726">
        <ele>489</ele>
        <time>2022-05-15T09:30:01Z</time>
      </trkpt>
      <trkpt lat="47.23509" lon="4.91724">
        <ele>488</ele>
        <time>2022-05-15T09:30:04Z</time>
      </trkpt>
      <trkpt lat="47.23508" lon="4.91724">
        <ele>487</ele>
        <time>2022-05-15T09:30:06Z</time>
      </trkpt>
      <trkpt lat="47.23507" lon="4.91724">
        <ele>486</ele>
        <time>2022-05-15T09:30:18Z</time>
      </trkpt>
      <trkpt lat="47.23506" lon="4.91724">
        <ele>486</ele>
        <time>2022-05-15T09:30:21Z</time>
      </trkpt>
      <trkpt lat="47.23507" lon="4.91725">
        <ele>487</ele>
        <time>2022-05-15T09:30:27Z</time>
      </trkpt>
      <trkpt lat="47.23507" lon="4.91726">
        <ele>488</ele>
        <time>2022-05-15T09:30:29Z</time>
      </trkpt>
      <trkpt lat="47.23508" lon="4.91725">
        <ele>488</ele>
        <time>2022-05-15T09:30:37Z</time>
      </trkpt>
      <trkpt lat="47.23507" lon="4.91726">
        <ele>487</ele>
        <time>2022-05-15T09:30:45Z</time>
      </trkpt>
      <trkpt lat="47.23506" lon="4.91726">
        <ele>487</ele>
        <time>2022-05-15T09:30:47Z</time>
      </trkpt>
      <trkpt lat="47.23505" lon="4.91725">
        <ele>487</ele>
        <time>2022-05-15T09:30:59Z</time>
      </trkpt>
      <trkpt lat="47.23504" lon="4.91727">
        <ele>486</ele>
        <time>2022-05-15T09:31:03Z</time>
      </trkpt>
      <trkpt lat="47.23504" lon="4.91728">
        <ele>486</ele>
        <time>2022-05-15T09:31:04Z</time>
      </trkpt>
      <trkpt lat="47.23504" lon="4.91727">
        <ele>486</ele>
        <time>2022-05-15T09:31:08Z</time>
      </trkpt>
      <trkpt lat="47.23503" lon="4.91726">
        <ele>483</ele>
        <time>2022-05-15T09:31:16Z</time>
      </trkpt>
      <trkpt lat="47.23505" lon="4.91726">
        <ele>484</ele>
        <time>2022-05-15T09:31:19Z</time>
      </trkpt>
      <trkpt lat="47.23505" lon="4.91727">
        <ele>483</ele>
        <time>2022-05-15T09:31:27Z</time>
      </trkpt>
      <trkpt lat="47.23504" lon="4.91729">
        <ele>483</ele>
        <time>2022-05-15T09:31:36Z</time>
      </trkpt>
      <trkpt lat="47.23504" lon="4.91727">
        <ele>484</ele>
        <time>2022-05-15T09:31:38Z</time>
      </trkpt>
      <trkpt lat="47.23504" lon="4.91726">
        <ele>484</ele>
        <time>2022-05-15T09:31:41Z</time>
      </trkpt>
      <trkpt lat="47.23505" lon="4.91725">
        <ele>484</ele>
        <time>2022-05-15T09:31:46Z</time>
      </trkpt>
      <trkpt lat="47.23505" lon="4.91724">
        <ele>483</ele>
        <time>2022-05-15T09:31:56Z</time>
      </trkpt>
      <trkpt lat="47.23506" lon="4.91725">
        <ele>484</ele>
        <time>2022-05-15T09:32:04Z</time>
      </trkpt>
      <trkpt lat="47.23507" lon="4.91726">
        <ele>485</ele>
        <time>2022-05-15T09:32:07Z</time>
      </trkpt>
      <trkpt lat="47.23506" lon="4.91726">
        <ele>480</ele>
        <time>2022-05-15T09:32:09Z</time>
      </trkpt>
      <trkpt lat="47.23504" lon="4.91726">
        <ele>480</ele>
        <time>2022-05-15T09:32:10Z</time>
      </trkpt>
      <trkpt lat="47.23503" lon="4.91726">
        <ele>480</ele>
        <time>2022-05-15T09:32:11Z</time>
      </trkpt>
      <trkpt lat="47.23503" lon="4.91724">
        <ele>481</ele>
        <time>2022-05-15T09:32:14Z</time>
      </trkpt>
      <trkpt lat="47.23503" lon="4.91723">
        <ele>481</ele>
        <time>2022-05-15T09:32:17Z</time>
      </trkpt>
      <trkpt lat="47.23503" lon="4.91721">
        <ele>481</ele>
        <time>2022-05-15T09:32:20Z</time>
      </trkpt>
      <trkpt lat="47.23504" lon="4.9172">
        <ele>480</ele>
        <time>2022-05-15T09:32:30Z</time>
      </trkpt>
      <trkpt lat="47.23505" lon="4.91719">
        <ele>481</ele>
        <time>2022-05-15T09:32:33Z</time>
      </trkpt>
      <trkpt lat="47.23504" lon="4.91721">
        <ele>482</ele>
        <time>2022-05-15T09:32:42Z</time>
      </trkpt>
      <trkpt lat="47.23504" lon="4.91722">
        <ele>482</ele>
        <time>2022-05-15T09:32:49Z</time>
      </trkpt>
      <trkpt lat="47.23504" lon="4.91724">
        <ele>483</ele>
        <time>2022-05-15T09:32:54Z</time>
      </trkpt>
      <trkpt lat="47.23504" lon="4.91724">
        <ele>486</ele>
        <time>2022-05-15T09:34:55Z</time>
      </trkpt>
      <trkpt lat="47.23506" lon="4.91723">
        <ele>487</ele>
        <time>2022-05-15T09:34:57Z</time>
      </trkpt>
      <trkpt lat="47.23505" lon="4.91722">
        <ele>484</ele>
        <time>2022-05-15T09:35:01Z</time>
      </trkpt>
      <trkpt lat="47.23504" lon="4.91722">
        <ele>484</ele>
        <time>2022-05-15T09:35:03Z</time>
      </trkpt>
      <trkpt lat="47.23503" lon="4.91723">
        <ele>482</ele>
        <time>2022-05-15T09:35:20Z</time>
      </trkpt>
      <trkpt lat="47.23504" lon="4.91724">
        <ele>482</ele>
        <time>2022-05-15T09:35:26Z</time>
      </trkpt>
      <trkpt lat="47.23505" lon="4.91724">
        <ele>483</ele>
        <time>2022-05-15T09:35:34Z</time>
      </trkpt>
      <trkpt lat="47.23506" lon="4.91723">
        <ele>484</ele>
        <time>2022-05-15T09:36:30Z</time>
      </trkpt>
      <trkpt lat="47.23505" lon="4.91721">
        <ele>487</ele>
        <time>2022-05-15T09:36:52Z</time>
      </trkpt>
      <trkpt lat="47.23506" lon="4.91723">
        <ele>485</ele>
        <time>2022-05-15T09:36:58Z</time>
      </trkpt>
      <trkpt lat="47.23507" lon="4.91723">
        <ele>486</ele>
        <time>2022-05-15T09:37:00Z</time>
      </trkpt>
      <trkpt lat="47.23507" lon="4.91721">
        <ele>485</ele>
        <time>2022-05-15T09:37:17Z</time>
      </trkpt>
      <trkpt lat="47.23508" lon="4.91722">
        <ele>486</ele>
        <time>2022-05-15T09:37:21Z</time>
      </trkpt>
      <trkpt lat="47.2351" lon="4.91724">
        <ele>486</ele>
        <time>2022-05-15T09:37:22Z</time>
      </trkpt>
      <trkpt lat="47.23511" lon="4.91726">
        <ele>484</ele>
        <time>2022-05-15T09:37:23Z</time>
      </trkpt>
      <trkpt lat="47.23512" lon="4.91728">
        <ele>485</ele>
        <time>2022-05-15T09:37:24Z</time>
      </trkpt>
      <trkpt lat="47.23513" lon="4.91731">
        <ele>485</ele>
        <time>2022-05-15T09:37:25Z</time>
      </trkpt>
      <trkpt lat="47.23514" lon="4.91734">
        <ele>484</ele>
        <time>2022-05-15T09:37:26Z</time>
      </trkpt>
      <trkpt lat="47.23516" lon="4.91736">
        <ele>485</ele>
        <time>2022-05-15T09:37:27Z</time>
      </trkpt>
      <trkpt lat="47.23518" lon="4.91738">
        <ele>486</ele>
        <time>2022-05-15T09:37:28Z</time>
      </trkpt>
      <trkpt lat="47.23519" lon="4.91739">
        <ele>486</ele>
        <time>2022-05-15T09:37:30Z</time>
      </trkpt>
      <trkpt lat="47.23518" lon="4.91738">
        <ele>485</ele>
        <time>2022-05-15T09:37:32Z</time>
      </trkpt>
      <trkpt lat="47.23519" lon="4.91738">
        <ele>486</ele>
        <time>2022-05-15T09:37:34Z</time>
      </trkpt>
      <trkpt lat="47.2352" lon="4.9174">
        <ele>486</ele>
        <time>2022-05-15T09:37:35Z</time>
      </trkpt>
      <trkpt lat="47.23521" lon="4.91743">
        <ele>485</ele>
        <time>2022-05-15T09:37:36Z</time>
      </trkpt>
      <trkpt lat="47.23522" lon="4.91745">
        <ele>486</ele>
        <time>2022-05-15T09:37:37Z</time>
      </trkpt>
      <trkpt lat="47.23523" lon="4.91746">
        <ele>487</ele>
        <time>2022-05-15T09:37:38Z</time>
      </trkpt>
      <trkpt lat="47.23524" lon="4.91746">
        <ele>488</ele>
        <time>2022-05-15T09:37:46Z</time>
      </trkpt>
      <trkpt lat="47.23523" lon="4.91744">
        <ele>487</ele>
        <time>2022-05-15T09:37:57Z</time>
      </trkpt>
      <trkpt lat="47.23522" lon="4.91744">
        <ele>488</ele>
        <time>2022-05-15T09:38:00Z</time>
      </trkpt>
      <trkpt lat="47.23521" lon="4.91743">
        <ele>489</ele>
        <time>2022-05-15T09:38:01Z</time>
      </trkpt>
      <trkpt lat="47.2352" lon="4.91741">
        <ele>489</ele>
        <time>2022-05-15T09:38:02Z</time>
      </trkpt>
      <trkpt lat="47.23518" lon="4.9174">
        <ele>489</ele>
        <time>2022-05-15T09:38:03Z</time>
      </trkpt>
      <trkpt lat="47.23519" lon="4.91738">
        <ele>489</ele>
        <time>2022-05-15T09:38:06Z</time>
      </trkpt>
      <trkpt lat="47.23519" lon="4.91737">
        <ele>490</ele>
        <time>2022-05-15T09:38:08Z</time>
      </trkpt>
      <trkpt lat="47.2352" lon="4.91736">
        <ele>491</ele>
        <time>2022-05-15T09:38:13Z</time>
      </trkpt>
      <trkpt lat="47.23519" lon="4.91735">
        <ele>489</ele>
        <time>2022-05-15T09:38:26Z</time>
      </trkpt>
      <trkpt lat="47.23518" lon="4.91734">
        <ele>489</ele>
        <time>2022-05-15T09:38:28Z</time>
      </trkpt>
      <trkpt lat="47.23516" lon="4.91733">
        <ele>488</ele>
        <time>2022-05-15T09:38:30Z</time>
      </trkpt>
      <trkpt lat="47.23515" lon="4.91733">
        <ele>488</ele>
        <time>2022-05-15T09:38:32Z</time>
      </trkpt>
      <trkpt lat="47.23514" lon="4.91732">
        <ele>487</ele>
        <time>2022-05-15T09:38:42Z</time>
      </trkpt>
      <trkpt lat="47.23515" lon="4.91731">
        <ele>488</ele>
        <time>2022-05-15T09:39:01Z</time>
      </trkpt>
      <trkpt lat="47.23514" lon="4.91731">
        <ele>487</ele>
        <time>2022-05-15T09:39:16Z</time>
      </trkpt>
      <trkpt lat="47.23513" lon="4.91732">
        <ele>484</ele>
        <time>2022-05-15T09:39:39Z</time>
      </trkpt>
      <trkpt lat="47.23514" lon="4.91731">
        <ele>487</ele>
        <time>2022-05-15T09:39:47Z</time>
      </trkpt>
      <trkpt lat="47.23514" lon="4.91733">
        <ele>487</ele>
        <time>2022-05-15T09:39:57Z</time>
      </trkpt>
      <trkpt lat="47.23514" lon="4.91731">
        <ele>486</ele>
        <time>2022-05-15T09:40:01Z</time>
      </trkpt>
      <trkpt lat="47.23512" lon="4.91729">
        <ele>485</ele>
        <time>2022-05-15T09:40:02Z</time>
      </trkpt>
      <trkpt lat="47.23511" lon="4.91728">
        <ele>487</ele>
        <time>2022-05-15T09:40:04Z</time>
      </trkpt>
      <trkpt lat="47.2351" lon="4.91727">
        <ele>486</ele>
        <time>2022-05-15T09:40:07Z</time>
      </trkpt>
      <trkpt lat="47.23509" lon="4.91725">
        <ele>486</ele>
        <time>2022-05-15T09:40:08Z</time>
      </trkpt>
      <trkpt lat="47.23508" lon="4.91724">
        <ele>486</ele>
        <time>2022-05-15T09:40:09Z</time>
      </trkpt>
      <trkpt lat="47.23507" lon="4.91723">
        <ele>486</ele>
        <time>2022-05-15T09:40:10Z</time>
      </trkpt>
      <trkpt lat="47.23506" lon="4.91722">
        <ele>486</ele>
        <time>2022-05-15T09:40:11Z</time>
      </trkpt>
      <trkpt lat="47.23505" lon="4.9172">
        <ele>485</ele>
        <time>2022-05-15T09:40:12Z</time>
      </trkpt>
      <trkpt lat="47.23503" lon="4.91719">
        <ele>486</ele>
        <time>2022-05-15T09:40:13Z</time>
      </trkpt>
      <trkpt lat="47.23502" lon="4.91717">
        <ele>485</ele>
        <time>2022-05-15T09:40:14Z</time>
      </trkpt>
      <trkpt lat="47.23501" lon="4.91715">
        <ele>484</ele>
        <time>2022-05-15T09:40:15Z</time>
      </trkpt>
      <trkpt lat="47.235" lon="4.91714">
        <ele>484</ele>
        <time>2022-05-15T09:40:16Z</time>
      </trkpt>
      <trkpt lat="47.23498" lon="4.91712">
        <ele>483</ele>
        <time>2022-05-15T09:40:17Z</time>
      </trkpt>
      <trkpt lat="47.23497" lon="4.91711">
        <ele>482</ele>
        <time>2022-05-15T09:40:18Z</time>
      </trkpt>
      <trkpt lat="47.23495" lon="4.9171">
        <ele>481</ele>
        <time>2022-05-15T09:40:20Z</time>
      </trkpt>
      <trkpt lat="47.23494" lon="4.9171">
        <ele>481</ele>
        <time>2022-05-15T09:40:22Z</time>
      </trkpt>
      <trkpt lat="47.23491" lon="4.91708">
        <ele>481</ele>
        <time>2022-05-15T09:40:25Z</time>
      </trkpt>
      <trkpt lat="47.23491" lon="4.91706">
        <ele>481</ele>
        <time>2022-05-15T09:40:26Z</time>
      </trkpt>
      <trkpt lat="47.23491" lon="4.91704">
        <ele>482</ele>
        <time>2022-05-15T09:40:28Z</time>
      </trkpt>
      <trkpt lat="47.2349" lon="4.91702">
        <ele>483</ele>
        <time>2022-05-15T09:40:30Z</time>
      </trkpt>
      <trkpt lat="47.23489" lon="4.917">
        <ele>485</ele>
        <time>2022-05-15T09:40:31Z</time>
      </trkpt>
      <trkpt lat="47.23488" lon="4.91699">
        <ele>485</ele>
        <time>2022-05-15T09:40:32Z</time>
      </trkpt>
      <trkpt lat="47.23488" lon="4.91697">
        <ele>484</ele>
        <time>2022-05-15T09:40:36Z</time>
      </trkpt>
      <trkpt lat="47.23486" lon="4.91694">
        <ele>485</ele>
        <time>2022-05-15T09:40:38Z</time>
      </trkpt>
      <trkpt lat="47.23486" lon="4.91693">
        <ele>485</ele>
        <time>2022-05-15T09:40:39Z</time>
      </trkpt>
      <trkpt lat="47.23485" lon="4.91692">
        <ele>485</ele>
        <time>2022-05-15T09:40:40Z</time>
      </trkpt>
      <trkpt lat="47.23485" lon="4.91689">
        <ele>484</ele>
        <time>2022-05-15T09:40:41Z</time>
      </trkpt>
      <trkpt lat="47.23484" lon="4.91687">
        <ele>486</ele>
        <time>2022-05-15T09:40:42Z</time>
      </trkpt>
      <trkpt lat="47.23482" lon="4.91687">
        <ele>484</ele>
        <time>2022-05-15T09:40:44Z</time>
      </trkpt>
      <trkpt lat="47.23481" lon="4.91687">
        <ele>486</ele>
        <time>2022-05-15T09:40:46Z</time>
      </trkpt>
      <trkpt lat="47.23481" lon="4.91686">
        <ele>486</ele>
        <time>2022-05-15T09:40:47Z</time>
      </trkpt>
      <trkpt lat="47.23481" lon="4.91687">
        <ele>486</ele>
        <time>2022-05-15T09:40:49Z</time>
      </trkpt>
      <trkpt lat="47.2348" lon="4.91688">
        <ele>485</ele>
        <time>2022-05-15T09:40:56Z</time>
      </trkpt>
      <trkpt lat="47.23481" lon="4.91688">
        <ele>487</ele>
        <time>2022-05-15T09:42:15Z</time>
      </trkpt>
      <trkpt lat="47.23482" lon="4.9169">
        <ele>486</ele>
        <time>2022-05-15T09:42:17Z</time>
      </trkpt>
      <trkpt lat="47.23483" lon="4.91691">
        <ele>486</ele>
        <time>2022-05-15T09:42:18Z</time>
      </trkpt>
      <trkpt lat="47.23484" lon="4.91692">
        <ele>487</ele>
        <time>2022-05-15T09:42:19Z</time>
      </trkpt>
      <trkpt lat="47.23486" lon="4.91694">
        <ele>486</ele>
        <time>2022-05-15T09:42:20Z</time>
      </trkpt>
      <trkpt lat="47.23487" lon="4.91695">
        <ele>486</ele>
        <time>2022-05-15T09:42:21Z</time>
      </trkpt>
      <trkpt lat="47.23488" lon="4.91694">
        <ele>487</ele>
        <time>2022-05-15T09:42:24Z</time>
      </trkpt>
      <trkpt lat="47.23489" lon="4.91694">
        <ele>486</ele>
        <time>2022-05-15T09:42:27Z</time>
      </trkpt>
      <trkpt lat="47.23489" lon="4.91695">
        <ele>484</ele>
        <time>2022-05-15T09:42:37Z</time>
      </trkpt>
      <trkpt lat="47.23488" lon="4.91696">
        <ele>483</ele>
        <time>2022-05-15T09:42:40Z</time>
      </trkpt>
      <trkpt lat="47.23489" lon="4.91697">
        <ele>483</ele>
        <time>2022-05-15T09:42:44Z</time>
      </trkpt>
      <trkpt lat="47.2349" lon="4.91698">
        <ele>483</ele>
        <time>2022-05-15T09:42:46Z</time>
      </trkpt>
      <trkpt lat="47.23491" lon="4.917">
        <ele>482</ele>
        <time>2022-05-15T09:42:48Z</time>
      </trkpt>
      <trkpt lat="47.23491" lon="4.91701">
        <ele>483</ele>
        <time>2022-05-15T09:42:51Z</time>
      </trkpt>
      <trkpt lat="47.23493" lon="4.91701">
        <ele>483</ele>
        <time>2022-05-15T09:42:52Z</time>
      </trkpt>
      <trkpt lat="47.23494" lon="4.91702">
        <ele>484</ele>
        <time>2022-05-15T09:42:54Z</time>
      </trkpt>
      <trkpt lat="47.23494" lon="4.91703">
        <ele>484</ele>
        <time>2022-05-15T09:42:55Z</time>
      </trkpt>
      <trkpt lat="47.23495" lon="4.91704">
        <ele>484</ele>
        <time>2022-05-15T09:42:56Z</time>
      </trkpt>
      <trkpt lat="47.23496" lon="4.91705">
        <ele>483</ele>
        <time>2022-05-15T09:42:57Z</time>
      </trkpt>
      <trkpt lat="47.23497" lon="4.91706">
        <ele>483</ele>
        <time>2022-05-15T09:42:58Z</time>
      </trkpt>
      <trkpt lat="47.23498" lon="4.91709">
        <ele>482</ele>
        <time>2022-05-15T09:43:00Z</time>
      </trkpt>
      <trkpt lat="47.23498" lon="4.9171">
        <ele>483</ele>
        <time>2022-05-15T09:43:01Z</time>
      </trkpt>
      <trkpt lat="47.23498" lon="4.91713">
        <ele>484</ele>
        <time>2022-05-15T09:43:03Z</time>
      </trkpt>
      <trkpt lat="47.235" lon="4.91715">
        <ele>484</ele>
        <time>2022-05-15T09:43:04Z</time>
      </trkpt>
      <trkpt lat="47.23501" lon="4.91717">
        <ele>483</ele>
        <time>2022-05-15T09:43:05Z</time>
      </trkpt>
      <trkpt lat="47.23502" lon="4.91718">
        <ele>484</ele>
        <time>2022-05-15T09:43:06Z</time>
      </trkpt>
      <trkpt lat="47.23504" lon="4.9172">
        <ele>484</ele>
        <time>2022-05-15T09:43:07Z</time>
      </trkpt>
      <trkpt lat="47.23505" lon="4.91722">
        <ele>484</ele>
        <time>2022-05-15T09:43:08Z</time>
      </trkpt>
      <trkpt lat="47.23505" lon="4.91724">
        <ele>483</ele>
        <time>2022-05-15T09:43:11Z</time>
      </trkpt>
      <trkpt lat="47.23506" lon="4.91724">
        <ele>484</ele>
        <time>2022-05-15T09:43:13Z</time>
      </trkpt>
      <trkpt lat="47.23507" lon="4.91725">
        <ele>484</ele>
        <time>2022-05-15T09:43:14Z</time>
      </trkpt>
      <trkpt lat="47.23509" lon="4.91726">
        <ele>483</ele>
        <time>2022-05-15T09:43:16Z</time>
      </trkpt>
      <trkpt lat="47.2351" lon="4.91728">
        <ele>483</ele>
        <time>2022-05-15T09:43:18Z</time>
      </trkpt>
      <trkpt lat="47.23511" lon="4.91728">
        <ele>484</ele>
        <time>2022-05-15T09:43:19Z</time>
      </trkpt>
      <trkpt lat="47.23512" lon="4.91729">
        <ele>485</ele>
        <time>2022-05-15T09:43:21Z</time>
      </trkpt>
      <trkpt lat="47.23514" lon="4.91731">
        <ele>486</ele>
        <time>2022-05-15T09:43:22Z</time>
      </trkpt>
      <trkpt lat="47.23516" lon="4.91732">
        <ele>488</ele>
        <time>2022-05-15T09:43:23Z</time>
      </trkpt>
      <trkpt lat="47.2352" lon="4.91736">
        <ele>487</ele>
        <time>2022-05-15T09:43:25Z</time>
      </trkpt>
      <trkpt lat="47.23521" lon="4.91737">
        <ele>487</ele>
        <time>2022-05-15T09:43:26Z</time>
      </trkpt>
      <trkpt lat="47.23522" lon="4.91739">
        <ele>486</ele>
        <time>2022-05-15T09:43:27Z</time>
      </trkpt>
      <trkpt lat="47.23522" lon="4.91741">
        <ele>486</ele>
        <time>2022-05-15T09:43:28Z</time>
      </trkpt>
      <trkpt lat="47.23522" lon="4.91743">
        <ele>487</ele>
        <time>2022-05-15T09:43:30Z</time>
      </trkpt>
      <trkpt lat="47.23521" lon="4.91745">
        <ele>488</ele>
        <time>2022-05-15T09:43:32Z</time>
      </trkpt>
      <trkpt lat="47.23522" lon="4.91748">
        <ele>488</ele>
        <time>2022-05-15T09:43:33Z</time>
      </trkpt>
      <trkpt lat="47.23523" lon="4.9175">
        <ele>488</ele>
        <time>2022-05-15T09:43:34Z</time>
      </trkpt>
      <trkpt lat="47.23525" lon="4.91753">
        <ele>488</ele>
        <time>2022-05-15T09:43:35Z</time>
      </trkpt>
      <trkpt lat="47.23526" lon="4.91755">
        <ele>488</ele>
        <time>2022-05-15T09:43:36Z</time>
      </trkpt>
      <trkpt lat="47.23527" lon="4.91757">
        <ele>485</ele>
        <time>2022-05-15T09:43:38Z</time>
      </trkpt>
      <trkpt lat="47.23529" lon="4.91759">
        <ele>485</ele>
        <time>2022-05-15T09:43:39Z</time>
      </trkpt>
      <trkpt lat="47.23531" lon="4.91762">
        <ele>485</ele>
        <time>2022-05-15T09:43:40Z</time>
      </trkpt>
      <trkpt lat="47.23532" lon="4.91765">
        <ele>485</ele>
        <time>2022-05-15T09:43:41Z</time>
      </trkpt>
      <trkpt lat="47.23533" lon="4.91767">
        <ele>484</ele>
        <time>2022-05-15T09:43:42Z</time>
      </trkpt>
      <trkpt lat="47.23534" lon="4.9177">
        <ele>485</ele>
        <time>2022-05-15T09:43:43Z</time>
      </trkpt>
      <trkpt lat="47.23535" lon="4.91771">
        <ele>484</ele>
        <time>2022-05-15T09:43:44Z</time>
      </trkpt>
      <trkpt lat="47.23535" lon="4.91772">
        <ele>486</ele>
        <time>2022-05-15T09:43:48Z</time>
      </trkpt>
      <trkpt lat="47.23536" lon="4.91773">
        <ele>486</ele>
        <time>2022-05-15T09:43:49Z</time>
      </trkpt>
      <trkpt lat="47.23536" lon="4.91775">
        <ele>486</ele>
        <time>2022-05-15T09:43:50Z</time>
      </trkpt>
      <trkpt lat="47.23537" lon="4.91776">
        <ele>485</ele>
        <time>2022-05-15T09:43:51Z</time>
      </trkpt>
      <trkpt lat="47.23538" lon="4.91778">
        <ele>483</ele>
        <time>2022-05-15T09:43:52Z</time>
      </trkpt>
      <trkpt lat="47.23539" lon="4.9178">
        <ele>483</ele>
        <time>2022-05-15T09:43:53Z</time>
      </trkpt>
      <trkpt lat="47.2354" lon="4.91783">
        <ele>484</ele>
        <time>2022-05-15T09:43:54Z</time>
      </trkpt>
      <trkpt lat="47.23542" lon="4.91784">
        <ele>484</ele>
        <time>2022-05-15T09:43:55Z</time>
      </trkpt>
      <trkpt lat="47.23545" lon="4.91786">
        <ele>482</ele>
        <time>2022-05-15T09:43:56Z</time>
      </trkpt>
      <trkpt lat="47.23547" lon="4.91787">
        <ele>483</ele>
        <time>2022-05-15T09:43:57Z</time>
      </trkpt>
      <trkpt lat="47.23548" lon="4.91788">
        <ele>484</ele>
        <time>2022-05-15T09:43:58Z</time>
      </trkpt>
      <trkpt lat="47.23549" lon="4.91792">
        <ele>485</ele>
        <time>2022-05-15T09:44:00Z</time>
      </trkpt>
      <trkpt lat="47.23549" lon="4.91794">
        <ele>486</ele>
        <time>2022-05-15T09:44:01Z</time>
      </trkpt>
      <trkpt lat="47.23549" lon="4.91796">
        <ele>486</ele>
        <time>2022-05-15T09:44:03Z</time>
      </trkpt>
      <trkpt lat="47.23549" lon="4.91797">
        <ele>487</ele>
        <time>2022-05-15T09:44:04Z</time>
      </trkpt>
      <trkpt lat="47.2355" lon="4.918">
        <ele>486</ele>
        <time>2022-05-15T09:44:05Z</time>
      </trkpt>
      <trkpt lat="47.23551" lon="4.91802">
        <ele>486</ele>
        <time>2022-05-15T09:44:06Z</time>
      </trkpt>
      <trkpt lat="47.23552" lon="4.91804">
        <ele>486</ele>
        <time>2022-05-15T09:44:07Z</time>
      </trkpt>
      <trkpt lat="47.23553" lon="4.91807">
        <ele>485</ele>
        <time>2022-05-15T09:44:11Z</time>
      </trkpt>
      <trkpt lat="47.23554" lon="4.91809">
        <ele>484</ele>
        <time>2022-05-15T09:44:12Z</time>
      </trkpt>
      <trkpt lat="47.23555" lon="4.9181">
        <ele>485</ele>
        <time>2022-05-15T09:44:13Z</time>
      </trkpt>
      <trkpt lat="47.23556" lon="4.91813">
        <ele>485</ele>
        <time>2022-05-15T09:44:16Z</time>
      </trkpt>
      <trkpt lat="47.23556" lon="4.91814">
        <ele>485</ele>
        <time>2022-05-15T09:44:18Z</time>
      </trkpt>
      <trkpt lat="47.23556" lon="4.91816">
        <ele>485</ele>
        <time>2022-05-15T09:44:20Z</time>
      </trkpt>
      <trkpt lat="47.23557" lon="4.91819">
        <ele>485</ele>
        <time>2022-05-15T09:44:21Z</time>
      </trkpt>
      <trkpt lat="47.23558" lon="4.9182">
        <ele>485</ele>
        <time>2022-05-15T09:44:22Z</time>
      </trkpt>
      <trkpt lat="47.2356" lon="4.91822">
        <ele>487</ele>
        <time>2022-05-15T09:44:24Z</time>
      </trkpt>
      <trkpt lat="47.23561" lon="4.91822">
        <ele>486</ele>
        <time>2022-05-15T09:44:27Z</time>
      </trkpt>
      <trkpt lat="47.23562" lon="4.91823">
        <ele>486</ele>
        <time>2022-05-15T09:44:28Z</time>
      </trkpt>
      <trkpt lat="47.23562" lon="4.91825">
        <ele>486</ele>
        <time>2022-05-15T09:44:29Z</time>
      </trkpt>
      <trkpt lat="47.23563" lon="4.91826">
        <ele>486</ele>
        <time>2022-05-15T09:44:30Z</time>
      </trkpt>
      <trkpt lat="47.23564" lon="4.91827">
        <ele>489</ele>
        <time>2022-05-15T09:44:32Z</time>
      </trkpt>
      <trkpt lat="47.23565" lon="4.91828">
        <ele>489</ele>
        <time>2022-05-15T09:44:33Z</time>
      </trkpt>
      <trkpt lat="47.23566" lon="4.91829">
        <ele>489</ele>
        <time>2022-05-15T09:44:34Z</time>
      </trkpt>
      <trkpt lat="47.23567" lon="4.9183">
        <ele>489</ele>
        <time>2022-05-15T09:44:35Z</time>
      </trkpt>
      <trkpt lat="47.23568" lon="4.9183">
        <ele>489</ele>
        <time>2022-05-15T09:44:36Z</time>
      </trkpt>
      <trkpt lat="47.23569" lon="4.91831">
        <ele>489</ele>
        <time>2022-05-15T09:44:37Z</time>
      </trkpt>
      <trkpt lat="47.2357" lon="4.91832">
        <ele>489</ele>
        <time>2022-05-15T09:44:38Z</time>
      </trkpt>
      <trkpt lat="47.2357" lon="4.91833">
        <ele>488</ele>
        <time>2022-05-15T09:44:39Z</time>
      </trkpt>
      <trkpt lat="47.23571" lon="4.91835">
        <ele>488</ele>
        <time>2022-05-15T09:44:40Z</time>
      </trkpt>
      <trkpt lat="47.23573" lon="4.91837">
        <ele>488</ele>
        <time>2022-05-15T09:44:41Z</time>
      </trkpt>
      <trkpt lat="47.23573" lon="4.91838">
        <ele>488</ele>
        <time>2022-05-15T09:44:42Z</time>
      </trkpt>
      <trkpt lat="47.23573" lon="4.9184">
        <ele>489</ele>
        <time>2022-05-15T09:44:44Z</time>
      </trkpt>
      <trkpt lat="47.23574" lon="4.91842">
        <ele>491</ele>
        <time>2022-05-15T09:44:50Z</time>
      </trkpt>
      <trkpt lat="47.23575" lon="4.91843">
        <ele>492</ele>
        <time>2022-05-15T09:44:52Z</time>
      </trkpt>
      <trkpt lat="47.23576" lon="4.91844">
        <ele>492</ele>
        <time>2022-05-15T09:44:56Z</time>
      </trkpt>
      <trkpt lat="47.23577" lon="4.91845">
        <ele>493</ele>
        <time>2022-05-15T09:44:57Z</time>
      </trkpt>
      <trkpt lat="47.23577" lon="4.91847">
        <ele>492</ele>
        <time>2022-05-15T09:44:59Z</time>
      </trkpt>
      <trkpt lat="47.23577" lon="4.91848">
        <ele>494</ele>
        <time>2022-05-15T09:45:04Z</time>
      </trkpt>
      <trkpt lat="47.23578" lon="4.91851">
        <ele>494</ele>
        <time>2022-05-15T09:45:06Z</time>
      </trkpt>
      <trkpt lat="47.23579" lon="4.91852">
        <ele>494</ele>
        <time>2022-05-15T09:45:07Z</time>
      </trkpt>
      <trkpt lat="47.23579" lon="4.91854">
        <ele>494</ele>
        <time>2022-05-15T09:45:08Z</time>
      </trkpt>
      <trkpt lat="47.2358" lon="4.91856">
        <ele>491</ele>
        <time>2022-05-15T09:45:10Z</time>
      </trkpt>
      <trkpt lat="47.23582" lon="4.91857">
        <ele>492</ele>
        <time>2022-05-15T09:45:11Z</time>
      </trkpt>
      <trkpt lat="47.23583" lon="4.91858">
        <ele>492</ele>
        <time>2022-05-15T09:45:12Z</time>
      </trkpt>
      <trkpt lat="47.23584" lon="4.91859">
        <ele>493</ele>
        <time>2022-05-15T09:45:13Z</time>
      </trkpt>
      <trkpt lat="47.23584" lon="4.9186">
        <ele>493</ele>
        <time>2022-05-15T09:45:14Z</time>
      </trkpt>
      <trkpt lat="47.23585" lon="4.91861">
        <ele>493</ele>
        <time>2022-05-15T09:45:15Z</time>
      </trkpt>
      <trkpt lat="47.23586" lon="4.91862">
        <ele>494</ele>
        <time>2022-05-15T09:45:16Z</time>
      </trkpt>
      <trkpt lat="47.23587" lon="4.91863">
        <ele>493</ele>
        <time>2022-05-15T09:45:17Z</time>
      </trkpt>
      <trkpt lat="47.23588" lon="4.91864">
        <ele>493</ele>
        <time>2022-05-15T09:45:18Z</time>
      </trkpt>
      <trkpt lat="47.2359" lon="4.91865">
        <ele>493</ele>
        <time>2022-05-15T09:45:19Z</time>
      </trkpt>
      <trkpt lat="47.23591" lon="4.91866">
        <ele>492</ele>
        <time>2022-05-15T09:45:20Z</time>
      </trkpt>
      <trkpt lat="47.23592" lon="4.91868">
        <ele>492</ele>
        <time>2022-05-15T09:45:22Z</time>
      </trkpt>
      <trkpt lat="47.23592" lon="4.9187">
        <ele>494</ele>
        <time>2022-05-15T09:45:23Z</time>
      </trkpt>
      <trkpt lat="47.23593" lon="4.91871">
        <ele>494</ele>
        <time>2022-05-15T09:45:25Z</time>
      </trkpt>
      <trkpt lat="47.23594" lon="4.91873">
        <ele>493</ele>
        <time>2022-05-15T09:45:26Z</time>
      </trkpt>
      <trkpt lat="47.23595" lon="4.91873">
        <ele>492</ele>
        <time>2022-05-15T09:45:27Z</time>
      </trkpt>
      <trkpt lat="47.23597" lon="4.91874">
        <ele>493</ele>
        <time>2022-05-15T09:45:29Z</time>
      </trkpt>
      <trkpt lat="47.23598" lon="4.91875">
        <ele>494</ele>
        <time>2022-05-15T09:45:30Z</time>
      </trkpt>
      <trkpt lat="47.23598" lon="4.91876">
        <ele>494</ele>
        <time>2022-05-15T09:45:31Z</time>
      </trkpt>
      <trkpt lat="47.23598" lon="4.91878">
        <ele>494</ele>
        <time>2022-05-15T09:45:32Z</time>
      </trkpt>
      <trkpt lat="47.236" lon="4.91879">
        <ele>494</ele>
        <time>2022-05-15T09:45:33Z</time>
      </trkpt>
      <trkpt lat="47.236" lon="4.9188">
        <ele>496</ele>
        <time>2022-05-15T09:45:34Z</time>
      </trkpt>
      <trkpt lat="47.23601" lon="4.91882">
        <ele>496</ele>
        <time>2022-05-15T09:45:36Z</time>
      </trkpt>
      <trkpt lat="47.23602" lon="4.91883">
        <ele>496</ele>
        <time>2022-05-15T09:45:37Z</time>
      </trkpt>
      <trkpt lat="47.23603" lon="4.91884">
        <ele>496</ele>
        <time>2022-05-15T09:45:38Z</time>
      </trkpt>
      <trkpt lat="47.23603" lon="4.91886">
        <ele>496</ele>
        <time>2022-05-15T09:45:39Z</time>
      </trkpt>
      <trkpt lat="47.23604" lon="4.91887">
        <ele>495</ele>
        <time>2022-05-15T09:45:40Z</time>
      </trkpt>
      <trkpt lat="47.23605" lon="4.91889">
        <ele>495</ele>
        <time>2022-05-15T09:45:41Z</time>
      </trkpt>
      <trkpt lat="47.23605" lon="4.9189">
        <ele>495</ele>
        <time>2022-05-15T09:45:42Z</time>
      </trkpt>
      <trkpt lat="47.23606" lon="4.91892">
        <ele>496</ele>
        <time>2022-05-15T09:45:44Z</time>
      </trkpt>
      <trkpt lat="47.23607" lon="4.91894">
        <ele>497</ele>
        <time>2022-05-15T09:45:46Z</time>
      </trkpt>
      <trkpt lat="47.23608" lon="4.91895">
        <ele>496</ele>
        <time>2022-05-15T09:45:47Z</time>
      </trkpt>
      <trkpt lat="47.23608" lon="4.91896">
        <ele>495</ele>
        <time>2022-05-15T09:45:48Z</time>
      </trkpt>
      <trkpt lat="47.23609" lon="4.91898">
        <ele>495</ele>
        <time>2022-05-15T09:45:49Z</time>
      </trkpt>
      <trkpt lat="47.2361" lon="4.919">
        <ele>496</ele>
        <time>2022-05-15T09:45:50Z</time>
      </trkpt>
      <trkpt lat="47.2361" lon="4.91901">
        <ele>496</ele>
        <time>2022-05-15T09:45:51Z</time>
      </trkpt>
      <trkpt lat="47.2361" lon="4.91903">
        <ele>496</ele>
        <time>2022-05-15T09:45:52Z</time>
      </trkpt>
      <trkpt lat="47.23611" lon="4.91904">
        <ele>495</ele>
        <time>2022-05-15T09:45:53Z</time>
      </trkpt>
      <trkpt lat="47.23611" lon="4.91905">
        <ele>496</ele>
        <time>2022-05-15T09:45:54Z</time>
      </trkpt>
      <trkpt lat="47.23612" lon="4.91906">
        <ele>497</ele>
        <time>2022-05-15T09:45:55Z</time>
      </trkpt>
      <trkpt lat="47.23613" lon="4.91909">
        <ele>497</ele>
        <time>2022-05-15T09:45:57Z</time>
      </trkpt>
      <trkpt lat="47.23613" lon="4.91911">
        <ele>498</ele>
        <time>2022-05-15T09:45:58Z</time>
      </trkpt>
      <trkpt lat="47.23614" lon="4.91913">
        <ele>498</ele>
        <time>2022-05-15T09:45:59Z</time>
      </trkpt>
      <trkpt lat="47.23614" lon="4.91914">
        <ele>498</ele>
        <time>2022-05-15T09:46:00Z</time>
      </trkpt>
      <trkpt lat="47.23616" lon="4.91915">
        <ele>499</ele>
        <time>2022-05-15T09:46:01Z</time>
      </trkpt>
      <trkpt lat="47.23617" lon="4.91916">
        <ele>499</ele>
        <time>2022-05-15T09:46:02Z</time>
      </trkpt>
      <trkpt lat="47.23618" lon="4.91918">
        <ele>499</ele>
        <time>2022-05-15T09:46:04Z</time>
      </trkpt>
      <trkpt lat="47.23618" lon="4.91919">
        <ele>500</ele>
        <time>2022-05-15T09:46:05Z</time>
      </trkpt>
      <trkpt lat="47.23619" lon="4.91921">
        <ele>500</ele>
        <time>2022-05-15T09:46:06Z</time>
      </trkpt>
      <trkpt lat="47.23619" lon="4.91922">
        <ele>500</ele>
        <time>2022-05-15T09:46:07Z</time>
      </trkpt>
      <trkpt lat="47.2362" lon="4.91924">
        <ele>499</ele>
        <time>2022-05-15T09:46:08Z</time>
      </trkpt>
      <trkpt lat="47.2362" lon="4.91925">
        <ele>500</ele>
        <time>2022-05-15T09:46:09Z</time>
      </trkpt>
      <trkpt lat="47.23621" lon="4.91927">
        <ele>500</ele>
        <time>2022-05-15T09:46:10Z</time>
      </trkpt>
      <trkpt lat="47.23621" lon="4.91929">
        <ele>501</ele>
        <time>2022-05-15T09:46:12Z</time>
      </trkpt>
      <trkpt lat="47.23622" lon="4.91931">
        <ele>501</ele>
        <time>2022-05-15T09:46:14Z</time>
      </trkpt>
      <trkpt lat="47.23623" lon="4.91932">
        <ele>502</ele>
        <time>2022-05-15T09:46:15Z</time>
      </trkpt>
      <trkpt lat="47.23624" lon="4.91932">
        <ele>502</ele>
        <time>2022-05-15T09:46:16Z</time>
      </trkpt>
      <trkpt lat="47.23626" lon="4.91933">
        <ele>502</ele>
        <time>2022-05-15T09:46:21Z</time>
      </trkpt>
      <trkpt lat="47.23626" lon="4.91935">
        <ele>503</ele>
        <time>2022-05-15T09:46:25Z</time>
      </trkpt>
      <trkpt lat="47.23627" lon="4.91938">
        <ele>502</ele>
        <time>2022-05-15T09:46:26Z</time>
      </trkpt>
      <trkpt lat="47.23627" lon="4.9194">
        <ele>501</ele>
        <time>2022-05-15T09:46:27Z</time>
      </trkpt>
      <trkpt lat="47.23628" lon="4.91942">
        <ele>501</ele>
        <time>2022-05-15T09:46:29Z</time>
      </trkpt>
      <trkpt lat="47.23629" lon="4.91942">
        <ele>501</ele>
        <time>2022-05-15T09:46:35Z</time>
      </trkpt>
      <trkpt lat="47.2363" lon="4.91943">
        <ele>501</ele>
        <time>2022-05-15T09:46:38Z</time>
      </trkpt>
      <trkpt lat="47.23631" lon="4.91944">
        <ele>501</ele>
        <time>2022-05-15T09:46:53Z</time>
      </trkpt>
      <trkpt lat="47.23631" lon="4.91943">
        <ele>502</ele>
        <time>2022-05-15T09:47:00Z</time>
      </trkpt>
      <trkpt lat="47.2363" lon="4.91942">
        <ele>501</ele>
        <time>2022-05-15T09:47:16Z</time>
      </trkpt>
      <trkpt lat="47.23632" lon="4.91943">
        <ele>504</ele>
        <time>2022-05-15T09:47:24Z</time>
      </trkpt>
      <trkpt lat="47.23633" lon="4.91942">
        <ele>504</ele>
        <time>2022-05-15T09:47:28Z</time>
      </trkpt>
      <trkpt lat="47.23633" lon="4.91941">
        <ele>504</ele>
        <time>2022-05-15T09:47:32Z</time>
      </trkpt>
      <trkpt lat="47.23634" lon="4.91943">
        <ele>504</ele>
        <time>2022-05-15T09:47:41Z</time>
      </trkpt>
      <trkpt lat="47.23633" lon="4.91941">
        <ele>503</ele>
        <time>2022-05-15T09:48:17Z</time>
      </trkpt>
      <trkpt lat="47.23634" lon="4.91943">
        <ele>502</ele>
        <time>2022-05-15T09:48:51Z</time>
      </trkpt>
      <trkpt lat="47.23635" lon="4.91944">
        <ele>502</ele>
        <time>2022-05-15T09:48:52Z</time>
      </trkpt>
      <trkpt lat="47.23635" lon="4.91946">
        <ele>503</ele>
        <time>2022-05-15T09:48:54Z</time>
      </trkpt>
      <trkpt lat="47.23636" lon="4.91948">
        <ele>504</ele>
        <time>2022-05-15T09:48:56Z</time>
      </trkpt>
      <trkpt lat="47.23637" lon="4.91949">
        <ele>503</ele>
        <time>2022-05-15T09:48:57Z</time>
      </trkpt>
      <trkpt lat="47.23638" lon="4.9195">
        <ele>503</ele>
        <time>2022-05-15T09:48:58Z</time>
      </trkpt>
      <trkpt lat="47.23639" lon="4.91952">
        <ele>503</ele>
        <time>2022-05-15T09:48:59Z</time>
      </trkpt>
      <trkpt lat="47.23639" lon="4.91953">
        <ele>503</ele>
        <time>2022-05-15T09:49:00Z</time>
      </trkpt>
      <trkpt lat="47.23641" lon="4.91955">
        <ele>504</ele>
        <time>2022-05-15T09:49:02Z</time>
      </trkpt>
      <trkpt lat="47.23641" lon="4.91956">
        <ele>505</ele>
        <time>2022-05-15T09:49:03Z</time>
      </trkpt>
      <trkpt lat="47.23642" lon="4.91956">
        <ele>505</ele>
        <time>2022-05-15T09:49:04Z</time>
      </trkpt>
      <trkpt lat="47.23643" lon="4.91957">
        <ele>505</ele>
        <time>2022-05-15T09:49:05Z</time>
      </trkpt>
      <trkpt lat="47.23644" lon="4.91958">
        <ele>505</ele>
        <time>2022-05-15T09:49:07Z</time>
      </trkpt>
      <trkpt lat="47.23645" lon="4.91959">
        <ele>506</ele>
        <time>2022-05-15T09:49:08Z</time>
      </trkpt>
      <trkpt lat="47.23646" lon="4.9196">
        <ele>506</ele>
        <time>2022-05-15T09:49:09Z</time>
      </trkpt>
      <trkpt lat="47.23647" lon="4.91962">
        <ele>507</ele>
        <time>2022-05-15T09:49:11Z</time>
      </trkpt>
      <trkpt lat="47.23648" lon="4.91964">
        <ele>506</ele>
        <time>2022-05-15T09:49:12Z</time>
      </trkpt>
      <trkpt lat="47.23648" lon="4.91965">
        <ele>507</ele>
        <time>2022-05-15T09:49:13Z</time>
      </trkpt>
      <trkpt lat="47.23649" lon="4.91966">
        <ele>506</ele>
        <time>2022-05-15T09:49:14Z</time>
      </trkpt>
      <trkpt lat="47.23651" lon="4.91967">
        <ele>506</ele>
        <time>2022-05-15T09:49:15Z</time>
      </trkpt>
      <trkpt lat="47.23652" lon="4.91968">
        <ele>506</ele>
        <time>2022-05-15T09:49:16Z</time>
      </trkpt>
      <trkpt lat="47.23653" lon="4.91969">
        <ele>506</ele>
        <time>2022-05-15T09:49:17Z</time>
      </trkpt>
      <trkpt lat="47.23654" lon="4.9197">
        <ele>506</ele>
        <time>2022-05-15T09:49:18Z</time>
      </trkpt>
      <trkpt lat="47.23654" lon="4.91972">
        <ele>505</ele>
        <time>2022-05-15T09:49:19Z</time>
      </trkpt>
      <trkpt lat="47.23655" lon="4.91973">
        <ele>505</ele>
        <time>2022-05-15T09:49:20Z</time>
      </trkpt>
      <trkpt lat="47.23656" lon="4.91974">
        <ele>506</ele>
        <time>2022-05-15T09:49:21Z</time>
      </trkpt>
      <trkpt lat="47.23657" lon="4.91974">
        <ele>507</ele>
        <time>2022-05-15T09:49:22Z</time>
      </trkpt>
      <trkpt lat="47.23658" lon="4.91976">
        <ele>506</ele>
        <time>2022-05-15T09:49:23Z</time>
      </trkpt>
      <trkpt lat="47.2366" lon="4.91977">
        <ele>507</ele>
        <time>2022-05-15T09:49:24Z</time>
      </trkpt>
      <trkpt lat="47.23661" lon="4.91978">
        <ele>507</ele>
        <time>2022-05-15T09:49:26Z</time>
      </trkpt>
      <trkpt lat="47.23663" lon="4.91978">
        <ele>506</ele>
        <time>2022-05-15T09:49:27Z</time>
      </trkpt>
      <trkpt lat="47.23664" lon="4.91979">
        <ele>507</ele>
        <time>2022-05-15T09:49:28Z</time>
      </trkpt>
      <trkpt lat="47.23665" lon="4.9198">
        <ele>507</ele>
        <time>2022-05-15T09:49:29Z</time>
      </trkpt>
      <trkpt lat="47.23666" lon="4.91981">
        <ele>506</ele>
        <time>2022-05-15T09:49:30Z</time>
      </trkpt>
      <trkpt lat="47.23666" lon="4.91982">
        <ele>507</ele>
        <time>2022-05-15T09:49:31Z</time>
      </trkpt>
      <trkpt lat="47.23667" lon="4.91983">
        <ele>507</ele>
        <time>2022-05-15T09:49:32Z</time>
      </trkpt>
      <trkpt lat="47.23668" lon="4.91984">
        <ele>507</ele>
        <time>2022-05-15T09:49:33Z</time>
      </trkpt>
      <trkpt lat="47.2367" lon="4.91985">
        <ele>507</ele>
        <time>2022-05-15T09:49:35Z</time>
      </trkpt>
      <trkpt lat="47.23671" lon="4.91986">
        <ele>506</ele>
        <time>2022-05-15T09:49:36Z</time>
      </trkpt>
      <trkpt lat="47.23672" lon="4.91987">
        <ele>506</ele>
        <time>2022-05-15T09:49:37Z</time>
      </trkpt>
      <trkpt lat="47.23673" lon="4.91988">
        <ele>507</ele>
        <time>2022-05-15T09:49:39Z</time>
      </trkpt>
      <trkpt lat="47.23674" lon="4.91989">
        <ele>508</ele>
        <time>2022-05-15T09:49:40Z</time>
      </trkpt>
      <trkpt lat="47.23675" lon="4.91991">
        <ele>510</ele>
        <time>2022-05-15T09:49:42Z</time>
      </trkpt>
      <trkpt lat="47.23675" lon="4.91993">
        <ele>510</ele>
        <time>2022-05-15T09:49:44Z</time>
      </trkpt>
      <trkpt lat="47.23676" lon="4.91994">
        <ele>509</ele>
        <time>2022-05-15T09:49:45Z</time>
      </trkpt>
      <trkpt lat="47.23678" lon="4.91996">
        <ele>509</ele>
        <time>2022-05-15T09:49:46Z</time>
      </trkpt>
      <trkpt lat="47.23679" lon="4.91997">
        <ele>507</ele>
        <time>2022-05-15T09:49:47Z</time>
      </trkpt>
      <trkpt lat="47.2368" lon="4.91998">
        <ele>507</ele>
        <time>2022-05-15T09:49:48Z</time>
      </trkpt>
      <trkpt lat="47.23681" lon="4.91999">
        <ele>508</ele>
        <time>2022-05-15T09:49:49Z</time>
      </trkpt>
      <trkpt lat="47.23682" lon="4.92">
        <ele>508</ele>
        <time>2022-05-15T09:49:50Z</time>
      </trkpt>
      <trkpt lat="47.23683" lon="4.92">
        <ele>508</ele>
        <time>2022-05-15T09:49:51Z</time>
      </trkpt>
      <trkpt lat="47.23685" lon="4.92001">
        <ele>508</ele>
        <time>2022-05-15T09:49:53Z</time>
      </trkpt>
      <trkpt lat="47.23687" lon="4.92003">
        <ele>508</ele>
        <time>2022-05-15T09:49:54Z</time>
      </trkpt>
      <trkpt lat="47.23688" lon="4.92004">
        <ele>508</ele>
        <time>2022-05-15T09:49:55Z</time>
      </trkpt>
      <trkpt lat="47.23688" lon="4.92005">
        <ele>509</ele>
        <time>2022-05-15T09:49:57Z</time>
      </trkpt>
      <trkpt lat="47.2369" lon="4.92006">
        <ele>510</ele>
        <time>2022-05-15T09:49:59Z</time>
      </trkpt>
      <trkpt lat="47.23691" lon="4.92007">
        <ele>512</ele>
        <time>2022-05-15T09:50:01Z</time>
      </trkpt>
      <trkpt lat="47.23692" lon="4.92008">
        <ele>513</ele>
        <time>2022-05-15T09:50:02Z</time>
      </trkpt>
      <trkpt lat="47.23693" lon="4.92009">
        <ele>513</ele>
        <time>2022-05-15T09:50:03Z</time>
      </trkpt>
      <trkpt lat="47.23695" lon="4.92011">
        <ele>513</ele>
        <time>2022-05-15T09:50:05Z</time>
      </trkpt>
      <trkpt lat="47.23696" lon="4.92012">
        <ele>512</ele>
        <time>2022-05-15T09:50:06Z</time>
      </trkpt>
      <trkpt lat="47.23697" lon="4.92014">
        <ele>511</ele>
        <time>2022-05-15T09:50:07Z</time>
      </trkpt>
      <trkpt lat="47.23698" lon="4.92015">
        <ele>511</ele>
        <time>2022-05-15T09:50:08Z</time>
      </trkpt>
      <trkpt lat="47.237" lon="4.92016">
        <ele>511</ele>
        <time>2022-05-15T09:50:09Z</time>
      </trkpt>
      <trkpt lat="47.23701" lon="4.92017">
        <ele>511</ele>
        <time>2022-05-15T09:50:10Z</time>
      </trkpt>
      <trkpt lat="47.23702" lon="4.92018">
        <ele>511</ele>
        <time>2022-05-15T09:50:11Z</time>
      </trkpt>
      <trkpt lat="47.23703" lon="4.92019">
        <ele>511</ele>
        <time>2022-05-15T09:50:12Z</time>
      </trkpt>
      <trkpt lat="47.23704" lon="4.9202">
        <ele>510</ele>
        <time>2022-05-15T09:50:13Z</time>
      </trkpt>
      <trkpt lat="47.23705" lon="4.92021">
        <ele>509</ele>
        <time>2022-05-15T09:50:14Z</time>
      </trkpt>
      <trkpt lat="47.23706" lon="4.92022">
        <ele>509</ele>
        <time>2022-05-15T09:50:15Z</time>
      </trkpt>
      <trkpt lat="47.23708" lon="4.92022">
        <ele>509</ele>
        <time>2022-05-15T09:50:16Z</time>
      </trkpt>
      <trkpt lat="47.23709" lon="4.92023">
        <ele>508</ele>
        <time>2022-05-15T09:50:17Z</time>
      </trkpt>
      <trkpt lat="47.23711" lon="4.92025">
        <ele>508</ele>
        <time>2022-05-15T09:50:19Z</time>
      </trkpt>
      <trkpt lat="47.23712" lon="4.92026">
        <ele>508</ele>
        <time>2022-05-15T09:50:20Z</time>
      </trkpt>
      <trkpt lat="47.23713" lon="4.92027">
        <ele>508</ele>
        <time>2022-05-15T09:50:21Z</time>
      </trkpt>
      <trkpt lat="47.23714" lon="4.92028">
        <ele>508</ele>
        <time>2022-05-15T09:50:22Z</time>
      </trkpt>
      <trkpt lat="47.23715" lon="4.92029">
        <ele>508</ele>
        <time>2022-05-15T09:50:23Z</time>
      </trkpt>
      <trkpt lat="47.23716" lon="4.92029">
        <ele>508</ele>
        <time>2022-05-15T09:50:24Z</time>
      </trkpt>
      <trkpt lat="47.23717" lon="4.9203">
        <ele>508</ele>
        <time>2022-05-15T09:50:25Z</time>
      </trkpt>
      <trkpt lat="47.23718" lon="4.92031">
        <ele>509</ele>
        <time>2022-05-15T09:50:26Z</time>
      </trkpt>
      <trkpt lat="47.2372" lon="4.92033">
        <ele>509</ele>
        <time>2022-05-15T09:50:28Z</time>
      </trkpt>
      <trkpt lat="47.23719" lon="4.92031">
        <ele>510</ele>
        <time>2022-05-15T09:50:31Z</time>
      </trkpt>
      <trkpt lat="47.23722" lon="4.92033">
        <ele>511</ele>
        <time>2022-05-15T09:50:35Z</time>
      </trkpt>
      <trkpt lat="47.23723" lon="4.92033">
        <ele>511</ele>
        <time>2022-05-15T09:50:36Z</time>
      </trkpt>
      <trkpt lat="47.23724" lon="4.92033">
        <ele>512</ele>
        <time>2022-05-15T09:50:38Z</time>
      </trkpt>
      <trkpt lat="47.23725" lon="4.92034">
        <ele>512</ele>
        <time>2022-05-15T09:50:39Z</time>
      </trkpt>
      <trkpt lat="47.23726" lon="4.92035">
        <ele>512</ele>
        <time>2022-05-15T09:50:40Z</time>
      </trkpt>
      <trkpt lat="47.23727" lon="4.92036">
        <ele>514</ele>
        <time>2022-05-15T09:50:42Z</time>
      </trkpt>
      <trkpt lat="47.23728" lon="4.92038">
        <ele>514</ele>
        <time>2022-05-15T09:50:43Z</time>
      </trkpt>
      <trkpt lat="47.23729" lon="4.92039">
        <ele>514</ele>
        <time>2022-05-15T09:50:44Z</time>
      </trkpt>
      <trkpt lat="47.23731" lon="4.9204">
        <ele>513</ele>
        <time>2022-05-15T09:50:46Z</time>
      </trkpt>
      <trkpt lat="47.23732" lon="4.92042">
        <ele>512</ele>
        <time>2022-05-15T09:50:47Z</time>
      </trkpt>
      <trkpt lat="47.23733" lon="4.92042">
        <ele>512</ele>
        <time>2022-05-15T09:50:48Z</time>
      </trkpt>
      <trkpt lat="47.23734" lon="4.92043">
        <ele>513</ele>
        <time>2022-05-15T09:50:49Z</time>
      </trkpt>
      <trkpt lat="47.23735" lon="4.92044">
        <ele>513</ele>
        <time>2022-05-15T09:50:50Z</time>
      </trkpt>
      <trkpt lat="47.23737" lon="4.92045">
        <ele>513</ele>
        <time>2022-05-15T09:50:51Z</time>
      </trkpt>
      <trkpt lat="47.23738" lon="4.92045">
        <ele>512</ele>
        <time>2022-05-15T09:50:52Z</time>
      </trkpt>
      <trkpt lat="47.23739" lon="4.92046">
        <ele>512</ele>
        <time>2022-05-15T09:50:53Z</time>
      </trkpt>
      <trkpt lat="47.2374" lon="4.92047">
        <ele>512</ele>
        <time>2022-05-15T09:50:54Z</time>
      </trkpt>
      <trkpt lat="47.23741" lon="4.92049">
        <ele>512</ele>
        <time>2022-05-15T09:50:55Z</time>
      </trkpt>
      <trkpt lat="47.23742" lon="4.9205">
        <ele>513</ele>
        <time>2022-05-15T09:50:56Z</time>
      </trkpt>
      <trkpt lat="47.23743" lon="4.92051">
        <ele>513</ele>
        <time>2022-05-15T09:50:57Z</time>
      </trkpt>
      <trkpt lat="47.23744" lon="4.92052">
        <ele>513</ele>
        <time>2022-05-15T09:50:58Z</time>
      </trkpt>
      <trkpt lat="47.23745" lon="4.92053">
        <ele>514</ele>
        <time>2022-05-15T09:50:59Z</time>
      </trkpt>
      <trkpt lat="47.23746" lon="4.92054">
        <ele>513</ele>
        <time>2022-05-15T09:51:00Z</time>
      </trkpt>
      <trkpt lat="47.23747" lon="4.92054">
        <ele>512</ele>
        <time>2022-05-15T09:51:01Z</time>
      </trkpt>
      <trkpt lat="47.23748" lon="4.92055">
        <ele>512</ele>
        <time>2022-05-15T09:51:02Z</time>
      </trkpt>
      <trkpt lat="47.23749" lon="4.92056">
        <ele>513</ele>
        <time>2022-05-15T09:51:03Z</time>
      </trkpt>
      <trkpt lat="47.2375" lon="4.92057">
        <ele>512</ele>
        <time>2022-05-15T09:51:04Z</time>
      </trkpt>
      <trkpt lat="47.2375" lon="4.92058">
        <ele>513</ele>
        <time>2022-05-15T09:51:05Z</time>
      </trkpt>
      <trkpt lat="47.23751" lon="4.92059">
        <ele>513</ele>
        <time>2022-05-15T09:51:06Z</time>
      </trkpt>
      <trkpt lat="47.23752" lon="4.92061">
        <ele>513</ele>
        <time>2022-05-15T09:51:07Z</time>
      </trkpt>
      <trkpt lat="47.23753" lon="4.92062">
        <ele>513</ele>
        <time>2022-05-15T09:51:08Z</time>
      </trkpt>
      <trkpt lat="47.23753" lon="4.92063">
        <ele>513</ele>
        <time>2022-05-15T09:51:09Z</time>
      </trkpt>
      <trkpt lat="47.23754" lon="4.92064">
        <ele>513</ele>
        <time>2022-05-15T09:51:10Z</time>
      </trkpt>
      <trkpt lat="47.23755" lon="4.92065">
        <ele>513</ele>
        <time>2022-05-15T09:51:11Z</time>
      </trkpt>
      <trkpt lat="47.23756" lon="4.92066">
        <ele>513</ele>
        <time>2022-05-15T09:51:12Z</time>
      </trkpt>
      <trkpt lat="47.23757" lon="4.92068">
        <ele>513</ele>
        <time>2022-05-15T09:51:13Z</time>
      </trkpt>
      <trkpt lat="47.23758" lon="4.92069">
        <ele>513</ele>
        <time>2022-05-15T09:51:14Z</time>
      </trkpt>
      <trkpt lat="47.23759" lon="4.9207">
        <ele>513</ele>
        <time>2022-05-15T09:51:15Z</time>
      </trkpt>
      <trkpt lat="47.2376" lon="4.92071">
        <ele>513</ele>
        <time>2022-05-15T09:51:16Z</time>
      </trkpt>
      <trkpt lat="47.23761" lon="4.92072">
        <ele>514</ele>
        <time>2022-05-15T09:51:17Z</time>
      </trkpt>
      <trkpt lat="47.23762" lon="4.92073">
        <ele>514</ele>
        <time>2022-05-15T09:51:18Z</time>
      </trkpt>
      <trkpt lat="47.23763" lon="4.92074">
        <ele>514</ele>
        <time>2022-05-15T09:51:19Z</time>
      </trkpt>
      <trkpt lat="47.23764" lon="4.92075">
        <ele>514</ele>
        <time>2022-05-15T09:51:20Z</time>
      </trkpt>
      <trkpt lat="47.23765" lon="4.92076">
        <ele>514</ele>
        <time>2022-05-15T09:51:21Z</time>
      </trkpt>
      <trkpt lat="47.23766" lon="4.92077">
        <ele>514</ele>
        <time>2022-05-15T09:51:22Z</time>
      </trkpt>
      <trkpt lat="47.23767" lon="4.92079">
        <ele>514</ele>
        <time>2022-05-15T09:51:23Z</time>
      </trkpt>
      <trkpt lat="47.23768" lon="4.9208">
        <ele>515</ele>
        <time>2022-05-15T09:51:24Z</time>
      </trkpt>
      <trkpt lat="47.23769" lon="4.92082">
        <ele>514</ele>
        <time>2022-05-15T09:51:26Z</time>
      </trkpt>
      <trkpt lat="47.2377" lon="4.92083">
        <ele>515</ele>
        <time>2022-05-15T09:51:27Z</time>
      </trkpt>
      <trkpt lat="47.23772" lon="4.92085">
        <ele>516</ele>
        <time>2022-05-15T09:51:29Z</time>
      </trkpt>
      <trkpt lat="47.23774" lon="4.92087">
        <ele>515</ele>
        <time>2022-05-15T09:51:31Z</time>
      </trkpt>
      <trkpt lat="47.23775" lon="4.92089">
        <ele>515</ele>
        <time>2022-05-15T09:51:32Z</time>
      </trkpt>
      <trkpt lat="47.23776" lon="4.9209">
        <ele>516</ele>
        <time>2022-05-15T09:51:33Z</time>
      </trkpt>
      <trkpt lat="47.23777" lon="4.92091">
        <ele>516</ele>
        <time>2022-05-15T09:51:34Z</time>
      </trkpt>
      <trkpt lat="47.23778" lon="4.92091">
        <ele>515</ele>
        <time>2022-05-15T09:51:35Z</time>
      </trkpt>
      <trkpt lat="47.23779" lon="4.92092">
        <ele>515</ele>
        <time>2022-05-15T09:51:36Z</time>
      </trkpt>
      <trkpt lat="47.23781" lon="4.92093">
        <ele>514</ele>
        <time>2022-05-15T09:51:37Z</time>
      </trkpt>
      <trkpt lat="47.23782" lon="4.92095">
        <ele>515</ele>
        <time>2022-05-15T09:51:38Z</time>
      </trkpt>
      <trkpt lat="47.23783" lon="4.92096">
        <ele>515</ele>
        <time>2022-05-15T09:51:40Z</time>
      </trkpt>
      <trkpt lat="47.23784" lon="4.92097">
        <ele>515</ele>
        <time>2022-05-15T09:51:41Z</time>
      </trkpt>
      <trkpt lat="47.23785" lon="4.92098">
        <ele>515</ele>
        <time>2022-05-15T09:51:42Z</time>
      </trkpt>
      <trkpt lat="47.23786" lon="4.92099">
        <ele>516</ele>
        <time>2022-05-15T09:51:43Z</time>
      </trkpt>
      <trkpt lat="47.23787" lon="4.921">
        <ele>516</ele>
        <time>2022-05-15T09:51:44Z</time>
      </trkpt>
      <trkpt lat="47.23788" lon="4.92101">
        <ele>515</ele>
        <time>2022-05-15T09:51:45Z</time>
      </trkpt>
      <trkpt lat="47.23789" lon="4.92102">
        <ele>515</ele>
        <time>2022-05-15T09:51:46Z</time>
      </trkpt>
      <trkpt lat="47.2379" lon="4.92103">
        <ele>515</ele>
        <time>2022-05-15T09:51:47Z</time>
      </trkpt>
      <trkpt lat="47.23791" lon="4.92103">
        <ele>515</ele>
        <time>2022-05-15T09:51:48Z</time>
      </trkpt>
      <trkpt lat="47.23792" lon="4.92104">
        <ele>515</ele>
        <time>2022-05-15T09:51:49Z</time>
      </trkpt>
      <trkpt lat="47.23793" lon="4.92105">
        <ele>515</ele>
        <time>2022-05-15T09:51:50Z</time>
      </trkpt>
      <trkpt lat="47.23794" lon="4.92106">
        <ele>516</ele>
        <time>2022-05-15T09:51:51Z</time>
      </trkpt>
      <trkpt lat="47.23795" lon="4.92108">
        <ele>515</ele>
        <time>2022-05-15T09:51:52Z</time>
      </trkpt>
      <trkpt lat="47.23796" lon="4.92109">
        <ele>515</ele>
        <time>2022-05-15T09:51:53Z</time>
      </trkpt>
      <trkpt lat="47.23798" lon="4.9211">
        <ele>517</ele>
        <time>2022-05-15T09:51:55Z</time>
      </trkpt>
      <trkpt lat="47.23799" lon="4.92111">
        <ele>517</ele>
        <time>2022-05-15T09:51:56Z</time>
      </trkpt>
      <trkpt lat="47.23801" lon="4.92112">
        <ele>518</ele>
        <time>2022-05-15T09:51:57Z</time>
      </trkpt>
      <trkpt lat="47.23802" lon="4.92113">
        <ele>518</ele>
        <time>2022-05-15T09:51:58Z</time>
      </trkpt>
      <trkpt lat="47.23803" lon="4.92114">
        <ele>517</ele>
        <time>2022-05-15T09:52:00Z</time>
      </trkpt>
      <trkpt lat="47.23804" lon="4.92116">
        <ele>517</ele>
        <time>2022-05-15T09:52:01Z</time>
      </trkpt>
      <trkpt lat="47.23805" lon="4.92117">
        <ele>518</ele>
        <time>2022-05-15T09:52:02Z</time>
      </trkpt>
      <trkpt lat="47.23805" lon="4.92118">
        <ele>517</ele>
        <time>2022-05-15T09:52:06Z</time>
      </trkpt>
      <trkpt lat="47.23805" lon="4.9212">
        <ele>519</ele>
        <time>2022-05-15T09:52:13Z</time>
      </trkpt>
      <trkpt lat="47.23805" lon="4.92121">
        <ele>519</ele>
        <time>2022-05-15T09:52:17Z</time>
      </trkpt>
      <trkpt lat="47.23804" lon="4.92122">
        <ele>519</ele>
        <time>2022-05-15T09:52:18Z</time>
      </trkpt>
      <trkpt lat="47.23803" lon="4.92123">
        <ele>517</ele>
        <time>2022-05-15T09:52:20Z</time>
      </trkpt>
      <trkpt lat="47.23802" lon="4.92126">
        <ele>517</ele>
        <time>2022-05-15T09:52:22Z</time>
      </trkpt>
      <trkpt lat="47.23801" lon="4.92128">
        <ele>517</ele>
        <time>2022-05-15T09:52:23Z</time>
      </trkpt>
      <trkpt lat="47.23801" lon="4.9213">
        <ele>515</ele>
        <time>2022-05-15T09:52:25Z</time>
      </trkpt>
      <trkpt lat="47.23801" lon="4.92131">
        <ele>515</ele>
        <time>2022-05-15T09:52:26Z</time>
      </trkpt>
      <trkpt lat="47.238" lon="4.92134">
        <ele>513</ele>
        <time>2022-05-15T09:52:28Z</time>
      </trkpt>
      <trkpt lat="47.238" lon="4.92137">
        <ele>513</ele>
        <time>2022-05-15T09:52:30Z</time>
      </trkpt>
      <trkpt lat="47.23799" lon="4.92139">
        <ele>514</ele>
        <time>2022-05-15T09:52:32Z</time>
      </trkpt>
      <trkpt lat="47.23799" lon="4.9214">
        <ele>514</ele>
        <time>2022-05-15T09:52:35Z</time>
      </trkpt>
      <trkpt lat="47.23799" lon="4.92139">
        <ele>515</ele>
        <time>2022-05-15T09:52:53Z</time>
      </trkpt>
      <trkpt lat="47.238" lon="4.92138">
        <ele>515</ele>
        <time>2022-05-15T09:53:02Z</time>
      </trkpt>
      <trkpt lat="47.23801" lon="4.92136">
        <ele>514</ele>
        <time>2022-05-15T09:53:04Z</time>
      </trkpt>
      <trkpt lat="47.23801" lon="4.92134">
        <ele>515</ele>
        <time>2022-05-15T09:53:06Z</time>
      </trkpt>
      <trkpt lat="47.23802" lon="4.92132">
        <ele>517</ele>
        <time>2022-05-15T09:53:08Z</time>
      </trkpt>
      <trkpt lat="47.23803" lon="4.9213">
        <ele>516</ele>
        <time>2022-05-15T09:53:09Z</time>
      </trkpt>
      <trkpt lat="47.23803" lon="4.92129">
        <ele>517</ele>
        <time>2022-05-15T09:53:10Z</time>
      </trkpt>
      <trkpt lat="47.23803" lon="4.92127">
        <ele>517</ele>
        <time>2022-05-15T09:53:11Z</time>
      </trkpt>
      <trkpt lat="47.23803" lon="4.92125">
        <ele>517</ele>
        <time>2022-05-15T09:53:12Z</time>
      </trkpt>
      <trkpt lat="47.23803" lon="4.92124">
        <ele>518</ele>
        <time>2022-05-15T09:53:13Z</time>
      </trkpt>
      <trkpt lat="47.23804" lon="4.92123">
        <ele>518</ele>
        <time>2022-05-15T09:53:14Z</time>
      </trkpt>
      <trkpt lat="47.23804" lon="4.92121">
        <ele>518</ele>
        <time>2022-05-15T09:53:16Z</time>
      </trkpt>
      <trkpt lat="47.23805" lon="4.9212">
        <ele>517</ele>
        <time>2022-05-15T09:53:17Z</time>
      </trkpt>
      <trkpt lat="47.23807" lon="4.9212">
        <ele>517</ele>
        <time>2022-05-15T09:53:19Z</time>
      </trkpt>
      <trkpt lat="47.23807" lon="4.92119">
        <ele>517</ele>
        <time>2022-05-15T09:53:21Z</time>
      </trkpt>
      <trkpt lat="47.23809" lon="4.92119">
        <ele>517</ele>
        <time>2022-05-15T09:53:22Z</time>
      </trkpt>
      <trkpt lat="47.2381" lon="4.9212">
        <ele>517</ele>
        <time>2022-05-15T09:53:23Z</time>
      </trkpt>
      <trkpt lat="47.23811" lon="4.92121">
        <ele>518</ele>
        <time>2022-05-15T09:53:25Z</time>
      </trkpt>
      <trkpt lat="47.23812" lon="4.92123">
        <ele>518</ele>
        <time>2022-05-15T09:53:26Z</time>
      </trkpt>
      <trkpt lat="47.23813" lon="4.92124">
        <ele>517</ele>
        <time>2022-05-15T09:53:28Z</time>
      </trkpt>
      <trkpt lat="47.23814" lon="4.92125">
        <ele>516</ele>
        <time>2022-05-15T09:53:29Z</time>
      </trkpt>
      <trkpt lat="47.23815" lon="4.92126">
        <ele>515</ele>
        <time>2022-05-15T09:53:30Z</time>
      </trkpt>
      <trkpt lat="47.23816" lon="4.92127">
        <ele>515</ele>
        <time>2022-05-15T09:53:31Z</time>
      </trkpt>
      <trkpt lat="47.23817" lon="4.92127">
        <ele>516</ele>
        <time>2022-05-15T09:53:32Z</time>
      </trkpt>
      <trkpt lat="47.23818" lon="4.92128">
        <ele>516</ele>
        <time>2022-05-15T09:53:33Z</time>
      </trkpt>
      <trkpt lat="47.23819" lon="4.92129">
        <ele>518</ele>
        <time>2022-05-15T09:53:42Z</time>
      </trkpt>
      <trkpt lat="47.2382" lon="4.92131">
        <ele>518</ele>
        <time>2022-05-15T09:53:43Z</time>
      </trkpt>
      <trkpt lat="47.23821" lon="4.92132">
        <ele>518</ele>
        <time>2022-05-15T09:53:44Z</time>
      </trkpt>
      <trkpt lat="47.23823" lon="4.92133">
        <ele>519</ele>
        <time>2022-05-15T09:53:46Z</time>
      </trkpt>
      <trkpt lat="47.23824" lon="4.92134">
        <ele>518</ele>
        <time>2022-05-15T09:53:47Z</time>
      </trkpt>
      <trkpt lat="47.23825" lon="4.92134">
        <ele>517</ele>
        <time>2022-05-15T09:53:48Z</time>
      </trkpt>
      <trkpt lat="47.23826" lon="4.92135">
        <ele>518</ele>
        <time>2022-05-15T09:53:49Z</time>
      </trkpt>
      <trkpt lat="47.23827" lon="4.92136">
        <ele>518</ele>
        <time>2022-05-15T09:53:50Z</time>
      </trkpt>
      <trkpt lat="47.23828" lon="4.92137">
        <ele>518</ele>
        <time>2022-05-15T09:53:51Z</time>
      </trkpt>
      <trkpt lat="47.23829" lon="4.92138">
        <ele>518</ele>
        <time>2022-05-15T09:53:52Z</time>
      </trkpt>
      <trkpt lat="47.2383" lon="4.92138">
        <ele>518</ele>
        <time>2022-05-15T09:53:53Z</time>
      </trkpt>
      <trkpt lat="47.23832" lon="4.92138">
        <ele>518</ele>
        <time>2022-05-15T09:53:54Z</time>
      </trkpt>
      <trkpt lat="47.23833" lon="4.92139">
        <ele>518</ele>
        <time>2022-05-15T09:53:55Z</time>
      </trkpt>
      <trkpt lat="47.23834" lon="4.9214">
        <ele>516</ele>
        <time>2022-05-15T09:53:56Z</time>
      </trkpt>
      <trkpt lat="47.23836" lon="4.92141">
        <ele>516</ele>
        <time>2022-05-15T09:53:58Z</time>
      </trkpt>
      <trkpt lat="47.23837" lon="4.92142">
        <ele>517</ele>
        <time>2022-05-15T09:53:59Z</time>
      </trkpt>
      <trkpt lat="47.23838" lon="4.92143">
        <ele>517</ele>
        <time>2022-05-15T09:54:00Z</time>
      </trkpt>
      <trkpt lat="47.23839" lon="4.92145">
        <ele>516</ele>
        <time>2022-05-15T09:54:02Z</time>
      </trkpt>
      <trkpt lat="47.23841" lon="4.92146">
        <ele>516</ele>
        <time>2022-05-15T09:54:03Z</time>
      </trkpt>
      <trkpt lat="47.23842" lon="4.92147">
        <ele>516</ele>
        <time>2022-05-15T09:54:04Z</time>
      </trkpt>
      <trkpt lat="47.23843" lon="4.92148">
        <ele>515</ele>
        <time>2022-05-15T09:54:06Z</time>
      </trkpt>
      <trkpt lat="47.23844" lon="4.92149">
        <ele>516</ele>
        <time>2022-05-15T09:54:07Z</time>
      </trkpt>
      <trkpt lat="47.23846" lon="4.9215">
        <ele>516</ele>
        <time>2022-05-15T09:54:08Z</time>
      </trkpt>
      <trkpt lat="47.23847" lon="4.92151">
        <ele>516</ele>
        <time>2022-05-15T09:54:09Z</time>
      </trkpt>
      <trkpt lat="47.23849" lon="4.92152">
        <ele>518</ele>
        <time>2022-05-15T09:54:11Z</time>
      </trkpt>
      <trkpt lat="47.2385" lon="4.92153">
        <ele>519</ele>
        <time>2022-05-15T09:54:12Z</time>
      </trkpt>
      <trkpt lat="47.23851" lon="4.92154">
        <ele>519</ele>
        <time>2022-05-15T09:54:13Z</time>
      </trkpt>
      <trkpt lat="47.23852" lon="4.92154">
        <ele>518</ele>
        <time>2022-05-15T09:54:14Z</time>
      </trkpt>
      <trkpt lat="47.23853" lon="4.92155">
        <ele>518</ele>
        <time>2022-05-15T09:54:15Z</time>
      </trkpt>
      <trkpt lat="47.23854" lon="4.92156">
        <ele>517</ele>
        <time>2022-05-15T09:54:16Z</time>
      </trkpt>
      <trkpt lat="47.23855" lon="4.92156">
        <ele>518</ele>
        <time>2022-05-15T09:54:17Z</time>
      </trkpt>
      <trkpt lat="47.23856" lon="4.92157">
        <ele>518</ele>
        <time>2022-05-15T09:54:18Z</time>
      </trkpt>
      <trkpt lat="47.23857" lon="4.92157">
        <ele>518</ele>
        <time>2022-05-15T09:54:19Z</time>
      </trkpt>
      <trkpt lat="47.23858" lon="4.92158">
        <ele>518</ele>
        <time>2022-05-15T09:54:20Z</time>
      </trkpt>
      <trkpt lat="47.23859" lon="4.92158">
        <ele>518</ele>
        <time>2022-05-15T09:54:21Z</time>
      </trkpt>
      <trkpt lat="47.23861" lon="4.92159">
        <ele>517</ele>
        <time>2022-05-15T09:54:22Z</time>
      </trkpt>
      <trkpt lat="47.23862" lon="4.9216">
        <ele>517</ele>
        <time>2022-05-15T09:54:23Z</time>
      </trkpt>
      <trkpt lat="47.23863" lon="4.92162">
        <ele>518</ele>
        <time>2022-05-15T09:54:24Z</time>
      </trkpt>
      <trkpt lat="47.23864" lon="4.92163">
        <ele>517</ele>
        <time>2022-05-15T09:54:25Z</time>
      </trkpt>
      <trkpt lat="47.23865" lon="4.92165">
        <ele>517</ele>
        <time>2022-05-15T09:54:26Z</time>
      </trkpt>
      <trkpt lat="47.23865" lon="4.92166">
        <ele>517</ele>
        <time>2022-05-15T09:54:27Z</time>
      </trkpt>
      <trkpt lat="47.23866" lon="4.92167">
        <ele>518</ele>
        <time>2022-05-15T09:54:28Z</time>
      </trkpt>
      <trkpt lat="47.23867" lon="4.92169">
        <ele>518</ele>
        <time>2022-05-15T09:54:29Z</time>
      </trkpt>
      <trkpt lat="47.23869" lon="4.92171">
        <ele>518</ele>
        <time>2022-05-15T09:54:31Z</time>
      </trkpt>
      <trkpt lat="47.2387" lon="4.92172">
        <ele>518</ele>
        <time>2022-05-15T09:54:32Z</time>
      </trkpt>
      <trkpt lat="47.23871" lon="4.92172">
        <ele>516</ele>
        <time>2022-05-15T09:54:33Z</time>
      </trkpt>
      <trkpt lat="47.23872" lon="4.92173">
        <ele>516</ele>
        <time>2022-05-15T09:54:34Z</time>
      </trkpt>
      <trkpt lat="47.23873" lon="4.92175">
        <ele>516</ele>
        <time>2022-05-15T09:54:35Z</time>
      </trkpt>
      <trkpt lat="47.23874" lon="4.92176">
        <ele>516</ele>
        <time>2022-05-15T09:54:36Z</time>
      </trkpt>
      <trkpt lat="47.23875" lon="4.92177">
        <ele>516</ele>
        <time>2022-05-15T09:54:37Z</time>
      </trkpt>
      <trkpt lat="47.23876" lon="4.92178">
        <ele>515</ele>
        <time>2022-05-15T09:54:38Z</time>
      </trkpt>
      <trkpt lat="47.23877" lon="4.92179">
        <ele>516</ele>
        <time>2022-05-15T09:54:39Z</time>
      </trkpt>
      <trkpt lat="47.23877" lon="4.9218">
        <ele>515</ele>
        <time>2022-05-15T09:54:40Z</time>
      </trkpt>
      <trkpt lat="47.23878" lon="4.92181">
        <ele>516</ele>
        <time>2022-05-15T09:54:41Z</time>
      </trkpt>
      <trkpt lat="47.23879" lon="4.92182">
        <ele>516</ele>
        <time>2022-05-15T09:54:42Z</time>
      </trkpt>
      <trkpt lat="47.2388" lon="4.92183">
        <ele>517</ele>
        <time>2022-05-15T09:54:43Z</time>
      </trkpt>
      <trkpt lat="47.23881" lon="4.92183">
        <ele>516</ele>
        <time>2022-05-15T09:54:44Z</time>
      </trkpt>
      <trkpt lat="47.23882" lon="4.92184">
        <ele>516</ele>
        <time>2022-05-15T09:54:45Z</time>
      </trkpt>
      <trkpt lat="47.23883" lon="4.92185">
        <ele>516</ele>
        <time>2022-05-15T09:54:46Z</time>
      </trkpt>
      <trkpt lat="47.23884" lon="4.92185">
        <ele>516</ele>
        <time>2022-05-15T09:54:47Z</time>
      </trkpt>
      <trkpt lat="47.23885" lon="4.92186">
        <ele>516</ele>
        <time>2022-05-15T09:54:48Z</time>
      </trkpt>
      <trkpt lat="47.23886" lon="4.92187">
        <ele>517</ele>
        <time>2022-05-15T09:54:49Z</time>
      </trkpt>
      <trkpt lat="47.23887" lon="4.92188">
        <ele>518</ele>
        <time>2022-05-15T09:54:50Z</time>
      </trkpt>
      <trkpt lat="47.23888" lon="4.92189">
        <ele>519</ele>
        <time>2022-05-15T09:54:52Z</time>
      </trkpt>
      <trkpt lat="47.23889" lon="4.9219">
        <ele>519</ele>
        <time>2022-05-15T09:54:53Z</time>
      </trkpt>
      <trkpt lat="47.2389" lon="4.92191">
        <ele>518</ele>
        <time>2022-05-15T09:54:54Z</time>
      </trkpt>
      <trkpt lat="47.23891" lon="4.92193">
        <ele>518</ele>
        <time>2022-05-15T09:54:55Z</time>
      </trkpt>
      <trkpt lat="47.23892" lon="4.92194">
        <ele>518</ele>
        <time>2022-05-15T09:54:56Z</time>
      </trkpt>
      <trkpt lat="47.23893" lon="4.92195">
        <ele>519</ele>
        <time>2022-05-15T09:54:57Z</time>
      </trkpt>
      <trkpt lat="47.23894" lon="4.92196">
        <ele>520</ele>
        <time>2022-05-15T09:54:58Z</time>
      </trkpt>
      <trkpt lat="47.23895" lon="4.92197">
        <ele>520</ele>
        <time>2022-05-15T09:54:59Z</time>
      </trkpt>
      <trkpt lat="47.23895" lon="4.92198">
        <ele>520</ele>
        <time>2022-05-15T09:55:00Z</time>
      </trkpt>
      <trkpt lat="47.23896" lon="4.922">
        <ele>520</ele>
        <time>2022-05-15T09:55:01Z</time>
      </trkpt>
      <trkpt lat="47.23897" lon="4.92201">
        <ele>519</ele>
        <time>2022-05-15T09:55:02Z</time>
      </trkpt>
      <trkpt lat="47.23898" lon="4.92203">
        <ele>519</ele>
        <time>2022-05-15T09:55:03Z</time>
      </trkpt>
      <trkpt lat="47.23899" lon="4.92204">
        <ele>519</ele>
        <time>2022-05-15T09:55:04Z</time>
      </trkpt>
      <trkpt lat="47.239" lon="4.92205">
        <ele>519</ele>
        <time>2022-05-15T09:55:05Z</time>
      </trkpt>
      <trkpt lat="47.23901" lon="4.92206">
        <ele>520</ele>
        <time>2022-05-15T09:55:06Z</time>
      </trkpt>
      <trkpt lat="47.23902" lon="4.92207">
        <ele>520</ele>
        <time>2022-05-15T09:55:07Z</time>
      </trkpt>
      <trkpt lat="47.23902" lon="4.92208">
        <ele>520</ele>
        <time>2022-05-15T09:55:08Z</time>
      </trkpt>
      <trkpt lat="47.23903" lon="4.92209">
        <ele>521</ele>
        <time>2022-05-15T09:55:09Z</time>
      </trkpt>
      <trkpt lat="47.23904" lon="4.9221">
        <ele>522</ele>
        <time>2022-05-15T09:55:10Z</time>
      </trkpt>
      <trkpt lat="47.23905" lon="4.92211">
        <ele>522</ele>
        <time>2022-05-15T09:55:11Z</time>
      </trkpt>
      <trkpt lat="47.23906" lon="4.92212">
        <ele>522</ele>
        <time>2022-05-15T09:55:12Z</time>
      </trkpt>
      <trkpt lat="47.23907" lon="4.92214">
        <ele>522</ele>
        <time>2022-05-15T09:55:13Z</time>
      </trkpt>
      <trkpt lat="47.23908" lon="4.92215">
        <ele>521</ele>
        <time>2022-05-15T09:55:14Z</time>
      </trkpt>
      <trkpt lat="47.23909" lon="4.92217">
        <ele>521</ele>
        <time>2022-05-15T09:55:15Z</time>
      </trkpt>
      <trkpt lat="47.2391" lon="4.92218">
        <ele>522</ele>
        <time>2022-05-15T09:55:16Z</time>
      </trkpt>
      <trkpt lat="47.2391" lon="4.9222">
        <ele>522</ele>
        <time>2022-05-15T09:55:17Z</time>
      </trkpt>
      <trkpt lat="47.23911" lon="4.92221">
        <ele>521</ele>
        <time>2022-05-15T09:55:18Z</time>
      </trkpt>
      <trkpt lat="47.23912" lon="4.92223">
        <ele>521</ele>
        <time>2022-05-15T09:55:19Z</time>
      </trkpt>
      <trkpt lat="47.23913" lon="4.92224">
        <ele>521</ele>
        <time>2022-05-15T09:55:20Z</time>
      </trkpt>
      <trkpt lat="47.23914" lon="4.92225">
        <ele>521</ele>
        <time>2022-05-15T09:55:21Z</time>
      </trkpt>
      <trkpt lat="47.23915" lon="4.92227">
        <ele>521</ele>
        <time>2022-05-15T09:55:22Z</time>
      </trkpt>
      <trkpt lat="47.23916" lon="4.92228">
        <ele>521</ele>
        <time>2022-05-15T09:55:23Z</time>
      </trkpt>
      <trkpt lat="47.23916" lon="4.9223">
        <ele>521</ele>
        <time>2022-05-15T09:55:24Z</time>
      </trkpt>
      <trkpt lat="47.23917" lon="4.92232">
        <ele>520</ele>
        <time>2022-05-15T09:55:25Z</time>
      </trkpt>
      <trkpt lat="47.23918" lon="4.92233">
        <ele>520</ele>
        <time>2022-05-15T09:55:26Z</time>
      </trkpt>
      <trkpt lat="47.23918" lon="4.92235">
        <ele>520</ele>
        <time>2022-05-15T09:55:27Z</time>
      </trkpt>
      <trkpt lat="47.23919" lon="4.92236">
        <ele>521</ele>
        <time>2022-05-15T09:55:28Z</time>
      </trkpt>
      <trkpt lat="47.2392" lon="4.92237">
        <ele>521</ele>
        <time>2022-05-15T09:55:29Z</time>
      </trkpt>
      <trkpt lat="47.2392" lon="4.92239">
        <ele>521</ele>
        <time>2022-05-15T09:55:30Z</time>
      </trkpt>
      <trkpt lat="47.23922" lon="4.92241">
        <ele>521</ele>
        <time>2022-05-15T09:55:32Z</time>
      </trkpt>
      <trkpt lat="47.23922" lon="4.92242">
        <ele>521</ele>
        <time>2022-05-15T09:55:33Z</time>
      </trkpt>
      <trkpt lat="47.23923" lon="4.92244">
        <ele>520</ele>
        <time>2022-05-15T09:55:34Z</time>
      </trkpt>
      <trkpt lat="47.23924" lon="4.92245">
        <ele>520</ele>
        <time>2022-05-15T09:55:35Z</time>
      </trkpt>
      <trkpt lat="47.23925" lon="4.92247">
        <ele>520</ele>
        <time>2022-05-15T09:55:36Z</time>
      </trkpt>
      <trkpt lat="47.23926" lon="4.92249">
        <ele>519</ele>
        <time>2022-05-15T09:55:37Z</time>
      </trkpt>
      <trkpt lat="47.23927" lon="4.9225">
        <ele>520</ele>
        <time>2022-05-15T09:55:38Z</time>
      </trkpt>
      <trkpt lat="47.23928" lon="4.92252">
        <ele>520</ele>
        <time>2022-05-15T09:55:39Z</time>
      </trkpt>
      <trkpt lat="47.23929" lon="4.92253">
        <ele>521</ele>
        <time>2022-05-15T09:55:40Z</time>
      </trkpt>
      <trkpt lat="47.2393" lon="4.92255">
        <ele>521</ele>
        <time>2022-05-15T09:55:41Z</time>
      </trkpt>
      <trkpt lat="47.2393" lon="4.92256">
        <ele>521</ele>
        <time>2022-05-15T09:55:42Z</time>
      </trkpt>
      <trkpt lat="47.23931" lon="4.92257">
        <ele>521</ele>
        <time>2022-05-15T09:55:43Z</time>
      </trkpt>
      <trkpt lat="47.23931" lon="4.92259">
        <ele>521</ele>
        <time>2022-05-15T09:55:44Z</time>
      </trkpt>
      <trkpt lat="47.23932" lon="4.9226">
        <ele>520</ele>
        <time>2022-05-15T09:55:45Z</time>
      </trkpt>
      <trkpt lat="47.23933" lon="4.92262">
        <ele>521</ele>
        <time>2022-05-15T09:55:46Z</time>
      </trkpt>
      <trkpt lat="47.23934" lon="4.92263">
        <ele>521</ele>
        <time>2022-05-15T09:55:47Z</time>
      </trkpt>
      <trkpt lat="47.23934" lon="4.92265">
        <ele>521</ele>
        <time>2022-05-15T09:55:48Z</time>
      </trkpt>
      <trkpt lat="47.23935" lon="4.92266">
        <ele>521</ele>
        <time>2022-05-15T09:55:49Z</time>
      </trkpt>
      <trkpt lat="47.23936" lon="4.92267">
        <ele>520</ele>
        <time>2022-05-15T09:55:50Z</time>
      </trkpt>
      <trkpt lat="47.23937" lon="4.92268">
        <ele>520</ele>
        <time>2022-05-15T09:55:51Z</time>
      </trkpt>
      <trkpt lat="47.23938" lon="4.9227">
        <ele>520</ele>
        <time>2022-05-15T09:55:52Z</time>
      </trkpt>
      <trkpt lat="47.23939" lon="4.92271">
        <ele>520</ele>
        <time>2022-05-15T09:55:53Z</time>
      </trkpt>
      <trkpt lat="47.2394" lon="4.92272">
        <ele>520</ele>
        <time>2022-05-15T09:55:54Z</time>
      </trkpt>
      <trkpt lat="47.23941" lon="4.92273">
        <ele>520</ele>
        <time>2022-05-15T09:55:55Z</time>
      </trkpt>
      <trkpt lat="47.23942" lon="4.92274">
        <ele>520</ele>
        <time>2022-05-15T09:55:56Z</time>
      </trkpt>
      <trkpt lat="47.23943" lon="4.92275">
        <ele>521</ele>
        <time>2022-05-15T09:55:57Z</time>
      </trkpt>
      <trkpt lat="47.23944" lon="4.92276">
        <ele>521</ele>
        <time>2022-05-15T09:55:58Z</time>
      </trkpt>
      <trkpt lat="47.23945" lon="4.92278">
        <ele>521</ele>
        <time>2022-05-15T09:55:59Z</time>
      </trkpt>
      <trkpt lat="47.23945" lon="4.9228">
        <ele>521</ele>
        <time>2022-05-15T09:56:00Z</time>
      </trkpt>
      <trkpt lat="47.23946" lon="4.92281">
        <ele>522</ele>
        <time>2022-05-15T09:56:01Z</time>
      </trkpt>
      <trkpt lat="47.23947" lon="4.92282">
        <ele>522</ele>
        <time>2022-05-15T09:56:02Z</time>
      </trkpt>
      <trkpt lat="47.23948" lon="4.92283">
        <ele>522</ele>
        <time>2022-05-15T09:56:03Z</time>
      </trkpt>
      <trkpt lat="47.23949" lon="4.92284">
        <ele>523</ele>
        <time>2022-05-15T09:56:04Z</time>
      </trkpt>
      <trkpt lat="47.2395" lon="4.92286">
        <ele>523</ele>
        <time>2022-05-15T09:56:05Z</time>
      </trkpt>
      <trkpt lat="47.23951" lon="4.92287">
        <ele>523</ele>
        <time>2022-05-15T09:56:06Z</time>
      </trkpt>
      <trkpt lat="47.23952" lon="4.92288">
        <ele>523</ele>
        <time>2022-05-15T09:56:07Z</time>
      </trkpt>
      <trkpt lat="47.23953" lon="4.9229">
        <ele>522</ele>
        <time>2022-05-15T09:56:08Z</time>
      </trkpt>
      <trkpt lat="47.23954" lon="4.92291">
        <ele>522</ele>
        <time>2022-05-15T09:56:09Z</time>
      </trkpt>
      <trkpt lat="47.23955" lon="4.92292">
        <ele>522</ele>
        <time>2022-05-15T09:56:10Z</time>
      </trkpt>
      <trkpt lat="47.23956" lon="4.92294">
        <ele>522</ele>
        <time>2022-05-15T09:56:11Z</time>
      </trkpt>
      <trkpt lat="47.23956" lon="4.92295">
        <ele>522</ele>
        <time>2022-05-15T09:56:12Z</time>
      </trkpt>
      <trkpt lat="47.23957" lon="4.92296">
        <ele>522</ele>
        <time>2022-05-15T09:56:13Z</time>
      </trkpt>
      <trkpt lat="47.23958" lon="4.92298">
        <ele>522</ele>
        <time>2022-05-15T09:56:14Z</time>
      </trkpt>
      <trkpt lat="47.23959" lon="4.92299">
        <ele>523</ele>
        <time>2022-05-15T09:56:15Z</time>
      </trkpt>
      <trkpt lat="47.23959" lon="4.92301">
        <ele>523</ele>
        <time>2022-05-15T09:56:16Z</time>
      </trkpt>
      <trkpt lat="47.2396" lon="4.92302">
        <ele>523</ele>
        <time>2022-05-15T09:56:17Z</time>
      </trkpt>
      <trkpt lat="47.23961" lon="4.92304">
        <ele>523</ele>
        <time>2022-05-15T09:56:19Z</time>
      </trkpt>
      <trkpt lat="47.23962" lon="4.92305">
        <ele>523</ele>
        <time>2022-05-15T09:56:20Z</time>
      </trkpt>
      <trkpt lat="47.23963" lon="4.92307">
        <ele>523</ele>
        <time>2022-05-15T09:56:21Z</time>
      </trkpt>
      <trkpt lat="47.23964" lon="4.92309">
        <ele>523</ele>
        <time>2022-05-15T09:56:22Z</time>
      </trkpt>
      <trkpt lat="47.23964" lon="4.9231">
        <ele>523</ele>
        <time>2022-05-15T09:56:23Z</time>
      </trkpt>
      <trkpt lat="47.23965" lon="4.92312">
        <ele>524</ele>
        <time>2022-05-15T09:56:24Z</time>
      </trkpt>
      <trkpt lat="47.23966" lon="4.92314">
        <ele>524</ele>
        <time>2022-05-15T09:56:25Z</time>
      </trkpt>
      <trkpt lat="47.23967" lon="4.92315">
        <ele>523</ele>
        <time>2022-05-15T09:56:26Z</time>
      </trkpt>
      <trkpt lat="47.23968" lon="4.92317">
        <ele>524</ele>
        <time>2022-05-15T09:56:27Z</time>
      </trkpt>
      <trkpt lat="47.23969" lon="4.92318">
        <ele>524</ele>
        <time>2022-05-15T09:56:28Z</time>
      </trkpt>
      <trkpt lat="47.23969" lon="4.92319">
        <ele>525</ele>
        <time>2022-05-15T09:56:29Z</time>
      </trkpt>
      <trkpt lat="47.2397" lon="4.9232">
        <ele>525</ele>
        <time>2022-05-15T09:56:30Z</time>
      </trkpt>
      <trkpt lat="47.23973" lon="4.92323">
        <ele>524</ele>
        <time>2022-05-15T09:56:33Z</time>
      </trkpt>
      <trkpt lat="47.23974" lon="4.92325">
        <ele>524</ele>
        <time>2022-05-15T09:56:34Z</time>
      </trkpt>
      <trkpt lat="47.23974" lon="4.92326">
        <ele>524</ele>
        <time>2022-05-15T09:56:35Z</time>
      </trkpt>
      <trkpt lat="47.23975" lon="4.92328">
        <ele>524</ele>
        <time>2022-05-15T09:56:36Z</time>
      </trkpt>
      <trkpt lat="47.23976" lon="4.92329">
        <ele>524</ele>
        <time>2022-05-15T09:56:37Z</time>
      </trkpt>
      <trkpt lat="47.23977" lon="4.9233">
        <ele>525</ele>
        <time>2022-05-15T09:56:38Z</time>
      </trkpt>
      <trkpt lat="47.23978" lon="4.92331">
        <ele>525</ele>
        <time>2022-05-15T09:56:39Z</time>
      </trkpt>
      <trkpt lat="47.23979" lon="4.92333">
        <ele>524</ele>
        <time>2022-05-15T09:56:40Z</time>
      </trkpt>
      <trkpt lat="47.2398" lon="4.92335">
        <ele>524</ele>
        <time>2022-05-15T09:56:41Z</time>
      </trkpt>
      <trkpt lat="47.23981" lon="4.92336">
        <ele>524</ele>
        <time>2022-05-15T09:56:42Z</time>
      </trkpt>
      <trkpt lat="47.23982" lon="4.92337">
        <ele>524</ele>
        <time>2022-05-15T09:56:43Z</time>
      </trkpt>
      <trkpt lat="47.23983" lon="4.92338">
        <ele>525</ele>
        <time>2022-05-15T09:56:44Z</time>
      </trkpt>
      <trkpt lat="47.23983" lon="4.9234">
        <ele>526</ele>
        <time>2022-05-15T09:56:45Z</time>
      </trkpt>
      <trkpt lat="47.23984" lon="4.92341">
        <ele>526</ele>
        <time>2022-05-15T09:56:46Z</time>
      </trkpt>
      <trkpt lat="47.23984" lon="4.92343">
        <ele>526</ele>
        <time>2022-05-15T09:56:47Z</time>
      </trkpt>
      <trkpt lat="47.23985" lon="4.92345">
        <ele>526</ele>
        <time>2022-05-15T09:56:48Z</time>
      </trkpt>
      <trkpt lat="47.23986" lon="4.92347">
        <ele>525</ele>
        <time>2022-05-15T09:56:49Z</time>
      </trkpt>
      <trkpt lat="47.23987" lon="4.92349">
        <ele>525</ele>
        <time>2022-05-15T09:56:50Z</time>
      </trkpt>
      <trkpt lat="47.23988" lon="4.92349">
        <ele>527</ele>
        <time>2022-05-15T09:56:51Z</time>
      </trkpt>
      <trkpt lat="47.23989" lon="4.9235">
        <ele>526</ele>
        <time>2022-05-15T09:56:52Z</time>
      </trkpt>
      <trkpt lat="47.2399" lon="4.92351">
        <ele>527</ele>
        <time>2022-05-15T09:56:54Z</time>
      </trkpt>
      <trkpt lat="47.23991" lon="4.92353">
        <ele>527</ele>
        <time>2022-05-15T09:56:55Z</time>
      </trkpt>
      <trkpt lat="47.23992" lon="4.92355">
        <ele>526</ele>
        <time>2022-05-15T09:56:56Z</time>
      </trkpt>
      <trkpt lat="47.23992" lon="4.92357">
        <ele>526</ele>
        <time>2022-05-15T09:56:57Z</time>
      </trkpt>
      <trkpt lat="47.23993" lon="4.92359">
        <ele>525</ele>
        <time>2022-05-15T09:56:58Z</time>
      </trkpt>
      <trkpt lat="47.23993" lon="4.92361">
        <ele>525</ele>
        <time>2022-05-15T09:57:00Z</time>
      </trkpt>
      <trkpt lat="47.23994" lon="4.92364">
        <ele>525</ele>
        <time>2022-05-15T09:57:01Z</time>
      </trkpt>
      <trkpt lat="47.23994" lon="4.92366">
        <ele>525</ele>
        <time>2022-05-15T09:57:02Z</time>
      </trkpt>
      <trkpt lat="47.23995" lon="4.92369">
        <ele>525</ele>
        <time>2022-05-15T09:57:03Z</time>
      </trkpt>
      <trkpt lat="47.23996" lon="4.92371">
        <ele>525</ele>
        <time>2022-05-15T09:57:04Z</time>
      </trkpt>
      <trkpt lat="47.23996" lon="4.92373">
        <ele>526</ele>
        <time>2022-05-15T09:57:05Z</time>
      </trkpt>
      <trkpt lat="47.23996" lon="4.92375">
        <ele>526</ele>
        <time>2022-05-15T09:57:06Z</time>
      </trkpt>
      <trkpt lat="47.23997" lon="4.92377">
        <ele>527</ele>
        <time>2022-05-15T09:57:07Z</time>
      </trkpt>
      <trkpt lat="47.23997" lon="4.92378">
        <ele>527</ele>
        <time>2022-05-15T09:57:08Z</time>
      </trkpt>
      <trkpt lat="47.23998" lon="4.92381">
        <ele>526</ele>
        <time>2022-05-15T09:57:09Z</time>
      </trkpt>
      <trkpt lat="47.23998" lon="4.92382">
        <ele>525</ele>
        <time>2022-05-15T09:57:10Z</time>
      </trkpt>
      <trkpt lat="47.23999" lon="4.92384">
        <ele>525</ele>
        <time>2022-05-15T09:57:11Z</time>
      </trkpt>
      <trkpt lat="47.24" lon="4.92386">
        <ele>525</ele>
        <time>2022-05-15T09:57:12Z</time>
      </trkpt>
      <trkpt lat="47.24" lon="4.92387">
        <ele>525</ele>
        <time>2022-05-15T09:57:13Z</time>
      </trkpt>
      <trkpt lat="47.24001" lon="4.9239">
        <ele>525</ele>
        <time>2022-05-15T09:57:14Z</time>
      </trkpt>
      <trkpt lat="47.24001" lon="4.92391">
        <ele>525</ele>
        <time>2022-05-15T09:57:15Z</time>
      </trkpt>
      <trkpt lat="47.24002" lon="4.92393">
        <ele>525</ele>
        <time>2022-05-15T09:57:16Z</time>
      </trkpt>
      <trkpt lat="47.24002" lon="4.92395">
        <ele>525</ele>
        <time>2022-05-15T09:57:17Z</time>
      </trkpt>
      <trkpt lat="47.24003" lon="4.92397">
        <ele>524</ele>
        <time>2022-05-15T09:57:18Z</time>
      </trkpt>
      <trkpt lat="47.24004" lon="4.924">
        <ele>525</ele>
        <time>2022-05-15T09:57:19Z</time>
      </trkpt>
      <trkpt lat="47.24004" lon="4.92402">
        <ele>524</ele>
        <time>2022-05-15T09:57:20Z</time>
      </trkpt>
      <trkpt lat="47.24005" lon="4.92404">
        <ele>524</ele>
        <time>2022-05-15T09:57:21Z</time>
      </trkpt>
      <trkpt lat="47.24006" lon="4.92406">
        <ele>523</ele>
        <time>2022-05-15T09:57:22Z</time>
      </trkpt>
      <trkpt lat="47.24007" lon="4.92408">
        <ele>524</ele>
        <time>2022-05-15T09:57:23Z</time>
      </trkpt>
      <trkpt lat="47.24007" lon="4.9241">
        <ele>523</ele>
        <time>2022-05-15T09:57:24Z</time>
      </trkpt>
      <trkpt lat="47.24008" lon="4.92411">
        <ele>523</ele>
        <time>2022-05-15T09:57:25Z</time>
      </trkpt>
      <trkpt lat="47.24009" lon="4.92413">
        <ele>524</ele>
        <time>2022-05-15T09:57:26Z</time>
      </trkpt>
      <trkpt lat="47.24009" lon="4.92414">
        <ele>523</ele>
        <time>2022-05-15T09:57:27Z</time>
      </trkpt>
      <trkpt lat="47.2401" lon="4.92415">
        <ele>523</ele>
        <time>2022-05-15T09:57:28Z</time>
      </trkpt>
      <trkpt lat="47.24011" lon="4.92417">
        <ele>524</ele>
        <time>2022-05-15T09:57:30Z</time>
      </trkpt>
      <trkpt lat="47.24011" lon="4.92418">
        <ele>524</ele>
        <time>2022-05-15T09:57:31Z</time>
      </trkpt>
      <trkpt lat="47.24011" lon="4.9242">
        <ele>524</ele>
        <time>2022-05-15T09:57:32Z</time>
      </trkpt>
      <trkpt lat="47.24011" lon="4.92423">
        <ele>525</ele>
        <time>2022-05-15T09:57:34Z</time>
      </trkpt>
      <trkpt lat="47.24011" lon="4.92424">
        <ele>525</ele>
        <time>2022-05-15T09:57:35Z</time>
      </trkpt>
      <trkpt lat="47.24012" lon="4.92426">
        <ele>525</ele>
        <time>2022-05-15T09:57:36Z</time>
      </trkpt>
      <trkpt lat="47.24012" lon="4.92429">
        <ele>523</ele>
        <time>2022-05-15T09:57:37Z</time>
      </trkpt>
      <trkpt lat="47.24011" lon="4.9243">
        <ele>523</ele>
        <time>2022-05-15T09:57:38Z</time>
      </trkpt>
      <trkpt lat="47.24011" lon="4.92432">
        <ele>523</ele>
        <time>2022-05-15T09:57:39Z</time>
      </trkpt>
      <trkpt lat="47.2401" lon="4.92433">
        <ele>523</ele>
        <time>2022-05-15T09:57:40Z</time>
      </trkpt>
      <trkpt lat="47.2401" lon="4.92435">
        <ele>523</ele>
        <time>2022-05-15T09:57:41Z</time>
      </trkpt>
      <trkpt lat="47.24009" lon="4.92436">
        <ele>524</ele>
        <time>2022-05-15T09:57:42Z</time>
      </trkpt>
      <trkpt lat="47.24009" lon="4.92438">
        <ele>524</ele>
        <time>2022-05-15T09:57:44Z</time>
      </trkpt>
      <trkpt lat="47.24008" lon="4.92439">
        <ele>524</ele>
        <time>2022-05-15T09:57:45Z</time>
      </trkpt>
      <trkpt lat="47.24007" lon="4.92441">
        <ele>525</ele>
        <time>2022-05-15T09:57:46Z</time>
      </trkpt>
      <trkpt lat="47.24006" lon="4.92442">
        <ele>525</ele>
        <time>2022-05-15T09:57:47Z</time>
      </trkpt>
      <trkpt lat="47.24006" lon="4.92444">
        <ele>524</ele>
        <time>2022-05-15T09:57:48Z</time>
      </trkpt>
      <trkpt lat="47.24006" lon="4.92445">
        <ele>525</ele>
        <time>2022-05-15T09:57:49Z</time>
      </trkpt>
      <trkpt lat="47.24006" lon="4.92447">
        <ele>525</ele>
        <time>2022-05-15T09:57:50Z</time>
      </trkpt>
      <trkpt lat="47.24006" lon="4.92449">
        <ele>525</ele>
        <time>2022-05-15T09:57:51Z</time>
      </trkpt>
      <trkpt lat="47.24006" lon="4.9245">
        <ele>526</ele>
        <time>2022-05-15T09:57:52Z</time>
      </trkpt>
      <trkpt lat="47.24006" lon="4.92452">
        <ele>525</ele>
        <time>2022-05-15T09:57:53Z</time>
      </trkpt>
      <trkpt lat="47.24006" lon="4.92454">
        <ele>525</ele>
        <time>2022-05-15T09:57:54Z</time>
      </trkpt>
      <trkpt lat="47.24006" lon="4.92456">
        <ele>527</ele>
        <time>2022-05-15T09:57:55Z</time>
      </trkpt>
      <trkpt lat="47.24007" lon="4.92459">
        <ele>526</ele>
        <time>2022-05-15T09:57:57Z</time>
      </trkpt>
      <trkpt lat="47.24006" lon="4.9246">
        <ele>526</ele>
        <time>2022-05-15T09:57:58Z</time>
      </trkpt>
      <trkpt lat="47.24006" lon="4.92462">
        <ele>527</ele>
        <time>2022-05-15T09:57:59Z</time>
      </trkpt>
      <trkpt lat="47.24005" lon="4.92463">
        <ele>528</ele>
        <time>2022-05-15T09:58:01Z</time>
      </trkpt>
      <trkpt lat="47.24005" lon="4.92465">
        <ele>528</ele>
        <time>2022-05-15T09:58:02Z</time>
      </trkpt>
      <trkpt lat="47.24005" lon="4.92466">
        <ele>528</ele>
        <time>2022-05-15T09:58:03Z</time>
      </trkpt>
      <trkpt lat="47.24005" lon="4.92467">
        <ele>528</ele>
        <time>2022-05-15T09:58:04Z</time>
      </trkpt>
      <trkpt lat="47.24004" lon="4.92469">
        <ele>527</ele>
        <time>2022-05-15T09:58:05Z</time>
      </trkpt>
      <trkpt lat="47.24004" lon="4.92471">
        <ele>526</ele>
        <time>2022-05-15T09:58:06Z</time>
      </trkpt>
      <trkpt lat="47.24003" lon="4.92472">
        <ele>525</ele>
        <time>2022-05-15T09:58:07Z</time>
      </trkpt>
      <trkpt lat="47.24002" lon="4.92473">
        <ele>526</ele>
        <time>2022-05-15T09:58:08Z</time>
      </trkpt>
      <trkpt lat="47.24" lon="4.92474">
        <ele>524</ele>
        <time>2022-05-15T09:58:10Z</time>
      </trkpt>
      <trkpt lat="47.23998" lon="4.92475">
        <ele>524</ele>
        <time>2022-05-15T09:58:11Z</time>
      </trkpt>
      <trkpt lat="47.23997" lon="4.92476">
        <ele>525</ele>
        <time>2022-05-15T09:58:12Z</time>
      </trkpt>
      <trkpt lat="47.23996" lon="4.92477">
        <ele>526</ele>
        <time>2022-05-15T09:58:13Z</time>
      </trkpt>
      <trkpt lat="47.23995" lon="4.92478">
        <ele>527</ele>
        <time>2022-05-15T09:58:14Z</time>
      </trkpt>
      <trkpt lat="47.23994" lon="4.92479">
        <ele>526</ele>
        <time>2022-05-15T09:58:15Z</time>
      </trkpt>
      <trkpt lat="47.23994" lon="4.9248">
        <ele>527</ele>
        <time>2022-05-15T09:58:16Z</time>
      </trkpt>
      <trkpt lat="47.23993" lon="4.92482">
        <ele>527</ele>
        <time>2022-05-15T09:58:17Z</time>
      </trkpt>
      <trkpt lat="47.23992" lon="4.92483">
        <ele>526</ele>
        <time>2022-05-15T09:58:18Z</time>
      </trkpt>
      <trkpt lat="47.23991" lon="4.92485">
        <ele>525</ele>
        <time>2022-05-15T09:58:19Z</time>
      </trkpt>
      <trkpt lat="47.2399" lon="4.92486">
        <ele>526</ele>
        <time>2022-05-15T09:58:20Z</time>
      </trkpt>
      <trkpt lat="47.23989" lon="4.92486">
        <ele>526</ele>
        <time>2022-05-15T09:58:21Z</time>
      </trkpt>
      <trkpt lat="47.23988" lon="4.92487">
        <ele>526</ele>
        <time>2022-05-15T09:58:22Z</time>
      </trkpt>
      <trkpt lat="47.23987" lon="4.92487">
        <ele>526</ele>
        <time>2022-05-15T09:58:23Z</time>
      </trkpt>
      <trkpt lat="47.23986" lon="4.92488">
        <ele>526</ele>
        <time>2022-05-15T09:58:24Z</time>
      </trkpt>
      <trkpt lat="47.23984" lon="4.92489">
        <ele>525</ele>
        <time>2022-05-15T09:58:25Z</time>
      </trkpt>
      <trkpt lat="47.23983" lon="4.9249">
        <ele>524</ele>
        <time>2022-05-15T09:58:26Z</time>
      </trkpt>
      <trkpt lat="47.23982" lon="4.9249">
        <ele>524</ele>
        <time>2022-05-15T09:58:27Z</time>
      </trkpt>
      <trkpt lat="47.23981" lon="4.92489">
        <ele>525</ele>
        <time>2022-05-15T09:58:28Z</time>
      </trkpt>
      <trkpt lat="47.23979" lon="4.92489">
        <ele>526</ele>
        <time>2022-05-15T09:58:31Z</time>
      </trkpt>
      <trkpt lat="47.23978" lon="4.92489">
        <ele>527</ele>
        <time>2022-05-15T09:58:33Z</time>
      </trkpt>
      <trkpt lat="47.23976" lon="4.92488">
        <ele>529</ele>
        <time>2022-05-15T09:58:35Z</time>
      </trkpt>
      <trkpt lat="47.23974" lon="4.92489">
        <ele>529</ele>
        <time>2022-05-15T09:58:37Z</time>
      </trkpt>
      <trkpt lat="47.23973" lon="4.9249">
        <ele>528</ele>
        <time>2022-05-15T09:58:38Z</time>
      </trkpt>
      <trkpt lat="47.23971" lon="4.92491">
        <ele>527</ele>
        <time>2022-05-15T09:58:39Z</time>
      </trkpt>
      <trkpt lat="47.2397" lon="4.92491">
        <ele>527</ele>
        <time>2022-05-15T09:58:40Z</time>
      </trkpt>
      <trkpt lat="47.23969" lon="4.92492">
        <ele>527</ele>
        <time>2022-05-15T09:58:41Z</time>
      </trkpt>
      <trkpt lat="47.23968" lon="4.92492">
        <ele>528</ele>
        <time>2022-05-15T09:58:42Z</time>
      </trkpt>
      <trkpt lat="47.23967" lon="4.92493">
        <ele>526</ele>
        <time>2022-05-15T09:58:43Z</time>
      </trkpt>
      <trkpt lat="47.23966" lon="4.92494">
        <ele>527</ele>
        <time>2022-05-15T09:58:44Z</time>
      </trkpt>
      <trkpt lat="47.23965" lon="4.92495">
        <ele>523</ele>
        <time>2022-05-15T09:58:45Z</time>
      </trkpt>
      <trkpt lat="47.23963" lon="4.92496">
        <ele>523</ele>
        <time>2022-05-15T09:58:46Z</time>
      </trkpt>
      <trkpt lat="47.23962" lon="4.92498">
        <ele>523</ele>
        <time>2022-05-15T09:58:47Z</time>
      </trkpt>
      <trkpt lat="47.2396" lon="4.92499">
        <ele>525</ele>
        <time>2022-05-15T09:58:48Z</time>
      </trkpt>
      <trkpt lat="47.23959" lon="4.92501">
        <ele>522</ele>
        <time>2022-05-15T09:58:49Z</time>
      </trkpt>
      <trkpt lat="47.23958" lon="4.92502">
        <ele>522</ele>
        <time>2022-05-15T09:58:50Z</time>
      </trkpt>
      <trkpt lat="47.23956" lon="4.92504">
        <ele>520</ele>
        <time>2022-05-15T09:58:51Z</time>
      </trkpt>
      <trkpt lat="47.23955" lon="4.92505">
        <ele>520</ele>
        <time>2022-05-15T09:58:52Z</time>
      </trkpt>
      <trkpt lat="47.23954" lon="4.92505">
        <ele>520</ele>
        <time>2022-05-15T09:58:53Z</time>
      </trkpt>
      <trkpt lat="47.23953" lon="4.92505">
        <ele>522</ele>
        <time>2022-05-15T09:58:54Z</time>
      </trkpt>
      <trkpt lat="47.23952" lon="4.92505">
        <ele>523</ele>
        <time>2022-05-15T09:58:55Z</time>
      </trkpt>
      <trkpt lat="47.2395" lon="4.92506">
        <ele>523</ele>
        <time>2022-05-15T09:58:56Z</time>
      </trkpt>
      <trkpt lat="47.23949" lon="4.92507">
        <ele>523</ele>
        <time>2022-05-15T09:58:57Z</time>
      </trkpt>
      <trkpt lat="47.23948" lon="4.92508">
        <ele>523</ele>
        <time>2022-05-15T09:58:58Z</time>
      </trkpt>
      <trkpt lat="47.23947" lon="4.92509">
        <ele>523</ele>
        <time>2022-05-15T09:58:59Z</time>
      </trkpt>
      <trkpt lat="47.23946" lon="4.92509">
        <ele>523</ele>
        <time>2022-05-15T09:59:00Z</time>
      </trkpt>
      <trkpt lat="47.23945" lon="4.9251">
        <ele>523</ele>
        <time>2022-05-15T09:59:01Z</time>
      </trkpt>
      <trkpt lat="47.23944" lon="4.92511">
        <ele>523</ele>
        <time>2022-05-15T09:59:02Z</time>
      </trkpt>
      <trkpt lat="47.23943" lon="4.92513">
        <ele>524</ele>
        <time>2022-05-15T09:59:03Z</time>
      </trkpt>
      <trkpt lat="47.23942" lon="4.92514">
        <ele>523</ele>
        <time>2022-05-15T09:59:04Z</time>
      </trkpt>
      <trkpt lat="47.23941" lon="4.92514">
        <ele>523</ele>
        <time>2022-05-15T09:59:05Z</time>
      </trkpt>
      <trkpt lat="47.2394" lon="4.92514">
        <ele>523</ele>
        <time>2022-05-15T09:59:06Z</time>
      </trkpt>
      <trkpt lat="47.23939" lon="4.92514">
        <ele>524</ele>
        <time>2022-05-15T09:59:07Z</time>
      </trkpt>
      <trkpt lat="47.23938" lon="4.92514">
        <ele>524</ele>
        <time>2022-05-15T09:59:08Z</time>
      </trkpt>
      <trkpt lat="47.23936" lon="4.92515">
        <ele>524</ele>
        <time>2022-05-15T09:59:09Z</time>
      </trkpt>
      <trkpt lat="47.23934" lon="4.92516">
        <ele>524</ele>
        <time>2022-05-15T09:59:10Z</time>
      </trkpt>
      <trkpt lat="47.23932" lon="4.92516">
        <ele>525</ele>
        <time>2022-05-15T09:59:11Z</time>
      </trkpt>
      <trkpt lat="47.23931" lon="4.92516">
        <ele>526</ele>
        <time>2022-05-15T09:59:12Z</time>
      </trkpt>
      <trkpt lat="47.2393" lon="4.92517">
        <ele>526</ele>
        <time>2022-05-15T09:59:13Z</time>
      </trkpt>
      <trkpt lat="47.23929" lon="4.92518">
        <ele>526</ele>
        <time>2022-05-15T09:59:14Z</time>
      </trkpt>
      <trkpt lat="47.23928" lon="4.92519">
        <ele>525</ele>
        <time>2022-05-15T09:59:15Z</time>
      </trkpt>
      <trkpt lat="47.23927" lon="4.9252">
        <ele>525</ele>
        <time>2022-05-15T09:59:16Z</time>
      </trkpt>
      <trkpt lat="47.23926" lon="4.92522">
        <ele>525</ele>
        <time>2022-05-15T09:59:17Z</time>
      </trkpt>
      <trkpt lat="47.23925" lon="4.92522">
        <ele>525</ele>
        <time>2022-05-15T09:59:18Z</time>
      </trkpt>
      <trkpt lat="47.23924" lon="4.92523">
        <ele>525</ele>
        <time>2022-05-15T09:59:19Z</time>
      </trkpt>
      <trkpt lat="47.23923" lon="4.92524">
        <ele>524</ele>
        <time>2022-05-15T09:59:20Z</time>
      </trkpt>
      <trkpt lat="47.23922" lon="4.92526">
        <ele>524</ele>
        <time>2022-05-15T09:59:21Z</time>
      </trkpt>
      <trkpt lat="47.23921" lon="4.92528">
        <ele>523</ele>
        <time>2022-05-15T09:59:22Z</time>
      </trkpt>
      <trkpt lat="47.23921" lon="4.9253">
        <ele>522</ele>
        <time>2022-05-15T09:59:23Z</time>
      </trkpt>
      <trkpt lat="47.2392" lon="4.92532">
        <ele>520</ele>
        <time>2022-05-15T09:59:24Z</time>
      </trkpt>
      <trkpt lat="47.23919" lon="4.92533">
        <ele>521</ele>
        <time>2022-05-15T09:59:25Z</time>
      </trkpt>
      <trkpt lat="47.23918" lon="4.92534">
        <ele>522</ele>
        <time>2022-05-15T09:59:26Z</time>
      </trkpt>
      <trkpt lat="47.23917" lon="4.92535">
        <ele>522</ele>
        <time>2022-05-15T09:59:27Z</time>
      </trkpt>
      <trkpt lat="47.23916" lon="4.92536">
        <ele>521</ele>
        <time>2022-05-15T09:59:28Z</time>
      </trkpt>
      <trkpt lat="47.23915" lon="4.92537">
        <ele>522</ele>
        <time>2022-05-15T09:59:29Z</time>
      </trkpt>
      <trkpt lat="47.23914" lon="4.92539">
        <ele>523</ele>
        <time>2022-05-15T09:59:31Z</time>
      </trkpt>
      <trkpt lat="47.23913" lon="4.9254">
        <ele>523</ele>
        <time>2022-05-15T09:59:32Z</time>
      </trkpt>
      <trkpt lat="47.23912" lon="4.92541">
        <ele>523</ele>
        <time>2022-05-15T09:59:33Z</time>
      </trkpt>
      <trkpt lat="47.23911" lon="4.92541">
        <ele>522</ele>
        <time>2022-05-15T09:59:34Z</time>
      </trkpt>
      <trkpt lat="47.23909" lon="4.92541">
        <ele>521</ele>
        <time>2022-05-15T09:59:35Z</time>
      </trkpt>
      <trkpt lat="47.23908" lon="4.92541">
        <ele>521</ele>
        <time>2022-05-15T09:59:36Z</time>
      </trkpt>
      <trkpt lat="47.23906" lon="4.92541">
        <ele>522</ele>
        <time>2022-05-15T09:59:37Z</time>
      </trkpt>
      <trkpt lat="47.23905" lon="4.92542">
        <ele>519</ele>
        <time>2022-05-15T09:59:38Z</time>
      </trkpt>
      <trkpt lat="47.23904" lon="4.92542">
        <ele>520</ele>
        <time>2022-05-15T09:59:39Z</time>
      </trkpt>
      <trkpt lat="47.23903" lon="4.92542">
        <ele>521</ele>
        <time>2022-05-15T09:59:40Z</time>
      </trkpt>
      <trkpt lat="47.23902" lon="4.92542">
        <ele>519</ele>
        <time>2022-05-15T09:59:41Z</time>
      </trkpt>
      <trkpt lat="47.23901" lon="4.92543">
        <ele>520</ele>
        <time>2022-05-15T09:59:42Z</time>
      </trkpt>
      <trkpt lat="47.23901" lon="4.92544">
        <ele>521</ele>
        <time>2022-05-15T09:59:43Z</time>
      </trkpt>
      <trkpt lat="47.239" lon="4.92546">
        <ele>519</ele>
        <time>2022-05-15T09:59:44Z</time>
      </trkpt>
      <trkpt lat="47.23899" lon="4.92546">
        <ele>519</ele>
        <time>2022-05-15T09:59:45Z</time>
      </trkpt>
      <trkpt lat="47.23898" lon="4.92547">
        <ele>519</ele>
        <time>2022-05-15T09:59:46Z</time>
      </trkpt>
      <trkpt lat="47.23897" lon="4.92548">
        <ele>519</ele>
        <time>2022-05-15T09:59:47Z</time>
      </trkpt>
      <trkpt lat="47.23896" lon="4.92548">
        <ele>519</ele>
        <time>2022-05-15T09:59:48Z</time>
      </trkpt>
      <trkpt lat="47.23894" lon="4.92548">
        <ele>520</ele>
        <time>2022-05-15T09:59:50Z</time>
      </trkpt>
      <trkpt lat="47.23893" lon="4.92548">
        <ele>521</ele>
        <time>2022-05-15T09:59:51Z</time>
      </trkpt>
      <trkpt lat="47.23892" lon="4.92549">
        <ele>520</ele>
        <time>2022-05-15T09:59:53Z</time>
      </trkpt>
      <trkpt lat="47.23891" lon="4.92551">
        <ele>521</ele>
        <time>2022-05-15T09:59:55Z</time>
      </trkpt>
      <trkpt lat="47.2389" lon="4.92551">
        <ele>521</ele>
        <time>2022-05-15T09:59:56Z</time>
      </trkpt>
      <trkpt lat="47.2389" lon="4.92552">
        <ele>523</ele>
        <time>2022-05-15T09:59:58Z</time>
      </trkpt>
      <trkpt lat="47.23889" lon="4.92554">
        <ele>522</ele>
        <time>2022-05-15T09:59:59Z</time>
      </trkpt>
      <trkpt lat="47.2389" lon="4.92555">
        <ele>521</ele>
        <time>2022-05-15T10:00:00Z</time>
      </trkpt>
      <trkpt lat="47.2389" lon="4.92557">
        <ele>521</ele>
        <time>2022-05-15T10:00:01Z</time>
      </trkpt>
      <trkpt lat="47.23891" lon="4.92558">
        <ele>521</ele>
        <time>2022-05-15T10:00:02Z</time>
      </trkpt>
      <trkpt lat="47.23892" lon="4.92559">
        <ele>521</ele>
        <time>2022-05-15T10:00:04Z</time>
      </trkpt>
      <trkpt lat="47.23893" lon="4.92562">
        <ele>521</ele>
        <time>2022-05-15T10:00:06Z</time>
      </trkpt>
      <trkpt lat="47.23893" lon="4.92565">
        <ele>522</ele>
        <time>2022-05-15T10:00:07Z</time>
      </trkpt>
      <trkpt lat="47.23893" lon="4.92567">
        <ele>523</ele>
        <time>2022-05-15T10:00:08Z</time>
      </trkpt>
      <trkpt lat="47.23893" lon="4.92568">
        <ele>526</ele>
        <time>2022-05-15T10:00:09Z</time>
      </trkpt>
      <trkpt lat="47.23893" lon="4.9257">
        <ele>526</ele>
        <time>2022-05-15T10:00:10Z</time>
      </trkpt>
      <trkpt lat="47.23894" lon="4.92571">
        <ele>528</ele>
        <time>2022-05-15T10:00:11Z</time>
      </trkpt>
      <trkpt lat="47.23894" lon="4.92573">
        <ele>529</ele>
        <time>2022-05-15T10:00:12Z</time>
      </trkpt>
      <trkpt lat="47.23894" lon="4.92574">
        <ele>529</ele>
        <time>2022-05-15T10:00:13Z</time>
      </trkpt>
      <trkpt lat="47.23895" lon="4.92575">
        <ele>528</ele>
        <time>2022-05-15T10:00:15Z</time>
      </trkpt>
      <trkpt lat="47.23895" lon="4.92577">
        <ele>526</ele>
        <time>2022-05-15T10:00:16Z</time>
      </trkpt>
      <trkpt lat="47.23895" lon="4.92578">
        <ele>528</ele>
        <time>2022-05-15T10:00:17Z</time>
      </trkpt>
      <trkpt lat="47.23896" lon="4.9258">
        <ele>528</ele>
        <time>2022-05-15T10:00:18Z</time>
      </trkpt>
      <trkpt lat="47.23897" lon="4.92582">
        <ele>528</ele>
        <time>2022-05-15T10:00:19Z</time>
      </trkpt>
      <trkpt lat="47.23898" lon="4.92584">
        <ele>527</ele>
        <time>2022-05-15T10:00:20Z</time>
      </trkpt>
      <trkpt lat="47.23899" lon="4.92585">
        <ele>526</ele>
        <time>2022-05-15T10:00:21Z</time>
      </trkpt>
      <trkpt lat="47.239" lon="4.92586">
        <ele>526</ele>
        <time>2022-05-15T10:00:22Z</time>
      </trkpt>
      <trkpt lat="47.23901" lon="4.92587">
        <ele>527</ele>
        <time>2022-05-15T10:00:23Z</time>
      </trkpt>
      <trkpt lat="47.23901" lon="4.92588">
        <ele>526</ele>
        <time>2022-05-15T10:00:24Z</time>
      </trkpt>
      <trkpt lat="47.23902" lon="4.92589">
        <ele>526</ele>
        <time>2022-05-15T10:00:25Z</time>
      </trkpt>
      <trkpt lat="47.23903" lon="4.92591">
        <ele>527</ele>
        <time>2022-05-15T10:00:27Z</time>
      </trkpt>
      <trkpt lat="47.23904" lon="4.92594">
        <ele>512</ele>
        <time>2022-05-15T10:00:29Z</time>
      </trkpt>
      <trkpt lat="47.23905" lon="4.92596">
        <ele>515</ele>
        <time>2022-05-15T10:00:30Z</time>
      </trkpt>
      <trkpt lat="47.23905" lon="4.92598">
        <ele>519</ele>
        <time>2022-05-15T10:00:31Z</time>
      </trkpt>
      <trkpt lat="47.23906" lon="4.92599">
        <ele>521</ele>
        <time>2022-05-15T10:00:32Z</time>
      </trkpt>
      <trkpt lat="47.23907" lon="4.92601">
        <ele>527</ele>
        <time>2022-05-15T10:00:37Z</time>
      </trkpt>
      <trkpt lat="47.23907" lon="4.92603">
        <ele>527</ele>
        <time>2022-05-15T10:00:38Z</time>
      </trkpt>
      <trkpt lat="47.23908" lon="4.92605">
        <ele>526</ele>
        <time>2022-05-15T10:00:39Z</time>
      </trkpt>
      <trkpt lat="47.23908" lon="4.92606">
        <ele>527</ele>
        <time>2022-05-15T10:00:40Z</time>
      </trkpt>
      <trkpt lat="47.23909" lon="4.92607">
        <ele>528</ele>
        <time>2022-05-15T10:00:41Z</time>
      </trkpt>
      <trkpt lat="47.2391" lon="4.92608">
        <ele>529</ele>
        <time>2022-05-15T10:00:42Z</time>
      </trkpt>
      <trkpt lat="47.23912" lon="4.9261">
        <ele>529</ele>
        <time>2022-05-15T10:00:43Z</time>
      </trkpt>
      <trkpt lat="47.23913" lon="4.92612">
        <ele>529</ele>
        <time>2022-05-15T10:00:44Z</time>
      </trkpt>
      <trkpt lat="47.23914" lon="4.92613">
        <ele>529</ele>
        <time>2022-05-15T10:00:45Z</time>
      </trkpt>
      <trkpt lat="47.23915" lon="4.92614">
        <ele>528</ele>
        <time>2022-05-15T10:00:46Z</time>
      </trkpt>
      <trkpt lat="47.23916" lon="4.92615">
        <ele>530</ele>
        <time>2022-05-15T10:00:48Z</time>
      </trkpt>
      <trkpt lat="47.23917" lon="4.92617">
        <ele>531</ele>
        <time>2022-05-15T10:00:49Z</time>
      </trkpt>
      <trkpt lat="47.23918" lon="4.92618">
        <ele>532</ele>
        <time>2022-05-15T10:00:50Z</time>
      </trkpt>
      <trkpt lat="47.23919" lon="4.92619">
        <ele>532</ele>
        <time>2022-05-15T10:00:51Z</time>
      </trkpt>
      <trkpt lat="47.23919" lon="4.9262">
        <ele>532</ele>
        <time>2022-05-15T10:00:52Z</time>
      </trkpt>
      <trkpt lat="47.2392" lon="4.92622">
        <ele>533</ele>
        <time>2022-05-15T10:00:54Z</time>
      </trkpt>
      <trkpt lat="47.2392" lon="4.92624">
        <ele>533</ele>
        <time>2022-05-15T10:00:55Z</time>
      </trkpt>
      <trkpt lat="47.2392" lon="4.92625">
        <ele>533</ele>
        <time>2022-05-15T10:00:56Z</time>
      </trkpt>
      <trkpt lat="47.23921" lon="4.92628">
        <ele>532</ele>
        <time>2022-05-15T10:00:58Z</time>
      </trkpt>
      <trkpt lat="47.23922" lon="4.9263">
        <ele>531</ele>
        <time>2022-05-15T10:00:59Z</time>
      </trkpt>
      <trkpt lat="47.23923" lon="4.92631">
        <ele>532</ele>
        <time>2022-05-15T10:01:00Z</time>
      </trkpt>
      <trkpt lat="47.23924" lon="4.92632">
        <ele>532</ele>
        <time>2022-05-15T10:01:01Z</time>
      </trkpt>
      <trkpt lat="47.23924" lon="4.92632">
        <ele>532</ele>
        <time>2022-05-15T10:01:02Z</time>
      </trkpt>
      <trkpt lat="47.23924" lon="4.92636">
        <ele>531</ele>
        <time>2022-05-15T10:01:05Z</time>
      </trkpt>
      <trkpt lat="47.23923" lon="4.92638">
        <ele>530</ele>
        <time>2022-05-15T10:01:06Z</time>
      </trkpt>
      <trkpt lat="47.23922" lon="4.92639">
        <ele>530</ele>
        <time>2022-05-15T10:01:08Z</time>
      </trkpt>
      <trkpt lat="47.23923" lon="4.92641">
        <ele>530</ele>
        <time>2022-05-15T10:01:09Z</time>
      </trkpt>
      <trkpt lat="47.23923" lon="4.92643">
        <ele>529</ele>
        <time>2022-05-15T10:01:10Z</time>
      </trkpt>
      <trkpt lat="47.23923" lon="4.92645">
        <ele>528</ele>
        <time>2022-05-15T10:01:11Z</time>
      </trkpt>
      <trkpt lat="47.23923" lon="4.92647">
        <ele>528</ele>
        <time>2022-05-15T10:01:12Z</time>
      </trkpt>
      <trkpt lat="47.23923" lon="4.92649">
        <ele>532</ele>
        <time>2022-05-15T10:01:14Z</time>
      </trkpt>
      <trkpt lat="47.23923" lon="4.92651">
        <ele>532</ele>
        <time>2022-05-15T10:01:15Z</time>
      </trkpt>
      <trkpt lat="47.23923" lon="4.92653">
        <ele>532</ele>
        <time>2022-05-15T10:01:16Z</time>
      </trkpt>
      <trkpt lat="47.23923" lon="4.92654">
        <ele>532</ele>
        <time>2022-05-15T10:01:17Z</time>
      </trkpt>
      <trkpt lat="47.23922" lon="4.92656">
        <ele>531</ele>
        <time>2022-05-15T10:01:19Z</time>
      </trkpt>
      <trkpt lat="47.23921" lon="4.92657">
        <ele>533</ele>
        <time>2022-05-15T10:01:20Z</time>
      </trkpt>
      <trkpt lat="47.2392" lon="4.92659">
        <ele>534</ele>
        <time>2022-05-15T10:01:21Z</time>
      </trkpt>
      <trkpt lat="47.2392" lon="4.92661">
        <ele>536</ele>
        <time>2022-05-15T10:01:23Z</time>
      </trkpt>
      <trkpt lat="47.23921" lon="4.92663">
        <ele>534</ele>
        <time>2022-05-15T10:01:24Z</time>
      </trkpt>
      <trkpt lat="47.23921" lon="4.92665">
        <ele>536</ele>
        <time>2022-05-15T10:01:25Z</time>
      </trkpt>
      <trkpt lat="47.23921" lon="4.92668">
        <ele>535</ele>
        <time>2022-05-15T10:01:26Z</time>
      </trkpt>
      <trkpt lat="47.23922" lon="4.92671">
        <ele>533</ele>
        <time>2022-05-15T10:01:27Z</time>
      </trkpt>
      <trkpt lat="47.23923" lon="4.92673">
        <ele>531</ele>
        <time>2022-05-15T10:01:28Z</time>
      </trkpt>
      <trkpt lat="47.23924" lon="4.92675">
        <ele>530</ele>
        <time>2022-05-15T10:01:29Z</time>
      </trkpt>
      <trkpt lat="47.23924" lon="4.92676">
        <ele>529</ele>
        <time>2022-05-15T10:01:30Z</time>
      </trkpt>
      <trkpt lat="47.23925" lon="4.92678">
        <ele>529</ele>
        <time>2022-05-15T10:01:31Z</time>
      </trkpt>
      <trkpt lat="47.23925" lon="4.9268">
        <ele>529</ele>
        <time>2022-05-15T10:01:32Z</time>
      </trkpt>
      <trkpt lat="47.23926" lon="4.92682">
        <ele>529</ele>
        <time>2022-05-15T10:01:33Z</time>
      </trkpt>
      <trkpt lat="47.23925" lon="4.92683">
        <ele>530</ele>
        <time>2022-05-15T10:01:34Z</time>
      </trkpt>
      <trkpt lat="47.23925" lon="4.92685">
        <ele>530</ele>
        <time>2022-05-15T10:01:35Z</time>
      </trkpt>
      <trkpt lat="47.23924" lon="4.92688">
        <ele>529</ele>
        <time>2022-05-15T10:01:36Z</time>
      </trkpt>
      <trkpt lat="47.23924" lon="4.9269">
        <ele>530</ele>
        <time>2022-05-15T10:01:37Z</time>
      </trkpt>
      <trkpt lat="47.23924" lon="4.92693">
        <ele>529</ele>
        <time>2022-05-15T10:01:38Z</time>
      </trkpt>
      <trkpt lat="47.23924" lon="4.92695">
        <ele>527</ele>
        <time>2022-05-15T10:01:39Z</time>
      </trkpt>
      <trkpt lat="47.23924" lon="4.92697">
        <ele>527</ele>
        <time>2022-05-15T10:01:40Z</time>
      </trkpt>
      <trkpt lat="47.23923" lon="4.92699">
        <ele>529</ele>
        <time>2022-05-15T10:01:41Z</time>
      </trkpt>
      <trkpt lat="47.23923" lon="4.927">
        <ele>530</ele>
        <time>2022-05-15T10:01:42Z</time>
      </trkpt>
      <trkpt lat="47.23922" lon="4.92702">
        <ele>529</ele>
        <time>2022-05-15T10:01:43Z</time>
      </trkpt>
      <trkpt lat="47.23922" lon="4.92704">
        <ele>530</ele>
        <time>2022-05-15T10:01:44Z</time>
      </trkpt>
      <trkpt lat="47.23922" lon="4.92706">
        <ele>530</ele>
        <time>2022-05-15T10:01:46Z</time>
      </trkpt>
      <trkpt lat="47.23922" lon="4.92708">
        <ele>530</ele>
        <time>2022-05-15T10:01:47Z</time>
      </trkpt>
      <trkpt lat="47.23922" lon="4.92711">
        <ele>531</ele>
        <time>2022-05-15T10:01:48Z</time>
      </trkpt>
      <trkpt lat="47.23923" lon="4.92712">
        <ele>531</ele>
        <time>2022-05-15T10:01:49Z</time>
      </trkpt>
      <trkpt lat="47.23923" lon="4.92713">
        <ele>531</ele>
        <time>2022-05-15T10:01:50Z</time>
      </trkpt>
      <trkpt lat="47.23924" lon="4.92714">
        <ele>531</ele>
        <time>2022-05-15T10:01:51Z</time>
      </trkpt>
      <trkpt lat="47.23924" lon="4.92716">
        <ele>531</ele>
        <time>2022-05-15T10:01:52Z</time>
      </trkpt>
      <trkpt lat="47.23924" lon="4.92718">
        <ele>531</ele>
        <time>2022-05-15T10:01:53Z</time>
      </trkpt>
      <trkpt lat="47.23925" lon="4.9272">
        <ele>531</ele>
        <time>2022-05-15T10:01:54Z</time>
      </trkpt>
      <trkpt lat="47.23924" lon="4.92721">
        <ele>532</ele>
        <time>2022-05-15T10:01:55Z</time>
      </trkpt>
      <trkpt lat="47.23923" lon="4.92724">
        <ele>533</ele>
        <time>2022-05-15T10:01:57Z</time>
      </trkpt>
      <trkpt lat="47.23923" lon="4.92725">
        <ele>533</ele>
        <time>2022-05-15T10:01:58Z</time>
      </trkpt>
      <trkpt lat="47.23922" lon="4.92728">
        <ele>533</ele>
        <time>2022-05-15T10:02:00Z</time>
      </trkpt>
      <trkpt lat="47.23921" lon="4.92729">
        <ele>532</ele>
        <time>2022-05-15T10:02:01Z</time>
      </trkpt>
      <trkpt lat="47.23921" lon="4.92731">
        <ele>532</ele>
        <time>2022-05-15T10:02:02Z</time>
      </trkpt>
      <trkpt lat="47.23921" lon="4.92732">
        <ele>534</ele>
        <time>2022-05-15T10:02:03Z</time>
      </trkpt>
      <trkpt lat="47.23921" lon="4.92734">
        <ele>533</ele>
        <time>2022-05-15T10:02:04Z</time>
      </trkpt>
      <trkpt lat="47.23921" lon="4.92735">
        <ele>532</ele>
        <time>2022-05-15T10:02:05Z</time>
      </trkpt>
      <trkpt lat="47.23921" lon="4.92737">
        <ele>533</ele>
        <time>2022-05-15T10:02:06Z</time>
      </trkpt>
      <trkpt lat="47.23921" lon="4.92738">
        <ele>532</ele>
        <time>2022-05-15T10:02:07Z</time>
      </trkpt>
      <trkpt lat="47.23921" lon="4.9274">
        <ele>532</ele>
        <time>2022-05-15T10:02:08Z</time>
      </trkpt>
      <trkpt lat="47.23921" lon="4.92741">
        <ele>532</ele>
        <time>2022-05-15T10:02:09Z</time>
      </trkpt>
      <trkpt lat="47.23921" lon="4.92743">
        <ele>532</ele>
        <time>2022-05-15T10:02:10Z</time>
      </trkpt>
      <trkpt lat="47.23921" lon="4.92744">
        <ele>532</ele>
        <time>2022-05-15T10:02:11Z</time>
      </trkpt>
      <trkpt lat="47.2392" lon="4.92746">
        <ele>532</ele>
        <time>2022-05-15T10:02:12Z</time>
      </trkpt>
      <trkpt lat="47.2392" lon="4.92748">
        <ele>531</ele>
        <time>2022-05-15T10:02:13Z</time>
      </trkpt>
      <trkpt lat="47.23919" lon="4.9275">
        <ele>527</ele>
        <time>2022-05-15T10:02:15Z</time>
      </trkpt>
      <trkpt lat="47.23918" lon="4.92751">
        <ele>527</ele>
        <time>2022-05-15T10:02:16Z</time>
      </trkpt>
      <trkpt lat="47.23918" lon="4.92753">
        <ele>526</ele>
        <time>2022-05-15T10:02:17Z</time>
      </trkpt>
      <trkpt lat="47.23918" lon="4.92755">
        <ele>527</ele>
        <time>2022-05-15T10:02:19Z</time>
      </trkpt>
      <trkpt lat="47.23917" lon="4.92756">
        <ele>527</ele>
        <time>2022-05-15T10:02:20Z</time>
      </trkpt>
      <trkpt lat="47.23917" lon="4.92758">
        <ele>526</ele>
        <time>2022-05-15T10:02:22Z</time>
      </trkpt>
      <trkpt lat="47.23917" lon="4.9276">
        <ele>527</ele>
        <time>2022-05-15T10:02:23Z</time>
      </trkpt>
      <trkpt lat="47.23918" lon="4.92761">
        <ele>529</ele>
        <time>2022-05-15T10:02:24Z</time>
      </trkpt>
      <trkpt lat="47.23919" lon="4.92763">
        <ele>530</ele>
        <time>2022-05-15T10:02:25Z</time>
      </trkpt>
      <trkpt lat="47.23919" lon="4.92764">
        <ele>529</ele>
        <time>2022-05-15T10:02:26Z</time>
      </trkpt>
      <trkpt lat="47.23919" lon="4.92765">
        <ele>529</ele>
        <time>2022-05-15T10:02:27Z</time>
      </trkpt>
      <trkpt lat="47.2392" lon="4.92767">
        <ele>529</ele>
        <time>2022-05-15T10:02:28Z</time>
      </trkpt>
      <trkpt lat="47.2392" lon="4.92769">
        <ele>513</ele>
        <time>2022-05-15T10:02:29Z</time>
      </trkpt>
      <trkpt lat="47.23919" lon="4.9277">
        <ele>518</ele>
        <time>2022-05-15T10:02:30Z</time>
      </trkpt>
      <trkpt lat="47.23918" lon="4.92771">
        <ele>520</ele>
        <time>2022-05-15T10:02:31Z</time>
      </trkpt>
      <trkpt lat="47.23917" lon="4.92772">
        <ele>522</ele>
        <time>2022-05-15T10:02:33Z</time>
      </trkpt>
      <trkpt lat="47.23917" lon="4.92774">
        <ele>524</ele>
        <time>2022-05-15T10:02:34Z</time>
      </trkpt>
      <trkpt lat="47.23918" lon="4.9278">
        <ele>524</ele>
        <time>2022-05-15T10:02:36Z</time>
      </trkpt>
      <trkpt lat="47.23919" lon="4.92783">
        <ele>524</ele>
        <time>2022-05-15T10:02:37Z</time>
      </trkpt>
      <trkpt lat="47.23919" lon="4.92785">
        <ele>524</ele>
        <time>2022-05-15T10:02:38Z</time>
      </trkpt>
      <trkpt lat="47.2392" lon="4.92787">
        <ele>523</ele>
        <time>2022-05-15T10:02:39Z</time>
      </trkpt>
      <trkpt lat="47.23921" lon="4.92789">
        <ele>527</ele>
        <time>2022-05-15T10:02:40Z</time>
      </trkpt>
      <trkpt lat="47.23921" lon="4.9279">
        <ele>528</ele>
        <time>2022-05-15T10:02:41Z</time>
      </trkpt>
      <trkpt lat="47.23921" lon="4.92792">
        <ele>527</ele>
        <time>2022-05-15T10:02:42Z</time>
      </trkpt>
      <trkpt lat="47.2392" lon="4.92794">
        <ele>525</ele>
        <time>2022-05-15T10:02:43Z</time>
      </trkpt>
      <trkpt lat="47.2392" lon="4.92796">
        <ele>525</ele>
        <time>2022-05-15T10:02:44Z</time>
      </trkpt>
      <trkpt lat="47.2392" lon="4.92798">
        <ele>522</ele>
        <time>2022-05-15T10:02:45Z</time>
      </trkpt>
      <trkpt lat="47.2392" lon="4.928">
        <ele>522</ele>
        <time>2022-05-15T10:02:46Z</time>
      </trkpt>
      <trkpt lat="47.2392" lon="4.92802">
        <ele>523</ele>
        <time>2022-05-15T10:02:47Z</time>
      </trkpt>
      <trkpt lat="47.2392" lon="4.92803">
        <ele>524</ele>
        <time>2022-05-15T10:02:49Z</time>
      </trkpt>
      <trkpt lat="47.2392" lon="4.92806">
        <ele>521</ele>
        <time>2022-05-15T10:02:50Z</time>
      </trkpt>
      <trkpt lat="47.23921" lon="4.92808">
        <ele>521</ele>
        <time>2022-05-15T10:02:51Z</time>
      </trkpt>
      <trkpt lat="47.23921" lon="4.9281">
        <ele>521</ele>
        <time>2022-05-15T10:02:52Z</time>
      </trkpt>
      <trkpt lat="47.23922" lon="4.92811">
        <ele>518</ele>
        <time>2022-05-15T10:02:53Z</time>
      </trkpt>
      <trkpt lat="47.23923" lon="4.92814">
        <ele>518</ele>
        <time>2022-05-15T10:02:54Z</time>
      </trkpt>
      <trkpt lat="47.23924" lon="4.92816">
        <ele>518</ele>
        <time>2022-05-15T10:02:55Z</time>
      </trkpt>
      <trkpt lat="47.23924" lon="4.9282">
        <ele>519</ele>
        <time>2022-05-15T10:02:56Z</time>
      </trkpt>
      <trkpt lat="47.23923" lon="4.92822">
        <ele>522</ele>
        <time>2022-05-15T10:02:57Z</time>
      </trkpt>
      <trkpt lat="47.23923" lon="4.92824">
        <ele>521</ele>
        <time>2022-05-15T10:02:58Z</time>
      </trkpt>
      <trkpt lat="47.23923" lon="4.92826">
        <ele>521</ele>
        <time>2022-05-15T10:02:59Z</time>
      </trkpt>
      <trkpt lat="47.23922" lon="4.92829">
        <ele>520</ele>
        <time>2022-05-15T10:03:01Z</time>
      </trkpt>
      <trkpt lat="47.23921" lon="4.92831">
        <ele>524</ele>
        <time>2022-05-15T10:03:03Z</time>
      </trkpt>
      <trkpt lat="47.23921" lon="4.92833">
        <ele>524</ele>
        <time>2022-05-15T10:03:04Z</time>
      </trkpt>
      <trkpt lat="47.23921" lon="4.92835">
        <ele>524</ele>
        <time>2022-05-15T10:03:05Z</time>
      </trkpt>
      <trkpt lat="47.23921" lon="4.92837">
        <ele>524</ele>
        <time>2022-05-15T10:03:06Z</time>
      </trkpt>
      <trkpt lat="47.23921" lon="4.92839">
        <ele>511</ele>
        <time>2022-05-15T10:03:07Z</time>
      </trkpt>
      <trkpt lat="47.23921" lon="4.9284">
        <ele>517</ele>
        <time>2022-05-15T10:03:09Z</time>
      </trkpt>
      <trkpt lat="47.23921" lon="4.92842">
        <ele>519</ele>
        <time>2022-05-15T10:03:11Z</time>
      </trkpt>
      <trkpt lat="47.23921" lon="4.92844">
        <ele>520</ele>
        <time>2022-05-15T10:03:13Z</time>
      </trkpt>
      <trkpt lat="47.2392" lon="4.92846">
        <ele>521</ele>
        <time>2022-05-15T10:03:15Z</time>
      </trkpt>
      <trkpt lat="47.2392" lon="4.92848">
        <ele>521</ele>
        <time>2022-05-15T10:03:16Z</time>
      </trkpt>
      <trkpt lat="47.23919" lon="4.92849">
        <ele>522</ele>
        <time>2022-05-15T10:03:18Z</time>
      </trkpt>
      <trkpt lat="47.23918" lon="4.9285">
        <ele>522</ele>
        <time>2022-05-15T10:03:20Z</time>
      </trkpt>
      <trkpt lat="47.23917" lon="4.92852">
        <ele>522</ele>
        <time>2022-05-15T10:03:22Z</time>
      </trkpt>
      <trkpt lat="47.23917" lon="4.92854">
        <ele>524</ele>
        <time>2022-05-15T10:03:26Z</time>
      </trkpt>
      <trkpt lat="47.23917" lon="4.92855">
        <ele>524</ele>
        <time>2022-05-15T10:03:27Z</time>
      </trkpt>
      <trkpt lat="47.23918" lon="4.92857">
        <ele>524</ele>
        <time>2022-05-15T10:03:28Z</time>
      </trkpt>
      <trkpt lat="47.23918" lon="4.92859">
        <ele>526</ele>
        <time>2022-05-15T10:03:29Z</time>
      </trkpt>
      <trkpt lat="47.23918" lon="4.9286">
        <ele>526</ele>
        <time>2022-05-15T10:03:30Z</time>
      </trkpt>
      <trkpt lat="47.23917" lon="4.92862">
        <ele>524</ele>
        <time>2022-05-15T10:03:31Z</time>
      </trkpt>
      <trkpt lat="47.23916" lon="4.92865">
        <ele>525</ele>
        <time>2022-05-15T10:03:32Z</time>
      </trkpt>
      <trkpt lat="47.23916" lon="4.92866">
        <ele>525</ele>
        <time>2022-05-15T10:03:33Z</time>
      </trkpt>
      <trkpt lat="47.23915" lon="4.92868">
        <ele>525</ele>
        <time>2022-05-15T10:03:34Z</time>
      </trkpt>
      <trkpt lat="47.23915" lon="4.9287">
        <ele>525</ele>
        <time>2022-05-15T10:03:35Z</time>
      </trkpt>
      <trkpt lat="47.23914" lon="4.92875">
        <ele>526</ele>
        <time>2022-05-15T10:03:37Z</time>
      </trkpt>
      <trkpt lat="47.23914" lon="4.92877">
        <ele>524</ele>
        <time>2022-05-15T10:03:38Z</time>
      </trkpt>
      <trkpt lat="47.23913" lon="4.92879">
        <ele>523</ele>
        <time>2022-05-15T10:03:39Z</time>
      </trkpt>
      <trkpt lat="47.23913" lon="4.92881">
        <ele>521</ele>
        <time>2022-05-15T10:03:41Z</time>
      </trkpt>
      <trkpt lat="47.23912" lon="4.92882">
        <ele>522</ele>
        <time>2022-05-15T10:03:42Z</time>
      </trkpt>
      <trkpt lat="47.23912" lon="4.92883">
        <ele>521</ele>
        <time>2022-05-15T10:03:43Z</time>
      </trkpt>
      <trkpt lat="47.23912" lon="4.92885">
        <ele>521</ele>
        <time>2022-05-15T10:03:45Z</time>
      </trkpt>
      <trkpt lat="47.23913" lon="4.92887">
        <ele>521</ele>
        <time>2022-05-15T10:03:46Z</time>
      </trkpt>
      <trkpt lat="47.23913" lon="4.92889">
        <ele>521</ele>
        <time>2022-05-15T10:03:47Z</time>
      </trkpt>
      <trkpt lat="47.23913" lon="4.92892">
        <ele>521</ele>
        <time>2022-05-15T10:03:48Z</time>
      </trkpt>
      <trkpt lat="47.23913" lon="4.92894">
        <ele>521</ele>
        <time>2022-05-15T10:03:49Z</time>
      </trkpt>
      <trkpt lat="47.23914" lon="4.92897">
        <ele>522</ele>
        <time>2022-05-15T10:03:51Z</time>
      </trkpt>
      <trkpt lat="47.23914" lon="4.92899">
        <ele>522</ele>
        <time>2022-05-15T10:03:52Z</time>
      </trkpt>
      <trkpt lat="47.23914" lon="4.92901">
        <ele>522</ele>
        <time>2022-05-15T10:03:53Z</time>
      </trkpt>
      <trkpt lat="47.23914" lon="4.92903">
        <ele>522</ele>
        <time>2022-05-15T10:03:54Z</time>
      </trkpt>
      <trkpt lat="47.23914" lon="4.92905">
        <ele>522</ele>
        <time>2022-05-15T10:03:55Z</time>
      </trkpt>
      <trkpt lat="47.23914" lon="4.92906">
        <ele>522</ele>
        <time>2022-05-15T10:03:56Z</time>
      </trkpt>
      <trkpt lat="47.23914" lon="4.92908">
        <ele>523</ele>
        <time>2022-05-15T10:03:57Z</time>
      </trkpt>
      <trkpt lat="47.23915" lon="4.9291">
        <ele>523</ele>
        <time>2022-05-15T10:03:58Z</time>
      </trkpt>
      <trkpt lat="47.23915" lon="4.92912">
        <ele>523</ele>
        <time>2022-05-15T10:04:00Z</time>
      </trkpt>
      <trkpt lat="47.23914" lon="4.92913">
        <ele>523</ele>
        <time>2022-05-15T10:04:01Z</time>
      </trkpt>
      <trkpt lat="47.23914" lon="4.92915">
        <ele>522</ele>
        <time>2022-05-15T10:04:03Z</time>
      </trkpt>
      <trkpt lat="47.23914" lon="4.92917">
        <ele>522</ele>
        <time>2022-05-15T10:04:04Z</time>
      </trkpt>
      <trkpt lat="47.23915" lon="4.9292">
        <ele>526</ele>
        <time>2022-05-15T10:04:05Z</time>
      </trkpt>
      <trkpt lat="47.23914" lon="4.92922">
        <ele>527</ele>
        <time>2022-05-15T10:04:06Z</time>
      </trkpt>
      <trkpt lat="47.23914" lon="4.92923">
        <ele>528</ele>
        <time>2022-05-15T10:04:07Z</time>
      </trkpt>
      <trkpt lat="47.23914" lon="4.92925">
        <ele>527</ele>
        <time>2022-05-15T10:04:08Z</time>
      </trkpt>
      <trkpt lat="47.23914" lon="4.92927">
        <ele>528</ele>
        <time>2022-05-15T10:04:10Z</time>
      </trkpt>
      <trkpt lat="47.23914" lon="4.92929">
        <ele>527</ele>
        <time>2022-05-15T10:04:11Z</time>
      </trkpt>
      <trkpt lat="47.23914" lon="4.92931">
        <ele>527</ele>
        <time>2022-05-15T10:04:12Z</time>
      </trkpt>
      <trkpt lat="47.23914" lon="4.92932">
        <ele>527</ele>
        <time>2022-05-15T10:04:13Z</time>
      </trkpt>
      <trkpt lat="47.23914" lon="4.92934">
        <ele>527</ele>
        <time>2022-05-15T10:04:15Z</time>
      </trkpt>
      <trkpt lat="47.23914" lon="4.92936">
        <ele>525</ele>
        <time>2022-05-15T10:04:21Z</time>
      </trkpt>
      <trkpt lat="47.23914" lon="4.92938">
        <ele>524</ele>
        <time>2022-05-15T10:04:22Z</time>
      </trkpt>
      <trkpt lat="47.23915" lon="4.92939">
        <ele>524</ele>
        <time>2022-05-15T10:04:23Z</time>
      </trkpt>
      <trkpt lat="47.23915" lon="4.92942">
        <ele>521</ele>
        <time>2022-05-15T10:04:25Z</time>
      </trkpt>
      <trkpt lat="47.23915" lon="4.92944">
        <ele>521</ele>
        <time>2022-05-15T10:04:26Z</time>
      </trkpt>
      <trkpt lat="47.23916" lon="4.92946">
        <ele>520</ele>
        <time>2022-05-15T10:04:27Z</time>
      </trkpt>
      <trkpt lat="47.23916" lon="4.92947">
        <ele>521</ele>
        <time>2022-05-15T10:04:28Z</time>
      </trkpt>
      <trkpt lat="47.23917" lon="4.92949">
        <ele>520</ele>
        <time>2022-05-15T10:04:29Z</time>
      </trkpt>
      <trkpt lat="47.23918" lon="4.92952">
        <ele>520</ele>
        <time>2022-05-15T10:04:30Z</time>
      </trkpt>
      <trkpt lat="47.23918" lon="4.92954">
        <ele>519</ele>
        <time>2022-05-15T10:04:31Z</time>
      </trkpt>
      <trkpt lat="47.23918" lon="4.92956">
        <ele>519</ele>
        <time>2022-05-15T10:04:32Z</time>
      </trkpt>
      <trkpt lat="47.23918" lon="4.92958">
        <ele>517</ele>
        <time>2022-05-15T10:04:33Z</time>
      </trkpt>
      <trkpt lat="47.23918" lon="4.9296">
        <ele>516</ele>
        <time>2022-05-15T10:04:34Z</time>
      </trkpt>
      <trkpt lat="47.23918" lon="4.92961">
        <ele>516</ele>
        <time>2022-05-15T10:04:35Z</time>
      </trkpt>
      <trkpt lat="47.23918" lon="4.92963">
        <ele>516</ele>
        <time>2022-05-15T10:04:36Z</time>
      </trkpt>
      <trkpt lat="47.23919" lon="4.92966">
        <ele>515</ele>
        <time>2022-05-15T10:04:38Z</time>
      </trkpt>
      <trkpt lat="47.23919" lon="4.92968">
        <ele>517</ele>
        <time>2022-05-15T10:04:39Z</time>
      </trkpt>
      <trkpt lat="47.23919" lon="4.9297">
        <ele>516</ele>
        <time>2022-05-15T10:04:41Z</time>
      </trkpt>
      <trkpt lat="47.2392" lon="4.92972">
        <ele>516</ele>
        <time>2022-05-15T10:04:42Z</time>
      </trkpt>
      <trkpt lat="47.23919" lon="4.92974">
        <ele>516</ele>
        <time>2022-05-15T10:04:44Z</time>
      </trkpt>
      <trkpt lat="47.23918" lon="4.92975">
        <ele>515</ele>
        <time>2022-05-15T10:04:45Z</time>
      </trkpt>
      <trkpt lat="47.23918" lon="4.92977">
        <ele>515</ele>
        <time>2022-05-15T10:04:46Z</time>
      </trkpt>
      <trkpt lat="47.23918" lon="4.92978">
        <ele>513</ele>
        <time>2022-05-15T10:04:47Z</time>
      </trkpt>
      <trkpt lat="47.23917" lon="4.92979">
        <ele>513</ele>
        <time>2022-05-15T10:04:48Z</time>
      </trkpt>
      <trkpt lat="47.23917" lon="4.92982">
        <ele>514</ele>
        <time>2022-05-15T10:04:49Z</time>
      </trkpt>
      <trkpt lat="47.23916" lon="4.92983">
        <ele>515</ele>
        <time>2022-05-15T10:04:50Z</time>
      </trkpt>
      <trkpt lat="47.23915" lon="4.92985">
        <ele>515</ele>
        <time>2022-05-15T10:04:51Z</time>
      </trkpt>
      <trkpt lat="47.23914" lon="4.92986">
        <ele>515</ele>
        <time>2022-05-15T10:04:52Z</time>
      </trkpt>
      <trkpt lat="47.23914" lon="4.92989">
        <ele>515</ele>
        <time>2022-05-15T10:04:54Z</time>
      </trkpt>
      <trkpt lat="47.23914" lon="4.92991">
        <ele>515</ele>
        <time>2022-05-15T10:04:55Z</time>
      </trkpt>
      <trkpt lat="47.23914" lon="4.92993">
        <ele>514</ele>
        <time>2022-05-15T10:04:56Z</time>
      </trkpt>
      <trkpt lat="47.23914" lon="4.92994">
        <ele>515</ele>
        <time>2022-05-15T10:04:57Z</time>
      </trkpt>
      <trkpt lat="47.23914" lon="4.92996">
        <ele>515</ele>
        <time>2022-05-15T10:04:58Z</time>
      </trkpt>
      <trkpt lat="47.23913" lon="4.92998">
        <ele>515</ele>
        <time>2022-05-15T10:04:59Z</time>
      </trkpt>
      <trkpt lat="47.23912" lon="4.92998">
        <ele>515</ele>
        <time>2022-05-15T10:05:00Z</time>
      </trkpt>
      <trkpt lat="47.23911" lon="4.92998">
        <ele>515</ele>
        <time>2022-05-15T10:05:01Z</time>
      </trkpt>
      <trkpt lat="47.2391" lon="4.92999">
        <ele>516</ele>
        <time>2022-05-15T10:05:03Z</time>
      </trkpt>
      <trkpt lat="47.2391" lon="4.93002">
        <ele>515</ele>
        <time>2022-05-15T10:05:04Z</time>
      </trkpt>
      <trkpt lat="47.23911" lon="4.93003">
        <ele>514</ele>
        <time>2022-05-15T10:05:05Z</time>
      </trkpt>
      <trkpt lat="47.23911" lon="4.93006">
        <ele>514</ele>
        <time>2022-05-15T10:05:06Z</time>
      </trkpt>
      <trkpt lat="47.23911" lon="4.93009">
        <ele>513</ele>
        <time>2022-05-15T10:05:07Z</time>
      </trkpt>
      <trkpt lat="47.23912" lon="4.93011">
        <ele>513</ele>
        <time>2022-05-15T10:05:08Z</time>
      </trkpt>
      <trkpt lat="47.23912" lon="4.93015">
        <ele>512</ele>
        <time>2022-05-15T10:05:10Z</time>
      </trkpt>
      <trkpt lat="47.23912" lon="4.93018">
        <ele>510</ele>
        <time>2022-05-15T10:05:11Z</time>
      </trkpt>
      <trkpt lat="47.23912" lon="4.9302">
        <ele>511</ele>
        <time>2022-05-15T10:05:13Z</time>
      </trkpt>
      <trkpt lat="47.23912" lon="4.93022">
        <ele>511</ele>
        <time>2022-05-15T10:05:14Z</time>
      </trkpt>
      <trkpt lat="47.23911" lon="4.93023">
        <ele>510</ele>
        <time>2022-05-15T10:05:15Z</time>
      </trkpt>
      <trkpt lat="47.2391" lon="4.93026">
        <ele>510</ele>
        <time>2022-05-15T10:05:17Z</time>
      </trkpt>
      <trkpt lat="47.23909" lon="4.93028">
        <ele>509</ele>
        <time>2022-05-15T10:05:18Z</time>
      </trkpt>
      <trkpt lat="47.23909" lon="4.9303">
        <ele>512</ele>
        <time>2022-05-15T10:05:19Z</time>
      </trkpt>
      <trkpt lat="47.23909" lon="4.93032">
        <ele>515</ele>
        <time>2022-05-15T10:05:20Z</time>
      </trkpt>
      <trkpt lat="47.23909" lon="4.93035">
        <ele>516</ele>
        <time>2022-05-15T10:05:21Z</time>
      </trkpt>
      <trkpt lat="47.23909" lon="4.93036">
        <ele>516</ele>
        <time>2022-05-15T10:05:22Z</time>
      </trkpt>
      <trkpt lat="47.23909" lon="4.93038">
        <ele>518</ele>
        <time>2022-05-15T10:05:23Z</time>
      </trkpt>
      <trkpt lat="47.23909" lon="4.93041">
        <ele>519</ele>
        <time>2022-05-15T10:05:24Z</time>
      </trkpt>
      <trkpt lat="47.23909" lon="4.93042">
        <ele>519</ele>
        <time>2022-05-15T10:05:25Z</time>
      </trkpt>
      <trkpt lat="47.23909" lon="4.93043">
        <ele>520</ele>
        <time>2022-05-15T10:05:26Z</time>
      </trkpt>
      <trkpt lat="47.23909" lon="4.93045">
        <ele>521</ele>
        <time>2022-05-15T10:05:28Z</time>
      </trkpt>
      <trkpt lat="47.23909" lon="4.93047">
        <ele>520</ele>
        <time>2022-05-15T10:05:30Z</time>
      </trkpt>
      <trkpt lat="47.2391" lon="4.93049">
        <ele>519</ele>
        <time>2022-05-15T10:05:31Z</time>
      </trkpt>
      <trkpt lat="47.2391" lon="4.93051">
        <ele>519</ele>
        <time>2022-05-15T10:05:32Z</time>
      </trkpt>
      <trkpt lat="47.2391" lon="4.93053">
        <ele>519</ele>
        <time>2022-05-15T10:05:34Z</time>
      </trkpt>
      <trkpt lat="47.23909" lon="4.93056">
        <ele>519</ele>
        <time>2022-05-15T10:05:36Z</time>
      </trkpt>
      <trkpt lat="47.23909" lon="4.93058">
        <ele>519</ele>
        <time>2022-05-15T10:05:37Z</time>
      </trkpt>
      <trkpt lat="47.23908" lon="4.93062">
        <ele>519</ele>
        <time>2022-05-15T10:05:39Z</time>
      </trkpt>
      <trkpt lat="47.23908" lon="4.93063">
        <ele>519</ele>
        <time>2022-05-15T10:05:40Z</time>
      </trkpt>
      <trkpt lat="47.23907" lon="4.93065">
        <ele>519</ele>
        <time>2022-05-15T10:05:41Z</time>
      </trkpt>
      <trkpt lat="47.23907" lon="4.93067">
        <ele>518</ele>
        <time>2022-05-15T10:05:42Z</time>
      </trkpt>
      <trkpt lat="47.23906" lon="4.93069">
        <ele>518</ele>
        <time>2022-05-15T10:05:43Z</time>
      </trkpt>
      <trkpt lat="47.23906" lon="4.93071">
        <ele>518</ele>
        <time>2022-05-15T10:05:44Z</time>
      </trkpt>
      <trkpt lat="47.23906" lon="4.93073">
        <ele>518</ele>
        <time>2022-05-15T10:05:45Z</time>
      </trkpt>
      <trkpt lat="47.23905" lon="4.93076">
        <ele>519</ele>
        <time>2022-05-15T10:05:47Z</time>
      </trkpt>
      <trkpt lat="47.23906" lon="4.93078">
        <ele>519</ele>
        <time>2022-05-15T10:05:48Z</time>
      </trkpt>
      <trkpt lat="47.23906" lon="4.9308">
        <ele>521</ele>
        <time>2022-05-15T10:05:49Z</time>
      </trkpt>
      <trkpt lat="47.23905" lon="4.93081">
        <ele>520</ele>
        <time>2022-05-15T10:05:50Z</time>
      </trkpt>
      <trkpt lat="47.23906" lon="4.93083">
        <ele>519</ele>
        <time>2022-05-15T10:05:51Z</time>
      </trkpt>
      <trkpt lat="47.23906" lon="4.93085">
        <ele>519</ele>
        <time>2022-05-15T10:05:52Z</time>
      </trkpt>
      <trkpt lat="47.23907" lon="4.93087">
        <ele>522</ele>
        <time>2022-05-15T10:05:53Z</time>
      </trkpt>
      <trkpt lat="47.23908" lon="4.93088">
        <ele>523</ele>
        <time>2022-05-15T10:05:54Z</time>
      </trkpt>
      <trkpt lat="47.23908" lon="4.93089">
        <ele>523</ele>
        <time>2022-05-15T10:05:55Z</time>
      </trkpt>
      <trkpt lat="47.23909" lon="4.93091">
        <ele>520</ele>
        <time>2022-05-15T10:05:57Z</time>
      </trkpt>
      <trkpt lat="47.23909" lon="4.93094">
        <ele>518</ele>
        <time>2022-05-15T10:05:58Z</time>
      </trkpt>
      <trkpt lat="47.2391" lon="4.93096">
        <ele>517</ele>
        <time>2022-05-15T10:05:59Z</time>
      </trkpt>
      <trkpt lat="47.23911" lon="4.93098">
        <ele>517</ele>
        <time>2022-05-15T10:06:00Z</time>
      </trkpt>
      <trkpt lat="47.23912" lon="4.93099">
        <ele>516</ele>
        <time>2022-05-15T10:06:01Z</time>
      </trkpt>
      <trkpt lat="47.23913" lon="4.93101">
        <ele>518</ele>
        <time>2022-05-15T10:06:02Z</time>
      </trkpt>
      <trkpt lat="47.23913" lon="4.93102">
        <ele>519</ele>
        <time>2022-05-15T10:06:03Z</time>
      </trkpt>
      <trkpt lat="47.23913" lon="4.93104">
        <ele>519</ele>
        <time>2022-05-15T10:06:04Z</time>
      </trkpt>
      <trkpt lat="47.23912" lon="4.93106">
        <ele>519</ele>
        <time>2022-05-15T10:06:05Z</time>
      </trkpt>
      <trkpt lat="47.23912" lon="4.93108">
        <ele>520</ele>
        <time>2022-05-15T10:06:06Z</time>
      </trkpt>
      <trkpt lat="47.23911" lon="4.93111">
        <ele>519</ele>
        <time>2022-05-15T10:06:08Z</time>
      </trkpt>
      <trkpt lat="47.23909" lon="4.93112">
        <ele>518</ele>
        <time>2022-05-15T10:06:09Z</time>
      </trkpt>
      <trkpt lat="47.23908" lon="4.93114">
        <ele>518</ele>
        <time>2022-05-15T10:06:10Z</time>
      </trkpt>
      <trkpt lat="47.23907" lon="4.93116">
        <ele>518</ele>
        <time>2022-05-15T10:06:11Z</time>
      </trkpt>
      <trkpt lat="47.23908" lon="4.93119">
        <ele>519</ele>
        <time>2022-05-15T10:06:13Z</time>
      </trkpt>
      <trkpt lat="47.23909" lon="4.9312">
        <ele>519</ele>
        <time>2022-05-15T10:06:14Z</time>
      </trkpt>
      <trkpt lat="47.23909" lon="4.93122">
        <ele>519</ele>
        <time>2022-05-15T10:06:15Z</time>
      </trkpt>
      <trkpt lat="47.23909" lon="4.93124">
        <ele>518</ele>
        <time>2022-05-15T10:06:16Z</time>
      </trkpt>
      <trkpt lat="47.23909" lon="4.93126">
        <ele>518</ele>
        <time>2022-05-15T10:06:17Z</time>
      </trkpt>
      <trkpt lat="47.23909" lon="4.93127">
        <ele>520</ele>
        <time>2022-05-15T10:06:18Z</time>
      </trkpt>
      <trkpt lat="47.23909" lon="4.93129">
        <ele>520</ele>
        <time>2022-05-15T10:06:19Z</time>
      </trkpt>
      <trkpt lat="47.2391" lon="4.93132">
        <ele>521</ele>
        <time>2022-05-15T10:06:21Z</time>
      </trkpt>
      <trkpt lat="47.2391" lon="4.93134">
        <ele>520</ele>
        <time>2022-05-15T10:06:22Z</time>
      </trkpt>
      <trkpt lat="47.2391" lon="4.93136">
        <ele>520</ele>
        <time>2022-05-15T10:06:24Z</time>
      </trkpt>
      <trkpt lat="47.2391" lon="4.93137">
        <ele>520</ele>
        <time>2022-05-15T10:06:25Z</time>
      </trkpt>
      <trkpt lat="47.23909" lon="4.9314">
        <ele>521</ele>
        <time>2022-05-15T10:06:26Z</time>
      </trkpt>
      <trkpt lat="47.23909" lon="4.93142">
        <ele>520</ele>
        <time>2022-05-15T10:06:27Z</time>
      </trkpt>
      <trkpt lat="47.23909" lon="4.93144">
        <ele>519</ele>
        <time>2022-05-15T10:06:28Z</time>
      </trkpt>
      <trkpt lat="47.23909" lon="4.93145">
        <ele>520</ele>
        <time>2022-05-15T10:06:30Z</time>
      </trkpt>
      <trkpt lat="47.23908" lon="4.93146">
        <ele>520</ele>
        <time>2022-05-15T10:06:31Z</time>
      </trkpt>
      <trkpt lat="47.23907" lon="4.93148">
        <ele>520</ele>
        <time>2022-05-15T10:06:32Z</time>
      </trkpt>
      <trkpt lat="47.23906" lon="4.9315">
        <ele>519</ele>
        <time>2022-05-15T10:06:34Z</time>
      </trkpt>
      <trkpt lat="47.23906" lon="4.93151">
        <ele>519</ele>
        <time>2022-05-15T10:06:35Z</time>
      </trkpt>
      <trkpt lat="47.23905" lon="4.93152">
        <ele>518</ele>
        <time>2022-05-15T10:06:38Z</time>
      </trkpt>
      <trkpt lat="47.23905" lon="4.93154">
        <ele>519</ele>
        <time>2022-05-15T10:06:40Z</time>
      </trkpt>
      <trkpt lat="47.23905" lon="4.93157">
        <ele>520</ele>
        <time>2022-05-15T10:06:41Z</time>
      </trkpt>
      <trkpt lat="47.23905" lon="4.93159">
        <ele>520</ele>
        <time>2022-05-15T10:06:42Z</time>
      </trkpt>
      <trkpt lat="47.23905" lon="4.9316">
        <ele>521</ele>
        <time>2022-05-15T10:06:43Z</time>
      </trkpt>
      <trkpt lat="47.23904" lon="4.93161">
        <ele>521</ele>
        <time>2022-05-15T10:06:44Z</time>
      </trkpt>
      <trkpt lat="47.23904" lon="4.93163">
        <ele>522</ele>
        <time>2022-05-15T10:06:45Z</time>
      </trkpt>
      <trkpt lat="47.23905" lon="4.93166">
        <ele>523</ele>
        <time>2022-05-15T10:06:47Z</time>
      </trkpt>
      <trkpt lat="47.23905" lon="4.93168">
        <ele>523</ele>
        <time>2022-05-15T10:06:48Z</time>
      </trkpt>
      <trkpt lat="47.23906" lon="4.9317">
        <ele>521</ele>
        <time>2022-05-15T10:06:49Z</time>
      </trkpt>
      <trkpt lat="47.23906" lon="4.93171">
        <ele>521</ele>
        <time>2022-05-15T10:06:50Z</time>
      </trkpt>
      <trkpt lat="47.23906" lon="4.93173">
        <ele>520</ele>
        <time>2022-05-15T10:06:51Z</time>
      </trkpt>
      <trkpt lat="47.23906" lon="4.93175">
        <ele>521</ele>
        <time>2022-05-15T10:06:53Z</time>
      </trkpt>
      <trkpt lat="47.23907" lon="4.93177">
        <ele>520</ele>
        <time>2022-05-15T10:06:55Z</time>
      </trkpt>
      <trkpt lat="47.23907" lon="4.93178">
        <ele>521</ele>
        <time>2022-05-15T10:06:56Z</time>
      </trkpt>
      <trkpt lat="47.23906" lon="4.9318">
        <ele>521</ele>
        <time>2022-05-15T10:06:57Z</time>
      </trkpt>
      <trkpt lat="47.23906" lon="4.93182">
        <ele>523</ele>
        <time>2022-05-15T10:06:58Z</time>
      </trkpt>
      <trkpt lat="47.23906" lon="4.93183">
        <ele>522</ele>
        <time>2022-05-15T10:06:59Z</time>
      </trkpt>
      <trkpt lat="47.23906" lon="4.93185">
        <ele>521</ele>
        <time>2022-05-15T10:07:00Z</time>
      </trkpt>
      <trkpt lat="47.23905" lon="4.93188">
        <ele>521</ele>
        <time>2022-05-15T10:07:01Z</time>
      </trkpt>
      <trkpt lat="47.23905" lon="4.9319">
        <ele>522</ele>
        <time>2022-05-15T10:07:02Z</time>
      </trkpt>
      <trkpt lat="47.23905" lon="4.93191">
        <ele>521</ele>
        <time>2022-05-15T10:07:03Z</time>
      </trkpt>
      <trkpt lat="47.23906" lon="4.93194">
        <ele>522</ele>
        <time>2022-05-15T10:07:05Z</time>
      </trkpt>
      <trkpt lat="47.23907" lon="4.93196">
        <ele>522</ele>
        <time>2022-05-15T10:07:06Z</time>
      </trkpt>
      <trkpt lat="47.23907" lon="4.93198">
        <ele>522</ele>
        <time>2022-05-15T10:07:07Z</time>
      </trkpt>
      <trkpt lat="47.23907" lon="4.93199">
        <ele>520</ele>
        <time>2022-05-15T10:07:08Z</time>
      </trkpt>
      <trkpt lat="47.23906" lon="4.932">
        <ele>519</ele>
        <time>2022-05-15T10:07:10Z</time>
      </trkpt>
      <trkpt lat="47.23906" lon="4.93203">
        <ele>519</ele>
        <time>2022-05-15T10:07:12Z</time>
      </trkpt>
      <trkpt lat="47.23906" lon="4.93205">
        <ele>519</ele>
        <time>2022-05-15T10:07:13Z</time>
      </trkpt>
      <trkpt lat="47.23907" lon="4.93206">
        <ele>519</ele>
        <time>2022-05-15T10:07:14Z</time>
      </trkpt>
      <trkpt lat="47.23908" lon="4.93208">
        <ele>520</ele>
        <time>2022-05-15T10:07:15Z</time>
      </trkpt>
      <trkpt lat="47.23908" lon="4.9321">
        <ele>521</ele>
        <time>2022-05-15T10:07:16Z</time>
      </trkpt>
      <trkpt lat="47.23909" lon="4.93212">
        <ele>521</ele>
        <time>2022-05-15T10:07:18Z</time>
      </trkpt>
      <trkpt lat="47.23908" lon="4.93214">
        <ele>522</ele>
        <time>2022-05-15T10:07:19Z</time>
      </trkpt>
      <trkpt lat="47.23908" lon="4.93215">
        <ele>523</ele>
        <time>2022-05-15T10:07:20Z</time>
      </trkpt>
      <trkpt lat="47.23906" lon="4.93219">
        <ele>520</ele>
        <time>2022-05-15T10:07:22Z</time>
      </trkpt>
      <trkpt lat="47.23906" lon="4.9322">
        <ele>517</ele>
        <time>2022-05-15T10:07:23Z</time>
      </trkpt>
      <trkpt lat="47.23905" lon="4.93222">
        <ele>516</ele>
        <time>2022-05-15T10:07:24Z</time>
      </trkpt>
      <trkpt lat="47.23905" lon="4.93225">
        <ele>515</ele>
        <time>2022-05-15T10:07:25Z</time>
      </trkpt>
      <trkpt lat="47.23905" lon="4.93227">
        <ele>517</ele>
        <time>2022-05-15T10:07:26Z</time>
      </trkpt>
      <trkpt lat="47.23906" lon="4.93229">
        <ele>519</ele>
        <time>2022-05-15T10:07:27Z</time>
      </trkpt>
      <trkpt lat="47.23905" lon="4.93232">
        <ele>521</ele>
        <time>2022-05-15T10:07:30Z</time>
      </trkpt>
      <trkpt lat="47.23905" lon="4.93233">
        <ele>521</ele>
        <time>2022-05-15T10:07:31Z</time>
      </trkpt>
      <trkpt lat="47.23905" lon="4.93236">
        <ele>520</ele>
        <time>2022-05-15T10:07:33Z</time>
      </trkpt>
      <trkpt lat="47.23905" lon="4.93238">
        <ele>520</ele>
        <time>2022-05-15T10:07:34Z</time>
      </trkpt>
      <trkpt lat="47.23905" lon="4.9324">
        <ele>522</ele>
        <time>2022-05-15T10:07:35Z</time>
      </trkpt>
      <trkpt lat="47.23906" lon="4.93241">
        <ele>522</ele>
        <time>2022-05-15T10:07:36Z</time>
      </trkpt>
      <trkpt lat="47.23906" lon="4.93243">
        <ele>524</ele>
        <time>2022-05-15T10:07:38Z</time>
      </trkpt>
      <trkpt lat="47.23906" lon="4.93245">
        <ele>524</ele>
        <time>2022-05-15T10:07:39Z</time>
      </trkpt>
      <trkpt lat="47.23906" lon="4.93248">
        <ele>524</ele>
        <time>2022-05-15T10:07:40Z</time>
      </trkpt>
      <trkpt lat="47.23906" lon="4.93252">
        <ele>525</ele>
        <time>2022-05-15T10:07:42Z</time>
      </trkpt>
      <trkpt lat="47.23906" lon="4.93253">
        <ele>524</ele>
        <time>2022-05-15T10:07:43Z</time>
      </trkpt>
      <trkpt lat="47.23905" lon="4.93255">
        <ele>524</ele>
        <time>2022-05-15T10:07:44Z</time>
      </trkpt>
      <trkpt lat="47.23905" lon="4.93257">
        <ele>523</ele>
        <time>2022-05-15T10:07:45Z</time>
      </trkpt>
      <trkpt lat="47.23905" lon="4.93258">
        <ele>524</ele>
        <time>2022-05-15T10:07:46Z</time>
      </trkpt>
      <trkpt lat="47.23905" lon="4.9326">
        <ele>524</ele>
        <time>2022-05-15T10:07:47Z</time>
      </trkpt>
      <trkpt lat="47.23905" lon="4.93262">
        <ele>525</ele>
        <time>2022-05-15T10:07:48Z</time>
      </trkpt>
      <trkpt lat="47.23905" lon="4.93266">
        <ele>526</ele>
        <time>2022-05-15T10:07:50Z</time>
      </trkpt>
      <trkpt lat="47.23905" lon="4.93269">
        <ele>529</ele>
        <time>2022-05-15T10:07:51Z</time>
      </trkpt>
      <trkpt lat="47.23904" lon="4.93271">
        <ele>529</ele>
        <time>2022-05-15T10:07:52Z</time>
      </trkpt>
      <trkpt lat="47.23904" lon="4.93273">
        <ele>529</ele>
        <time>2022-05-15T10:07:53Z</time>
      </trkpt>
      <trkpt lat="47.23905" lon="4.93275">
        <ele>529</ele>
        <time>2022-05-15T10:07:54Z</time>
      </trkpt>
      <trkpt lat="47.23905" lon="4.93277">
        <ele>528</ele>
        <time>2022-05-15T10:07:55Z</time>
      </trkpt>
      <trkpt lat="47.23905" lon="4.93279">
        <ele>528</ele>
        <time>2022-05-15T10:07:56Z</time>
      </trkpt>
      <trkpt lat="47.23906" lon="4.93281">
        <ele>527</ele>
        <time>2022-05-15T10:07:57Z</time>
      </trkpt>
      <trkpt lat="47.23907" lon="4.93283">
        <ele>528</ele>
        <time>2022-05-15T10:07:58Z</time>
      </trkpt>
      <trkpt lat="47.23906" lon="4.93286">
        <ele>526</ele>
        <time>2022-05-15T10:08:00Z</time>
      </trkpt>
      <trkpt lat="47.23906" lon="4.93288">
        <ele>526</ele>
        <time>2022-05-15T10:08:01Z</time>
      </trkpt>
      <trkpt lat="47.23906" lon="4.9329">
        <ele>527</ele>
        <time>2022-05-15T10:08:02Z</time>
      </trkpt>
      <trkpt lat="47.23906" lon="4.93292">
        <ele>526</ele>
        <time>2022-05-15T10:08:03Z</time>
      </trkpt>
      <trkpt lat="47.23906" lon="4.93293">
        <ele>528</ele>
        <time>2022-05-15T10:08:04Z</time>
      </trkpt>
      <trkpt lat="47.23906" lon="4.93295">
        <ele>529</ele>
        <time>2022-05-15T10:08:05Z</time>
      </trkpt>
      <trkpt lat="47.23905" lon="4.93297">
        <ele>529</ele>
        <time>2022-05-15T10:08:06Z</time>
      </trkpt>
      <trkpt lat="47.23905" lon="4.93299">
        <ele>530</ele>
        <time>2022-05-15T10:08:07Z</time>
      </trkpt>
      <trkpt lat="47.23905" lon="4.93302">
        <ele>531</ele>
        <time>2022-05-15T10:08:08Z</time>
      </trkpt>
      <trkpt lat="47.23905" lon="4.93304">
        <ele>531</ele>
        <time>2022-05-15T10:08:09Z</time>
      </trkpt>
      <trkpt lat="47.23906" lon="4.93305">
        <ele>531</ele>
        <time>2022-05-15T10:08:10Z</time>
      </trkpt>
      <trkpt lat="47.23906" lon="4.93307">
        <ele>531</ele>
        <time>2022-05-15T10:08:11Z</time>
      </trkpt>
      <trkpt lat="47.23907" lon="4.93309">
        <ele>532</ele>
        <time>2022-05-15T10:08:12Z</time>
      </trkpt>
      <trkpt lat="47.23907" lon="4.93311">
        <ele>531</ele>
        <time>2022-05-15T10:08:14Z</time>
      </trkpt>
      <trkpt lat="47.23908" lon="4.93313">
        <ele>530</ele>
        <time>2022-05-15T10:08:15Z</time>
      </trkpt>
      <trkpt lat="47.23907" lon="4.93315">
        <ele>529</ele>
        <time>2022-05-15T10:08:16Z</time>
      </trkpt>
      <trkpt lat="47.23907" lon="4.93317">
        <ele>529</ele>
        <time>2022-05-15T10:08:17Z</time>
      </trkpt>
      <trkpt lat="47.23906" lon="4.93318">
        <ele>529</ele>
        <time>2022-05-15T10:08:18Z</time>
      </trkpt>
      <trkpt lat="47.23906" lon="4.93321">
        <ele>527</ele>
        <time>2022-05-15T10:08:20Z</time>
      </trkpt>
      <trkpt lat="47.23907" lon="4.93323">
        <ele>529</ele>
        <time>2022-05-15T10:08:21Z</time>
      </trkpt>
      <trkpt lat="47.23906" lon="4.93324">
        <ele>530</ele>
        <time>2022-05-15T10:08:22Z</time>
      </trkpt>
      <trkpt lat="47.23906" lon="4.93326">
        <ele>530</ele>
        <time>2022-05-15T10:08:23Z</time>
      </trkpt>
      <trkpt lat="47.23904" lon="4.93328">
        <ele>531</ele>
        <time>2022-05-15T10:08:24Z</time>
      </trkpt>
      <trkpt lat="47.23903" lon="4.9333">
        <ele>531</ele>
        <time>2022-05-15T10:08:25Z</time>
      </trkpt>
      <trkpt lat="47.23903" lon="4.93332">
        <ele>525</ele>
        <time>2022-05-15T10:08:26Z</time>
      </trkpt>
      <trkpt lat="47.23903" lon="4.93334">
        <ele>526</ele>
        <time>2022-05-15T10:08:27Z</time>
      </trkpt>
      <trkpt lat="47.23903" lon="4.93336">
        <ele>526</ele>
        <time>2022-05-15T10:08:28Z</time>
      </trkpt>
      <trkpt lat="47.23902" lon="4.93338">
        <ele>527</ele>
        <time>2022-05-15T10:08:29Z</time>
      </trkpt>
      <trkpt lat="47.23902" lon="4.9334">
        <ele>529</ele>
        <time>2022-05-15T10:08:30Z</time>
      </trkpt>
      <trkpt lat="47.23903" lon="4.93343">
        <ele>531</ele>
        <time>2022-05-15T10:08:31Z</time>
      </trkpt>
      <trkpt lat="47.23903" lon="4.93346">
        <ele>530</ele>
        <time>2022-05-15T10:08:32Z</time>
      </trkpt>
      <trkpt lat="47.23904" lon="4.93348">
        <ele>530</ele>
        <time>2022-05-15T10:08:33Z</time>
      </trkpt>
      <trkpt lat="47.23904" lon="4.9335">
        <ele>530</ele>
        <time>2022-05-15T10:08:34Z</time>
      </trkpt>
      <trkpt lat="47.23903" lon="4.93351">
        <ele>532</ele>
        <time>2022-05-15T10:08:35Z</time>
      </trkpt>
      <trkpt lat="47.23903" lon="4.93353">
        <ele>531</ele>
        <time>2022-05-15T10:08:36Z</time>
      </trkpt>
      <trkpt lat="47.23903" lon="4.93355">
        <ele>531</ele>
        <time>2022-05-15T10:08:38Z</time>
      </trkpt>
      <trkpt lat="47.23902" lon="4.93356">
        <ele>531</ele>
        <time>2022-05-15T10:08:39Z</time>
      </trkpt>
      <trkpt lat="47.23901" lon="4.93359">
        <ele>527</ele>
        <time>2022-05-15T10:08:41Z</time>
      </trkpt>
      <trkpt lat="47.239" lon="4.93363">
        <ele>527</ele>
        <time>2022-05-15T10:08:43Z</time>
      </trkpt>
      <trkpt lat="47.239" lon="4.93365">
        <ele>527</ele>
        <time>2022-05-15T10:08:44Z</time>
      </trkpt>
      <trkpt lat="47.239" lon="4.93367">
        <ele>526</ele>
        <time>2022-05-15T10:08:45Z</time>
      </trkpt>
      <trkpt lat="47.239" lon="4.93369">
        <ele>527</ele>
        <time>2022-05-15T10:08:46Z</time>
      </trkpt>
      <trkpt lat="47.239" lon="4.9337">
        <ele>528</ele>
        <time>2022-05-15T10:08:47Z</time>
      </trkpt>
      <trkpt lat="47.23899" lon="4.93372">
        <ele>527</ele>
        <time>2022-05-15T10:08:48Z</time>
      </trkpt>
      <trkpt lat="47.23899" lon="4.93373">
        <ele>526</ele>
        <time>2022-05-15T10:08:49Z</time>
      </trkpt>
      <trkpt lat="47.23899" lon="4.93375">
        <ele>526</ele>
        <time>2022-05-15T10:08:50Z</time>
      </trkpt>
      <trkpt lat="47.23899" lon="4.93378">
        <ele>526</ele>
        <time>2022-05-15T10:08:51Z</time>
      </trkpt>
      <trkpt lat="47.239" lon="4.9338">
        <ele>526</ele>
        <time>2022-05-15T10:08:52Z</time>
      </trkpt>
      <trkpt lat="47.239" lon="4.93383">
        <ele>526</ele>
        <time>2022-05-15T10:08:54Z</time>
      </trkpt>
      <trkpt lat="47.239" lon="4.93385">
        <ele>527</ele>
        <time>2022-05-15T10:08:55Z</time>
      </trkpt>
      <trkpt lat="47.23901" lon="4.93387">
        <ele>527</ele>
        <time>2022-05-15T10:08:56Z</time>
      </trkpt>
      <trkpt lat="47.23901" lon="4.93388">
        <ele>527</ele>
        <time>2022-05-15T10:08:57Z</time>
      </trkpt>
      <trkpt lat="47.23901" lon="4.9339">
        <ele>520</ele>
        <time>2022-05-15T10:08:59Z</time>
      </trkpt>
      <trkpt lat="47.239" lon="4.93392">
        <ele>521</ele>
        <time>2022-05-15T10:09:00Z</time>
      </trkpt>
      <trkpt lat="47.239" lon="4.93393">
        <ele>521</ele>
        <time>2022-05-15T10:09:01Z</time>
      </trkpt>
      <trkpt lat="47.23899" lon="4.93395">
        <ele>519</ele>
        <time>2022-05-15T10:09:03Z</time>
      </trkpt>
      <trkpt lat="47.23899" lon="4.93397">
        <ele>519</ele>
        <time>2022-05-15T10:09:04Z</time>
      </trkpt>
      <trkpt lat="47.239" lon="4.93399">
        <ele>520</ele>
        <time>2022-05-15T10:09:05Z</time>
      </trkpt>
      <trkpt lat="47.239" lon="4.934">
        <ele>520</ele>
        <time>2022-05-15T10:09:06Z</time>
      </trkpt>
      <trkpt lat="47.23899" lon="4.93402">
        <ele>520</ele>
        <time>2022-05-15T10:09:08Z</time>
      </trkpt>
      <trkpt lat="47.23898" lon="4.93404">
        <ele>518</ele>
        <time>2022-05-15T10:09:09Z</time>
      </trkpt>
      <trkpt lat="47.23898" lon="4.93406">
        <ele>520</ele>
        <time>2022-05-15T10:09:10Z</time>
      </trkpt>
      <trkpt lat="47.23897" lon="4.93407">
        <ele>518</ele>
        <time>2022-05-15T10:09:12Z</time>
      </trkpt>
      <trkpt lat="47.23897" lon="4.93409">
        <ele>517</ele>
        <time>2022-05-15T10:09:13Z</time>
      </trkpt>
      <trkpt lat="47.23897" lon="4.93411">
        <ele>518</ele>
        <time>2022-05-15T10:09:14Z</time>
      </trkpt>
      <trkpt lat="47.23897" lon="4.93412">
        <ele>518</ele>
        <time>2022-05-15T10:09:16Z</time>
      </trkpt>
      <trkpt lat="47.23897" lon="4.93414">
        <ele>516</ele>
        <time>2022-05-15T10:09:17Z</time>
      </trkpt>
      <trkpt lat="47.23897" lon="4.93415">
        <ele>517</ele>
        <time>2022-05-15T10:09:18Z</time>
      </trkpt>
      <trkpt lat="47.23897" lon="4.93418">
        <ele>516</ele>
        <time>2022-05-15T10:09:20Z</time>
      </trkpt>
      <trkpt lat="47.23896" lon="4.9342">
        <ele>517</ele>
        <time>2022-05-15T10:09:21Z</time>
      </trkpt>
      <trkpt lat="47.23897" lon="4.93423">
        <ele>517</ele>
        <time>2022-05-15T10:09:22Z</time>
      </trkpt>
      <trkpt lat="47.23897" lon="4.93426">
        <ele>518</ele>
        <time>2022-05-15T10:09:23Z</time>
      </trkpt>
      <trkpt lat="47.23897" lon="4.93429">
        <ele>517</ele>
        <time>2022-05-15T10:09:24Z</time>
      </trkpt>
      <trkpt lat="47.23898" lon="4.93431">
        <ele>518</ele>
        <time>2022-05-15T10:09:25Z</time>
      </trkpt>
      <trkpt lat="47.23898" lon="4.93433">
        <ele>518</ele>
        <time>2022-05-15T10:09:26Z</time>
      </trkpt>
      <trkpt lat="47.23899" lon="4.93436">
        <ele>517</ele>
        <time>2022-05-15T10:09:27Z</time>
      </trkpt>
      <trkpt lat="47.23899" lon="4.93438">
        <ele>517</ele>
        <time>2022-05-15T10:09:28Z</time>
      </trkpt>
      <trkpt lat="47.23898" lon="4.9344">
        <ele>518</ele>
        <time>2022-05-15T10:09:29Z</time>
      </trkpt>
      <trkpt lat="47.23898" lon="4.93442">
        <ele>518</ele>
        <time>2022-05-15T10:09:30Z</time>
      </trkpt>
      <trkpt lat="47.23897" lon="4.93443">
        <ele>518</ele>
        <time>2022-05-15T10:09:31Z</time>
      </trkpt>
      <trkpt lat="47.23897" lon="4.93447">
        <ele>518</ele>
        <time>2022-05-15T10:09:33Z</time>
      </trkpt>
      <trkpt lat="47.23898" lon="4.93449">
        <ele>519</ele>
        <time>2022-05-15T10:09:34Z</time>
      </trkpt>
      <trkpt lat="47.23898" lon="4.9345">
        <ele>520</ele>
        <time>2022-05-15T10:09:35Z</time>
      </trkpt>
      <trkpt lat="47.23899" lon="4.93452">
        <ele>520</ele>
        <time>2022-05-15T10:09:36Z</time>
      </trkpt>
      <trkpt lat="47.239" lon="4.93454">
        <ele>518</ele>
        <time>2022-05-15T10:09:38Z</time>
      </trkpt>
      <trkpt lat="47.239" lon="4.93456">
        <ele>518</ele>
        <time>2022-05-15T10:09:39Z</time>
      </trkpt>
      <trkpt lat="47.239" lon="4.93458">
        <ele>519</ele>
        <time>2022-05-15T10:09:40Z</time>
      </trkpt>
      <trkpt lat="47.239" lon="4.9346">
        <ele>522</ele>
        <time>2022-05-15T10:09:41Z</time>
      </trkpt>
      <trkpt lat="47.23899" lon="4.93461">
        <ele>522</ele>
        <time>2022-05-15T10:09:42Z</time>
      </trkpt>
      <trkpt lat="47.23899" lon="4.93464">
        <ele>521</ele>
        <time>2022-05-15T10:09:43Z</time>
      </trkpt>
      <trkpt lat="47.23899" lon="4.93466">
        <ele>522</ele>
        <time>2022-05-15T10:09:44Z</time>
      </trkpt>
      <trkpt lat="47.23899" lon="4.93468">
        <ele>520</ele>
        <time>2022-05-15T10:09:45Z</time>
      </trkpt>
      <trkpt lat="47.23899" lon="4.93469">
        <ele>518</ele>
        <time>2022-05-15T10:09:46Z</time>
      </trkpt>
      <trkpt lat="47.23898" lon="4.9347">
        <ele>519</ele>
        <time>2022-05-15T10:09:47Z</time>
      </trkpt>
      <trkpt lat="47.23898" lon="4.93472">
        <ele>518</ele>
        <time>2022-05-15T10:09:48Z</time>
      </trkpt>
      <trkpt lat="47.23899" lon="4.93475">
        <ele>517</ele>
        <time>2022-05-15T10:09:49Z</time>
      </trkpt>
      <trkpt lat="47.23899" lon="4.93477">
        <ele>516</ele>
        <time>2022-05-15T10:09:50Z</time>
      </trkpt>
      <trkpt lat="47.239" lon="4.93479">
        <ele>519</ele>
        <time>2022-05-15T10:09:51Z</time>
      </trkpt>
      <trkpt lat="47.239" lon="4.9348">
        <ele>518</ele>
        <time>2022-05-15T10:09:52Z</time>
      </trkpt>
      <trkpt lat="47.239" lon="4.93483">
        <ele>516</ele>
        <time>2022-05-15T10:09:54Z</time>
      </trkpt>
      <trkpt lat="47.239" lon="4.93485">
        <ele>516</ele>
        <time>2022-05-15T10:09:55Z</time>
      </trkpt>
      <trkpt lat="47.239" lon="4.93487">
        <ele>516</ele>
        <time>2022-05-15T10:09:56Z</time>
      </trkpt>
      <trkpt lat="47.239" lon="4.93489">
        <ele>515</ele>
        <time>2022-05-15T10:09:57Z</time>
      </trkpt>
      <trkpt lat="47.239" lon="4.93492">
        <ele>516</ele>
        <time>2022-05-15T10:09:58Z</time>
      </trkpt>
      <trkpt lat="47.239" lon="4.93495">
        <ele>516</ele>
        <time>2022-05-15T10:09:59Z</time>
      </trkpt>
      <trkpt lat="47.239" lon="4.93496">
        <ele>517</ele>
        <time>2022-05-15T10:10:00Z</time>
      </trkpt>
      <trkpt lat="47.239" lon="4.93498">
        <ele>517</ele>
        <time>2022-05-15T10:10:01Z</time>
      </trkpt>
      <trkpt lat="47.239" lon="4.93501">
        <ele>517</ele>
        <time>2022-05-15T10:10:02Z</time>
      </trkpt>
      <trkpt lat="47.239" lon="4.93502">
        <ele>517</ele>
        <time>2022-05-15T10:10:03Z</time>
      </trkpt>
      <trkpt lat="47.23901" lon="4.93505">
        <ele>518</ele>
        <time>2022-05-15T10:10:05Z</time>
      </trkpt>
      <trkpt lat="47.23902" lon="4.93507">
        <ele>518</ele>
        <time>2022-05-15T10:10:06Z</time>
      </trkpt>
      <trkpt lat="47.23903" lon="4.93508">
        <ele>519</ele>
        <time>2022-05-15T10:10:07Z</time>
      </trkpt>
      <trkpt lat="47.23904" lon="4.93509">
        <ele>519</ele>
        <time>2022-05-15T10:10:09Z</time>
      </trkpt>
      <trkpt lat="47.23905" lon="4.93509">
        <ele>518</ele>
        <time>2022-05-15T10:10:10Z</time>
      </trkpt>
      <trkpt lat="47.23906" lon="4.9351">
        <ele>518</ele>
        <time>2022-05-15T10:10:11Z</time>
      </trkpt>
      <trkpt lat="47.23905" lon="4.93511">
        <ele>519</ele>
        <time>2022-05-15T10:10:14Z</time>
      </trkpt>
      <trkpt lat="47.23904" lon="4.93512">
        <ele>520</ele>
        <time>2022-05-15T10:10:16Z</time>
      </trkpt>
      <trkpt lat="47.23905" lon="4.93513">
        <ele>520</ele>
        <time>2022-05-15T10:10:21Z</time>
      </trkpt>
      <trkpt lat="47.23906" lon="4.93514">
        <ele>520</ele>
        <time>2022-05-15T10:10:23Z</time>
      </trkpt>
      <trkpt lat="47.23907" lon="4.93513">
        <ele>519</ele>
        <time>2022-05-15T10:10:26Z</time>
      </trkpt>
      <trkpt lat="47.23908" lon="4.93514">
        <ele>519</ele>
        <time>2022-05-15T10:10:28Z</time>
      </trkpt>
      <trkpt lat="47.23909" lon="4.93514">
        <ele>518</ele>
        <time>2022-05-15T10:10:30Z</time>
      </trkpt>
      <trkpt lat="47.23911" lon="4.93516">
        <ele>517</ele>
        <time>2022-05-15T10:10:31Z</time>
      </trkpt>
      <trkpt lat="47.23913" lon="4.93517">
        <ele>519</ele>
        <time>2022-05-15T10:10:32Z</time>
      </trkpt>
      <trkpt lat="47.23914" lon="4.93517">
        <ele>516</ele>
        <time>2022-05-15T10:10:33Z</time>
      </trkpt>
      <trkpt lat="47.23915" lon="4.93517">
        <ele>515</ele>
        <time>2022-05-15T10:10:34Z</time>
      </trkpt>
      <trkpt lat="47.23917" lon="4.93518">
        <ele>513</ele>
        <time>2022-05-15T10:10:35Z</time>
      </trkpt>
      <trkpt lat="47.23918" lon="4.93518">
        <ele>514</ele>
        <time>2022-05-15T10:10:37Z</time>
      </trkpt>
      <trkpt lat="47.2392" lon="4.93519">
        <ele>517</ele>
        <time>2022-05-15T10:10:39Z</time>
      </trkpt>
      <trkpt lat="47.23921" lon="4.9352">
        <ele>517</ele>
        <time>2022-05-15T10:10:40Z</time>
      </trkpt>
      <trkpt lat="47.23922" lon="4.93521">
        <ele>518</ele>
        <time>2022-05-15T10:10:41Z</time>
      </trkpt>
      <trkpt lat="47.23923" lon="4.93523">
        <ele>516</ele>
        <time>2022-05-15T10:10:42Z</time>
      </trkpt>
      <trkpt lat="47.23925" lon="4.93525">
        <ele>517</ele>
        <time>2022-05-15T10:10:44Z</time>
      </trkpt>
      <trkpt lat="47.23926" lon="4.93525">
        <ele>518</ele>
        <time>2022-05-15T10:10:46Z</time>
      </trkpt>
      <trkpt lat="47.23927" lon="4.93524">
        <ele>519</ele>
        <time>2022-05-15T10:10:48Z</time>
      </trkpt>
      <trkpt lat="47.23929" lon="4.93523">
        <ele>518</ele>
        <time>2022-05-15T10:10:50Z</time>
      </trkpt>
      <trkpt lat="47.23931" lon="4.93524">
        <ele>519</ele>
        <time>2022-05-15T10:10:51Z</time>
      </trkpt>
      <trkpt lat="47.23932" lon="4.93524">
        <ele>518</ele>
        <time>2022-05-15T10:10:52Z</time>
      </trkpt>
      <trkpt lat="47.23934" lon="4.93524">
        <ele>519</ele>
        <time>2022-05-15T10:10:53Z</time>
      </trkpt>
      <trkpt lat="47.23935" lon="4.93525">
        <ele>520</ele>
        <time>2022-05-15T10:10:54Z</time>
      </trkpt>
      <trkpt lat="47.23936" lon="4.93525">
        <ele>522</ele>
        <time>2022-05-15T10:10:55Z</time>
      </trkpt>
      <trkpt lat="47.23937" lon="4.93525">
        <ele>522</ele>
        <time>2022-05-15T10:10:56Z</time>
      </trkpt>
      <trkpt lat="47.23939" lon="4.93525">
        <ele>521</ele>
        <time>2022-05-15T10:10:57Z</time>
      </trkpt>
      <trkpt lat="47.2394" lon="4.93525">
        <ele>523</ele>
        <time>2022-05-15T10:10:58Z</time>
      </trkpt>
      <trkpt lat="47.23941" lon="4.93525">
        <ele>524</ele>
        <time>2022-05-15T10:10:59Z</time>
      </trkpt>
      <trkpt lat="47.23942" lon="4.93526">
        <ele>525</ele>
        <time>2022-05-15T10:11:00Z</time>
      </trkpt>
      <trkpt lat="47.23943" lon="4.93527">
        <ele>523</ele>
        <time>2022-05-15T10:11:02Z</time>
      </trkpt>
      <trkpt lat="47.23944" lon="4.93526">
        <ele>522</ele>
        <time>2022-05-15T10:11:03Z</time>
      </trkpt>
      <trkpt lat="47.23946" lon="4.93525">
        <ele>522</ele>
        <time>2022-05-15T10:11:04Z</time>
      </trkpt>
      <trkpt lat="47.23948" lon="4.93525">
        <ele>521</ele>
        <time>2022-05-15T10:11:05Z</time>
      </trkpt>
      <trkpt lat="47.23949" lon="4.93525">
        <ele>521</ele>
        <time>2022-05-15T10:11:06Z</time>
      </trkpt>
      <trkpt lat="47.23951" lon="4.93525">
        <ele>522</ele>
        <time>2022-05-15T10:11:07Z</time>
      </trkpt>
      <trkpt lat="47.23952" lon="4.93525">
        <ele>522</ele>
        <time>2022-05-15T10:11:08Z</time>
      </trkpt>
      <trkpt lat="47.23954" lon="4.93525">
        <ele>522</ele>
        <time>2022-05-15T10:11:09Z</time>
      </trkpt>
      <trkpt lat="47.23956" lon="4.93525">
        <ele>520</ele>
        <time>2022-05-15T10:11:10Z</time>
      </trkpt>
      <trkpt lat="47.23957" lon="4.93525">
        <ele>521</ele>
        <time>2022-05-15T10:11:11Z</time>
      </trkpt>
      <trkpt lat="47.23959" lon="4.93526">
        <ele>521</ele>
        <time>2022-05-15T10:11:12Z</time>
      </trkpt>
      <trkpt lat="47.2396" lon="4.93526">
        <ele>521</ele>
        <time>2022-05-15T10:11:13Z</time>
      </trkpt>
      <trkpt lat="47.23962" lon="4.93526">
        <ele>521</ele>
        <time>2022-05-15T10:11:14Z</time>
      </trkpt>
      <trkpt lat="47.23963" lon="4.93526">
        <ele>520</ele>
        <time>2022-05-15T10:11:15Z</time>
      </trkpt>
      <trkpt lat="47.23965" lon="4.93526">
        <ele>521</ele>
        <time>2022-05-15T10:11:17Z</time>
      </trkpt>
      <trkpt lat="47.23966" lon="4.93525">
        <ele>521</ele>
        <time>2022-05-15T10:11:18Z</time>
      </trkpt>
      <trkpt lat="47.23968" lon="4.93525">
        <ele>512</ele>
        <time>2022-05-15T10:11:19Z</time>
      </trkpt>
      <trkpt lat="47.23969" lon="4.93525">
        <ele>514</ele>
        <time>2022-05-15T10:11:20Z</time>
      </trkpt>
      <trkpt lat="47.23971" lon="4.93525">
        <ele>516</ele>
        <time>2022-05-15T10:11:21Z</time>
      </trkpt>
      <trkpt lat="47.23972" lon="4.93525">
        <ele>515</ele>
        <time>2022-05-15T10:11:22Z</time>
      </trkpt>
      <trkpt lat="47.23973" lon="4.93524">
        <ele>517</ele>
        <time>2022-05-15T10:11:24Z</time>
      </trkpt>
      <trkpt lat="47.23974" lon="4.93525">
        <ele>516</ele>
        <time>2022-05-15T10:11:25Z</time>
      </trkpt>
      <trkpt lat="47.23975" lon="4.93526">
        <ele>517</ele>
        <time>2022-05-15T10:11:26Z</time>
      </trkpt>
      <trkpt lat="47.23977" lon="4.93527">
        <ele>518</ele>
        <time>2022-05-15T10:11:27Z</time>
      </trkpt>
      <trkpt lat="47.23978" lon="4.93529">
        <ele>518</ele>
        <time>2022-05-15T10:11:28Z</time>
      </trkpt>
      <trkpt lat="47.2398" lon="4.93529">
        <ele>517</ele>
        <time>2022-05-15T10:11:29Z</time>
      </trkpt>
      <trkpt lat="47.23982" lon="4.93529">
        <ele>520</ele>
        <time>2022-05-15T10:11:31Z</time>
      </trkpt>
      <trkpt lat="47.23983" lon="4.93528">
        <ele>522</ele>
        <time>2022-05-15T10:11:32Z</time>
      </trkpt>
      <trkpt lat="47.23984" lon="4.93527">
        <ele>522</ele>
        <time>2022-05-15T10:11:33Z</time>
      </trkpt>
      <trkpt lat="47.23985" lon="4.93527">
        <ele>524</ele>
        <time>2022-05-15T10:11:34Z</time>
      </trkpt>
      <trkpt lat="47.23987" lon="4.93527">
        <ele>523</ele>
        <time>2022-05-15T10:11:36Z</time>
      </trkpt>
      <trkpt lat="47.23989" lon="4.93527">
        <ele>523</ele>
        <time>2022-05-15T10:11:37Z</time>
      </trkpt>
      <trkpt lat="47.2399" lon="4.93527">
        <ele>524</ele>
        <time>2022-05-15T10:11:38Z</time>
      </trkpt>
      <trkpt lat="47.23992" lon="4.93527">
        <ele>527</ele>
        <time>2022-05-15T10:11:40Z</time>
      </trkpt>
      <trkpt lat="47.23993" lon="4.93527">
        <ele>526</ele>
        <time>2022-05-15T10:11:41Z</time>
      </trkpt>
      <trkpt lat="47.23995" lon="4.93528">
        <ele>525</ele>
        <time>2022-05-15T10:11:42Z</time>
      </trkpt>
      <trkpt lat="47.23996" lon="4.93529">
        <ele>524</ele>
        <time>2022-05-15T10:11:43Z</time>
      </trkpt>
      <trkpt lat="47.24" lon="4.9353">
        <ele>524</ele>
        <time>2022-05-15T10:11:45Z</time>
      </trkpt>
      <trkpt lat="47.24002" lon="4.9353">
        <ele>524</ele>
        <time>2022-05-15T10:11:47Z</time>
      </trkpt>
      <trkpt lat="47.24004" lon="4.93529">
        <ele>522</ele>
        <time>2022-05-15T10:11:48Z</time>
      </trkpt>
      <trkpt lat="47.24005" lon="4.93529">
        <ele>522</ele>
        <time>2022-05-15T10:11:49Z</time>
      </trkpt>
      <trkpt lat="47.24007" lon="4.93529">
        <ele>522</ele>
        <time>2022-05-15T10:11:50Z</time>
      </trkpt>
      <trkpt lat="47.24009" lon="4.93529">
        <ele>523</ele>
        <time>2022-05-15T10:11:51Z</time>
      </trkpt>
      <trkpt lat="47.2401" lon="4.93528">
        <ele>521</ele>
        <time>2022-05-15T10:11:52Z</time>
      </trkpt>
      <trkpt lat="47.24011" lon="4.93527">
        <ele>520</ele>
        <time>2022-05-15T10:11:53Z</time>
      </trkpt>
      <trkpt lat="47.24013" lon="4.93527">
        <ele>521</ele>
        <time>2022-05-15T10:11:54Z</time>
      </trkpt>
      <trkpt lat="47.24014" lon="4.93528">
        <ele>521</ele>
        <time>2022-05-15T10:11:55Z</time>
      </trkpt>
      <trkpt lat="47.24016" lon="4.93529">
        <ele>521</ele>
        <time>2022-05-15T10:11:56Z</time>
      </trkpt>
      <trkpt lat="47.24017" lon="4.9353">
        <ele>520</ele>
        <time>2022-05-15T10:11:58Z</time>
      </trkpt>
      <trkpt lat="47.24018" lon="4.93528">
        <ele>518</ele>
        <time>2022-05-15T10:12:00Z</time>
      </trkpt>
      <trkpt lat="47.2402" lon="4.93527">
        <ele>518</ele>
        <time>2022-05-15T10:12:02Z</time>
      </trkpt>
      <trkpt lat="47.24022" lon="4.93527">
        <ele>519</ele>
        <time>2022-05-15T10:12:03Z</time>
      </trkpt>
      <trkpt lat="47.24023" lon="4.93527">
        <ele>521</ele>
        <time>2022-05-15T10:12:04Z</time>
      </trkpt>
      <trkpt lat="47.24024" lon="4.93528">
        <ele>522</ele>
        <time>2022-05-15T10:12:05Z</time>
      </trkpt>
      <trkpt lat="47.24025" lon="4.93529">
        <ele>522</ele>
        <time>2022-05-15T10:12:06Z</time>
      </trkpt>
      <trkpt lat="47.24026" lon="4.9353">
        <ele>521</ele>
        <time>2022-05-15T10:12:08Z</time>
      </trkpt>
      <trkpt lat="47.24027" lon="4.93531">
        <ele>521</ele>
        <time>2022-05-15T10:12:09Z</time>
      </trkpt>
      <trkpt lat="47.24028" lon="4.93532">
        <ele>522</ele>
        <time>2022-05-15T10:12:10Z</time>
      </trkpt>
      <trkpt lat="47.2403" lon="4.93532">
        <ele>522</ele>
        <time>2022-05-15T10:12:11Z</time>
      </trkpt>
      <trkpt lat="47.24031" lon="4.93533">
        <ele>521</ele>
        <time>2022-05-15T10:12:12Z</time>
      </trkpt>
      <trkpt lat="47.24033" lon="4.93533">
        <ele>521</ele>
        <time>2022-05-15T10:12:13Z</time>
      </trkpt>
      <trkpt lat="47.24034" lon="4.93533">
        <ele>521</ele>
        <time>2022-05-15T10:12:14Z</time>
      </trkpt>
      <trkpt lat="47.24035" lon="4.93532">
        <ele>522</ele>
        <time>2022-05-15T10:12:15Z</time>
      </trkpt>
      <trkpt lat="47.24037" lon="4.93532">
        <ele>524</ele>
        <time>2022-05-15T10:12:17Z</time>
      </trkpt>
      <trkpt lat="47.24039" lon="4.93533">
        <ele>523</ele>
        <time>2022-05-15T10:12:18Z</time>
      </trkpt>
      <trkpt lat="47.2404" lon="4.93533">
        <ele>524</ele>
        <time>2022-05-15T10:12:19Z</time>
      </trkpt>
      <trkpt lat="47.24041" lon="4.93534">
        <ele>525</ele>
        <time>2022-05-15T10:12:20Z</time>
      </trkpt>
      <trkpt lat="47.24043" lon="4.93534">
        <ele>524</ele>
        <time>2022-05-15T10:12:22Z</time>
      </trkpt>
      <trkpt lat="47.24044" lon="4.93533">
        <ele>524</ele>
        <time>2022-05-15T10:12:24Z</time>
      </trkpt>
      <trkpt lat="47.24045" lon="4.93533">
        <ele>526</ele>
        <time>2022-05-15T10:12:25Z</time>
      </trkpt>
      <trkpt lat="47.24047" lon="4.93533">
        <ele>524</ele>
        <time>2022-05-15T10:12:26Z</time>
      </trkpt>
      <trkpt lat="47.24048" lon="4.93533">
        <ele>523</ele>
        <time>2022-05-15T10:12:27Z</time>
      </trkpt>
      <trkpt lat="47.2405" lon="4.93534">
        <ele>523</ele>
        <time>2022-05-15T10:12:28Z</time>
      </trkpt>
      <trkpt lat="47.24051" lon="4.93534">
        <ele>525</ele>
        <time>2022-05-15T10:12:29Z</time>
      </trkpt>
      <trkpt lat="47.24053" lon="4.93534">
        <ele>525</ele>
        <time>2022-05-15T10:12:30Z</time>
      </trkpt>
      <trkpt lat="47.24055" lon="4.93534">
        <ele>527</ele>
        <time>2022-05-15T10:12:31Z</time>
      </trkpt>
      <trkpt lat="47.24056" lon="4.93534">
        <ele>527</ele>
        <time>2022-05-15T10:12:32Z</time>
      </trkpt>
      <trkpt lat="47.24058" lon="4.93535">
        <ele>525</ele>
        <time>2022-05-15T10:12:33Z</time>
      </trkpt>
      <trkpt lat="47.24059" lon="4.93535">
        <ele>524</ele>
        <time>2022-05-15T10:12:34Z</time>
      </trkpt>
      <trkpt lat="47.2406" lon="4.93535">
        <ele>522</ele>
        <time>2022-05-15T10:12:35Z</time>
      </trkpt>
      <trkpt lat="47.24062" lon="4.93535">
        <ele>523</ele>
        <time>2022-05-15T10:12:36Z</time>
      </trkpt>
      <trkpt lat="47.24063" lon="4.93536">
        <ele>524</ele>
        <time>2022-05-15T10:12:37Z</time>
      </trkpt>
      <trkpt lat="47.24065" lon="4.93537">
        <ele>523</ele>
        <time>2022-05-15T10:12:38Z</time>
      </trkpt>
      <trkpt lat="47.24067" lon="4.93538">
        <ele>524</ele>
        <time>2022-05-15T10:12:39Z</time>
      </trkpt>
      <trkpt lat="47.24068" lon="4.93537">
        <ele>525</ele>
        <time>2022-05-15T10:12:41Z</time>
      </trkpt>
      <trkpt lat="47.2407" lon="4.93538">
        <ele>524</ele>
        <time>2022-05-15T10:12:42Z</time>
      </trkpt>
      <trkpt lat="47.24071" lon="4.93539">
        <ele>523</ele>
        <time>2022-05-15T10:12:43Z</time>
      </trkpt>
      <trkpt lat="47.24072" lon="4.93539">
        <ele>524</ele>
        <time>2022-05-15T10:12:44Z</time>
      </trkpt>
      <trkpt lat="47.24075" lon="4.93538">
        <ele>525</ele>
        <time>2022-05-15T10:12:46Z</time>
      </trkpt>
      <trkpt lat="47.24077" lon="4.93537">
        <ele>523</ele>
        <time>2022-05-15T10:12:47Z</time>
      </trkpt>
      <trkpt lat="47.24078" lon="4.93537">
        <ele>522</ele>
        <time>2022-05-15T10:12:48Z</time>
      </trkpt>
      <trkpt lat="47.24079" lon="4.93537">
        <ele>523</ele>
        <time>2022-05-15T10:12:49Z</time>
      </trkpt>
      <trkpt lat="47.24081" lon="4.93537">
        <ele>523</ele>
        <time>2022-05-15T10:12:51Z</time>
      </trkpt>
      <trkpt lat="47.24083" lon="4.93537">
        <ele>522</ele>
        <time>2022-05-15T10:12:52Z</time>
      </trkpt>
      <trkpt lat="47.24084" lon="4.93537">
        <ele>521</ele>
        <time>2022-05-15T10:12:53Z</time>
      </trkpt>
      <trkpt lat="47.24085" lon="4.93538">
        <ele>520</ele>
        <time>2022-05-15T10:12:54Z</time>
      </trkpt>
      <trkpt lat="47.24086" lon="4.93538">
        <ele>521</ele>
        <time>2022-05-15T10:12:55Z</time>
      </trkpt>
      <trkpt lat="47.24088" lon="4.93538">
        <ele>520</ele>
        <time>2022-05-15T10:12:56Z</time>
      </trkpt>
      <trkpt lat="47.24089" lon="4.93538">
        <ele>520</ele>
        <time>2022-05-15T10:12:57Z</time>
      </trkpt>
      <trkpt lat="47.2409" lon="4.93538">
        <ele>522</ele>
        <time>2022-05-15T10:12:59Z</time>
      </trkpt>
      <trkpt lat="47.24091" lon="4.93538">
        <ele>522</ele>
        <time>2022-05-15T10:13:00Z</time>
      </trkpt>
      <trkpt lat="47.24092" lon="4.93538">
        <ele>524</ele>
        <time>2022-05-15T10:13:01Z</time>
      </trkpt>
      <trkpt lat="47.24093" lon="4.93539">
        <ele>526</ele>
        <time>2022-05-15T10:13:02Z</time>
      </trkpt>
      <trkpt lat="47.24094" lon="4.93539">
        <ele>526</ele>
        <time>2022-05-15T10:13:03Z</time>
      </trkpt>
      <trkpt lat="47.24096" lon="4.9354">
        <ele>528</ele>
        <time>2022-05-15T10:13:05Z</time>
      </trkpt>
      <trkpt lat="47.24097" lon="4.9354">
        <ele>530</ele>
        <time>2022-05-15T10:13:06Z</time>
      </trkpt>
      <trkpt lat="47.24098" lon="4.9354">
        <ele>531</ele>
        <time>2022-05-15T10:13:07Z</time>
      </trkpt>
      <trkpt lat="47.24099" lon="4.9354">
        <ele>529</ele>
        <time>2022-05-15T10:13:08Z</time>
      </trkpt>
      <trkpt lat="47.24101" lon="4.9354">
        <ele>529</ele>
        <time>2022-05-15T10:13:09Z</time>
      </trkpt>
      <trkpt lat="47.24103" lon="4.93541">
        <ele>529</ele>
        <time>2022-05-15T10:13:10Z</time>
      </trkpt>
      <trkpt lat="47.24104" lon="4.93541">
        <ele>530</ele>
        <time>2022-05-15T10:13:11Z</time>
      </trkpt>
      <trkpt lat="47.24105" lon="4.9354">
        <ele>529</ele>
        <time>2022-05-15T10:13:13Z</time>
      </trkpt>
      <trkpt lat="47.24107" lon="4.93539">
        <ele>531</ele>
        <time>2022-05-15T10:13:15Z</time>
      </trkpt>
      <trkpt lat="47.24107" lon="4.93538">
        <ele>531</ele>
        <time>2022-05-15T10:13:16Z</time>
      </trkpt>
      <trkpt lat="47.24108" lon="4.93537">
        <ele>531</ele>
        <time>2022-05-15T10:13:18Z</time>
      </trkpt>
      <trkpt lat="47.24109" lon="4.93536">
        <ele>530</ele>
        <time>2022-05-15T10:13:20Z</time>
      </trkpt>
      <trkpt lat="47.24111" lon="4.93536">
        <ele>529</ele>
        <time>2022-05-15T10:13:24Z</time>
      </trkpt>
      <trkpt lat="47.24112" lon="4.93538">
        <ele>528</ele>
        <time>2022-05-15T10:13:25Z</time>
      </trkpt>
      <trkpt lat="47.24113" lon="4.93539">
        <ele>528</ele>
        <time>2022-05-15T10:13:26Z</time>
      </trkpt>
      <trkpt lat="47.24114" lon="4.93539">
        <ele>528</ele>
        <time>2022-05-15T10:13:27Z</time>
      </trkpt>
      <trkpt lat="47.24115" lon="4.93539">
        <ele>527</ele>
        <time>2022-05-15T10:13:28Z</time>
      </trkpt>
      <trkpt lat="47.24116" lon="4.93538">
        <ele>528</ele>
        <time>2022-05-15T10:13:29Z</time>
      </trkpt>
      <trkpt lat="47.24117" lon="4.93538">
        <ele>528</ele>
        <time>2022-05-15T10:13:30Z</time>
      </trkpt>
      <trkpt lat="47.24119" lon="4.93538">
        <ele>529</ele>
        <time>2022-05-15T10:13:31Z</time>
      </trkpt>
      <trkpt lat="47.2412" lon="4.93537">
        <ele>528</ele>
        <time>2022-05-15T10:13:32Z</time>
      </trkpt>
      <trkpt lat="47.24122" lon="4.93536">
        <ele>526</ele>
        <time>2022-05-15T10:13:33Z</time>
      </trkpt>
      <trkpt lat="47.24123" lon="4.93536">
        <ele>527</ele>
        <time>2022-05-15T10:13:34Z</time>
      </trkpt>
      <trkpt lat="47.24124" lon="4.93535">
        <ele>526</ele>
        <time>2022-05-15T10:13:35Z</time>
      </trkpt>
      <trkpt lat="47.24125" lon="4.93535">
        <ele>525</ele>
        <time>2022-05-15T10:13:36Z</time>
      </trkpt>
      <trkpt lat="47.24127" lon="4.93534">
        <ele>526</ele>
        <time>2022-05-15T10:13:37Z</time>
      </trkpt>
      <trkpt lat="47.24128" lon="4.93534">
        <ele>527</ele>
        <time>2022-05-15T10:13:38Z</time>
      </trkpt>
      <trkpt lat="47.2413" lon="4.93534">
        <ele>528</ele>
        <time>2022-05-15T10:13:39Z</time>
      </trkpt>
      <trkpt lat="47.24131" lon="4.93534">
        <ele>529</ele>
        <time>2022-05-15T10:13:40Z</time>
      </trkpt>
      <trkpt lat="47.24133" lon="4.93535">
        <ele>529</ele>
        <time>2022-05-15T10:13:41Z</time>
      </trkpt>
      <trkpt lat="47.24134" lon="4.93534">
        <ele>529</ele>
        <time>2022-05-15T10:13:42Z</time>
      </trkpt>
      <trkpt lat="47.24135" lon="4.93534">
        <ele>529</ele>
        <time>2022-05-15T10:13:43Z</time>
      </trkpt>
      <trkpt lat="47.24136" lon="4.93533">
        <ele>528</ele>
        <time>2022-05-15T10:13:44Z</time>
      </trkpt>
      <trkpt lat="47.24137" lon="4.93534">
        <ele>528</ele>
        <time>2022-05-15T10:13:47Z</time>
      </trkpt>
      <trkpt lat="47.24138" lon="4.93533">
        <ele>529</ele>
        <time>2022-05-15T10:13:49Z</time>
      </trkpt>
      <trkpt lat="47.24139" lon="4.93534">
        <ele>529</ele>
        <time>2022-05-15T10:13:50Z</time>
      </trkpt>
      <trkpt lat="47.2414" lon="4.93535">
        <ele>529</ele>
        <time>2022-05-15T10:13:51Z</time>
      </trkpt>
      <trkpt lat="47.24141" lon="4.93536">
        <ele>529</ele>
        <time>2022-05-15T10:13:52Z</time>
      </trkpt>
      <trkpt lat="47.24143" lon="4.93536">
        <ele>531</ele>
        <time>2022-05-15T10:13:53Z</time>
      </trkpt>
      <trkpt lat="47.24144" lon="4.93535">
        <ele>532</ele>
        <time>2022-05-15T10:13:54Z</time>
      </trkpt>
      <trkpt lat="47.24145" lon="4.93536">
        <ele>532</ele>
        <time>2022-05-15T10:13:56Z</time>
      </trkpt>
      <trkpt lat="47.24146" lon="4.93537">
        <ele>533</ele>
        <time>2022-05-15T10:13:57Z</time>
      </trkpt>
      <trkpt lat="47.24148" lon="4.93538">
        <ele>529</ele>
        <time>2022-05-15T10:13:59Z</time>
      </trkpt>
      <trkpt lat="47.24149" lon="4.93538">
        <ele>528</ele>
        <time>2022-05-15T10:14:01Z</time>
      </trkpt>
      <trkpt lat="47.2415" lon="4.93537">
        <ele>526</ele>
        <time>2022-05-15T10:14:02Z</time>
      </trkpt>
      <trkpt lat="47.24151" lon="4.93537">
        <ele>526</ele>
        <time>2022-05-15T10:14:03Z</time>
      </trkpt>
      <trkpt lat="47.24152" lon="4.93537">
        <ele>528</ele>
        <time>2022-05-15T10:14:04Z</time>
      </trkpt>
      <trkpt lat="47.24154" lon="4.93537">
        <ele>527</ele>
        <time>2022-05-15T10:14:05Z</time>
      </trkpt>
      <trkpt lat="47.24155" lon="4.93538">
        <ele>529</ele>
        <time>2022-05-15T10:14:06Z</time>
      </trkpt>
      <trkpt lat="47.24156" lon="4.93538">
        <ele>528</ele>
        <time>2022-05-15T10:14:07Z</time>
      </trkpt>
      <trkpt lat="47.24157" lon="4.93538">
        <ele>529</ele>
        <time>2022-05-15T10:14:09Z</time>
      </trkpt>
      <trkpt lat="47.24158" lon="4.93537">
        <ele>529</ele>
        <time>2022-05-15T10:14:10Z</time>
      </trkpt>
      <trkpt lat="47.2416" lon="4.93537">
        <ele>529</ele>
        <time>2022-05-15T10:14:11Z</time>
      </trkpt>
      <trkpt lat="47.2416" lon="4.93537">
        <ele>529</ele>
        <time>2022-05-15T10:14:12Z</time>
      </trkpt>
      <trkpt lat="47.24161" lon="4.93537">
        <ele>528</ele>
        <time>2022-05-15T10:14:13Z</time>
      </trkpt>
      <trkpt lat="47.24163" lon="4.93536">
        <ele>527</ele>
        <time>2022-05-15T10:14:14Z</time>
      </trkpt>
      <trkpt lat="47.24163" lon="4.93535">
        <ele>528</ele>
        <time>2022-05-15T10:14:15Z</time>
      </trkpt>
      <trkpt lat="47.24164" lon="4.93534">
        <ele>527</ele>
        <time>2022-05-15T10:14:16Z</time>
      </trkpt>
      <trkpt lat="47.24166" lon="4.93534">
        <ele>528</ele>
        <time>2022-05-15T10:14:18Z</time>
      </trkpt>
      <trkpt lat="47.24167" lon="4.93534">
        <ele>528</ele>
        <time>2022-05-15T10:14:19Z</time>
      </trkpt>
      <trkpt lat="47.24168" lon="4.93535">
        <ele>528</ele>
        <time>2022-05-15T10:14:20Z</time>
      </trkpt>
      <trkpt lat="47.24169" lon="4.93535">
        <ele>525</ele>
        <time>2022-05-15T10:14:21Z</time>
      </trkpt>
      <trkpt lat="47.2417" lon="4.93535">
        <ele>525</ele>
        <time>2022-05-15T10:14:23Z</time>
      </trkpt>
      <trkpt lat="47.24171" lon="4.93537">
        <ele>529</ele>
        <time>2022-05-15T10:14:26Z</time>
      </trkpt>
      <trkpt lat="47.24173" lon="4.93537">
        <ele>529</ele>
        <time>2022-05-15T10:14:28Z</time>
      </trkpt>
      <trkpt lat="47.24174" lon="4.93537">
        <ele>528</ele>
        <time>2022-05-15T10:14:29Z</time>
      </trkpt>
      <trkpt lat="47.24175" lon="4.93537">
        <ele>528</ele>
        <time>2022-05-15T10:14:30Z</time>
      </trkpt>
      <trkpt lat="47.24176" lon="4.93539">
        <ele>530</ele>
        <time>2022-05-15T10:14:32Z</time>
      </trkpt>
      <trkpt lat="47.24177" lon="4.93538">
        <ele>528</ele>
        <time>2022-05-15T10:14:35Z</time>
      </trkpt>
      <trkpt lat="47.24178" lon="4.93537">
        <ele>529</ele>
        <time>2022-05-15T10:14:36Z</time>
      </trkpt>
      <trkpt lat="47.24179" lon="4.93536">
        <ele>529</ele>
        <time>2022-05-15T10:14:37Z</time>
      </trkpt>
      <trkpt lat="47.24181" lon="4.93536">
        <ele>530</ele>
        <time>2022-05-15T10:14:38Z</time>
      </trkpt>
      <trkpt lat="47.24182" lon="4.93536">
        <ele>529</ele>
        <time>2022-05-15T10:14:39Z</time>
      </trkpt>
      <trkpt lat="47.24183" lon="4.93537">
        <ele>527</ele>
        <time>2022-05-15T10:14:40Z</time>
      </trkpt>
      <trkpt lat="47.24184" lon="4.93538">
        <ele>527</ele>
        <time>2022-05-15T10:14:42Z</time>
      </trkpt>
      <trkpt lat="47.24186" lon="4.93538">
        <ele>527</ele>
        <time>2022-05-15T10:14:43Z</time>
      </trkpt>
      <trkpt lat="47.24187" lon="4.93539">
        <ele>527</ele>
        <time>2022-05-15T10:14:44Z</time>
      </trkpt>
      <trkpt lat="47.24188" lon="4.9354">
        <ele>529</ele>
        <time>2022-05-15T10:14:45Z</time>
      </trkpt>
      <trkpt lat="47.24189" lon="4.93541">
        <ele>529</ele>
        <time>2022-05-15T10:14:46Z</time>
      </trkpt>
      <trkpt lat="47.2419" lon="4.93543">
        <ele>530</ele>
        <time>2022-05-15T10:14:48Z</time>
      </trkpt>
      <trkpt lat="47.24192" lon="4.93544">
        <ele>530</ele>
        <time>2022-05-15T10:14:49Z</time>
      </trkpt>
      <trkpt lat="47.24193" lon="4.93544">
        <ele>531</ele>
        <time>2022-05-15T10:14:50Z</time>
      </trkpt>
      <trkpt lat="47.24194" lon="4.93544">
        <ele>530</ele>
        <time>2022-05-15T10:14:51Z</time>
      </trkpt>
      <trkpt lat="47.24195" lon="4.93544">
        <ele>528</ele>
        <time>2022-05-15T10:14:52Z</time>
      </trkpt>
      <trkpt lat="47.24197" lon="4.93544">
        <ele>529</ele>
        <time>2022-05-15T10:14:53Z</time>
      </trkpt>
      <trkpt lat="47.24198" lon="4.93544">
        <ele>529</ele>
        <time>2022-05-15T10:14:54Z</time>
      </trkpt>
      <trkpt lat="47.24199" lon="4.93545">
        <ele>530</ele>
        <time>2022-05-15T10:14:55Z</time>
      </trkpt>
      <trkpt lat="47.242" lon="4.93545">
        <ele>531</ele>
        <time>2022-05-15T10:14:56Z</time>
      </trkpt>
      <trkpt lat="47.24201" lon="4.93545">
        <ele>531</ele>
        <time>2022-05-15T10:14:57Z</time>
      </trkpt>
      <trkpt lat="47.24203" lon="4.93545">
        <ele>532</ele>
        <time>2022-05-15T10:14:58Z</time>
      </trkpt>
      <trkpt lat="47.24204" lon="4.93544">
        <ele>531</ele>
        <time>2022-05-15T10:14:59Z</time>
      </trkpt>
      <trkpt lat="47.24205" lon="4.93544">
        <ele>530</ele>
        <time>2022-05-15T10:15:00Z</time>
      </trkpt>
      <trkpt lat="47.24207" lon="4.93544">
        <ele>532</ele>
        <time>2022-05-15T10:15:01Z</time>
      </trkpt>
      <trkpt lat="47.24208" lon="4.93543">
        <ele>532</ele>
        <time>2022-05-15T10:15:02Z</time>
      </trkpt>
      <trkpt lat="47.2421" lon="4.93543">
        <ele>532</ele>
        <time>2022-05-15T10:15:03Z</time>
      </trkpt>
      <trkpt lat="47.24211" lon="4.93543">
        <ele>532</ele>
        <time>2022-05-15T10:15:04Z</time>
      </trkpt>
      <trkpt lat="47.24213" lon="4.93544">
        <ele>532</ele>
        <time>2022-05-15T10:15:05Z</time>
      </trkpt>
      <trkpt lat="47.24215" lon="4.93546">
        <ele>532</ele>
        <time>2022-05-15T10:15:06Z</time>
      </trkpt>
      <trkpt lat="47.24216" lon="4.93547">
        <ele>531</ele>
        <time>2022-05-15T10:15:07Z</time>
      </trkpt>
      <trkpt lat="47.24218" lon="4.93548">
        <ele>529</ele>
        <time>2022-05-15T10:15:09Z</time>
      </trkpt>
      <trkpt lat="47.24219" lon="4.93548">
        <ele>527</ele>
        <time>2022-05-15T10:15:10Z</time>
      </trkpt>
      <trkpt lat="47.2422" lon="4.93548">
        <ele>526</ele>
        <time>2022-05-15T10:15:16Z</time>
      </trkpt>
      <trkpt lat="47.24221" lon="4.93549">
        <ele>524</ele>
        <time>2022-05-15T10:15:18Z</time>
      </trkpt>
      <trkpt lat="47.24222" lon="4.9355">
        <ele>524</ele>
        <time>2022-05-15T10:15:20Z</time>
      </trkpt>
      <trkpt lat="47.24223" lon="4.93549">
        <ele>522</ele>
        <time>2022-05-15T10:15:32Z</time>
      </trkpt>
      <trkpt lat="47.24225" lon="4.93549">
        <ele>522</ele>
        <time>2022-05-15T10:15:33Z</time>
      </trkpt>
      <trkpt lat="47.24226" lon="4.93548">
        <ele>522</ele>
        <time>2022-05-15T10:15:34Z</time>
      </trkpt>
      <trkpt lat="47.24227" lon="4.93547">
        <ele>523</ele>
        <time>2022-05-15T10:15:35Z</time>
      </trkpt>
      <trkpt lat="47.24229" lon="4.93546">
        <ele>526</ele>
        <time>2022-05-15T10:15:37Z</time>
      </trkpt>
      <trkpt lat="47.2423" lon="4.93545">
        <ele>526</ele>
        <time>2022-05-15T10:15:38Z</time>
      </trkpt>
      <trkpt lat="47.2423" lon="4.93543">
        <ele>526</ele>
        <time>2022-05-15T10:15:39Z</time>
      </trkpt>
      <trkpt lat="47.2423" lon="4.93542">
        <ele>526</ele>
        <time>2022-05-15T10:15:40Z</time>
      </trkpt>
      <trkpt lat="47.2423" lon="4.9354">
        <ele>525</ele>
        <time>2022-05-15T10:15:41Z</time>
      </trkpt>
      <trkpt lat="47.2423" lon="4.93539">
        <ele>525</ele>
        <time>2022-05-15T10:15:42Z</time>
      </trkpt>
      <trkpt lat="47.2423" lon="4.93537">
        <ele>525</ele>
        <time>2022-05-15T10:15:43Z</time>
      </trkpt>
      <trkpt lat="47.24231" lon="4.93535">
        <ele>524</ele>
        <time>2022-05-15T10:15:44Z</time>
      </trkpt>
      <trkpt lat="47.24231" lon="4.93534">
        <ele>525</ele>
        <time>2022-05-15T10:15:45Z</time>
      </trkpt>
      <trkpt lat="47.24232" lon="4.93532">
        <ele>526</ele>
        <time>2022-05-15T10:15:46Z</time>
      </trkpt>
      <trkpt lat="47.24233" lon="4.93528">
        <ele>526</ele>
        <time>2022-05-15T10:15:49Z</time>
      </trkpt>
      <trkpt lat="47.24233" lon="4.93526">
        <ele>526</ele>
        <time>2022-05-15T10:15:50Z</time>
      </trkpt>
      <trkpt lat="47.24233" lon="4.93524">
        <ele>525</ele>
        <time>2022-05-15T10:15:51Z</time>
      </trkpt>
      <trkpt lat="47.24234" lon="4.93523">
        <ele>523</ele>
        <time>2022-05-15T10:15:56Z</time>
      </trkpt>
      <trkpt lat="47.24235" lon="4.93521">
        <ele>523</ele>
        <time>2022-05-15T10:15:58Z</time>
      </trkpt>
      <trkpt lat="47.24234" lon="4.9352">
        <ele>521</ele>
        <time>2022-05-15T10:16:01Z</time>
      </trkpt>
      <trkpt lat="47.24235" lon="4.93518">
        <ele>520</ele>
        <time>2022-05-15T10:16:03Z</time>
      </trkpt>
      <trkpt lat="47.24236" lon="4.93518">
        <ele>523</ele>
        <time>2022-05-15T10:16:04Z</time>
      </trkpt>
      <trkpt lat="47.24237" lon="4.93518">
        <ele>523</ele>
        <time>2022-05-15T10:16:05Z</time>
      </trkpt>
      <trkpt lat="47.24238" lon="4.93519">
        <ele>523</ele>
        <time>2022-05-15T10:16:06Z</time>
      </trkpt>
      <trkpt lat="47.2424" lon="4.93519">
        <ele>525</ele>
        <time>2022-05-15T10:16:08Z</time>
      </trkpt>
      <trkpt lat="47.24241" lon="4.9352">
        <ele>525</ele>
        <time>2022-05-15T10:16:09Z</time>
      </trkpt>
      <trkpt lat="47.24242" lon="4.93521">
        <ele>525</ele>
        <time>2022-05-15T10:16:10Z</time>
      </trkpt>
      <trkpt lat="47.24243" lon="4.93523">
        <ele>526</ele>
        <time>2022-05-15T10:16:12Z</time>
      </trkpt>
      <trkpt lat="47.24245" lon="4.93523">
        <ele>525</ele>
        <time>2022-05-15T10:16:13Z</time>
      </trkpt>
      <trkpt lat="47.24246" lon="4.93522">
        <ele>525</ele>
        <time>2022-05-15T10:16:14Z</time>
      </trkpt>
      <trkpt lat="47.24247" lon="4.93522">
        <ele>525</ele>
        <time>2022-05-15T10:16:15Z</time>
      </trkpt>
      <trkpt lat="47.24248" lon="4.93522">
        <ele>527</ele>
        <time>2022-05-15T10:16:16Z</time>
      </trkpt>
      <trkpt lat="47.24249" lon="4.93522">
        <ele>526</ele>
        <time>2022-05-15T10:16:17Z</time>
      </trkpt>
      <trkpt lat="47.2425" lon="4.93523">
        <ele>528</ele>
        <time>2022-05-15T10:16:18Z</time>
      </trkpt>
      <trkpt lat="47.24252" lon="4.93524">
        <ele>530</ele>
        <time>2022-05-15T10:16:20Z</time>
      </trkpt>
      <trkpt lat="47.24253" lon="4.93524">
        <ele>530</ele>
        <time>2022-05-15T10:16:23Z</time>
      </trkpt>
      <trkpt lat="47.24254" lon="4.93524">
        <ele>530</ele>
        <time>2022-05-15T10:16:24Z</time>
      </trkpt>
      <trkpt lat="47.24255" lon="4.93524">
        <ele>530</ele>
        <time>2022-05-15T10:16:25Z</time>
      </trkpt>
      <trkpt lat="47.24256" lon="4.93525">
        <ele>532</ele>
        <time>2022-05-15T10:16:29Z</time>
      </trkpt>
      <trkpt lat="47.24258" lon="4.93527">
        <ele>532</ele>
        <time>2022-05-15T10:16:30Z</time>
      </trkpt>
      <trkpt lat="47.24259" lon="4.93527">
        <ele>531</ele>
        <time>2022-05-15T10:16:31Z</time>
      </trkpt>
      <trkpt lat="47.2426" lon="4.93528">
        <ele>530</ele>
        <time>2022-05-15T10:16:32Z</time>
      </trkpt>
      <trkpt lat="47.2426" lon="4.93526">
        <ele>528</ele>
        <time>2022-05-15T10:16:33Z</time>
      </trkpt>
      <trkpt lat="47.24261" lon="4.93524">
        <ele>529</ele>
        <time>2022-05-15T10:16:34Z</time>
      </trkpt>
      <trkpt lat="47.24262" lon="4.93523">
        <ele>527</ele>
        <time>2022-05-15T10:16:35Z</time>
      </trkpt>
      <trkpt lat="47.24264" lon="4.93524">
        <ele>528</ele>
        <time>2022-05-15T10:16:37Z</time>
      </trkpt>
      <trkpt lat="47.24264" lon="4.93525">
        <ele>527</ele>
        <time>2022-05-15T10:16:38Z</time>
      </trkpt>
      <trkpt lat="47.24265" lon="4.93527">
        <ele>527</ele>
        <time>2022-05-15T10:16:39Z</time>
      </trkpt>
      <trkpt lat="47.24267" lon="4.93528">
        <ele>525</ele>
        <time>2022-05-15T10:16:40Z</time>
      </trkpt>
      <trkpt lat="47.24268" lon="4.93528">
        <ele>524</ele>
        <time>2022-05-15T10:16:41Z</time>
      </trkpt>
      <trkpt lat="47.24269" lon="4.93528">
        <ele>524</ele>
        <time>2022-05-15T10:16:42Z</time>
      </trkpt>
      <trkpt lat="47.2427" lon="4.93528">
        <ele>523</ele>
        <time>2022-05-15T10:16:43Z</time>
      </trkpt>
      <trkpt lat="47.24272" lon="4.93528">
        <ele>521</ele>
        <time>2022-05-15T10:16:44Z</time>
      </trkpt>
      <trkpt lat="47.24273" lon="4.93528">
        <ele>521</ele>
        <time>2022-05-15T10:16:45Z</time>
      </trkpt>
      <trkpt lat="47.24274" lon="4.93528">
        <ele>522</ele>
        <time>2022-05-15T10:16:46Z</time>
      </trkpt>
      <trkpt lat="47.24276" lon="4.93528">
        <ele>521</ele>
        <time>2022-05-15T10:16:48Z</time>
      </trkpt>
      <trkpt lat="47.24278" lon="4.93528">
        <ele>522</ele>
        <time>2022-05-15T10:16:50Z</time>
      </trkpt>
      <trkpt lat="47.24279" lon="4.93528">
        <ele>523</ele>
        <time>2022-05-15T10:16:52Z</time>
      </trkpt>
      <trkpt lat="47.24281" lon="4.93528">
        <ele>523</ele>
        <time>2022-05-15T10:16:53Z</time>
      </trkpt>
      <trkpt lat="47.24282" lon="4.93528">
        <ele>522</ele>
        <time>2022-05-15T10:16:54Z</time>
      </trkpt>
      <trkpt lat="47.24283" lon="4.93526">
        <ele>523</ele>
        <time>2022-05-15T10:16:56Z</time>
      </trkpt>
      <trkpt lat="47.24284" lon="4.93524">
        <ele>525</ele>
        <time>2022-05-15T10:16:58Z</time>
      </trkpt>
      <trkpt lat="47.24286" lon="4.93524">
        <ele>528</ele>
        <time>2022-05-15T10:16:59Z</time>
      </trkpt>
      <trkpt lat="47.24287" lon="4.93524">
        <ele>527</ele>
        <time>2022-05-15T10:17:00Z</time>
      </trkpt>
      <trkpt lat="47.24288" lon="4.93524">
        <ele>527</ele>
        <time>2022-05-15T10:17:01Z</time>
      </trkpt>
      <trkpt lat="47.2429" lon="4.93525">
        <ele>529</ele>
        <time>2022-05-15T10:17:03Z</time>
      </trkpt>
      <trkpt lat="47.24292" lon="4.93525">
        <ele>527</ele>
        <time>2022-05-15T10:17:04Z</time>
      </trkpt>
      <trkpt lat="47.24294" lon="4.93525">
        <ele>528</ele>
        <time>2022-05-15T10:17:06Z</time>
      </trkpt>
      <trkpt lat="47.24295" lon="4.93525">
        <ele>527</ele>
        <time>2022-05-15T10:17:07Z</time>
      </trkpt>
      <trkpt lat="47.24296" lon="4.93526">
        <ele>527</ele>
        <time>2022-05-15T10:17:08Z</time>
      </trkpt>
      <trkpt lat="47.24297" lon="4.93526">
        <ele>528</ele>
        <time>2022-05-15T10:17:09Z</time>
      </trkpt>
      <trkpt lat="47.24298" lon="4.93526">
        <ele>528</ele>
        <time>2022-05-15T10:17:10Z</time>
      </trkpt>
      <trkpt lat="47.243" lon="4.93525">
        <ele>529</ele>
        <time>2022-05-15T10:17:11Z</time>
      </trkpt>
      <trkpt lat="47.24301" lon="4.93525">
        <ele>529</ele>
        <time>2022-05-15T10:17:12Z</time>
      </trkpt>
      <trkpt lat="47.24304" lon="4.93526">
        <ele>529</ele>
        <time>2022-05-15T10:17:13Z</time>
      </trkpt>
      <trkpt lat="47.24306" lon="4.93526">
        <ele>529</ele>
        <time>2022-05-15T10:17:14Z</time>
      </trkpt>
      <trkpt lat="47.24307" lon="4.93526">
        <ele>529</ele>
        <time>2022-05-15T10:17:15Z</time>
      </trkpt>
      <trkpt lat="47.24309" lon="4.93526">
        <ele>527</ele>
        <time>2022-05-15T10:17:16Z</time>
      </trkpt>
      <trkpt lat="47.2431" lon="4.93526">
        <ele>526</ele>
        <time>2022-05-15T10:17:17Z</time>
      </trkpt>
      <trkpt lat="47.24312" lon="4.93526">
        <ele>525</ele>
        <time>2022-05-15T10:17:18Z</time>
      </trkpt>
      <trkpt lat="47.24314" lon="4.93527">
        <ele>525</ele>
        <time>2022-05-15T10:17:19Z</time>
      </trkpt>
      <trkpt lat="47.24315" lon="4.93527">
        <ele>524</ele>
        <time>2022-05-15T10:17:20Z</time>
      </trkpt>
      <trkpt lat="47.24317" lon="4.93526">
        <ele>524</ele>
        <time>2022-05-15T10:17:21Z</time>
      </trkpt>
      <trkpt lat="47.24318" lon="4.93526">
        <ele>525</ele>
        <time>2022-05-15T10:17:22Z</time>
      </trkpt>
      <trkpt lat="47.24319" lon="4.93525">
        <ele>524</ele>
        <time>2022-05-15T10:17:23Z</time>
      </trkpt>
      <trkpt lat="47.2432" lon="4.93524">
        <ele>524</ele>
        <time>2022-05-15T10:17:24Z</time>
      </trkpt>
      <trkpt lat="47.24322" lon="4.93523">
        <ele>526</ele>
        <time>2022-05-15T10:17:25Z</time>
      </trkpt>
      <trkpt lat="47.24323" lon="4.93523">
        <ele>524</ele>
        <time>2022-05-15T10:17:26Z</time>
      </trkpt>
      <trkpt lat="47.24325" lon="4.93524">
        <ele>524</ele>
        <time>2022-05-15T10:17:27Z</time>
      </trkpt>
      <trkpt lat="47.24326" lon="4.93524">
        <ele>524</ele>
        <time>2022-05-15T10:17:28Z</time>
      </trkpt>
      <trkpt lat="47.24327" lon="4.93525">
        <ele>522</ele>
        <time>2022-05-15T10:17:29Z</time>
      </trkpt>
      <trkpt lat="47.24328" lon="4.93526">
        <ele>522</ele>
        <time>2022-05-15T10:17:30Z</time>
      </trkpt>
      <trkpt lat="47.24329" lon="4.93526">
        <ele>523</ele>
        <time>2022-05-15T10:17:31Z</time>
      </trkpt>
      <trkpt lat="47.2433" lon="4.93527">
        <ele>522</ele>
        <time>2022-05-15T10:17:34Z</time>
      </trkpt>
      <trkpt lat="47.24332" lon="4.93527">
        <ele>521</ele>
        <time>2022-05-15T10:17:40Z</time>
      </trkpt>
      <trkpt lat="47.24331" lon="4.93524">
        <ele>520</ele>
        <time>2022-05-15T10:17:42Z</time>
      </trkpt>
      <trkpt lat="47.24332" lon="4.93523">
        <ele>522</ele>
        <time>2022-05-15T10:17:45Z</time>
      </trkpt>
      <trkpt lat="47.24333" lon="4.93525">
        <ele>522</ele>
        <time>2022-05-15T10:17:47Z</time>
      </trkpt>
      <trkpt lat="47.24333" lon="4.93527">
        <ele>516</ele>
        <time>2022-05-15T10:17:49Z</time>
      </trkpt>
      <trkpt lat="47.24334" lon="4.93528">
        <ele>520</ele>
        <time>2022-05-15T10:17:53Z</time>
      </trkpt>
      <trkpt lat="47.24334" lon="4.93527">
        <ele>522</ele>
        <time>2022-05-15T10:18:04Z</time>
      </trkpt>
      <trkpt lat="47.24334" lon="4.93525">
        <ele>520</ele>
        <time>2022-05-15T10:18:07Z</time>
      </trkpt>
      <trkpt lat="47.24333" lon="4.93522">
        <ele>521</ele>
        <time>2022-05-15T10:18:09Z</time>
      </trkpt>
      <trkpt lat="47.24333" lon="4.9352">
        <ele>522</ele>
        <time>2022-05-15T10:18:10Z</time>
      </trkpt>
      <trkpt lat="47.24333" lon="4.93517">
        <ele>522</ele>
        <time>2022-05-15T10:18:11Z</time>
      </trkpt>
      <trkpt lat="47.24333" lon="4.93515">
        <ele>523</ele>
        <time>2022-05-15T10:18:12Z</time>
      </trkpt>
      <trkpt lat="47.24334" lon="4.93514">
        <ele>524</ele>
        <time>2022-05-15T10:18:13Z</time>
      </trkpt>
      <trkpt lat="47.24334" lon="4.93511">
        <ele>522</ele>
        <time>2022-05-15T10:18:15Z</time>
      </trkpt>
      <trkpt lat="47.24334" lon="4.9351">
        <ele>522</ele>
        <time>2022-05-15T10:18:16Z</time>
      </trkpt>
      <trkpt lat="47.24333" lon="4.93508">
        <ele>521</ele>
        <time>2022-05-15T10:18:17Z</time>
      </trkpt>
      <trkpt lat="47.24333" lon="4.93507">
        <ele>521</ele>
        <time>2022-05-15T10:18:18Z</time>
      </trkpt>
      <trkpt lat="47.24332" lon="4.93504">
        <ele>520</ele>
        <time>2022-05-15T10:18:20Z</time>
      </trkpt>
      <trkpt lat="47.24331" lon="4.93502">
        <ele>519</ele>
        <time>2022-05-15T10:18:21Z</time>
      </trkpt>
      <trkpt lat="47.24331" lon="4.935">
        <ele>521</ele>
        <time>2022-05-15T10:18:22Z</time>
      </trkpt>
      <trkpt lat="47.24331" lon="4.93498">
        <ele>521</ele>
        <time>2022-05-15T10:18:23Z</time>
      </trkpt>
      <trkpt lat="47.2433" lon="4.93495">
        <ele>522</ele>
        <time>2022-05-15T10:18:25Z</time>
      </trkpt>
      <trkpt lat="47.2433" lon="4.93493">
        <ele>521</ele>
        <time>2022-05-15T10:18:26Z</time>
      </trkpt>
      <trkpt lat="47.2433" lon="4.93491">
        <ele>522</ele>
        <time>2022-05-15T10:18:27Z</time>
      </trkpt>
      <trkpt lat="47.24331" lon="4.93488">
        <ele>522</ele>
        <time>2022-05-15T10:18:29Z</time>
      </trkpt>
      <trkpt lat="47.24331" lon="4.93486">
        <ele>522</ele>
        <time>2022-05-15T10:18:30Z</time>
      </trkpt>
      <trkpt lat="47.24332" lon="4.93484">
        <ele>522</ele>
        <time>2022-05-15T10:18:31Z</time>
      </trkpt>
      <trkpt lat="47.24332" lon="4.93482">
        <ele>522</ele>
        <time>2022-05-15T10:18:32Z</time>
      </trkpt>
      <trkpt lat="47.24333" lon="4.9348">
        <ele>522</ele>
        <time>2022-05-15T10:18:33Z</time>
      </trkpt>
      <trkpt lat="47.24333" lon="4.93478">
        <ele>521</ele>
        <time>2022-05-15T10:18:34Z</time>
      </trkpt>
      <trkpt lat="47.24333" lon="4.93477">
        <ele>521</ele>
        <time>2022-05-15T10:18:35Z</time>
      </trkpt>
      <trkpt lat="47.24333" lon="4.93475">
        <ele>521</ele>
        <time>2022-05-15T10:18:36Z</time>
      </trkpt>
      <trkpt lat="47.24334" lon="4.93473">
        <ele>521</ele>
        <time>2022-05-15T10:18:37Z</time>
      </trkpt>
      <trkpt lat="47.24334" lon="4.93472">
        <ele>520</ele>
        <time>2022-05-15T10:18:38Z</time>
      </trkpt>
      <trkpt lat="47.24336" lon="4.93471">
        <ele>521</ele>
        <time>2022-05-15T10:18:40Z</time>
      </trkpt>
      <trkpt lat="47.24336" lon="4.93469">
        <ele>521</ele>
        <time>2022-05-15T10:18:41Z</time>
      </trkpt>
      <trkpt lat="47.24337" lon="4.93467">
        <ele>522</ele>
        <time>2022-05-15T10:18:42Z</time>
      </trkpt>
      <trkpt lat="47.24338" lon="4.93465">
        <ele>522</ele>
        <time>2022-05-15T10:18:43Z</time>
      </trkpt>
      <trkpt lat="47.24338" lon="4.93464">
        <ele>523</ele>
        <time>2022-05-15T10:18:44Z</time>
      </trkpt>
      <trkpt lat="47.2434" lon="4.93462">
        <ele>523</ele>
        <time>2022-05-15T10:18:46Z</time>
      </trkpt>
      <trkpt lat="47.24341" lon="4.93461">
        <ele>523</ele>
        <time>2022-05-15T10:18:47Z</time>
      </trkpt>
      <trkpt lat="47.24342" lon="4.9346">
        <ele>524</ele>
        <time>2022-05-15T10:18:48Z</time>
      </trkpt>
      <trkpt lat="47.24344" lon="4.93458">
        <ele>523</ele>
        <time>2022-05-15T10:18:49Z</time>
      </trkpt>
      <trkpt lat="47.24345" lon="4.93457">
        <ele>523</ele>
        <time>2022-05-15T10:18:50Z</time>
      </trkpt>
      <trkpt lat="47.24346" lon="4.93454">
        <ele>521</ele>
        <time>2022-05-15T10:18:52Z</time>
      </trkpt>
      <trkpt lat="47.24347" lon="4.93452">
        <ele>521</ele>
        <time>2022-05-15T10:18:53Z</time>
      </trkpt>
      <trkpt lat="47.24347" lon="4.9345">
        <ele>522</ele>
        <time>2022-05-15T10:18:54Z</time>
      </trkpt>
      <trkpt lat="47.24347" lon="4.93449">
        <ele>521</ele>
        <time>2022-05-15T10:18:55Z</time>
      </trkpt>
      <trkpt lat="47.24348" lon="4.93446">
        <ele>521</ele>
        <time>2022-05-15T10:18:57Z</time>
      </trkpt>
      <trkpt lat="47.24349" lon="4.93445">
        <ele>521</ele>
        <time>2022-05-15T10:18:58Z</time>
      </trkpt>
      <trkpt lat="47.2435" lon="4.93443">
        <ele>522</ele>
        <time>2022-05-15T10:19:00Z</time>
      </trkpt>
      <trkpt lat="47.24351" lon="4.93442">
        <ele>521</ele>
        <time>2022-05-15T10:19:03Z</time>
      </trkpt>
      <trkpt lat="47.24353" lon="4.93441">
        <ele>521</ele>
        <time>2022-05-15T10:19:04Z</time>
      </trkpt>
      <trkpt lat="47.24354" lon="4.9344">
        <ele>521</ele>
        <time>2022-05-15T10:19:05Z</time>
      </trkpt>
      <trkpt lat="47.24354" lon="4.93439">
        <ele>522</ele>
        <time>2022-05-15T10:19:06Z</time>
      </trkpt>
      <trkpt lat="47.24355" lon="4.93437">
        <ele>521</ele>
        <time>2022-05-15T10:19:07Z</time>
      </trkpt>
      <trkpt lat="47.24356" lon="4.93436">
        <ele>520</ele>
        <time>2022-05-15T10:19:08Z</time>
      </trkpt>
      <trkpt lat="47.24357" lon="4.93435">
        <ele>520</ele>
        <time>2022-05-15T10:19:09Z</time>
      </trkpt>
      <trkpt lat="47.24359" lon="4.93434">
        <ele>519</ele>
        <time>2022-05-15T10:19:10Z</time>
      </trkpt>
      <trkpt lat="47.24361" lon="4.93434">
        <ele>519</ele>
        <time>2022-05-15T10:19:11Z</time>
      </trkpt>
      <trkpt lat="47.24362" lon="4.93432">
        <ele>520</ele>
        <time>2022-05-15T10:19:13Z</time>
      </trkpt>
      <trkpt lat="47.24362" lon="4.93431">
        <ele>522</ele>
        <time>2022-05-15T10:19:14Z</time>
      </trkpt>
      <trkpt lat="47.24362" lon="4.93428">
        <ele>522</ele>
        <time>2022-05-15T10:19:16Z</time>
      </trkpt>
      <trkpt lat="47.24363" lon="4.93426">
        <ele>522</ele>
        <time>2022-05-15T10:19:17Z</time>
      </trkpt>
      <trkpt lat="47.24364" lon="4.93424">
        <ele>523</ele>
        <time>2022-05-15T10:19:18Z</time>
      </trkpt>
      <trkpt lat="47.24365" lon="4.93421">
        <ele>523</ele>
        <time>2022-05-15T10:19:19Z</time>
      </trkpt>
      <trkpt lat="47.24366" lon="4.9342">
        <ele>521</ele>
        <time>2022-05-15T10:19:20Z</time>
      </trkpt>
      <trkpt lat="47.24366" lon="4.93418">
        <ele>521</ele>
        <time>2022-05-15T10:19:22Z</time>
      </trkpt>
      <trkpt lat="47.24367" lon="4.93416">
        <ele>519</ele>
        <time>2022-05-15T10:19:24Z</time>
      </trkpt>
      <trkpt lat="47.24369" lon="4.93415">
        <ele>520</ele>
        <time>2022-05-15T10:19:25Z</time>
      </trkpt>
      <trkpt lat="47.2437" lon="4.93413">
        <ele>519</ele>
        <time>2022-05-15T10:19:27Z</time>
      </trkpt>
      <trkpt lat="47.24371" lon="4.93411">
        <ele>518</ele>
        <time>2022-05-15T10:19:29Z</time>
      </trkpt>
      <trkpt lat="47.24371" lon="4.93409">
        <ele>519</ele>
        <time>2022-05-15T10:19:30Z</time>
      </trkpt>
      <trkpt lat="47.24372" lon="4.93406">
        <ele>517</ele>
        <time>2022-05-15T10:19:31Z</time>
      </trkpt>
      <trkpt lat="47.24372" lon="4.93404">
        <ele>515</ele>
        <time>2022-05-15T10:19:32Z</time>
      </trkpt>
      <trkpt lat="47.24373" lon="4.93402">
        <ele>515</ele>
        <time>2022-05-15T10:19:33Z</time>
      </trkpt>
      <trkpt lat="47.24375" lon="4.934">
        <ele>515</ele>
        <time>2022-05-15T10:19:34Z</time>
      </trkpt>
      <trkpt lat="47.24376" lon="4.934">
        <ele>515</ele>
        <time>2022-05-15T10:19:35Z</time>
      </trkpt>
      <trkpt lat="47.24377" lon="4.93398">
        <ele>514</ele>
        <time>2022-05-15T10:19:36Z</time>
      </trkpt>
      <trkpt lat="47.24378" lon="4.93397">
        <ele>513</ele>
        <time>2022-05-15T10:19:37Z</time>
      </trkpt>
      <trkpt lat="47.24379" lon="4.93395">
        <ele>513</ele>
        <time>2022-05-15T10:19:38Z</time>
      </trkpt>
      <trkpt lat="47.2438" lon="4.93393">
        <ele>513</ele>
        <time>2022-05-15T10:19:39Z</time>
      </trkpt>
      <trkpt lat="47.24381" lon="4.93391">
        <ele>512</ele>
        <time>2022-05-15T10:19:40Z</time>
      </trkpt>
      <trkpt lat="47.24381" lon="4.9339">
        <ele>513</ele>
        <time>2022-05-15T10:19:41Z</time>
      </trkpt>
      <trkpt lat="47.24382" lon="4.93389">
        <ele>513</ele>
        <time>2022-05-15T10:19:43Z</time>
      </trkpt>
      <trkpt lat="47.24382" lon="4.93387">
        <ele>513</ele>
        <time>2022-05-15T10:19:45Z</time>
      </trkpt>
      <trkpt lat="47.24382" lon="4.93385">
        <ele>513</ele>
        <time>2022-05-15T10:19:46Z</time>
      </trkpt>
      <trkpt lat="47.24383" lon="4.93383">
        <ele>514</ele>
        <time>2022-05-15T10:19:47Z</time>
      </trkpt>
      <trkpt lat="47.24383" lon="4.93382">
        <ele>514</ele>
        <time>2022-05-15T10:19:48Z</time>
      </trkpt>
      <trkpt lat="47.24384" lon="4.93381">
        <ele>514</ele>
        <time>2022-05-15T10:19:49Z</time>
      </trkpt>
      <trkpt lat="47.24385" lon="4.9338">
        <ele>515</ele>
        <time>2022-05-15T10:19:50Z</time>
      </trkpt>
      <trkpt lat="47.24386" lon="4.93379">
        <ele>515</ele>
        <time>2022-05-15T10:19:51Z</time>
      </trkpt>
      <trkpt lat="47.24387" lon="4.93378">
        <ele>516</ele>
        <time>2022-05-15T10:19:53Z</time>
      </trkpt>
      <trkpt lat="47.24388" lon="4.93377">
        <ele>516</ele>
        <time>2022-05-15T10:19:54Z</time>
      </trkpt>
      <trkpt lat="47.24388" lon="4.93375">
        <ele>516</ele>
        <time>2022-05-15T10:19:55Z</time>
      </trkpt>
      <trkpt lat="47.24389" lon="4.93373">
        <ele>516</ele>
        <time>2022-05-15T10:19:56Z</time>
      </trkpt>
      <trkpt lat="47.2439" lon="4.93371">
        <ele>516</ele>
        <time>2022-05-15T10:19:57Z</time>
      </trkpt>
      <trkpt lat="47.24392" lon="4.9337">
        <ele>516</ele>
        <time>2022-05-15T10:19:58Z</time>
      </trkpt>
      <trkpt lat="47.24393" lon="4.93369">
        <ele>516</ele>
        <time>2022-05-15T10:19:59Z</time>
      </trkpt>
      <trkpt lat="47.24394" lon="4.93368">
        <ele>515</ele>
        <time>2022-05-15T10:20:00Z</time>
      </trkpt>
      <trkpt lat="47.24396" lon="4.93367">
        <ele>514</ele>
        <time>2022-05-15T10:20:01Z</time>
      </trkpt>
      <trkpt lat="47.24397" lon="4.93365">
        <ele>514</ele>
        <time>2022-05-15T10:20:02Z</time>
      </trkpt>
      <trkpt lat="47.24397" lon="4.93364">
        <ele>514</ele>
        <time>2022-05-15T10:20:03Z</time>
      </trkpt>
      <trkpt lat="47.24398" lon="4.93362">
        <ele>515</ele>
        <time>2022-05-15T10:20:04Z</time>
      </trkpt>
      <trkpt lat="47.24398" lon="4.9336">
        <ele>515</ele>
        <time>2022-05-15T10:20:05Z</time>
      </trkpt>
      <trkpt lat="47.24399" lon="4.93358">
        <ele>516</ele>
        <time>2022-05-15T10:20:07Z</time>
      </trkpt>
      <trkpt lat="47.244" lon="4.93356">
        <ele>516</ele>
        <time>2022-05-15T10:20:08Z</time>
      </trkpt>
      <trkpt lat="47.24401" lon="4.93355">
        <ele>517</ele>
        <time>2022-05-15T10:20:09Z</time>
      </trkpt>
      <trkpt lat="47.24402" lon="4.93353">
        <ele>517</ele>
        <time>2022-05-15T10:20:10Z</time>
      </trkpt>
      <trkpt lat="47.24402" lon="4.93351">
        <ele>520</ele>
        <time>2022-05-15T10:20:12Z</time>
      </trkpt>
      <trkpt lat="47.24401" lon="4.93349">
        <ele>522</ele>
        <time>2022-05-15T10:20:14Z</time>
      </trkpt>
      <trkpt lat="47.24402" lon="4.93346">
        <ele>523</ele>
        <time>2022-05-15T10:20:16Z</time>
      </trkpt>
      <trkpt lat="47.24403" lon="4.93346">
        <ele>523</ele>
        <time>2022-05-15T10:20:17Z</time>
      </trkpt>
      <trkpt lat="47.24404" lon="4.93345">
        <ele>523</ele>
        <time>2022-05-15T10:20:18Z</time>
      </trkpt>
      <trkpt lat="47.24405" lon="4.93344">
        <ele>523</ele>
        <time>2022-05-15T10:20:19Z</time>
      </trkpt>
      <trkpt lat="47.24405" lon="4.93343">
        <ele>523</ele>
        <time>2022-05-15T10:20:20Z</time>
      </trkpt>
      <trkpt lat="47.24405" lon="4.93341">
        <ele>524</ele>
        <time>2022-05-15T10:20:21Z</time>
      </trkpt>
      <trkpt lat="47.24405" lon="4.9334">
        <ele>523</ele>
        <time>2022-05-15T10:20:22Z</time>
      </trkpt>
      <trkpt lat="47.24404" lon="4.93338">
        <ele>523</ele>
        <time>2022-05-15T10:20:23Z</time>
      </trkpt>
      <trkpt lat="47.24404" lon="4.93337">
        <ele>523</ele>
        <time>2022-05-15T10:20:24Z</time>
      </trkpt>
      <trkpt lat="47.24404" lon="4.93335">
        <ele>523</ele>
        <time>2022-05-15T10:20:25Z</time>
      </trkpt>
      <trkpt lat="47.24404" lon="4.93333">
        <ele>523</ele>
        <time>2022-05-15T10:20:26Z</time>
      </trkpt>
      <trkpt lat="47.24406" lon="4.93331">
        <ele>523</ele>
        <time>2022-05-15T10:20:27Z</time>
      </trkpt>
      <trkpt lat="47.24406" lon="4.9333">
        <ele>523</ele>
        <time>2022-05-15T10:20:28Z</time>
      </trkpt>
      <trkpt lat="47.24407" lon="4.93328">
        <ele>524</ele>
        <time>2022-05-15T10:20:29Z</time>
      </trkpt>
      <trkpt lat="47.24407" lon="4.93326">
        <ele>524</ele>
        <time>2022-05-15T10:20:30Z</time>
      </trkpt>
      <trkpt lat="47.24407" lon="4.93324">
        <ele>525</ele>
        <time>2022-05-15T10:20:31Z</time>
      </trkpt>
      <trkpt lat="47.24408" lon="4.93323">
        <ele>525</ele>
        <time>2022-05-15T10:20:32Z</time>
      </trkpt>
      <trkpt lat="47.24409" lon="4.93321">
        <ele>522</ele>
        <time>2022-05-15T10:20:33Z</time>
      </trkpt>
      <trkpt lat="47.2441" lon="4.93319">
        <ele>523</ele>
        <time>2022-05-15T10:20:34Z</time>
      </trkpt>
      <trkpt lat="47.24411" lon="4.93318">
        <ele>522</ele>
        <time>2022-05-15T10:20:35Z</time>
      </trkpt>
      <trkpt lat="47.24412" lon="4.93317">
        <ele>522</ele>
        <time>2022-05-15T10:20:36Z</time>
      </trkpt>
      <trkpt lat="47.24413" lon="4.93316">
        <ele>524</ele>
        <time>2022-05-15T10:20:37Z</time>
      </trkpt>
      <trkpt lat="47.24413" lon="4.93314">
        <ele>521</ele>
        <time>2022-05-15T10:20:38Z</time>
      </trkpt>
      <trkpt lat="47.24414" lon="4.93312">
        <ele>522</ele>
        <time>2022-05-15T10:20:39Z</time>
      </trkpt>
      <trkpt lat="47.24414" lon="4.93311">
        <ele>520</ele>
        <time>2022-05-15T10:20:40Z</time>
      </trkpt>
      <trkpt lat="47.24415" lon="4.9331">
        <ele>520</ele>
        <time>2022-05-15T10:20:41Z</time>
      </trkpt>
      <trkpt lat="47.24417" lon="4.93309">
        <ele>519</ele>
        <time>2022-05-15T10:20:42Z</time>
      </trkpt>
      <trkpt lat="47.24418" lon="4.93308">
        <ele>519</ele>
        <time>2022-05-15T10:20:43Z</time>
      </trkpt>
      <trkpt lat="47.24419" lon="4.93306">
        <ele>517</ele>
        <time>2022-05-15T10:20:44Z</time>
      </trkpt>
      <trkpt lat="47.2442" lon="4.93305">
        <ele>517</ele>
        <time>2022-05-15T10:20:45Z</time>
      </trkpt>
      <trkpt lat="47.24421" lon="4.93303">
        <ele>516</ele>
        <time>2022-05-15T10:20:46Z</time>
      </trkpt>
      <trkpt lat="47.24421" lon="4.93302">
        <ele>516</ele>
        <time>2022-05-15T10:20:47Z</time>
      </trkpt>
      <trkpt lat="47.24422" lon="4.93301">
        <ele>518</ele>
        <time>2022-05-15T10:20:48Z</time>
      </trkpt>
      <trkpt lat="47.24423" lon="4.93299">
        <ele>517</ele>
        <time>2022-05-15T10:20:49Z</time>
      </trkpt>
      <trkpt lat="47.24424" lon="4.93298">
        <ele>517</ele>
        <time>2022-05-15T10:20:50Z</time>
      </trkpt>
      <trkpt lat="47.24426" lon="4.93297">
        <ele>517</ele>
        <time>2022-05-15T10:20:51Z</time>
      </trkpt>
      <trkpt lat="47.24428" lon="4.93296">
        <ele>517</ele>
        <time>2022-05-15T10:20:52Z</time>
      </trkpt>
      <trkpt lat="47.2443" lon="4.93297">
        <ele>519</ele>
        <time>2022-05-15T10:20:54Z</time>
      </trkpt>
      <trkpt lat="47.2443" lon="4.933">
        <ele>518</ele>
        <time>2022-05-15T10:20:56Z</time>
      </trkpt>
      <trkpt lat="47.24431" lon="4.93301">
        <ele>518</ele>
        <time>2022-05-15T10:20:57Z</time>
      </trkpt>
      <trkpt lat="47.24432" lon="4.93303">
        <ele>517</ele>
        <time>2022-05-15T10:20:58Z</time>
      </trkpt>
      <trkpt lat="47.24433" lon="4.93304">
        <ele>517</ele>
        <time>2022-05-15T10:20:59Z</time>
      </trkpt>
      <trkpt lat="47.24434" lon="4.93305">
        <ele>517</ele>
        <time>2022-05-15T10:21:00Z</time>
      </trkpt>
      <trkpt lat="47.24435" lon="4.93305">
        <ele>517</ele>
        <time>2022-05-15T10:21:01Z</time>
      </trkpt>
      <trkpt lat="47.24436" lon="4.93305">
        <ele>516</ele>
        <time>2022-05-15T10:21:02Z</time>
      </trkpt>
      <trkpt lat="47.24437" lon="4.93305">
        <ele>516</ele>
        <time>2022-05-15T10:21:03Z</time>
      </trkpt>
      <trkpt lat="47.24438" lon="4.93305">
        <ele>516</ele>
        <time>2022-05-15T10:21:07Z</time>
      </trkpt>
      <trkpt lat="47.24439" lon="4.93305">
        <ele>515</ele>
        <time>2022-05-15T10:21:10Z</time>
      </trkpt>
      <trkpt lat="47.2444" lon="4.93304">
        <ele>516</ele>
        <time>2022-05-15T10:21:12Z</time>
      </trkpt>
      <trkpt lat="47.24441" lon="4.93304">
        <ele>515</ele>
        <time>2022-05-15T10:21:14Z</time>
      </trkpt>
      <trkpt lat="47.24442" lon="4.93302">
        <ele>516</ele>
        <time>2022-05-15T10:21:16Z</time>
      </trkpt>
      <trkpt lat="47.24443" lon="4.93301">
        <ele>518</ele>
        <time>2022-05-15T10:21:19Z</time>
      </trkpt>
      <trkpt lat="47.24444" lon="4.933">
        <ele>516</ele>
        <time>2022-05-15T10:21:20Z</time>
      </trkpt>
      <trkpt lat="47.24446" lon="4.93299">
        <ele>516</ele>
        <time>2022-05-15T10:21:21Z</time>
      </trkpt>
      <trkpt lat="47.24447" lon="4.93299">
        <ele>515</ele>
        <time>2022-05-15T10:21:22Z</time>
      </trkpt>
      <trkpt lat="47.24448" lon="4.93298">
        <ele>516</ele>
        <time>2022-05-15T10:21:24Z</time>
      </trkpt>
      <trkpt lat="47.2445" lon="4.93298">
        <ele>517</ele>
        <time>2022-05-15T10:21:26Z</time>
      </trkpt>
      <trkpt lat="47.24451" lon="4.93298">
        <ele>518</ele>
        <time>2022-05-15T10:21:28Z</time>
      </trkpt>
      <trkpt lat="47.24452" lon="4.93297">
        <ele>518</ele>
        <time>2022-05-15T10:21:30Z</time>
      </trkpt>
      <trkpt lat="47.24454" lon="4.93296">
        <ele>517</ele>
        <time>2022-05-15T10:21:31Z</time>
      </trkpt>
      <trkpt lat="47.24455" lon="4.93296">
        <ele>516</ele>
        <time>2022-05-15T10:21:32Z</time>
      </trkpt>
      <trkpt lat="47.24456" lon="4.93296">
        <ele>518</ele>
        <time>2022-05-15T10:21:34Z</time>
      </trkpt>
      <trkpt lat="47.24457" lon="4.93296">
        <ele>519</ele>
        <time>2022-05-15T10:21:35Z</time>
      </trkpt>
      <trkpt lat="47.24458" lon="4.93296">
        <ele>518</ele>
        <time>2022-05-15T10:21:36Z</time>
      </trkpt>
      <trkpt lat="47.2446" lon="4.93295">
        <ele>517</ele>
        <time>2022-05-15T10:21:38Z</time>
      </trkpt>
      <trkpt lat="47.24461" lon="4.93294">
        <ele>517</ele>
        <time>2022-05-15T10:21:40Z</time>
      </trkpt>
      <trkpt lat="47.24463" lon="4.93294">
        <ele>517</ele>
        <time>2022-05-15T10:21:41Z</time>
      </trkpt>
      <trkpt lat="47.24464" lon="4.93294">
        <ele>517</ele>
        <time>2022-05-15T10:21:42Z</time>
      </trkpt>
      <trkpt lat="47.24465" lon="4.93295">
        <ele>517</ele>
        <time>2022-05-15T10:21:44Z</time>
      </trkpt>
      <trkpt lat="47.24466" lon="4.93295">
        <ele>517</ele>
        <time>2022-05-15T10:21:45Z</time>
      </trkpt>
      <trkpt lat="47.24467" lon="4.93295">
        <ele>518</ele>
        <time>2022-05-15T10:21:46Z</time>
      </trkpt>
      <trkpt lat="47.24468" lon="4.93294">
        <ele>518</ele>
        <time>2022-05-15T10:21:47Z</time>
      </trkpt>
      <trkpt lat="47.2447" lon="4.93294">
        <ele>519</ele>
        <time>2022-05-15T10:21:49Z</time>
      </trkpt>
      <trkpt lat="47.24472" lon="4.93294">
        <ele>518</ele>
        <time>2022-05-15T10:21:50Z</time>
      </trkpt>
      <trkpt lat="47.24473" lon="4.93294">
        <ele>517</ele>
        <time>2022-05-15T10:21:51Z</time>
      </trkpt>
      <trkpt lat="47.24474" lon="4.93293">
        <ele>517</ele>
        <time>2022-05-15T10:21:52Z</time>
      </trkpt>
      <trkpt lat="47.24476" lon="4.93293">
        <ele>518</ele>
        <time>2022-05-15T10:21:53Z</time>
      </trkpt>
      <trkpt lat="47.24478" lon="4.93293">
        <ele>518</ele>
        <time>2022-05-15T10:21:54Z</time>
      </trkpt>
      <trkpt lat="47.2448" lon="4.93293">
        <ele>519</ele>
        <time>2022-05-15T10:21:56Z</time>
      </trkpt>
      <trkpt lat="47.24481" lon="4.93294">
        <ele>519</ele>
        <time>2022-05-15T10:21:57Z</time>
      </trkpt>
      <trkpt lat="47.24482" lon="4.93296">
        <ele>521</ele>
        <time>2022-05-15T10:21:59Z</time>
      </trkpt>
      <trkpt lat="47.24484" lon="4.93297">
        <ele>521</ele>
        <time>2022-05-15T10:22:00Z</time>
      </trkpt>
      <trkpt lat="47.24485" lon="4.93298">
        <ele>520</ele>
        <time>2022-05-15T10:22:01Z</time>
      </trkpt>
      <trkpt lat="47.24487" lon="4.93297">
        <ele>520</ele>
        <time>2022-05-15T10:22:04Z</time>
      </trkpt>
      <trkpt lat="47.24487" lon="4.93295">
        <ele>517</ele>
        <time>2022-05-15T10:22:05Z</time>
      </trkpt>
      <trkpt lat="47.24488" lon="4.93295">
        <ele>519</ele>
        <time>2022-05-15T10:22:09Z</time>
      </trkpt>
      <trkpt lat="47.2449" lon="4.93295">
        <ele>519</ele>
        <time>2022-05-15T10:22:10Z</time>
      </trkpt>
      <trkpt lat="47.24491" lon="4.93295">
        <ele>518</ele>
        <time>2022-05-15T10:22:11Z</time>
      </trkpt>
      <trkpt lat="47.24492" lon="4.93295">
        <ele>517</ele>
        <time>2022-05-15T10:22:12Z</time>
      </trkpt>
      <trkpt lat="47.24494" lon="4.93296">
        <ele>516</ele>
        <time>2022-05-15T10:22:13Z</time>
      </trkpt>
      <trkpt lat="47.24496" lon="4.93296">
        <ele>518</ele>
        <time>2022-05-15T10:22:14Z</time>
      </trkpt>
      <trkpt lat="47.24497" lon="4.93296">
        <ele>519</ele>
        <time>2022-05-15T10:22:15Z</time>
      </trkpt>
      <trkpt lat="47.24499" lon="4.93297">
        <ele>523</ele>
        <time>2022-05-15T10:22:16Z</time>
      </trkpt>
      <trkpt lat="47.245" lon="4.93297">
        <ele>522</ele>
        <time>2022-05-15T10:22:17Z</time>
      </trkpt>
      <trkpt lat="47.24502" lon="4.93298">
        <ele>523</ele>
        <time>2022-05-15T10:22:18Z</time>
      </trkpt>
      <trkpt lat="47.24503" lon="4.93299">
        <ele>524</ele>
        <time>2022-05-15T10:22:19Z</time>
      </trkpt>
      <trkpt lat="47.24504" lon="4.93299">
        <ele>523</ele>
        <time>2022-05-15T10:22:20Z</time>
      </trkpt>
      <trkpt lat="47.24505" lon="4.93299">
        <ele>523</ele>
        <time>2022-05-15T10:22:21Z</time>
      </trkpt>
      <trkpt lat="47.24506" lon="4.933">
        <ele>522</ele>
        <time>2022-05-15T10:22:22Z</time>
      </trkpt>
      <trkpt lat="47.24508" lon="4.93301">
        <ele>525</ele>
        <time>2022-05-15T10:22:24Z</time>
      </trkpt>
      <trkpt lat="47.24509" lon="4.93301">
        <ele>525</ele>
        <time>2022-05-15T10:22:25Z</time>
      </trkpt>
      <trkpt lat="47.24511" lon="4.93302">
        <ele>525</ele>
        <time>2022-05-15T10:22:26Z</time>
      </trkpt>
      <trkpt lat="47.24512" lon="4.93303">
        <ele>526</ele>
        <time>2022-05-15T10:22:27Z</time>
      </trkpt>
      <trkpt lat="47.24514" lon="4.93304">
        <ele>524</ele>
        <time>2022-05-15T10:22:28Z</time>
      </trkpt>
      <trkpt lat="47.24515" lon="4.93306">
        <ele>524</ele>
        <time>2022-05-15T10:22:29Z</time>
      </trkpt>
      <trkpt lat="47.24516" lon="4.93306">
        <ele>524</ele>
        <time>2022-05-15T10:22:30Z</time>
      </trkpt>
      <trkpt lat="47.24517" lon="4.93308">
        <ele>523</ele>
        <time>2022-05-15T10:22:31Z</time>
      </trkpt>
      <trkpt lat="47.24518" lon="4.93309">
        <ele>522</ele>
        <time>2022-05-15T10:22:32Z</time>
      </trkpt>
      <trkpt lat="47.24519" lon="4.9331">
        <ele>522</ele>
        <time>2022-05-15T10:22:33Z</time>
      </trkpt>
      <trkpt lat="47.2452" lon="4.93311">
        <ele>523</ele>
        <time>2022-05-15T10:22:34Z</time>
      </trkpt>
      <trkpt lat="47.24521" lon="4.93312">
        <ele>522</ele>
        <time>2022-05-15T10:22:35Z</time>
      </trkpt>
      <trkpt lat="47.24522" lon="4.93313">
        <ele>523</ele>
        <time>2022-05-15T10:22:36Z</time>
      </trkpt>
      <trkpt lat="47.24524" lon="4.93314">
        <ele>523</ele>
        <time>2022-05-15T10:22:37Z</time>
      </trkpt>
      <trkpt lat="47.24525" lon="4.93315">
        <ele>523</ele>
        <time>2022-05-15T10:22:38Z</time>
      </trkpt>
      <trkpt lat="47.24526" lon="4.93315">
        <ele>522</ele>
        <time>2022-05-15T10:22:39Z</time>
      </trkpt>
      <trkpt lat="47.24527" lon="4.93316">
        <ele>522</ele>
        <time>2022-05-15T10:22:40Z</time>
      </trkpt>
      <trkpt lat="47.24529" lon="4.93315">
        <ele>521</ele>
        <time>2022-05-15T10:22:42Z</time>
      </trkpt>
      <trkpt lat="47.24531" lon="4.93315">
        <ele>521</ele>
        <time>2022-05-15T10:22:43Z</time>
      </trkpt>
      <trkpt lat="47.24532" lon="4.93315">
        <ele>521</ele>
        <time>2022-05-15T10:22:44Z</time>
      </trkpt>
      <trkpt lat="47.24533" lon="4.93315">
        <ele>520</ele>
        <time>2022-05-15T10:22:45Z</time>
      </trkpt>
      <trkpt lat="47.24534" lon="4.93315">
        <ele>521</ele>
        <time>2022-05-15T10:22:46Z</time>
      </trkpt>
      <trkpt lat="47.24536" lon="4.93316">
        <ele>522</ele>
        <time>2022-05-15T10:22:47Z</time>
      </trkpt>
      <trkpt lat="47.24537" lon="4.93317">
        <ele>522</ele>
        <time>2022-05-15T10:22:48Z</time>
      </trkpt>
      <trkpt lat="47.24538" lon="4.93317">
        <ele>522</ele>
        <time>2022-05-15T10:22:50Z</time>
      </trkpt>
      <trkpt lat="47.2454" lon="4.93317">
        <ele>522</ele>
        <time>2022-05-15T10:22:51Z</time>
      </trkpt>
      <trkpt lat="47.24541" lon="4.93317">
        <ele>522</ele>
        <time>2022-05-15T10:22:52Z</time>
      </trkpt>
      <trkpt lat="47.24542" lon="4.93315">
        <ele>521</ele>
        <time>2022-05-15T10:22:53Z</time>
      </trkpt>
      <trkpt lat="47.24543" lon="4.93314">
        <ele>519</ele>
        <time>2022-05-15T10:22:54Z</time>
      </trkpt>
      <trkpt lat="47.24544" lon="4.93312">
        <ele>518</ele>
        <time>2022-05-15T10:22:55Z</time>
      </trkpt>
      <trkpt lat="47.24547" lon="4.93312">
        <ele>521</ele>
        <time>2022-05-15T10:22:57Z</time>
      </trkpt>
      <trkpt lat="47.24548" lon="4.93313">
        <ele>519</ele>
        <time>2022-05-15T10:22:58Z</time>
      </trkpt>
      <trkpt lat="47.24549" lon="4.93313">
        <ele>518</ele>
        <time>2022-05-15T10:22:59Z</time>
      </trkpt>
      <trkpt lat="47.24551" lon="4.93313">
        <ele>518</ele>
        <time>2022-05-15T10:23:00Z</time>
      </trkpt>
      <trkpt lat="47.24552" lon="4.93312">
        <ele>517</ele>
        <time>2022-05-15T10:23:01Z</time>
      </trkpt>
      <trkpt lat="47.24553" lon="4.93312">
        <ele>517</ele>
        <time>2022-05-15T10:23:02Z</time>
      </trkpt>
      <trkpt lat="47.24554" lon="4.93312">
        <ele>517</ele>
        <time>2022-05-15T10:23:03Z</time>
      </trkpt>
      <trkpt lat="47.24555" lon="4.93312">
        <ele>517</ele>
        <time>2022-05-15T10:23:04Z</time>
      </trkpt>
      <trkpt lat="47.24556" lon="4.93312">
        <ele>514</ele>
        <time>2022-05-15T10:23:05Z</time>
      </trkpt>
      <trkpt lat="47.24558" lon="4.93312">
        <ele>514</ele>
        <time>2022-05-15T10:23:06Z</time>
      </trkpt>
      <trkpt lat="47.24559" lon="4.93311">
        <ele>514</ele>
        <time>2022-05-15T10:23:07Z</time>
      </trkpt>
      <trkpt lat="47.2456" lon="4.93311">
        <ele>516</ele>
        <time>2022-05-15T10:23:09Z</time>
      </trkpt>
      <trkpt lat="47.24561" lon="4.93312">
        <ele>515</ele>
        <time>2022-05-15T10:23:10Z</time>
      </trkpt>
      <trkpt lat="47.24562" lon="4.93313">
        <ele>514</ele>
        <time>2022-05-15T10:23:11Z</time>
      </trkpt>
      <trkpt lat="47.24563" lon="4.93313">
        <ele>514</ele>
        <time>2022-05-15T10:23:12Z</time>
      </trkpt>
      <trkpt lat="47.24564" lon="4.93314">
        <ele>513</ele>
        <time>2022-05-15T10:23:13Z</time>
      </trkpt>
      <trkpt lat="47.24565" lon="4.93314">
        <ele>515</ele>
        <time>2022-05-15T10:23:14Z</time>
      </trkpt>
      <trkpt lat="47.24566" lon="4.93314">
        <ele>516</ele>
        <time>2022-05-15T10:23:15Z</time>
      </trkpt>
      <trkpt lat="47.24568" lon="4.93315">
        <ele>518</ele>
        <time>2022-05-15T10:23:17Z</time>
      </trkpt>
      <trkpt lat="47.24569" lon="4.93316">
        <ele>518</ele>
        <time>2022-05-15T10:23:18Z</time>
      </trkpt>
      <trkpt lat="47.2457" lon="4.93317">
        <ele>520</ele>
        <time>2022-05-15T10:23:19Z</time>
      </trkpt>
      <trkpt lat="47.24571" lon="4.93318">
        <ele>519</ele>
        <time>2022-05-15T10:23:20Z</time>
      </trkpt>
      <trkpt lat="47.24572" lon="4.93321">
        <ele>519</ele>
        <time>2022-05-15T10:23:22Z</time>
      </trkpt>
      <trkpt lat="47.24573" lon="4.93323">
        <ele>517</ele>
        <time>2022-05-15T10:23:24Z</time>
      </trkpt>
      <trkpt lat="47.24574" lon="4.93325">
        <ele>517</ele>
        <time>2022-05-15T10:23:25Z</time>
      </trkpt>
      <trkpt lat="47.24576" lon="4.93326">
        <ele>516</ele>
        <time>2022-05-15T10:23:27Z</time>
      </trkpt>
      <trkpt lat="47.24577" lon="4.93326">
        <ele>516</ele>
        <time>2022-05-15T10:23:29Z</time>
      </trkpt>
      <trkpt lat="47.24578" lon="4.93327">
        <ele>516</ele>
        <time>2022-05-15T10:23:30Z</time>
      </trkpt>
      <trkpt lat="47.24579" lon="4.93328">
        <ele>516</ele>
        <time>2022-05-15T10:23:31Z</time>
      </trkpt>
      <trkpt lat="47.2458" lon="4.93329">
        <ele>517</ele>
        <time>2022-05-15T10:23:33Z</time>
      </trkpt>
      <trkpt lat="47.24581" lon="4.93331">
        <ele>516</ele>
        <time>2022-05-15T10:23:34Z</time>
      </trkpt>
      <trkpt lat="47.24581" lon="4.93333">
        <ele>516</ele>
        <time>2022-05-15T10:23:35Z</time>
      </trkpt>
      <trkpt lat="47.24581" lon="4.93334">
        <ele>516</ele>
        <time>2022-05-15T10:23:36Z</time>
      </trkpt>
      <trkpt lat="47.24582" lon="4.93335">
        <ele>516</ele>
        <time>2022-05-15T10:23:37Z</time>
      </trkpt>
      <trkpt lat="47.24582" lon="4.93337">
        <ele>516</ele>
        <time>2022-05-15T10:23:38Z</time>
      </trkpt>
      <trkpt lat="47.24583" lon="4.93339">
        <ele>517</ele>
        <time>2022-05-15T10:23:40Z</time>
      </trkpt>
      <trkpt lat="47.24584" lon="4.93341">
        <ele>517</ele>
        <time>2022-05-15T10:23:41Z</time>
      </trkpt>
      <trkpt lat="47.24585" lon="4.93343">
        <ele>516</ele>
        <time>2022-05-15T10:23:42Z</time>
      </trkpt>
      <trkpt lat="47.24586" lon="4.93345">
        <ele>517</ele>
        <time>2022-05-15T10:23:43Z</time>
      </trkpt>
      <trkpt lat="47.24587" lon="4.93346">
        <ele>516</ele>
        <time>2022-05-15T10:23:44Z</time>
      </trkpt>
      <trkpt lat="47.24587" lon="4.93348">
        <ele>516</ele>
        <time>2022-05-15T10:23:46Z</time>
      </trkpt>
      <trkpt lat="47.24587" lon="4.9335">
        <ele>516</ele>
        <time>2022-05-15T10:23:48Z</time>
      </trkpt>
      <trkpt lat="47.24588" lon="4.93352">
        <ele>515</ele>
        <time>2022-05-15T10:23:49Z</time>
      </trkpt>
      <trkpt lat="47.24589" lon="4.93354">
        <ele>515</ele>
        <time>2022-05-15T10:23:50Z</time>
      </trkpt>
      <trkpt lat="47.2459" lon="4.93355">
        <ele>516</ele>
        <time>2022-05-15T10:23:51Z</time>
      </trkpt>
      <trkpt lat="47.2459" lon="4.93357">
        <ele>516</ele>
        <time>2022-05-15T10:23:52Z</time>
      </trkpt>
      <trkpt lat="47.24591" lon="4.93359">
        <ele>515</ele>
        <time>2022-05-15T10:23:53Z</time>
      </trkpt>
      <trkpt lat="47.24591" lon="4.9336">
        <ele>510</ele>
        <time>2022-05-15T10:23:54Z</time>
      </trkpt>
      <trkpt lat="47.24592" lon="4.93361">
        <ele>512</ele>
        <time>2022-05-15T10:23:55Z</time>
      </trkpt>
      <trkpt lat="47.24592" lon="4.93363">
        <ele>514</ele>
        <time>2022-05-15T10:23:56Z</time>
      </trkpt>
      <trkpt lat="47.24594" lon="4.93365">
        <ele>513</ele>
        <time>2022-05-15T10:23:58Z</time>
      </trkpt>
      <trkpt lat="47.24595" lon="4.93366">
        <ele>511</ele>
        <time>2022-05-15T10:24:00Z</time>
      </trkpt>
      <trkpt lat="47.24597" lon="4.93368">
        <ele>511</ele>
        <time>2022-05-15T10:24:01Z</time>
      </trkpt>
      <trkpt lat="47.24598" lon="4.9337">
        <ele>511</ele>
        <time>2022-05-15T10:24:02Z</time>
      </trkpt>
      <trkpt lat="47.24599" lon="4.9337">
        <ele>511</ele>
        <time>2022-05-15T10:24:05Z</time>
      </trkpt>
      <trkpt lat="47.246" lon="4.93371">
        <ele>510</ele>
        <time>2022-05-15T10:24:06Z</time>
      </trkpt>
      <trkpt lat="47.24601" lon="4.93372">
        <ele>510</ele>
        <time>2022-05-15T10:24:07Z</time>
      </trkpt>
      <trkpt lat="47.24602" lon="4.93373">
        <ele>506</ele>
        <time>2022-05-15T10:24:09Z</time>
      </trkpt>
      <trkpt lat="47.24602" lon="4.93375">
        <ele>507</ele>
        <time>2022-05-15T10:24:10Z</time>
      </trkpt>
      <trkpt lat="47.24602" lon="4.93377">
        <ele>510</ele>
        <time>2022-05-15T10:24:11Z</time>
      </trkpt>
      <trkpt lat="47.24603" lon="4.93379">
        <ele>506</ele>
        <time>2022-05-15T10:24:13Z</time>
      </trkpt>
      <trkpt lat="47.24604" lon="4.93379">
        <ele>504</ele>
        <time>2022-05-15T10:24:14Z</time>
      </trkpt>
      <trkpt lat="47.24605" lon="4.93381">
        <ele>504</ele>
        <time>2022-05-15T10:24:15Z</time>
      </trkpt>
      <trkpt lat="47.24605" lon="4.93383">
        <ele>505</ele>
        <time>2022-05-15T10:24:16Z</time>
      </trkpt>
      <trkpt lat="47.24605" lon="4.93384">
        <ele>506</ele>
        <time>2022-05-15T10:24:17Z</time>
      </trkpt>
      <trkpt lat="47.24604" lon="4.93386">
        <ele>507</ele>
        <time>2022-05-15T10:24:18Z</time>
      </trkpt>
      <trkpt lat="47.24604" lon="4.93388">
        <ele>506</ele>
        <time>2022-05-15T10:24:19Z</time>
      </trkpt>
      <trkpt lat="47.24604" lon="4.9339">
        <ele>504</ele>
        <time>2022-05-15T10:24:20Z</time>
      </trkpt>
      <trkpt lat="47.24603" lon="4.93391">
        <ele>504</ele>
        <time>2022-05-15T10:24:21Z</time>
      </trkpt>
      <trkpt lat="47.24603" lon="4.93393">
        <ele>504</ele>
        <time>2022-05-15T10:24:22Z</time>
      </trkpt>
      <trkpt lat="47.24604" lon="4.93395">
        <ele>510</ele>
        <time>2022-05-15T10:24:23Z</time>
      </trkpt>
      <trkpt lat="47.24604" lon="4.93397">
        <ele>509</ele>
        <time>2022-05-15T10:24:24Z</time>
      </trkpt>
      <trkpt lat="47.24604" lon="4.93399">
        <ele>508</ele>
        <time>2022-05-15T10:24:25Z</time>
      </trkpt>
      <trkpt lat="47.24604" lon="4.93401">
        <ele>508</ele>
        <time>2022-05-15T10:24:26Z</time>
      </trkpt>
      <trkpt lat="47.24605" lon="4.93403">
        <ele>508</ele>
        <time>2022-05-15T10:24:27Z</time>
      </trkpt>
      <trkpt lat="47.24605" lon="4.93404">
        <ele>509</ele>
        <time>2022-05-15T10:24:28Z</time>
      </trkpt>
      <trkpt lat="47.24606" lon="4.93406">
        <ele>508</ele>
        <time>2022-05-15T10:24:29Z</time>
      </trkpt>
      <trkpt lat="47.24607" lon="4.93408">
        <ele>508</ele>
        <time>2022-05-15T10:24:30Z</time>
      </trkpt>
      <trkpt lat="47.24608" lon="4.93409">
        <ele>508</ele>
        <time>2022-05-15T10:24:32Z</time>
      </trkpt>
      <trkpt lat="47.24609" lon="4.9341">
        <ele>508</ele>
        <time>2022-05-15T10:24:36Z</time>
      </trkpt>
      <trkpt lat="47.24611" lon="4.93411">
        <ele>508</ele>
        <time>2022-05-15T10:24:41Z</time>
      </trkpt>
      <trkpt lat="47.24612" lon="4.9341">
        <ele>508</ele>
        <time>2022-05-15T10:24:42Z</time>
      </trkpt>
      <trkpt lat="47.24614" lon="4.93409">
        <ele>507</ele>
        <time>2022-05-15T10:24:44Z</time>
      </trkpt>
      <trkpt lat="47.24615" lon="4.93408">
        <ele>508</ele>
        <time>2022-05-15T10:24:45Z</time>
      </trkpt>
      <trkpt lat="47.24616" lon="4.93407">
        <ele>510</ele>
        <time>2022-05-15T10:24:47Z</time>
      </trkpt>
      <trkpt lat="47.24618" lon="4.93407">
        <ele>511</ele>
        <time>2022-05-15T10:24:48Z</time>
      </trkpt>
      <trkpt lat="47.24619" lon="4.93408">
        <ele>511</ele>
        <time>2022-05-15T10:24:49Z</time>
      </trkpt>
      <trkpt lat="47.2462" lon="4.93409">
        <ele>511</ele>
        <time>2022-05-15T10:24:50Z</time>
      </trkpt>
      <trkpt lat="47.24622" lon="4.93409">
        <ele>510</ele>
        <time>2022-05-15T10:24:52Z</time>
      </trkpt>
      <trkpt lat="47.24623" lon="4.93408">
        <ele>512</ele>
        <time>2022-05-15T10:24:54Z</time>
      </trkpt>
      <trkpt lat="47.24625" lon="4.93409">
        <ele>513</ele>
        <time>2022-05-15T10:24:56Z</time>
      </trkpt>
      <trkpt lat="47.24627" lon="4.93411">
        <ele>512</ele>
        <time>2022-05-15T10:24:59Z</time>
      </trkpt>
      <trkpt lat="47.24629" lon="4.93411">
        <ele>512</ele>
        <time>2022-05-15T10:25:01Z</time>
      </trkpt>
      <trkpt lat="47.2463" lon="4.93411">
        <ele>512</ele>
        <time>2022-05-15T10:25:02Z</time>
      </trkpt>
      <trkpt lat="47.24632" lon="4.93411">
        <ele>512</ele>
        <time>2022-05-15T10:25:03Z</time>
      </trkpt>
      <trkpt lat="47.24633" lon="4.93411">
        <ele>512</ele>
        <time>2022-05-15T10:25:04Z</time>
      </trkpt>
      <trkpt lat="47.24634" lon="4.93411">
        <ele>512</ele>
        <time>2022-05-15T10:25:06Z</time>
      </trkpt>
      <trkpt lat="47.24635" lon="4.9341">
        <ele>513</ele>
        <time>2022-05-15T10:25:07Z</time>
      </trkpt>
      <trkpt lat="47.24636" lon="4.93409">
        <ele>513</ele>
        <time>2022-05-15T10:25:08Z</time>
      </trkpt>
      <trkpt lat="47.24636" lon="4.93408">
        <ele>513</ele>
        <time>2022-05-15T10:25:09Z</time>
      </trkpt>
      <trkpt lat="47.24638" lon="4.93408">
        <ele>513</ele>
        <time>2022-05-15T10:25:11Z</time>
      </trkpt>
      <trkpt lat="47.24639" lon="4.93408">
        <ele>513</ele>
        <time>2022-05-15T10:25:12Z</time>
      </trkpt>
      <trkpt lat="47.24641" lon="4.93408">
        <ele>514</ele>
        <time>2022-05-15T10:25:13Z</time>
      </trkpt>
      <trkpt lat="47.24642" lon="4.93407">
        <ele>513</ele>
        <time>2022-05-15T10:25:15Z</time>
      </trkpt>
      <trkpt lat="47.24643" lon="4.93407">
        <ele>515</ele>
        <time>2022-05-15T10:25:16Z</time>
      </trkpt>
      <trkpt lat="47.24645" lon="4.93407">
        <ele>514</ele>
        <time>2022-05-15T10:25:17Z</time>
      </trkpt>
      <trkpt lat="47.24646" lon="4.93407">
        <ele>515</ele>
        <time>2022-05-15T10:25:18Z</time>
      </trkpt>
      <trkpt lat="47.24647" lon="4.93407">
        <ele>516</ele>
        <time>2022-05-15T10:25:19Z</time>
      </trkpt>
      <trkpt lat="47.24648" lon="4.93407">
        <ele>516</ele>
        <time>2022-05-15T10:25:21Z</time>
      </trkpt>
      <trkpt lat="47.24649" lon="4.93406">
        <ele>515</ele>
        <time>2022-05-15T10:25:22Z</time>
      </trkpt>
      <trkpt lat="47.24651" lon="4.93406">
        <ele>515</ele>
        <time>2022-05-15T10:25:23Z</time>
      </trkpt>
      <trkpt lat="47.24653" lon="4.93406">
        <ele>517</ele>
        <time>2022-05-15T10:25:25Z</time>
      </trkpt>
      <trkpt lat="47.24654" lon="4.93405">
        <ele>518</ele>
        <time>2022-05-15T10:25:26Z</time>
      </trkpt>
      <trkpt lat="47.24655" lon="4.93405">
        <ele>520</ele>
        <time>2022-05-15T10:25:27Z</time>
      </trkpt>
      <trkpt lat="47.24656" lon="4.93405">
        <ele>520</ele>
        <time>2022-05-15T10:25:28Z</time>
      </trkpt>
      <trkpt lat="47.24657" lon="4.93405">
        <ele>520</ele>
        <time>2022-05-15T10:25:29Z</time>
      </trkpt>
      <trkpt lat="47.24658" lon="4.93405">
        <ele>519</ele>
        <time>2022-05-15T10:25:30Z</time>
      </trkpt>
      <trkpt lat="47.24659" lon="4.93405">
        <ele>518</ele>
        <time>2022-05-15T10:25:31Z</time>
      </trkpt>
      <trkpt lat="47.24661" lon="4.93404">
        <ele>518</ele>
        <time>2022-05-15T10:25:32Z</time>
      </trkpt>
      <trkpt lat="47.24662" lon="4.93404">
        <ele>518</ele>
        <time>2022-05-15T10:25:33Z</time>
      </trkpt>
      <trkpt lat="47.24663" lon="4.93403">
        <ele>517</ele>
        <time>2022-05-15T10:25:34Z</time>
      </trkpt>
      <trkpt lat="47.24664" lon="4.93402">
        <ele>518</ele>
        <time>2022-05-15T10:25:35Z</time>
      </trkpt>
      <trkpt lat="47.24665" lon="4.93402">
        <ele>520</ele>
        <time>2022-05-15T10:25:36Z</time>
      </trkpt>
      <trkpt lat="47.24666" lon="4.93402">
        <ele>520</ele>
        <time>2022-05-15T10:25:37Z</time>
      </trkpt>
      <trkpt lat="47.24667" lon="4.93402">
        <ele>519</ele>
        <time>2022-05-15T10:25:38Z</time>
      </trkpt>
      <trkpt lat="47.24668" lon="4.93402">
        <ele>519</ele>
        <time>2022-05-15T10:25:39Z</time>
      </trkpt>
      <trkpt lat="47.24669" lon="4.93402">
        <ele>520</ele>
        <time>2022-05-15T10:25:40Z</time>
      </trkpt>
      <trkpt lat="47.2467" lon="4.93403">
        <ele>522</ele>
        <time>2022-05-15T10:25:41Z</time>
      </trkpt>
      <trkpt lat="47.24671" lon="4.93404">
        <ele>521</ele>
        <time>2022-05-15T10:25:42Z</time>
      </trkpt>
      <trkpt lat="47.24672" lon="4.93405">
        <ele>521</ele>
        <time>2022-05-15T10:25:44Z</time>
      </trkpt>
      <trkpt lat="47.24674" lon="4.93404">
        <ele>520</ele>
        <time>2022-05-15T10:25:46Z</time>
      </trkpt>
      <trkpt lat="47.24675" lon="4.93403">
        <ele>520</ele>
        <time>2022-05-15T10:25:47Z</time>
      </trkpt>
      <trkpt lat="47.24676" lon="4.93402">
        <ele>521</ele>
        <time>2022-05-15T10:25:48Z</time>
      </trkpt>
      <trkpt lat="47.24676" lon="4.93401">
        <ele>521</ele>
        <time>2022-05-15T10:25:49Z</time>
      </trkpt>
      <trkpt lat="47.24677" lon="4.934">
        <ele>518</ele>
        <time>2022-05-15T10:25:50Z</time>
      </trkpt>
      <trkpt lat="47.24679" lon="4.934">
        <ele>517</ele>
        <time>2022-05-15T10:25:51Z</time>
      </trkpt>
      <trkpt lat="47.2468" lon="4.93399">
        <ele>517</ele>
        <time>2022-05-15T10:25:52Z</time>
      </trkpt>
      <trkpt lat="47.24681" lon="4.93399">
        <ele>517</ele>
        <time>2022-05-15T10:25:53Z</time>
      </trkpt>
      <trkpt lat="47.24683" lon="4.93399">
        <ele>518</ele>
        <time>2022-05-15T10:25:55Z</time>
      </trkpt>
      <trkpt lat="47.24685" lon="4.934">
        <ele>518</ele>
        <time>2022-05-15T10:25:56Z</time>
      </trkpt>
      <trkpt lat="47.24686" lon="4.93401">
        <ele>515</ele>
        <time>2022-05-15T10:25:58Z</time>
      </trkpt>
      <trkpt lat="47.24688" lon="4.93402">
        <ele>516</ele>
        <time>2022-05-15T10:26:00Z</time>
      </trkpt>
      <trkpt lat="47.24689" lon="4.93402">
        <ele>516</ele>
        <time>2022-05-15T10:26:01Z</time>
      </trkpt>
      <trkpt lat="47.24691" lon="4.93403">
        <ele>516</ele>
        <time>2022-05-15T10:26:02Z</time>
      </trkpt>
      <trkpt lat="47.24692" lon="4.93405">
        <ele>516</ele>
        <time>2022-05-15T10:26:03Z</time>
      </trkpt>
      <trkpt lat="47.24694" lon="4.93405">
        <ele>515</ele>
        <time>2022-05-15T10:26:05Z</time>
      </trkpt>
      <trkpt lat="47.24695" lon="4.93405">
        <ele>513</ele>
        <time>2022-05-15T10:26:06Z</time>
      </trkpt>
      <trkpt lat="47.24696" lon="4.93404">
        <ele>509</ele>
        <time>2022-05-15T10:26:08Z</time>
      </trkpt>
      <trkpt lat="47.24698" lon="4.93404">
        <ele>509</ele>
        <time>2022-05-15T10:26:10Z</time>
      </trkpt>
      <trkpt lat="47.24699" lon="4.93405">
        <ele>509</ele>
        <time>2022-05-15T10:26:11Z</time>
      </trkpt>
      <trkpt lat="47.247" lon="4.93406">
        <ele>510</ele>
        <time>2022-05-15T10:26:12Z</time>
      </trkpt>
      <trkpt lat="47.24701" lon="4.93407">
        <ele>510</ele>
        <time>2022-05-15T10:26:13Z</time>
      </trkpt>
      <trkpt lat="47.24702" lon="4.93408">
        <ele>512</ele>
        <time>2022-05-15T10:26:14Z</time>
      </trkpt>
      <trkpt lat="47.24703" lon="4.93409">
        <ele>511</ele>
        <time>2022-05-15T10:26:15Z</time>
      </trkpt>
      <trkpt lat="47.24704" lon="4.9341">
        <ele>511</ele>
        <time>2022-05-15T10:26:17Z</time>
      </trkpt>
      <trkpt lat="47.24705" lon="4.93411">
        <ele>510</ele>
        <time>2022-05-15T10:26:18Z</time>
      </trkpt>
      <trkpt lat="47.24706" lon="4.93414">
        <ele>510</ele>
        <time>2022-05-15T10:26:20Z</time>
      </trkpt>
      <trkpt lat="47.24707" lon="4.93416">
        <ele>512</ele>
        <time>2022-05-15T10:26:21Z</time>
      </trkpt>
      <trkpt lat="47.24708" lon="4.93416">
        <ele>509</ele>
        <time>2022-05-15T10:26:22Z</time>
      </trkpt>
      <trkpt lat="47.2471" lon="4.93418">
        <ele>507</ele>
        <time>2022-05-15T10:26:24Z</time>
      </trkpt>
      <trkpt lat="47.2471" lon="4.9342">
        <ele>505</ele>
        <time>2022-05-15T10:26:26Z</time>
      </trkpt>
      <trkpt lat="47.24711" lon="4.93421">
        <ele>503</ele>
        <time>2022-05-15T10:26:28Z</time>
      </trkpt>
      <trkpt lat="47.24712" lon="4.93421">
        <ele>504</ele>
        <time>2022-05-15T10:26:29Z</time>
      </trkpt>
      <trkpt lat="47.24713" lon="4.93422">
        <ele>503</ele>
        <time>2022-05-15T10:26:30Z</time>
      </trkpt>
      <trkpt lat="47.24714" lon="4.93424">
        <ele>503</ele>
        <time>2022-05-15T10:26:31Z</time>
      </trkpt>
      <trkpt lat="47.24715" lon="4.93426">
        <ele>499</ele>
        <time>2022-05-15T10:26:33Z</time>
      </trkpt>
      <trkpt lat="47.24716" lon="4.93427">
        <ele>500</ele>
        <time>2022-05-15T10:26:34Z</time>
      </trkpt>
      <trkpt lat="47.24717" lon="4.93429">
        <ele>499</ele>
        <time>2022-05-15T10:26:36Z</time>
      </trkpt>
      <trkpt lat="47.24717" lon="4.93431">
        <ele>501</ele>
        <time>2022-05-15T10:26:37Z</time>
      </trkpt>
      <trkpt lat="47.24717" lon="4.93433">
        <ele>501</ele>
        <time>2022-05-15T10:26:38Z</time>
      </trkpt>
      <trkpt lat="47.24717" lon="4.93435">
        <ele>500</ele>
        <time>2022-05-15T10:26:39Z</time>
      </trkpt>
      <trkpt lat="47.24718" lon="4.93437">
        <ele>501</ele>
        <time>2022-05-15T10:26:40Z</time>
      </trkpt>
      <trkpt lat="47.24719" lon="4.93439">
        <ele>501</ele>
        <time>2022-05-15T10:26:41Z</time>
      </trkpt>
      <trkpt lat="47.2472" lon="4.9344">
        <ele>501</ele>
        <time>2022-05-15T10:26:42Z</time>
      </trkpt>
      <trkpt lat="47.24721" lon="4.93442">
        <ele>500</ele>
        <time>2022-05-15T10:26:43Z</time>
      </trkpt>
      <trkpt lat="47.24721" lon="4.93444">
        <ele>502</ele>
        <time>2022-05-15T10:26:44Z</time>
      </trkpt>
      <trkpt lat="47.24722" lon="4.93446">
        <ele>502</ele>
        <time>2022-05-15T10:26:45Z</time>
      </trkpt>
      <trkpt lat="47.24722" lon="4.93448">
        <ele>502</ele>
        <time>2022-05-15T10:26:46Z</time>
      </trkpt>
      <trkpt lat="47.24722" lon="4.93451">
        <ele>505</ele>
        <time>2022-05-15T10:26:47Z</time>
      </trkpt>
      <trkpt lat="47.24723" lon="4.93454">
        <ele>505</ele>
        <time>2022-05-15T10:26:48Z</time>
      </trkpt>
      <trkpt lat="47.24723" lon="4.93455">
        <ele>505</ele>
        <time>2022-05-15T10:26:49Z</time>
      </trkpt>
      <trkpt lat="47.24724" lon="4.93457">
        <ele>506</ele>
        <time>2022-05-15T10:26:50Z</time>
      </trkpt>
      <trkpt lat="47.24724" lon="4.93459">
        <ele>506</ele>
        <time>2022-05-15T10:26:51Z</time>
      </trkpt>
      <trkpt lat="47.24724" lon="4.93461">
        <ele>505</ele>
        <time>2022-05-15T10:26:52Z</time>
      </trkpt>
      <trkpt lat="47.24725" lon="4.93463">
        <ele>506</ele>
        <time>2022-05-15T10:26:54Z</time>
      </trkpt>
      <trkpt lat="47.24725" lon="4.93465">
        <ele>506</ele>
        <time>2022-05-15T10:26:55Z</time>
      </trkpt>
      <trkpt lat="47.24726" lon="4.93467">
        <ele>505</ele>
        <time>2022-05-15T10:26:56Z</time>
      </trkpt>
      <trkpt lat="47.24727" lon="4.93469">
        <ele>506</ele>
        <time>2022-05-15T10:26:58Z</time>
      </trkpt>
      <trkpt lat="47.24727" lon="4.93471">
        <ele>504</ele>
        <time>2022-05-15T10:26:59Z</time>
      </trkpt>
      <trkpt lat="47.24729" lon="4.93474">
        <ele>504</ele>
        <time>2022-05-15T10:27:01Z</time>
      </trkpt>
      <trkpt lat="47.24729" lon="4.93476">
        <ele>504</ele>
        <time>2022-05-15T10:27:02Z</time>
      </trkpt>
      <trkpt lat="47.2473" lon="4.93478">
        <ele>504</ele>
        <time>2022-05-15T10:27:03Z</time>
      </trkpt>
      <trkpt lat="47.2473" lon="4.93479">
        <ele>505</ele>
        <time>2022-05-15T10:27:04Z</time>
      </trkpt>
      <trkpt lat="47.24732" lon="4.93481">
        <ele>506</ele>
        <time>2022-05-15T10:27:05Z</time>
      </trkpt>
      <trkpt lat="47.24733" lon="4.93481">
        <ele>506</ele>
        <time>2022-05-15T10:27:06Z</time>
      </trkpt>
      <trkpt lat="47.24734" lon="4.93482">
        <ele>507</ele>
        <time>2022-05-15T10:27:08Z</time>
      </trkpt>
      <trkpt lat="47.24734" lon="4.93484">
        <ele>505</ele>
        <time>2022-05-15T10:27:09Z</time>
      </trkpt>
      <trkpt lat="47.24735" lon="4.93486">
        <ele>505</ele>
        <time>2022-05-15T10:27:10Z</time>
      </trkpt>
      <trkpt lat="47.24735" lon="4.93488">
        <ele>505</ele>
        <time>2022-05-15T10:27:11Z</time>
      </trkpt>
      <trkpt lat="47.24736" lon="4.93489">
        <ele>506</ele>
        <time>2022-05-15T10:27:12Z</time>
      </trkpt>
      <trkpt lat="47.24737" lon="4.93491">
        <ele>505</ele>
        <time>2022-05-15T10:27:13Z</time>
      </trkpt>
      <trkpt lat="47.24737" lon="4.93493">
        <ele>505</ele>
        <time>2022-05-15T10:27:14Z</time>
      </trkpt>
      <trkpt lat="47.24737" lon="4.93495">
        <ele>507</ele>
        <time>2022-05-15T10:27:15Z</time>
      </trkpt>
      <trkpt lat="47.24737" lon="4.93497">
        <ele>506</ele>
        <time>2022-05-15T10:27:16Z</time>
      </trkpt>
      <trkpt lat="47.24737" lon="4.93499">
        <ele>504</ele>
        <time>2022-05-15T10:27:17Z</time>
      </trkpt>
      <trkpt lat="47.24737" lon="4.93501">
        <ele>504</ele>
        <time>2022-05-15T10:27:18Z</time>
      </trkpt>
      <trkpt lat="47.24737" lon="4.93503">
        <ele>502</ele>
        <time>2022-05-15T10:27:19Z</time>
      </trkpt>
      <trkpt lat="47.24737" lon="4.93505">
        <ele>501</ele>
        <time>2022-05-15T10:27:20Z</time>
      </trkpt>
      <trkpt lat="47.24737" lon="4.93507">
        <ele>499</ele>
        <time>2022-05-15T10:27:21Z</time>
      </trkpt>
      <trkpt lat="47.24738" lon="4.93509">
        <ele>501</ele>
        <time>2022-05-15T10:27:22Z</time>
      </trkpt>
      <trkpt lat="47.24738" lon="4.9351">
        <ele>500</ele>
        <time>2022-05-15T10:27:23Z</time>
      </trkpt>
      <trkpt lat="47.24738" lon="4.93512">
        <ele>501</ele>
        <time>2022-05-15T10:27:24Z</time>
      </trkpt>
      <trkpt lat="47.24739" lon="4.93514">
        <ele>501</ele>
        <time>2022-05-15T10:27:25Z</time>
      </trkpt>
      <trkpt lat="47.2474" lon="4.93516">
        <ele>501</ele>
        <time>2022-05-15T10:27:27Z</time>
      </trkpt>
      <trkpt lat="47.2474" lon="4.93519">
        <ele>501</ele>
        <time>2022-05-15T10:27:28Z</time>
      </trkpt>
      <trkpt lat="47.24741" lon="4.93521">
        <ele>501</ele>
        <time>2022-05-15T10:27:29Z</time>
      </trkpt>
      <trkpt lat="47.24742" lon="4.93522">
        <ele>501</ele>
        <time>2022-05-15T10:27:30Z</time>
      </trkpt>
      <trkpt lat="47.24742" lon="4.93524">
        <ele>501</ele>
        <time>2022-05-15T10:27:32Z</time>
      </trkpt>
      <trkpt lat="47.24743" lon="4.93526">
        <ele>501</ele>
        <time>2022-05-15T10:27:33Z</time>
      </trkpt>
      <trkpt lat="47.24743" lon="4.93527">
        <ele>501</ele>
        <time>2022-05-15T10:27:34Z</time>
      </trkpt>
      <trkpt lat="47.24743" lon="4.93528">
        <ele>501</ele>
        <time>2022-05-15T10:27:35Z</time>
      </trkpt>
      <trkpt lat="47.24744" lon="4.9353">
        <ele>499</ele>
        <time>2022-05-15T10:27:38Z</time>
      </trkpt>
      <trkpt lat="47.24745" lon="4.93531">
        <ele>501</ele>
        <time>2022-05-15T10:27:42Z</time>
      </trkpt>
      <trkpt lat="47.24745" lon="4.93533">
        <ele>501</ele>
        <time>2022-05-15T10:27:43Z</time>
      </trkpt>
      <trkpt lat="47.24746" lon="4.93536">
        <ele>501</ele>
        <time>2022-05-15T10:27:44Z</time>
      </trkpt>
      <trkpt lat="47.24746" lon="4.93537">
        <ele>502</ele>
        <time>2022-05-15T10:27:45Z</time>
      </trkpt>
      <trkpt lat="47.24745" lon="4.93539">
        <ele>503</ele>
        <time>2022-05-15T10:27:46Z</time>
      </trkpt>
      <trkpt lat="47.24745" lon="4.93541">
        <ele>503</ele>
        <time>2022-05-15T10:27:47Z</time>
      </trkpt>
      <trkpt lat="47.24745" lon="4.93543">
        <ele>503</ele>
        <time>2022-05-15T10:27:48Z</time>
      </trkpt>
      <trkpt lat="47.24745" lon="4.93546">
        <ele>504</ele>
        <time>2022-05-15T10:27:50Z</time>
      </trkpt>
      <trkpt lat="47.24745" lon="4.93547">
        <ele>504</ele>
        <time>2022-05-15T10:27:51Z</time>
      </trkpt>
      <trkpt lat="47.24745" lon="4.9355">
        <ele>504</ele>
        <time>2022-05-15T10:27:52Z</time>
      </trkpt>
      <trkpt lat="47.24745" lon="4.93552">
        <ele>505</ele>
        <time>2022-05-15T10:27:53Z</time>
      </trkpt>
      <trkpt lat="47.24745" lon="4.93554">
        <ele>506</ele>
        <time>2022-05-15T10:27:54Z</time>
      </trkpt>
      <trkpt lat="47.24745" lon="4.93556">
        <ele>505</ele>
        <time>2022-05-15T10:27:56Z</time>
      </trkpt>
      <trkpt lat="47.24745" lon="4.93558">
        <ele>506</ele>
        <time>2022-05-15T10:27:57Z</time>
      </trkpt>
      <trkpt lat="47.24745" lon="4.93559">
        <ele>506</ele>
        <time>2022-05-15T10:27:58Z</time>
      </trkpt>
      <trkpt lat="47.24744" lon="4.9356">
        <ele>505</ele>
        <time>2022-05-15T10:27:59Z</time>
      </trkpt>
      <trkpt lat="47.24742" lon="4.93562">
        <ele>505</ele>
        <time>2022-05-15T10:28:02Z</time>
      </trkpt>
      <trkpt lat="47.24741" lon="4.93562">
        <ele>505</ele>
        <time>2022-05-15T10:28:03Z</time>
      </trkpt>
      <trkpt lat="47.2474" lon="4.93563">
        <ele>505</ele>
        <time>2022-05-15T10:28:04Z</time>
      </trkpt>
      <trkpt lat="47.24739" lon="4.93566">
        <ele>507</ele>
        <time>2022-05-15T10:28:06Z</time>
      </trkpt>
      <trkpt lat="47.24738" lon="4.93568">
        <ele>505</ele>
        <time>2022-05-15T10:28:07Z</time>
      </trkpt>
      <trkpt lat="47.24737" lon="4.93569">
        <ele>505</ele>
        <time>2022-05-15T10:28:08Z</time>
      </trkpt>
      <trkpt lat="47.24736" lon="4.93571">
        <ele>506</ele>
        <time>2022-05-15T10:28:10Z</time>
      </trkpt>
      <trkpt lat="47.24735" lon="4.93572">
        <ele>507</ele>
        <time>2022-05-15T10:28:11Z</time>
      </trkpt>
      <trkpt lat="47.24734" lon="4.93574">
        <ele>507</ele>
        <time>2022-05-15T10:28:12Z</time>
      </trkpt>
      <trkpt lat="47.24733" lon="4.93576">
        <ele>507</ele>
        <time>2022-05-15T10:28:13Z</time>
      </trkpt>
      <trkpt lat="47.24733" lon="4.93578">
        <ele>507</ele>
        <time>2022-05-15T10:28:14Z</time>
      </trkpt>
      <trkpt lat="47.24732" lon="4.93579">
        <ele>507</ele>
        <time>2022-05-15T10:28:15Z</time>
      </trkpt>
      <trkpt lat="47.24731" lon="4.9358">
        <ele>507</ele>
        <time>2022-05-15T10:28:17Z</time>
      </trkpt>
      <trkpt lat="47.2473" lon="4.93581">
        <ele>507</ele>
        <time>2022-05-15T10:28:19Z</time>
      </trkpt>
      <trkpt lat="47.24729" lon="4.93583">
        <ele>507</ele>
        <time>2022-05-15T10:28:21Z</time>
      </trkpt>
      <trkpt lat="47.24728" lon="4.93584">
        <ele>508</ele>
        <time>2022-05-15T10:28:22Z</time>
      </trkpt>
      <trkpt lat="47.24728" lon="4.93585">
        <ele>507</ele>
        <time>2022-05-15T10:28:23Z</time>
      </trkpt>
      <trkpt lat="47.24727" lon="4.93587">
        <ele>509</ele>
        <time>2022-05-15T10:28:24Z</time>
      </trkpt>
      <trkpt lat="47.24727" lon="4.93588">
        <ele>509</ele>
        <time>2022-05-15T10:28:25Z</time>
      </trkpt>
      <trkpt lat="47.24725" lon="4.93589">
        <ele>509</ele>
        <time>2022-05-15T10:28:26Z</time>
      </trkpt>
      <trkpt lat="47.24724" lon="4.9359">
        <ele>507</ele>
        <time>2022-05-15T10:28:27Z</time>
      </trkpt>
      <trkpt lat="47.24723" lon="4.93592">
        <ele>503</ele>
        <time>2022-05-15T10:28:29Z</time>
      </trkpt>
      <trkpt lat="47.24724" lon="4.93594">
        <ele>502</ele>
        <time>2022-05-15T10:28:31Z</time>
      </trkpt>
      <trkpt lat="47.24724" lon="4.93597">
        <ele>503</ele>
        <time>2022-05-15T10:28:32Z</time>
      </trkpt>
      <trkpt lat="47.24725" lon="4.93599">
        <ele>503</ele>
        <time>2022-05-15T10:28:33Z</time>
      </trkpt>
      <trkpt lat="47.24725" lon="4.93601">
        <ele>502</ele>
        <time>2022-05-15T10:28:35Z</time>
      </trkpt>
      <trkpt lat="47.24724" lon="4.93602">
        <ele>502</ele>
        <time>2022-05-15T10:28:36Z</time>
      </trkpt>
      <trkpt lat="47.24723" lon="4.93604">
        <ele>502</ele>
        <time>2022-05-15T10:28:37Z</time>
      </trkpt>
      <trkpt lat="47.24722" lon="4.93606">
        <ele>503</ele>
        <time>2022-05-15T10:28:39Z</time>
      </trkpt>
      <trkpt lat="47.24721" lon="4.93607">
        <ele>504</ele>
        <time>2022-05-15T10:28:41Z</time>
      </trkpt>
      <trkpt lat="47.2472" lon="4.93608">
        <ele>504</ele>
        <time>2022-05-15T10:28:42Z</time>
      </trkpt>
      <trkpt lat="47.24719" lon="4.9361">
        <ele>504</ele>
        <time>2022-05-15T10:28:44Z</time>
      </trkpt>
      <trkpt lat="47.24718" lon="4.93612">
        <ele>503</ele>
        <time>2022-05-15T10:28:45Z</time>
      </trkpt>
      <trkpt lat="47.24718" lon="4.93613">
        <ele>503</ele>
        <time>2022-05-15T10:28:46Z</time>
      </trkpt>
      <trkpt lat="47.24717" lon="4.93616">
        <ele>504</ele>
        <time>2022-05-15T10:28:48Z</time>
      </trkpt>
      <trkpt lat="47.24717" lon="4.93617">
        <ele>504</ele>
        <time>2022-05-15T10:28:49Z</time>
      </trkpt>
      <trkpt lat="47.24717" lon="4.93619">
        <ele>504</ele>
        <time>2022-05-15T10:28:50Z</time>
      </trkpt>
      <trkpt lat="47.24717" lon="4.93621">
        <ele>502</ele>
        <time>2022-05-15T10:28:52Z</time>
      </trkpt>
      <trkpt lat="47.24717" lon="4.93622">
        <ele>501</ele>
        <time>2022-05-15T10:28:53Z</time>
      </trkpt>
      <trkpt lat="47.24716" lon="4.93624">
        <ele>501</ele>
        <time>2022-05-15T10:28:54Z</time>
      </trkpt>
      <trkpt lat="47.24716" lon="4.93625">
        <ele>501</ele>
        <time>2022-05-15T10:28:55Z</time>
      </trkpt>
      <trkpt lat="47.24715" lon="4.93627">
        <ele>501</ele>
        <time>2022-05-15T10:28:57Z</time>
      </trkpt>
      <trkpt lat="47.24715" lon="4.93629">
        <ele>501</ele>
        <time>2022-05-15T10:28:58Z</time>
      </trkpt>
      <trkpt lat="47.24714" lon="4.93631">
        <ele>501</ele>
        <time>2022-05-15T10:28:59Z</time>
      </trkpt>
      <trkpt lat="47.24714" lon="4.93633">
        <ele>501</ele>
        <time>2022-05-15T10:29:00Z</time>
      </trkpt>
      <trkpt lat="47.24714" lon="4.93635">
        <ele>500</ele>
        <time>2022-05-15T10:29:01Z</time>
      </trkpt>
      <trkpt lat="47.24714" lon="4.93639">
        <ele>500</ele>
        <time>2022-05-15T10:29:03Z</time>
      </trkpt>
      <trkpt lat="47.24714" lon="4.93641">
        <ele>501</ele>
        <time>2022-05-15T10:29:04Z</time>
      </trkpt>
      <trkpt lat="47.24714" lon="4.93643">
        <ele>502</ele>
        <time>2022-05-15T10:29:05Z</time>
      </trkpt>
      <trkpt lat="47.24714" lon="4.93645">
        <ele>502</ele>
        <time>2022-05-15T10:29:06Z</time>
      </trkpt>
      <trkpt lat="47.24713" lon="4.93647">
        <ele>502</ele>
        <time>2022-05-15T10:29:07Z</time>
      </trkpt>
      <trkpt lat="47.24712" lon="4.93648">
        <ele>502</ele>
        <time>2022-05-15T10:29:08Z</time>
      </trkpt>
      <trkpt lat="47.24712" lon="4.93649">
        <ele>503</ele>
        <time>2022-05-15T10:29:09Z</time>
      </trkpt>
      <trkpt lat="47.24711" lon="4.93651">
        <ele>503</ele>
        <time>2022-05-15T10:29:10Z</time>
      </trkpt>
      <trkpt lat="47.24711" lon="4.93654">
        <ele>504</ele>
        <time>2022-05-15T10:29:11Z</time>
      </trkpt>
      <trkpt lat="47.2471" lon="4.93656">
        <ele>505</ele>
        <time>2022-05-15T10:29:12Z</time>
      </trkpt>
      <trkpt lat="47.2471" lon="4.93657">
        <ele>505</ele>
        <time>2022-05-15T10:29:13Z</time>
      </trkpt>
      <trkpt lat="47.24709" lon="4.9366">
        <ele>503</ele>
        <time>2022-05-15T10:29:14Z</time>
      </trkpt>
      <trkpt lat="47.24709" lon="4.93662">
        <ele>503</ele>
        <time>2022-05-15T10:29:15Z</time>
      </trkpt>
      <trkpt lat="47.24709" lon="4.93664">
        <ele>504</ele>
        <time>2022-05-15T10:29:17Z</time>
      </trkpt>
      <trkpt lat="47.24708" lon="4.93665">
        <ele>505</ele>
        <time>2022-05-15T10:29:18Z</time>
      </trkpt>
      <trkpt lat="47.24708" lon="4.93667">
        <ele>504</ele>
        <time>2022-05-15T10:29:19Z</time>
      </trkpt>
      <trkpt lat="47.24708" lon="4.93668">
        <ele>504</ele>
        <time>2022-05-15T10:29:20Z</time>
      </trkpt>
      <trkpt lat="47.24707" lon="4.9367">
        <ele>504</ele>
        <time>2022-05-15T10:29:21Z</time>
      </trkpt>
      <trkpt lat="47.24706" lon="4.93672">
        <ele>504</ele>
        <time>2022-05-15T10:29:22Z</time>
      </trkpt>
      <trkpt lat="47.24706" lon="4.93674">
        <ele>503</ele>
        <time>2022-05-15T10:29:24Z</time>
      </trkpt>
      <trkpt lat="47.24706" lon="4.93676">
        <ele>500</ele>
        <time>2022-05-15T10:29:25Z</time>
      </trkpt>
      <trkpt lat="47.24706" lon="4.93677">
        <ele>500</ele>
        <time>2022-05-15T10:29:26Z</time>
      </trkpt>
      <trkpt lat="47.24706" lon="4.93679">
        <ele>501</ele>
        <time>2022-05-15T10:29:27Z</time>
      </trkpt>
      <trkpt lat="47.24706" lon="4.93681">
        <ele>500</ele>
        <time>2022-05-15T10:29:28Z</time>
      </trkpt>
      <trkpt lat="47.24706" lon="4.93682">
        <ele>500</ele>
        <time>2022-05-15T10:29:29Z</time>
      </trkpt>
      <trkpt lat="47.24705" lon="4.93684">
        <ele>501</ele>
        <time>2022-05-15T10:29:30Z</time>
      </trkpt>
      <trkpt lat="47.24705" lon="4.93686">
        <ele>501</ele>
        <time>2022-05-15T10:29:34Z</time>
      </trkpt>
      <trkpt lat="47.24704" lon="4.93688">
        <ele>502</ele>
        <time>2022-05-15T10:29:35Z</time>
      </trkpt>
      <trkpt lat="47.24704" lon="4.93689">
        <ele>502</ele>
        <time>2022-05-15T10:29:36Z</time>
      </trkpt>
      <trkpt lat="47.24703" lon="4.93691">
        <ele>505</ele>
        <time>2022-05-15T10:29:37Z</time>
      </trkpt>
      <trkpt lat="47.24702" lon="4.93693">
        <ele>506</ele>
        <time>2022-05-15T10:29:40Z</time>
      </trkpt>
      <trkpt lat="47.24702" lon="4.93695">
        <ele>508</ele>
        <time>2022-05-15T10:29:41Z</time>
      </trkpt>
      <trkpt lat="47.24702" lon="4.93697">
        <ele>508</ele>
        <time>2022-05-15T10:29:42Z</time>
      </trkpt>
      <trkpt lat="47.24702" lon="4.93699">
        <ele>508</ele>
        <time>2022-05-15T10:29:43Z</time>
      </trkpt>
      <trkpt lat="47.24702" lon="4.93701">
        <ele>509</ele>
        <time>2022-05-15T10:29:44Z</time>
      </trkpt>
      <trkpt lat="47.24701" lon="4.93702">
        <ele>509</ele>
        <time>2022-05-15T10:29:45Z</time>
      </trkpt>
      <trkpt lat="47.247" lon="4.93705">
        <ele>509</ele>
        <time>2022-05-15T10:29:46Z</time>
      </trkpt>
      <trkpt lat="47.247" lon="4.93706">
        <ele>505</ele>
        <time>2022-05-15T10:29:47Z</time>
      </trkpt>
      <trkpt lat="47.24699" lon="4.93708">
        <ele>504</ele>
        <time>2022-05-15T10:29:48Z</time>
      </trkpt>
      <trkpt lat="47.24699" lon="4.9371">
        <ele>505</ele>
        <time>2022-05-15T10:29:50Z</time>
      </trkpt>
      <trkpt lat="47.24698" lon="4.93712">
        <ele>505</ele>
        <time>2022-05-15T10:29:51Z</time>
      </trkpt>
      <trkpt lat="47.24697" lon="4.93713">
        <ele>505</ele>
        <time>2022-05-15T10:29:52Z</time>
      </trkpt>
      <trkpt lat="47.24696" lon="4.93714">
        <ele>506</ele>
        <time>2022-05-15T10:29:53Z</time>
      </trkpt>
      <trkpt lat="47.24696" lon="4.93715">
        <ele>506</ele>
        <time>2022-05-15T10:29:54Z</time>
      </trkpt>
      <trkpt lat="47.24694" lon="4.93716">
        <ele>506</ele>
        <time>2022-05-15T10:29:56Z</time>
      </trkpt>
      <trkpt lat="47.24694" lon="4.93718">
        <ele>505</ele>
        <time>2022-05-15T10:29:57Z</time>
      </trkpt>
      <trkpt lat="47.24694" lon="4.9372">
        <ele>506</ele>
        <time>2022-05-15T10:29:58Z</time>
      </trkpt>
      <trkpt lat="47.24694" lon="4.93722">
        <ele>505</ele>
        <time>2022-05-15T10:30:00Z</time>
      </trkpt>
      <trkpt lat="47.24693" lon="4.93724">
        <ele>505</ele>
        <time>2022-05-15T10:30:01Z</time>
      </trkpt>
      <trkpt lat="47.24693" lon="4.93725">
        <ele>506</ele>
        <time>2022-05-15T10:30:05Z</time>
      </trkpt>
      <trkpt lat="47.24693" lon="4.93727">
        <ele>505</ele>
        <time>2022-05-15T10:30:08Z</time>
      </trkpt>
      <trkpt lat="47.24693" lon="4.93728">
        <ele>504</ele>
        <time>2022-05-15T10:30:09Z</time>
      </trkpt>
      <trkpt lat="47.24692" lon="4.9373">
        <ele>504</ele>
        <time>2022-05-15T10:30:10Z</time>
      </trkpt>
      <trkpt lat="47.24692" lon="4.93731">
        <ele>503</ele>
        <time>2022-05-15T10:30:11Z</time>
      </trkpt>
      <trkpt lat="47.24692" lon="4.93733">
        <ele>502</ele>
        <time>2022-05-15T10:30:12Z</time>
      </trkpt>
      <trkpt lat="47.24692" lon="4.93734">
        <ele>502</ele>
        <time>2022-05-15T10:30:13Z</time>
      </trkpt>
      <trkpt lat="47.24691" lon="4.93736">
        <ele>502</ele>
        <time>2022-05-15T10:30:14Z</time>
      </trkpt>
      <trkpt lat="47.24691" lon="4.93737">
        <ele>502</ele>
        <time>2022-05-15T10:30:15Z</time>
      </trkpt>
      <trkpt lat="47.24691" lon="4.93738">
        <ele>502</ele>
        <time>2022-05-15T10:30:16Z</time>
      </trkpt>
      <trkpt lat="47.2469" lon="4.9374">
        <ele>502</ele>
        <time>2022-05-15T10:30:18Z</time>
      </trkpt>
      <trkpt lat="47.24689" lon="4.93743">
        <ele>501</ele>
        <time>2022-05-15T10:30:20Z</time>
      </trkpt>
      <trkpt lat="47.24689" lon="4.93745">
        <ele>495</ele>
        <time>2022-05-15T10:30:21Z</time>
      </trkpt>
      <trkpt lat="47.24688" lon="4.93747">
        <ele>494</ele>
        <time>2022-05-15T10:30:22Z</time>
      </trkpt>
      <trkpt lat="47.24687" lon="4.93749">
        <ele>494</ele>
        <time>2022-05-15T10:30:23Z</time>
      </trkpt>
      <trkpt lat="47.24686" lon="4.93751">
        <ele>494</ele>
        <time>2022-05-15T10:30:24Z</time>
      </trkpt>
      <trkpt lat="47.24686" lon="4.93753">
        <ele>495</ele>
        <time>2022-05-15T10:30:25Z</time>
      </trkpt>
      <trkpt lat="47.24686" lon="4.93755">
        <ele>491</ele>
        <time>2022-05-15T10:30:26Z</time>
      </trkpt>
      <trkpt lat="47.24686" lon="4.93757">
        <ele>491</ele>
        <time>2022-05-15T10:30:27Z</time>
      </trkpt>
      <trkpt lat="47.24686" lon="4.93758">
        <ele>492</ele>
        <time>2022-05-15T10:30:29Z</time>
      </trkpt>
      <trkpt lat="47.24685" lon="4.93759">
        <ele>492</ele>
        <time>2022-05-15T10:30:31Z</time>
      </trkpt>
      <trkpt lat="47.24684" lon="4.93761">
        <ele>491</ele>
        <time>2022-05-15T10:30:35Z</time>
      </trkpt>
      <trkpt lat="47.24683" lon="4.93763">
        <ele>490</ele>
        <time>2022-05-15T10:30:36Z</time>
      </trkpt>
      <trkpt lat="47.24682" lon="4.93764">
        <ele>491</ele>
        <time>2022-05-15T10:30:37Z</time>
      </trkpt>
      <trkpt lat="47.24681" lon="4.93765">
        <ele>490</ele>
        <time>2022-05-15T10:30:38Z</time>
      </trkpt>
      <trkpt lat="47.2468" lon="4.93766">
        <ele>488</ele>
        <time>2022-05-15T10:30:39Z</time>
      </trkpt>
      <trkpt lat="47.24679" lon="4.93768">
        <ele>488</ele>
        <time>2022-05-15T10:30:40Z</time>
      </trkpt>
      <trkpt lat="47.24678" lon="4.9377">
        <ele>487</ele>
        <time>2022-05-15T10:30:41Z</time>
      </trkpt>
      <trkpt lat="47.24677" lon="4.93772">
        <ele>487</ele>
        <time>2022-05-15T10:30:42Z</time>
      </trkpt>
      <trkpt lat="47.24676" lon="4.93774">
        <ele>485</ele>
        <time>2022-05-15T10:30:44Z</time>
      </trkpt>
      <trkpt lat="47.24676" lon="4.93775">
        <ele>485</ele>
        <time>2022-05-15T10:30:45Z</time>
      </trkpt>
      <trkpt lat="47.24674" lon="4.93776">
        <ele>485</ele>
        <time>2022-05-15T10:30:47Z</time>
      </trkpt>
      <trkpt lat="47.24673" lon="4.93778">
        <ele>485</ele>
        <time>2022-05-15T10:30:49Z</time>
      </trkpt>
      <trkpt lat="47.24672" lon="4.93779">
        <ele>486</ele>
        <time>2022-05-15T10:30:50Z</time>
      </trkpt>
      <trkpt lat="47.24672" lon="4.93781">
        <ele>486</ele>
        <time>2022-05-15T10:30:51Z</time>
      </trkpt>
      <trkpt lat="47.24672" lon="4.93784">
        <ele>488</ele>
        <time>2022-05-15T10:30:53Z</time>
      </trkpt>
      <trkpt lat="47.24671" lon="4.93786">
        <ele>489</ele>
        <time>2022-05-15T10:30:54Z</time>
      </trkpt>
      <trkpt lat="47.24671" lon="4.93788">
        <ele>489</ele>
        <time>2022-05-15T10:30:55Z</time>
      </trkpt>
      <trkpt lat="47.24671" lon="4.93789">
        <ele>489</ele>
        <time>2022-05-15T10:30:56Z</time>
      </trkpt>
      <trkpt lat="47.24672" lon="4.93791">
        <ele>490</ele>
        <time>2022-05-15T10:30:57Z</time>
      </trkpt>
      <trkpt lat="47.24671" lon="4.93793">
        <ele>490</ele>
        <time>2022-05-15T10:30:59Z</time>
      </trkpt>
      <trkpt lat="47.24671" lon="4.93794">
        <ele>491</ele>
        <time>2022-05-15T10:31:01Z</time>
      </trkpt>
      <trkpt lat="47.24671" lon="4.93796">
        <ele>490</ele>
        <time>2022-05-15T10:31:02Z</time>
      </trkpt>
      <trkpt lat="47.24671" lon="4.93798">
        <ele>490</ele>
        <time>2022-05-15T10:31:03Z</time>
      </trkpt>
      <trkpt lat="47.24672" lon="4.93801">
        <ele>492</ele>
        <time>2022-05-15T10:31:05Z</time>
      </trkpt>
      <trkpt lat="47.24673" lon="4.93803">
        <ele>493</ele>
        <time>2022-05-15T10:31:06Z</time>
      </trkpt>
      <trkpt lat="47.24672" lon="4.93805">
        <ele>495</ele>
        <time>2022-05-15T10:31:08Z</time>
      </trkpt>
      <trkpt lat="47.24671" lon="4.93808">
        <ele>494</ele>
        <time>2022-05-15T10:31:10Z</time>
      </trkpt>
      <trkpt lat="47.24671" lon="4.9381">
        <ele>495</ele>
        <time>2022-05-15T10:31:12Z</time>
      </trkpt>
      <trkpt lat="47.24671" lon="4.93811">
        <ele>495</ele>
        <time>2022-05-15T10:31:13Z</time>
      </trkpt>
      <trkpt lat="47.24671" lon="4.93813">
        <ele>496</ele>
        <time>2022-05-15T10:31:14Z</time>
      </trkpt>
      <trkpt lat="47.24671" lon="4.93814">
        <ele>495</ele>
        <time>2022-05-15T10:31:15Z</time>
      </trkpt>
      <trkpt lat="47.24671" lon="4.93816">
        <ele>495</ele>
        <time>2022-05-15T10:31:17Z</time>
      </trkpt>
      <trkpt lat="47.24671" lon="4.93818">
        <ele>495</ele>
        <time>2022-05-15T10:31:18Z</time>
      </trkpt>
      <trkpt lat="47.2467" lon="4.93819">
        <ele>496</ele>
        <time>2022-05-15T10:31:19Z</time>
      </trkpt>
      <trkpt lat="47.24671" lon="4.9382">
        <ele>493</ele>
        <time>2022-05-15T10:31:20Z</time>
      </trkpt>
      <trkpt lat="47.24671" lon="4.93822">
        <ele>493</ele>
        <time>2022-05-15T10:31:21Z</time>
      </trkpt>
      <trkpt lat="47.24671" lon="4.93824">
        <ele>493</ele>
        <time>2022-05-15T10:31:22Z</time>
      </trkpt>
      <trkpt lat="47.2467" lon="4.93827">
        <ele>492</ele>
        <time>2022-05-15T10:31:24Z</time>
      </trkpt>
      <trkpt lat="47.24669" lon="4.93828">
        <ele>493</ele>
        <time>2022-05-15T10:31:25Z</time>
      </trkpt>
      <trkpt lat="47.24669" lon="4.93829">
        <ele>493</ele>
        <time>2022-05-15T10:31:26Z</time>
      </trkpt>
      <trkpt lat="47.24668" lon="4.93831">
        <ele>493</ele>
        <time>2022-05-15T10:31:27Z</time>
      </trkpt>
      <trkpt lat="47.24669" lon="4.93833">
        <ele>496</ele>
        <time>2022-05-15T10:31:29Z</time>
      </trkpt>
      <trkpt lat="47.24669" lon="4.93835">
        <ele>497</ele>
        <time>2022-05-15T10:31:30Z</time>
      </trkpt>
      <trkpt lat="47.24669" lon="4.93837">
        <ele>497</ele>
        <time>2022-05-15T10:31:31Z</time>
      </trkpt>
      <trkpt lat="47.24669" lon="4.93839">
        <ele>497</ele>
        <time>2022-05-15T10:31:33Z</time>
      </trkpt>
      <trkpt lat="47.24668" lon="4.93841">
        <ele>499</ele>
        <time>2022-05-15T10:31:34Z</time>
      </trkpt>
      <trkpt lat="47.24669" lon="4.93843">
        <ele>500</ele>
        <time>2022-05-15T10:31:36Z</time>
      </trkpt>
      <trkpt lat="47.24671" lon="4.93845">
        <ele>500</ele>
        <time>2022-05-15T10:31:38Z</time>
      </trkpt>
      <trkpt lat="47.24671" lon="4.93847">
        <ele>500</ele>
        <time>2022-05-15T10:31:39Z</time>
      </trkpt>
      <trkpt lat="47.24671" lon="4.9385">
        <ele>497</ele>
        <time>2022-05-15T10:31:40Z</time>
      </trkpt>
      <trkpt lat="47.24671" lon="4.93852">
        <ele>496</ele>
        <time>2022-05-15T10:31:41Z</time>
      </trkpt>
      <trkpt lat="47.2467" lon="4.93853">
        <ele>496</ele>
        <time>2022-05-15T10:31:42Z</time>
      </trkpt>
      <trkpt lat="47.2467" lon="4.93855">
        <ele>497</ele>
        <time>2022-05-15T10:31:43Z</time>
      </trkpt>
      <trkpt lat="47.2467" lon="4.93856">
        <ele>499</ele>
        <time>2022-05-15T10:31:44Z</time>
      </trkpt>
      <trkpt lat="47.2467" lon="4.93858">
        <ele>499</ele>
        <time>2022-05-15T10:31:45Z</time>
      </trkpt>
      <trkpt lat="47.2467" lon="4.93859">
        <ele>499</ele>
        <time>2022-05-15T10:31:46Z</time>
      </trkpt>
      <trkpt lat="47.2467" lon="4.93861">
        <ele>499</ele>
        <time>2022-05-15T10:31:47Z</time>
      </trkpt>
      <trkpt lat="47.24671" lon="4.93862">
        <ele>500</ele>
        <time>2022-05-15T10:31:49Z</time>
      </trkpt>
      <trkpt lat="47.24671" lon="4.93864">
        <ele>495</ele>
        <time>2022-05-15T10:31:53Z</time>
      </trkpt>
      <trkpt lat="47.24672" lon="4.93867">
        <ele>499</ele>
        <time>2022-05-15T10:31:54Z</time>
      </trkpt>
      <trkpt lat="47.24671" lon="4.9387">
        <ele>500</ele>
        <time>2022-05-15T10:31:55Z</time>
      </trkpt>
      <trkpt lat="47.24671" lon="4.93872">
        <ele>501</ele>
        <time>2022-05-15T10:31:56Z</time>
      </trkpt>
      <trkpt lat="47.2467" lon="4.93874">
        <ele>504</ele>
        <time>2022-05-15T10:31:57Z</time>
      </trkpt>
      <trkpt lat="47.2467" lon="4.93876">
        <ele>503</ele>
        <time>2022-05-15T10:31:58Z</time>
      </trkpt>
      <trkpt lat="47.2467" lon="4.93878">
        <ele>504</ele>
        <time>2022-05-15T10:31:59Z</time>
      </trkpt>
      <trkpt lat="47.2467" lon="4.9388">
        <ele>505</ele>
        <time>2022-05-15T10:32:00Z</time>
      </trkpt>
      <trkpt lat="47.24671" lon="4.93882">
        <ele>505</ele>
        <time>2022-05-15T10:32:01Z</time>
      </trkpt>
      <trkpt lat="47.24672" lon="4.93883">
        <ele>506</ele>
        <time>2022-05-15T10:32:02Z</time>
      </trkpt>
      <trkpt lat="47.24672" lon="4.93885">
        <ele>507</ele>
        <time>2022-05-15T10:32:03Z</time>
      </trkpt>
      <trkpt lat="47.24672" lon="4.93889">
        <ele>508</ele>
        <time>2022-05-15T10:32:05Z</time>
      </trkpt>
      <trkpt lat="47.24672" lon="4.9389">
        <ele>509</ele>
        <time>2022-05-15T10:32:06Z</time>
      </trkpt>
      <trkpt lat="47.24672" lon="4.93892">
        <ele>508</ele>
        <time>2022-05-15T10:32:07Z</time>
      </trkpt>
      <trkpt lat="47.24672" lon="4.93894">
        <ele>508</ele>
        <time>2022-05-15T10:32:08Z</time>
      </trkpt>
      <trkpt lat="47.24672" lon="4.93896">
        <ele>508</ele>
        <time>2022-05-15T10:32:09Z</time>
      </trkpt>
      <trkpt lat="47.24672" lon="4.93899">
        <ele>504</ele>
        <time>2022-05-15T10:32:11Z</time>
      </trkpt>
      <trkpt lat="47.24672" lon="4.93901">
        <ele>505</ele>
        <time>2022-05-15T10:32:12Z</time>
      </trkpt>
      <trkpt lat="47.24672" lon="4.93904">
        <ele>505</ele>
        <time>2022-05-15T10:32:13Z</time>
      </trkpt>
      <trkpt lat="47.24673" lon="4.93905">
        <ele>505</ele>
        <time>2022-05-15T10:32:14Z</time>
      </trkpt>
      <trkpt lat="47.24673" lon="4.93907">
        <ele>506</ele>
        <time>2022-05-15T10:32:15Z</time>
      </trkpt>
      <trkpt lat="47.24672" lon="4.93909">
        <ele>506</ele>
        <time>2022-05-15T10:32:16Z</time>
      </trkpt>
      <trkpt lat="47.24672" lon="4.93912">
        <ele>506</ele>
        <time>2022-05-15T10:32:17Z</time>
      </trkpt>
      <trkpt lat="47.24671" lon="4.93915">
        <ele>503</ele>
        <time>2022-05-15T10:32:18Z</time>
      </trkpt>
      <trkpt lat="47.24671" lon="4.93917">
        <ele>503</ele>
        <time>2022-05-15T10:32:19Z</time>
      </trkpt>
      <trkpt lat="47.24671" lon="4.9392">
        <ele>503</ele>
        <time>2022-05-15T10:32:21Z</time>
      </trkpt>
      <trkpt lat="47.24671" lon="4.93923">
        <ele>502</ele>
        <time>2022-05-15T10:32:22Z</time>
      </trkpt>
      <trkpt lat="47.24671" lon="4.93926">
        <ele>503</ele>
        <time>2022-05-15T10:32:23Z</time>
      </trkpt>
      <trkpt lat="47.24671" lon="4.93928">
        <ele>503</ele>
        <time>2022-05-15T10:32:24Z</time>
      </trkpt>
      <trkpt lat="47.24671" lon="4.93929">
        <ele>503</ele>
        <time>2022-05-15T10:32:25Z</time>
      </trkpt>
      <trkpt lat="47.24671" lon="4.93932">
        <ele>503</ele>
        <time>2022-05-15T10:32:26Z</time>
      </trkpt>
      <trkpt lat="47.2467" lon="4.93934">
        <ele>503</ele>
        <time>2022-05-15T10:32:27Z</time>
      </trkpt>
      <trkpt lat="47.2467" lon="4.93936">
        <ele>503</ele>
        <time>2022-05-15T10:32:28Z</time>
      </trkpt>
      <trkpt lat="47.24671" lon="4.93938">
        <ele>499</ele>
        <time>2022-05-15T10:32:30Z</time>
      </trkpt>
      <trkpt lat="47.24671" lon="4.9394">
        <ele>495</ele>
        <time>2022-05-15T10:32:31Z</time>
      </trkpt>
      <trkpt lat="47.24671" lon="4.93942">
        <ele>494</ele>
        <time>2022-05-15T10:32:32Z</time>
      </trkpt>
      <trkpt lat="47.2467" lon="4.93944">
        <ele>494</ele>
        <time>2022-05-15T10:32:33Z</time>
      </trkpt>
      <trkpt lat="47.2467" lon="4.93946">
        <ele>494</ele>
        <time>2022-05-15T10:32:34Z</time>
      </trkpt>
      <trkpt lat="47.2467" lon="4.93949">
        <ele>494</ele>
        <time>2022-05-15T10:32:36Z</time>
      </trkpt>
      <trkpt lat="47.2467" lon="4.93951">
        <ele>495</ele>
        <time>2022-05-15T10:32:37Z</time>
      </trkpt>
      <trkpt lat="47.2467" lon="4.93952">
        <ele>496</ele>
        <time>2022-05-15T10:32:38Z</time>
      </trkpt>
      <trkpt lat="47.2467" lon="4.93955">
        <ele>496</ele>
        <time>2022-05-15T10:32:39Z</time>
      </trkpt>
      <trkpt lat="47.2467" lon="4.93957">
        <ele>494</ele>
        <time>2022-05-15T10:32:40Z</time>
      </trkpt>
      <trkpt lat="47.2467" lon="4.93958">
        <ele>495</ele>
        <time>2022-05-15T10:32:41Z</time>
      </trkpt>
      <trkpt lat="47.2467" lon="4.9396">
        <ele>495</ele>
        <time>2022-05-15T10:32:42Z</time>
      </trkpt>
      <trkpt lat="47.2467" lon="4.93962">
        <ele>495</ele>
        <time>2022-05-15T10:32:44Z</time>
      </trkpt>
      <trkpt lat="47.2467" lon="4.93965">
        <ele>495</ele>
        <time>2022-05-15T10:32:46Z</time>
      </trkpt>
      <trkpt lat="47.2467" lon="4.93967">
        <ele>495</ele>
        <time>2022-05-15T10:32:47Z</time>
      </trkpt>
      <trkpt lat="47.24671" lon="4.93969">
        <ele>495</ele>
        <time>2022-05-15T10:32:48Z</time>
      </trkpt>
      <trkpt lat="47.24671" lon="4.9397">
        <ele>496</ele>
        <time>2022-05-15T10:32:49Z</time>
      </trkpt>
      <trkpt lat="47.24671" lon="4.93973">
        <ele>496</ele>
        <time>2022-05-15T10:32:50Z</time>
      </trkpt>
      <trkpt lat="47.24671" lon="4.93976">
        <ele>496</ele>
        <time>2022-05-15T10:32:51Z</time>
      </trkpt>
      <trkpt lat="47.24671" lon="4.93978">
        <ele>494</ele>
        <time>2022-05-15T10:32:52Z</time>
      </trkpt>
      <trkpt lat="47.24671" lon="4.93979">
        <ele>495</ele>
        <time>2022-05-15T10:32:53Z</time>
      </trkpt>
      <trkpt lat="47.24671" lon="4.93981">
        <ele>496</ele>
        <time>2022-05-15T10:32:54Z</time>
      </trkpt>
      <trkpt lat="47.24671" lon="4.93982">
        <ele>497</ele>
        <time>2022-05-15T10:32:55Z</time>
      </trkpt>
      <trkpt lat="47.24671" lon="4.93984">
        <ele>495</ele>
        <time>2022-05-15T10:32:56Z</time>
      </trkpt>
      <trkpt lat="47.2467" lon="4.93985">
        <ele>495</ele>
        <time>2022-05-15T10:32:58Z</time>
      </trkpt>
      <trkpt lat="47.2467" lon="4.93987">
        <ele>496</ele>
        <time>2022-05-15T10:32:59Z</time>
      </trkpt>
      <trkpt lat="47.24671" lon="4.93989">
        <ele>496</ele>
        <time>2022-05-15T10:33:00Z</time>
      </trkpt>
      <trkpt lat="47.24671" lon="4.93991">
        <ele>496</ele>
        <time>2022-05-15T10:33:01Z</time>
      </trkpt>
      <trkpt lat="47.2467" lon="4.93993">
        <ele>497</ele>
        <time>2022-05-15T10:33:03Z</time>
      </trkpt>
      <trkpt lat="47.2467" lon="4.93993">
        <ele>497</ele>
        <time>2022-05-15T10:33:04Z</time>
      </trkpt>
      <trkpt lat="47.2467" lon="4.93995">
        <ele>495</ele>
        <time>2022-05-15T10:33:08Z</time>
      </trkpt>
      <trkpt lat="47.2467" lon="4.93996">
        <ele>491</ele>
        <time>2022-05-15T10:33:10Z</time>
      </trkpt>
      <trkpt lat="47.24671" lon="4.93998">
        <ele>491</ele>
        <time>2022-05-15T10:33:13Z</time>
      </trkpt>
      <trkpt lat="47.2467" lon="4.94">
        <ele>493</ele>
        <time>2022-05-15T10:33:49Z</time>
      </trkpt>
      <trkpt lat="47.2467" lon="4.94002">
        <ele>495</ele>
        <time>2022-05-15T10:33:50Z</time>
      </trkpt>
      <trkpt lat="47.2467" lon="4.94005">
        <ele>495</ele>
        <time>2022-05-15T10:33:51Z</time>
      </trkpt>
      <trkpt lat="47.24669" lon="4.94006">
        <ele>494</ele>
        <time>2022-05-15T10:33:53Z</time>
      </trkpt>
      <trkpt lat="47.24669" lon="4.94009">
        <ele>494</ele>
        <time>2022-05-15T10:33:55Z</time>
      </trkpt>
      <trkpt lat="47.24669" lon="4.94011">
        <ele>494</ele>
        <time>2022-05-15T10:33:56Z</time>
      </trkpt>
      <trkpt lat="47.24669" lon="4.94013">
        <ele>495</ele>
        <time>2022-05-15T10:33:57Z</time>
      </trkpt>
      <trkpt lat="47.24668" lon="4.94015">
        <ele>496</ele>
        <time>2022-05-15T10:33:59Z</time>
      </trkpt>
      <trkpt lat="47.24668" lon="4.94017">
        <ele>495</ele>
        <time>2022-05-15T10:34:00Z</time>
      </trkpt>
      <trkpt lat="47.24669" lon="4.9402">
        <ele>494</ele>
        <time>2022-05-15T10:34:01Z</time>
      </trkpt>
      <trkpt lat="47.24669" lon="4.94021">
        <ele>494</ele>
        <time>2022-05-15T10:34:02Z</time>
      </trkpt>
      <trkpt lat="47.24669" lon="4.94023">
        <ele>495</ele>
        <time>2022-05-15T10:34:03Z</time>
      </trkpt>
      <trkpt lat="47.24668" lon="4.94025">
        <ele>497</ele>
        <time>2022-05-15T10:34:04Z</time>
      </trkpt>
      <trkpt lat="47.24668" lon="4.94027">
        <ele>497</ele>
        <time>2022-05-15T10:34:06Z</time>
      </trkpt>
      <trkpt lat="47.24669" lon="4.94031">
        <ele>499</ele>
        <time>2022-05-15T10:34:08Z</time>
      </trkpt>
      <trkpt lat="47.24669" lon="4.94033">
        <ele>499</ele>
        <time>2022-05-15T10:34:09Z</time>
      </trkpt>
      <trkpt lat="47.24668" lon="4.94034">
        <ele>499</ele>
        <time>2022-05-15T10:34:10Z</time>
      </trkpt>
      <trkpt lat="47.24668" lon="4.94036">
        <ele>501</ele>
        <time>2022-05-15T10:34:11Z</time>
      </trkpt>
      <trkpt lat="47.24668" lon="4.94038">
        <ele>501</ele>
        <time>2022-05-15T10:34:13Z</time>
      </trkpt>
      <trkpt lat="47.24668" lon="4.9404">
        <ele>499</ele>
        <time>2022-05-15T10:34:14Z</time>
      </trkpt>
      <trkpt lat="47.24669" lon="4.94042">
        <ele>499</ele>
        <time>2022-05-15T10:34:15Z</time>
      </trkpt>
      <trkpt lat="47.24669" lon="4.94044">
        <ele>498</ele>
        <time>2022-05-15T10:34:16Z</time>
      </trkpt>
      <trkpt lat="47.2467" lon="4.94046">
        <ele>498</ele>
        <time>2022-05-15T10:34:17Z</time>
      </trkpt>
      <trkpt lat="47.24669" lon="4.94049">
        <ele>498</ele>
        <time>2022-05-15T10:34:19Z</time>
      </trkpt>
      <trkpt lat="47.24668" lon="4.94051">
        <ele>498</ele>
        <time>2022-05-15T10:34:20Z</time>
      </trkpt>
      <trkpt lat="47.24668" lon="4.94053">
        <ele>498</ele>
        <time>2022-05-15T10:34:21Z</time>
      </trkpt>
      <trkpt lat="47.24668" lon="4.94055">
        <ele>495</ele>
        <time>2022-05-15T10:34:22Z</time>
      </trkpt>
      <trkpt lat="47.24669" lon="4.94056">
        <ele>495</ele>
        <time>2022-05-15T10:34:23Z</time>
      </trkpt>
      <trkpt lat="47.24669" lon="4.94057">
        <ele>494</ele>
        <time>2022-05-15T10:34:24Z</time>
      </trkpt>
      <trkpt lat="47.24669" lon="4.9406">
        <ele>495</ele>
        <time>2022-05-15T10:34:25Z</time>
      </trkpt>
      <trkpt lat="47.24669" lon="4.94063">
        <ele>496</ele>
        <time>2022-05-15T10:34:26Z</time>
      </trkpt>
      <trkpt lat="47.24669" lon="4.94065">
        <ele>497</ele>
        <time>2022-05-15T10:34:27Z</time>
      </trkpt>
      <trkpt lat="47.24669" lon="4.94066">
        <ele>499</ele>
        <time>2022-05-15T10:34:28Z</time>
      </trkpt>
      <trkpt lat="47.24669" lon="4.94068">
        <ele>500</ele>
        <time>2022-05-15T10:34:29Z</time>
      </trkpt>
      <trkpt lat="47.24668" lon="4.9407">
        <ele>499</ele>
        <time>2022-05-15T10:34:30Z</time>
      </trkpt>
      <trkpt lat="47.24668" lon="4.94071">
        <ele>500</ele>
        <time>2022-05-15T10:34:31Z</time>
      </trkpt>
      <trkpt lat="47.24667" lon="4.94072">
        <ele>501</ele>
        <time>2022-05-15T10:34:32Z</time>
      </trkpt>
      <trkpt lat="47.24667" lon="4.94074">
        <ele>502</ele>
        <time>2022-05-15T10:34:33Z</time>
      </trkpt>
      <trkpt lat="47.24667" lon="4.94076">
        <ele>501</ele>
        <time>2022-05-15T10:34:34Z</time>
      </trkpt>
      <trkpt lat="47.24668" lon="4.94078">
        <ele>501</ele>
        <time>2022-05-15T10:34:35Z</time>
      </trkpt>
      <trkpt lat="47.24668" lon="4.9408">
        <ele>500</ele>
        <time>2022-05-15T10:34:36Z</time>
      </trkpt>
      <trkpt lat="47.24668" lon="4.94082">
        <ele>500</ele>
        <time>2022-05-15T10:34:37Z</time>
      </trkpt>
      <trkpt lat="47.24667" lon="4.94084">
        <ele>500</ele>
        <time>2022-05-15T10:34:38Z</time>
      </trkpt>
      <trkpt lat="47.24667" lon="4.94086">
        <ele>499</ele>
        <time>2022-05-15T10:34:39Z</time>
      </trkpt>
      <trkpt lat="47.24666" lon="4.94087">
        <ele>499</ele>
        <time>2022-05-15T10:34:40Z</time>
      </trkpt>
      <trkpt lat="47.24665" lon="4.94089">
        <ele>500</ele>
        <time>2022-05-15T10:34:41Z</time>
      </trkpt>
      <trkpt lat="47.24664" lon="4.9409">
        <ele>500</ele>
        <time>2022-05-15T10:34:42Z</time>
      </trkpt>
      <trkpt lat="47.24664" lon="4.94092">
        <ele>501</ele>
        <time>2022-05-15T10:34:43Z</time>
      </trkpt>
      <trkpt lat="47.24664" lon="4.94093">
        <ele>502</ele>
        <time>2022-05-15T10:34:44Z</time>
      </trkpt>
      <trkpt lat="47.24664" lon="4.94095">
        <ele>501</ele>
        <time>2022-05-15T10:34:45Z</time>
      </trkpt>
      <trkpt lat="47.24664" lon="4.94097">
        <ele>500</ele>
        <time>2022-05-15T10:34:47Z</time>
      </trkpt>
      <trkpt lat="47.24663" lon="4.94098">
        <ele>499</ele>
        <time>2022-05-15T10:34:49Z</time>
      </trkpt>
      <trkpt lat="47.24662" lon="4.94099">
        <ele>499</ele>
        <time>2022-05-15T10:34:50Z</time>
      </trkpt>
      <trkpt lat="47.24662" lon="4.94101">
        <ele>499</ele>
        <time>2022-05-15T10:34:51Z</time>
      </trkpt>
      <trkpt lat="47.24661" lon="4.94102">
        <ele>499</ele>
        <time>2022-05-15T10:34:52Z</time>
      </trkpt>
      <trkpt lat="47.24661" lon="4.94104">
        <ele>498</ele>
        <time>2022-05-15T10:34:53Z</time>
      </trkpt>
      <trkpt lat="47.2466" lon="4.94107">
        <ele>499</ele>
        <time>2022-05-15T10:34:54Z</time>
      </trkpt>
      <trkpt lat="47.24659" lon="4.94109">
        <ele>498</ele>
        <time>2022-05-15T10:34:55Z</time>
      </trkpt>
      <trkpt lat="47.24659" lon="4.94112">
        <ele>499</ele>
        <time>2022-05-15T10:34:56Z</time>
      </trkpt>
      <trkpt lat="47.24659" lon="4.94115">
        <ele>499</ele>
        <time>2022-05-15T10:34:57Z</time>
      </trkpt>
      <trkpt lat="47.2466" lon="4.94118">
        <ele>494</ele>
        <time>2022-05-15T10:34:58Z</time>
      </trkpt>
      <trkpt lat="47.2466" lon="4.9412">
        <ele>494</ele>
        <time>2022-05-15T10:34:59Z</time>
      </trkpt>
      <trkpt lat="47.24661" lon="4.94121">
        <ele>493</ele>
        <time>2022-05-15T10:35:00Z</time>
      </trkpt>
      <trkpt lat="47.24661" lon="4.94123">
        <ele>494</ele>
        <time>2022-05-15T10:35:01Z</time>
      </trkpt>
      <trkpt lat="47.24661" lon="4.94125">
        <ele>494</ele>
        <time>2022-05-15T10:35:02Z</time>
      </trkpt>
      <trkpt lat="47.24662" lon="4.94126">
        <ele>494</ele>
        <time>2022-05-15T10:35:03Z</time>
      </trkpt>
      <trkpt lat="47.24664" lon="4.94128">
        <ele>494</ele>
        <time>2022-05-15T10:35:05Z</time>
      </trkpt>
      <trkpt lat="47.24664" lon="4.94133">
        <ele>495</ele>
        <time>2022-05-15T10:35:07Z</time>
      </trkpt>
      <trkpt lat="47.24664" lon="4.94135">
        <ele>495</ele>
        <time>2022-05-15T10:35:08Z</time>
      </trkpt>
      <trkpt lat="47.24665" lon="4.94137">
        <ele>496</ele>
        <time>2022-05-15T10:35:09Z</time>
      </trkpt>
      <trkpt lat="47.24664" lon="4.94138">
        <ele>495</ele>
        <time>2022-05-15T10:35:10Z</time>
      </trkpt>
      <trkpt lat="47.24664" lon="4.9414">
        <ele>495</ele>
        <time>2022-05-15T10:35:11Z</time>
      </trkpt>
      <trkpt lat="47.24664" lon="4.94143">
        <ele>496</ele>
        <time>2022-05-15T10:35:13Z</time>
      </trkpt>
      <trkpt lat="47.24664" lon="4.94145">
        <ele>496</ele>
        <time>2022-05-15T10:35:14Z</time>
      </trkpt>
      <trkpt lat="47.24663" lon="4.94147">
        <ele>497</ele>
        <time>2022-05-15T10:35:15Z</time>
      </trkpt>
      <trkpt lat="47.24663" lon="4.94149">
        <ele>497</ele>
        <time>2022-05-15T10:35:16Z</time>
      </trkpt>
      <trkpt lat="47.24663" lon="4.9415">
        <ele>495</ele>
        <time>2022-05-15T10:35:17Z</time>
      </trkpt>
      <trkpt lat="47.24663" lon="4.94152">
        <ele>495</ele>
        <time>2022-05-15T10:35:18Z</time>
      </trkpt>
      <trkpt lat="47.24663" lon="4.94154">
        <ele>496</ele>
        <time>2022-05-15T10:35:19Z</time>
      </trkpt>
      <trkpt lat="47.24664" lon="4.94156">
        <ele>496</ele>
        <time>2022-05-15T10:35:20Z</time>
      </trkpt>
      <trkpt lat="47.24665" lon="4.94158">
        <ele>497</ele>
        <time>2022-05-15T10:35:21Z</time>
      </trkpt>
      <trkpt lat="47.24665" lon="4.94161">
        <ele>497</ele>
        <time>2022-05-15T10:35:22Z</time>
      </trkpt>
      <trkpt lat="47.24665" lon="4.94164">
        <ele>497</ele>
        <time>2022-05-15T10:35:23Z</time>
      </trkpt>
      <trkpt lat="47.24664" lon="4.94166">
        <ele>497</ele>
        <time>2022-05-15T10:35:24Z</time>
      </trkpt>
      <trkpt lat="47.24663" lon="4.94168">
        <ele>495</ele>
        <time>2022-05-15T10:35:25Z</time>
      </trkpt>
      <trkpt lat="47.24663" lon="4.9417">
        <ele>495</ele>
        <time>2022-05-15T10:35:27Z</time>
      </trkpt>
      <trkpt lat="47.24663" lon="4.94173">
        <ele>494</ele>
        <time>2022-05-15T10:35:28Z</time>
      </trkpt>
      <trkpt lat="47.24663" lon="4.94174">
        <ele>494</ele>
        <time>2022-05-15T10:35:29Z</time>
      </trkpt>
      <trkpt lat="47.24664" lon="4.94176">
        <ele>493</ele>
        <time>2022-05-15T10:35:30Z</time>
      </trkpt>
      <trkpt lat="47.24663" lon="4.94179">
        <ele>497</ele>
        <time>2022-05-15T10:35:31Z</time>
      </trkpt>
      <trkpt lat="47.24663" lon="4.94181">
        <ele>501</ele>
        <time>2022-05-15T10:35:32Z</time>
      </trkpt>
      <trkpt lat="47.24663" lon="4.94183">
        <ele>501</ele>
        <time>2022-05-15T10:35:33Z</time>
      </trkpt>
      <trkpt lat="47.24663" lon="4.94184">
        <ele>504</ele>
        <time>2022-05-15T10:35:35Z</time>
      </trkpt>
      <trkpt lat="47.24663" lon="4.94186">
        <ele>504</ele>
        <time>2022-05-15T10:35:36Z</time>
      </trkpt>
      <trkpt lat="47.24664" lon="4.94188">
        <ele>504</ele>
        <time>2022-05-15T10:35:37Z</time>
      </trkpt>
      <trkpt lat="47.24664" lon="4.9419">
        <ele>504</ele>
        <time>2022-05-15T10:35:38Z</time>
      </trkpt>
      <trkpt lat="47.24665" lon="4.94192">
        <ele>504</ele>
        <time>2022-05-15T10:35:39Z</time>
      </trkpt>
      <trkpt lat="47.24665" lon="4.94194">
        <ele>504</ele>
        <time>2022-05-15T10:35:40Z</time>
      </trkpt>
      <trkpt lat="47.24665" lon="4.94195">
        <ele>504</ele>
        <time>2022-05-15T10:35:41Z</time>
      </trkpt>
      <trkpt lat="47.24664" lon="4.94197">
        <ele>504</ele>
        <time>2022-05-15T10:35:42Z</time>
      </trkpt>
      <trkpt lat="47.24664" lon="4.94199">
        <ele>502</ele>
        <time>2022-05-15T10:35:43Z</time>
      </trkpt>
      <trkpt lat="47.24663" lon="4.94201">
        <ele>499</ele>
        <time>2022-05-15T10:35:45Z</time>
      </trkpt>
      <trkpt lat="47.24663" lon="4.94203">
        <ele>500</ele>
        <time>2022-05-15T10:35:46Z</time>
      </trkpt>
      <trkpt lat="47.24664" lon="4.94205">
        <ele>502</ele>
        <time>2022-05-15T10:35:47Z</time>
      </trkpt>
      <trkpt lat="47.24664" lon="4.94208">
        <ele>500</ele>
        <time>2022-05-15T10:35:49Z</time>
      </trkpt>
      <trkpt lat="47.24664" lon="4.9421">
        <ele>498</ele>
        <time>2022-05-15T10:35:50Z</time>
      </trkpt>
      <trkpt lat="47.24663" lon="4.94211">
        <ele>500</ele>
        <time>2022-05-15T10:35:52Z</time>
      </trkpt>
      <trkpt lat="47.24662" lon="4.94213">
        <ele>500</ele>
        <time>2022-05-15T10:35:53Z</time>
      </trkpt>
      <trkpt lat="47.24661" lon="4.94214">
        <ele>501</ele>
        <time>2022-05-15T10:35:54Z</time>
      </trkpt>
      <trkpt lat="47.24661" lon="4.94216">
        <ele>500</ele>
        <time>2022-05-15T10:35:55Z</time>
      </trkpt>
      <trkpt lat="47.24661" lon="4.94218">
        <ele>500</ele>
        <time>2022-05-15T10:35:56Z</time>
      </trkpt>
      <trkpt lat="47.24661" lon="4.9422">
        <ele>499</ele>
        <time>2022-05-15T10:35:57Z</time>
      </trkpt>
      <trkpt lat="47.2466" lon="4.94222">
        <ele>498</ele>
        <time>2022-05-15T10:35:58Z</time>
      </trkpt>
      <trkpt lat="47.2466" lon="4.94224">
        <ele>495</ele>
        <time>2022-05-15T10:35:59Z</time>
      </trkpt>
      <trkpt lat="47.24658" lon="4.94226">
        <ele>496</ele>
        <time>2022-05-15T10:36:00Z</time>
      </trkpt>
      <trkpt lat="47.24657" lon="4.94228">
        <ele>496</ele>
        <time>2022-05-15T10:36:01Z</time>
      </trkpt>
      <trkpt lat="47.24656" lon="4.94229">
        <ele>496</ele>
        <time>2022-05-15T10:36:02Z</time>
      </trkpt>
      <trkpt lat="47.24656" lon="4.9423">
        <ele>496</ele>
        <time>2022-05-15T10:36:03Z</time>
      </trkpt>
      <trkpt lat="47.24655" lon="4.94232">
        <ele>495</ele>
        <time>2022-05-15T10:36:04Z</time>
      </trkpt>
      <trkpt lat="47.24654" lon="4.94235">
        <ele>496</ele>
        <time>2022-05-15T10:36:05Z</time>
      </trkpt>
      <trkpt lat="47.24653" lon="4.94238">
        <ele>495</ele>
        <time>2022-05-15T10:36:06Z</time>
      </trkpt>
      <trkpt lat="47.24652" lon="4.94241">
        <ele>496</ele>
        <time>2022-05-15T10:36:08Z</time>
      </trkpt>
      <trkpt lat="47.24652" lon="4.94243">
        <ele>497</ele>
        <time>2022-05-15T10:36:09Z</time>
      </trkpt>
      <trkpt lat="47.24652" lon="4.94244">
        <ele>497</ele>
        <time>2022-05-15T10:36:10Z</time>
      </trkpt>
      <trkpt lat="47.24653" lon="4.94247">
        <ele>498</ele>
        <time>2022-05-15T10:36:11Z</time>
      </trkpt>
      <trkpt lat="47.24653" lon="4.9425">
        <ele>496</ele>
        <time>2022-05-15T10:36:12Z</time>
      </trkpt>
      <trkpt lat="47.24653" lon="4.94252">
        <ele>497</ele>
        <time>2022-05-15T10:36:13Z</time>
      </trkpt>
      <trkpt lat="47.24652" lon="4.94254">
        <ele>499</ele>
        <time>2022-05-15T10:36:14Z</time>
      </trkpt>
      <trkpt lat="47.24652" lon="4.94256">
        <ele>498</ele>
        <time>2022-05-15T10:36:15Z</time>
      </trkpt>
      <trkpt lat="47.24651" lon="4.94258">
        <ele>499</ele>
        <time>2022-05-15T10:36:16Z</time>
      </trkpt>
      <trkpt lat="47.24651" lon="4.94261">
        <ele>499</ele>
        <time>2022-05-15T10:36:17Z</time>
      </trkpt>
      <trkpt lat="47.24651" lon="4.94262">
        <ele>500</ele>
        <time>2022-05-15T10:36:18Z</time>
      </trkpt>
      <trkpt lat="47.24651" lon="4.94265">
        <ele>499</ele>
        <time>2022-05-15T10:36:19Z</time>
      </trkpt>
      <trkpt lat="47.24651" lon="4.94267">
        <ele>500</ele>
        <time>2022-05-15T10:36:20Z</time>
      </trkpt>
      <trkpt lat="47.2465" lon="4.94268">
        <ele>500</ele>
        <time>2022-05-15T10:36:22Z</time>
      </trkpt>
      <trkpt lat="47.2465" lon="4.9427">
        <ele>500</ele>
        <time>2022-05-15T10:36:23Z</time>
      </trkpt>
      <trkpt lat="47.24649" lon="4.94272">
        <ele>500</ele>
        <time>2022-05-15T10:36:24Z</time>
      </trkpt>
      <trkpt lat="47.24649" lon="4.94274">
        <ele>501</ele>
        <time>2022-05-15T10:36:25Z</time>
      </trkpt>
      <trkpt lat="47.2465" lon="4.94277">
        <ele>498</ele>
        <time>2022-05-15T10:36:27Z</time>
      </trkpt>
      <trkpt lat="47.24651" lon="4.94279">
        <ele>500</ele>
        <time>2022-05-15T10:36:28Z</time>
      </trkpt>
      <trkpt lat="47.24651" lon="4.94281">
        <ele>501</ele>
        <time>2022-05-15T10:36:29Z</time>
      </trkpt>
      <trkpt lat="47.24652" lon="4.94282">
        <ele>502</ele>
        <time>2022-05-15T10:36:30Z</time>
      </trkpt>
      <trkpt lat="47.24652" lon="4.94285">
        <ele>502</ele>
        <time>2022-05-15T10:36:31Z</time>
      </trkpt>
      <trkpt lat="47.24652" lon="4.94287">
        <ele>499</ele>
        <time>2022-05-15T10:36:32Z</time>
      </trkpt>
      <trkpt lat="47.24653" lon="4.9429">
        <ele>500</ele>
        <time>2022-05-15T10:36:34Z</time>
      </trkpt>
      <trkpt lat="47.24653" lon="4.94293">
        <ele>497</ele>
        <time>2022-05-15T10:36:35Z</time>
      </trkpt>
      <trkpt lat="47.24654" lon="4.94295">
        <ele>497</ele>
        <time>2022-05-15T10:36:36Z</time>
      </trkpt>
      <trkpt lat="47.24654" lon="4.94298">
        <ele>497</ele>
        <time>2022-05-15T10:36:37Z</time>
      </trkpt>
      <trkpt lat="47.24654" lon="4.943">
        <ele>497</ele>
        <time>2022-05-15T10:36:38Z</time>
      </trkpt>
      <trkpt lat="47.24655" lon="4.94303">
        <ele>495</ele>
        <time>2022-05-15T10:36:40Z</time>
      </trkpt>
      <trkpt lat="47.24655" lon="4.94306">
        <ele>496</ele>
        <time>2022-05-15T10:36:41Z</time>
      </trkpt>
      <trkpt lat="47.24654" lon="4.94309">
        <ele>496</ele>
        <time>2022-05-15T10:36:42Z</time>
      </trkpt>
      <trkpt lat="47.24654" lon="4.9431">
        <ele>497</ele>
        <time>2022-05-15T10:36:43Z</time>
      </trkpt>
      <trkpt lat="47.24654" lon="4.94313">
        <ele>498</ele>
        <time>2022-05-15T10:36:44Z</time>
      </trkpt>
      <trkpt lat="47.24654" lon="4.94315">
        <ele>498</ele>
        <time>2022-05-15T10:36:45Z</time>
      </trkpt>
      <trkpt lat="47.24654" lon="4.94316">
        <ele>499</ele>
        <time>2022-05-15T10:36:46Z</time>
      </trkpt>
      <trkpt lat="47.24655" lon="4.94318">
        <ele>499</ele>
        <time>2022-05-15T10:36:47Z</time>
      </trkpt>
      <trkpt lat="47.24655" lon="4.94319">
        <ele>499</ele>
        <time>2022-05-15T10:36:48Z</time>
      </trkpt>
      <trkpt lat="47.24655" lon="4.9432">
        <ele>499</ele>
        <time>2022-05-15T10:36:50Z</time>
      </trkpt>
      <trkpt lat="47.24655" lon="4.94323">
        <ele>499</ele>
        <time>2022-05-15T10:36:52Z</time>
      </trkpt>
      <trkpt lat="47.24656" lon="4.94325">
        <ele>501</ele>
        <time>2022-05-15T10:36:54Z</time>
      </trkpt>
      <trkpt lat="47.24657" lon="4.94327">
        <ele>502</ele>
        <time>2022-05-15T10:36:55Z</time>
      </trkpt>
      <trkpt lat="47.24659" lon="4.94329">
        <ele>502</ele>
        <time>2022-05-15T10:36:56Z</time>
      </trkpt>
      <trkpt lat="47.24659" lon="4.94331">
        <ele>505</ele>
        <time>2022-05-15T10:36:57Z</time>
      </trkpt>
      <trkpt lat="47.24659" lon="4.94333">
        <ele>505</ele>
        <time>2022-05-15T10:36:58Z</time>
      </trkpt>
      <trkpt lat="47.24659" lon="4.94336">
        <ele>506</ele>
        <time>2022-05-15T10:37:00Z</time>
      </trkpt>
      <trkpt lat="47.24659" lon="4.94338">
        <ele>505</ele>
        <time>2022-05-15T10:37:01Z</time>
      </trkpt>
      <trkpt lat="47.24659" lon="4.9434">
        <ele>505</ele>
        <time>2022-05-15T10:37:02Z</time>
      </trkpt>
      <trkpt lat="47.24659" lon="4.94343">
        <ele>505</ele>
        <time>2022-05-15T10:37:03Z</time>
      </trkpt>
      <trkpt lat="47.24659" lon="4.94344">
        <ele>505</ele>
        <time>2022-05-15T10:37:04Z</time>
      </trkpt>
      <trkpt lat="47.24658" lon="4.94346">
        <ele>506</ele>
        <time>2022-05-15T10:37:05Z</time>
      </trkpt>
      <trkpt lat="47.24658" lon="4.94349">
        <ele>507</ele>
        <time>2022-05-15T10:37:06Z</time>
      </trkpt>
      <trkpt lat="47.24657" lon="4.9435">
        <ele>506</ele>
        <time>2022-05-15T10:37:07Z</time>
      </trkpt>
      <trkpt lat="47.24656" lon="4.94353">
        <ele>507</ele>
        <time>2022-05-15T10:37:09Z</time>
      </trkpt>
      <trkpt lat="47.24656" lon="4.94355">
        <ele>508</ele>
        <time>2022-05-15T10:37:10Z</time>
      </trkpt>
      <trkpt lat="47.24656" lon="4.94357">
        <ele>509</ele>
        <time>2022-05-15T10:37:11Z</time>
      </trkpt>
      <trkpt lat="47.24657" lon="4.94359">
        <ele>508</ele>
        <time>2022-05-15T10:37:12Z</time>
      </trkpt>
      <trkpt lat="47.24657" lon="4.9436">
        <ele>506</ele>
        <time>2022-05-15T10:37:13Z</time>
      </trkpt>
      <trkpt lat="47.24658" lon="4.94362">
        <ele>506</ele>
        <time>2022-05-15T10:37:14Z</time>
      </trkpt>
      <trkpt lat="47.24658" lon="4.94364">
        <ele>506</ele>
        <time>2022-05-15T10:37:15Z</time>
      </trkpt>
      <trkpt lat="47.24658" lon="4.94366">
        <ele>505</ele>
        <time>2022-05-15T10:37:16Z</time>
      </trkpt>
      <trkpt lat="47.24658" lon="4.94368">
        <ele>505</ele>
        <time>2022-05-15T10:37:17Z</time>
      </trkpt>
      <trkpt lat="47.24658" lon="4.9437">
        <ele>505</ele>
        <time>2022-05-15T10:37:18Z</time>
      </trkpt>
      <trkpt lat="47.24658" lon="4.94371">
        <ele>505</ele>
        <time>2022-05-15T10:37:21Z</time>
      </trkpt>
      <trkpt lat="47.24657" lon="4.94375">
        <ele>501</ele>
        <time>2022-05-15T10:37:23Z</time>
      </trkpt>
      <trkpt lat="47.24657" lon="4.94379">
        <ele>500</ele>
        <time>2022-05-15T10:37:24Z</time>
      </trkpt>
      <trkpt lat="47.24657" lon="4.94381">
        <ele>501</ele>
        <time>2022-05-15T10:37:25Z</time>
      </trkpt>
      <trkpt lat="47.24657" lon="4.94383">
        <ele>497</ele>
        <time>2022-05-15T10:37:26Z</time>
      </trkpt>
      <trkpt lat="47.24657" lon="4.94385">
        <ele>496</ele>
        <time>2022-05-15T10:37:27Z</time>
      </trkpt>
      <trkpt lat="47.24656" lon="4.94387">
        <ele>496</ele>
        <time>2022-05-15T10:37:28Z</time>
      </trkpt>
      <trkpt lat="47.24656" lon="4.94389">
        <ele>497</ele>
        <time>2022-05-15T10:37:29Z</time>
      </trkpt>
      <trkpt lat="47.24656" lon="4.94391">
        <ele>499</ele>
        <time>2022-05-15T10:37:30Z</time>
      </trkpt>
      <trkpt lat="47.24656" lon="4.94393">
        <ele>497</ele>
        <time>2022-05-15T10:37:31Z</time>
      </trkpt>
      <trkpt lat="47.24655" lon="4.94395">
        <ele>498</ele>
        <time>2022-05-15T10:37:33Z</time>
      </trkpt>
      <trkpt lat="47.24655" lon="4.94397">
        <ele>498</ele>
        <time>2022-05-15T10:37:34Z</time>
      </trkpt>
      <trkpt lat="47.24655" lon="4.944">
        <ele>497</ele>
        <time>2022-05-15T10:37:35Z</time>
      </trkpt>
      <trkpt lat="47.24656" lon="4.94402">
        <ele>496</ele>
        <time>2022-05-15T10:37:36Z</time>
      </trkpt>
      <trkpt lat="47.24657" lon="4.94403">
        <ele>494</ele>
        <time>2022-05-15T10:37:37Z</time>
      </trkpt>
      <trkpt lat="47.24657" lon="4.94405">
        <ele>495</ele>
        <time>2022-05-15T10:37:39Z</time>
      </trkpt>
      <trkpt lat="47.24657" lon="4.94407">
        <ele>495</ele>
        <time>2022-05-15T10:37:40Z</time>
      </trkpt>
      <trkpt lat="47.24657" lon="4.94408">
        <ele>495</ele>
        <time>2022-05-15T10:37:41Z</time>
      </trkpt>
      <trkpt lat="47.24656" lon="4.9441">
        <ele>494</ele>
        <time>2022-05-15T10:37:42Z</time>
      </trkpt>
      <trkpt lat="47.24656" lon="4.94413">
        <ele>495</ele>
        <time>2022-05-15T10:37:43Z</time>
      </trkpt>
      <trkpt lat="47.24656" lon="4.94415">
        <ele>494</ele>
        <time>2022-05-15T10:37:44Z</time>
      </trkpt>
      <trkpt lat="47.24655" lon="4.94418">
        <ele>495</ele>
        <time>2022-05-15T10:37:45Z</time>
      </trkpt>
      <trkpt lat="47.24655" lon="4.9442">
        <ele>493</ele>
        <time>2022-05-15T10:37:46Z</time>
      </trkpt>
      <trkpt lat="47.24654" lon="4.94422">
        <ele>493</ele>
        <time>2022-05-15T10:37:47Z</time>
      </trkpt>
      <trkpt lat="47.24654" lon="4.94423">
        <ele>494</ele>
        <time>2022-05-15T10:37:48Z</time>
      </trkpt>
      <trkpt lat="47.24653" lon="4.94425">
        <ele>495</ele>
        <time>2022-05-15T10:37:49Z</time>
      </trkpt>
      <trkpt lat="47.24653" lon="4.94427">
        <ele>495</ele>
        <time>2022-05-15T10:37:50Z</time>
      </trkpt>
      <trkpt lat="47.24653" lon="4.94428">
        <ele>495</ele>
        <time>2022-05-15T10:37:52Z</time>
      </trkpt>
      <trkpt lat="47.24653" lon="4.9443">
        <ele>493</ele>
        <time>2022-05-15T10:37:55Z</time>
      </trkpt>
      <trkpt lat="47.24654" lon="4.94431">
        <ele>495</ele>
        <time>2022-05-15T10:37:58Z</time>
      </trkpt>
      <trkpt lat="47.24654" lon="4.94434">
        <ele>499</ele>
        <time>2022-05-15T10:38:11Z</time>
      </trkpt>
      <trkpt lat="47.24653" lon="4.94437">
        <ele>499</ele>
        <time>2022-05-15T10:38:12Z</time>
      </trkpt>
      <trkpt lat="47.24653" lon="4.9444">
        <ele>498</ele>
        <time>2022-05-15T10:38:13Z</time>
      </trkpt>
      <trkpt lat="47.24652" lon="4.94442">
        <ele>499</ele>
        <time>2022-05-15T10:38:14Z</time>
      </trkpt>
      <trkpt lat="47.24652" lon="4.94443">
        <ele>499</ele>
        <time>2022-05-15T10:38:15Z</time>
      </trkpt>
      <trkpt lat="47.24651" lon="4.94445">
        <ele>499</ele>
        <time>2022-05-15T10:38:16Z</time>
      </trkpt>
      <trkpt lat="47.24651" lon="4.94446">
        <ele>498</ele>
        <time>2022-05-15T10:38:17Z</time>
      </trkpt>
      <trkpt lat="47.24651" lon="4.94448">
        <ele>498</ele>
        <time>2022-05-15T10:38:18Z</time>
      </trkpt>
      <trkpt lat="47.24651" lon="4.9445">
        <ele>498</ele>
        <time>2022-05-15T10:38:19Z</time>
      </trkpt>
      <trkpt lat="47.24651" lon="4.94452">
        <ele>498</ele>
        <time>2022-05-15T10:38:20Z</time>
      </trkpt>
      <trkpt lat="47.24651" lon="4.94454">
        <ele>496</ele>
        <time>2022-05-15T10:38:21Z</time>
      </trkpt>
      <trkpt lat="47.24651" lon="4.94456">
        <ele>497</ele>
        <time>2022-05-15T10:38:22Z</time>
      </trkpt>
      <trkpt lat="47.24651" lon="4.94458">
        <ele>497</ele>
        <time>2022-05-15T10:38:23Z</time>
      </trkpt>
      <trkpt lat="47.24652" lon="4.94461">
        <ele>497</ele>
        <time>2022-05-15T10:38:25Z</time>
      </trkpt>
      <trkpt lat="47.24652" lon="4.94463">
        <ele>498</ele>
        <time>2022-05-15T10:38:26Z</time>
      </trkpt>
      <trkpt lat="47.24652" lon="4.94465">
        <ele>495</ele>
        <time>2022-05-15T10:38:27Z</time>
      </trkpt>
      <trkpt lat="47.24652" lon="4.94467">
        <ele>495</ele>
        <time>2022-05-15T10:38:28Z</time>
      </trkpt>
      <trkpt lat="47.24652" lon="4.94469">
        <ele>493</ele>
        <time>2022-05-15T10:38:29Z</time>
      </trkpt>
      <trkpt lat="47.24652" lon="4.94471">
        <ele>494</ele>
        <time>2022-05-15T10:38:30Z</time>
      </trkpt>
      <trkpt lat="47.24652" lon="4.94473">
        <ele>494</ele>
        <time>2022-05-15T10:38:31Z</time>
      </trkpt>
      <trkpt lat="47.24651" lon="4.94475">
        <ele>496</ele>
        <time>2022-05-15T10:38:32Z</time>
      </trkpt>
      <trkpt lat="47.24651" lon="4.94477">
        <ele>497</ele>
        <time>2022-05-15T10:38:34Z</time>
      </trkpt>
      <trkpt lat="47.24651" lon="4.94479">
        <ele>498</ele>
        <time>2022-05-15T10:38:35Z</time>
      </trkpt>
      <trkpt lat="47.24651" lon="4.9448">
        <ele>499</ele>
        <time>2022-05-15T10:38:36Z</time>
      </trkpt>
      <trkpt lat="47.24651" lon="4.94483">
        <ele>498</ele>
        <time>2022-05-15T10:38:38Z</time>
      </trkpt>
      <trkpt lat="47.24651" lon="4.94486">
        <ele>498</ele>
        <time>2022-05-15T10:38:39Z</time>
      </trkpt>
      <trkpt lat="47.24651" lon="4.94488">
        <ele>497</ele>
        <time>2022-05-15T10:38:40Z</time>
      </trkpt>
      <trkpt lat="47.24651" lon="4.9449">
        <ele>497</ele>
        <time>2022-05-15T10:38:41Z</time>
      </trkpt>
      <trkpt lat="47.24651" lon="4.94491">
        <ele>498</ele>
        <time>2022-05-15T10:38:42Z</time>
      </trkpt>
      <trkpt lat="47.24651" lon="4.94493">
        <ele>498</ele>
        <time>2022-05-15T10:38:43Z</time>
      </trkpt>
      <trkpt lat="47.24651" lon="4.94495">
        <ele>499</ele>
        <time>2022-05-15T10:38:44Z</time>
      </trkpt>
      <trkpt lat="47.24651" lon="4.94497">
        <ele>499</ele>
        <time>2022-05-15T10:38:45Z</time>
      </trkpt>
      <trkpt lat="47.24651" lon="4.94499">
        <ele>499</ele>
        <time>2022-05-15T10:38:46Z</time>
      </trkpt>
      <trkpt lat="47.24651" lon="4.94501">
        <ele>499</ele>
        <time>2022-05-15T10:38:47Z</time>
      </trkpt>
      <trkpt lat="47.2465" lon="4.94503">
        <ele>498</ele>
        <time>2022-05-15T10:38:48Z</time>
      </trkpt>
      <trkpt lat="47.2465" lon="4.94505">
        <ele>498</ele>
        <time>2022-05-15T10:38:49Z</time>
      </trkpt>
      <trkpt lat="47.2465" lon="4.94508">
        <ele>499</ele>
        <time>2022-05-15T10:38:50Z</time>
      </trkpt>
      <trkpt lat="47.2465" lon="4.9451">
        <ele>499</ele>
        <time>2022-05-15T10:38:51Z</time>
      </trkpt>
      <trkpt lat="47.2465" lon="4.94511">
        <ele>499</ele>
        <time>2022-05-15T10:38:52Z</time>
      </trkpt>
      <trkpt lat="47.24649" lon="4.94513">
        <ele>499</ele>
        <time>2022-05-15T10:38:53Z</time>
      </trkpt>
      <trkpt lat="47.24649" lon="4.94514">
        <ele>499</ele>
        <time>2022-05-15T10:38:54Z</time>
      </trkpt>
      <trkpt lat="47.24649" lon="4.94516">
        <ele>494</ele>
        <time>2022-05-15T10:38:55Z</time>
      </trkpt>
      <trkpt lat="47.24649" lon="4.94518">
        <ele>495</ele>
        <time>2022-05-15T10:38:56Z</time>
      </trkpt>
      <trkpt lat="47.24649" lon="4.9452">
        <ele>498</ele>
        <time>2022-05-15T10:38:57Z</time>
      </trkpt>
      <trkpt lat="47.24649" lon="4.94522">
        <ele>496</ele>
        <time>2022-05-15T10:38:58Z</time>
      </trkpt>
      <trkpt lat="47.24649" lon="4.94524">
        <ele>495</ele>
        <time>2022-05-15T10:38:59Z</time>
      </trkpt>
      <trkpt lat="47.24649" lon="4.94526">
        <ele>494</ele>
        <time>2022-05-15T10:39:00Z</time>
      </trkpt>
      <trkpt lat="47.24649" lon="4.94528">
        <ele>494</ele>
        <time>2022-05-15T10:39:01Z</time>
      </trkpt>
      <trkpt lat="47.24649" lon="4.94531">
        <ele>495</ele>
        <time>2022-05-15T10:39:03Z</time>
      </trkpt>
      <trkpt lat="47.24649" lon="4.94533">
        <ele>495</ele>
        <time>2022-05-15T10:39:04Z</time>
      </trkpt>
      <trkpt lat="47.24649" lon="4.94535">
        <ele>497</ele>
        <time>2022-05-15T10:39:05Z</time>
      </trkpt>
      <trkpt lat="47.24649" lon="4.94537">
        <ele>497</ele>
        <time>2022-05-15T10:39:07Z</time>
      </trkpt>
      <trkpt lat="47.24648" lon="4.94543">
        <ele>498</ele>
        <time>2022-05-15T10:39:11Z</time>
      </trkpt>
      <trkpt lat="47.24647" lon="4.94545">
        <ele>497</ele>
        <time>2022-05-15T10:39:12Z</time>
      </trkpt>
      <trkpt lat="47.24647" lon="4.94547">
        <ele>496</ele>
        <time>2022-05-15T10:39:13Z</time>
      </trkpt>
      <trkpt lat="47.24647" lon="4.94549">
        <ele>497</ele>
        <time>2022-05-15T10:39:14Z</time>
      </trkpt>
      <trkpt lat="47.24647" lon="4.9455">
        <ele>491</ele>
        <time>2022-05-15T10:39:15Z</time>
      </trkpt>
      <trkpt lat="47.24647" lon="4.94553">
        <ele>493</ele>
        <time>2022-05-15T10:39:17Z</time>
      </trkpt>
      <trkpt lat="47.24647" lon="4.94555">
        <ele>495</ele>
        <time>2022-05-15T10:39:18Z</time>
      </trkpt>
      <trkpt lat="47.24646" lon="4.94557">
        <ele>496</ele>
        <time>2022-05-15T10:39:19Z</time>
      </trkpt>
      <trkpt lat="47.24646" lon="4.94559">
        <ele>495</ele>
        <time>2022-05-15T10:39:20Z</time>
      </trkpt>
      <trkpt lat="47.24646" lon="4.94562">
        <ele>496</ele>
        <time>2022-05-15T10:39:21Z</time>
      </trkpt>
      <trkpt lat="47.24645" lon="4.94566">
        <ele>496</ele>
        <time>2022-05-15T10:39:23Z</time>
      </trkpt>
      <trkpt lat="47.24645" lon="4.94568">
        <ele>495</ele>
        <time>2022-05-15T10:39:24Z</time>
      </trkpt>
      <trkpt lat="47.24645" lon="4.94569">
        <ele>495</ele>
        <time>2022-05-15T10:39:25Z</time>
      </trkpt>
      <trkpt lat="47.24644" lon="4.94571">
        <ele>497</ele>
        <time>2022-05-15T10:39:26Z</time>
      </trkpt>
      <trkpt lat="47.24643" lon="4.94573">
        <ele>496</ele>
        <time>2022-05-15T10:39:28Z</time>
      </trkpt>
      <trkpt lat="47.24642" lon="4.94575">
        <ele>496</ele>
        <time>2022-05-15T10:39:30Z</time>
      </trkpt>
      <trkpt lat="47.24642" lon="4.94576">
        <ele>496</ele>
        <time>2022-05-15T10:39:31Z</time>
      </trkpt>
      <trkpt lat="47.24641" lon="4.94578">
        <ele>495</ele>
        <time>2022-05-15T10:39:32Z</time>
      </trkpt>
      <trkpt lat="47.24641" lon="4.94581">
        <ele>490</ele>
        <time>2022-05-15T10:39:33Z</time>
      </trkpt>
      <trkpt lat="47.24641" lon="4.94583">
        <ele>492</ele>
        <time>2022-05-15T10:39:34Z</time>
      </trkpt>
      <trkpt lat="47.2464" lon="4.94584">
        <ele>492</ele>
        <time>2022-05-15T10:39:35Z</time>
      </trkpt>
      <trkpt lat="47.2464" lon="4.94586">
        <ele>491</ele>
        <time>2022-05-15T10:39:36Z</time>
      </trkpt>
      <trkpt lat="47.24639" lon="4.94587">
        <ele>489</ele>
        <time>2022-05-15T10:39:37Z</time>
      </trkpt>
      <trkpt lat="47.2464" lon="4.94589">
        <ele>490</ele>
        <time>2022-05-15T10:39:38Z</time>
      </trkpt>
      <trkpt lat="47.24641" lon="4.9459">
        <ele>488</ele>
        <time>2022-05-15T10:39:39Z</time>
      </trkpt>
      <trkpt lat="47.24641" lon="4.94592">
        <ele>490</ele>
        <time>2022-05-15T10:39:41Z</time>
      </trkpt>
      <trkpt lat="47.24642" lon="4.94594">
        <ele>490</ele>
        <time>2022-05-15T10:39:42Z</time>
      </trkpt>
      <trkpt lat="47.24642" lon="4.94596">
        <ele>489</ele>
        <time>2022-05-15T10:39:43Z</time>
      </trkpt>
      <trkpt lat="47.24642" lon="4.94599">
        <ele>490</ele>
        <time>2022-05-15T10:39:44Z</time>
      </trkpt>
      <trkpt lat="47.24642" lon="4.946">
        <ele>492</ele>
        <time>2022-05-15T10:39:45Z</time>
      </trkpt>
      <trkpt lat="47.24642" lon="4.94602">
        <ele>493</ele>
        <time>2022-05-15T10:39:46Z</time>
      </trkpt>
      <trkpt lat="47.24641" lon="4.94604">
        <ele>494</ele>
        <time>2022-05-15T10:39:47Z</time>
      </trkpt>
      <trkpt lat="47.24641" lon="4.94606">
        <ele>495</ele>
        <time>2022-05-15T10:39:48Z</time>
      </trkpt>
      <trkpt lat="47.24641" lon="4.94608">
        <ele>495</ele>
        <time>2022-05-15T10:39:49Z</time>
      </trkpt>
      <trkpt lat="47.24642" lon="4.94611">
        <ele>496</ele>
        <time>2022-05-15T10:39:50Z</time>
      </trkpt>
      <trkpt lat="47.24642" lon="4.94613">
        <ele>496</ele>
        <time>2022-05-15T10:39:51Z</time>
      </trkpt>
      <trkpt lat="47.24642" lon="4.94615">
        <ele>497</ele>
        <time>2022-05-15T10:39:52Z</time>
      </trkpt>
      <trkpt lat="47.24641" lon="4.94618">
        <ele>496</ele>
        <time>2022-05-15T10:39:53Z</time>
      </trkpt>
      <trkpt lat="47.24641" lon="4.9462">
        <ele>497</ele>
        <time>2022-05-15T10:39:54Z</time>
      </trkpt>
      <trkpt lat="47.2464" lon="4.94622">
        <ele>497</ele>
        <time>2022-05-15T10:39:55Z</time>
      </trkpt>
      <trkpt lat="47.2464" lon="4.94624">
        <ele>498</ele>
        <time>2022-05-15T10:39:56Z</time>
      </trkpt>
      <trkpt lat="47.2464" lon="4.94626">
        <ele>497</ele>
        <time>2022-05-15T10:39:57Z</time>
      </trkpt>
      <trkpt lat="47.24639" lon="4.94628">
        <ele>496</ele>
        <time>2022-05-15T10:39:58Z</time>
      </trkpt>
      <trkpt lat="47.24638" lon="4.94631">
        <ele>496</ele>
        <time>2022-05-15T10:39:59Z</time>
      </trkpt>
      <trkpt lat="47.24637" lon="4.94633">
        <ele>496</ele>
        <time>2022-05-15T10:40:00Z</time>
      </trkpt>
      <trkpt lat="47.24637" lon="4.94636">
        <ele>496</ele>
        <time>2022-05-15T10:40:01Z</time>
      </trkpt>
      <trkpt lat="47.24636" lon="4.94639">
        <ele>495</ele>
        <time>2022-05-15T10:40:02Z</time>
      </trkpt>
      <trkpt lat="47.24636" lon="4.94641">
        <ele>492</ele>
        <time>2022-05-15T10:40:03Z</time>
      </trkpt>
      <trkpt lat="47.24636" lon="4.94643">
        <ele>492</ele>
        <time>2022-05-15T10:40:04Z</time>
      </trkpt>
      <trkpt lat="47.24636" lon="4.94644">
        <ele>491</ele>
        <time>2022-05-15T10:40:05Z</time>
      </trkpt>
      <trkpt lat="47.24635" lon="4.94647">
        <ele>491</ele>
        <time>2022-05-15T10:40:06Z</time>
      </trkpt>
      <trkpt lat="47.24634" lon="4.94649">
        <ele>491</ele>
        <time>2022-05-15T10:40:07Z</time>
      </trkpt>
      <trkpt lat="47.24633" lon="4.94651">
        <ele>491</ele>
        <time>2022-05-15T10:40:08Z</time>
      </trkpt>
      <trkpt lat="47.24633" lon="4.94653">
        <ele>494</ele>
        <time>2022-05-15T10:40:09Z</time>
      </trkpt>
      <trkpt lat="47.24633" lon="4.94655">
        <ele>488</ele>
        <time>2022-05-15T10:40:10Z</time>
      </trkpt>
      <trkpt lat="47.24633" lon="4.94659">
        <ele>489</ele>
        <time>2022-05-15T10:40:12Z</time>
      </trkpt>
      <trkpt lat="47.24632" lon="4.94661">
        <ele>486</ele>
        <time>2022-05-15T10:40:14Z</time>
      </trkpt>
      <trkpt lat="47.24632" lon="4.94663">
        <ele>488</ele>
        <time>2022-05-15T10:40:15Z</time>
      </trkpt>
      <trkpt lat="47.24632" lon="4.94664">
        <ele>488</ele>
        <time>2022-05-15T10:40:16Z</time>
      </trkpt>
      <trkpt lat="47.24632" lon="4.94667">
        <ele>488</ele>
        <time>2022-05-15T10:40:18Z</time>
      </trkpt>
      <trkpt lat="47.24631" lon="4.94669">
        <ele>488</ele>
        <time>2022-05-15T10:40:19Z</time>
      </trkpt>
      <trkpt lat="47.24631" lon="4.9467">
        <ele>488</ele>
        <time>2022-05-15T10:40:20Z</time>
      </trkpt>
      <trkpt lat="47.2463" lon="4.94672">
        <ele>489</ele>
        <time>2022-05-15T10:40:21Z</time>
      </trkpt>
      <trkpt lat="47.24629" lon="4.94673">
        <ele>491</ele>
        <time>2022-05-15T10:40:22Z</time>
      </trkpt>
      <trkpt lat="47.24629" lon="4.94675">
        <ele>491</ele>
        <time>2022-05-15T10:40:23Z</time>
      </trkpt>
      <trkpt lat="47.24629" lon="4.94677">
        <ele>491</ele>
        <time>2022-05-15T10:40:24Z</time>
      </trkpt>
      <trkpt lat="47.24629" lon="4.94679">
        <ele>492</ele>
        <time>2022-05-15T10:40:25Z</time>
      </trkpt>
      <trkpt lat="47.24628" lon="4.94681">
        <ele>492</ele>
        <time>2022-05-15T10:40:26Z</time>
      </trkpt>
      <trkpt lat="47.24627" lon="4.94682">
        <ele>491</ele>
        <time>2022-05-15T10:40:27Z</time>
      </trkpt>
      <trkpt lat="47.24627" lon="4.94684">
        <ele>491</ele>
        <time>2022-05-15T10:40:28Z</time>
      </trkpt>
      <trkpt lat="47.24626" lon="4.94686">
        <ele>490</ele>
        <time>2022-05-15T10:40:29Z</time>
      </trkpt>
      <trkpt lat="47.24626" lon="4.94688">
        <ele>491</ele>
        <time>2022-05-15T10:40:31Z</time>
      </trkpt>
      <trkpt lat="47.24626" lon="4.9469">
        <ele>489</ele>
        <time>2022-05-15T10:40:32Z</time>
      </trkpt>
      <trkpt lat="47.24625" lon="4.94692">
        <ele>489</ele>
        <time>2022-05-15T10:40:33Z</time>
      </trkpt>
      <trkpt lat="47.24624" lon="4.94693">
        <ele>488</ele>
        <time>2022-05-15T10:40:34Z</time>
      </trkpt>
      <trkpt lat="47.24624" lon="4.94695">
        <ele>491</ele>
        <time>2022-05-15T10:40:35Z</time>
      </trkpt>
      <trkpt lat="47.24624" lon="4.94696">
        <ele>491</ele>
        <time>2022-05-15T10:40:36Z</time>
      </trkpt>
      <trkpt lat="47.24624" lon="4.94698">
        <ele>491</ele>
        <time>2022-05-15T10:40:37Z</time>
      </trkpt>
      <trkpt lat="47.24623" lon="4.94699">
        <ele>491</ele>
        <time>2022-05-15T10:40:38Z</time>
      </trkpt>
      <trkpt lat="47.24623" lon="4.94701">
        <ele>490</ele>
        <time>2022-05-15T10:40:39Z</time>
      </trkpt>
      <trkpt lat="47.24622" lon="4.94703">
        <ele>489</ele>
        <time>2022-05-15T10:40:40Z</time>
      </trkpt>
      <trkpt lat="47.24622" lon="4.94704">
        <ele>490</ele>
        <time>2022-05-15T10:40:41Z</time>
      </trkpt>
      <trkpt lat="47.24621" lon="4.94706">
        <ele>489</ele>
        <time>2022-05-15T10:40:42Z</time>
      </trkpt>
      <trkpt lat="47.24621" lon="4.94708">
        <ele>490</ele>
        <time>2022-05-15T10:40:43Z</time>
      </trkpt>
      <trkpt lat="47.2462" lon="4.94709">
        <ele>491</ele>
        <time>2022-05-15T10:40:44Z</time>
      </trkpt>
      <trkpt lat="47.24619" lon="4.94711">
        <ele>490</ele>
        <time>2022-05-15T10:40:46Z</time>
      </trkpt>
      <trkpt lat="47.24618" lon="4.94713">
        <ele>491</ele>
        <time>2022-05-15T10:40:47Z</time>
      </trkpt>
      <trkpt lat="47.24617" lon="4.94715">
        <ele>491</ele>
        <time>2022-05-15T10:40:49Z</time>
      </trkpt>
      <trkpt lat="47.24617" lon="4.94717">
        <ele>490</ele>
        <time>2022-05-15T10:40:50Z</time>
      </trkpt>
      <trkpt lat="47.24617" lon="4.94719">
        <ele>489</ele>
        <time>2022-05-15T10:40:51Z</time>
      </trkpt>
      <trkpt lat="47.24617" lon="4.94722">
        <ele>489</ele>
        <time>2022-05-15T10:40:52Z</time>
      </trkpt>
      <trkpt lat="47.24617" lon="4.94723">
        <ele>488</ele>
        <time>2022-05-15T10:40:53Z</time>
      </trkpt>
      <trkpt lat="47.24617" lon="4.94725">
        <ele>488</ele>
        <time>2022-05-15T10:40:54Z</time>
      </trkpt>
      <trkpt lat="47.24617" lon="4.94727">
        <ele>487</ele>
        <time>2022-05-15T10:40:55Z</time>
      </trkpt>
      <trkpt lat="47.24617" lon="4.94729">
        <ele>488</ele>
        <time>2022-05-15T10:40:56Z</time>
      </trkpt>
      <trkpt lat="47.24617" lon="4.94731">
        <ele>488</ele>
        <time>2022-05-15T10:40:57Z</time>
      </trkpt>
      <trkpt lat="47.24617" lon="4.94733">
        <ele>488</ele>
        <time>2022-05-15T10:40:58Z</time>
      </trkpt>
      <trkpt lat="47.24616" lon="4.94734">
        <ele>488</ele>
        <time>2022-05-15T10:40:59Z</time>
      </trkpt>
      <trkpt lat="47.24616" lon="4.94736">
        <ele>488</ele>
        <time>2022-05-15T10:41:00Z</time>
      </trkpt>
      <trkpt lat="47.24615" lon="4.94737">
        <ele>489</ele>
        <time>2022-05-15T10:41:01Z</time>
      </trkpt>
      <trkpt lat="47.24614" lon="4.94738">
        <ele>489</ele>
        <time>2022-05-15T10:41:02Z</time>
      </trkpt>
      <trkpt lat="47.24614" lon="4.9474">
        <ele>490</ele>
        <time>2022-05-15T10:41:03Z</time>
      </trkpt>
      <trkpt lat="47.24614" lon="4.94742">
        <ele>489</ele>
        <time>2022-05-15T10:41:04Z</time>
      </trkpt>
      <trkpt lat="47.24613" lon="4.94744">
        <ele>489</ele>
        <time>2022-05-15T10:41:05Z</time>
      </trkpt>
      <trkpt lat="47.24613" lon="4.94746">
        <ele>489</ele>
        <time>2022-05-15T10:41:06Z</time>
      </trkpt>
      <trkpt lat="47.24613" lon="4.94747">
        <ele>489</ele>
        <time>2022-05-15T10:41:07Z</time>
      </trkpt>
      <trkpt lat="47.24612" lon="4.94749">
        <ele>488</ele>
        <time>2022-05-15T10:41:09Z</time>
      </trkpt>
      <trkpt lat="47.24611" lon="4.9475">
        <ele>487</ele>
        <time>2022-05-15T10:41:10Z</time>
      </trkpt>
      <trkpt lat="47.24611" lon="4.94752">
        <ele>487</ele>
        <time>2022-05-15T10:41:11Z</time>
      </trkpt>
      <trkpt lat="47.2461" lon="4.94754">
        <ele>487</ele>
        <time>2022-05-15T10:41:13Z</time>
      </trkpt>
      <trkpt lat="47.24609" lon="4.94756">
        <ele>487</ele>
        <time>2022-05-15T10:41:14Z</time>
      </trkpt>
      <trkpt lat="47.24608" lon="4.94758">
        <ele>487</ele>
        <time>2022-05-15T10:41:15Z</time>
      </trkpt>
      <trkpt lat="47.24607" lon="4.9476">
        <ele>487</ele>
        <time>2022-05-15T10:41:16Z</time>
      </trkpt>
      <trkpt lat="47.24607" lon="4.94762">
        <ele>488</ele>
        <time>2022-05-15T10:41:17Z</time>
      </trkpt>
      <trkpt lat="47.24607" lon="4.94763">
        <ele>488</ele>
        <time>2022-05-15T10:41:18Z</time>
      </trkpt>
      <trkpt lat="47.24606" lon="4.94765">
        <ele>488</ele>
        <time>2022-05-15T10:41:19Z</time>
      </trkpt>
      <trkpt lat="47.24605" lon="4.94767">
        <ele>487</ele>
        <time>2022-05-15T10:41:20Z</time>
      </trkpt>
      <trkpt lat="47.24604" lon="4.94769">
        <ele>487</ele>
        <time>2022-05-15T10:41:21Z</time>
      </trkpt>
      <trkpt lat="47.24604" lon="4.94771">
        <ele>490</ele>
        <time>2022-05-15T10:41:24Z</time>
      </trkpt>
      <trkpt lat="47.24604" lon="4.94773">
        <ele>490</ele>
        <time>2022-05-15T10:41:25Z</time>
      </trkpt>
      <trkpt lat="47.24604" lon="4.94774">
        <ele>490</ele>
        <time>2022-05-15T10:41:26Z</time>
      </trkpt>
      <trkpt lat="47.24603" lon="4.94776">
        <ele>489</ele>
        <time>2022-05-15T10:41:28Z</time>
      </trkpt>
      <trkpt lat="47.24602" lon="4.94778">
        <ele>488</ele>
        <time>2022-05-15T10:41:29Z</time>
      </trkpt>
      <trkpt lat="47.24601" lon="4.94779">
        <ele>488</ele>
        <time>2022-05-15T10:41:30Z</time>
      </trkpt>
      <trkpt lat="47.24601" lon="4.94781">
        <ele>487</ele>
        <time>2022-05-15T10:41:31Z</time>
      </trkpt>
      <trkpt lat="47.246" lon="4.94782">
        <ele>488</ele>
        <time>2022-05-15T10:41:32Z</time>
      </trkpt>
      <trkpt lat="47.246" lon="4.94783">
        <ele>488</ele>
        <time>2022-05-15T10:41:33Z</time>
      </trkpt>
      <trkpt lat="47.246" lon="4.94786">
        <ele>486</ele>
        <time>2022-05-15T10:41:36Z</time>
      </trkpt>
      <trkpt lat="47.24601" lon="4.94789">
        <ele>485</ele>
        <time>2022-05-15T10:41:37Z</time>
      </trkpt>
      <trkpt lat="47.24601" lon="4.94791">
        <ele>485</ele>
        <time>2022-05-15T10:41:38Z</time>
      </trkpt>
      <trkpt lat="47.24601" lon="4.94792">
        <ele>485</ele>
        <time>2022-05-15T10:41:39Z</time>
      </trkpt>
      <trkpt lat="47.24601" lon="4.94794">
        <ele>486</ele>
        <time>2022-05-15T10:41:40Z</time>
      </trkpt>
      <trkpt lat="47.246" lon="4.94796">
        <ele>485</ele>
        <time>2022-05-15T10:41:41Z</time>
      </trkpt>
      <trkpt lat="47.246" lon="4.94798">
        <ele>483</ele>
        <time>2022-05-15T10:41:42Z</time>
      </trkpt>
      <trkpt lat="47.246" lon="4.948">
        <ele>482</ele>
        <time>2022-05-15T10:41:43Z</time>
      </trkpt>
      <trkpt lat="47.24599" lon="4.94803">
        <ele>482</ele>
        <time>2022-05-15T10:41:44Z</time>
      </trkpt>
      <trkpt lat="47.24598" lon="4.94805">
        <ele>484</ele>
        <time>2022-05-15T10:41:45Z</time>
      </trkpt>
      <trkpt lat="47.24597" lon="4.94807">
        <ele>484</ele>
        <time>2022-05-15T10:41:46Z</time>
      </trkpt>
      <trkpt lat="47.24596" lon="4.94809">
        <ele>484</ele>
        <time>2022-05-15T10:41:47Z</time>
      </trkpt>
      <trkpt lat="47.24596" lon="4.94811">
        <ele>485</ele>
        <time>2022-05-15T10:41:48Z</time>
      </trkpt>
      <trkpt lat="47.24596" lon="4.94813">
        <ele>485</ele>
        <time>2022-05-15T10:41:49Z</time>
      </trkpt>
      <trkpt lat="47.24595" lon="4.94815">
        <ele>485</ele>
        <time>2022-05-15T10:41:50Z</time>
      </trkpt>
      <trkpt lat="47.24594" lon="4.94816">
        <ele>485</ele>
        <time>2022-05-15T10:41:51Z</time>
      </trkpt>
      <trkpt lat="47.24594" lon="4.94818">
        <ele>486</ele>
        <time>2022-05-15T10:41:52Z</time>
      </trkpt>
      <trkpt lat="47.24593" lon="4.94819">
        <ele>485</ele>
        <time>2022-05-15T10:41:53Z</time>
      </trkpt>
      <trkpt lat="47.24593" lon="4.94821">
        <ele>484</ele>
        <time>2022-05-15T10:41:54Z</time>
      </trkpt>
      <trkpt lat="47.24592" lon="4.94823">
        <ele>483</ele>
        <time>2022-05-15T10:41:55Z</time>
      </trkpt>
      <trkpt lat="47.24592" lon="4.94826">
        <ele>482</ele>
        <time>2022-05-15T10:41:56Z</time>
      </trkpt>
      <trkpt lat="47.24591" lon="4.9483">
        <ele>482</ele>
        <time>2022-05-15T10:41:58Z</time>
      </trkpt>
      <trkpt lat="47.24591" lon="4.94831">
        <ele>483</ele>
        <time>2022-05-15T10:41:59Z</time>
      </trkpt>
      <trkpt lat="47.24591" lon="4.94833">
        <ele>482</ele>
        <time>2022-05-15T10:42:00Z</time>
      </trkpt>
      <trkpt lat="47.24591" lon="4.94835">
        <ele>483</ele>
        <time>2022-05-15T10:42:01Z</time>
      </trkpt>
      <trkpt lat="47.2459" lon="4.94836">
        <ele>484</ele>
        <time>2022-05-15T10:42:02Z</time>
      </trkpt>
      <trkpt lat="47.24589" lon="4.94838">
        <ele>484</ele>
        <time>2022-05-15T10:42:03Z</time>
      </trkpt>
      <trkpt lat="47.24589" lon="4.9484">
        <ele>482</ele>
        <time>2022-05-15T10:42:04Z</time>
      </trkpt>
      <trkpt lat="47.24589" lon="4.94841">
        <ele>483</ele>
        <time>2022-05-15T10:42:05Z</time>
      </trkpt>
      <trkpt lat="47.24588" lon="4.94843">
        <ele>483</ele>
        <time>2022-05-15T10:42:06Z</time>
      </trkpt>
      <trkpt lat="47.24587" lon="4.94846">
        <ele>484</ele>
        <time>2022-05-15T10:42:07Z</time>
      </trkpt>
      <trkpt lat="47.24586" lon="4.94848">
        <ele>485</ele>
        <time>2022-05-15T10:42:08Z</time>
      </trkpt>
      <trkpt lat="47.24586" lon="4.9485">
        <ele>484</ele>
        <time>2022-05-15T10:42:09Z</time>
      </trkpt>
      <trkpt lat="47.24585" lon="4.94851">
        <ele>484</ele>
        <time>2022-05-15T10:42:10Z</time>
      </trkpt>
      <trkpt lat="47.24585" lon="4.94854">
        <ele>483</ele>
        <time>2022-05-15T10:42:12Z</time>
      </trkpt>
      <trkpt lat="47.24584" lon="4.94858">
        <ele>483</ele>
        <time>2022-05-15T10:42:14Z</time>
      </trkpt>
      <trkpt lat="47.24583" lon="4.94859">
        <ele>483</ele>
        <time>2022-05-15T10:42:15Z</time>
      </trkpt>
      <trkpt lat="47.24583" lon="4.94861">
        <ele>483</ele>
        <time>2022-05-15T10:42:16Z</time>
      </trkpt>
      <trkpt lat="47.24582" lon="4.94862">
        <ele>483</ele>
        <time>2022-05-15T10:42:17Z</time>
      </trkpt>
      <trkpt lat="47.24581" lon="4.94863">
        <ele>482</ele>
        <time>2022-05-15T10:42:18Z</time>
      </trkpt>
      <trkpt lat="47.24581" lon="4.94865">
        <ele>482</ele>
        <time>2022-05-15T10:42:19Z</time>
      </trkpt>
      <trkpt lat="47.24581" lon="4.94867">
        <ele>482</ele>
        <time>2022-05-15T10:42:20Z</time>
      </trkpt>
      <trkpt lat="47.24581" lon="4.94868">
        <ele>482</ele>
        <time>2022-05-15T10:42:21Z</time>
      </trkpt>
      <trkpt lat="47.24581" lon="4.94871">
        <ele>482</ele>
        <time>2022-05-15T10:42:23Z</time>
      </trkpt>
      <trkpt lat="47.2458" lon="4.94872">
        <ele>482</ele>
        <time>2022-05-15T10:42:24Z</time>
      </trkpt>
      <trkpt lat="47.24579" lon="4.94874">
        <ele>481</ele>
        <time>2022-05-15T10:42:25Z</time>
      </trkpt>
      <trkpt lat="47.24579" lon="4.94875">
        <ele>481</ele>
        <time>2022-05-15T10:42:26Z</time>
      </trkpt>
      <trkpt lat="47.24577" lon="4.94877">
        <ele>481</ele>
        <time>2022-05-15T10:42:28Z</time>
      </trkpt>
      <trkpt lat="47.24577" lon="4.94879">
        <ele>480</ele>
        <time>2022-05-15T10:42:29Z</time>
      </trkpt>
      <trkpt lat="47.24577" lon="4.94881">
        <ele>481</ele>
        <time>2022-05-15T10:42:30Z</time>
      </trkpt>
      <trkpt lat="47.24576" lon="4.94882">
        <ele>481</ele>
        <time>2022-05-15T10:42:31Z</time>
      </trkpt>
      <trkpt lat="47.24576" lon="4.94884">
        <ele>481</ele>
        <time>2022-05-15T10:42:32Z</time>
      </trkpt>
      <trkpt lat="47.24576" lon="4.94886">
        <ele>479</ele>
        <time>2022-05-15T10:42:33Z</time>
      </trkpt>
      <trkpt lat="47.24575" lon="4.94887">
        <ele>481</ele>
        <time>2022-05-15T10:42:34Z</time>
      </trkpt>
      <trkpt lat="47.24574" lon="4.94889">
        <ele>480</ele>
        <time>2022-05-15T10:42:35Z</time>
      </trkpt>
      <trkpt lat="47.24573" lon="4.9489">
        <ele>481</ele>
        <time>2022-05-15T10:42:37Z</time>
      </trkpt>
      <trkpt lat="47.24573" lon="4.94891">
        <ele>480</ele>
        <time>2022-05-15T10:42:38Z</time>
      </trkpt>
      <trkpt lat="47.24572" lon="4.94893">
        <ele>479</ele>
        <time>2022-05-15T10:42:39Z</time>
      </trkpt>
      <trkpt lat="47.24571" lon="4.94895">
        <ele>479</ele>
        <time>2022-05-15T10:42:41Z</time>
      </trkpt>
      <trkpt lat="47.24571" lon="4.94896">
        <ele>480</ele>
        <time>2022-05-15T10:42:42Z</time>
      </trkpt>
      <trkpt lat="47.24571" lon="4.94897">
        <ele>480</ele>
        <time>2022-05-15T10:42:43Z</time>
      </trkpt>
      <trkpt lat="47.24571" lon="4.94899">
        <ele>479</ele>
        <time>2022-05-15T10:42:45Z</time>
      </trkpt>
      <trkpt lat="47.2457" lon="4.949">
        <ele>478</ele>
        <time>2022-05-15T10:42:46Z</time>
      </trkpt>
      <trkpt lat="47.24569" lon="4.94901">
        <ele>478</ele>
        <time>2022-05-15T10:42:47Z</time>
      </trkpt>
      <trkpt lat="47.24568" lon="4.94903">
        <ele>477</ele>
        <time>2022-05-15T10:42:48Z</time>
      </trkpt>
      <trkpt lat="47.24567" lon="4.94904">
        <ele>478</ele>
        <time>2022-05-15T10:42:49Z</time>
      </trkpt>
      <trkpt lat="47.24567" lon="4.94906">
        <ele>478</ele>
        <time>2022-05-15T10:42:50Z</time>
      </trkpt>
      <trkpt lat="47.24567" lon="4.94908">
        <ele>479</ele>
        <time>2022-05-15T10:42:51Z</time>
      </trkpt>
      <trkpt lat="47.24567" lon="4.94909">
        <ele>479</ele>
        <time>2022-05-15T10:42:52Z</time>
      </trkpt>
      <trkpt lat="47.24566" lon="4.94911">
        <ele>479</ele>
        <time>2022-05-15T10:42:53Z</time>
      </trkpt>
      <trkpt lat="47.24565" lon="4.94913">
        <ele>479</ele>
        <time>2022-05-15T10:42:55Z</time>
      </trkpt>
      <trkpt lat="47.24564" lon="4.94914">
        <ele>480</ele>
        <time>2022-05-15T10:42:57Z</time>
      </trkpt>
      <trkpt lat="47.24563" lon="4.94916">
        <ele>479</ele>
        <time>2022-05-15T10:42:59Z</time>
      </trkpt>
      <trkpt lat="47.24562" lon="4.94916">
        <ele>478</ele>
        <time>2022-05-15T10:43:01Z</time>
      </trkpt>
      <trkpt lat="47.24561" lon="4.94916">
        <ele>477</ele>
        <time>2022-05-15T10:43:02Z</time>
      </trkpt>
      <trkpt lat="47.2456" lon="4.94914">
        <ele>477</ele>
        <time>2022-05-15T10:43:04Z</time>
      </trkpt>
      <trkpt lat="47.24559" lon="4.94914">
        <ele>476</ele>
        <time>2022-05-15T10:43:06Z</time>
      </trkpt>
      <trkpt lat="47.24557" lon="4.94914">
        <ele>476</ele>
        <time>2022-05-15T10:43:07Z</time>
      </trkpt>
      <trkpt lat="47.24556" lon="4.94914">
        <ele>476</ele>
        <time>2022-05-15T10:43:08Z</time>
      </trkpt>
      <trkpt lat="47.24555" lon="4.94914">
        <ele>476</ele>
        <time>2022-05-15T10:43:09Z</time>
      </trkpt>
      <trkpt lat="47.24555" lon="4.94913">
        <ele>477</ele>
        <time>2022-05-15T10:43:10Z</time>
      </trkpt>
      <trkpt lat="47.24554" lon="4.94912">
        <ele>476</ele>
        <time>2022-05-15T10:43:12Z</time>
      </trkpt>
      <trkpt lat="47.24551" lon="4.94911">
        <ele>476</ele>
        <time>2022-05-15T10:43:15Z</time>
      </trkpt>
      <trkpt lat="47.2455" lon="4.9491">
        <ele>476</ele>
        <time>2022-05-15T10:43:16Z</time>
      </trkpt>
      <trkpt lat="47.24548" lon="4.9491">
        <ele>477</ele>
        <time>2022-05-15T10:43:18Z</time>
      </trkpt>
      <trkpt lat="47.24547" lon="4.9491">
        <ele>478</ele>
        <time>2022-05-15T10:43:19Z</time>
      </trkpt>
      <trkpt lat="47.24546" lon="4.94909">
        <ele>477</ele>
        <time>2022-05-15T10:43:21Z</time>
      </trkpt>
      <trkpt lat="47.24545" lon="4.94908">
        <ele>477</ele>
        <time>2022-05-15T10:43:23Z</time>
      </trkpt>
      <trkpt lat="47.24544" lon="4.94907">
        <ele>478</ele>
        <time>2022-05-15T10:43:25Z</time>
      </trkpt>
      <trkpt lat="47.24542" lon="4.94907">
        <ele>479</ele>
        <time>2022-05-15T10:43:27Z</time>
      </trkpt>
      <trkpt lat="47.2454" lon="4.94906">
        <ele>479</ele>
        <time>2022-05-15T10:43:28Z</time>
      </trkpt>
      <trkpt lat="47.24539" lon="4.94905">
        <ele>479</ele>
        <time>2022-05-15T10:43:29Z</time>
      </trkpt>
      <trkpt lat="47.24538" lon="4.94906">
        <ele>480</ele>
        <time>2022-05-15T10:43:31Z</time>
      </trkpt>
      <trkpt lat="47.24536" lon="4.94907">
        <ele>480</ele>
        <time>2022-05-15T10:43:32Z</time>
      </trkpt>
      <trkpt lat="47.24535" lon="4.94906">
        <ele>478</ele>
        <time>2022-05-15T10:43:34Z</time>
      </trkpt>
      <trkpt lat="47.24535" lon="4.94904">
        <ele>478</ele>
        <time>2022-05-15T10:43:36Z</time>
      </trkpt>
      <trkpt lat="47.24536" lon="4.94903">
        <ele>478</ele>
        <time>2022-05-15T10:43:37Z</time>
      </trkpt>
      <trkpt lat="47.24536" lon="4.94901">
        <ele>478</ele>
        <time>2022-05-15T10:43:39Z</time>
      </trkpt>
      <trkpt lat="47.24536" lon="4.949">
        <ele>477</ele>
        <time>2022-05-15T10:43:41Z</time>
      </trkpt>
      <trkpt lat="47.24537" lon="4.94898">
        <ele>476</ele>
        <time>2022-05-15T10:43:43Z</time>
      </trkpt>
      <trkpt lat="47.24537" lon="4.94897">
        <ele>476</ele>
        <time>2022-05-15T10:43:45Z</time>
      </trkpt>
      <trkpt lat="47.24539" lon="4.94897">
        <ele>477</ele>
        <time>2022-05-15T10:43:50Z</time>
      </trkpt>
      <trkpt lat="47.2454" lon="4.94896">
        <ele>476</ele>
        <time>2022-05-15T10:43:53Z</time>
      </trkpt>
      <trkpt lat="47.2454" lon="4.94894">
        <ele>475</ele>
        <time>2022-05-15T10:43:56Z</time>
      </trkpt>
      <trkpt lat="47.2454" lon="4.94892">
        <ele>474</ele>
        <time>2022-05-15T10:43:58Z</time>
      </trkpt>
      <trkpt lat="47.2454" lon="4.94891">
        <ele>472</ele>
        <time>2022-05-15T10:44:09Z</time>
      </trkpt>
      <trkpt lat="47.2454" lon="4.9489">
        <ele>471</ele>
        <time>2022-05-15T10:44:11Z</time>
      </trkpt>
      <trkpt lat="47.24539" lon="4.94889">
        <ele>472</ele>
        <time>2022-05-15T10:44:18Z</time>
      </trkpt>
      <trkpt lat="47.24538" lon="4.94888">
        <ele>471</ele>
        <time>2022-05-15T10:44:22Z</time>
      </trkpt>
      <trkpt lat="47.24537" lon="4.94888">
        <ele>469</ele>
        <time>2022-05-15T10:44:28Z</time>
      </trkpt>
      <trkpt lat="47.24537" lon="4.94889">
        <ele>470</ele>
        <time>2022-05-15T10:44:37Z</time>
      </trkpt>
      <trkpt lat="47.24538" lon="4.9489">
        <ele>472</ele>
        <time>2022-05-15T10:44:41Z</time>
      </trkpt>
      <trkpt lat="47.24538" lon="4.94891">
        <ele>472</ele>
        <time>2022-05-15T10:44:49Z</time>
      </trkpt>
      <trkpt lat="47.24537" lon="4.94892">
        <ele>472</ele>
        <time>2022-05-15T10:45:10Z</time>
      </trkpt>
      <trkpt lat="47.24537" lon="4.94893">
        <ele>472</ele>
        <time>2022-05-15T10:45:18Z</time>
      </trkpt>
      <trkpt lat="47.24537" lon="4.94892">
        <ele>472</ele>
        <time>2022-05-15T10:45:38Z</time>
      </trkpt>
      <trkpt lat="47.24538" lon="4.94893">
        <ele>471</ele>
        <time>2022-05-15T10:47:06Z</time>
      </trkpt>
      <trkpt lat="47.24537" lon="4.94892">
        <ele>471</ele>
        <time>2022-05-15T10:48:07Z</time>
      </trkpt>
      <trkpt lat="47.24537" lon="4.9489">
        <ele>468</ele>
        <time>2022-05-15T10:48:10Z</time>
      </trkpt>
      <trkpt lat="47.24537" lon="4.94889">
        <ele>466</ele>
        <time>2022-05-15T10:48:13Z</time>
      </trkpt>
      <trkpt lat="47.24538" lon="4.94887">
        <ele>466</ele>
        <time>2022-05-15T10:48:27Z</time>
      </trkpt>
      <trkpt lat="47.24538" lon="4.94889">
        <ele>467</ele>
        <time>2022-05-15T10:48:32Z</time>
      </trkpt>
      <trkpt lat="47.24539" lon="4.94891">
        <ele>467</ele>
        <time>2022-05-15T10:48:34Z</time>
      </trkpt>
      <trkpt lat="47.24538" lon="4.94891">
        <ele>465</ele>
        <time>2022-05-15T10:48:40Z</time>
      </trkpt>
      <trkpt lat="47.24537" lon="4.94893">
        <ele>473</ele>
        <time>2022-05-15T10:48:58Z</time>
      </trkpt>
      <trkpt lat="47.24537" lon="4.94891">
        <ele>469</ele>
        <time>2022-05-15T10:49:01Z</time>
      </trkpt>
      <trkpt lat="47.24536" lon="4.94889">
        <ele>467</ele>
        <time>2022-05-15T10:49:03Z</time>
      </trkpt>
      <trkpt lat="47.24535" lon="4.94888">
        <ele>467</ele>
        <time>2022-05-15T10:49:06Z</time>
      </trkpt>
      <trkpt lat="47.24534" lon="4.94889">
        <ele>468</ele>
        <time>2022-05-15T10:49:13Z</time>
      </trkpt>
      <trkpt lat="47.24535" lon="4.94889">
        <ele>471</ele>
        <time>2022-05-15T10:49:31Z</time>
      </trkpt>
      <trkpt lat="47.24536" lon="4.94889">
        <ele>473</ele>
        <time>2022-05-15T10:49:34Z</time>
      </trkpt>
      <trkpt lat="47.24537" lon="4.94889">
        <ele>474</ele>
        <time>2022-05-15T10:49:37Z</time>
      </trkpt>
      <trkpt lat="47.24538" lon="4.94889">
        <ele>474</ele>
        <time>2022-05-15T10:49:42Z</time>
      </trkpt>
      <trkpt lat="47.24538" lon="4.94888">
        <ele>473</ele>
        <time>2022-05-15T10:55:27Z</time>
      </trkpt>
      <trkpt lat="47.24539" lon="4.94888">
        <ele>472</ele>
        <time>2022-05-15T10:57:28Z</time>
      </trkpt>
      <trkpt lat="47.24541" lon="4.94889">
        <ele>474</ele>
        <time>2022-05-15T11:26:27.409Z</time>
      </trkpt>
      <trkpt lat="47.2454" lon="4.94892">
        <ele>474</ele>
        <time>2022-05-15T11:26:29Z</time>
      </trkpt>
      <trkpt lat="47.24538" lon="4.94892">
        <ele>473</ele>
        <time>2022-05-15T11:26:30Z</time>
      </trkpt>
      <trkpt lat="47.24537" lon="4.94892">
        <ele>474</ele>
        <time>2022-05-15T11:26:33Z</time>
      </trkpt>
      <trkpt lat="47.24535" lon="4.94891">
        <ele>473</ele>
        <time>2022-05-15T11:26:34Z</time>
      </trkpt>
      <trkpt lat="47.24536" lon="4.9489">
        <ele>472</ele>
        <time>2022-05-15T11:26:55Z</time>
      </trkpt>
      <trkpt lat="47.24538" lon="4.94889">
        <ele>471</ele>
        <time>2022-05-15T11:27:02Z</time>
      </trkpt>
      <trkpt lat="47.24539" lon="4.9489">
        <ele>470</ele>
        <time>2022-05-15T11:27:15Z</time>
      </trkpt>
      <trkpt lat="47.2454" lon="4.94891">
        <ele>469</ele>
        <time>2022-05-15T11:27:20Z</time>
      </trkpt>
      <trkpt lat="47.24541" lon="4.9489">
        <ele>468</ele>
        <time>2022-05-15T11:27:24Z</time>
      </trkpt>
      <trkpt lat="47.2454" lon="4.9489">
        <ele>468</ele>
        <time>2022-05-15T11:28:11Z</time>
      </trkpt>
      <trkpt lat="47.24539" lon="4.94891">
        <ele>468</ele>
        <time>2022-05-15T11:28:15Z</time>
      </trkpt>
      <trkpt lat="47.2454" lon="4.9489">
        <ele>469</ele>
        <time>2022-05-15T11:28:36Z</time>
      </trkpt>
      <trkpt lat="47.2454" lon="4.94889">
        <ele>469</ele>
        <time>2022-05-15T11:28:39Z</time>
      </trkpt>
      <trkpt lat="47.24541" lon="4.94888">
        <ele>470</ele>
        <time>2022-05-15T11:28:42Z</time>
      </trkpt>
      <trkpt lat="47.24542" lon="4.94887">
        <ele>471</ele>
        <time>2022-05-15T11:28:45Z</time>
      </trkpt>
      <trkpt lat="47.24543" lon="4.94886">
        <ele>472</ele>
        <time>2022-05-15T11:28:48Z</time>
      </trkpt>
      <trkpt lat="47.24543" lon="4.94887">
        <ele>474</ele>
        <time>2022-05-15T11:29:00Z</time>
      </trkpt>
      <trkpt lat="47.24542" lon="4.94887">
        <ele>474</ele>
        <time>2022-05-15T11:29:02Z</time>
      </trkpt>
      <trkpt lat="47.24541" lon="4.94888">
        <ele>474</ele>
        <time>2022-05-15T11:30:15Z</time>
      </trkpt>
      <trkpt lat="47.24542" lon="4.94889">
        <ele>470</ele>
        <time>2022-05-15T11:30:24Z</time>
      </trkpt>
      <trkpt lat="47.24543" lon="4.94889">
        <ele>468</ele>
        <time>2022-05-15T11:30:31Z</time>
      </trkpt>
      <trkpt lat="47.24544" lon="4.94887">
        <ele>466</ele>
        <time>2022-05-15T11:30:32Z</time>
      </trkpt>
      <trkpt lat="47.24545" lon="4.94886">
        <ele>464</ele>
        <time>2022-05-15T11:30:34Z</time>
      </trkpt>
      <trkpt lat="47.24544" lon="4.94886">
        <ele>465</ele>
        <time>2022-05-15T11:30:43Z</time>
      </trkpt>
      <trkpt lat="47.24543" lon="4.94886">
        <ele>466</ele>
        <time>2022-05-15T11:30:46Z</time>
      </trkpt>
      <trkpt lat="47.24542" lon="4.94887">
        <ele>468</ele>
        <time>2022-05-15T11:30:51Z</time>
      </trkpt>
      <trkpt lat="47.24541" lon="4.94886">
        <ele>468</ele>
        <time>2022-05-15T11:31:47Z</time>
      </trkpt>
      <trkpt lat="47.2454" lon="4.94885">
        <ele>469</ele>
        <time>2022-05-15T11:31:48Z</time>
      </trkpt>
      <trkpt lat="47.24539" lon="4.94887">
        <ele>471</ele>
        <time>2022-05-15T11:32:57Z</time>
      </trkpt>
      <trkpt lat="47.2454" lon="4.94888">
        <ele>471</ele>
        <time>2022-05-15T11:32:59Z</time>
      </trkpt>
      <trkpt lat="47.24539" lon="4.9489">
        <ele>470</ele>
        <time>2022-05-15T11:33:01Z</time>
      </trkpt>
      <trkpt lat="47.24538" lon="4.94891">
        <ele>471</ele>
        <time>2022-05-15T11:33:04Z</time>
      </trkpt>
      <trkpt lat="47.24537" lon="4.94891">
        <ele>470</ele>
        <time>2022-05-15T11:33:05Z</time>
      </trkpt>
      <trkpt lat="47.24536" lon="4.94891">
        <ele>470</ele>
        <time>2022-05-15T11:33:06Z</time>
      </trkpt>
      <trkpt lat="47.24534" lon="4.9489">
        <ele>470</ele>
        <time>2022-05-15T11:33:07Z</time>
      </trkpt>
      <trkpt lat="47.24533" lon="4.9489">
        <ele>470</ele>
        <time>2022-05-15T11:33:08Z</time>
      </trkpt>
      <trkpt lat="47.24532" lon="4.94889">
        <ele>470</ele>
        <time>2022-05-15T11:33:09Z</time>
      </trkpt>
      <trkpt lat="47.24531" lon="4.94889">
        <ele>471</ele>
        <time>2022-05-15T11:33:10Z</time>
      </trkpt>
      <trkpt lat="47.2453" lon="4.94888">
        <ele>472</ele>
        <time>2022-05-15T11:33:11Z</time>
      </trkpt>
      <trkpt lat="47.24529" lon="4.94887">
        <ele>472</ele>
        <time>2022-05-15T11:33:12Z</time>
      </trkpt>
      <trkpt lat="47.24528" lon="4.94887">
        <ele>472</ele>
        <time>2022-05-15T11:33:13Z</time>
      </trkpt>
      <trkpt lat="47.24528" lon="4.94886">
        <ele>473</ele>
        <time>2022-05-15T11:33:14Z</time>
      </trkpt>
      <trkpt lat="47.24527" lon="4.94885">
        <ele>474</ele>
        <time>2022-05-15T11:33:15Z</time>
      </trkpt>
      <trkpt lat="47.24525" lon="4.94885">
        <ele>472</ele>
        <time>2022-05-15T11:33:16Z</time>
      </trkpt>
      <trkpt lat="47.24524" lon="4.94884">
        <ele>472</ele>
        <time>2022-05-15T11:33:17Z</time>
      </trkpt>
      <trkpt lat="47.24523" lon="4.94883">
        <ele>472</ele>
        <time>2022-05-15T11:33:19Z</time>
      </trkpt>
      <trkpt lat="47.24522" lon="4.94882">
        <ele>471</ele>
        <time>2022-05-15T11:33:20Z</time>
      </trkpt>
      <trkpt lat="47.24521" lon="4.9488">
        <ele>470</ele>
        <time>2022-05-15T11:33:21Z</time>
      </trkpt>
      <trkpt lat="47.24521" lon="4.94879">
        <ele>470</ele>
        <time>2022-05-15T11:33:22Z</time>
      </trkpt>
      <trkpt lat="47.2452" lon="4.94877">
        <ele>470</ele>
        <time>2022-05-15T11:33:23Z</time>
      </trkpt>
      <trkpt lat="47.24519" lon="4.94876">
        <ele>469</ele>
        <time>2022-05-15T11:33:24Z</time>
      </trkpt>
      <trkpt lat="47.24518" lon="4.94875">
        <ele>469</ele>
        <time>2022-05-15T11:33:25Z</time>
      </trkpt>
      <trkpt lat="47.24517" lon="4.94874">
        <ele>470</ele>
        <time>2022-05-15T11:33:26Z</time>
      </trkpt>
      <trkpt lat="47.24516" lon="4.94873">
        <ele>469</ele>
        <time>2022-05-15T11:33:27Z</time>
      </trkpt>
      <trkpt lat="47.24515" lon="4.94872">
        <ele>470</ele>
        <time>2022-05-15T11:33:28Z</time>
      </trkpt>
      <trkpt lat="47.24514" lon="4.94871">
        <ele>470</ele>
        <time>2022-05-15T11:33:29Z</time>
      </trkpt>
      <trkpt lat="47.24513" lon="4.9487">
        <ele>470</ele>
        <time>2022-05-15T11:33:30Z</time>
      </trkpt>
      <trkpt lat="47.24512" lon="4.94869">
        <ele>470</ele>
        <time>2022-05-15T11:33:31Z</time>
      </trkpt>
      <trkpt lat="47.24512" lon="4.94868">
        <ele>469</ele>
        <time>2022-05-15T11:33:32Z</time>
      </trkpt>
      <trkpt lat="47.24511" lon="4.94866">
        <ele>470</ele>
        <time>2022-05-15T11:33:34Z</time>
      </trkpt>
      <trkpt lat="47.2451" lon="4.94866">
        <ele>470</ele>
        <time>2022-05-15T11:33:36Z</time>
      </trkpt>
      <trkpt lat="47.24509" lon="4.94867">
        <ele>470</ele>
        <time>2022-05-15T11:33:38Z</time>
      </trkpt>
      <trkpt lat="47.24508" lon="4.94867">
        <ele>469</ele>
        <time>2022-05-15T11:33:39Z</time>
      </trkpt>
      <trkpt lat="47.24507" lon="4.94868">
        <ele>470</ele>
        <time>2022-05-15T11:33:42Z</time>
      </trkpt>
      <trkpt lat="47.24505" lon="4.9487">
        <ele>471</ele>
        <time>2022-05-15T11:33:44Z</time>
      </trkpt>
      <trkpt lat="47.24504" lon="4.94872">
        <ele>471</ele>
        <time>2022-05-15T11:33:45Z</time>
      </trkpt>
      <trkpt lat="47.24504" lon="4.94874">
        <ele>471</ele>
        <time>2022-05-15T11:33:46Z</time>
      </trkpt>
      <trkpt lat="47.24504" lon="4.94875">
        <ele>471</ele>
        <time>2022-05-15T11:33:47Z</time>
      </trkpt>
      <trkpt lat="47.24502" lon="4.94878">
        <ele>470</ele>
        <time>2022-05-15T11:33:49Z</time>
      </trkpt>
      <trkpt lat="47.24501" lon="4.9488">
        <ele>471</ele>
        <time>2022-05-15T11:33:50Z</time>
      </trkpt>
      <trkpt lat="47.245" lon="4.94882">
        <ele>472</ele>
        <time>2022-05-15T11:33:52Z</time>
      </trkpt>
      <trkpt lat="47.24499" lon="4.94884">
        <ele>472</ele>
        <time>2022-05-15T11:33:53Z</time>
      </trkpt>
      <trkpt lat="47.24499" lon="4.94886">
        <ele>472</ele>
        <time>2022-05-15T11:33:54Z</time>
      </trkpt>
      <trkpt lat="47.24499" lon="4.94888">
        <ele>473</ele>
        <time>2022-05-15T11:33:55Z</time>
      </trkpt>
      <trkpt lat="47.24498" lon="4.94889">
        <ele>473</ele>
        <time>2022-05-15T11:33:56Z</time>
      </trkpt>
      <trkpt lat="47.24498" lon="4.9489">
        <ele>473</ele>
        <time>2022-05-15T11:33:57Z</time>
      </trkpt>
      <trkpt lat="47.24497" lon="4.94891">
        <ele>476</ele>
        <time>2022-05-15T11:33:58Z</time>
      </trkpt>
      <trkpt lat="47.24496" lon="4.94893">
        <ele>476</ele>
        <time>2022-05-15T11:34:00Z</time>
      </trkpt>
      <trkpt lat="47.24496" lon="4.94895">
        <ele>476</ele>
        <time>2022-05-15T11:34:01Z</time>
      </trkpt>
      <trkpt lat="47.24496" lon="4.94897">
        <ele>476</ele>
        <time>2022-05-15T11:34:02Z</time>
      </trkpt>
      <trkpt lat="47.24497" lon="4.94899">
        <ele>477</ele>
        <time>2022-05-15T11:34:03Z</time>
      </trkpt>
      <trkpt lat="47.24497" lon="4.949">
        <ele>479</ele>
        <time>2022-05-15T11:34:04Z</time>
      </trkpt>
      <trkpt lat="47.24498" lon="4.94902">
        <ele>480</ele>
        <time>2022-05-15T11:34:05Z</time>
      </trkpt>
      <trkpt lat="47.24497" lon="4.94904">
        <ele>480</ele>
        <time>2022-05-15T11:34:07Z</time>
      </trkpt>
      <trkpt lat="47.24497" lon="4.94905">
        <ele>481</ele>
        <time>2022-05-15T11:34:08Z</time>
      </trkpt>
      <trkpt lat="47.24496" lon="4.94907">
        <ele>482</ele>
        <time>2022-05-15T11:34:10Z</time>
      </trkpt>
      <trkpt lat="47.24496" lon="4.94909">
        <ele>482</ele>
        <time>2022-05-15T11:34:11Z</time>
      </trkpt>
      <trkpt lat="47.24495" lon="4.94909">
        <ele>481</ele>
        <time>2022-05-15T11:34:14Z</time>
      </trkpt>
      <trkpt lat="47.24494" lon="4.9491">
        <ele>481</ele>
        <time>2022-05-15T11:34:15Z</time>
      </trkpt>
      <trkpt lat="47.24493" lon="4.94911">
        <ele>481</ele>
        <time>2022-05-15T11:34:16Z</time>
      </trkpt>
      <trkpt lat="47.24492" lon="4.94913">
        <ele>483</ele>
        <time>2022-05-15T11:34:18Z</time>
      </trkpt>
      <trkpt lat="47.24491" lon="4.94914">
        <ele>483</ele>
        <time>2022-05-15T11:34:19Z</time>
      </trkpt>
      <trkpt lat="47.2449" lon="4.94916">
        <ele>481</ele>
        <time>2022-05-15T11:34:20Z</time>
      </trkpt>
      <trkpt lat="47.24489" lon="4.94917">
        <ele>481</ele>
        <time>2022-05-15T11:34:22Z</time>
      </trkpt>
      <trkpt lat="47.24488" lon="4.94919">
        <ele>484</ele>
        <time>2022-05-15T11:34:24Z</time>
      </trkpt>
      <trkpt lat="47.24487" lon="4.9492">
        <ele>483</ele>
        <time>2022-05-15T11:34:25Z</time>
      </trkpt>
      <trkpt lat="47.24486" lon="4.94922">
        <ele>483</ele>
        <time>2022-05-15T11:34:26Z</time>
      </trkpt>
      <trkpt lat="47.24485" lon="4.94924">
        <ele>483</ele>
        <time>2022-05-15T11:34:27Z</time>
      </trkpt>
      <trkpt lat="47.24484" lon="4.94924">
        <ele>482</ele>
        <time>2022-05-15T11:34:28Z</time>
      </trkpt>
      <trkpt lat="47.24484" lon="4.94927">
        <ele>483</ele>
        <time>2022-05-15T11:34:30Z</time>
      </trkpt>
      <trkpt lat="47.24485" lon="4.94929">
        <ele>483</ele>
        <time>2022-05-15T11:34:31Z</time>
      </trkpt>
      <trkpt lat="47.24485" lon="4.94931">
        <ele>482</ele>
        <time>2022-05-15T11:34:32Z</time>
      </trkpt>
      <trkpt lat="47.24484" lon="4.94933">
        <ele>481</ele>
        <time>2022-05-15T11:34:33Z</time>
      </trkpt>
      <trkpt lat="47.24484" lon="4.94935">
        <ele>481</ele>
        <time>2022-05-15T11:34:34Z</time>
      </trkpt>
      <trkpt lat="47.24484" lon="4.94936">
        <ele>484</ele>
        <time>2022-05-15T11:34:35Z</time>
      </trkpt>
      <trkpt lat="47.24484" lon="4.94937">
        <ele>483</ele>
        <time>2022-05-15T11:34:36Z</time>
      </trkpt>
      <trkpt lat="47.24482" lon="4.94939">
        <ele>481</ele>
        <time>2022-05-15T11:34:40Z</time>
      </trkpt>
      <trkpt lat="47.24482" lon="4.9494">
        <ele>480</ele>
        <time>2022-05-15T11:34:41Z</time>
      </trkpt>
      <trkpt lat="47.24481" lon="4.94942">
        <ele>479</ele>
        <time>2022-05-15T11:34:43Z</time>
      </trkpt>
      <trkpt lat="47.2448" lon="4.94943">
        <ele>479</ele>
        <time>2022-05-15T11:34:44Z</time>
      </trkpt>
      <trkpt lat="47.2448" lon="4.94945">
        <ele>480</ele>
        <time>2022-05-15T11:34:45Z</time>
      </trkpt>
      <trkpt lat="47.2448" lon="4.94946">
        <ele>480</ele>
        <time>2022-05-15T11:34:46Z</time>
      </trkpt>
      <trkpt lat="47.2448" lon="4.94948">
        <ele>478</ele>
        <time>2022-05-15T11:34:47Z</time>
      </trkpt>
      <trkpt lat="47.24479" lon="4.9495">
        <ele>478</ele>
        <time>2022-05-15T11:34:48Z</time>
      </trkpt>
      <trkpt lat="47.24479" lon="4.94952">
        <ele>479</ele>
        <time>2022-05-15T11:34:49Z</time>
      </trkpt>
      <trkpt lat="47.24479" lon="4.94953">
        <ele>479</ele>
        <time>2022-05-15T11:34:50Z</time>
      </trkpt>
      <trkpt lat="47.24479" lon="4.94955">
        <ele>483</ele>
        <time>2022-05-15T11:34:53Z</time>
      </trkpt>
      <trkpt lat="47.24477" lon="4.94956">
        <ele>482</ele>
        <time>2022-05-15T11:34:56Z</time>
      </trkpt>
      <trkpt lat="47.24475" lon="4.94957">
        <ele>483</ele>
        <time>2022-05-15T11:34:57Z</time>
      </trkpt>
      <trkpt lat="47.24473" lon="4.94957">
        <ele>482</ele>
        <time>2022-05-15T11:34:58Z</time>
      </trkpt>
      <trkpt lat="47.24472" lon="4.94957">
        <ele>482</ele>
        <time>2022-05-15T11:34:59Z</time>
      </trkpt>
      <trkpt lat="47.2447" lon="4.94957">
        <ele>482</ele>
        <time>2022-05-15T11:35:00Z</time>
      </trkpt>
      <trkpt lat="47.24469" lon="4.94958">
        <ele>481</ele>
        <time>2022-05-15T11:35:01Z</time>
      </trkpt>
      <trkpt lat="47.24468" lon="4.94959">
        <ele>484</ele>
        <time>2022-05-15T11:35:02Z</time>
      </trkpt>
      <trkpt lat="47.24466" lon="4.94958">
        <ele>483</ele>
        <time>2022-05-15T11:35:03Z</time>
      </trkpt>
      <trkpt lat="47.24464" lon="4.94958">
        <ele>482</ele>
        <time>2022-05-15T11:35:04Z</time>
      </trkpt>
      <trkpt lat="47.24463" lon="4.94958">
        <ele>477</ele>
        <time>2022-05-15T11:35:06Z</time>
      </trkpt>
      <trkpt lat="47.24462" lon="4.9496">
        <ele>474</ele>
        <time>2022-05-15T11:35:08Z</time>
      </trkpt>
      <trkpt lat="47.2446" lon="4.94961">
        <ele>474</ele>
        <time>2022-05-15T11:35:11Z</time>
      </trkpt>
      <trkpt lat="47.24458" lon="4.94961">
        <ele>474</ele>
        <time>2022-05-15T11:35:12Z</time>
      </trkpt>
      <trkpt lat="47.24457" lon="4.94961">
        <ele>472</ele>
        <time>2022-05-15T11:35:13Z</time>
      </trkpt>
      <trkpt lat="47.24456" lon="4.94961">
        <ele>470</ele>
        <time>2022-05-15T11:35:14Z</time>
      </trkpt>
      <trkpt lat="47.24454" lon="4.94962">
        <ele>470</ele>
        <time>2022-05-15T11:35:15Z</time>
      </trkpt>
      <trkpt lat="47.24453" lon="4.94962">
        <ele>470</ele>
        <time>2022-05-15T11:35:16Z</time>
      </trkpt>
      <trkpt lat="47.24452" lon="4.94963">
        <ele>470</ele>
        <time>2022-05-15T11:35:17Z</time>
      </trkpt>
      <trkpt lat="47.24449" lon="4.94964">
        <ele>469</ele>
        <time>2022-05-15T11:35:19Z</time>
      </trkpt>
      <trkpt lat="47.24448" lon="4.94963">
        <ele>468</ele>
        <time>2022-05-15T11:35:20Z</time>
      </trkpt>
      <trkpt lat="47.24446" lon="4.94963">
        <ele>468</ele>
        <time>2022-05-15T11:35:21Z</time>
      </trkpt>
      <trkpt lat="47.24445" lon="4.94963">
        <ele>468</ele>
        <time>2022-05-15T11:35:22Z</time>
      </trkpt>
      <trkpt lat="47.24443" lon="4.94963">
        <ele>466</ele>
        <time>2022-05-15T11:35:23Z</time>
      </trkpt>
      <trkpt lat="47.24441" lon="4.94964">
        <ele>466</ele>
        <time>2022-05-15T11:35:24Z</time>
      </trkpt>
      <trkpt lat="47.2444" lon="4.94964">
        <ele>466</ele>
        <time>2022-05-15T11:35:25Z</time>
      </trkpt>
      <trkpt lat="47.24439" lon="4.94964">
        <ele>465</ele>
        <time>2022-05-15T11:35:26Z</time>
      </trkpt>
      <trkpt lat="47.24437" lon="4.94965">
        <ele>466</ele>
        <time>2022-05-15T11:35:28Z</time>
      </trkpt>
      <trkpt lat="47.24437" lon="4.94967">
        <ele>466</ele>
        <time>2022-05-15T11:35:30Z</time>
      </trkpt>
      <trkpt lat="47.24436" lon="4.94968">
        <ele>465</ele>
        <time>2022-05-15T11:35:33Z</time>
      </trkpt>
      <trkpt lat="47.24435" lon="4.94968">
        <ele>465</ele>
        <time>2022-05-15T11:35:34Z</time>
      </trkpt>
      <trkpt lat="47.24433" lon="4.94967">
        <ele>463</ele>
        <time>2022-05-15T11:35:38Z</time>
      </trkpt>
      <trkpt lat="47.24431" lon="4.94966">
        <ele>463</ele>
        <time>2022-05-15T11:35:39Z</time>
      </trkpt>
      <trkpt lat="47.24429" lon="4.94965">
        <ele>461</ele>
        <time>2022-05-15T11:35:40Z</time>
      </trkpt>
      <trkpt lat="47.24427" lon="4.94964">
        <ele>463</ele>
        <time>2022-05-15T11:35:41Z</time>
      </trkpt>
      <trkpt lat="47.24425" lon="4.94964">
        <ele>462</ele>
        <time>2022-05-15T11:35:42Z</time>
      </trkpt>
      <trkpt lat="47.24423" lon="4.94963">
        <ele>462</ele>
        <time>2022-05-15T11:35:43Z</time>
      </trkpt>
      <trkpt lat="47.24422" lon="4.94961">
        <ele>461</ele>
        <time>2022-05-15T11:35:44Z</time>
      </trkpt>
      <trkpt lat="47.24421" lon="4.9496">
        <ele>462</ele>
        <time>2022-05-15T11:35:45Z</time>
      </trkpt>
      <trkpt lat="47.24421" lon="4.94959">
        <ele>461</ele>
        <time>2022-05-15T11:35:47Z</time>
      </trkpt>
      <trkpt lat="47.2442" lon="4.94957">
        <ele>461</ele>
        <time>2022-05-15T11:35:49Z</time>
      </trkpt>
      <trkpt lat="47.24419" lon="4.94956">
        <ele>461</ele>
        <time>2022-05-15T11:35:51Z</time>
      </trkpt>
      <trkpt lat="47.24419" lon="4.94955">
        <ele>459</ele>
        <time>2022-05-15T11:35:54Z</time>
      </trkpt>
      <trkpt lat="47.2442" lon="4.94955">
        <ele>464</ele>
        <time>2022-05-15T11:36:04Z</time>
      </trkpt>
      <trkpt lat="47.24421" lon="4.94954">
        <ele>464</ele>
        <time>2022-05-15T11:36:15Z</time>
      </trkpt>
      <trkpt lat="47.24422" lon="4.94953">
        <ele>466</ele>
        <time>2022-05-15T11:36:22Z</time>
      </trkpt>
      <trkpt lat="47.24422" lon="4.94952">
        <ele>463</ele>
        <time>2022-05-15T11:36:35Z</time>
      </trkpt>
      <trkpt lat="47.24423" lon="4.94951">
        <ele>467</ele>
        <time>2022-05-15T11:36:41Z</time>
      </trkpt>
      <trkpt lat="47.24423" lon="4.94954">
        <ele>468</ele>
        <time>2022-05-15T11:37:37Z</time>
      </trkpt>
      <trkpt lat="47.24423" lon="4.94956">
        <ele>467</ele>
        <time>2022-05-15T11:37:38Z</time>
      </trkpt>
      <trkpt lat="47.24423" lon="4.94958">
        <ele>467</ele>
        <time>2022-05-15T11:37:40Z</time>
      </trkpt>
      <trkpt lat="47.24423" lon="4.94959">
        <ele>469</ele>
        <time>2022-05-15T11:37:42Z</time>
      </trkpt>
      <trkpt lat="47.24423" lon="4.9496">
        <ele>469</ele>
        <time>2022-05-15T11:37:44Z</time>
      </trkpt>
      <trkpt lat="47.24423" lon="4.94962">
        <ele>470</ele>
        <time>2022-05-15T11:37:47Z</time>
      </trkpt>
      <trkpt lat="47.24422" lon="4.94964">
        <ele>472</ele>
        <time>2022-05-15T11:38:53Z</time>
      </trkpt>
      <trkpt lat="47.24421" lon="4.94965">
        <ele>471</ele>
        <time>2022-05-15T11:38:54Z</time>
      </trkpt>
      <trkpt lat="47.2442" lon="4.94968">
        <ele>472</ele>
        <time>2022-05-15T11:38:57Z</time>
      </trkpt>
      <trkpt lat="47.2442" lon="4.9497">
        <ele>471</ele>
        <time>2022-05-15T11:38:59Z</time>
      </trkpt>
      <trkpt lat="47.2442" lon="4.94971">
        <ele>471</ele>
        <time>2022-05-15T11:39:00Z</time>
      </trkpt>
      <trkpt lat="47.24419" lon="4.94973">
        <ele>471</ele>
        <time>2022-05-15T11:39:01Z</time>
      </trkpt>
      <trkpt lat="47.24419" lon="4.94974">
        <ele>471</ele>
        <time>2022-05-15T11:39:02Z</time>
      </trkpt>
      <trkpt lat="47.24418" lon="4.94975">
        <ele>470</ele>
        <time>2022-05-15T11:39:03Z</time>
      </trkpt>
      <trkpt lat="47.24418" lon="4.94977">
        <ele>470</ele>
        <time>2022-05-15T11:39:04Z</time>
      </trkpt>
      <trkpt lat="47.24417" lon="4.94978">
        <ele>469</ele>
        <time>2022-05-15T11:39:06Z</time>
      </trkpt>
      <trkpt lat="47.24416" lon="4.94979">
        <ele>465</ele>
        <time>2022-05-15T11:39:07Z</time>
      </trkpt>
      <trkpt lat="47.24415" lon="4.94978">
        <ele>466</ele>
        <time>2022-05-15T11:39:09Z</time>
      </trkpt>
      <trkpt lat="47.24414" lon="4.94979">
        <ele>465</ele>
        <time>2022-05-15T11:39:12Z</time>
      </trkpt>
      <trkpt lat="47.24413" lon="4.94981">
        <ele>466</ele>
        <time>2022-05-15T11:39:14Z</time>
      </trkpt>
      <trkpt lat="47.24413" lon="4.94982">
        <ele>463</ele>
        <time>2022-05-15T11:39:16Z</time>
      </trkpt>
      <trkpt lat="47.24411" lon="4.94983">
        <ele>465</ele>
        <time>2022-05-15T11:39:32Z</time>
      </trkpt>
      <trkpt lat="47.24409" lon="4.94983">
        <ele>465</ele>
        <time>2022-05-15T11:39:33Z</time>
      </trkpt>
      <trkpt lat="47.24408" lon="4.94983">
        <ele>462</ele>
        <time>2022-05-15T11:39:34Z</time>
      </trkpt>
      <trkpt lat="47.24407" lon="4.94984">
        <ele>462</ele>
        <time>2022-05-15T11:39:35Z</time>
      </trkpt>
      <trkpt lat="47.24406" lon="4.94985">
        <ele>461</ele>
        <time>2022-05-15T11:39:37Z</time>
      </trkpt>
      <trkpt lat="47.24405" lon="4.94987">
        <ele>458</ele>
        <time>2022-05-15T11:39:39Z</time>
      </trkpt>
      <trkpt lat="47.24403" lon="4.94988">
        <ele>458</ele>
        <time>2022-05-15T11:39:40Z</time>
      </trkpt>
      <trkpt lat="47.24401" lon="4.94989">
        <ele>459</ele>
        <time>2022-05-15T11:39:41Z</time>
      </trkpt>
      <trkpt lat="47.24399" lon="4.9499">
        <ele>458</ele>
        <time>2022-05-15T11:39:42Z</time>
      </trkpt>
      <trkpt lat="47.24398" lon="4.94991">
        <ele>458</ele>
        <time>2022-05-15T11:39:43Z</time>
      </trkpt>
      <trkpt lat="47.24397" lon="4.94991">
        <ele>456</ele>
        <time>2022-05-15T11:39:44Z</time>
      </trkpt>
      <trkpt lat="47.24396" lon="4.94992">
        <ele>457</ele>
        <time>2022-05-15T11:39:45Z</time>
      </trkpt>
      <trkpt lat="47.24394" lon="4.94993">
        <ele>458</ele>
        <time>2022-05-15T11:39:47Z</time>
      </trkpt>
      <trkpt lat="47.24393" lon="4.94994">
        <ele>458</ele>
        <time>2022-05-15T11:39:51Z</time>
      </trkpt>
      <trkpt lat="47.24392" lon="4.94994">
        <ele>458</ele>
        <time>2022-05-15T11:39:53Z</time>
      </trkpt>
      <trkpt lat="47.24392" lon="4.94996">
        <ele>461</ele>
        <time>2022-05-15T11:40:01Z</time>
      </trkpt>
      <trkpt lat="47.24391" lon="4.94998">
        <ele>462</ele>
        <time>2022-05-15T11:40:03Z</time>
      </trkpt>
      <trkpt lat="47.2439" lon="4.94999">
        <ele>460</ele>
        <time>2022-05-15T11:40:04Z</time>
      </trkpt>
      <trkpt lat="47.24389" lon="4.95">
        <ele>460</ele>
        <time>2022-05-15T11:40:05Z</time>
      </trkpt>
      <trkpt lat="47.24387" lon="4.95001">
        <ele>461</ele>
        <time>2022-05-15T11:40:06Z</time>
      </trkpt>
      <trkpt lat="47.24386" lon="4.95001">
        <ele>460</ele>
        <time>2022-05-15T11:40:07Z</time>
      </trkpt>
      <trkpt lat="47.24385" lon="4.95002">
        <ele>460</ele>
        <time>2022-05-15T11:40:08Z</time>
      </trkpt>
      <trkpt lat="47.24384" lon="4.95003">
        <ele>461</ele>
        <time>2022-05-15T11:40:09Z</time>
      </trkpt>
      <trkpt lat="47.24382" lon="4.95004">
        <ele>460</ele>
        <time>2022-05-15T11:40:10Z</time>
      </trkpt>
      <trkpt lat="47.24381" lon="4.95005">
        <ele>461</ele>
        <time>2022-05-15T11:40:11Z</time>
      </trkpt>
      <trkpt lat="47.2438" lon="4.95006">
        <ele>461</ele>
        <time>2022-05-15T11:40:12Z</time>
      </trkpt>
      <trkpt lat="47.24379" lon="4.95007">
        <ele>461</ele>
        <time>2022-05-15T11:40:13Z</time>
      </trkpt>
      <trkpt lat="47.24378" lon="4.95009">
        <ele>461</ele>
        <time>2022-05-15T11:40:14Z</time>
      </trkpt>
      <trkpt lat="47.24377" lon="4.95012">
        <ele>461</ele>
        <time>2022-05-15T11:40:15Z</time>
      </trkpt>
      <trkpt lat="47.24376" lon="4.95013">
        <ele>462</ele>
        <time>2022-05-15T11:40:16Z</time>
      </trkpt>
      <trkpt lat="47.24376" lon="4.95015">
        <ele>461</ele>
        <time>2022-05-15T11:40:17Z</time>
      </trkpt>
      <trkpt lat="47.24377" lon="4.95017">
        <ele>462</ele>
        <time>2022-05-15T11:40:19Z</time>
      </trkpt>
      <trkpt lat="47.24378" lon="4.95019">
        <ele>480</ele>
        <time>2022-05-15T11:40:21Z</time>
      </trkpt>
      <trkpt lat="47.24378" lon="4.9502">
        <ele>477</ele>
        <time>2022-05-15T11:40:22Z</time>
      </trkpt>
      <trkpt lat="47.24378" lon="4.95022">
        <ele>474</ele>
        <time>2022-05-15T11:40:23Z</time>
      </trkpt>
      <trkpt lat="47.24378" lon="4.95023">
        <ele>473</ele>
        <time>2022-05-15T11:40:24Z</time>
      </trkpt>
      <trkpt lat="47.24377" lon="4.95025">
        <ele>473</ele>
        <time>2022-05-15T11:40:25Z</time>
      </trkpt>
      <trkpt lat="47.24376" lon="4.95027">
        <ele>472</ele>
        <time>2022-05-15T11:40:26Z</time>
      </trkpt>
      <trkpt lat="47.24375" lon="4.95028">
        <ele>470</ele>
        <time>2022-05-15T11:40:27Z</time>
      </trkpt>
      <trkpt lat="47.24374" lon="4.9503">
        <ele>466</ele>
        <time>2022-05-15T11:40:28Z</time>
      </trkpt>
      <trkpt lat="47.24374" lon="4.95032">
        <ele>465</ele>
        <time>2022-05-15T11:40:29Z</time>
      </trkpt>
      <trkpt lat="47.24374" lon="4.95033">
        <ele>465</ele>
        <time>2022-05-15T11:40:30Z</time>
      </trkpt>
      <trkpt lat="47.24373" lon="4.95035">
        <ele>464</ele>
        <time>2022-05-15T11:40:32Z</time>
      </trkpt>
      <trkpt lat="47.24372" lon="4.95036">
        <ele>462</ele>
        <time>2022-05-15T11:40:33Z</time>
      </trkpt>
      <trkpt lat="47.2437" lon="4.95036">
        <ele>460</ele>
        <time>2022-05-15T11:40:34Z</time>
      </trkpt>
      <trkpt lat="47.24369" lon="4.95036">
        <ele>460</ele>
        <time>2022-05-15T11:40:35Z</time>
      </trkpt>
      <trkpt lat="47.24368" lon="4.95037">
        <ele>460</ele>
        <time>2022-05-15T11:40:36Z</time>
      </trkpt>
      <trkpt lat="47.24368" lon="4.95038">
        <ele>461</ele>
        <time>2022-05-15T11:40:37Z</time>
      </trkpt>
      <trkpt lat="47.24367" lon="4.9504">
        <ele>480</ele>
        <time>2022-05-15T11:40:38Z</time>
      </trkpt>
      <trkpt lat="47.24367" lon="4.95042">
        <ele>476</ele>
        <time>2022-05-15T11:40:39Z</time>
      </trkpt>
      <trkpt lat="47.24365" lon="4.95044">
        <ele>468</ele>
        <time>2022-05-15T11:40:43Z</time>
      </trkpt>
      <trkpt lat="47.24364" lon="4.95046">
        <ele>467</ele>
        <time>2022-05-15T11:40:44Z</time>
      </trkpt>
      <trkpt lat="47.24362" lon="4.95047">
        <ele>466</ele>
        <time>2022-05-15T11:40:45Z</time>
      </trkpt>
      <trkpt lat="47.24361" lon="4.95049">
        <ele>466</ele>
        <time>2022-05-15T11:40:46Z</time>
      </trkpt>
      <trkpt lat="47.2436" lon="4.95049">
        <ele>465</ele>
        <time>2022-05-15T11:40:47Z</time>
      </trkpt>
      <trkpt lat="47.24359" lon="4.9505">
        <ele>465</ele>
        <time>2022-05-15T11:40:48Z</time>
      </trkpt>
      <trkpt lat="47.24358" lon="4.95051">
        <ele>464</ele>
        <time>2022-05-15T11:40:49Z</time>
      </trkpt>
      <trkpt lat="47.24356" lon="4.95052">
        <ele>462</ele>
        <time>2022-05-15T11:40:50Z</time>
      </trkpt>
      <trkpt lat="47.24355" lon="4.95053">
        <ele>461</ele>
        <time>2022-05-15T11:40:51Z</time>
      </trkpt>
      <trkpt lat="47.24353" lon="4.95053">
        <ele>460</ele>
        <time>2022-05-15T11:40:52Z</time>
      </trkpt>
      <trkpt lat="47.24352" lon="4.95054">
        <ele>460</ele>
        <time>2022-05-15T11:40:53Z</time>
      </trkpt>
      <trkpt lat="47.24351" lon="4.95055">
        <ele>460</ele>
        <time>2022-05-15T11:40:54Z</time>
      </trkpt>
      <trkpt lat="47.2435" lon="4.95057">
        <ele>460</ele>
        <time>2022-05-15T11:40:56Z</time>
      </trkpt>
      <trkpt lat="47.24349" lon="4.95059">
        <ele>461</ele>
        <time>2022-05-15T11:40:59Z</time>
      </trkpt>
      <trkpt lat="47.24348" lon="4.9506">
        <ele>462</ele>
        <time>2022-05-15T11:41:02Z</time>
      </trkpt>
      <trkpt lat="47.24347" lon="4.95061">
        <ele>463</ele>
        <time>2022-05-15T11:41:06Z</time>
      </trkpt>
      <trkpt lat="47.24346" lon="4.95061">
        <ele>463</ele>
        <time>2022-05-15T11:41:10Z</time>
      </trkpt>
      <trkpt lat="47.24344" lon="4.9506">
        <ele>462</ele>
        <time>2022-05-15T11:41:12Z</time>
      </trkpt>
      <trkpt lat="47.24343" lon="4.9506">
        <ele>462</ele>
        <time>2022-05-15T11:41:14Z</time>
      </trkpt>
      <trkpt lat="47.24341" lon="4.95059">
        <ele>463</ele>
        <time>2022-05-15T11:41:16Z</time>
      </trkpt>
      <trkpt lat="47.24339" lon="4.95058">
        <ele>461</ele>
        <time>2022-05-15T11:41:18Z</time>
      </trkpt>
      <trkpt lat="47.24338" lon="4.95057">
        <ele>460</ele>
        <time>2022-05-15T11:41:19Z</time>
      </trkpt>
      <trkpt lat="47.24337" lon="4.95056">
        <ele>461</ele>
        <time>2022-05-15T11:41:20Z</time>
      </trkpt>
      <trkpt lat="47.24335" lon="4.95055">
        <ele>461</ele>
        <time>2022-05-15T11:41:21Z</time>
      </trkpt>
      <trkpt lat="47.24334" lon="4.95054">
        <ele>461</ele>
        <time>2022-05-15T11:41:22Z</time>
      </trkpt>
      <trkpt lat="47.24333" lon="4.95053">
        <ele>460</ele>
        <time>2022-05-15T11:41:23Z</time>
      </trkpt>
      <trkpt lat="47.24332" lon="4.95052">
        <ele>460</ele>
        <time>2022-05-15T11:41:24Z</time>
      </trkpt>
      <trkpt lat="47.24331" lon="4.95052">
        <ele>460</ele>
        <time>2022-05-15T11:41:25Z</time>
      </trkpt>
      <trkpt lat="47.2433" lon="4.95052">
        <ele>462</ele>
        <time>2022-05-15T11:41:26Z</time>
      </trkpt>
      <trkpt lat="47.24329" lon="4.95052">
        <ele>462</ele>
        <time>2022-05-15T11:41:40Z</time>
      </trkpt>
      <trkpt lat="47.24328" lon="4.95053">
        <ele>463</ele>
        <time>2022-05-15T11:41:41Z</time>
      </trkpt>
      <trkpt lat="47.24326" lon="4.95053">
        <ele>462</ele>
        <time>2022-05-15T11:41:43Z</time>
      </trkpt>
      <trkpt lat="47.24325" lon="4.95053">
        <ele>462</ele>
        <time>2022-05-15T11:41:45Z</time>
      </trkpt>
      <trkpt lat="47.24324" lon="4.95054">
        <ele>461</ele>
        <time>2022-05-15T11:41:46Z</time>
      </trkpt>
      <trkpt lat="47.24323" lon="4.95054">
        <ele>461</ele>
        <time>2022-05-15T11:41:47Z</time>
      </trkpt>
      <trkpt lat="47.24321" lon="4.95055">
        <ele>460</ele>
        <time>2022-05-15T11:41:48Z</time>
      </trkpt>
      <trkpt lat="47.2432" lon="4.95054">
        <ele>460</ele>
        <time>2022-05-15T11:41:50Z</time>
      </trkpt>
      <trkpt lat="47.24319" lon="4.95054">
        <ele>460</ele>
        <time>2022-05-15T11:41:51Z</time>
      </trkpt>
      <trkpt lat="47.24317" lon="4.95053">
        <ele>460</ele>
        <time>2022-05-15T11:41:52Z</time>
      </trkpt>
      <trkpt lat="47.24316" lon="4.95053">
        <ele>460</ele>
        <time>2022-05-15T11:41:53Z</time>
      </trkpt>
      <trkpt lat="47.24315" lon="4.95053">
        <ele>460</ele>
        <time>2022-05-15T11:41:54Z</time>
      </trkpt>
      <trkpt lat="47.24314" lon="4.95053">
        <ele>460</ele>
        <time>2022-05-15T11:41:55Z</time>
      </trkpt>
      <trkpt lat="47.24313" lon="4.95053">
        <ele>459</ele>
        <time>2022-05-15T11:41:56Z</time>
      </trkpt>
      <trkpt lat="47.24312" lon="4.95051">
        <ele>457</ele>
        <time>2022-05-15T11:41:58Z</time>
      </trkpt>
      <trkpt lat="47.24313" lon="4.95051">
        <ele>457</ele>
        <time>2022-05-15T11:42:02Z</time>
      </trkpt>
      <trkpt lat="47.24312" lon="4.9505">
        <ele>457</ele>
        <time>2022-05-15T11:42:06Z</time>
      </trkpt>
      <trkpt lat="47.24311" lon="4.9505">
        <ele>457</ele>
        <time>2022-05-15T11:42:07Z</time>
      </trkpt>
      <trkpt lat="47.2431" lon="4.95049">
        <ele>457</ele>
        <time>2022-05-15T11:42:09Z</time>
      </trkpt>
      <trkpt lat="47.24309" lon="4.95048">
        <ele>457</ele>
        <time>2022-05-15T11:42:10Z</time>
      </trkpt>
      <trkpt lat="47.24308" lon="4.95048">
        <ele>456</ele>
        <time>2022-05-15T11:42:11Z</time>
      </trkpt>
      <trkpt lat="47.24307" lon="4.95048">
        <ele>456</ele>
        <time>2022-05-15T11:42:12Z</time>
      </trkpt>
      <trkpt lat="47.24306" lon="4.95047">
        <ele>457</ele>
        <time>2022-05-15T11:42:13Z</time>
      </trkpt>
      <trkpt lat="47.24304" lon="4.95046">
        <ele>457</ele>
        <time>2022-05-15T11:42:14Z</time>
      </trkpt>
      <trkpt lat="47.24303" lon="4.95046">
        <ele>457</ele>
        <time>2022-05-15T11:42:15Z</time>
      </trkpt>
      <trkpt lat="47.24302" lon="4.95045">
        <ele>457</ele>
        <time>2022-05-15T11:42:16Z</time>
      </trkpt>
      <trkpt lat="47.24301" lon="4.95044">
        <ele>456</ele>
        <time>2022-05-15T11:42:17Z</time>
      </trkpt>
      <trkpt lat="47.243" lon="4.95043">
        <ele>457</ele>
        <time>2022-05-15T11:42:18Z</time>
      </trkpt>
      <trkpt lat="47.24299" lon="4.95042">
        <ele>457</ele>
        <time>2022-05-15T11:42:19Z</time>
      </trkpt>
      <trkpt lat="47.24298" lon="4.95041">
        <ele>457</ele>
        <time>2022-05-15T11:42:20Z</time>
      </trkpt>
      <trkpt lat="47.24298" lon="4.9504">
        <ele>457</ele>
        <time>2022-05-15T11:42:21Z</time>
      </trkpt>
      <trkpt lat="47.24297" lon="4.95039">
        <ele>456</ele>
        <time>2022-05-15T11:42:23Z</time>
      </trkpt>
      <trkpt lat="47.24295" lon="4.9504">
        <ele>457</ele>
        <time>2022-05-15T11:42:25Z</time>
      </trkpt>
      <trkpt lat="47.24294" lon="4.9504">
        <ele>457</ele>
        <time>2022-05-15T11:42:26Z</time>
      </trkpt>
      <trkpt lat="47.24293" lon="4.9504">
        <ele>457</ele>
        <time>2022-05-15T11:42:27Z</time>
      </trkpt>
      <trkpt lat="47.24291" lon="4.95038">
        <ele>458</ele>
        <time>2022-05-15T11:42:29Z</time>
      </trkpt>
      <trkpt lat="47.24291" lon="4.95038">
        <ele>457</ele>
        <time>2022-05-15T11:42:30Z</time>
      </trkpt>
      <trkpt lat="47.2429" lon="4.95037">
        <ele>458</ele>
        <time>2022-05-15T11:42:31Z</time>
      </trkpt>
      <trkpt lat="47.24289" lon="4.95037">
        <ele>457</ele>
        <time>2022-05-15T11:42:32Z</time>
      </trkpt>
      <trkpt lat="47.24288" lon="4.95036">
        <ele>457</ele>
        <time>2022-05-15T11:42:33Z</time>
      </trkpt>
      <trkpt lat="47.24287" lon="4.95035">
        <ele>457</ele>
        <time>2022-05-15T11:42:34Z</time>
      </trkpt>
      <trkpt lat="47.24286" lon="4.95034">
        <ele>457</ele>
        <time>2022-05-15T11:42:35Z</time>
      </trkpt>
      <trkpt lat="47.24285" lon="4.95033">
        <ele>456</ele>
        <time>2022-05-15T11:42:36Z</time>
      </trkpt>
      <trkpt lat="47.24284" lon="4.95032">
        <ele>456</ele>
        <time>2022-05-15T11:42:37Z</time>
      </trkpt>
      <trkpt lat="47.24282" lon="4.95031">
        <ele>455</ele>
        <time>2022-05-15T11:42:38Z</time>
      </trkpt>
      <trkpt lat="47.24281" lon="4.95031">
        <ele>455</ele>
        <time>2022-05-15T11:42:39Z</time>
      </trkpt>
      <trkpt lat="47.2428" lon="4.9503">
        <ele>455</ele>
        <time>2022-05-15T11:42:40Z</time>
      </trkpt>
      <trkpt lat="47.24279" lon="4.95029">
        <ele>454</ele>
        <time>2022-05-15T11:42:41Z</time>
      </trkpt>
      <trkpt lat="47.24278" lon="4.95028">
        <ele>455</ele>
        <time>2022-05-15T11:42:42Z</time>
      </trkpt>
      <trkpt lat="47.24277" lon="4.95027">
        <ele>456</ele>
        <time>2022-05-15T11:42:43Z</time>
      </trkpt>
      <trkpt lat="47.24276" lon="4.95026">
        <ele>456</ele>
        <time>2022-05-15T11:42:44Z</time>
      </trkpt>
      <trkpt lat="47.24274" lon="4.95025">
        <ele>456</ele>
        <time>2022-05-15T11:42:45Z</time>
      </trkpt>
      <trkpt lat="47.24273" lon="4.95024">
        <ele>457</ele>
        <time>2022-05-15T11:42:46Z</time>
      </trkpt>
      <trkpt lat="47.24272" lon="4.95023">
        <ele>457</ele>
        <time>2022-05-15T11:42:47Z</time>
      </trkpt>
      <trkpt lat="47.24271" lon="4.95023">
        <ele>457</ele>
        <time>2022-05-15T11:42:48Z</time>
      </trkpt>
      <trkpt lat="47.2427" lon="4.95022">
        <ele>457</ele>
        <time>2022-05-15T11:42:49Z</time>
      </trkpt>
      <trkpt lat="47.24269" lon="4.95021">
        <ele>457</ele>
        <time>2022-05-15T11:42:50Z</time>
      </trkpt>
      <trkpt lat="47.24268" lon="4.9502">
        <ele>456</ele>
        <time>2022-05-15T11:42:51Z</time>
      </trkpt>
      <trkpt lat="47.24267" lon="4.95019">
        <ele>456</ele>
        <time>2022-05-15T11:42:52Z</time>
      </trkpt>
      <trkpt lat="47.24266" lon="4.95018">
        <ele>457</ele>
        <time>2022-05-15T11:42:53Z</time>
      </trkpt>
      <trkpt lat="47.24265" lon="4.95017">
        <ele>457</ele>
        <time>2022-05-15T11:42:54Z</time>
      </trkpt>
      <trkpt lat="47.24264" lon="4.95016">
        <ele>457</ele>
        <time>2022-05-15T11:42:55Z</time>
      </trkpt>
      <trkpt lat="47.24263" lon="4.95015">
        <ele>457</ele>
        <time>2022-05-15T11:42:56Z</time>
      </trkpt>
      <trkpt lat="47.24262" lon="4.95014">
        <ele>457</ele>
        <time>2022-05-15T11:42:57Z</time>
      </trkpt>
      <trkpt lat="47.24261" lon="4.95013">
        <ele>458</ele>
        <time>2022-05-15T11:42:58Z</time>
      </trkpt>
      <trkpt lat="47.24259" lon="4.95011">
        <ele>458</ele>
        <time>2022-05-15T11:43:01Z</time>
      </trkpt>
      <trkpt lat="47.24258" lon="4.9501">
        <ele>458</ele>
        <time>2022-05-15T11:43:02Z</time>
      </trkpt>
      <trkpt lat="47.24257" lon="4.95009">
        <ele>458</ele>
        <time>2022-05-15T11:43:03Z</time>
      </trkpt>
      <trkpt lat="47.24256" lon="4.95008">
        <ele>458</ele>
        <time>2022-05-15T11:43:04Z</time>
      </trkpt>
      <trkpt lat="47.24255" lon="4.95007">
        <ele>457</ele>
        <time>2022-05-15T11:43:05Z</time>
      </trkpt>
      <trkpt lat="47.24254" lon="4.95006">
        <ele>457</ele>
        <time>2022-05-15T11:43:06Z</time>
      </trkpt>
      <trkpt lat="47.24253" lon="4.95005">
        <ele>457</ele>
        <time>2022-05-15T11:43:07Z</time>
      </trkpt>
      <trkpt lat="47.24252" lon="4.95004">
        <ele>457</ele>
        <time>2022-05-15T11:43:08Z</time>
      </trkpt>
      <trkpt lat="47.24252" lon="4.95003">
        <ele>457</ele>
        <time>2022-05-15T11:43:09Z</time>
      </trkpt>
      <trkpt lat="47.24251" lon="4.95001">
        <ele>458</ele>
        <time>2022-05-15T11:43:11Z</time>
      </trkpt>
      <trkpt lat="47.24249" lon="4.94999">
        <ele>459</ele>
        <time>2022-05-15T11:43:13Z</time>
      </trkpt>
      <trkpt lat="47.24249" lon="4.94997">
        <ele>459</ele>
        <time>2022-05-15T11:43:14Z</time>
      </trkpt>
      <trkpt lat="47.24248" lon="4.94995">
        <ele>459</ele>
        <time>2022-05-15T11:43:16Z</time>
      </trkpt>
      <trkpt lat="47.24247" lon="4.94993">
        <ele>459</ele>
        <time>2022-05-15T11:43:17Z</time>
      </trkpt>
      <trkpt lat="47.24247" lon="4.94991">
        <ele>458</ele>
        <time>2022-05-15T11:43:18Z</time>
      </trkpt>
      <trkpt lat="47.24246" lon="4.94989">
        <ele>459</ele>
        <time>2022-05-15T11:43:19Z</time>
      </trkpt>
      <trkpt lat="47.24245" lon="4.94988">
        <ele>459</ele>
        <time>2022-05-15T11:43:20Z</time>
      </trkpt>
      <trkpt lat="47.24244" lon="4.94986">
        <ele>459</ele>
        <time>2022-05-15T11:43:21Z</time>
      </trkpt>
      <trkpt lat="47.24243" lon="4.94985">
        <ele>458</ele>
        <time>2022-05-15T11:43:22Z</time>
      </trkpt>
      <trkpt lat="47.24242" lon="4.94983">
        <ele>459</ele>
        <time>2022-05-15T11:43:23Z</time>
      </trkpt>
      <trkpt lat="47.24242" lon="4.94982">
        <ele>458</ele>
        <time>2022-05-15T11:43:24Z</time>
      </trkpt>
      <trkpt lat="47.24241" lon="4.94981">
        <ele>459</ele>
        <time>2022-05-15T11:43:25Z</time>
      </trkpt>
      <trkpt lat="47.2424" lon="4.94979">
        <ele>459</ele>
        <time>2022-05-15T11:43:26Z</time>
      </trkpt>
      <trkpt lat="47.24239" lon="4.94978">
        <ele>459</ele>
        <time>2022-05-15T11:43:27Z</time>
      </trkpt>
      <trkpt lat="47.24239" lon="4.94976">
        <ele>459</ele>
        <time>2022-05-15T11:43:28Z</time>
      </trkpt>
      <trkpt lat="47.24238" lon="4.94975">
        <ele>459</ele>
        <time>2022-05-15T11:43:29Z</time>
      </trkpt>
      <trkpt lat="47.24237" lon="4.94974">
        <ele>459</ele>
        <time>2022-05-15T11:43:30Z</time>
      </trkpt>
      <trkpt lat="47.24236" lon="4.94972">
        <ele>459</ele>
        <time>2022-05-15T11:43:31Z</time>
      </trkpt>
      <trkpt lat="47.24235" lon="4.94971">
        <ele>459</ele>
        <time>2022-05-15T11:43:32Z</time>
      </trkpt>
      <trkpt lat="47.24235" lon="4.9497">
        <ele>459</ele>
        <time>2022-05-15T11:43:33Z</time>
      </trkpt>
      <trkpt lat="47.24234" lon="4.94969">
        <ele>458</ele>
        <time>2022-05-15T11:43:34Z</time>
      </trkpt>
      <trkpt lat="47.24234" lon="4.94967">
        <ele>458</ele>
        <time>2022-05-15T11:43:35Z</time>
      </trkpt>
      <trkpt lat="47.24233" lon="4.94965">
        <ele>458</ele>
        <time>2022-05-15T11:43:36Z</time>
      </trkpt>
      <trkpt lat="47.24233" lon="4.94964">
        <ele>458</ele>
        <time>2022-05-15T11:43:37Z</time>
      </trkpt>
      <trkpt lat="47.24232" lon="4.94962">
        <ele>458</ele>
        <time>2022-05-15T11:43:38Z</time>
      </trkpt>
      <trkpt lat="47.24231" lon="4.94961">
        <ele>458</ele>
        <time>2022-05-15T11:43:39Z</time>
      </trkpt>
      <trkpt lat="47.2423" lon="4.94959">
        <ele>458</ele>
        <time>2022-05-15T11:43:40Z</time>
      </trkpt>
      <trkpt lat="47.2423" lon="4.94958">
        <ele>459</ele>
        <time>2022-05-15T11:43:41Z</time>
      </trkpt>
      <trkpt lat="47.24229" lon="4.94957">
        <ele>459</ele>
        <time>2022-05-15T11:43:42Z</time>
      </trkpt>
      <trkpt lat="47.24228" lon="4.94955">
        <ele>459</ele>
        <time>2022-05-15T11:43:43Z</time>
      </trkpt>
      <trkpt lat="47.24228" lon="4.94954">
        <ele>459</ele>
        <time>2022-05-15T11:43:44Z</time>
      </trkpt>
      <trkpt lat="47.24227" lon="4.94952">
        <ele>459</ele>
        <time>2022-05-15T11:43:45Z</time>
      </trkpt>
      <trkpt lat="47.24226" lon="4.94951">
        <ele>459</ele>
        <time>2022-05-15T11:43:46Z</time>
      </trkpt>
      <trkpt lat="47.24226" lon="4.94949">
        <ele>459</ele>
        <time>2022-05-15T11:43:47Z</time>
      </trkpt>
      <trkpt lat="47.24225" lon="4.94948">
        <ele>459</ele>
        <time>2022-05-15T11:43:48Z</time>
      </trkpt>
      <trkpt lat="47.24225" lon="4.94946">
        <ele>458</ele>
        <time>2022-05-15T11:43:49Z</time>
      </trkpt>
      <trkpt lat="47.24224" lon="4.94945">
        <ele>459</ele>
        <time>2022-05-15T11:43:50Z</time>
      </trkpt>
      <trkpt lat="47.24224" lon="4.94943">
        <ele>459</ele>
        <time>2022-05-15T11:43:51Z</time>
      </trkpt>
      <trkpt lat="47.24224" lon="4.94941">
        <ele>459</ele>
        <time>2022-05-15T11:43:52Z</time>
      </trkpt>
      <trkpt lat="47.24223" lon="4.9494">
        <ele>459</ele>
        <time>2022-05-15T11:43:53Z</time>
      </trkpt>
      <trkpt lat="47.24223" lon="4.94938">
        <ele>460</ele>
        <time>2022-05-15T11:43:54Z</time>
      </trkpt>
      <trkpt lat="47.24222" lon="4.94936">
        <ele>460</ele>
        <time>2022-05-15T11:43:55Z</time>
      </trkpt>
      <trkpt lat="47.24221" lon="4.94934">
        <ele>461</ele>
        <time>2022-05-15T11:43:57Z</time>
      </trkpt>
      <trkpt lat="47.2422" lon="4.94933">
        <ele>461</ele>
        <time>2022-05-15T11:43:58Z</time>
      </trkpt>
      <trkpt lat="47.24219" lon="4.94932">
        <ele>459</ele>
        <time>2022-05-15T11:43:59Z</time>
      </trkpt>
      <trkpt lat="47.24217" lon="4.94929">
        <ele>460</ele>
        <time>2022-05-15T11:44:02Z</time>
      </trkpt>
      <trkpt lat="47.24216" lon="4.94928">
        <ele>460</ele>
        <time>2022-05-15T11:44:03Z</time>
      </trkpt>
      <trkpt lat="47.24215" lon="4.94927">
        <ele>460</ele>
        <time>2022-05-15T11:44:04Z</time>
      </trkpt>
      <trkpt lat="47.24214" lon="4.94926">
        <ele>462</ele>
        <time>2022-05-15T11:44:06Z</time>
      </trkpt>
      <trkpt lat="47.24214" lon="4.94924">
        <ele>463</ele>
        <time>2022-05-15T11:44:08Z</time>
      </trkpt>
      <trkpt lat="47.24213" lon="4.94923">
        <ele>462</ele>
        <time>2022-05-15T11:44:09Z</time>
      </trkpt>
      <trkpt lat="47.24212" lon="4.94922">
        <ele>462</ele>
        <time>2022-05-15T11:44:10Z</time>
      </trkpt>
      <trkpt lat="47.2421" lon="4.94921">
        <ele>463</ele>
        <time>2022-05-15T11:44:12Z</time>
      </trkpt>
      <trkpt lat="47.24209" lon="4.9492">
        <ele>463</ele>
        <time>2022-05-15T11:44:14Z</time>
      </trkpt>
      <trkpt lat="47.24208" lon="4.9492">
        <ele>464</ele>
        <time>2022-05-15T11:44:15Z</time>
      </trkpt>
      <trkpt lat="47.24208" lon="4.94919">
        <ele>463</ele>
        <time>2022-05-15T11:44:16Z</time>
      </trkpt>
      <trkpt lat="47.24206" lon="4.94919">
        <ele>463</ele>
        <time>2022-05-15T11:44:18Z</time>
      </trkpt>
      <trkpt lat="47.24205" lon="4.94919">
        <ele>463</ele>
        <time>2022-05-15T11:44:20Z</time>
      </trkpt>
      <trkpt lat="47.24203" lon="4.94919">
        <ele>463</ele>
        <time>2022-05-15T11:44:21Z</time>
      </trkpt>
      <trkpt lat="47.24202" lon="4.94919">
        <ele>465</ele>
        <time>2022-05-15T11:44:22Z</time>
      </trkpt>
      <trkpt lat="47.24201" lon="4.9492">
        <ele>466</ele>
        <time>2022-05-15T11:44:24Z</time>
      </trkpt>
      <trkpt lat="47.242" lon="4.9492">
        <ele>467</ele>
        <time>2022-05-15T11:44:25Z</time>
      </trkpt>
      <trkpt lat="47.24198" lon="4.9492">
        <ele>466</ele>
        <time>2022-05-15T11:44:27Z</time>
      </trkpt>
      <trkpt lat="47.24197" lon="4.94921">
        <ele>465</ele>
        <time>2022-05-15T11:44:28Z</time>
      </trkpt>
      <trkpt lat="47.24195" lon="4.94922">
        <ele>466</ele>
        <time>2022-05-15T11:44:30Z</time>
      </trkpt>
      <trkpt lat="47.24194" lon="4.94923">
        <ele>466</ele>
        <time>2022-05-15T11:44:31Z</time>
      </trkpt>
      <trkpt lat="47.24193" lon="4.94924">
        <ele>466</ele>
        <time>2022-05-15T11:44:32Z</time>
      </trkpt>
      <trkpt lat="47.24192" lon="4.94925">
        <ele>466</ele>
        <time>2022-05-15T11:44:33Z</time>
      </trkpt>
      <trkpt lat="47.24191" lon="4.94926">
        <ele>467</ele>
        <time>2022-05-15T11:44:34Z</time>
      </trkpt>
      <trkpt lat="47.2419" lon="4.94927">
        <ele>467</ele>
        <time>2022-05-15T11:44:35Z</time>
      </trkpt>
      <trkpt lat="47.2419" lon="4.94928">
        <ele>466</ele>
        <time>2022-05-15T11:44:36Z</time>
      </trkpt>
      <trkpt lat="47.24189" lon="4.9493">
        <ele>466</ele>
        <time>2022-05-15T11:44:37Z</time>
      </trkpt>
      <trkpt lat="47.24188" lon="4.94931">
        <ele>466</ele>
        <time>2022-05-15T11:44:38Z</time>
      </trkpt>
      <trkpt lat="47.24188" lon="4.94933">
        <ele>468</ele>
        <time>2022-05-15T11:44:39Z</time>
      </trkpt>
      <trkpt lat="47.24187" lon="4.94934">
        <ele>468</ele>
        <time>2022-05-15T11:44:40Z</time>
      </trkpt>
      <trkpt lat="47.24187" lon="4.94936">
        <ele>468</ele>
        <time>2022-05-15T11:44:41Z</time>
      </trkpt>
      <trkpt lat="47.24187" lon="4.94937">
        <ele>468</ele>
        <time>2022-05-15T11:44:42Z</time>
      </trkpt>
      <trkpt lat="47.24186" lon="4.94938">
        <ele>467</ele>
        <time>2022-05-15T11:44:44Z</time>
      </trkpt>
      <trkpt lat="47.24185" lon="4.9494">
        <ele>468</ele>
        <time>2022-05-15T11:44:46Z</time>
      </trkpt>
      <trkpt lat="47.24184" lon="4.94942">
        <ele>468</ele>
        <time>2022-05-15T11:44:48Z</time>
      </trkpt>
      <trkpt lat="47.24184" lon="4.94944">
        <ele>469</ele>
        <time>2022-05-15T11:44:49Z</time>
      </trkpt>
      <trkpt lat="47.24184" lon="4.94945">
        <ele>468</ele>
        <time>2022-05-15T11:44:50Z</time>
      </trkpt>
      <trkpt lat="47.24183" lon="4.94947">
        <ele>468</ele>
        <time>2022-05-15T11:44:52Z</time>
      </trkpt>
      <trkpt lat="47.24183" lon="4.94949">
        <ele>468</ele>
        <time>2022-05-15T11:44:53Z</time>
      </trkpt>
      <trkpt lat="47.24183" lon="4.94951">
        <ele>468</ele>
        <time>2022-05-15T11:44:55Z</time>
      </trkpt>
      <trkpt lat="47.24182" lon="4.94952">
        <ele>466</ele>
        <time>2022-05-15T11:44:57Z</time>
      </trkpt>
      <trkpt lat="47.24181" lon="4.94954">
        <ele>467</ele>
        <time>2022-05-15T11:44:59Z</time>
      </trkpt>
      <trkpt lat="47.2418" lon="4.94955">
        <ele>468</ele>
        <time>2022-05-15T11:45:00Z</time>
      </trkpt>
      <trkpt lat="47.24179" lon="4.94956">
        <ele>467</ele>
        <time>2022-05-15T11:45:01Z</time>
      </trkpt>
      <trkpt lat="47.24176" lon="4.94959">
        <ele>467</ele>
        <time>2022-05-15T11:45:03Z</time>
      </trkpt>
      <trkpt lat="47.24175" lon="4.9496">
        <ele>467</ele>
        <time>2022-05-15T11:45:04Z</time>
      </trkpt>
      <trkpt lat="47.24175" lon="4.94961">
        <ele>468</ele>
        <time>2022-05-15T11:45:05Z</time>
      </trkpt>
      <trkpt lat="47.24174" lon="4.94963">
        <ele>468</ele>
        <time>2022-05-15T11:45:06Z</time>
      </trkpt>
      <trkpt lat="47.24174" lon="4.94964">
        <ele>468</ele>
        <time>2022-05-15T11:45:07Z</time>
      </trkpt>
      <trkpt lat="47.24173" lon="4.94966">
        <ele>468</ele>
        <time>2022-05-15T11:45:08Z</time>
      </trkpt>
      <trkpt lat="47.24172" lon="4.94968">
        <ele>469</ele>
        <time>2022-05-15T11:45:09Z</time>
      </trkpt>
      <trkpt lat="47.24171" lon="4.94969">
        <ele>470</ele>
        <time>2022-05-15T11:45:10Z</time>
      </trkpt>
      <trkpt lat="47.2417" lon="4.9497">
        <ele>470</ele>
        <time>2022-05-15T11:45:11Z</time>
      </trkpt>
      <trkpt lat="47.24169" lon="4.94971">
        <ele>470</ele>
        <time>2022-05-15T11:45:13Z</time>
      </trkpt>
      <trkpt lat="47.24168" lon="4.94972">
        <ele>470</ele>
        <time>2022-05-15T11:45:14Z</time>
      </trkpt>
      <trkpt lat="47.24167" lon="4.94973">
        <ele>471</ele>
        <time>2022-05-15T11:45:15Z</time>
      </trkpt>
      <trkpt lat="47.24166" lon="4.94974">
        <ele>471</ele>
        <time>2022-05-15T11:45:16Z</time>
      </trkpt>
      <trkpt lat="47.24165" lon="4.94976">
        <ele>470</ele>
        <time>2022-05-15T11:45:18Z</time>
      </trkpt>
      <trkpt lat="47.24164" lon="4.94977">
        <ele>471</ele>
        <time>2022-05-15T11:45:20Z</time>
      </trkpt>
      <trkpt lat="47.24163" lon="4.94979">
        <ele>472</ele>
        <time>2022-05-15T11:45:21Z</time>
      </trkpt>
      <trkpt lat="47.24163" lon="4.94981">
        <ele>471</ele>
        <time>2022-05-15T11:45:22Z</time>
      </trkpt>
      <trkpt lat="47.24163" lon="4.94982">
        <ele>472</ele>
        <time>2022-05-15T11:45:23Z</time>
      </trkpt>
      <trkpt lat="47.24162" lon="4.94984">
        <ele>472</ele>
        <time>2022-05-15T11:45:24Z</time>
      </trkpt>
      <trkpt lat="47.24162" lon="4.94985">
        <ele>471</ele>
        <time>2022-05-15T11:45:25Z</time>
      </trkpt>
      <trkpt lat="47.24161" lon="4.94987">
        <ele>470</ele>
        <time>2022-05-15T11:45:26Z</time>
      </trkpt>
      <trkpt lat="47.24161" lon="4.94988">
        <ele>470</ele>
        <time>2022-05-15T11:45:27Z</time>
      </trkpt>
      <trkpt lat="47.24159" lon="4.9499">
        <ele>470</ele>
        <time>2022-05-15T11:45:28Z</time>
      </trkpt>
      <trkpt lat="47.24158" lon="4.94992">
        <ele>471</ele>
        <time>2022-05-15T11:45:29Z</time>
      </trkpt>
      <trkpt lat="47.24157" lon="4.94993">
        <ele>472</ele>
        <time>2022-05-15T11:45:31Z</time>
      </trkpt>
      <trkpt lat="47.24156" lon="4.94995">
        <ele>472</ele>
        <time>2022-05-15T11:45:32Z</time>
      </trkpt>
      <trkpt lat="47.24156" lon="4.94996">
        <ele>471</ele>
        <time>2022-05-15T11:45:33Z</time>
      </trkpt>
      <trkpt lat="47.24154" lon="4.94998">
        <ele>472</ele>
        <time>2022-05-15T11:45:35Z</time>
      </trkpt>
      <trkpt lat="47.24154" lon="4.94999">
        <ele>472</ele>
        <time>2022-05-15T11:45:36Z</time>
      </trkpt>
      <trkpt lat="47.24153" lon="4.95">
        <ele>472</ele>
        <time>2022-05-15T11:45:37Z</time>
      </trkpt>
      <trkpt lat="47.24152" lon="4.95002">
        <ele>473</ele>
        <time>2022-05-15T11:45:38Z</time>
      </trkpt>
      <trkpt lat="47.24152" lon="4.95003">
        <ele>472</ele>
        <time>2022-05-15T11:45:39Z</time>
      </trkpt>
      <trkpt lat="47.24151" lon="4.95006">
        <ele>471</ele>
        <time>2022-05-15T11:45:41Z</time>
      </trkpt>
      <trkpt lat="47.2415" lon="4.95007">
        <ele>471</ele>
        <time>2022-05-15T11:45:42Z</time>
      </trkpt>
      <trkpt lat="47.24149" lon="4.95009">
        <ele>471</ele>
        <time>2022-05-15T11:45:44Z</time>
      </trkpt>
      <trkpt lat="47.24148" lon="4.9501">
        <ele>471</ele>
        <time>2022-05-15T11:45:45Z</time>
      </trkpt>
      <trkpt lat="47.24147" lon="4.95011">
        <ele>471</ele>
        <time>2022-05-15T11:45:46Z</time>
      </trkpt>
      <trkpt lat="47.24146" lon="4.95013">
        <ele>471</ele>
        <time>2022-05-15T11:45:47Z</time>
      </trkpt>
      <trkpt lat="47.24145" lon="4.95015">
        <ele>473</ele>
        <time>2022-05-15T11:45:49Z</time>
      </trkpt>
      <trkpt lat="47.24144" lon="4.95017">
        <ele>472</ele>
        <time>2022-05-15T11:45:50Z</time>
      </trkpt>
      <trkpt lat="47.24144" lon="4.95018">
        <ele>472</ele>
        <time>2022-05-15T11:45:51Z</time>
      </trkpt>
      <trkpt lat="47.24143" lon="4.9502">
        <ele>471</ele>
        <time>2022-05-15T11:45:52Z</time>
      </trkpt>
      <trkpt lat="47.24142" lon="4.95021">
        <ele>471</ele>
        <time>2022-05-15T11:45:53Z</time>
      </trkpt>
      <trkpt lat="47.2414" lon="4.95023">
        <ele>471</ele>
        <time>2022-05-15T11:45:55Z</time>
      </trkpt>
      <trkpt lat="47.24139" lon="4.95024">
        <ele>471</ele>
        <time>2022-05-15T11:45:56Z</time>
      </trkpt>
      <trkpt lat="47.24139" lon="4.95025">
        <ele>471</ele>
        <time>2022-05-15T11:45:57Z</time>
      </trkpt>
      <trkpt lat="47.24138" lon="4.95026">
        <ele>471</ele>
        <time>2022-05-15T11:45:58Z</time>
      </trkpt>
      <trkpt lat="47.24137" lon="4.95028">
        <ele>470</ele>
        <time>2022-05-15T11:45:59Z</time>
      </trkpt>
      <trkpt lat="47.24136" lon="4.95029">
        <ele>470</ele>
        <time>2022-05-15T11:46:00Z</time>
      </trkpt>
      <trkpt lat="47.24135" lon="4.95031">
        <ele>470</ele>
        <time>2022-05-15T11:46:01Z</time>
      </trkpt>
      <trkpt lat="47.24134" lon="4.95032">
        <ele>469</ele>
        <time>2022-05-15T11:46:02Z</time>
      </trkpt>
      <trkpt lat="47.24132" lon="4.95035">
        <ele>470</ele>
        <time>2022-05-15T11:46:04Z</time>
      </trkpt>
      <trkpt lat="47.24131" lon="4.95037">
        <ele>469</ele>
        <time>2022-05-15T11:46:06Z</time>
      </trkpt>
      <trkpt lat="47.24131" lon="4.95038">
        <ele>470</ele>
        <time>2022-05-15T11:46:08Z</time>
      </trkpt>
      <trkpt lat="47.24131" lon="4.95037">
        <ele>470</ele>
        <time>2022-05-15T11:46:12Z</time>
      </trkpt>
      <trkpt lat="47.24132" lon="4.95039">
        <ele>469</ele>
        <time>2022-05-15T11:46:16Z</time>
      </trkpt>
      <trkpt lat="47.24132" lon="4.9504">
        <ele>470</ele>
        <time>2022-05-15T11:46:47Z</time>
      </trkpt>
      <trkpt lat="47.24131" lon="4.95042">
        <ele>470</ele>
        <time>2022-05-15T11:46:49Z</time>
      </trkpt>
      <trkpt lat="47.2413" lon="4.95043">
        <ele>470</ele>
        <time>2022-05-15T11:46:50Z</time>
      </trkpt>
      <trkpt lat="47.2413" lon="4.95045">
        <ele>471</ele>
        <time>2022-05-15T11:46:52Z</time>
      </trkpt>
      <trkpt lat="47.24129" lon="4.95047">
        <ele>471</ele>
        <time>2022-05-15T11:46:54Z</time>
      </trkpt>
      <trkpt lat="47.24128" lon="4.95049">
        <ele>472</ele>
        <time>2022-05-15T11:46:55Z</time>
      </trkpt>
      <trkpt lat="47.24128" lon="4.95052">
        <ele>473</ele>
        <time>2022-05-15T11:46:57Z</time>
      </trkpt>
      <trkpt lat="47.24127" lon="4.95053">
        <ele>473</ele>
        <time>2022-05-15T11:46:58Z</time>
      </trkpt>
      <trkpt lat="47.24127" lon="4.95054">
        <ele>473</ele>
        <time>2022-05-15T11:46:59Z</time>
      </trkpt>
      <trkpt lat="47.24127" lon="4.95056">
        <ele>472</ele>
        <time>2022-05-15T11:47:00Z</time>
      </trkpt>
      <trkpt lat="47.24126" lon="4.95057">
        <ele>473</ele>
        <time>2022-05-15T11:47:01Z</time>
      </trkpt>
      <trkpt lat="47.24125" lon="4.95059">
        <ele>472</ele>
        <time>2022-05-15T11:47:02Z</time>
      </trkpt>
      <trkpt lat="47.24124" lon="4.9506">
        <ele>472</ele>
        <time>2022-05-15T11:47:03Z</time>
      </trkpt>
      <trkpt lat="47.24122" lon="4.95062">
        <ele>472</ele>
        <time>2022-05-15T11:47:05Z</time>
      </trkpt>
      <trkpt lat="47.24122" lon="4.95063">
        <ele>472</ele>
        <time>2022-05-15T11:47:06Z</time>
      </trkpt>
      <trkpt lat="47.24121" lon="4.95065">
        <ele>472</ele>
        <time>2022-05-15T11:47:08Z</time>
      </trkpt>
      <trkpt lat="47.2412" lon="4.95068">
        <ele>470</ele>
        <time>2022-05-15T11:47:10Z</time>
      </trkpt>
      <trkpt lat="47.2412" lon="4.95069">
        <ele>471</ele>
        <time>2022-05-15T11:47:12Z</time>
      </trkpt>
      <trkpt lat="47.24119" lon="4.95071">
        <ele>471</ele>
        <time>2022-05-15T11:47:13Z</time>
      </trkpt>
      <trkpt lat="47.24118" lon="4.95072">
        <ele>470</ele>
        <time>2022-05-15T11:47:14Z</time>
      </trkpt>
      <trkpt lat="47.24117" lon="4.95073">
        <ele>470</ele>
        <time>2022-05-15T11:47:15Z</time>
      </trkpt>
      <trkpt lat="47.24116" lon="4.95075">
        <ele>470</ele>
        <time>2022-05-15T11:47:17Z</time>
      </trkpt>
      <trkpt lat="47.24115" lon="4.95076">
        <ele>471</ele>
        <time>2022-05-15T11:47:18Z</time>
      </trkpt>
      <trkpt lat="47.24114" lon="4.95078">
        <ele>470</ele>
        <time>2022-05-15T11:47:19Z</time>
      </trkpt>
      <trkpt lat="47.24114" lon="4.95079">
        <ele>470</ele>
        <time>2022-05-15T11:47:20Z</time>
      </trkpt>
      <trkpt lat="47.24114" lon="4.9508">
        <ele>471</ele>
        <time>2022-05-15T11:47:21Z</time>
      </trkpt>
      <trkpt lat="47.24114" lon="4.95082">
        <ele>472</ele>
        <time>2022-05-15T11:47:22Z</time>
      </trkpt>
      <trkpt lat="47.24114" lon="4.95083">
        <ele>472</ele>
        <time>2022-05-15T11:47:23Z</time>
      </trkpt>
      <trkpt lat="47.24114" lon="4.95086">
        <ele>474</ele>
        <time>2022-05-15T11:47:25Z</time>
      </trkpt>
      <trkpt lat="47.24114" lon="4.95087">
        <ele>473</ele>
        <time>2022-05-15T11:47:26Z</time>
      </trkpt>
      <trkpt lat="47.24113" lon="4.95089">
        <ele>473</ele>
        <time>2022-05-15T11:47:27Z</time>
      </trkpt>
      <trkpt lat="47.24112" lon="4.9509">
        <ele>473</ele>
        <time>2022-05-15T11:47:28Z</time>
      </trkpt>
      <trkpt lat="47.24111" lon="4.95093">
        <ele>473</ele>
        <time>2022-05-15T11:47:30Z</time>
      </trkpt>
      <trkpt lat="47.24111" lon="4.95095">
        <ele>473</ele>
        <time>2022-05-15T11:47:31Z</time>
      </trkpt>
      <trkpt lat="47.24111" lon="4.95096">
        <ele>474</ele>
        <time>2022-05-15T11:47:32Z</time>
      </trkpt>
      <trkpt lat="47.2411" lon="4.95098">
        <ele>474</ele>
        <time>2022-05-15T11:47:33Z</time>
      </trkpt>
      <trkpt lat="47.24109" lon="4.95099">
        <ele>473</ele>
        <time>2022-05-15T11:47:35Z</time>
      </trkpt>
      <trkpt lat="47.24107" lon="4.951">
        <ele>471</ele>
        <time>2022-05-15T11:47:36Z</time>
      </trkpt>
      <trkpt lat="47.24107" lon="4.95101">
        <ele>470</ele>
        <time>2022-05-15T11:47:37Z</time>
      </trkpt>
      <trkpt lat="47.24106" lon="4.95103">
        <ele>469</ele>
        <time>2022-05-15T11:47:39Z</time>
      </trkpt>
      <trkpt lat="47.24105" lon="4.95104">
        <ele>468</ele>
        <time>2022-05-15T11:47:40Z</time>
      </trkpt>
      <trkpt lat="47.24104" lon="4.95105">
        <ele>469</ele>
        <time>2022-05-15T11:47:45Z</time>
      </trkpt>
      <trkpt lat="47.24104" lon="4.95107">
        <ele>469</ele>
        <time>2022-05-15T11:47:53Z</time>
      </trkpt>
      <trkpt lat="47.24103" lon="4.95108">
        <ele>470</ele>
        <time>2022-05-15T11:47:55Z</time>
      </trkpt>
      <trkpt lat="47.24102" lon="4.95108">
        <ele>468</ele>
        <time>2022-05-15T11:47:58Z</time>
      </trkpt>
      <trkpt lat="47.24103" lon="4.95111">
        <ele>466</ele>
        <time>2022-05-15T11:48:03Z</time>
      </trkpt>
      <trkpt lat="47.24103" lon="4.95113">
        <ele>465</ele>
        <time>2022-05-15T11:48:04Z</time>
      </trkpt>
      <trkpt lat="47.24104" lon="4.95116">
        <ele>465</ele>
        <time>2022-05-15T11:48:06Z</time>
      </trkpt>
      <trkpt lat="47.24105" lon="4.95118">
        <ele>464</ele>
        <time>2022-05-15T11:48:07Z</time>
      </trkpt>
      <trkpt lat="47.24105" lon="4.9512">
        <ele>463</ele>
        <time>2022-05-15T11:48:08Z</time>
      </trkpt>
      <trkpt lat="47.24106" lon="4.95121">
        <ele>464</ele>
        <time>2022-05-15T11:48:09Z</time>
      </trkpt>
      <trkpt lat="47.24107" lon="4.95122">
        <ele>464</ele>
        <time>2022-05-15T11:48:10Z</time>
      </trkpt>
      <trkpt lat="47.24108" lon="4.95123">
        <ele>464</ele>
        <time>2022-05-15T11:48:11Z</time>
      </trkpt>
      <trkpt lat="47.2411" lon="4.95124">
        <ele>464</ele>
        <time>2022-05-15T11:48:13Z</time>
      </trkpt>
      <trkpt lat="47.24111" lon="4.95126">
        <ele>462</ele>
        <time>2022-05-15T11:48:14Z</time>
      </trkpt>
      <trkpt lat="47.24111" lon="4.95127">
        <ele>462</ele>
        <time>2022-05-15T11:48:15Z</time>
      </trkpt>
      <trkpt lat="47.24112" lon="4.95128">
        <ele>461</ele>
        <time>2022-05-15T11:48:16Z</time>
      </trkpt>
      <trkpt lat="47.24113" lon="4.9513">
        <ele>462</ele>
        <time>2022-05-15T11:48:18Z</time>
      </trkpt>
      <trkpt lat="47.24114" lon="4.95131">
        <ele>462</ele>
        <time>2022-05-15T11:48:19Z</time>
      </trkpt>
      <trkpt lat="47.24114" lon="4.95132">
        <ele>463</ele>
        <time>2022-05-15T11:48:20Z</time>
      </trkpt>
      <trkpt lat="47.24115" lon="4.95133">
        <ele>463</ele>
        <time>2022-05-15T11:48:21Z</time>
      </trkpt>
      <trkpt lat="47.24116" lon="4.95134">
        <ele>463</ele>
        <time>2022-05-15T11:48:22Z</time>
      </trkpt>
      <trkpt lat="47.24117" lon="4.95136">
        <ele>463</ele>
        <time>2022-05-15T11:48:23Z</time>
      </trkpt>
      <trkpt lat="47.24117" lon="4.95137">
        <ele>463</ele>
        <time>2022-05-15T11:48:24Z</time>
      </trkpt>
      <trkpt lat="47.24118" lon="4.9514">
        <ele>464</ele>
        <time>2022-05-15T11:48:27Z</time>
      </trkpt>
      <trkpt lat="47.24119" lon="4.95142">
        <ele>464</ele>
        <time>2022-05-15T11:48:29Z</time>
      </trkpt>
      <trkpt lat="47.24119" lon="4.95144">
        <ele>463</ele>
        <time>2022-05-15T11:48:30Z</time>
      </trkpt>
      <trkpt lat="47.24119" lon="4.95146">
        <ele>462</ele>
        <time>2022-05-15T11:48:31Z</time>
      </trkpt>
      <trkpt lat="47.24119" lon="4.95148">
        <ele>463</ele>
        <time>2022-05-15T11:48:32Z</time>
      </trkpt>
      <trkpt lat="47.24119" lon="4.9515">
        <ele>463</ele>
        <time>2022-05-15T11:48:33Z</time>
      </trkpt>
      <trkpt lat="47.24119" lon="4.95151">
        <ele>463</ele>
        <time>2022-05-15T11:48:34Z</time>
      </trkpt>
      <trkpt lat="47.24119" lon="4.95154">
        <ele>462</ele>
        <time>2022-05-15T11:48:36Z</time>
      </trkpt>
      <trkpt lat="47.24119" lon="4.95155">
        <ele>461</ele>
        <time>2022-05-15T11:48:37Z</time>
      </trkpt>
      <trkpt lat="47.24119" lon="4.95156">
        <ele>461</ele>
        <time>2022-05-15T11:48:38Z</time>
      </trkpt>
      <trkpt lat="47.24119" lon="4.95158">
        <ele>461</ele>
        <time>2022-05-15T11:48:39Z</time>
      </trkpt>
      <trkpt lat="47.24119" lon="4.95159">
        <ele>461</ele>
        <time>2022-05-15T11:48:40Z</time>
      </trkpt>
      <trkpt lat="47.24118" lon="4.95161">
        <ele>460</ele>
        <time>2022-05-15T11:48:41Z</time>
      </trkpt>
      <trkpt lat="47.24117" lon="4.95162">
        <ele>461</ele>
        <time>2022-05-15T11:48:42Z</time>
      </trkpt>
      <trkpt lat="47.24117" lon="4.95165">
        <ele>461</ele>
        <time>2022-05-15T11:48:44Z</time>
      </trkpt>
      <trkpt lat="47.24117" lon="4.95167">
        <ele>460</ele>
        <time>2022-05-15T11:48:46Z</time>
      </trkpt>
      <trkpt lat="47.24116" lon="4.95168">
        <ele>460</ele>
        <time>2022-05-15T11:48:47Z</time>
      </trkpt>
      <trkpt lat="47.24115" lon="4.9517">
        <ele>460</ele>
        <time>2022-05-15T11:48:48Z</time>
      </trkpt>
      <trkpt lat="47.24115" lon="4.95171">
        <ele>461</ele>
        <time>2022-05-15T11:48:49Z</time>
      </trkpt>
      <trkpt lat="47.24114" lon="4.95174">
        <ele>460</ele>
        <time>2022-05-15T11:48:51Z</time>
      </trkpt>
      <trkpt lat="47.24114" lon="4.95176">
        <ele>459</ele>
        <time>2022-05-15T11:48:52Z</time>
      </trkpt>
      <trkpt lat="47.24113" lon="4.95178">
        <ele>459</ele>
        <time>2022-05-15T11:48:53Z</time>
      </trkpt>
      <trkpt lat="47.24112" lon="4.9518">
        <ele>457</ele>
        <time>2022-05-15T11:48:54Z</time>
      </trkpt>
      <trkpt lat="47.24112" lon="4.95182">
        <ele>457</ele>
        <time>2022-05-15T11:48:55Z</time>
      </trkpt>
      <trkpt lat="47.24111" lon="4.95184">
        <ele>457</ele>
        <time>2022-05-15T11:48:56Z</time>
      </trkpt>
      <trkpt lat="47.24111" lon="4.95185">
        <ele>458</ele>
        <time>2022-05-15T11:48:57Z</time>
      </trkpt>
      <trkpt lat="47.24111" lon="4.95186">
        <ele>458</ele>
        <time>2022-05-15T11:48:58Z</time>
      </trkpt>
      <trkpt lat="47.2411" lon="4.95188">
        <ele>458</ele>
        <time>2022-05-15T11:48:59Z</time>
      </trkpt>
      <trkpt lat="47.2411" lon="4.95189">
        <ele>457</ele>
        <time>2022-05-15T11:49:00Z</time>
      </trkpt>
      <trkpt lat="47.24109" lon="4.95191">
        <ele>472</ele>
        <time>2022-05-15T11:49:01Z</time>
      </trkpt>
      <trkpt lat="47.24109" lon="4.95193">
        <ele>468</ele>
        <time>2022-05-15T11:49:02Z</time>
      </trkpt>
      <trkpt lat="47.24108" lon="4.95195">
        <ele>465</ele>
        <time>2022-05-15T11:49:03Z</time>
      </trkpt>
      <trkpt lat="47.24108" lon="4.95197">
        <ele>461</ele>
        <time>2022-05-15T11:49:04Z</time>
      </trkpt>
      <trkpt lat="47.24108" lon="4.95199">
        <ele>460</ele>
        <time>2022-05-15T11:49:05Z</time>
      </trkpt>
      <trkpt lat="47.24108" lon="4.95201">
        <ele>459</ele>
        <time>2022-05-15T11:49:06Z</time>
      </trkpt>
      <trkpt lat="47.24108" lon="4.95203">
        <ele>458</ele>
        <time>2022-05-15T11:49:07Z</time>
      </trkpt>
      <trkpt lat="47.24108" lon="4.95204">
        <ele>458</ele>
        <time>2022-05-15T11:49:08Z</time>
      </trkpt>
      <trkpt lat="47.24107" lon="4.95207">
        <ele>458</ele>
        <time>2022-05-15T11:49:10Z</time>
      </trkpt>
      <trkpt lat="47.24106" lon="4.95208">
        <ele>457</ele>
        <time>2022-05-15T11:49:11Z</time>
      </trkpt>
      <trkpt lat="47.24105" lon="4.9521">
        <ele>457</ele>
        <time>2022-05-15T11:49:12Z</time>
      </trkpt>
      <trkpt lat="47.24104" lon="4.95212">
        <ele>457</ele>
        <time>2022-05-15T11:49:13Z</time>
      </trkpt>
      <trkpt lat="47.24104" lon="4.95213">
        <ele>458</ele>
        <time>2022-05-15T11:49:14Z</time>
      </trkpt>
      <trkpt lat="47.24103" lon="4.95215">
        <ele>458</ele>
        <time>2022-05-15T11:49:15Z</time>
      </trkpt>
      <trkpt lat="47.24103" lon="4.95217">
        <ele>458</ele>
        <time>2022-05-15T11:49:16Z</time>
      </trkpt>
      <trkpt lat="47.24103" lon="4.95218">
        <ele>458</ele>
        <time>2022-05-15T11:49:17Z</time>
      </trkpt>
      <trkpt lat="47.24103" lon="4.9522">
        <ele>456</ele>
        <time>2022-05-15T11:49:18Z</time>
      </trkpt>
      <trkpt lat="47.24103" lon="4.95222">
        <ele>458</ele>
        <time>2022-05-15T11:49:20Z</time>
      </trkpt>
      <trkpt lat="47.24104" lon="4.95222">
        <ele>459</ele>
        <time>2022-05-15T11:49:25Z</time>
      </trkpt>
      <trkpt lat="47.24105" lon="4.95221">
        <ele>461</ele>
        <time>2022-05-15T11:49:29Z</time>
      </trkpt>
      <trkpt lat="47.24106" lon="4.9522">
        <ele>461</ele>
        <time>2022-05-15T11:49:30Z</time>
      </trkpt>
      <trkpt lat="47.24107" lon="4.95219">
        <ele>461</ele>
        <time>2022-05-15T11:49:31Z</time>
      </trkpt>
      <trkpt lat="47.24108" lon="4.95219">
        <ele>460</ele>
        <time>2022-05-15T11:49:32Z</time>
      </trkpt>
      <trkpt lat="47.24109" lon="4.95219">
        <ele>460</ele>
        <time>2022-05-15T11:49:33Z</time>
      </trkpt>
      <trkpt lat="47.2411" lon="4.95219">
        <ele>460</ele>
        <time>2022-05-15T11:49:34Z</time>
      </trkpt>
      <trkpt lat="47.24111" lon="4.95218">
        <ele>460</ele>
        <time>2022-05-15T11:49:35Z</time>
      </trkpt>
      <trkpt lat="47.24112" lon="4.95218">
        <ele>459</ele>
        <time>2022-05-15T11:49:36Z</time>
      </trkpt>
      <trkpt lat="47.24114" lon="4.95219">
        <ele>459</ele>
        <time>2022-05-15T11:49:38Z</time>
      </trkpt>
      <trkpt lat="47.24115" lon="4.9522">
        <ele>459</ele>
        <time>2022-05-15T11:49:39Z</time>
      </trkpt>
      <trkpt lat="47.24116" lon="4.95221">
        <ele>458</ele>
        <time>2022-05-15T11:49:40Z</time>
      </trkpt>
      <trkpt lat="47.24117" lon="4.95222">
        <ele>458</ele>
        <time>2022-05-15T11:49:41Z</time>
      </trkpt>
      <trkpt lat="47.24118" lon="4.95223">
        <ele>457</ele>
        <time>2022-05-15T11:49:43Z</time>
      </trkpt>
      <trkpt lat="47.2412" lon="4.95224">
        <ele>457</ele>
        <time>2022-05-15T11:49:45Z</time>
      </trkpt>
      <trkpt lat="47.2412" lon="4.95226">
        <ele>458</ele>
        <time>2022-05-15T11:49:46Z</time>
      </trkpt>
      <trkpt lat="47.24121" lon="4.95226">
        <ele>457</ele>
        <time>2022-05-15T11:49:47Z</time>
      </trkpt>
      <trkpt lat="47.24123" lon="4.95227">
        <ele>457</ele>
        <time>2022-05-15T11:49:49Z</time>
      </trkpt>
      <trkpt lat="47.24124" lon="4.95228">
        <ele>457</ele>
        <time>2022-05-15T11:49:50Z</time>
      </trkpt>
      <trkpt lat="47.24125" lon="4.95228">
        <ele>457</ele>
        <time>2022-05-15T11:49:51Z</time>
      </trkpt>
      <trkpt lat="47.24126" lon="4.95229">
        <ele>456</ele>
        <time>2022-05-15T11:49:52Z</time>
      </trkpt>
      <trkpt lat="47.24127" lon="4.9523">
        <ele>458</ele>
        <time>2022-05-15T11:49:54Z</time>
      </trkpt>
      <trkpt lat="47.24128" lon="4.95231">
        <ele>458</ele>
        <time>2022-05-15T11:49:56Z</time>
      </trkpt>
      <trkpt lat="47.24129" lon="4.95233">
        <ele>455</ele>
        <time>2022-05-15T11:49:57Z</time>
      </trkpt>
      <trkpt lat="47.2413" lon="4.95234">
        <ele>455</ele>
        <time>2022-05-15T11:49:58Z</time>
      </trkpt>
      <trkpt lat="47.24131" lon="4.95235">
        <ele>455</ele>
        <time>2022-05-15T11:49:59Z</time>
      </trkpt>
      <trkpt lat="47.24131" lon="4.95237">
        <ele>454</ele>
        <time>2022-05-15T11:50:00Z</time>
      </trkpt>
      <trkpt lat="47.24132" lon="4.95238">
        <ele>454</ele>
        <time>2022-05-15T11:50:01Z</time>
      </trkpt>
      <trkpt lat="47.24132" lon="4.95239">
        <ele>454</ele>
        <time>2022-05-15T11:50:02Z</time>
      </trkpt>
      <trkpt lat="47.24131" lon="4.95241">
        <ele>454</ele>
        <time>2022-05-15T11:50:03Z</time>
      </trkpt>
      <trkpt lat="47.24131" lon="4.95243">
        <ele>455</ele>
        <time>2022-05-15T11:50:04Z</time>
      </trkpt>
      <trkpt lat="47.2413" lon="4.95245">
        <ele>455</ele>
        <time>2022-05-15T11:50:05Z</time>
      </trkpt>
      <trkpt lat="47.24129" lon="4.95248">
        <ele>455</ele>
        <time>2022-05-15T11:50:07Z</time>
      </trkpt>
      <trkpt lat="47.24129" lon="4.95249">
        <ele>456</ele>
        <time>2022-05-15T11:50:08Z</time>
      </trkpt>
      <trkpt lat="47.24128" lon="4.95251">
        <ele>455</ele>
        <time>2022-05-15T11:50:09Z</time>
      </trkpt>
      <trkpt lat="47.24128" lon="4.95253">
        <ele>455</ele>
        <time>2022-05-15T11:50:10Z</time>
      </trkpt>
      <trkpt lat="47.24128" lon="4.95255">
        <ele>455</ele>
        <time>2022-05-15T11:50:11Z</time>
      </trkpt>
      <trkpt lat="47.24127" lon="4.95256">
        <ele>455</ele>
        <time>2022-05-15T11:50:12Z</time>
      </trkpt>
      <trkpt lat="47.24127" lon="4.95258">
        <ele>456</ele>
        <time>2022-05-15T11:50:13Z</time>
      </trkpt>
      <trkpt lat="47.24126" lon="4.95259">
        <ele>456</ele>
        <time>2022-05-15T11:50:14Z</time>
      </trkpt>
      <trkpt lat="47.24126" lon="4.95261">
        <ele>456</ele>
        <time>2022-05-15T11:50:15Z</time>
      </trkpt>
      <trkpt lat="47.24125" lon="4.95262">
        <ele>456</ele>
        <time>2022-05-15T11:50:16Z</time>
      </trkpt>
      <trkpt lat="47.24125" lon="4.95264">
        <ele>456</ele>
        <time>2022-05-15T11:50:18Z</time>
      </trkpt>
      <trkpt lat="47.24125" lon="4.95266">
        <ele>456</ele>
        <time>2022-05-15T11:50:19Z</time>
      </trkpt>
      <trkpt lat="47.24124" lon="4.95267">
        <ele>455</ele>
        <time>2022-05-15T11:50:20Z</time>
      </trkpt>
      <trkpt lat="47.24124" lon="4.95269">
        <ele>454</ele>
        <time>2022-05-15T11:50:21Z</time>
      </trkpt>
      <trkpt lat="47.24124" lon="4.9527">
        <ele>454</ele>
        <time>2022-05-15T11:50:22Z</time>
      </trkpt>
      <trkpt lat="47.24125" lon="4.95272">
        <ele>454</ele>
        <time>2022-05-15T11:50:23Z</time>
      </trkpt>
      <trkpt lat="47.24126" lon="4.95273">
        <ele>454</ele>
        <time>2022-05-15T11:50:24Z</time>
      </trkpt>
      <trkpt lat="47.24126" lon="4.95274">
        <ele>454</ele>
        <time>2022-05-15T11:50:25Z</time>
      </trkpt>
      <trkpt lat="47.24127" lon="4.95275">
        <ele>455</ele>
        <time>2022-05-15T11:50:26Z</time>
      </trkpt>
      <trkpt lat="47.24127" lon="4.95277">
        <ele>454</ele>
        <time>2022-05-15T11:50:27Z</time>
      </trkpt>
      <trkpt lat="47.24127" lon="4.95278">
        <ele>454</ele>
        <time>2022-05-15T11:50:28Z</time>
      </trkpt>
      <trkpt lat="47.24127" lon="4.9528">
        <ele>455</ele>
        <time>2022-05-15T11:50:29Z</time>
      </trkpt>
      <trkpt lat="47.24127" lon="4.95282">
        <ele>455</ele>
        <time>2022-05-15T11:50:30Z</time>
      </trkpt>
      <trkpt lat="47.24127" lon="4.95284">
        <ele>454</ele>
        <time>2022-05-15T11:50:31Z</time>
      </trkpt>
      <trkpt lat="47.24127" lon="4.95286">
        <ele>454</ele>
        <time>2022-05-15T11:50:32Z</time>
      </trkpt>
      <trkpt lat="47.24127" lon="4.95287">
        <ele>454</ele>
        <time>2022-05-15T11:50:33Z</time>
      </trkpt>
      <trkpt lat="47.24127" lon="4.95289">
        <ele>454</ele>
        <time>2022-05-15T11:50:34Z</time>
      </trkpt>
      <trkpt lat="47.24127" lon="4.95292">
        <ele>454</ele>
        <time>2022-05-15T11:50:36Z</time>
      </trkpt>
      <trkpt lat="47.24126" lon="4.95293">
        <ele>453</ele>
        <time>2022-05-15T11:50:37Z</time>
      </trkpt>
      <trkpt lat="47.24126" lon="4.95295">
        <ele>452</ele>
        <time>2022-05-15T11:50:38Z</time>
      </trkpt>
      <trkpt lat="47.24125" lon="4.95296">
        <ele>452</ele>
        <time>2022-05-15T11:50:39Z</time>
      </trkpt>
      <trkpt lat="47.24125" lon="4.95298">
        <ele>451</ele>
        <time>2022-05-15T11:50:41Z</time>
      </trkpt>
      <trkpt lat="47.24127" lon="4.95301">
        <ele>451</ele>
        <time>2022-05-15T11:50:43Z</time>
      </trkpt>
      <trkpt lat="47.24127" lon="4.95302">
        <ele>451</ele>
        <time>2022-05-15T11:50:44Z</time>
      </trkpt>
      <trkpt lat="47.24128" lon="4.95303">
        <ele>452</ele>
        <time>2022-05-15T11:50:45Z</time>
      </trkpt>
      <trkpt lat="47.24129" lon="4.95304">
        <ele>452</ele>
        <time>2022-05-15T11:50:46Z</time>
      </trkpt>
      <trkpt lat="47.2413" lon="4.95306">
        <ele>453</ele>
        <time>2022-05-15T11:50:48Z</time>
      </trkpt>
      <trkpt lat="47.2413" lon="4.95308">
        <ele>453</ele>
        <time>2022-05-15T11:50:50Z</time>
      </trkpt>
      <trkpt lat="47.24131" lon="4.95309">
        <ele>453</ele>
        <time>2022-05-15T11:50:52Z</time>
      </trkpt>
      <trkpt lat="47.24132" lon="4.95311">
        <ele>452</ele>
        <time>2022-05-15T11:50:54Z</time>
      </trkpt>
      <trkpt lat="47.24132" lon="4.95312">
        <ele>452</ele>
        <time>2022-05-15T11:50:55Z</time>
      </trkpt>
      <trkpt lat="47.24133" lon="4.95313">
        <ele>452</ele>
        <time>2022-05-15T11:50:56Z</time>
      </trkpt>
      <trkpt lat="47.24134" lon="4.95314">
        <ele>452</ele>
        <time>2022-05-15T11:50:57Z</time>
      </trkpt>
      <trkpt lat="47.24136" lon="4.95314">
        <ele>452</ele>
        <time>2022-05-15T11:50:58Z</time>
      </trkpt>
      <trkpt lat="47.24137" lon="4.95315">
        <ele>452</ele>
        <time>2022-05-15T11:50:59Z</time>
      </trkpt>
      <trkpt lat="47.24137" lon="4.95315">
        <ele>453</ele>
        <time>2022-05-15T11:51:00Z</time>
      </trkpt>
      <trkpt lat="47.24139" lon="4.95315">
        <ele>452</ele>
        <time>2022-05-15T11:51:01Z</time>
      </trkpt>
      <trkpt lat="47.2414" lon="4.95316">
        <ele>451</ele>
        <time>2022-05-15T11:51:02Z</time>
      </trkpt>
      <trkpt lat="47.24141" lon="4.95315">
        <ele>451</ele>
        <time>2022-05-15T11:51:04Z</time>
      </trkpt>
      <trkpt lat="47.24142" lon="4.95316">
        <ele>452</ele>
        <time>2022-05-15T11:51:09Z</time>
      </trkpt>
      <trkpt lat="47.24143" lon="4.95317">
        <ele>452</ele>
        <time>2022-05-15T11:51:10Z</time>
      </trkpt>
      <trkpt lat="47.24144" lon="4.95317">
        <ele>451</ele>
        <time>2022-05-15T11:51:11Z</time>
      </trkpt>
      <trkpt lat="47.24145" lon="4.95318">
        <ele>452</ele>
        <time>2022-05-15T11:51:13Z</time>
      </trkpt>
      <trkpt lat="47.24146" lon="4.95319">
        <ele>452</ele>
        <time>2022-05-15T11:51:15Z</time>
      </trkpt>
      <trkpt lat="47.24146" lon="4.95321">
        <ele>453</ele>
        <time>2022-05-15T11:51:17Z</time>
      </trkpt>
      <trkpt lat="47.24146" lon="4.95324">
        <ele>453</ele>
        <time>2022-05-15T11:51:19Z</time>
      </trkpt>
      <trkpt lat="47.24145" lon="4.95325">
        <ele>453</ele>
        <time>2022-05-15T11:51:21Z</time>
      </trkpt>
      <trkpt lat="47.24144" lon="4.95327">
        <ele>453</ele>
        <time>2022-05-15T11:51:23Z</time>
      </trkpt>
      <trkpt lat="47.24142" lon="4.95327">
        <ele>453</ele>
        <time>2022-05-15T11:51:25Z</time>
      </trkpt>
      <trkpt lat="47.24141" lon="4.95327">
        <ele>453</ele>
        <time>2022-05-15T11:51:26Z</time>
      </trkpt>
      <trkpt lat="47.2414" lon="4.95327">
        <ele>453</ele>
        <time>2022-05-15T11:51:27Z</time>
      </trkpt>
      <trkpt lat="47.24139" lon="4.95327">
        <ele>453</ele>
        <time>2022-05-15T11:51:28Z</time>
      </trkpt>
      <trkpt lat="47.24138" lon="4.95327">
        <ele>453</ele>
        <time>2022-05-15T11:51:31Z</time>
      </trkpt>
      <trkpt lat="47.24137" lon="4.95327">
        <ele>453</ele>
        <time>2022-05-15T11:51:33Z</time>
      </trkpt>
      <trkpt lat="47.24136" lon="4.95326">
        <ele>453</ele>
        <time>2022-05-15T11:51:35Z</time>
      </trkpt>
      <trkpt lat="47.24134" lon="4.95325">
        <ele>454</ele>
        <time>2022-05-15T11:51:37Z</time>
      </trkpt>
      <trkpt lat="47.24133" lon="4.95326">
        <ele>454</ele>
        <time>2022-05-15T11:51:39Z</time>
      </trkpt>
      <trkpt lat="47.24132" lon="4.95326">
        <ele>455</ele>
        <time>2022-05-15T11:51:40Z</time>
      </trkpt>
      <trkpt lat="47.24131" lon="4.95326">
        <ele>454</ele>
        <time>2022-05-15T11:51:41Z</time>
      </trkpt>
      <trkpt lat="47.2413" lon="4.95327">
        <ele>454</ele>
        <time>2022-05-15T11:51:42Z</time>
      </trkpt>
      <trkpt lat="47.24129" lon="4.95328">
        <ele>454</ele>
        <time>2022-05-15T11:51:43Z</time>
      </trkpt>
      <trkpt lat="47.24128" lon="4.95329">
        <ele>454</ele>
        <time>2022-05-15T11:51:44Z</time>
      </trkpt>
      <trkpt lat="47.24128" lon="4.9533">
        <ele>454</ele>
        <time>2022-05-15T11:51:45Z</time>
      </trkpt>
      <trkpt lat="47.24126" lon="4.95332">
        <ele>454</ele>
        <time>2022-05-15T11:51:47Z</time>
      </trkpt>
      <trkpt lat="47.24125" lon="4.95333">
        <ele>454</ele>
        <time>2022-05-15T11:51:48Z</time>
      </trkpt>
      <trkpt lat="47.24124" lon="4.95334">
        <ele>454</ele>
        <time>2022-05-15T11:51:49Z</time>
      </trkpt>
      <trkpt lat="47.24123" lon="4.95334">
        <ele>454</ele>
        <time>2022-05-15T11:51:50Z</time>
      </trkpt>
      <trkpt lat="47.24123" lon="4.95335">
        <ele>454</ele>
        <time>2022-05-15T11:51:51Z</time>
      </trkpt>
      <trkpt lat="47.24122" lon="4.95335">
        <ele>453</ele>
        <time>2022-05-15T11:51:52Z</time>
      </trkpt>
      <trkpt lat="47.24121" lon="4.95336">
        <ele>453</ele>
        <time>2022-05-15T11:51:53Z</time>
      </trkpt>
      <trkpt lat="47.24119" lon="4.95337">
        <ele>453</ele>
        <time>2022-05-15T11:51:55Z</time>
      </trkpt>
      <trkpt lat="47.24117" lon="4.95337">
        <ele>453</ele>
        <time>2022-05-15T11:51:56Z</time>
      </trkpt>
      <trkpt lat="47.24116" lon="4.95337">
        <ele>453</ele>
        <time>2022-05-15T11:51:57Z</time>
      </trkpt>
      <trkpt lat="47.24115" lon="4.95338">
        <ele>453</ele>
        <time>2022-05-15T11:51:58Z</time>
      </trkpt>
      <trkpt lat="47.24114" lon="4.95338">
        <ele>453</ele>
        <time>2022-05-15T11:51:59Z</time>
      </trkpt>
      <trkpt lat="47.24113" lon="4.95339">
        <ele>453</ele>
        <time>2022-05-15T11:52:00Z</time>
      </trkpt>
      <trkpt lat="47.24112" lon="4.95339">
        <ele>452</ele>
        <time>2022-05-15T11:52:01Z</time>
      </trkpt>
      <trkpt lat="47.24111" lon="4.95339">
        <ele>453</ele>
        <time>2022-05-15T11:52:02Z</time>
      </trkpt>
      <trkpt lat="47.24109" lon="4.95339">
        <ele>453</ele>
        <time>2022-05-15T11:52:03Z</time>
      </trkpt>
      <trkpt lat="47.24108" lon="4.95338">
        <ele>454</ele>
        <time>2022-05-15T11:52:04Z</time>
      </trkpt>
      <trkpt lat="47.24107" lon="4.95338">
        <ele>453</ele>
        <time>2022-05-15T11:52:05Z</time>
      </trkpt>
      <trkpt lat="47.24106" lon="4.95338">
        <ele>453</ele>
        <time>2022-05-15T11:52:06Z</time>
      </trkpt>
      <trkpt lat="47.24105" lon="4.95339">
        <ele>452</ele>
        <time>2022-05-15T11:52:07Z</time>
      </trkpt>
      <trkpt lat="47.24103" lon="4.95339">
        <ele>453</ele>
        <time>2022-05-15T11:52:09Z</time>
      </trkpt>
      <trkpt lat="47.24102" lon="4.95339">
        <ele>453</ele>
        <time>2022-05-15T11:52:10Z</time>
      </trkpt>
      <trkpt lat="47.24101" lon="4.95339">
        <ele>454</ele>
        <time>2022-05-15T11:52:11Z</time>
      </trkpt>
      <trkpt lat="47.241" lon="4.95339">
        <ele>454</ele>
        <time>2022-05-15T11:52:12Z</time>
      </trkpt>
      <trkpt lat="47.24099" lon="4.95339">
        <ele>455</ele>
        <time>2022-05-15T11:52:13Z</time>
      </trkpt>
      <trkpt lat="47.24098" lon="4.95339">
        <ele>455</ele>
        <time>2022-05-15T11:52:14Z</time>
      </trkpt>
      <trkpt lat="47.24097" lon="4.95339">
        <ele>455</ele>
        <time>2022-05-15T11:52:15Z</time>
      </trkpt>
      <trkpt lat="47.24096" lon="4.95339">
        <ele>455</ele>
        <time>2022-05-15T11:52:17Z</time>
      </trkpt>
      <trkpt lat="47.24095" lon="4.95338">
        <ele>455</ele>
        <time>2022-05-15T11:52:19Z</time>
      </trkpt>
      <trkpt lat="47.24093" lon="4.95338">
        <ele>454</ele>
        <time>2022-05-15T11:52:21Z</time>
      </trkpt>
      <trkpt lat="47.24092" lon="4.95338">
        <ele>454</ele>
        <time>2022-05-15T11:52:23Z</time>
      </trkpt>
      <trkpt lat="47.24091" lon="4.95339">
        <ele>453</ele>
        <time>2022-05-15T11:52:24Z</time>
      </trkpt>
      <trkpt lat="47.2409" lon="4.95341">
        <ele>453</ele>
        <time>2022-05-15T11:52:26Z</time>
      </trkpt>
      <trkpt lat="47.24088" lon="4.95342">
        <ele>453</ele>
        <time>2022-05-15T11:52:27Z</time>
      </trkpt>
      <trkpt lat="47.24088" lon="4.95343">
        <ele>453</ele>
        <time>2022-05-15T11:52:28Z</time>
      </trkpt>
      <trkpt lat="47.24086" lon="4.95344">
        <ele>454</ele>
        <time>2022-05-15T11:52:30Z</time>
      </trkpt>
      <trkpt lat="47.24085" lon="4.95345">
        <ele>454</ele>
        <time>2022-05-15T11:52:31Z</time>
      </trkpt>
      <trkpt lat="47.24084" lon="4.95345">
        <ele>454</ele>
        <time>2022-05-15T11:52:32Z</time>
      </trkpt>
      <trkpt lat="47.24083" lon="4.95347">
        <ele>454</ele>
        <time>2022-05-15T11:52:34Z</time>
      </trkpt>
      <trkpt lat="47.24082" lon="4.95348">
        <ele>454</ele>
        <time>2022-05-15T11:52:35Z</time>
      </trkpt>
      <trkpt lat="47.24081" lon="4.9535">
        <ele>453</ele>
        <time>2022-05-15T11:52:37Z</time>
      </trkpt>
      <trkpt lat="47.2408" lon="4.9535">
        <ele>453</ele>
        <time>2022-05-15T11:52:38Z</time>
      </trkpt>
      <trkpt lat="47.24079" lon="4.9535">
        <ele>453</ele>
        <time>2022-05-15T11:52:39Z</time>
      </trkpt>
      <trkpt lat="47.24078" lon="4.95351">
        <ele>453</ele>
        <time>2022-05-15T11:52:40Z</time>
      </trkpt>
      <trkpt lat="47.24077" lon="4.95351">
        <ele>453</ele>
        <time>2022-05-15T11:52:41Z</time>
      </trkpt>
      <trkpt lat="47.24076" lon="4.95352">
        <ele>454</ele>
        <time>2022-05-15T11:52:42Z</time>
      </trkpt>
      <trkpt lat="47.24075" lon="4.95353">
        <ele>454</ele>
        <time>2022-05-15T11:52:43Z</time>
      </trkpt>
      <trkpt lat="47.24074" lon="4.95354">
        <ele>454</ele>
        <time>2022-05-15T11:52:44Z</time>
      </trkpt>
      <trkpt lat="47.24073" lon="4.95355">
        <ele>454</ele>
        <time>2022-05-15T11:52:45Z</time>
      </trkpt>
      <trkpt lat="47.24072" lon="4.95356">
        <ele>453</ele>
        <time>2022-05-15T11:52:46Z</time>
      </trkpt>
      <trkpt lat="47.24071" lon="4.95357">
        <ele>453</ele>
        <time>2022-05-15T11:52:47Z</time>
      </trkpt>
      <trkpt lat="47.2407" lon="4.95357">
        <ele>453</ele>
        <time>2022-05-15T11:52:48Z</time>
      </trkpt>
      <trkpt lat="47.24069" lon="4.95357">
        <ele>453</ele>
        <time>2022-05-15T11:52:49Z</time>
      </trkpt>
      <trkpt lat="47.24067" lon="4.95357">
        <ele>453</ele>
        <time>2022-05-15T11:52:50Z</time>
      </trkpt>
      <trkpt lat="47.24066" lon="4.95357">
        <ele>453</ele>
        <time>2022-05-15T11:52:51Z</time>
      </trkpt>
      <trkpt lat="47.24065" lon="4.95358">
        <ele>453</ele>
        <time>2022-05-15T11:52:52Z</time>
      </trkpt>
      <trkpt lat="47.24063" lon="4.95358">
        <ele>452</ele>
        <time>2022-05-15T11:52:53Z</time>
      </trkpt>
      <trkpt lat="47.24062" lon="4.95358">
        <ele>452</ele>
        <time>2022-05-15T11:52:54Z</time>
      </trkpt>
      <trkpt lat="47.24061" lon="4.95358">
        <ele>453</ele>
        <time>2022-05-15T11:52:55Z</time>
      </trkpt>
      <trkpt lat="47.2406" lon="4.95358">
        <ele>453</ele>
        <time>2022-05-15T11:52:56Z</time>
      </trkpt>
      <trkpt lat="47.24059" lon="4.95358">
        <ele>453</ele>
        <time>2022-05-15T11:52:57Z</time>
      </trkpt>
      <trkpt lat="47.24057" lon="4.95359">
        <ele>454</ele>
        <time>2022-05-15T11:52:59Z</time>
      </trkpt>
      <trkpt lat="47.24056" lon="4.9536">
        <ele>454</ele>
        <time>2022-05-15T11:53:00Z</time>
      </trkpt>
      <trkpt lat="47.24056" lon="4.95361">
        <ele>454</ele>
        <time>2022-05-15T11:53:01Z</time>
      </trkpt>
      <trkpt lat="47.24055" lon="4.95362">
        <ele>454</ele>
        <time>2022-05-15T11:53:02Z</time>
      </trkpt>
      <trkpt lat="47.24054" lon="4.95363">
        <ele>454</ele>
        <time>2022-05-15T11:53:03Z</time>
      </trkpt>
      <trkpt lat="47.24053" lon="4.95365">
        <ele>453</ele>
        <time>2022-05-15T11:53:04Z</time>
      </trkpt>
      <trkpt lat="47.24052" lon="4.95366">
        <ele>454</ele>
        <time>2022-05-15T11:53:05Z</time>
      </trkpt>
      <trkpt lat="47.24051" lon="4.95366">
        <ele>454</ele>
        <time>2022-05-15T11:53:06Z</time>
      </trkpt>
      <trkpt lat="47.2405" lon="4.95367">
        <ele>454</ele>
        <time>2022-05-15T11:53:07Z</time>
      </trkpt>
      <trkpt lat="47.24049" lon="4.95368">
        <ele>454</ele>
        <time>2022-05-15T11:53:08Z</time>
      </trkpt>
      <trkpt lat="47.24047" lon="4.95369">
        <ele>454</ele>
        <time>2022-05-15T11:53:10Z</time>
      </trkpt>
      <trkpt lat="47.24046" lon="4.9537">
        <ele>455</ele>
        <time>2022-05-15T11:53:11Z</time>
      </trkpt>
      <trkpt lat="47.24045" lon="4.95371">
        <ele>455</ele>
        <time>2022-05-15T11:53:12Z</time>
      </trkpt>
      <trkpt lat="47.24044" lon="4.95371">
        <ele>455</ele>
        <time>2022-05-15T11:53:13Z</time>
      </trkpt>
      <trkpt lat="47.24043" lon="4.95372">
        <ele>455</ele>
        <time>2022-05-15T11:53:14Z</time>
      </trkpt>
      <trkpt lat="47.24042" lon="4.95372">
        <ele>455</ele>
        <time>2022-05-15T11:53:15Z</time>
      </trkpt>
      <trkpt lat="47.24041" lon="4.95373">
        <ele>454</ele>
        <time>2022-05-15T11:53:16Z</time>
      </trkpt>
      <trkpt lat="47.24041" lon="4.95374">
        <ele>454</ele>
        <time>2022-05-15T11:53:17Z</time>
      </trkpt>
      <trkpt lat="47.2404" lon="4.95375">
        <ele>454</ele>
        <time>2022-05-15T11:53:18Z</time>
      </trkpt>
      <trkpt lat="47.24039" lon="4.95375">
        <ele>455</ele>
        <time>2022-05-15T11:53:19Z</time>
      </trkpt>
      <trkpt lat="47.24038" lon="4.95376">
        <ele>455</ele>
        <time>2022-05-15T11:53:20Z</time>
      </trkpt>
      <trkpt lat="47.24037" lon="4.95377">
        <ele>456</ele>
        <time>2022-05-15T11:53:21Z</time>
      </trkpt>
      <trkpt lat="47.24036" lon="4.95378">
        <ele>456</ele>
        <time>2022-05-15T11:53:22Z</time>
      </trkpt>
      <trkpt lat="47.24035" lon="4.95379">
        <ele>455</ele>
        <time>2022-05-15T11:53:23Z</time>
      </trkpt>
      <trkpt lat="47.24034" lon="4.9538">
        <ele>455</ele>
        <time>2022-05-15T11:53:24Z</time>
      </trkpt>
      <trkpt lat="47.24033" lon="4.95381">
        <ele>455</ele>
        <time>2022-05-15T11:53:25Z</time>
      </trkpt>
      <trkpt lat="47.24031" lon="4.95382">
        <ele>454</ele>
        <time>2022-05-15T11:53:26Z</time>
      </trkpt>
      <trkpt lat="47.2403" lon="4.95383">
        <ele>454</ele>
        <time>2022-05-15T11:53:27Z</time>
      </trkpt>
      <trkpt lat="47.24029" lon="4.95383">
        <ele>454</ele>
        <time>2022-05-15T11:53:28Z</time>
      </trkpt>
      <trkpt lat="47.24029" lon="4.95384">
        <ele>454</ele>
        <time>2022-05-15T11:53:29Z</time>
      </trkpt>
      <trkpt lat="47.24028" lon="4.95385">
        <ele>455</ele>
        <time>2022-05-15T11:53:30Z</time>
      </trkpt>
      <trkpt lat="47.24027" lon="4.95387">
        <ele>455</ele>
        <time>2022-05-15T11:53:31Z</time>
      </trkpt>
      <trkpt lat="47.24027" lon="4.95388">
        <ele>455</ele>
        <time>2022-05-15T11:53:32Z</time>
      </trkpt>
      <trkpt lat="47.24026" lon="4.95389">
        <ele>455</ele>
        <time>2022-05-15T11:53:33Z</time>
      </trkpt>
      <trkpt lat="47.24024" lon="4.9539">
        <ele>456</ele>
        <time>2022-05-15T11:53:35Z</time>
      </trkpt>
      <trkpt lat="47.24023" lon="4.95392">
        <ele>457</ele>
        <time>2022-05-15T11:53:36Z</time>
      </trkpt>
      <trkpt lat="47.24022" lon="4.95393">
        <ele>457</ele>
        <time>2022-05-15T11:53:37Z</time>
      </trkpt>
      <trkpt lat="47.24022" lon="4.95394">
        <ele>457</ele>
        <time>2022-05-15T11:53:38Z</time>
      </trkpt>
      <trkpt lat="47.2402" lon="4.95396">
        <ele>457</ele>
        <time>2022-05-15T11:53:40Z</time>
      </trkpt>
      <trkpt lat="47.24019" lon="4.95397">
        <ele>457</ele>
        <time>2022-05-15T11:53:41Z</time>
      </trkpt>
      <trkpt lat="47.24018" lon="4.95398">
        <ele>457</ele>
        <time>2022-05-15T11:53:42Z</time>
      </trkpt>
      <trkpt lat="47.24017" lon="4.95399">
        <ele>456</ele>
        <time>2022-05-15T11:53:43Z</time>
      </trkpt>
      <trkpt lat="47.24016" lon="4.95399">
        <ele>456</ele>
        <time>2022-05-15T11:53:44Z</time>
      </trkpt>
      <trkpt lat="47.24015" lon="4.954">
        <ele>457</ele>
        <time>2022-05-15T11:53:45Z</time>
      </trkpt>
      <trkpt lat="47.24014" lon="4.95401">
        <ele>457</ele>
        <time>2022-05-15T11:53:46Z</time>
      </trkpt>
      <trkpt lat="47.24013" lon="4.95402">
        <ele>457</ele>
        <time>2022-05-15T11:53:47Z</time>
      </trkpt>
      <trkpt lat="47.24012" lon="4.95403">
        <ele>457</ele>
        <time>2022-05-15T11:53:49Z</time>
      </trkpt>
      <trkpt lat="47.24011" lon="4.95404">
        <ele>457</ele>
        <time>2022-05-15T11:53:50Z</time>
      </trkpt>
      <trkpt lat="47.2401" lon="4.95405">
        <ele>456</ele>
        <time>2022-05-15T11:53:51Z</time>
      </trkpt>
      <trkpt lat="47.24009" lon="4.95406">
        <ele>457</ele>
        <time>2022-05-15T11:53:53Z</time>
      </trkpt>
      <trkpt lat="47.24008" lon="4.95407">
        <ele>458</ele>
        <time>2022-05-15T11:53:54Z</time>
      </trkpt>
      <trkpt lat="47.24006" lon="4.95408">
        <ele>457</ele>
        <time>2022-05-15T11:53:55Z</time>
      </trkpt>
      <trkpt lat="47.24005" lon="4.95408">
        <ele>456</ele>
        <time>2022-05-15T11:53:56Z</time>
      </trkpt>
      <trkpt lat="47.24004" lon="4.95409">
        <ele>456</ele>
        <time>2022-05-15T11:53:57Z</time>
      </trkpt>
      <trkpt lat="47.24003" lon="4.95409">
        <ele>456</ele>
        <time>2022-05-15T11:53:58Z</time>
      </trkpt>
      <trkpt lat="47.24002" lon="4.9541">
        <ele>456</ele>
        <time>2022-05-15T11:53:59Z</time>
      </trkpt>
      <trkpt lat="47.24" lon="4.95411">
        <ele>456</ele>
        <time>2022-05-15T11:54:00Z</time>
      </trkpt>
      <trkpt lat="47.23999" lon="4.95412">
        <ele>456</ele>
        <time>2022-05-15T11:54:01Z</time>
      </trkpt>
      <trkpt lat="47.23998" lon="4.95413">
        <ele>457</ele>
        <time>2022-05-15T11:54:02Z</time>
      </trkpt>
      <trkpt lat="47.23998" lon="4.95413">
        <ele>457</ele>
        <time>2022-05-15T11:54:03Z</time>
      </trkpt>
      <trkpt lat="47.23997" lon="4.95414">
        <ele>457</ele>
        <time>2022-05-15T11:54:04Z</time>
      </trkpt>
      <trkpt lat="47.23995" lon="4.95414">
        <ele>457</ele>
        <time>2022-05-15T11:54:06Z</time>
      </trkpt>
      <trkpt lat="47.23994" lon="4.95415">
        <ele>457</ele>
        <time>2022-05-15T11:54:07Z</time>
      </trkpt>
      <trkpt lat="47.23993" lon="4.95417">
        <ele>457</ele>
        <time>2022-05-15T11:54:09Z</time>
      </trkpt>
      <trkpt lat="47.23991" lon="4.95418">
        <ele>457</ele>
        <time>2022-05-15T11:54:11Z</time>
      </trkpt>
      <trkpt lat="47.2399" lon="4.95419">
        <ele>457</ele>
        <time>2022-05-15T11:54:12Z</time>
      </trkpt>
      <trkpt lat="47.23989" lon="4.95421">
        <ele>458</ele>
        <time>2022-05-15T11:54:14Z</time>
      </trkpt>
      <trkpt lat="47.23989" lon="4.95422">
        <ele>458</ele>
        <time>2022-05-15T11:54:15Z</time>
      </trkpt>
      <trkpt lat="47.23988" lon="4.95423">
        <ele>458</ele>
        <time>2022-05-15T11:54:16Z</time>
      </trkpt>
      <trkpt lat="47.23987" lon="4.95424">
        <ele>458</ele>
        <time>2022-05-15T11:54:17Z</time>
      </trkpt>
      <trkpt lat="47.23986" lon="4.95425">
        <ele>459</ele>
        <time>2022-05-15T11:54:18Z</time>
      </trkpt>
      <trkpt lat="47.23985" lon="4.95426">
        <ele>459</ele>
        <time>2022-05-15T11:54:19Z</time>
      </trkpt>
      <trkpt lat="47.23984" lon="4.95428">
        <ele>459</ele>
        <time>2022-05-15T11:54:21Z</time>
      </trkpt>
      <trkpt lat="47.23983" lon="4.95429">
        <ele>459</ele>
        <time>2022-05-15T11:54:22Z</time>
      </trkpt>
      <trkpt lat="47.23982" lon="4.95429">
        <ele>458</ele>
        <time>2022-05-15T11:54:23Z</time>
      </trkpt>
      <trkpt lat="47.23981" lon="4.9543">
        <ele>458</ele>
        <time>2022-05-15T11:54:25Z</time>
      </trkpt>
      <trkpt lat="47.2398" lon="4.95431">
        <ele>458</ele>
        <time>2022-05-15T11:54:29Z</time>
      </trkpt>
      <trkpt lat="47.23981" lon="4.95429">
        <ele>458</ele>
        <time>2022-05-15T11:54:31Z</time>
      </trkpt>
      <trkpt lat="47.23982" lon="4.95428">
        <ele>459</ele>
        <time>2022-05-15T11:54:32Z</time>
      </trkpt>
      <trkpt lat="47.23982" lon="4.95426">
        <ele>459</ele>
        <time>2022-05-15T11:54:33Z</time>
      </trkpt>
      <trkpt lat="47.23983" lon="4.95425">
        <ele>458</ele>
        <time>2022-05-15T11:54:34Z</time>
      </trkpt>
      <trkpt lat="47.23984" lon="4.95423">
        <ele>459</ele>
        <time>2022-05-15T11:54:35Z</time>
      </trkpt>
      <trkpt lat="47.23984" lon="4.95422">
        <ele>457</ele>
        <time>2022-05-15T11:54:36Z</time>
      </trkpt>
      <trkpt lat="47.23985" lon="4.95421">
        <ele>458</ele>
        <time>2022-05-15T11:54:37Z</time>
      </trkpt>
      <trkpt lat="47.23986" lon="4.9542">
        <ele>459</ele>
        <time>2022-05-15T11:54:38Z</time>
      </trkpt>
      <trkpt lat="47.23986" lon="4.95419">
        <ele>459</ele>
        <time>2022-05-15T11:54:39Z</time>
      </trkpt>
      <trkpt lat="47.23987" lon="4.95418">
        <ele>459</ele>
        <time>2022-05-15T11:54:40Z</time>
      </trkpt>
      <trkpt lat="47.23987" lon="4.95415">
        <ele>458</ele>
        <time>2022-05-15T11:54:42Z</time>
      </trkpt>
      <trkpt lat="47.23986" lon="4.95415">
        <ele>458</ele>
        <time>2022-05-15T11:54:45Z</time>
      </trkpt>
      <trkpt lat="47.23985" lon="4.95415">
        <ele>457</ele>
        <time>2022-05-15T11:54:51Z</time>
      </trkpt>
      <trkpt lat="47.23984" lon="4.95413">
        <ele>457</ele>
        <time>2022-05-15T11:54:53Z</time>
      </trkpt>
      <trkpt lat="47.23983" lon="4.95412">
        <ele>457</ele>
        <time>2022-05-15T11:54:54Z</time>
      </trkpt>
      <trkpt lat="47.23982" lon="4.95411">
        <ele>457</ele>
        <time>2022-05-15T11:54:56Z</time>
      </trkpt>
      <trkpt lat="47.23981" lon="4.95411">
        <ele>458</ele>
        <time>2022-05-15T11:54:57Z</time>
      </trkpt>
      <trkpt lat="47.2398" lon="4.9541">
        <ele>457</ele>
        <time>2022-05-15T11:54:58Z</time>
      </trkpt>
      <trkpt lat="47.23979" lon="4.9541">
        <ele>457</ele>
        <time>2022-05-15T11:54:59Z</time>
      </trkpt>
      <trkpt lat="47.23977" lon="4.9541">
        <ele>457</ele>
        <time>2022-05-15T11:55:01Z</time>
      </trkpt>
      <trkpt lat="47.23975" lon="4.95409">
        <ele>457</ele>
        <time>2022-05-15T11:55:03Z</time>
      </trkpt>
      <trkpt lat="47.23974" lon="4.95409">
        <ele>457</ele>
        <time>2022-05-15T11:55:04Z</time>
      </trkpt>
      <trkpt lat="47.23972" lon="4.95409">
        <ele>456</ele>
        <time>2022-05-15T11:55:05Z</time>
      </trkpt>
      <trkpt lat="47.23971" lon="4.95409">
        <ele>457</ele>
        <time>2022-05-15T11:55:06Z</time>
      </trkpt>
      <trkpt lat="47.2397" lon="4.95409">
        <ele>457</ele>
        <time>2022-05-15T11:55:07Z</time>
      </trkpt>
      <trkpt lat="47.23969" lon="4.95409">
        <ele>457</ele>
        <time>2022-05-15T11:55:08Z</time>
      </trkpt>
      <trkpt lat="47.23968" lon="4.95409">
        <ele>456</ele>
        <time>2022-05-15T11:55:09Z</time>
      </trkpt>
      <trkpt lat="47.23967" lon="4.95409">
        <ele>456</ele>
        <time>2022-05-15T11:55:10Z</time>
      </trkpt>
      <trkpt lat="47.23966" lon="4.95408">
        <ele>457</ele>
        <time>2022-05-15T11:55:12Z</time>
      </trkpt>
      <trkpt lat="47.23964" lon="4.95409">
        <ele>457</ele>
        <time>2022-05-15T11:55:22Z</time>
      </trkpt>
      <trkpt lat="47.23962" lon="4.95409">
        <ele>456</ele>
        <time>2022-05-15T11:55:24Z</time>
      </trkpt>
      <trkpt lat="47.23961" lon="4.95409">
        <ele>456</ele>
        <time>2022-05-15T11:55:25Z</time>
      </trkpt>
      <trkpt lat="47.23959" lon="4.95408">
        <ele>456</ele>
        <time>2022-05-15T11:55:27Z</time>
      </trkpt>
      <trkpt lat="47.23958" lon="4.95408">
        <ele>456</ele>
        <time>2022-05-15T11:55:29Z</time>
      </trkpt>
      <trkpt lat="47.23957" lon="4.95408">
        <ele>456</ele>
        <time>2022-05-15T11:55:30Z</time>
      </trkpt>
      <trkpt lat="47.23955" lon="4.95407">
        <ele>456</ele>
        <time>2022-05-15T11:55:31Z</time>
      </trkpt>
      <trkpt lat="47.23954" lon="4.95407">
        <ele>456</ele>
        <time>2022-05-15T11:55:33Z</time>
      </trkpt>
      <trkpt lat="47.23953" lon="4.95407">
        <ele>456</ele>
        <time>2022-05-15T11:55:35Z</time>
      </trkpt>
      <trkpt lat="47.23954" lon="4.95406">
        <ele>458</ele>
        <time>2022-05-15T11:55:39Z</time>
      </trkpt>
      <trkpt lat="47.23953" lon="4.95406">
        <ele>460</ele>
        <time>2022-05-15T11:55:47Z</time>
      </trkpt>
      <trkpt lat="47.23952" lon="4.95406">
        <ele>460</ele>
        <time>2022-05-15T11:55:48Z</time>
      </trkpt>
      <trkpt lat="47.23951" lon="4.95406">
        <ele>460</ele>
        <time>2022-05-15T11:55:49Z</time>
      </trkpt>
      <trkpt lat="47.2395" lon="4.95406">
        <ele>460</ele>
        <time>2022-05-15T11:55:50Z</time>
      </trkpt>
      <trkpt lat="47.23949" lon="4.95406">
        <ele>459</ele>
        <time>2022-05-15T11:55:57Z</time>
      </trkpt>
      <trkpt lat="47.23947" lon="4.95406">
        <ele>459</ele>
        <time>2022-05-15T11:56:01Z</time>
      </trkpt>
      <trkpt lat="47.23946" lon="4.95405">
        <ele>458</ele>
        <time>2022-05-15T11:56:02Z</time>
      </trkpt>
      <trkpt lat="47.23945" lon="4.95406">
        <ele>458</ele>
        <time>2022-05-15T11:56:03Z</time>
      </trkpt>
      <trkpt lat="47.23944" lon="4.95406">
        <ele>458</ele>
        <time>2022-05-15T11:56:06Z</time>
      </trkpt>
      <trkpt lat="47.23944" lon="4.95407">
        <ele>458</ele>
        <time>2022-05-15T11:56:18Z</time>
      </trkpt>
      <trkpt lat="47.23946" lon="4.95406">
        <ele>458</ele>
        <time>2022-05-15T11:56:20Z</time>
      </trkpt>
      <trkpt lat="47.23948" lon="4.95407">
        <ele>457</ele>
        <time>2022-05-15T11:56:22Z</time>
      </trkpt>
      <trkpt lat="47.23949" lon="4.95408">
        <ele>457</ele>
        <time>2022-05-15T11:56:23Z</time>
      </trkpt>
      <trkpt lat="47.2395" lon="4.95408">
        <ele>456</ele>
        <time>2022-05-15T11:56:24Z</time>
      </trkpt>
      <trkpt lat="47.23951" lon="4.95409">
        <ele>456</ele>
        <time>2022-05-15T11:56:25Z</time>
      </trkpt>
      <trkpt lat="47.23951" lon="4.95408">
        <ele>459</ele>
        <time>2022-05-15T11:56:33Z</time>
      </trkpt>
      <trkpt lat="47.23953" lon="4.95407">
        <ele>458</ele>
        <time>2022-05-15T11:56:35Z</time>
      </trkpt>
      <trkpt lat="47.23954" lon="4.95406">
        <ele>458</ele>
        <time>2022-05-15T11:56:36Z</time>
      </trkpt>
      <trkpt lat="47.23955" lon="4.95407">
        <ele>458</ele>
        <time>2022-05-15T11:56:37Z</time>
      </trkpt>
      <trkpt lat="47.23956" lon="4.95407">
        <ele>459</ele>
        <time>2022-05-15T11:56:39Z</time>
      </trkpt>
      <trkpt lat="47.23957" lon="4.95407">
        <ele>459</ele>
        <time>2022-05-15T11:56:40Z</time>
      </trkpt>
      <trkpt lat="47.23958" lon="4.95407">
        <ele>459</ele>
        <time>2022-05-15T11:56:41Z</time>
      </trkpt>
      <trkpt lat="47.2396" lon="4.95408">
        <ele>460</ele>
        <time>2022-05-15T11:56:43Z</time>
      </trkpt>
      <trkpt lat="47.23961" lon="4.95408">
        <ele>460</ele>
        <time>2022-05-15T11:56:45Z</time>
      </trkpt>
      <trkpt lat="47.23962" lon="4.95408">
        <ele>460</ele>
        <time>2022-05-15T11:56:46Z</time>
      </trkpt>
      <trkpt lat="47.23963" lon="4.95409">
        <ele>459</ele>
        <time>2022-05-15T11:56:47Z</time>
      </trkpt>
      <trkpt lat="47.23965" lon="4.95409">
        <ele>459</ele>
        <time>2022-05-15T11:56:48Z</time>
      </trkpt>
      <trkpt lat="47.23966" lon="4.9541">
        <ele>459</ele>
        <time>2022-05-15T11:56:49Z</time>
      </trkpt>
      <trkpt lat="47.23967" lon="4.9541">
        <ele>459</ele>
        <time>2022-05-15T11:56:50Z</time>
      </trkpt>
      <trkpt lat="47.23968" lon="4.9541">
        <ele>459</ele>
        <time>2022-05-15T11:56:51Z</time>
      </trkpt>
      <trkpt lat="47.23969" lon="4.9541">
        <ele>459</ele>
        <time>2022-05-15T11:56:52Z</time>
      </trkpt>
      <trkpt lat="47.2397" lon="4.9541">
        <ele>459</ele>
        <time>2022-05-15T11:56:53Z</time>
      </trkpt>
      <trkpt lat="47.23972" lon="4.9541">
        <ele>460</ele>
        <time>2022-05-15T11:56:55Z</time>
      </trkpt>
      <trkpt lat="47.23973" lon="4.9541">
        <ele>460</ele>
        <time>2022-05-15T11:56:57Z</time>
      </trkpt>
      <trkpt lat="47.23975" lon="4.9541">
        <ele>459</ele>
        <time>2022-05-15T11:56:59Z</time>
      </trkpt>
      <trkpt lat="47.23976" lon="4.9541">
        <ele>459</ele>
        <time>2022-05-15T11:57:00Z</time>
      </trkpt>
      <trkpt lat="47.23977" lon="4.95411">
        <ele>460</ele>
        <time>2022-05-15T11:57:02Z</time>
      </trkpt>
      <trkpt lat="47.23978" lon="4.9541">
        <ele>460</ele>
        <time>2022-05-15T11:57:05Z</time>
      </trkpt>
      <trkpt lat="47.23979" lon="4.95411">
        <ele>460</ele>
        <time>2022-05-15T11:57:08Z</time>
      </trkpt>
      <trkpt lat="47.2398" lon="4.95412">
        <ele>460</ele>
        <time>2022-05-15T11:57:10Z</time>
      </trkpt>
      <trkpt lat="47.23981" lon="4.95414">
        <ele>460</ele>
        <time>2022-05-15T11:57:13Z</time>
      </trkpt>
      <trkpt lat="47.23982" lon="4.95415">
        <ele>460</ele>
        <time>2022-05-15T11:57:15Z</time>
      </trkpt>
      <trkpt lat="47.23983" lon="4.95416">
        <ele>460</ele>
        <time>2022-05-15T11:57:17Z</time>
      </trkpt>
      <trkpt lat="47.23984" lon="4.95417">
        <ele>459</ele>
        <time>2022-05-15T11:57:18Z</time>
      </trkpt>
      <trkpt lat="47.23984" lon="4.95419">
        <ele>458</ele>
        <time>2022-05-15T11:57:19Z</time>
      </trkpt>
      <trkpt lat="47.23984" lon="4.9542">
        <ele>459</ele>
        <time>2022-05-15T11:57:20Z</time>
      </trkpt>
      <trkpt lat="47.23983" lon="4.95422">
        <ele>458</ele>
        <time>2022-05-15T11:57:21Z</time>
      </trkpt>
      <trkpt lat="47.23982" lon="4.95424">
        <ele>458</ele>
        <time>2022-05-15T11:57:23Z</time>
      </trkpt>
      <trkpt lat="47.23981" lon="4.95425">
        <ele>458</ele>
        <time>2022-05-15T11:57:24Z</time>
      </trkpt>
      <trkpt lat="47.2398" lon="4.95426">
        <ele>457</ele>
        <time>2022-05-15T11:57:25Z</time>
      </trkpt>
      <trkpt lat="47.23979" lon="4.95428">
        <ele>458</ele>
        <time>2022-05-15T11:57:27Z</time>
      </trkpt>
      <trkpt lat="47.23977" lon="4.9543">
        <ele>457</ele>
        <time>2022-05-15T11:57:29Z</time>
      </trkpt>
      <trkpt lat="47.23977" lon="4.95432">
        <ele>457</ele>
        <time>2022-05-15T11:57:31Z</time>
      </trkpt>
      <trkpt lat="47.23976" lon="4.95433">
        <ele>458</ele>
        <time>2022-05-15T11:57:32Z</time>
      </trkpt>
      <trkpt lat="47.23975" lon="4.95434">
        <ele>457</ele>
        <time>2022-05-15T11:57:33Z</time>
      </trkpt>
      <trkpt lat="47.23974" lon="4.95435">
        <ele>457</ele>
        <time>2022-05-15T11:57:35Z</time>
      </trkpt>
      <trkpt lat="47.23974" lon="4.95437">
        <ele>457</ele>
        <time>2022-05-15T11:57:37Z</time>
      </trkpt>
      <trkpt lat="47.23973" lon="4.95438">
        <ele>456</ele>
        <time>2022-05-15T11:57:39Z</time>
      </trkpt>
      <trkpt lat="47.23972" lon="4.95439">
        <ele>457</ele>
        <time>2022-05-15T11:57:40Z</time>
      </trkpt>
      <trkpt lat="47.23971" lon="4.9544">
        <ele>458</ele>
        <time>2022-05-15T11:57:41Z</time>
      </trkpt>
      <trkpt lat="47.2397" lon="4.9544">
        <ele>459</ele>
        <time>2022-05-15T11:57:42Z</time>
      </trkpt>
      <trkpt lat="47.23968" lon="4.95441">
        <ele>459</ele>
        <time>2022-05-15T11:57:44Z</time>
      </trkpt>
      <trkpt lat="47.23967" lon="4.95443">
        <ele>464</ele>
        <time>2022-05-15T11:57:46Z</time>
      </trkpt>
      <trkpt lat="47.23966" lon="4.95445">
        <ele>463</ele>
        <time>2022-05-15T11:57:48Z</time>
      </trkpt>
      <trkpt lat="47.23965" lon="4.95446">
        <ele>461</ele>
        <time>2022-05-15T11:57:49Z</time>
      </trkpt>
      <trkpt lat="47.23963" lon="4.95448">
        <ele>460</ele>
        <time>2022-05-15T11:57:50Z</time>
      </trkpt>
      <trkpt lat="47.23962" lon="4.95449">
        <ele>460</ele>
        <time>2022-05-15T11:57:51Z</time>
      </trkpt>
      <trkpt lat="47.2396" lon="4.95451">
        <ele>459</ele>
        <time>2022-05-15T11:57:52Z</time>
      </trkpt>
      <trkpt lat="47.23959" lon="4.95452">
        <ele>459</ele>
        <time>2022-05-15T11:57:53Z</time>
      </trkpt>
      <trkpt lat="47.23959" lon="4.95454">
        <ele>459</ele>
        <time>2022-05-15T11:57:54Z</time>
      </trkpt>
      <trkpt lat="47.23959" lon="4.95455">
        <ele>458</ele>
        <time>2022-05-15T11:57:55Z</time>
      </trkpt>
      <trkpt lat="47.23959" lon="4.95457">
        <ele>458</ele>
        <time>2022-05-15T11:57:56Z</time>
      </trkpt>
      <trkpt lat="47.23958" lon="4.95459">
        <ele>457</ele>
        <time>2022-05-15T11:57:58Z</time>
      </trkpt>
      <trkpt lat="47.23958" lon="4.9546">
        <ele>456</ele>
        <time>2022-05-15T11:57:59Z</time>
      </trkpt>
      <trkpt lat="47.23957" lon="4.95461">
        <ele>456</ele>
        <time>2022-05-15T11:58:00Z</time>
      </trkpt>
      <trkpt lat="47.23956" lon="4.95462">
        <ele>457</ele>
        <time>2022-05-15T11:58:01Z</time>
      </trkpt>
      <trkpt lat="47.23956" lon="4.95463">
        <ele>457</ele>
        <time>2022-05-15T11:58:02Z</time>
      </trkpt>
      <trkpt lat="47.23955" lon="4.95464">
        <ele>457</ele>
        <time>2022-05-15T11:58:03Z</time>
      </trkpt>
      <trkpt lat="47.23954" lon="4.95465">
        <ele>458</ele>
        <time>2022-05-15T11:58:05Z</time>
      </trkpt>
      <trkpt lat="47.23954" lon="4.95467">
        <ele>461</ele>
        <time>2022-05-15T11:58:07Z</time>
      </trkpt>
      <trkpt lat="47.23953" lon="4.95469">
        <ele>460</ele>
        <time>2022-05-15T11:58:08Z</time>
      </trkpt>
      <trkpt lat="47.23952" lon="4.9547">
        <ele>459</ele>
        <time>2022-05-15T11:58:09Z</time>
      </trkpt>
      <trkpt lat="47.23952" lon="4.95471">
        <ele>458</ele>
        <time>2022-05-15T11:58:10Z</time>
      </trkpt>
      <trkpt lat="47.23951" lon="4.95472">
        <ele>458</ele>
        <time>2022-05-15T11:58:11Z</time>
      </trkpt>
      <trkpt lat="47.2395" lon="4.95473">
        <ele>459</ele>
        <time>2022-05-15T11:58:12Z</time>
      </trkpt>
      <trkpt lat="47.23949" lon="4.95475">
        <ele>460</ele>
        <time>2022-05-15T11:58:14Z</time>
      </trkpt>
      <trkpt lat="47.23949" lon="4.95477">
        <ele>461</ele>
        <time>2022-05-15T11:58:15Z</time>
      </trkpt>
      <trkpt lat="47.23947" lon="4.9548">
        <ele>461</ele>
        <time>2022-05-15T11:58:17Z</time>
      </trkpt>
      <trkpt lat="47.23946" lon="4.95481">
        <ele>461</ele>
        <time>2022-05-15T11:58:19Z</time>
      </trkpt>
      <trkpt lat="47.23944" lon="4.95482">
        <ele>461</ele>
        <time>2022-05-15T11:58:21Z</time>
      </trkpt>
      <trkpt lat="47.23943" lon="4.95482">
        <ele>461</ele>
        <time>2022-05-15T11:58:22Z</time>
      </trkpt>
      <trkpt lat="47.23942" lon="4.95483">
        <ele>462</ele>
        <time>2022-05-15T11:58:23Z</time>
      </trkpt>
      <trkpt lat="47.23941" lon="4.95484">
        <ele>460</ele>
        <time>2022-05-15T11:58:24Z</time>
      </trkpt>
      <trkpt lat="47.2394" lon="4.95485">
        <ele>459</ele>
        <time>2022-05-15T11:58:25Z</time>
      </trkpt>
      <trkpt lat="47.23939" lon="4.95486">
        <ele>459</ele>
        <time>2022-05-15T11:58:26Z</time>
      </trkpt>
      <trkpt lat="47.23939" lon="4.95487">
        <ele>460</ele>
        <time>2022-05-15T11:58:27Z</time>
      </trkpt>
      <trkpt lat="47.23937" lon="4.95489">
        <ele>458</ele>
        <time>2022-05-15T11:58:29Z</time>
      </trkpt>
      <trkpt lat="47.23936" lon="4.9549">
        <ele>458</ele>
        <time>2022-05-15T11:58:30Z</time>
      </trkpt>
      <trkpt lat="47.23934" lon="4.95491">
        <ele>459</ele>
        <time>2022-05-15T11:58:32Z</time>
      </trkpt>
      <trkpt lat="47.23932" lon="4.95492">
        <ele>459</ele>
        <time>2022-05-15T11:58:33Z</time>
      </trkpt>
      <trkpt lat="47.2393" lon="4.95493">
        <ele>457</ele>
        <time>2022-05-15T11:58:34Z</time>
      </trkpt>
      <trkpt lat="47.23929" lon="4.95494">
        <ele>457</ele>
        <time>2022-05-15T11:58:35Z</time>
      </trkpt>
      <trkpt lat="47.23927" lon="4.95495">
        <ele>458</ele>
        <time>2022-05-15T11:58:36Z</time>
      </trkpt>
      <trkpt lat="47.23925" lon="4.95495">
        <ele>456</ele>
        <time>2022-05-15T11:58:37Z</time>
      </trkpt>
      <trkpt lat="47.23923" lon="4.95496">
        <ele>456</ele>
        <time>2022-05-15T11:58:38Z</time>
      </trkpt>
      <trkpt lat="47.23922" lon="4.95496">
        <ele>454</ele>
        <time>2022-05-15T11:58:39Z</time>
      </trkpt>
      <trkpt lat="47.2392" lon="4.95497">
        <ele>455</ele>
        <time>2022-05-15T11:58:40Z</time>
      </trkpt>
      <trkpt lat="47.23919" lon="4.95497">
        <ele>456</ele>
        <time>2022-05-15T11:58:41Z</time>
      </trkpt>
      <trkpt lat="47.23917" lon="4.95498">
        <ele>456</ele>
        <time>2022-05-15T11:58:42Z</time>
      </trkpt>
      <trkpt lat="47.23916" lon="4.95498">
        <ele>456</ele>
        <time>2022-05-15T11:58:43Z</time>
      </trkpt>
      <trkpt lat="47.23915" lon="4.95499">
        <ele>456</ele>
        <time>2022-05-15T11:58:44Z</time>
      </trkpt>
      <trkpt lat="47.23914" lon="4.95499">
        <ele>455</ele>
        <time>2022-05-15T11:58:45Z</time>
      </trkpt>
      <trkpt lat="47.23913" lon="4.955">
        <ele>456</ele>
        <time>2022-05-15T11:58:46Z</time>
      </trkpt>
      <trkpt lat="47.23912" lon="4.955">
        <ele>457</ele>
        <time>2022-05-15T11:58:47Z</time>
      </trkpt>
      <trkpt lat="47.23911" lon="4.95501">
        <ele>457</ele>
        <time>2022-05-15T11:58:48Z</time>
      </trkpt>
      <trkpt lat="47.2391" lon="4.95502">
        <ele>456</ele>
        <time>2022-05-15T11:58:49Z</time>
      </trkpt>
      <trkpt lat="47.23909" lon="4.95502">
        <ele>455</ele>
        <time>2022-05-15T11:58:50Z</time>
      </trkpt>
      <trkpt lat="47.23908" lon="4.95503">
        <ele>455</ele>
        <time>2022-05-15T11:58:51Z</time>
      </trkpt>
      <trkpt lat="47.23907" lon="4.95504">
        <ele>455</ele>
        <time>2022-05-15T11:58:52Z</time>
      </trkpt>
      <trkpt lat="47.23906" lon="4.95505">
        <ele>456</ele>
        <time>2022-05-15T11:58:53Z</time>
      </trkpt>
      <trkpt lat="47.23904" lon="4.95506">
        <ele>455</ele>
        <time>2022-05-15T11:58:54Z</time>
      </trkpt>
      <trkpt lat="47.23904" lon="4.95506">
        <ele>455</ele>
        <time>2022-05-15T11:58:55Z</time>
      </trkpt>
      <trkpt lat="47.23902" lon="4.95508">
        <ele>455</ele>
        <time>2022-05-15T11:58:57Z</time>
      </trkpt>
      <trkpt lat="47.23902" lon="4.95509">
        <ele>455</ele>
        <time>2022-05-15T11:58:58Z</time>
      </trkpt>
      <trkpt lat="47.239" lon="4.9551">
        <ele>456</ele>
        <time>2022-05-15T11:59:00Z</time>
      </trkpt>
      <trkpt lat="47.23899" lon="4.95512">
        <ele>455</ele>
        <time>2022-05-15T11:59:02Z</time>
      </trkpt>
      <trkpt lat="47.23898" lon="4.95514">
        <ele>455</ele>
        <time>2022-05-15T11:59:04Z</time>
      </trkpt>
      <trkpt lat="47.23897" lon="4.95515">
        <ele>455</ele>
        <time>2022-05-15T11:59:05Z</time>
      </trkpt>
      <trkpt lat="47.23895" lon="4.95516">
        <ele>456</ele>
        <time>2022-05-15T11:59:07Z</time>
      </trkpt>
      <trkpt lat="47.23894" lon="4.95517">
        <ele>455</ele>
        <time>2022-05-15T11:59:09Z</time>
      </trkpt>
      <trkpt lat="47.23893" lon="4.95518">
        <ele>456</ele>
        <time>2022-05-15T11:59:11Z</time>
      </trkpt>
      <trkpt lat="47.23892" lon="4.95518">
        <ele>455</ele>
        <time>2022-05-15T11:59:12Z</time>
      </trkpt>
      <trkpt lat="47.23891" lon="4.95519">
        <ele>456</ele>
        <time>2022-05-15T11:59:13Z</time>
      </trkpt>
      <trkpt lat="47.2389" lon="4.9552">
        <ele>455</ele>
        <time>2022-05-15T11:59:14Z</time>
      </trkpt>
      <trkpt lat="47.2389" lon="4.95521">
        <ele>455</ele>
        <time>2022-05-15T11:59:15Z</time>
      </trkpt>
      <trkpt lat="47.23889" lon="4.95522">
        <ele>455</ele>
        <time>2022-05-15T11:59:16Z</time>
      </trkpt>
      <trkpt lat="47.23887" lon="4.95524">
        <ele>454</ele>
        <time>2022-05-15T11:59:18Z</time>
      </trkpt>
      <trkpt lat="47.23886" lon="4.95525">
        <ele>454</ele>
        <time>2022-05-15T11:59:19Z</time>
      </trkpt>
      <trkpt lat="47.23885" lon="4.95526">
        <ele>453</ele>
        <time>2022-05-15T11:59:20Z</time>
      </trkpt>
      <trkpt lat="47.23884" lon="4.95526">
        <ele>454</ele>
        <time>2022-05-15T11:59:21Z</time>
      </trkpt>
      <trkpt lat="47.23883" lon="4.95527">
        <ele>454</ele>
        <time>2022-05-15T11:59:22Z</time>
      </trkpt>
      <trkpt lat="47.23882" lon="4.95528">
        <ele>454</ele>
        <time>2022-05-15T11:59:23Z</time>
      </trkpt>
      <trkpt lat="47.2388" lon="4.95529">
        <ele>453</ele>
        <time>2022-05-15T11:59:24Z</time>
      </trkpt>
      <trkpt lat="47.23879" lon="4.95529">
        <ele>453</ele>
        <time>2022-05-15T11:59:25Z</time>
      </trkpt>
      <trkpt lat="47.23878" lon="4.9553">
        <ele>454</ele>
        <time>2022-05-15T11:59:26Z</time>
      </trkpt>
      <trkpt lat="47.23877" lon="4.95531">
        <ele>453</ele>
        <time>2022-05-15T11:59:27Z</time>
      </trkpt>
      <trkpt lat="47.23876" lon="4.95532">
        <ele>453</ele>
        <time>2022-05-15T11:59:28Z</time>
      </trkpt>
      <trkpt lat="47.23875" lon="4.95533">
        <ele>453</ele>
        <time>2022-05-15T11:59:29Z</time>
      </trkpt>
      <trkpt lat="47.23874" lon="4.95533">
        <ele>453</ele>
        <time>2022-05-15T11:59:31Z</time>
      </trkpt>
      <trkpt lat="47.23873" lon="4.95534">
        <ele>453</ele>
        <time>2022-05-15T11:59:32Z</time>
      </trkpt>
      <trkpt lat="47.23872" lon="4.95534">
        <ele>453</ele>
        <time>2022-05-15T11:59:33Z</time>
      </trkpt>
      <trkpt lat="47.23871" lon="4.95534">
        <ele>453</ele>
        <time>2022-05-15T11:59:34Z</time>
      </trkpt>
      <trkpt lat="47.2387" lon="4.95535">
        <ele>452</ele>
        <time>2022-05-15T11:59:35Z</time>
      </trkpt>
      <trkpt lat="47.23868" lon="4.95535">
        <ele>452</ele>
        <time>2022-05-15T11:59:36Z</time>
      </trkpt>
      <trkpt lat="47.23867" lon="4.95536">
        <ele>452</ele>
        <time>2022-05-15T11:59:37Z</time>
      </trkpt>
      <trkpt lat="47.23866" lon="4.95537">
        <ele>452</ele>
        <time>2022-05-15T11:59:38Z</time>
      </trkpt>
      <trkpt lat="47.23865" lon="4.95538">
        <ele>451</ele>
        <time>2022-05-15T11:59:39Z</time>
      </trkpt>
      <trkpt lat="47.23864" lon="4.95539">
        <ele>451</ele>
        <time>2022-05-15T11:59:40Z</time>
      </trkpt>
      <trkpt lat="47.23863" lon="4.95539">
        <ele>452</ele>
        <time>2022-05-15T11:59:41Z</time>
      </trkpt>
      <trkpt lat="47.23862" lon="4.9554">
        <ele>452</ele>
        <time>2022-05-15T11:59:42Z</time>
      </trkpt>
      <trkpt lat="47.23861" lon="4.9554">
        <ele>452</ele>
        <time>2022-05-15T11:59:43Z</time>
      </trkpt>
      <trkpt lat="47.2386" lon="4.95541">
        <ele>453</ele>
        <time>2022-05-15T11:59:44Z</time>
      </trkpt>
      <trkpt lat="47.23859" lon="4.95541">
        <ele>453</ele>
        <time>2022-05-15T11:59:47Z</time>
      </trkpt>
      <trkpt lat="47.23857" lon="4.95543">
        <ele>452</ele>
        <time>2022-05-15T11:59:49Z</time>
      </trkpt>
      <trkpt lat="47.23856" lon="4.95543">
        <ele>452</ele>
        <time>2022-05-15T11:59:50Z</time>
      </trkpt>
      <trkpt lat="47.23854" lon="4.95544">
        <ele>453</ele>
        <time>2022-05-15T11:59:51Z</time>
      </trkpt>
      <trkpt lat="47.23853" lon="4.95545">
        <ele>455</ele>
        <time>2022-05-15T11:59:52Z</time>
      </trkpt>
      <trkpt lat="47.23852" lon="4.95545">
        <ele>455</ele>
        <time>2022-05-15T11:59:53Z</time>
      </trkpt>
      <trkpt lat="47.23851" lon="4.95546">
        <ele>455</ele>
        <time>2022-05-15T11:59:54Z</time>
      </trkpt>
      <trkpt lat="47.2385" lon="4.95548">
        <ele>455</ele>
        <time>2022-05-15T11:59:55Z</time>
      </trkpt>
      <trkpt lat="47.23849" lon="4.95549">
        <ele>455</ele>
        <time>2022-05-15T11:59:56Z</time>
      </trkpt>
      <trkpt lat="47.23848" lon="4.9555">
        <ele>455</ele>
        <time>2022-05-15T11:59:57Z</time>
      </trkpt>
      <trkpt lat="47.23847" lon="4.95551">
        <ele>455</ele>
        <time>2022-05-15T11:59:58Z</time>
      </trkpt>
      <trkpt lat="47.23846" lon="4.95552">
        <ele>454</ele>
        <time>2022-05-15T11:59:59Z</time>
      </trkpt>
      <trkpt lat="47.23845" lon="4.95552">
        <ele>454</ele>
        <time>2022-05-15T12:00:00Z</time>
      </trkpt>
      <trkpt lat="47.23844" lon="4.95552">
        <ele>453</ele>
        <time>2022-05-15T12:00:01Z</time>
      </trkpt>
      <trkpt lat="47.23843" lon="4.95552">
        <ele>453</ele>
        <time>2022-05-15T12:00:02Z</time>
      </trkpt>
      <trkpt lat="47.23841" lon="4.95552">
        <ele>453</ele>
        <time>2022-05-15T12:00:03Z</time>
      </trkpt>
      <trkpt lat="47.2384" lon="4.95552">
        <ele>452</ele>
        <time>2022-05-15T12:00:04Z</time>
      </trkpt>
      <trkpt lat="47.23839" lon="4.95552">
        <ele>452</ele>
        <time>2022-05-15T12:00:05Z</time>
      </trkpt>
      <trkpt lat="47.23838" lon="4.95553">
        <ele>452</ele>
        <time>2022-05-15T12:00:06Z</time>
      </trkpt>
      <trkpt lat="47.23836" lon="4.95553">
        <ele>453</ele>
        <time>2022-05-15T12:00:08Z</time>
      </trkpt>
      <trkpt lat="47.23835" lon="4.95552">
        <ele>453</ele>
        <time>2022-05-15T12:00:09Z</time>
      </trkpt>
      <trkpt lat="47.23834" lon="4.95552">
        <ele>453</ele>
        <time>2022-05-15T12:00:10Z</time>
      </trkpt>
      <trkpt lat="47.23832" lon="4.95551">
        <ele>452</ele>
        <time>2022-05-15T12:00:11Z</time>
      </trkpt>
      <trkpt lat="47.23831" lon="4.95551">
        <ele>452</ele>
        <time>2022-05-15T12:00:12Z</time>
      </trkpt>
      <trkpt lat="47.2383" lon="4.95552">
        <ele>452</ele>
        <time>2022-05-15T12:00:13Z</time>
      </trkpt>
      <trkpt lat="47.23829" lon="4.95553">
        <ele>451</ele>
        <time>2022-05-15T12:00:14Z</time>
      </trkpt>
      <trkpt lat="47.23827" lon="4.95555">
        <ele>451</ele>
        <time>2022-05-15T12:00:15Z</time>
      </trkpt>
      <trkpt lat="47.23827" lon="4.95555">
        <ele>452</ele>
        <time>2022-05-15T12:00:16Z</time>
      </trkpt>
      <trkpt lat="47.23826" lon="4.95556">
        <ele>452</ele>
        <time>2022-05-15T12:00:17Z</time>
      </trkpt>
      <trkpt lat="47.23825" lon="4.95557">
        <ele>453</ele>
        <time>2022-05-15T12:00:18Z</time>
      </trkpt>
      <trkpt lat="47.23824" lon="4.95558">
        <ele>452</ele>
        <time>2022-05-15T12:00:19Z</time>
      </trkpt>
      <trkpt lat="47.23823" lon="4.95559">
        <ele>452</ele>
        <time>2022-05-15T12:00:20Z</time>
      </trkpt>
      <trkpt lat="47.23822" lon="4.9556">
        <ele>452</ele>
        <time>2022-05-15T12:00:21Z</time>
      </trkpt>
      <trkpt lat="47.23821" lon="4.95561">
        <ele>452</ele>
        <time>2022-05-15T12:00:22Z</time>
      </trkpt>
      <trkpt lat="47.2382" lon="4.95562">
        <ele>452</ele>
        <time>2022-05-15T12:00:23Z</time>
      </trkpt>
      <trkpt lat="47.23819" lon="4.95563">
        <ele>452</ele>
        <time>2022-05-15T12:00:24Z</time>
      </trkpt>
      <trkpt lat="47.23818" lon="4.95564">
        <ele>452</ele>
        <time>2022-05-15T12:00:25Z</time>
      </trkpt>
      <trkpt lat="47.23817" lon="4.95565">
        <ele>452</ele>
        <time>2022-05-15T12:00:26Z</time>
      </trkpt>
      <trkpt lat="47.23817" lon="4.95566">
        <ele>452</ele>
        <time>2022-05-15T12:00:27Z</time>
      </trkpt>
      <trkpt lat="47.23816" lon="4.95567">
        <ele>451</ele>
        <time>2022-05-15T12:00:28Z</time>
      </trkpt>
      <trkpt lat="47.23815" lon="4.95569">
        <ele>451</ele>
        <time>2022-05-15T12:00:29Z</time>
      </trkpt>
      <trkpt lat="47.23814" lon="4.9557">
        <ele>452</ele>
        <time>2022-05-15T12:00:31Z</time>
      </trkpt>
      <trkpt lat="47.23813" lon="4.95572">
        <ele>452</ele>
        <time>2022-05-15T12:00:32Z</time>
      </trkpt>
      <trkpt lat="47.23812" lon="4.95573">
        <ele>451</ele>
        <time>2022-05-15T12:00:33Z</time>
      </trkpt>
      <trkpt lat="47.23811" lon="4.95573">
        <ele>451</ele>
        <time>2022-05-15T12:00:34Z</time>
      </trkpt>
      <trkpt lat="47.2381" lon="4.95574">
        <ele>451</ele>
        <time>2022-05-15T12:00:35Z</time>
      </trkpt>
      <trkpt lat="47.23809" lon="4.95574">
        <ele>451</ele>
        <time>2022-05-15T12:00:36Z</time>
      </trkpt>
      <trkpt lat="47.23807" lon="4.95574">
        <ele>451</ele>
        <time>2022-05-15T12:00:37Z</time>
      </trkpt>
      <trkpt lat="47.23806" lon="4.95575">
        <ele>451</ele>
        <time>2022-05-15T12:00:38Z</time>
      </trkpt>
      <trkpt lat="47.23805" lon="4.95576">
        <ele>451</ele>
        <time>2022-05-15T12:00:39Z</time>
      </trkpt>
      <trkpt lat="47.23804" lon="4.95577">
        <ele>450</ele>
        <time>2022-05-15T12:00:40Z</time>
      </trkpt>
      <trkpt lat="47.23803" lon="4.95578">
        <ele>450</ele>
        <time>2022-05-15T12:00:41Z</time>
      </trkpt>
      <trkpt lat="47.23801" lon="4.95578">
        <ele>450</ele>
        <time>2022-05-15T12:00:42Z</time>
      </trkpt>
      <trkpt lat="47.23801" lon="4.95579">
        <ele>451</ele>
        <time>2022-05-15T12:00:43Z</time>
      </trkpt>
      <trkpt lat="47.238" lon="4.95579">
        <ele>454</ele>
        <time>2022-05-15T12:00:44Z</time>
      </trkpt>
      <trkpt lat="47.23798" lon="4.9558">
        <ele>453</ele>
        <time>2022-05-15T12:00:45Z</time>
      </trkpt>
      <trkpt lat="47.23797" lon="4.9558">
        <ele>452</ele>
        <time>2022-05-15T12:00:46Z</time>
      </trkpt>
      <trkpt lat="47.23797" lon="4.9558">
        <ele>452</ele>
        <time>2022-05-15T12:00:47Z</time>
      </trkpt>
      <trkpt lat="47.23795" lon="4.95581">
        <ele>452</ele>
        <time>2022-05-15T12:00:48Z</time>
      </trkpt>
      <trkpt lat="47.23794" lon="4.95581">
        <ele>452</ele>
        <time>2022-05-15T12:00:49Z</time>
      </trkpt>
      <trkpt lat="47.23793" lon="4.95582">
        <ele>451</ele>
        <time>2022-05-15T12:00:50Z</time>
      </trkpt>
      <trkpt lat="47.23792" lon="4.95582">
        <ele>451</ele>
        <time>2022-05-15T12:00:51Z</time>
      </trkpt>
      <trkpt lat="47.23791" lon="4.95583">
        <ele>451</ele>
        <time>2022-05-15T12:00:52Z</time>
      </trkpt>
      <trkpt lat="47.2379" lon="4.95584">
        <ele>451</ele>
        <time>2022-05-15T12:00:53Z</time>
      </trkpt>
      <trkpt lat="47.23789" lon="4.95584">
        <ele>451</ele>
        <time>2022-05-15T12:00:54Z</time>
      </trkpt>
      <trkpt lat="47.23788" lon="4.95585">
        <ele>451</ele>
        <time>2022-05-15T12:00:55Z</time>
      </trkpt>
      <trkpt lat="47.23786" lon="4.95585">
        <ele>450</ele>
        <time>2022-05-15T12:00:56Z</time>
      </trkpt>
      <trkpt lat="47.23785" lon="4.95586">
        <ele>450</ele>
        <time>2022-05-15T12:00:57Z</time>
      </trkpt>
      <trkpt lat="47.23784" lon="4.95586">
        <ele>450</ele>
        <time>2022-05-15T12:00:58Z</time>
      </trkpt>
      <trkpt lat="47.23783" lon="4.95587">
        <ele>450</ele>
        <time>2022-05-15T12:00:59Z</time>
      </trkpt>
      <trkpt lat="47.23782" lon="4.95587">
        <ele>451</ele>
        <time>2022-05-15T12:01:00Z</time>
      </trkpt>
      <trkpt lat="47.23781" lon="4.95588">
        <ele>451</ele>
        <time>2022-05-15T12:01:01Z</time>
      </trkpt>
      <trkpt lat="47.2378" lon="4.95588">
        <ele>452</ele>
        <time>2022-05-15T12:01:02Z</time>
      </trkpt>
      <trkpt lat="47.23779" lon="4.95589">
        <ele>452</ele>
        <time>2022-05-15T12:01:04Z</time>
      </trkpt>
      <trkpt lat="47.23778" lon="4.9559">
        <ele>452</ele>
        <time>2022-05-15T12:01:05Z</time>
      </trkpt>
      <trkpt lat="47.23777" lon="4.9559">
        <ele>452</ele>
        <time>2022-05-15T12:01:06Z</time>
      </trkpt>
      <trkpt lat="47.23775" lon="4.95591">
        <ele>452</ele>
        <time>2022-05-15T12:01:08Z</time>
      </trkpt>
      <trkpt lat="47.23773" lon="4.95591">
        <ele>453</ele>
        <time>2022-05-15T12:01:10Z</time>
      </trkpt>
      <trkpt lat="47.23771" lon="4.95591">
        <ele>453</ele>
        <time>2022-05-15T12:01:12Z</time>
      </trkpt>
      <trkpt lat="47.2377" lon="4.9559">
        <ele>454</ele>
        <time>2022-05-15T12:01:13Z</time>
      </trkpt>
      <trkpt lat="47.23769" lon="4.9559">
        <ele>453</ele>
        <time>2022-05-15T12:01:14Z</time>
      </trkpt>
      <trkpt lat="47.23768" lon="4.9559">
        <ele>453</ele>
        <time>2022-05-15T12:01:15Z</time>
      </trkpt>
      <trkpt lat="47.23767" lon="4.9559">
        <ele>452</ele>
        <time>2022-05-15T12:01:16Z</time>
      </trkpt>
      <trkpt lat="47.23766" lon="4.95591">
        <ele>452</ele>
        <time>2022-05-15T12:01:17Z</time>
      </trkpt>
      <trkpt lat="47.23764" lon="4.95591">
        <ele>453</ele>
        <time>2022-05-15T12:01:19Z</time>
      </trkpt>
      <trkpt lat="47.23763" lon="4.95591">
        <ele>453</ele>
        <time>2022-05-15T12:01:20Z</time>
      </trkpt>
      <trkpt lat="47.23761" lon="4.95591">
        <ele>453</ele>
        <time>2022-05-15T12:01:21Z</time>
      </trkpt>
      <trkpt lat="47.2376" lon="4.95591">
        <ele>453</ele>
        <time>2022-05-15T12:01:22Z</time>
      </trkpt>
      <trkpt lat="47.23759" lon="4.95591">
        <ele>452</ele>
        <time>2022-05-15T12:01:23Z</time>
      </trkpt>
      <trkpt lat="47.23758" lon="4.95591">
        <ele>452</ele>
        <time>2022-05-15T12:01:24Z</time>
      </trkpt>
      <trkpt lat="47.23757" lon="4.95592">
        <ele>452</ele>
        <time>2022-05-15T12:01:25Z</time>
      </trkpt>
      <trkpt lat="47.23756" lon="4.95593">
        <ele>451</ele>
        <time>2022-05-15T12:01:26Z</time>
      </trkpt>
      <trkpt lat="47.23755" lon="4.95593">
        <ele>451</ele>
        <time>2022-05-15T12:01:27Z</time>
      </trkpt>
      <trkpt lat="47.23754" lon="4.95594">
        <ele>450</ele>
        <time>2022-05-15T12:01:28Z</time>
      </trkpt>
      <trkpt lat="47.23753" lon="4.95594">
        <ele>451</ele>
        <time>2022-05-15T12:01:29Z</time>
      </trkpt>
      <trkpt lat="47.23752" lon="4.95595">
        <ele>451</ele>
        <time>2022-05-15T12:01:30Z</time>
      </trkpt>
      <trkpt lat="47.23751" lon="4.95595">
        <ele>451</ele>
        <time>2022-05-15T12:01:31Z</time>
      </trkpt>
      <trkpt lat="47.23749" lon="4.95595">
        <ele>451</ele>
        <time>2022-05-15T12:01:32Z</time>
      </trkpt>
      <trkpt lat="47.23748" lon="4.95595">
        <ele>450</ele>
        <time>2022-05-15T12:01:33Z</time>
      </trkpt>
      <trkpt lat="47.23746" lon="4.95595">
        <ele>450</ele>
        <time>2022-05-15T12:01:34Z</time>
      </trkpt>
      <trkpt lat="47.23745" lon="4.95595">
        <ele>449</ele>
        <time>2022-05-15T12:01:35Z</time>
      </trkpt>
      <trkpt lat="47.23744" lon="4.95594">
        <ele>449</ele>
        <time>2022-05-15T12:01:36Z</time>
      </trkpt>
      <trkpt lat="47.23742" lon="4.95594">
        <ele>449</ele>
        <time>2022-05-15T12:01:37Z</time>
      </trkpt>
      <trkpt lat="47.23741" lon="4.95594">
        <ele>449</ele>
        <time>2022-05-15T12:01:38Z</time>
      </trkpt>
      <trkpt lat="47.23739" lon="4.95594">
        <ele>449</ele>
        <time>2022-05-15T12:01:39Z</time>
      </trkpt>
      <trkpt lat="47.23738" lon="4.95594">
        <ele>449</ele>
        <time>2022-05-15T12:01:40Z</time>
      </trkpt>
      <trkpt lat="47.23737" lon="4.95593">
        <ele>448</ele>
        <time>2022-05-15T12:01:41Z</time>
      </trkpt>
      <trkpt lat="47.23736" lon="4.95593">
        <ele>449</ele>
        <time>2022-05-15T12:01:42Z</time>
      </trkpt>
      <trkpt lat="47.23735" lon="4.95592">
        <ele>448</ele>
        <time>2022-05-15T12:01:43Z</time>
      </trkpt>
      <trkpt lat="47.23734" lon="4.95592">
        <ele>448</ele>
        <time>2022-05-15T12:01:44Z</time>
      </trkpt>
      <trkpt lat="47.23733" lon="4.95591">
        <ele>448</ele>
        <time>2022-05-15T12:01:45Z</time>
      </trkpt>
      <trkpt lat="47.23732" lon="4.9559">
        <ele>447</ele>
        <time>2022-05-15T12:01:46Z</time>
      </trkpt>
      <trkpt lat="47.23731" lon="4.9559">
        <ele>447</ele>
        <time>2022-05-15T12:01:47Z</time>
      </trkpt>
      <trkpt lat="47.2373" lon="4.95589">
        <ele>447</ele>
        <time>2022-05-15T12:01:48Z</time>
      </trkpt>
      <trkpt lat="47.23729" lon="4.95589">
        <ele>447</ele>
        <time>2022-05-15T12:01:49Z</time>
      </trkpt>
      <trkpt lat="47.23728" lon="4.95588">
        <ele>446</ele>
        <time>2022-05-15T12:01:50Z</time>
      </trkpt>
      <trkpt lat="47.23727" lon="4.95587">
        <ele>446</ele>
        <time>2022-05-15T12:01:51Z</time>
      </trkpt>
      <trkpt lat="47.23725" lon="4.95586">
        <ele>447</ele>
        <time>2022-05-15T12:01:53Z</time>
      </trkpt>
      <trkpt lat="47.23724" lon="4.95585">
        <ele>446</ele>
        <time>2022-05-15T12:01:54Z</time>
      </trkpt>
      <trkpt lat="47.23723" lon="4.95584">
        <ele>447</ele>
        <time>2022-05-15T12:01:55Z</time>
      </trkpt>
      <trkpt lat="47.23722" lon="4.95583">
        <ele>446</ele>
        <time>2022-05-15T12:01:56Z</time>
      </trkpt>
      <trkpt lat="47.23721" lon="4.95582">
        <ele>446</ele>
        <time>2022-05-15T12:01:57Z</time>
      </trkpt>
      <trkpt lat="47.2372" lon="4.95582">
        <ele>446</ele>
        <time>2022-05-15T12:01:58Z</time>
      </trkpt>
      <trkpt lat="47.23718" lon="4.95581">
        <ele>447</ele>
        <time>2022-05-15T12:01:59Z</time>
      </trkpt>
      <trkpt lat="47.23717" lon="4.95581">
        <ele>447</ele>
        <time>2022-05-15T12:02:00Z</time>
      </trkpt>
      <trkpt lat="47.23716" lon="4.95581">
        <ele>447</ele>
        <time>2022-05-15T12:02:01Z</time>
      </trkpt>
      <trkpt lat="47.23714" lon="4.9558">
        <ele>447</ele>
        <time>2022-05-15T12:02:03Z</time>
      </trkpt>
      <trkpt lat="47.23713" lon="4.95579">
        <ele>445</ele>
        <time>2022-05-15T12:02:04Z</time>
      </trkpt>
      <trkpt lat="47.23712" lon="4.95578">
        <ele>446</ele>
        <time>2022-05-15T12:02:05Z</time>
      </trkpt>
      <trkpt lat="47.23711" lon="4.95577">
        <ele>445</ele>
        <time>2022-05-15T12:02:06Z</time>
      </trkpt>
      <trkpt lat="47.2371" lon="4.95576">
        <ele>445</ele>
        <time>2022-05-15T12:02:07Z</time>
      </trkpt>
      <trkpt lat="47.23709" lon="4.95576">
        <ele>445</ele>
        <time>2022-05-15T12:02:08Z</time>
      </trkpt>
      <trkpt lat="47.23708" lon="4.95575">
        <ele>445</ele>
        <time>2022-05-15T12:02:09Z</time>
      </trkpt>
      <trkpt lat="47.23707" lon="4.95575">
        <ele>445</ele>
        <time>2022-05-15T12:02:10Z</time>
      </trkpt>
      <trkpt lat="47.23706" lon="4.95574">
        <ele>445</ele>
        <time>2022-05-15T12:02:11Z</time>
      </trkpt>
      <trkpt lat="47.23705" lon="4.95574">
        <ele>445</ele>
        <time>2022-05-15T12:02:12Z</time>
      </trkpt>
      <trkpt lat="47.23704" lon="4.95573">
        <ele>445</ele>
        <time>2022-05-15T12:02:13Z</time>
      </trkpt>
      <trkpt lat="47.23703" lon="4.95572">
        <ele>445</ele>
        <time>2022-05-15T12:02:14Z</time>
      </trkpt>
      <trkpt lat="47.23702" lon="4.95571">
        <ele>445</ele>
        <time>2022-05-15T12:02:15Z</time>
      </trkpt>
      <trkpt lat="47.23701" lon="4.9557">
        <ele>445</ele>
        <time>2022-05-15T12:02:16Z</time>
      </trkpt>
      <trkpt lat="47.237" lon="4.9557">
        <ele>444</ele>
        <time>2022-05-15T12:02:17Z</time>
      </trkpt>
      <trkpt lat="47.23699" lon="4.9557">
        <ele>445</ele>
        <time>2022-05-15T12:02:18Z</time>
      </trkpt>
      <trkpt lat="47.23698" lon="4.9557">
        <ele>445</ele>
        <time>2022-05-15T12:02:20Z</time>
      </trkpt>
      <trkpt lat="47.23697" lon="4.9557">
        <ele>445</ele>
        <time>2022-05-15T12:02:23Z</time>
      </trkpt>
      <trkpt lat="47.23696" lon="4.95571">
        <ele>445</ele>
        <time>2022-05-15T12:02:26Z</time>
      </trkpt>
      <trkpt lat="47.23695" lon="4.95573">
        <ele>445</ele>
        <time>2022-05-15T12:02:29Z</time>
      </trkpt>
      <trkpt lat="47.23694" lon="4.95573">
        <ele>445</ele>
        <time>2022-05-15T12:02:30Z</time>
      </trkpt>
      <trkpt lat="47.23693" lon="4.95575">
        <ele>446</ele>
        <time>2022-05-15T12:02:32Z</time>
      </trkpt>
      <trkpt lat="47.23692" lon="4.95577">
        <ele>445</ele>
        <time>2022-05-15T12:02:34Z</time>
      </trkpt>
      <trkpt lat="47.2369" lon="4.95577">
        <ele>445</ele>
        <time>2022-05-15T12:02:35Z</time>
      </trkpt>
      <trkpt lat="47.23689" lon="4.95578">
        <ele>445</ele>
        <time>2022-05-15T12:02:36Z</time>
      </trkpt>
      <trkpt lat="47.23688" lon="4.95577">
        <ele>445</ele>
        <time>2022-05-15T12:02:37Z</time>
      </trkpt>
      <trkpt lat="47.23687" lon="4.95577">
        <ele>445</ele>
        <time>2022-05-15T12:02:38Z</time>
      </trkpt>
      <trkpt lat="47.23686" lon="4.95576">
        <ele>445</ele>
        <time>2022-05-15T12:02:39Z</time>
      </trkpt>
      <trkpt lat="47.23685" lon="4.95576">
        <ele>445</ele>
        <time>2022-05-15T12:02:40Z</time>
      </trkpt>
      <trkpt lat="47.23684" lon="4.95576">
        <ele>445</ele>
        <time>2022-05-15T12:02:41Z</time>
      </trkpt>
      <trkpt lat="47.23682" lon="4.95576">
        <ele>445</ele>
        <time>2022-05-15T12:02:42Z</time>
      </trkpt>
      <trkpt lat="47.23681" lon="4.95576">
        <ele>444</ele>
        <time>2022-05-15T12:02:43Z</time>
      </trkpt>
      <trkpt lat="47.2368" lon="4.95575">
        <ele>444</ele>
        <time>2022-05-15T12:02:44Z</time>
      </trkpt>
      <trkpt lat="47.23679" lon="4.95574">
        <ele>444</ele>
        <time>2022-05-15T12:02:45Z</time>
      </trkpt>
      <trkpt lat="47.23678" lon="4.95574">
        <ele>444</ele>
        <time>2022-05-15T12:02:46Z</time>
      </trkpt>
      <trkpt lat="47.23678" lon="4.95572">
        <ele>444</ele>
        <time>2022-05-15T12:02:47Z</time>
      </trkpt>
      <trkpt lat="47.23677" lon="4.95571">
        <ele>444</ele>
        <time>2022-05-15T12:02:48Z</time>
      </trkpt>
      <trkpt lat="47.23676" lon="4.95571">
        <ele>444</ele>
        <time>2022-05-15T12:02:49Z</time>
      </trkpt>
      <trkpt lat="47.23675" lon="4.9557">
        <ele>444</ele>
        <time>2022-05-15T12:02:50Z</time>
      </trkpt>
      <trkpt lat="47.23674" lon="4.95569">
        <ele>444</ele>
        <time>2022-05-15T12:02:51Z</time>
      </trkpt>
      <trkpt lat="47.23673" lon="4.95569">
        <ele>445</ele>
        <time>2022-05-15T12:02:52Z</time>
      </trkpt>
      <trkpt lat="47.23672" lon="4.95568">
        <ele>445</ele>
        <time>2022-05-15T12:02:53Z</time>
      </trkpt>
      <trkpt lat="47.23671" lon="4.95568">
        <ele>446</ele>
        <time>2022-05-15T12:02:54Z</time>
      </trkpt>
      <trkpt lat="47.2367" lon="4.95568">
        <ele>447</ele>
        <time>2022-05-15T12:02:55Z</time>
      </trkpt>
      <trkpt lat="47.23669" lon="4.95568">
        <ele>446</ele>
        <time>2022-05-15T12:02:56Z</time>
      </trkpt>
      <trkpt lat="47.23667" lon="4.95569">
        <ele>446</ele>
        <time>2022-05-15T12:02:57Z</time>
      </trkpt>
      <trkpt lat="47.23666" lon="4.95569">
        <ele>446</ele>
        <time>2022-05-15T12:02:58Z</time>
      </trkpt>
      <trkpt lat="47.23665" lon="4.9557">
        <ele>446</ele>
        <time>2022-05-15T12:02:59Z</time>
      </trkpt>
      <trkpt lat="47.23664" lon="4.95571">
        <ele>446</ele>
        <time>2022-05-15T12:03:00Z</time>
      </trkpt>
      <trkpt lat="47.23663" lon="4.95571">
        <ele>446</ele>
        <time>2022-05-15T12:03:01Z</time>
      </trkpt>
      <trkpt lat="47.23662" lon="4.95571">
        <ele>446</ele>
        <time>2022-05-15T12:03:02Z</time>
      </trkpt>
      <trkpt lat="47.23661" lon="4.95571">
        <ele>447</ele>
        <time>2022-05-15T12:03:03Z</time>
      </trkpt>
      <trkpt lat="47.2366" lon="4.95571">
        <ele>447</ele>
        <time>2022-05-15T12:03:06Z</time>
      </trkpt>
      <trkpt lat="47.23659" lon="4.9557">
        <ele>447</ele>
        <time>2022-05-15T12:03:08Z</time>
      </trkpt>
      <trkpt lat="47.23658" lon="4.9557">
        <ele>446</ele>
        <time>2022-05-15T12:03:09Z</time>
      </trkpt>
      <trkpt lat="47.23657" lon="4.95569">
        <ele>446</ele>
        <time>2022-05-15T12:03:10Z</time>
      </trkpt>
      <trkpt lat="47.23656" lon="4.95569">
        <ele>446</ele>
        <time>2022-05-15T12:03:11Z</time>
      </trkpt>
      <trkpt lat="47.23654" lon="4.95568">
        <ele>446</ele>
        <time>2022-05-15T12:03:12Z</time>
      </trkpt>
      <trkpt lat="47.23653" lon="4.95568">
        <ele>446</ele>
        <time>2022-05-15T12:03:13Z</time>
      </trkpt>
      <trkpt lat="47.23653" lon="4.95567">
        <ele>446</ele>
        <time>2022-05-15T12:03:14Z</time>
      </trkpt>
      <trkpt lat="47.23651" lon="4.95566">
        <ele>447</ele>
        <time>2022-05-15T12:03:16Z</time>
      </trkpt>
      <trkpt lat="47.23649" lon="4.95564">
        <ele>447</ele>
        <time>2022-05-15T12:03:18Z</time>
      </trkpt>
      <trkpt lat="47.23648" lon="4.95563">
        <ele>448</ele>
        <time>2022-05-15T12:03:19Z</time>
      </trkpt>
      <trkpt lat="47.23647" lon="4.95562">
        <ele>447</ele>
        <time>2022-05-15T12:03:21Z</time>
      </trkpt>
      <trkpt lat="47.23646" lon="4.95562">
        <ele>447</ele>
        <time>2022-05-15T12:03:22Z</time>
      </trkpt>
      <trkpt lat="47.23644" lon="4.9556">
        <ele>448</ele>
        <time>2022-05-15T12:03:24Z</time>
      </trkpt>
      <trkpt lat="47.23643" lon="4.9556">
        <ele>449</ele>
        <time>2022-05-15T12:03:25Z</time>
      </trkpt>
      <trkpt lat="47.23642" lon="4.95558">
        <ele>448</ele>
        <time>2022-05-15T12:03:27Z</time>
      </trkpt>
      <trkpt lat="47.23641" lon="4.95558">
        <ele>448</ele>
        <time>2022-05-15T12:03:28Z</time>
      </trkpt>
      <trkpt lat="47.2364" lon="4.95558">
        <ele>448</ele>
        <time>2022-05-15T12:03:29Z</time>
      </trkpt>
      <trkpt lat="47.23638" lon="4.95558">
        <ele>448</ele>
        <time>2022-05-15T12:03:31Z</time>
      </trkpt>
      <trkpt lat="47.23637" lon="4.95558">
        <ele>448</ele>
        <time>2022-05-15T12:03:32Z</time>
      </trkpt>
      <trkpt lat="47.23636" lon="4.95557">
        <ele>448</ele>
        <time>2022-05-15T12:03:34Z</time>
      </trkpt>
      <trkpt lat="47.23635" lon="4.95557">
        <ele>449</ele>
        <time>2022-05-15T12:03:35Z</time>
      </trkpt>
      <trkpt lat="47.23634" lon="4.95557">
        <ele>449</ele>
        <time>2022-05-15T12:03:36Z</time>
      </trkpt>
      <trkpt lat="47.23633" lon="4.95557">
        <ele>449</ele>
        <time>2022-05-15T12:03:37Z</time>
      </trkpt>
      <trkpt lat="47.23632" lon="4.95556">
        <ele>449</ele>
        <time>2022-05-15T12:03:38Z</time>
      </trkpt>
      <trkpt lat="47.23631" lon="4.95556">
        <ele>450</ele>
        <time>2022-05-15T12:03:40Z</time>
      </trkpt>
      <trkpt lat="47.2363" lon="4.95556">
        <ele>449</ele>
        <time>2022-05-15T12:03:42Z</time>
      </trkpt>
      <trkpt lat="47.23629" lon="4.95557">
        <ele>449</ele>
        <time>2022-05-15T12:03:43Z</time>
      </trkpt>
      <trkpt lat="47.23628" lon="4.95559">
        <ele>450</ele>
        <time>2022-05-15T12:03:44Z</time>
      </trkpt>
      <trkpt lat="47.23627" lon="4.9556">
        <ele>449</ele>
        <time>2022-05-15T12:03:46Z</time>
      </trkpt>
      <trkpt lat="47.23625" lon="4.9556">
        <ele>449</ele>
        <time>2022-05-15T12:03:48Z</time>
      </trkpt>
      <trkpt lat="47.23623" lon="4.9556">
        <ele>448</ele>
        <time>2022-05-15T12:03:50Z</time>
      </trkpt>
      <trkpt lat="47.23622" lon="4.9556">
        <ele>447</ele>
        <time>2022-05-15T12:03:51Z</time>
      </trkpt>
      <trkpt lat="47.23621" lon="4.9556">
        <ele>447</ele>
        <time>2022-05-15T12:03:53Z</time>
      </trkpt>
      <trkpt lat="47.2362" lon="4.9556">
        <ele>447</ele>
        <time>2022-05-15T12:03:55Z</time>
      </trkpt>
      <trkpt lat="47.23618" lon="4.95561">
        <ele>446</ele>
        <time>2022-05-15T12:03:59Z</time>
      </trkpt>
      <trkpt lat="47.23617" lon="4.95562">
        <ele>447</ele>
        <time>2022-05-15T12:04:00Z</time>
      </trkpt>
      <trkpt lat="47.23616" lon="4.95562">
        <ele>448</ele>
        <time>2022-05-15T12:04:02Z</time>
      </trkpt>
      <trkpt lat="47.23616" lon="4.95563">
        <ele>447</ele>
        <time>2022-05-15T12:04:04Z</time>
      </trkpt>
      <trkpt lat="47.23614" lon="4.95563">
        <ele>446</ele>
        <time>2022-05-15T12:04:05Z</time>
      </trkpt>
      <trkpt lat="47.23612" lon="4.95564">
        <ele>447</ele>
        <time>2022-05-15T12:04:06Z</time>
      </trkpt>
      <trkpt lat="47.23611" lon="4.95564">
        <ele>447</ele>
        <time>2022-05-15T12:04:07Z</time>
      </trkpt>
      <trkpt lat="47.23609" lon="4.95564">
        <ele>448</ele>
        <time>2022-05-15T12:04:08Z</time>
      </trkpt>
      <trkpt lat="47.23608" lon="4.95564">
        <ele>445</ele>
        <time>2022-05-15T12:04:09Z</time>
      </trkpt>
      <trkpt lat="47.23606" lon="4.95564">
        <ele>446</ele>
        <time>2022-05-15T12:04:10Z</time>
      </trkpt>
      <trkpt lat="47.23605" lon="4.95563">
        <ele>446</ele>
        <time>2022-05-15T12:04:11Z</time>
      </trkpt>
      <trkpt lat="47.23604" lon="4.95563">
        <ele>446</ele>
        <time>2022-05-15T12:04:12Z</time>
      </trkpt>
      <trkpt lat="47.23602" lon="4.95563">
        <ele>447</ele>
        <time>2022-05-15T12:04:13Z</time>
      </trkpt>
      <trkpt lat="47.23601" lon="4.95563">
        <ele>447</ele>
        <time>2022-05-15T12:04:14Z</time>
      </trkpt>
      <trkpt lat="47.236" lon="4.95562">
        <ele>446</ele>
        <time>2022-05-15T12:04:15Z</time>
      </trkpt>
      <trkpt lat="47.23599" lon="4.95563">
        <ele>447</ele>
        <time>2022-05-15T12:04:17Z</time>
      </trkpt>
      <trkpt lat="47.23597" lon="4.95563">
        <ele>447</ele>
        <time>2022-05-15T12:04:18Z</time>
      </trkpt>
      <trkpt lat="47.23596" lon="4.95563">
        <ele>447</ele>
        <time>2022-05-15T12:04:19Z</time>
      </trkpt>
      <trkpt lat="47.23595" lon="4.95563">
        <ele>447</ele>
        <time>2022-05-15T12:04:20Z</time>
      </trkpt>
      <trkpt lat="47.23593" lon="4.95563">
        <ele>447</ele>
        <time>2022-05-15T12:04:22Z</time>
      </trkpt>
      <trkpt lat="47.23592" lon="4.95564">
        <ele>448</ele>
        <time>2022-05-15T12:04:23Z</time>
      </trkpt>
      <trkpt lat="47.2359" lon="4.95564">
        <ele>450</ele>
        <time>2022-05-15T12:04:24Z</time>
      </trkpt>
      <trkpt lat="47.23589" lon="4.95564">
        <ele>450</ele>
        <time>2022-05-15T12:04:25Z</time>
      </trkpt>
      <trkpt lat="47.23588" lon="4.95564">
        <ele>450</ele>
        <time>2022-05-15T12:04:26Z</time>
      </trkpt>
      <trkpt lat="47.23587" lon="4.95564">
        <ele>449</ele>
        <time>2022-05-15T12:04:27Z</time>
      </trkpt>
      <trkpt lat="47.23586" lon="4.95564">
        <ele>449</ele>
        <time>2022-05-15T12:04:28Z</time>
      </trkpt>
      <trkpt lat="47.23584" lon="4.95563">
        <ele>448</ele>
        <time>2022-05-15T12:04:32Z</time>
      </trkpt>
      <trkpt lat="47.23583" lon="4.95563">
        <ele>449</ele>
        <time>2022-05-15T12:04:33Z</time>
      </trkpt>
      <trkpt lat="47.23581" lon="4.95563">
        <ele>449</ele>
        <time>2022-05-15T12:04:34Z</time>
      </trkpt>
      <trkpt lat="47.2358" lon="4.95562">
        <ele>449</ele>
        <time>2022-05-15T12:04:35Z</time>
      </trkpt>
      <trkpt lat="47.23579" lon="4.95562">
        <ele>448</ele>
        <time>2022-05-15T12:04:36Z</time>
      </trkpt>
      <trkpt lat="47.23578" lon="4.95562">
        <ele>447</ele>
        <time>2022-05-15T12:04:37Z</time>
      </trkpt>
      <trkpt lat="47.23577" lon="4.95562">
        <ele>447</ele>
        <time>2022-05-15T12:04:38Z</time>
      </trkpt>
      <trkpt lat="47.23576" lon="4.95561">
        <ele>447</ele>
        <time>2022-05-15T12:04:40Z</time>
      </trkpt>
      <trkpt lat="47.23575" lon="4.9556">
        <ele>448</ele>
        <time>2022-05-15T12:04:41Z</time>
      </trkpt>
      <trkpt lat="47.23574" lon="4.9556">
        <ele>448</ele>
        <time>2022-05-15T12:04:42Z</time>
      </trkpt>
      <trkpt lat="47.23573" lon="4.95559">
        <ele>448</ele>
        <time>2022-05-15T12:04:44Z</time>
      </trkpt>
      <trkpt lat="47.23572" lon="4.95559">
        <ele>448</ele>
        <time>2022-05-15T12:04:45Z</time>
      </trkpt>
      <trkpt lat="47.2357" lon="4.95558">
        <ele>445</ele>
        <time>2022-05-15T12:04:47Z</time>
      </trkpt>
      <trkpt lat="47.23569" lon="4.95558">
        <ele>444</ele>
        <time>2022-05-15T12:04:48Z</time>
      </trkpt>
      <trkpt lat="47.23567" lon="4.95558">
        <ele>444</ele>
        <time>2022-05-15T12:04:49Z</time>
      </trkpt>
      <trkpt lat="47.23566" lon="4.95558">
        <ele>444</ele>
        <time>2022-05-15T12:04:50Z</time>
      </trkpt>
      <trkpt lat="47.23565" lon="4.95558">
        <ele>445</ele>
        <time>2022-05-15T12:04:51Z</time>
      </trkpt>
      <trkpt lat="47.23564" lon="4.95558">
        <ele>446</ele>
        <time>2022-05-15T12:04:52Z</time>
      </trkpt>
      <trkpt lat="47.23563" lon="4.95559">
        <ele>446</ele>
        <time>2022-05-15T12:04:53Z</time>
      </trkpt>
      <trkpt lat="47.23561" lon="4.95559">
        <ele>447</ele>
        <time>2022-05-15T12:04:55Z</time>
      </trkpt>
      <trkpt lat="47.2356" lon="4.95559">
        <ele>448</ele>
        <time>2022-05-15T12:04:56Z</time>
      </trkpt>
      <trkpt lat="47.23559" lon="4.95559">
        <ele>448</ele>
        <time>2022-05-15T12:04:58Z</time>
      </trkpt>
      <trkpt lat="47.23557" lon="4.95559">
        <ele>463</ele>
        <time>2022-05-15T12:05:00Z</time>
      </trkpt>
      <trkpt lat="47.23554" lon="4.95559">
        <ele>461</ele>
        <time>2022-05-15T12:05:01Z</time>
      </trkpt>
      <trkpt lat="47.23552" lon="4.95558">
        <ele>458</ele>
        <time>2022-05-15T12:05:02Z</time>
      </trkpt>
      <trkpt lat="47.2355" lon="4.95558">
        <ele>457</ele>
        <time>2022-05-15T12:05:03Z</time>
      </trkpt>
      <trkpt lat="47.23548" lon="4.95557">
        <ele>455</ele>
        <time>2022-05-15T12:05:04Z</time>
      </trkpt>
      <trkpt lat="47.23547" lon="4.95557">
        <ele>454</ele>
        <time>2022-05-15T12:05:05Z</time>
      </trkpt>
      <trkpt lat="47.23545" lon="4.95557">
        <ele>453</ele>
        <time>2022-05-15T12:05:06Z</time>
      </trkpt>
      <trkpt lat="47.23544" lon="4.95556">
        <ele>452</ele>
        <time>2022-05-15T12:05:07Z</time>
      </trkpt>
      <trkpt lat="47.23542" lon="4.95556">
        <ele>452</ele>
        <time>2022-05-15T12:05:08Z</time>
      </trkpt>
      <trkpt lat="47.2354" lon="4.95556">
        <ele>452</ele>
        <time>2022-05-15T12:05:09Z</time>
      </trkpt>
      <trkpt lat="47.23539" lon="4.95555">
        <ele>451</ele>
        <time>2022-05-15T12:05:10Z</time>
      </trkpt>
      <trkpt lat="47.23538" lon="4.95554">
        <ele>449</ele>
        <time>2022-05-15T12:05:11Z</time>
      </trkpt>
      <trkpt lat="47.23537" lon="4.95552">
        <ele>449</ele>
        <time>2022-05-15T12:05:12Z</time>
      </trkpt>
      <trkpt lat="47.23536" lon="4.95552">
        <ele>450</ele>
        <time>2022-05-15T12:05:13Z</time>
      </trkpt>
      <trkpt lat="47.23535" lon="4.95551">
        <ele>448</ele>
        <time>2022-05-15T12:05:16Z</time>
      </trkpt>
      <trkpt lat="47.23534" lon="4.95551">
        <ele>457</ele>
        <time>2022-05-15T12:05:20Z</time>
      </trkpt>
      <trkpt lat="47.23531" lon="4.95552">
        <ele>455</ele>
        <time>2022-05-15T12:05:22Z</time>
      </trkpt>
      <trkpt lat="47.2353" lon="4.95552">
        <ele>454</ele>
        <time>2022-05-15T12:05:23Z</time>
      </trkpt>
      <trkpt lat="47.23529" lon="4.95551">
        <ele>452</ele>
        <time>2022-05-15T12:05:24Z</time>
      </trkpt>
      <trkpt lat="47.23527" lon="4.95551">
        <ele>451</ele>
        <time>2022-05-15T12:05:25Z</time>
      </trkpt>
      <trkpt lat="47.23526" lon="4.95551">
        <ele>452</ele>
        <time>2022-05-15T12:05:26Z</time>
      </trkpt>
      <trkpt lat="47.23524" lon="4.95551">
        <ele>452</ele>
        <time>2022-05-15T12:05:27Z</time>
      </trkpt>
      <trkpt lat="47.23523" lon="4.95551">
        <ele>451</ele>
        <time>2022-05-15T12:05:28Z</time>
      </trkpt>
      <trkpt lat="47.23522" lon="4.9555">
        <ele>450</ele>
        <time>2022-05-15T12:05:29Z</time>
      </trkpt>
      <trkpt lat="47.2352" lon="4.9555">
        <ele>461</ele>
        <time>2022-05-15T12:05:30Z</time>
      </trkpt>
      <trkpt lat="47.23518" lon="4.95549">
        <ele>458</ele>
        <time>2022-05-15T12:05:31Z</time>
      </trkpt>
      <trkpt lat="47.23517" lon="4.95549">
        <ele>456</ele>
        <time>2022-05-15T12:05:32Z</time>
      </trkpt>
      <trkpt lat="47.23515" lon="4.95548">
        <ele>457</ele>
        <time>2022-05-15T12:05:33Z</time>
      </trkpt>
      <trkpt lat="47.23514" lon="4.95548">
        <ele>456</ele>
        <time>2022-05-15T12:05:34Z</time>
      </trkpt>
      <trkpt lat="47.23513" lon="4.95547">
        <ele>455</ele>
        <time>2022-05-15T12:05:35Z</time>
      </trkpt>
      <trkpt lat="47.23512" lon="4.95546">
        <ele>454</ele>
        <time>2022-05-15T12:05:36Z</time>
      </trkpt>
      <trkpt lat="47.23511" lon="4.95545">
        <ele>454</ele>
        <time>2022-05-15T12:05:38Z</time>
      </trkpt>
      <trkpt lat="47.23509" lon="4.95545">
        <ele>454</ele>
        <time>2022-05-15T12:05:39Z</time>
      </trkpt>
      <trkpt lat="47.23508" lon="4.95544">
        <ele>455</ele>
        <time>2022-05-15T12:05:40Z</time>
      </trkpt>
      <trkpt lat="47.23506" lon="4.95543">
        <ele>454</ele>
        <time>2022-05-15T12:05:41Z</time>
      </trkpt>
      <trkpt lat="47.23505" lon="4.95541">
        <ele>455</ele>
        <time>2022-05-15T12:05:43Z</time>
      </trkpt>
      <trkpt lat="47.23504" lon="4.9554">
        <ele>455</ele>
        <time>2022-05-15T12:05:45Z</time>
      </trkpt>
      <trkpt lat="47.23503" lon="4.95541">
        <ele>454</ele>
        <time>2022-05-15T12:05:47Z</time>
      </trkpt>
      <trkpt lat="47.23501" lon="4.95542">
        <ele>453</ele>
        <time>2022-05-15T12:05:49Z</time>
      </trkpt>
      <trkpt lat="47.235" lon="4.95542">
        <ele>452</ele>
        <time>2022-05-15T12:05:50Z</time>
      </trkpt>
      <trkpt lat="47.23499" lon="4.95542">
        <ele>453</ele>
        <time>2022-05-15T12:05:51Z</time>
      </trkpt>
      <trkpt lat="47.23498" lon="4.95541">
        <ele>453</ele>
        <time>2022-05-15T12:05:53Z</time>
      </trkpt>
      <trkpt lat="47.23498" lon="4.9554">
        <ele>453</ele>
        <time>2022-05-15T12:05:55Z</time>
      </trkpt>
      <trkpt lat="47.23498" lon="4.95538">
        <ele>452</ele>
        <time>2022-05-15T12:05:58Z</time>
      </trkpt>
      <trkpt lat="47.23497" lon="4.95538">
        <ele>454</ele>
        <time>2022-05-15T12:06:06Z</time>
      </trkpt>
      <trkpt lat="47.23496" lon="4.95539">
        <ele>468</ele>
        <time>2022-05-15T12:06:08Z</time>
      </trkpt>
      <trkpt lat="47.23494" lon="4.95539">
        <ele>462</ele>
        <time>2022-05-15T12:06:10Z</time>
      </trkpt>
      <trkpt lat="47.23493" lon="4.95539">
        <ele>460</ele>
        <time>2022-05-15T12:06:11Z</time>
      </trkpt>
      <trkpt lat="47.23492" lon="4.95539">
        <ele>458</ele>
        <time>2022-05-15T12:06:12Z</time>
      </trkpt>
      <trkpt lat="47.2349" lon="4.95538">
        <ele>457</ele>
        <time>2022-05-15T12:06:13Z</time>
      </trkpt>
      <trkpt lat="47.23489" lon="4.95538">
        <ele>456</ele>
        <time>2022-05-15T12:06:15Z</time>
      </trkpt>
      <trkpt lat="47.23488" lon="4.95538">
        <ele>456</ele>
        <time>2022-05-15T12:06:16Z</time>
      </trkpt>
      <trkpt lat="47.23487" lon="4.95538">
        <ele>455</ele>
        <time>2022-05-15T12:06:17Z</time>
      </trkpt>
      <trkpt lat="47.23485" lon="4.95539">
        <ele>454</ele>
        <time>2022-05-15T12:06:18Z</time>
      </trkpt>
      <trkpt lat="47.23484" lon="4.95539">
        <ele>453</ele>
        <time>2022-05-15T12:06:19Z</time>
      </trkpt>
      <trkpt lat="47.23483" lon="4.95538">
        <ele>452</ele>
        <time>2022-05-15T12:06:20Z</time>
      </trkpt>
      <trkpt lat="47.23481" lon="4.95538">
        <ele>454</ele>
        <time>2022-05-15T12:06:23Z</time>
      </trkpt>
      <trkpt lat="47.2348" lon="4.95538">
        <ele>454</ele>
        <time>2022-05-15T12:06:25Z</time>
      </trkpt>
      <trkpt lat="47.23481" lon="4.95538">
        <ele>459</ele>
        <time>2022-05-15T12:06:30Z</time>
      </trkpt>
      <trkpt lat="47.23479" lon="4.95537">
        <ele>456</ele>
        <time>2022-05-15T12:06:32Z</time>
      </trkpt>
      <trkpt lat="47.23478" lon="4.95537">
        <ele>456</ele>
        <time>2022-05-15T12:06:33Z</time>
      </trkpt>
      <trkpt lat="47.23476" lon="4.95537">
        <ele>454</ele>
        <time>2022-05-15T12:06:34Z</time>
      </trkpt>
      <trkpt lat="47.23475" lon="4.95537">
        <ele>455</ele>
        <time>2022-05-15T12:06:35Z</time>
      </trkpt>
      <trkpt lat="47.23474" lon="4.95537">
        <ele>455</ele>
        <time>2022-05-15T12:06:36Z</time>
      </trkpt>
      <trkpt lat="47.23472" lon="4.95537">
        <ele>455</ele>
        <time>2022-05-15T12:06:38Z</time>
      </trkpt>
      <trkpt lat="47.2347" lon="4.95537">
        <ele>453</ele>
        <time>2022-05-15T12:06:40Z</time>
      </trkpt>
      <trkpt lat="47.23468" lon="4.95536">
        <ele>452</ele>
        <time>2022-05-15T12:06:43Z</time>
      </trkpt>
      <trkpt lat="47.23466" lon="4.95535">
        <ele>447</ele>
        <time>2022-05-15T12:06:44Z</time>
      </trkpt>
      <trkpt lat="47.23463" lon="4.95534">
        <ele>448</ele>
        <time>2022-05-15T12:06:45Z</time>
      </trkpt>
      <trkpt lat="47.23461" lon="4.95533">
        <ele>446</ele>
        <time>2022-05-15T12:06:46Z</time>
      </trkpt>
      <trkpt lat="47.2346" lon="4.95533">
        <ele>446</ele>
        <time>2022-05-15T12:06:47Z</time>
      </trkpt>
      <trkpt lat="47.23459" lon="4.95533">
        <ele>445</ele>
        <time>2022-05-15T12:06:48Z</time>
      </trkpt>
      <trkpt lat="47.23458" lon="4.95533">
        <ele>445</ele>
        <time>2022-05-15T12:06:50Z</time>
      </trkpt>
      <trkpt lat="47.23456" lon="4.95532">
        <ele>444</ele>
        <time>2022-05-15T12:06:52Z</time>
      </trkpt>
      <trkpt lat="47.23455" lon="4.95531">
        <ele>444</ele>
        <time>2022-05-15T12:06:53Z</time>
      </trkpt>
      <trkpt lat="47.23453" lon="4.95531">
        <ele>444</ele>
        <time>2022-05-15T12:06:54Z</time>
      </trkpt>
      <trkpt lat="47.23452" lon="4.95531">
        <ele>443</ele>
        <time>2022-05-15T12:06:55Z</time>
      </trkpt>
      <trkpt lat="47.23451" lon="4.95531">
        <ele>443</ele>
        <time>2022-05-15T12:06:56Z</time>
      </trkpt>
      <trkpt lat="47.2345" lon="4.95531">
        <ele>442</ele>
        <time>2022-05-15T12:06:57Z</time>
      </trkpt>
      <trkpt lat="47.23448" lon="4.95531">
        <ele>452</ele>
        <time>2022-05-15T12:07:01Z</time>
      </trkpt>
      <trkpt lat="47.23448" lon="4.95532">
        <ele>447</ele>
        <time>2022-05-15T12:07:10Z</time>
      </trkpt>
      <trkpt lat="47.23446" lon="4.95532">
        <ele>445</ele>
        <time>2022-05-15T12:07:29Z</time>
      </trkpt>
      <trkpt lat="47.23445" lon="4.95532">
        <ele>445</ele>
        <time>2022-05-15T12:07:30Z</time>
      </trkpt>
      <trkpt lat="47.23444" lon="4.95532">
        <ele>445</ele>
        <time>2022-05-15T12:07:31Z</time>
      </trkpt>
      <trkpt lat="47.23443" lon="4.95532">
        <ele>445</ele>
        <time>2022-05-15T12:07:32Z</time>
      </trkpt>
      <trkpt lat="47.23441" lon="4.95531">
        <ele>446</ele>
        <time>2022-05-15T12:07:33Z</time>
      </trkpt>
      <trkpt lat="47.2344" lon="4.95531">
        <ele>445</ele>
        <time>2022-05-15T12:07:34Z</time>
      </trkpt>
      <trkpt lat="47.23438" lon="4.95531">
        <ele>446</ele>
        <time>2022-05-15T12:07:35Z</time>
      </trkpt>
      <trkpt lat="47.23437" lon="4.95531">
        <ele>449</ele>
        <time>2022-05-15T12:07:36Z</time>
      </trkpt>
      <trkpt lat="47.23436" lon="4.95531">
        <ele>448</ele>
        <time>2022-05-15T12:07:37Z</time>
      </trkpt>
      <trkpt lat="47.23435" lon="4.95531">
        <ele>448</ele>
        <time>2022-05-15T12:07:38Z</time>
      </trkpt>
      <trkpt lat="47.23434" lon="4.9553">
        <ele>447</ele>
        <time>2022-05-15T12:07:39Z</time>
      </trkpt>
      <trkpt lat="47.23433" lon="4.9553">
        <ele>446</ele>
        <time>2022-05-15T12:07:40Z</time>
      </trkpt>
      <trkpt lat="47.23431" lon="4.9553">
        <ele>446</ele>
        <time>2022-05-15T12:07:41Z</time>
      </trkpt>
      <trkpt lat="47.2343" lon="4.9553">
        <ele>446</ele>
        <time>2022-05-15T12:07:42Z</time>
      </trkpt>
      <trkpt lat="47.23428" lon="4.95529">
        <ele>446</ele>
        <time>2022-05-15T12:07:43Z</time>
      </trkpt>
      <trkpt lat="47.23427" lon="4.95529">
        <ele>446</ele>
        <time>2022-05-15T12:07:44Z</time>
      </trkpt>
      <trkpt lat="47.23426" lon="4.95529">
        <ele>447</ele>
        <time>2022-05-15T12:07:46Z</time>
      </trkpt>
      <trkpt lat="47.23424" lon="4.95529">
        <ele>446</ele>
        <time>2022-05-15T12:07:50Z</time>
      </trkpt>
      <trkpt lat="47.23423" lon="4.9553">
        <ele>446</ele>
        <time>2022-05-15T12:07:51Z</time>
      </trkpt>
      <trkpt lat="47.23422" lon="4.9553">
        <ele>446</ele>
        <time>2022-05-15T12:07:52Z</time>
      </trkpt>
      <trkpt lat="47.23421" lon="4.95531">
        <ele>446</ele>
        <time>2022-05-15T12:08:03Z</time>
      </trkpt>
      <trkpt lat="47.2342" lon="4.95532">
        <ele>445</ele>
        <time>2022-05-15T12:08:04Z</time>
      </trkpt>
      <trkpt lat="47.23418" lon="4.95533">
        <ele>446</ele>
        <time>2022-05-15T12:08:10Z</time>
      </trkpt>
      <trkpt lat="47.23416" lon="4.95533">
        <ele>443</ele>
        <time>2022-05-15T12:08:11Z</time>
      </trkpt>
      <trkpt lat="47.23415" lon="4.95533">
        <ele>444</ele>
        <time>2022-05-15T12:08:12Z</time>
      </trkpt>
      <trkpt lat="47.23413" lon="4.95533">
        <ele>444</ele>
        <time>2022-05-15T12:08:13Z</time>
      </trkpt>
      <trkpt lat="47.23411" lon="4.95533">
        <ele>444</ele>
        <time>2022-05-15T12:08:14Z</time>
      </trkpt>
      <trkpt lat="47.2341" lon="4.95533">
        <ele>444</ele>
        <time>2022-05-15T12:08:15Z</time>
      </trkpt>
      <trkpt lat="47.23408" lon="4.95533">
        <ele>444</ele>
        <time>2022-05-15T12:08:16Z</time>
      </trkpt>
      <trkpt lat="47.23407" lon="4.95533">
        <ele>443</ele>
        <time>2022-05-15T12:08:17Z</time>
      </trkpt>
      <trkpt lat="47.23406" lon="4.95532">
        <ele>443</ele>
        <time>2022-05-15T12:08:18Z</time>
      </trkpt>
      <trkpt lat="47.23405" lon="4.95532">
        <ele>443</ele>
        <time>2022-05-15T12:08:19Z</time>
      </trkpt>
      <trkpt lat="47.23404" lon="4.95531">
        <ele>443</ele>
        <time>2022-05-15T12:08:20Z</time>
      </trkpt>
      <trkpt lat="47.23402" lon="4.9553">
        <ele>444</ele>
        <time>2022-05-15T12:08:21Z</time>
      </trkpt>
      <trkpt lat="47.23401" lon="4.9553">
        <ele>441</ele>
        <time>2022-05-15T12:08:22Z</time>
      </trkpt>
      <trkpt lat="47.23399" lon="4.9553">
        <ele>441</ele>
        <time>2022-05-15T12:08:23Z</time>
      </trkpt>
      <trkpt lat="47.23398" lon="4.95531">
        <ele>441</ele>
        <time>2022-05-15T12:08:25Z</time>
      </trkpt>
      <trkpt lat="47.23396" lon="4.95531">
        <ele>442</ele>
        <time>2022-05-15T12:08:29Z</time>
      </trkpt>
      <trkpt lat="47.23395" lon="4.9553">
        <ele>445</ele>
        <time>2022-05-15T12:08:33Z</time>
      </trkpt>
      <trkpt lat="47.23392" lon="4.9553">
        <ele>444</ele>
        <time>2022-05-15T12:08:35Z</time>
      </trkpt>
      <trkpt lat="47.23391" lon="4.95528">
        <ele>444</ele>
        <time>2022-05-15T12:08:36Z</time>
      </trkpt>
      <trkpt lat="47.23389" lon="4.95527">
        <ele>444</ele>
        <time>2022-05-15T12:08:37Z</time>
      </trkpt>
      <trkpt lat="47.23387" lon="4.95525">
        <ele>445</ele>
        <time>2022-05-15T12:08:38Z</time>
      </trkpt>
      <trkpt lat="47.23385" lon="4.95524">
        <ele>448</ele>
        <time>2022-05-15T12:08:39Z</time>
      </trkpt>
      <trkpt lat="47.23383" lon="4.95522">
        <ele>447</ele>
        <time>2022-05-15T12:08:40Z</time>
      </trkpt>
      <trkpt lat="47.23381" lon="4.95521">
        <ele>446</ele>
        <time>2022-05-15T12:08:41Z</time>
      </trkpt>
      <trkpt lat="47.23379" lon="4.95519">
        <ele>445</ele>
        <time>2022-05-15T12:08:42Z</time>
      </trkpt>
      <trkpt lat="47.23378" lon="4.95518">
        <ele>445</ele>
        <time>2022-05-15T12:08:43Z</time>
      </trkpt>
      <trkpt lat="47.23376" lon="4.95517">
        <ele>446</ele>
        <time>2022-05-15T12:08:44Z</time>
      </trkpt>
      <trkpt lat="47.23376" lon="4.95517">
        <ele>448</ele>
        <time>2022-05-15T12:08:45Z</time>
      </trkpt>
      <trkpt lat="47.23376" lon="4.95519">
        <ele>448</ele>
        <time>2022-05-15T12:08:47Z</time>
      </trkpt>
      <trkpt lat="47.23375" lon="4.95519">
        <ele>449</ele>
        <time>2022-05-15T12:08:49Z</time>
      </trkpt>
      <trkpt lat="47.23374" lon="4.95518">
        <ele>448</ele>
        <time>2022-05-15T12:08:50Z</time>
      </trkpt>
      <trkpt lat="47.23372" lon="4.95518">
        <ele>447</ele>
        <time>2022-05-15T12:08:52Z</time>
      </trkpt>
      <trkpt lat="47.2337" lon="4.95518">
        <ele>448</ele>
        <time>2022-05-15T12:08:54Z</time>
      </trkpt>
      <trkpt lat="47.23369" lon="4.95518">
        <ele>448</ele>
        <time>2022-05-15T12:08:55Z</time>
      </trkpt>
      <trkpt lat="47.23368" lon="4.95518">
        <ele>450</ele>
        <time>2022-05-15T12:08:57Z</time>
      </trkpt>
      <trkpt lat="47.23366" lon="4.95519">
        <ele>449</ele>
        <time>2022-05-15T12:09:00Z</time>
      </trkpt>
      <trkpt lat="47.23364" lon="4.95519">
        <ele>448</ele>
        <time>2022-05-15T12:09:01Z</time>
      </trkpt>
      <trkpt lat="47.23363" lon="4.95519">
        <ele>447</ele>
        <time>2022-05-15T12:09:02Z</time>
      </trkpt>
      <trkpt lat="47.23362" lon="4.9552">
        <ele>447</ele>
        <time>2022-05-15T12:09:03Z</time>
      </trkpt>
      <trkpt lat="47.23361" lon="4.9552">
        <ele>448</ele>
        <time>2022-05-15T12:09:04Z</time>
      </trkpt>
      <trkpt lat="47.23359" lon="4.9552">
        <ele>447</ele>
        <time>2022-05-15T12:09:06Z</time>
      </trkpt>
      <trkpt lat="47.23358" lon="4.95519">
        <ele>446</ele>
        <time>2022-05-15T12:09:07Z</time>
      </trkpt>
      <trkpt lat="47.23357" lon="4.95519">
        <ele>445</ele>
        <time>2022-05-15T12:09:08Z</time>
      </trkpt>
      <trkpt lat="47.23356" lon="4.95519">
        <ele>459</ele>
        <time>2022-05-15T12:09:09Z</time>
      </trkpt>
      <trkpt lat="47.23355" lon="4.95519">
        <ele>454</ele>
        <time>2022-05-15T12:09:10Z</time>
      </trkpt>
      <trkpt lat="47.23354" lon="4.95519">
        <ele>451</ele>
        <time>2022-05-15T12:09:11Z</time>
      </trkpt>
      <trkpt lat="47.23353" lon="4.95518">
        <ele>450</ele>
        <time>2022-05-15T12:09:12Z</time>
      </trkpt>
      <trkpt lat="47.23352" lon="4.95517">
        <ele>448</ele>
        <time>2022-05-15T12:09:13Z</time>
      </trkpt>
      <trkpt lat="47.23351" lon="4.95517">
        <ele>447</ele>
        <time>2022-05-15T12:09:14Z</time>
      </trkpt>
      <trkpt lat="47.2335" lon="4.95516">
        <ele>446</ele>
        <time>2022-05-15T12:09:15Z</time>
      </trkpt>
      <trkpt lat="47.23348" lon="4.95515">
        <ele>447</ele>
        <time>2022-05-15T12:09:16Z</time>
      </trkpt>
      <trkpt lat="47.23347" lon="4.95515">
        <ele>447</ele>
        <time>2022-05-15T12:09:17Z</time>
      </trkpt>
      <trkpt lat="47.23346" lon="4.95515">
        <ele>446</ele>
        <time>2022-05-15T12:09:18Z</time>
      </trkpt>
      <trkpt lat="47.23344" lon="4.95515">
        <ele>446</ele>
        <time>2022-05-15T12:09:20Z</time>
      </trkpt>
      <trkpt lat="47.23343" lon="4.95515">
        <ele>446</ele>
        <time>2022-05-15T12:09:22Z</time>
      </trkpt>
      <trkpt lat="47.23342" lon="4.95515">
        <ele>445</ele>
        <time>2022-05-15T12:09:23Z</time>
      </trkpt>
      <trkpt lat="47.23339" lon="4.95517">
        <ele>445</ele>
        <time>2022-05-15T12:09:26Z</time>
      </trkpt>
      <trkpt lat="47.23338" lon="4.95518">
        <ele>442</ele>
        <time>2022-05-15T12:09:27Z</time>
      </trkpt>
      <trkpt lat="47.23337" lon="4.95519">
        <ele>443</ele>
        <time>2022-05-15T12:09:29Z</time>
      </trkpt>
      <trkpt lat="47.23335" lon="4.95519">
        <ele>445</ele>
        <time>2022-05-15T12:09:31Z</time>
      </trkpt>
      <trkpt lat="47.23334" lon="4.9552">
        <ele>446</ele>
        <time>2022-05-15T12:09:32Z</time>
      </trkpt>
      <trkpt lat="47.23333" lon="4.9552">
        <ele>446</ele>
        <time>2022-05-15T12:09:33Z</time>
      </trkpt>
      <trkpt lat="47.23331" lon="4.95519">
        <ele>442</ele>
        <time>2022-05-15T12:09:37Z</time>
      </trkpt>
      <trkpt lat="47.2333" lon="4.95518">
        <ele>442</ele>
        <time>2022-05-15T12:09:38Z</time>
      </trkpt>
      <trkpt lat="47.23329" lon="4.95517">
        <ele>443</ele>
        <time>2022-05-15T12:09:39Z</time>
      </trkpt>
      <trkpt lat="47.23328" lon="4.95516">
        <ele>442</ele>
        <time>2022-05-15T12:09:40Z</time>
      </trkpt>
      <trkpt lat="47.23327" lon="4.95515">
        <ele>443</ele>
        <time>2022-05-15T12:09:41Z</time>
      </trkpt>
      <trkpt lat="47.23326" lon="4.95514">
        <ele>443</ele>
        <time>2022-05-15T12:09:42Z</time>
      </trkpt>
      <trkpt lat="47.23325" lon="4.95514">
        <ele>443</ele>
        <time>2022-05-15T12:09:43Z</time>
      </trkpt>
      <trkpt lat="47.23324" lon="4.95513">
        <ele>445</ele>
        <time>2022-05-15T12:09:44Z</time>
      </trkpt>
      <trkpt lat="47.23323" lon="4.95513">
        <ele>445</ele>
        <time>2022-05-15T12:09:45Z</time>
      </trkpt>
      <trkpt lat="47.23321" lon="4.95514">
        <ele>446</ele>
        <time>2022-05-15T12:09:46Z</time>
      </trkpt>
      <trkpt lat="47.2332" lon="4.95514">
        <ele>444</ele>
        <time>2022-05-15T12:09:47Z</time>
      </trkpt>
      <trkpt lat="47.23319" lon="4.95515">
        <ele>446</ele>
        <time>2022-05-15T12:09:49Z</time>
      </trkpt>
      <trkpt lat="47.23318" lon="4.95514">
        <ele>446</ele>
        <time>2022-05-15T12:09:51Z</time>
      </trkpt>
      <trkpt lat="47.23317" lon="4.95514">
        <ele>457</ele>
        <time>2022-05-15T12:09:54Z</time>
      </trkpt>
      <trkpt lat="47.23315" lon="4.95513">
        <ele>449</ele>
        <time>2022-05-15T12:09:59Z</time>
      </trkpt>
      <trkpt lat="47.23314" lon="4.95513">
        <ele>449</ele>
        <time>2022-05-15T12:10:00Z</time>
      </trkpt>
      <trkpt lat="47.23313" lon="4.95513">
        <ele>449</ele>
        <time>2022-05-15T12:10:01Z</time>
      </trkpt>
      <trkpt lat="47.23312" lon="4.95513">
        <ele>449</ele>
        <time>2022-05-15T12:10:02Z</time>
      </trkpt>
      <trkpt lat="47.2331" lon="4.95513">
        <ele>450</ele>
        <time>2022-05-15T12:10:03Z</time>
      </trkpt>
      <trkpt lat="47.23309" lon="4.95513">
        <ele>450</ele>
        <time>2022-05-15T12:10:04Z</time>
      </trkpt>
      <trkpt lat="47.23307" lon="4.95513">
        <ele>450</ele>
        <time>2022-05-15T12:10:06Z</time>
      </trkpt>
      <trkpt lat="47.23306" lon="4.95513">
        <ele>450</ele>
        <time>2022-05-15T12:10:08Z</time>
      </trkpt>
      <trkpt lat="47.23305" lon="4.95513">
        <ele>447</ele>
        <time>2022-05-15T12:10:15Z</time>
      </trkpt>
      <trkpt lat="47.23304" lon="4.95512">
        <ele>449</ele>
        <time>2022-05-15T12:10:18Z</time>
      </trkpt>
      <trkpt lat="47.23303" lon="4.95512">
        <ele>448</ele>
        <time>2022-05-15T12:10:21Z</time>
      </trkpt>
      <trkpt lat="47.23297" lon="4.95512">
        <ele>444</ele>
        <time>2022-05-15T12:10:27Z</time>
      </trkpt>
      <trkpt lat="47.23296" lon="4.95512">
        <ele>442</ele>
        <time>2022-05-15T12:10:28Z</time>
      </trkpt>
      <trkpt lat="47.23294" lon="4.95512">
        <ele>441</ele>
        <time>2022-05-15T12:10:29Z</time>
      </trkpt>
      <trkpt lat="47.23292" lon="4.95512">
        <ele>442</ele>
        <time>2022-05-15T12:10:30Z</time>
      </trkpt>
      <trkpt lat="47.23289" lon="4.95512">
        <ele>442</ele>
        <time>2022-05-15T12:10:31Z</time>
      </trkpt>
      <trkpt lat="47.23287" lon="4.95512">
        <ele>444</ele>
        <time>2022-05-15T12:10:32Z</time>
      </trkpt>
      <trkpt lat="47.23285" lon="4.95513">
        <ele>459</ele>
        <time>2022-05-15T12:10:33Z</time>
      </trkpt>
      <trkpt lat="47.23283" lon="4.95513">
        <ele>456</ele>
        <time>2022-05-15T12:10:34Z</time>
      </trkpt>
      <trkpt lat="47.23281" lon="4.95514">
        <ele>453</ele>
        <time>2022-05-15T12:10:35Z</time>
      </trkpt>
      <trkpt lat="47.2328" lon="4.95514">
        <ele>458</ele>
        <time>2022-05-15T12:10:36Z</time>
      </trkpt>
      <trkpt lat="47.23278" lon="4.95514">
        <ele>454</ele>
        <time>2022-05-15T12:10:37Z</time>
      </trkpt>
      <trkpt lat="47.23277" lon="4.95513">
        <ele>452</ele>
        <time>2022-05-15T12:10:38Z</time>
      </trkpt>
      <trkpt lat="47.23275" lon="4.95513">
        <ele>450</ele>
        <time>2022-05-15T12:10:39Z</time>
      </trkpt>
      <trkpt lat="47.23273" lon="4.95513">
        <ele>449</ele>
        <time>2022-05-15T12:10:40Z</time>
      </trkpt>
      <trkpt lat="47.23272" lon="4.95513">
        <ele>448</ele>
        <time>2022-05-15T12:10:41Z</time>
      </trkpt>
      <trkpt lat="47.2327" lon="4.95513">
        <ele>457</ele>
        <time>2022-05-15T12:10:47Z</time>
      </trkpt>
      <trkpt lat="47.23269" lon="4.95513">
        <ele>453</ele>
        <time>2022-05-15T12:10:48Z</time>
      </trkpt>
      <trkpt lat="47.23268" lon="4.95513">
        <ele>451</ele>
        <time>2022-05-15T12:10:51Z</time>
      </trkpt>
      <trkpt lat="47.23267" lon="4.95513">
        <ele>451</ele>
        <time>2022-05-15T12:10:52Z</time>
      </trkpt>
      <trkpt lat="47.23265" lon="4.95513">
        <ele>451</ele>
        <time>2022-05-15T12:10:53Z</time>
      </trkpt>
      <trkpt lat="47.23263" lon="4.95513">
        <ele>452</ele>
        <time>2022-05-15T12:10:54Z</time>
      </trkpt>
      <trkpt lat="47.23262" lon="4.95513">
        <ele>451</ele>
        <time>2022-05-15T12:10:55Z</time>
      </trkpt>
      <trkpt lat="47.23261" lon="4.95513">
        <ele>460</ele>
        <time>2022-05-15T12:10:57Z</time>
      </trkpt>
      <trkpt lat="47.2326" lon="4.95513">
        <ele>454</ele>
        <time>2022-05-15T12:11:01Z</time>
      </trkpt>
      <trkpt lat="47.23259" lon="4.95514">
        <ele>453</ele>
        <time>2022-05-15T12:11:02Z</time>
      </trkpt>
      <trkpt lat="47.23257" lon="4.95514">
        <ele>451</ele>
        <time>2022-05-15T12:11:03Z</time>
      </trkpt>
      <trkpt lat="47.23256" lon="4.95515">
        <ele>451</ele>
        <time>2022-05-15T12:11:04Z</time>
      </trkpt>
      <trkpt lat="47.23254" lon="4.95515">
        <ele>450</ele>
        <time>2022-05-15T12:11:05Z</time>
      </trkpt>
      <trkpt lat="47.23253" lon="4.95517">
        <ele>451</ele>
        <time>2022-05-15T12:11:07Z</time>
      </trkpt>
      <trkpt lat="47.23252" lon="4.95518">
        <ele>451</ele>
        <time>2022-05-15T12:11:08Z</time>
      </trkpt>
      <trkpt lat="47.2325" lon="4.95518">
        <ele>453</ele>
        <time>2022-05-15T12:11:10Z</time>
      </trkpt>
      <trkpt lat="47.23249" lon="4.95518">
        <ele>453</ele>
        <time>2022-05-15T12:11:11Z</time>
      </trkpt>
      <trkpt lat="47.23247" lon="4.95518">
        <ele>450</ele>
        <time>2022-05-15T12:11:13Z</time>
      </trkpt>
      <trkpt lat="47.23246" lon="4.95518">
        <ele>450</ele>
        <time>2022-05-15T12:11:15Z</time>
      </trkpt>
      <trkpt lat="47.23244" lon="4.95518">
        <ele>450</ele>
        <time>2022-05-15T12:11:16Z</time>
      </trkpt>
      <trkpt lat="47.23243" lon="4.95518">
        <ele>449</ele>
        <time>2022-05-15T12:11:17Z</time>
      </trkpt>
      <trkpt lat="47.23241" lon="4.95518">
        <ele>448</ele>
        <time>2022-05-15T12:11:18Z</time>
      </trkpt>
      <trkpt lat="47.23239" lon="4.95519">
        <ele>447</ele>
        <time>2022-05-15T12:11:19Z</time>
      </trkpt>
      <trkpt lat="47.23238" lon="4.9552">
        <ele>448</ele>
        <time>2022-05-15T12:11:21Z</time>
      </trkpt>
      <trkpt lat="47.23237" lon="4.95521">
        <ele>448</ele>
        <time>2022-05-15T12:11:22Z</time>
      </trkpt>
      <trkpt lat="47.23236" lon="4.95522">
        <ele>448</ele>
        <time>2022-05-15T12:11:23Z</time>
      </trkpt>
      <trkpt lat="47.23234" lon="4.95522">
        <ele>462</ele>
        <time>2022-05-15T12:11:24Z</time>
      </trkpt>
      <trkpt lat="47.23233" lon="4.95522">
        <ele>458</ele>
        <time>2022-05-15T12:11:25Z</time>
      </trkpt>
      <trkpt lat="47.23232" lon="4.95522">
        <ele>454</ele>
        <time>2022-05-15T12:11:26Z</time>
      </trkpt>
      <trkpt lat="47.23229" lon="4.95522">
        <ele>451</ele>
        <time>2022-05-15T12:11:28Z</time>
      </trkpt>
      <trkpt lat="47.23228" lon="4.95522">
        <ele>450</ele>
        <time>2022-05-15T12:11:29Z</time>
      </trkpt>
      <trkpt lat="47.23227" lon="4.95523">
        <ele>447</ele>
        <time>2022-05-15T12:11:30Z</time>
      </trkpt>
      <trkpt lat="47.23225" lon="4.95524">
        <ele>446</ele>
        <time>2022-05-15T12:11:31Z</time>
      </trkpt>
      <trkpt lat="47.23224" lon="4.95525">
        <ele>446</ele>
        <time>2022-05-15T12:11:32Z</time>
      </trkpt>
      <trkpt lat="47.23223" lon="4.95524">
        <ele>458</ele>
        <time>2022-05-15T12:11:33Z</time>
      </trkpt>
      <trkpt lat="47.23222" lon="4.95524">
        <ele>456</ele>
        <time>2022-05-15T12:11:34Z</time>
      </trkpt>
      <trkpt lat="47.2322" lon="4.95524">
        <ele>454</ele>
        <time>2022-05-15T12:11:35Z</time>
      </trkpt>
      <trkpt lat="47.23219" lon="4.95524">
        <ele>451</ele>
        <time>2022-05-15T12:11:36Z</time>
      </trkpt>
      <trkpt lat="47.23218" lon="4.95524">
        <ele>450</ele>
        <time>2022-05-15T12:11:38Z</time>
      </trkpt>
      <trkpt lat="47.23216" lon="4.95524">
        <ele>444</ele>
        <time>2022-05-15T12:11:46Z</time>
      </trkpt>
      <trkpt lat="47.23213" lon="4.95524">
        <ele>444</ele>
        <time>2022-05-15T12:11:47Z</time>
      </trkpt>
      <trkpt lat="47.23211" lon="4.95523">
        <ele>444</ele>
        <time>2022-05-15T12:11:48Z</time>
      </trkpt>
      <trkpt lat="47.23209" lon="4.95523">
        <ele>444</ele>
        <time>2022-05-15T12:11:49Z</time>
      </trkpt>
      <trkpt lat="47.23208" lon="4.95523">
        <ele>444</ele>
        <time>2022-05-15T12:11:50Z</time>
      </trkpt>
      <trkpt lat="47.23207" lon="4.95522">
        <ele>445</ele>
        <time>2022-05-15T12:11:51Z</time>
      </trkpt>
      <trkpt lat="47.23205" lon="4.95521">
        <ele>445</ele>
        <time>2022-05-15T12:11:53Z</time>
      </trkpt>
      <trkpt lat="47.23204" lon="4.95521">
        <ele>445</ele>
        <time>2022-05-15T12:11:54Z</time>
      </trkpt>
      <trkpt lat="47.23202" lon="4.95521">
        <ele>443</ele>
        <time>2022-05-15T12:11:55Z</time>
      </trkpt>
      <trkpt lat="47.23201" lon="4.9552">
        <ele>443</ele>
        <time>2022-05-15T12:11:56Z</time>
      </trkpt>
      <trkpt lat="47.232" lon="4.9552">
        <ele>443</ele>
        <time>2022-05-15T12:11:57Z</time>
      </trkpt>
      <trkpt lat="47.23199" lon="4.95519">
        <ele>445</ele>
        <time>2022-05-15T12:11:58Z</time>
      </trkpt>
      <trkpt lat="47.23198" lon="4.95519">
        <ele>445</ele>
        <time>2022-05-15T12:11:59Z</time>
      </trkpt>
      <trkpt lat="47.23197" lon="4.95518">
        <ele>445</ele>
        <time>2022-05-15T12:12:00Z</time>
      </trkpt>
      <trkpt lat="47.23195" lon="4.95517">
        <ele>446</ele>
        <time>2022-05-15T12:12:01Z</time>
      </trkpt>
      <trkpt lat="47.23194" lon="4.95516">
        <ele>446</ele>
        <time>2022-05-15T12:12:02Z</time>
      </trkpt>
      <trkpt lat="47.23193" lon="4.95516">
        <ele>446</ele>
        <time>2022-05-15T12:12:03Z</time>
      </trkpt>
      <trkpt lat="47.23192" lon="4.95515">
        <ele>448</ele>
        <time>2022-05-15T12:12:04Z</time>
      </trkpt>
      <trkpt lat="47.23191" lon="4.95514">
        <ele>448</ele>
        <time>2022-05-15T12:12:05Z</time>
      </trkpt>
      <trkpt lat="47.2319" lon="4.95514">
        <ele>447</ele>
        <time>2022-05-15T12:12:06Z</time>
      </trkpt>
      <trkpt lat="47.23188" lon="4.95513">
        <ele>445</ele>
        <time>2022-05-15T12:12:11Z</time>
      </trkpt>
      <trkpt lat="47.23187" lon="4.95512">
        <ele>445</ele>
        <time>2022-05-15T12:12:12Z</time>
      </trkpt>
      <trkpt lat="47.23186" lon="4.95512">
        <ele>445</ele>
        <time>2022-05-15T12:12:13Z</time>
      </trkpt>
      <trkpt lat="47.23185" lon="4.95512">
        <ele>447</ele>
        <time>2022-05-15T12:12:14Z</time>
      </trkpt>
      <trkpt lat="47.23184" lon="4.95512">
        <ele>449</ele>
        <time>2022-05-15T12:12:15Z</time>
      </trkpt>
      <trkpt lat="47.23183" lon="4.95512">
        <ele>450</ele>
        <time>2022-05-15T12:12:16Z</time>
      </trkpt>
      <trkpt lat="47.23181" lon="4.95512">
        <ele>451</ele>
        <time>2022-05-15T12:12:17Z</time>
      </trkpt>
      <trkpt lat="47.2318" lon="4.95511">
        <ele>451</ele>
        <time>2022-05-15T12:12:18Z</time>
      </trkpt>
      <trkpt lat="47.23179" lon="4.9551">
        <ele>448</ele>
        <time>2022-05-15T12:12:19Z</time>
      </trkpt>
      <trkpt lat="47.23178" lon="4.95509">
        <ele>464</ele>
        <time>2022-05-15T12:12:21Z</time>
      </trkpt>
      <trkpt lat="47.23177" lon="4.95509">
        <ele>460</ele>
        <time>2022-05-15T12:12:22Z</time>
      </trkpt>
      <trkpt lat="47.23175" lon="4.95508">
        <ele>455</ele>
        <time>2022-05-15T12:12:23Z</time>
      </trkpt>
      <trkpt lat="47.23174" lon="4.95508">
        <ele>454</ele>
        <time>2022-05-15T12:12:24Z</time>
      </trkpt>
      <trkpt lat="47.23173" lon="4.95507">
        <ele>452</ele>
        <time>2022-05-15T12:12:26Z</time>
      </trkpt>
      <trkpt lat="47.23172" lon="4.95506">
        <ele>450</ele>
        <time>2022-05-15T12:12:27Z</time>
      </trkpt>
      <trkpt lat="47.23169" lon="4.95505">
        <ele>451</ele>
        <time>2022-05-15T12:12:29Z</time>
      </trkpt>
      <trkpt lat="47.23168" lon="4.95504">
        <ele>451</ele>
        <time>2022-05-15T12:12:30Z</time>
      </trkpt>
      <trkpt lat="47.23167" lon="4.95504">
        <ele>450</ele>
        <time>2022-05-15T12:12:31Z</time>
      </trkpt>
      <trkpt lat="47.23166" lon="4.95503">
        <ele>451</ele>
        <time>2022-05-15T12:12:32Z</time>
      </trkpt>
      <trkpt lat="47.23165" lon="4.95503">
        <ele>450</ele>
        <time>2022-05-15T12:12:33Z</time>
      </trkpt>
      <trkpt lat="47.23164" lon="4.95502">
        <ele>451</ele>
        <time>2022-05-15T12:12:34Z</time>
      </trkpt>
      <trkpt lat="47.23163" lon="4.95502">
        <ele>450</ele>
        <time>2022-05-15T12:12:35Z</time>
      </trkpt>
      <trkpt lat="47.23161" lon="4.95501">
        <ele>450</ele>
        <time>2022-05-15T12:12:36Z</time>
      </trkpt>
      <trkpt lat="47.2316" lon="4.95501">
        <ele>451</ele>
        <time>2022-05-15T12:12:37Z</time>
      </trkpt>
      <trkpt lat="47.23159" lon="4.95501">
        <ele>451</ele>
        <time>2022-05-15T12:12:38Z</time>
      </trkpt>
      <trkpt lat="47.23157" lon="4.955">
        <ele>452</ele>
        <time>2022-05-15T12:12:39Z</time>
      </trkpt>
      <trkpt lat="47.23156" lon="4.955">
        <ele>450</ele>
        <time>2022-05-15T12:12:40Z</time>
      </trkpt>
      <trkpt lat="47.23154" lon="4.955">
        <ele>446</ele>
        <time>2022-05-15T12:12:42Z</time>
      </trkpt>
      <trkpt lat="47.23153" lon="4.95499">
        <ele>446</ele>
        <time>2022-05-15T12:12:44Z</time>
      </trkpt>
      <trkpt lat="47.23151" lon="4.95499">
        <ele>445</ele>
        <time>2022-05-15T12:12:45Z</time>
      </trkpt>
      <trkpt lat="47.2315" lon="4.955">
        <ele>445</ele>
        <time>2022-05-15T12:12:46Z</time>
      </trkpt>
      <trkpt lat="47.23149" lon="4.955">
        <ele>445</ele>
        <time>2022-05-15T12:12:49Z</time>
      </trkpt>
      <trkpt lat="47.23148" lon="4.955">
        <ele>445</ele>
        <time>2022-05-15T12:12:50Z</time>
      </trkpt>
      <trkpt lat="47.23147" lon="4.955">
        <ele>445</ele>
        <time>2022-05-15T12:12:51Z</time>
      </trkpt>
      <trkpt lat="47.23146" lon="4.955">
        <ele>445</ele>
        <time>2022-05-15T12:12:52Z</time>
      </trkpt>
      <trkpt lat="47.23145" lon="4.955">
        <ele>443</ele>
        <time>2022-05-15T12:12:54Z</time>
      </trkpt>
      <trkpt lat="47.23144" lon="4.95499">
        <ele>442</ele>
        <time>2022-05-15T12:12:55Z</time>
      </trkpt>
      <trkpt lat="47.23142" lon="4.95499">
        <ele>441</ele>
        <time>2022-05-15T12:12:56Z</time>
      </trkpt>
      <trkpt lat="47.23141" lon="4.95498">
        <ele>441</ele>
        <time>2022-05-15T12:12:57Z</time>
      </trkpt>
      <trkpt lat="47.2314" lon="4.95498">
        <ele>440</ele>
        <time>2022-05-15T12:12:58Z</time>
      </trkpt>
      <trkpt lat="47.23139" lon="4.95497">
        <ele>440</ele>
        <time>2022-05-15T12:12:59Z</time>
      </trkpt>
      <trkpt lat="47.23138" lon="4.95496">
        <ele>441</ele>
        <time>2022-05-15T12:13:00Z</time>
      </trkpt>
      <trkpt lat="47.23137" lon="4.95496">
        <ele>440</ele>
        <time>2022-05-15T12:13:01Z</time>
      </trkpt>
      <trkpt lat="47.23136" lon="4.95495">
        <ele>440</ele>
        <time>2022-05-15T12:13:02Z</time>
      </trkpt>
      <trkpt lat="47.23135" lon="4.95494">
        <ele>440</ele>
        <time>2022-05-15T12:13:03Z</time>
      </trkpt>
      <trkpt lat="47.23134" lon="4.95492">
        <ele>441</ele>
        <time>2022-05-15T12:13:04Z</time>
      </trkpt>
      <trkpt lat="47.23133" lon="4.95491">
        <ele>441</ele>
        <time>2022-05-15T12:13:05Z</time>
      </trkpt>
      <trkpt lat="47.23132" lon="4.9549">
        <ele>442</ele>
        <time>2022-05-15T12:13:06Z</time>
      </trkpt>
      <trkpt lat="47.23131" lon="4.95489">
        <ele>443</ele>
        <time>2022-05-15T12:13:07Z</time>
      </trkpt>
      <trkpt lat="47.2313" lon="4.95488">
        <ele>442</ele>
        <time>2022-05-15T12:13:09Z</time>
      </trkpt>
      <trkpt lat="47.23129" lon="4.95486">
        <ele>442</ele>
        <time>2022-05-15T12:13:11Z</time>
      </trkpt>
      <trkpt lat="47.23128" lon="4.95484">
        <ele>442</ele>
        <time>2022-05-15T12:13:12Z</time>
      </trkpt>
      <trkpt lat="47.23127" lon="4.95484">
        <ele>442</ele>
        <time>2022-05-15T12:13:13Z</time>
      </trkpt>
      <trkpt lat="47.23126" lon="4.95483">
        <ele>443</ele>
        <time>2022-05-15T12:13:14Z</time>
      </trkpt>
      <trkpt lat="47.23125" lon="4.95482">
        <ele>442</ele>
        <time>2022-05-15T12:13:15Z</time>
      </trkpt>
      <trkpt lat="47.23123" lon="4.95481">
        <ele>442</ele>
        <time>2022-05-15T12:13:17Z</time>
      </trkpt>
      <trkpt lat="47.23123" lon="4.95479">
        <ele>442</ele>
        <time>2022-05-15T12:13:18Z</time>
      </trkpt>
      <trkpt lat="47.23122" lon="4.95478">
        <ele>442</ele>
        <time>2022-05-15T12:13:19Z</time>
      </trkpt>
      <trkpt lat="47.23121" lon="4.95477">
        <ele>443</ele>
        <time>2022-05-15T12:13:20Z</time>
      </trkpt>
      <trkpt lat="47.23121" lon="4.95476">
        <ele>443</ele>
        <time>2022-05-15T12:13:21Z</time>
      </trkpt>
      <trkpt lat="47.2312" lon="4.95475">
        <ele>444</ele>
        <time>2022-05-15T12:13:23Z</time>
      </trkpt>
      <trkpt lat="47.23118" lon="4.95474">
        <ele>444</ele>
        <time>2022-05-15T12:13:25Z</time>
      </trkpt>
      <trkpt lat="47.23117" lon="4.95473">
        <ele>443</ele>
        <time>2022-05-15T12:13:26Z</time>
      </trkpt>
      <trkpt lat="47.23116" lon="4.95473">
        <ele>443</ele>
        <time>2022-05-15T12:13:28Z</time>
      </trkpt>
      <trkpt lat="47.23114" lon="4.95473">
        <ele>443</ele>
        <time>2022-05-15T12:13:30Z</time>
      </trkpt>
      <trkpt lat="47.23113" lon="4.95472">
        <ele>442</ele>
        <time>2022-05-15T12:13:32Z</time>
      </trkpt>
      <trkpt lat="47.23112" lon="4.95471">
        <ele>441</ele>
        <time>2022-05-15T12:13:34Z</time>
      </trkpt>
      <trkpt lat="47.2311" lon="4.9547">
        <ele>440</ele>
        <time>2022-05-15T12:13:36Z</time>
      </trkpt>
      <trkpt lat="47.23109" lon="4.95469">
        <ele>440</ele>
        <time>2022-05-15T12:13:37Z</time>
      </trkpt>
      <trkpt lat="47.23108" lon="4.95468">
        <ele>440</ele>
        <time>2022-05-15T12:13:38Z</time>
      </trkpt>
      <trkpt lat="47.23107" lon="4.95467">
        <ele>438</ele>
        <time>2022-05-15T12:13:40Z</time>
      </trkpt>
      <trkpt lat="47.23106" lon="4.95466">
        <ele>439</ele>
        <time>2022-05-15T12:13:41Z</time>
      </trkpt>
      <trkpt lat="47.23105" lon="4.95464">
        <ele>440</ele>
        <time>2022-05-15T12:13:43Z</time>
      </trkpt>
      <trkpt lat="47.23104" lon="4.95462">
        <ele>440</ele>
        <time>2022-05-15T12:13:44Z</time>
      </trkpt>
      <trkpt lat="47.23103" lon="4.95461">
        <ele>440</ele>
        <time>2022-05-15T12:13:45Z</time>
      </trkpt>
      <trkpt lat="47.23103" lon="4.9546">
        <ele>441</ele>
        <time>2022-05-15T12:13:46Z</time>
      </trkpt>
      <trkpt lat="47.23103" lon="4.95459">
        <ele>440</ele>
        <time>2022-05-15T12:13:47Z</time>
      </trkpt>
      <trkpt lat="47.23102" lon="4.95457">
        <ele>440</ele>
        <time>2022-05-15T12:13:49Z</time>
      </trkpt>
      <trkpt lat="47.23102" lon="4.95455">
        <ele>440</ele>
        <time>2022-05-15T12:13:51Z</time>
      </trkpt>
      <trkpt lat="47.23101" lon="4.95453">
        <ele>442</ele>
        <time>2022-05-15T12:13:53Z</time>
      </trkpt>
      <trkpt lat="47.23101" lon="4.95451">
        <ele>443</ele>
        <time>2022-05-15T12:13:55Z</time>
      </trkpt>
      <trkpt lat="47.231" lon="4.9545">
        <ele>443</ele>
        <time>2022-05-15T12:13:57Z</time>
      </trkpt>
      <trkpt lat="47.231" lon="4.95447">
        <ele>443</ele>
        <time>2022-05-15T12:13:59Z</time>
      </trkpt>
      <trkpt lat="47.23099" lon="4.95446">
        <ele>444</ele>
        <time>2022-05-15T12:14:00Z</time>
      </trkpt>
      <trkpt lat="47.23099" lon="4.95445">
        <ele>444</ele>
        <time>2022-05-15T12:14:01Z</time>
      </trkpt>
      <trkpt lat="47.23099" lon="4.95442">
        <ele>443</ele>
        <time>2022-05-15T12:14:03Z</time>
      </trkpt>
      <trkpt lat="47.23098" lon="4.9544">
        <ele>444</ele>
        <time>2022-05-15T12:14:05Z</time>
      </trkpt>
      <trkpt lat="47.23097" lon="4.95438">
        <ele>445</ele>
        <time>2022-05-15T12:14:07Z</time>
      </trkpt>
      <trkpt lat="47.23097" lon="4.95437">
        <ele>445</ele>
        <time>2022-05-15T12:14:08Z</time>
      </trkpt>
      <trkpt lat="47.23096" lon="4.95435">
        <ele>445</ele>
        <time>2022-05-15T12:14:09Z</time>
      </trkpt>
      <trkpt lat="47.23096" lon="4.95433">
        <ele>444</ele>
        <time>2022-05-15T12:14:11Z</time>
      </trkpt>
      <trkpt lat="47.23095" lon="4.95432">
        <ele>445</ele>
        <time>2022-05-15T12:14:13Z</time>
      </trkpt>
      <trkpt lat="47.23095" lon="4.9543">
        <ele>445</ele>
        <time>2022-05-15T12:14:14Z</time>
      </trkpt>
      <trkpt lat="47.23094" lon="4.95429">
        <ele>445</ele>
        <time>2022-05-15T12:14:15Z</time>
      </trkpt>
      <trkpt lat="47.23094" lon="4.95428">
        <ele>445</ele>
        <time>2022-05-15T12:14:16Z</time>
      </trkpt>
      <trkpt lat="47.23094" lon="4.95426">
        <ele>445</ele>
        <time>2022-05-15T12:14:18Z</time>
      </trkpt>
      <trkpt lat="47.23094" lon="4.95423">
        <ele>444</ele>
        <time>2022-05-15T12:14:20Z</time>
      </trkpt>
      <trkpt lat="47.23094" lon="4.95422">
        <ele>443</ele>
        <time>2022-05-15T12:14:21Z</time>
      </trkpt>
      <trkpt lat="47.23094" lon="4.95419">
        <ele>444</ele>
        <time>2022-05-15T12:14:23Z</time>
      </trkpt>
      <trkpt lat="47.23094" lon="4.95418">
        <ele>444</ele>
        <time>2022-05-15T12:14:24Z</time>
      </trkpt>
      <trkpt lat="47.23094" lon="4.95416">
        <ele>443</ele>
        <time>2022-05-15T12:14:25Z</time>
      </trkpt>
      <trkpt lat="47.23095" lon="4.95415">
        <ele>444</ele>
        <time>2022-05-15T12:14:26Z</time>
      </trkpt>
      <trkpt lat="47.23095" lon="4.95413">
        <ele>443</ele>
        <time>2022-05-15T12:14:27Z</time>
      </trkpt>
      <trkpt lat="47.23095" lon="4.95412">
        <ele>444</ele>
        <time>2022-05-15T12:14:28Z</time>
      </trkpt>
      <trkpt lat="47.23095" lon="4.95408">
        <ele>445</ele>
        <time>2022-05-15T12:14:31Z</time>
      </trkpt>
      <trkpt lat="47.23095" lon="4.95407">
        <ele>445</ele>
        <time>2022-05-15T12:14:32Z</time>
      </trkpt>
      <trkpt lat="47.23095" lon="4.95405">
        <ele>444</ele>
        <time>2022-05-15T12:14:33Z</time>
      </trkpt>
      <trkpt lat="47.23096" lon="4.95403">
        <ele>444</ele>
        <time>2022-05-15T12:14:34Z</time>
      </trkpt>
      <trkpt lat="47.23096" lon="4.95402">
        <ele>445</ele>
        <time>2022-05-15T12:14:35Z</time>
      </trkpt>
      <trkpt lat="47.23096" lon="4.954">
        <ele>444</ele>
        <time>2022-05-15T12:14:37Z</time>
      </trkpt>
      <trkpt lat="47.23096" lon="4.95398">
        <ele>444</ele>
        <time>2022-05-15T12:14:38Z</time>
      </trkpt>
      <trkpt lat="47.23097" lon="4.95396">
        <ele>443</ele>
        <time>2022-05-15T12:14:40Z</time>
      </trkpt>
      <trkpt lat="47.23097" lon="4.95393">
        <ele>444</ele>
        <time>2022-05-15T12:14:42Z</time>
      </trkpt>
      <trkpt lat="47.23097" lon="4.95391">
        <ele>444</ele>
        <time>2022-05-15T12:14:44Z</time>
      </trkpt>
      <trkpt lat="47.23097" lon="4.95389">
        <ele>444</ele>
        <time>2022-05-15T12:14:45Z</time>
      </trkpt>
      <trkpt lat="47.23097" lon="4.95388">
        <ele>443</ele>
        <time>2022-05-15T12:14:46Z</time>
      </trkpt>
      <trkpt lat="47.23097" lon="4.95385">
        <ele>443</ele>
        <time>2022-05-15T12:14:48Z</time>
      </trkpt>
      <trkpt lat="47.23097" lon="4.95383">
        <ele>443</ele>
        <time>2022-05-15T12:14:50Z</time>
      </trkpt>
      <trkpt lat="47.23096" lon="4.95381">
        <ele>443</ele>
        <time>2022-05-15T12:14:52Z</time>
      </trkpt>
      <trkpt lat="47.23096" lon="4.95379">
        <ele>443</ele>
        <time>2022-05-15T12:14:54Z</time>
      </trkpt>
      <trkpt lat="47.23096" lon="4.95376">
        <ele>444</ele>
        <time>2022-05-15T12:14:56Z</time>
      </trkpt>
      <trkpt lat="47.23096" lon="4.95374">
        <ele>444</ele>
        <time>2022-05-15T12:14:58Z</time>
      </trkpt>
      <trkpt lat="47.23096" lon="4.95372">
        <ele>444</ele>
        <time>2022-05-15T12:14:59Z</time>
      </trkpt>
      <trkpt lat="47.23096" lon="4.95369">
        <ele>444</ele>
        <time>2022-05-15T12:15:01Z</time>
      </trkpt>
      <trkpt lat="47.23096" lon="4.95368">
        <ele>444</ele>
        <time>2022-05-15T12:15:02Z</time>
      </trkpt>
      <trkpt lat="47.23096" lon="4.95366">
        <ele>444</ele>
        <time>2022-05-15T12:15:03Z</time>
      </trkpt>
      <trkpt lat="47.23096" lon="4.95365">
        <ele>444</ele>
        <time>2022-05-15T12:15:04Z</time>
      </trkpt>
      <trkpt lat="47.23096" lon="4.95363">
        <ele>444</ele>
        <time>2022-05-15T12:15:05Z</time>
      </trkpt>
      <trkpt lat="47.23096" lon="4.95362">
        <ele>444</ele>
        <time>2022-05-15T12:15:06Z</time>
      </trkpt>
      <trkpt lat="47.23096" lon="4.9536">
        <ele>444</ele>
        <time>2022-05-15T12:15:07Z</time>
      </trkpt>
      <trkpt lat="47.23095" lon="4.95358">
        <ele>444</ele>
        <time>2022-05-15T12:15:08Z</time>
      </trkpt>
      <trkpt lat="47.23095" lon="4.95356">
        <ele>445</ele>
        <time>2022-05-15T12:15:10Z</time>
      </trkpt>
      <trkpt lat="47.23095" lon="4.95354">
        <ele>446</ele>
        <time>2022-05-15T12:15:12Z</time>
      </trkpt>
      <trkpt lat="47.23094" lon="4.95352">
        <ele>447</ele>
        <time>2022-05-15T12:15:14Z</time>
      </trkpt>
      <trkpt lat="47.23094" lon="4.9535">
        <ele>447</ele>
        <time>2022-05-15T12:15:15Z</time>
      </trkpt>
      <trkpt lat="47.23094" lon="4.95349">
        <ele>447</ele>
        <time>2022-05-15T12:15:16Z</time>
      </trkpt>
      <trkpt lat="47.23094" lon="4.95347">
        <ele>447</ele>
        <time>2022-05-15T12:15:17Z</time>
      </trkpt>
      <trkpt lat="47.23094" lon="4.95346">
        <ele>448</ele>
        <time>2022-05-15T12:15:18Z</time>
      </trkpt>
      <trkpt lat="47.23094" lon="4.95344">
        <ele>448</ele>
        <time>2022-05-15T12:15:19Z</time>
      </trkpt>
      <trkpt lat="47.23094" lon="4.95343">
        <ele>449</ele>
        <time>2022-05-15T12:15:20Z</time>
      </trkpt>
      <trkpt lat="47.23094" lon="4.95341">
        <ele>448</ele>
        <time>2022-05-15T12:15:21Z</time>
      </trkpt>
      <trkpt lat="47.23094" lon="4.95339">
        <ele>446</ele>
        <time>2022-05-15T12:15:23Z</time>
      </trkpt>
      <trkpt lat="47.23094" lon="4.95337">
        <ele>446</ele>
        <time>2022-05-15T12:15:24Z</time>
      </trkpt>
      <trkpt lat="47.23094" lon="4.95336">
        <ele>446</ele>
        <time>2022-05-15T12:15:25Z</time>
      </trkpt>
      <trkpt lat="47.23094" lon="4.95335">
        <ele>445</ele>
        <time>2022-05-15T12:15:26Z</time>
      </trkpt>
      <trkpt lat="47.23095" lon="4.95332">
        <ele>446</ele>
        <time>2022-05-15T12:15:28Z</time>
      </trkpt>
      <trkpt lat="47.23095" lon="4.95331">
        <ele>446</ele>
        <time>2022-05-15T12:15:30Z</time>
      </trkpt>
      <trkpt lat="47.23096" lon="4.9533">
        <ele>446</ele>
        <time>2022-05-15T12:15:32Z</time>
      </trkpt>
      <trkpt lat="47.23097" lon="4.95328">
        <ele>447</ele>
        <time>2022-05-15T12:15:34Z</time>
      </trkpt>
      <trkpt lat="47.23097" lon="4.95327">
        <ele>449</ele>
        <time>2022-05-15T12:15:36Z</time>
      </trkpt>
      <trkpt lat="47.23098" lon="4.95325">
        <ele>450</ele>
        <time>2022-05-15T12:15:38Z</time>
      </trkpt>
      <trkpt lat="47.23098" lon="4.95323">
        <ele>451</ele>
        <time>2022-05-15T12:15:40Z</time>
      </trkpt>
      <trkpt lat="47.23098" lon="4.95321">
        <ele>450</ele>
        <time>2022-05-15T12:15:41Z</time>
      </trkpt>
      <trkpt lat="47.23098" lon="4.95319">
        <ele>450</ele>
        <time>2022-05-15T12:15:42Z</time>
      </trkpt>
      <trkpt lat="47.23098" lon="4.95317">
        <ele>450</ele>
        <time>2022-05-15T12:15:43Z</time>
      </trkpt>
      <trkpt lat="47.23098" lon="4.95315">
        <ele>450</ele>
        <time>2022-05-15T12:15:44Z</time>
      </trkpt>
      <trkpt lat="47.23098" lon="4.95313">
        <ele>450</ele>
        <time>2022-05-15T12:15:45Z</time>
      </trkpt>
      <trkpt lat="47.23097" lon="4.95311">
        <ele>450</ele>
        <time>2022-05-15T12:15:46Z</time>
      </trkpt>
      <trkpt lat="47.23097" lon="4.95309">
        <ele>450</ele>
        <time>2022-05-15T12:15:48Z</time>
      </trkpt>
      <trkpt lat="47.23096" lon="4.95308">
        <ele>449</ele>
        <time>2022-05-15T12:15:49Z</time>
      </trkpt>
      <trkpt lat="47.23096" lon="4.95306">
        <ele>450</ele>
        <time>2022-05-15T12:15:50Z</time>
      </trkpt>
      <trkpt lat="47.23096" lon="4.95304">
        <ele>450</ele>
        <time>2022-05-15T12:15:51Z</time>
      </trkpt>
      <trkpt lat="47.23096" lon="4.95302">
        <ele>449</ele>
        <time>2022-05-15T12:15:52Z</time>
      </trkpt>
      <trkpt lat="47.23096" lon="4.95301">
        <ele>449</ele>
        <time>2022-05-15T12:15:53Z</time>
      </trkpt>
      <trkpt lat="47.23097" lon="4.95299">
        <ele>449</ele>
        <time>2022-05-15T12:15:54Z</time>
      </trkpt>
      <trkpt lat="47.23097" lon="4.95297">
        <ele>449</ele>
        <time>2022-05-15T12:15:55Z</time>
      </trkpt>
      <trkpt lat="47.23097" lon="4.95296">
        <ele>450</ele>
        <time>2022-05-15T12:15:56Z</time>
      </trkpt>
      <trkpt lat="47.23097" lon="4.95294">
        <ele>450</ele>
        <time>2022-05-15T12:15:57Z</time>
      </trkpt>
      <trkpt lat="47.23097" lon="4.95292">
        <ele>450</ele>
        <time>2022-05-15T12:15:58Z</time>
      </trkpt>
      <trkpt lat="47.23098" lon="4.9529">
        <ele>450</ele>
        <time>2022-05-15T12:16:00Z</time>
      </trkpt>
      <trkpt lat="47.23098" lon="4.95288">
        <ele>450</ele>
        <time>2022-05-15T12:16:01Z</time>
      </trkpt>
      <trkpt lat="47.23098" lon="4.95286">
        <ele>449</ele>
        <time>2022-05-15T12:16:02Z</time>
      </trkpt>
      <trkpt lat="47.23099" lon="4.95285">
        <ele>449</ele>
        <time>2022-05-15T12:16:03Z</time>
      </trkpt>
      <trkpt lat="47.23099" lon="4.95283">
        <ele>449</ele>
        <time>2022-05-15T12:16:04Z</time>
      </trkpt>
      <trkpt lat="47.231" lon="4.95281">
        <ele>448</ele>
        <time>2022-05-15T12:16:05Z</time>
      </trkpt>
      <trkpt lat="47.231" lon="4.95279">
        <ele>447</ele>
        <time>2022-05-15T12:16:06Z</time>
      </trkpt>
      <trkpt lat="47.231" lon="4.95277">
        <ele>447</ele>
        <time>2022-05-15T12:16:07Z</time>
      </trkpt>
      <trkpt lat="47.23101" lon="4.95275">
        <ele>447</ele>
        <time>2022-05-15T12:16:08Z</time>
      </trkpt>
      <trkpt lat="47.23101" lon="4.95274">
        <ele>448</ele>
        <time>2022-05-15T12:16:09Z</time>
      </trkpt>
      <trkpt lat="47.23101" lon="4.95272">
        <ele>449</ele>
        <time>2022-05-15T12:16:11Z</time>
      </trkpt>
      <trkpt lat="47.23101" lon="4.9527">
        <ele>447</ele>
        <time>2022-05-15T12:16:13Z</time>
      </trkpt>
      <trkpt lat="47.23102" lon="4.95268">
        <ele>448</ele>
        <time>2022-05-15T12:16:14Z</time>
      </trkpt>
      <trkpt lat="47.23102" lon="4.95267">
        <ele>448</ele>
        <time>2022-05-15T12:16:15Z</time>
      </trkpt>
      <trkpt lat="47.23102" lon="4.95264">
        <ele>448</ele>
        <time>2022-05-15T12:16:17Z</time>
      </trkpt>
      <trkpt lat="47.23102" lon="4.95263">
        <ele>448</ele>
        <time>2022-05-15T12:16:18Z</time>
      </trkpt>
      <trkpt lat="47.23102" lon="4.95261">
        <ele>448</ele>
        <time>2022-05-15T12:16:19Z</time>
      </trkpt>
      <trkpt lat="47.23102" lon="4.9526">
        <ele>448</ele>
        <time>2022-05-15T12:16:20Z</time>
      </trkpt>
      <trkpt lat="47.23103" lon="4.95257">
        <ele>447</ele>
        <time>2022-05-15T12:16:22Z</time>
      </trkpt>
      <trkpt lat="47.23104" lon="4.95255">
        <ele>447</ele>
        <time>2022-05-15T12:16:24Z</time>
      </trkpt>
      <trkpt lat="47.23104" lon="4.95253">
        <ele>449</ele>
        <time>2022-05-15T12:16:26Z</time>
      </trkpt>
      <trkpt lat="47.23104" lon="4.9525">
        <ele>449</ele>
        <time>2022-05-15T12:16:28Z</time>
      </trkpt>
      <trkpt lat="47.23105" lon="4.95248">
        <ele>446</ele>
        <time>2022-05-15T12:16:30Z</time>
      </trkpt>
      <trkpt lat="47.23105" lon="4.95246">
        <ele>445</ele>
        <time>2022-05-15T12:16:31Z</time>
      </trkpt>
      <trkpt lat="47.23105" lon="4.95242">
        <ele>446</ele>
        <time>2022-05-15T12:16:33Z</time>
      </trkpt>
      <trkpt lat="47.23105" lon="4.9524">
        <ele>445</ele>
        <time>2022-05-15T12:16:34Z</time>
      </trkpt>
      <trkpt lat="47.23104" lon="4.95238">
        <ele>447</ele>
        <time>2022-05-15T12:16:36Z</time>
      </trkpt>
      <trkpt lat="47.23104" lon="4.95237">
        <ele>447</ele>
        <time>2022-05-15T12:16:37Z</time>
      </trkpt>
      <trkpt lat="47.23103" lon="4.95235">
        <ele>447</ele>
        <time>2022-05-15T12:16:38Z</time>
      </trkpt>
      <trkpt lat="47.23103" lon="4.95234">
        <ele>448</ele>
        <time>2022-05-15T12:16:39Z</time>
      </trkpt>
      <trkpt lat="47.23103" lon="4.95232">
        <ele>448</ele>
        <time>2022-05-15T12:16:40Z</time>
      </trkpt>
      <trkpt lat="47.23102" lon="4.9523">
        <ele>448</ele>
        <time>2022-05-15T12:16:41Z</time>
      </trkpt>
      <trkpt lat="47.23102" lon="4.95229">
        <ele>450</ele>
        <time>2022-05-15T12:16:42Z</time>
      </trkpt>
      <trkpt lat="47.231" lon="4.95227">
        <ele>450</ele>
        <time>2022-05-15T12:16:43Z</time>
      </trkpt>
      <trkpt lat="47.23099" lon="4.95226">
        <ele>448</ele>
        <time>2022-05-15T12:16:44Z</time>
      </trkpt>
      <trkpt lat="47.23098" lon="4.95225">
        <ele>451</ele>
        <time>2022-05-15T12:16:45Z</time>
      </trkpt>
      <trkpt lat="47.23097" lon="4.95223">
        <ele>453</ele>
        <time>2022-05-15T12:16:47Z</time>
      </trkpt>
      <trkpt lat="47.23097" lon="4.95221">
        <ele>453</ele>
        <time>2022-05-15T12:16:49Z</time>
      </trkpt>
      <trkpt lat="47.23096" lon="4.95218">
        <ele>453</ele>
        <time>2022-05-15T12:16:51Z</time>
      </trkpt>
      <trkpt lat="47.23097" lon="4.95217">
        <ele>452</ele>
        <time>2022-05-15T12:16:52Z</time>
      </trkpt>
      <trkpt lat="47.23097" lon="4.95214">
        <ele>452</ele>
        <time>2022-05-15T12:16:53Z</time>
      </trkpt>
      <trkpt lat="47.23097" lon="4.95213">
        <ele>451</ele>
        <time>2022-05-15T12:16:54Z</time>
      </trkpt>
      <trkpt lat="47.23098" lon="4.9521">
        <ele>452</ele>
        <time>2022-05-15T12:16:56Z</time>
      </trkpt>
      <trkpt lat="47.23098" lon="4.95208">
        <ele>451</ele>
        <time>2022-05-15T12:16:57Z</time>
      </trkpt>
      <trkpt lat="47.23098" lon="4.95207">
        <ele>451</ele>
        <time>2022-05-15T12:16:58Z</time>
      </trkpt>
      <trkpt lat="47.23099" lon="4.95206">
        <ele>451</ele>
        <time>2022-05-15T12:16:59Z</time>
      </trkpt>
      <trkpt lat="47.231" lon="4.95204">
        <ele>452</ele>
        <time>2022-05-15T12:17:01Z</time>
      </trkpt>
      <trkpt lat="47.23101" lon="4.95203">
        <ele>453</ele>
        <time>2022-05-15T12:17:03Z</time>
      </trkpt>
      <trkpt lat="47.23101" lon="4.95201">
        <ele>452</ele>
        <time>2022-05-15T12:17:05Z</time>
      </trkpt>
      <trkpt lat="47.23101" lon="4.952">
        <ele>452</ele>
        <time>2022-05-15T12:17:06Z</time>
      </trkpt>
      <trkpt lat="47.23101" lon="4.95198">
        <ele>452</ele>
        <time>2022-05-15T12:17:07Z</time>
      </trkpt>
      <trkpt lat="47.23102" lon="4.95196">
        <ele>452</ele>
        <time>2022-05-15T12:17:08Z</time>
      </trkpt>
      <trkpt lat="47.23102" lon="4.95195">
        <ele>452</ele>
        <time>2022-05-15T12:17:09Z</time>
      </trkpt>
      <trkpt lat="47.23102" lon="4.95193">
        <ele>452</ele>
        <time>2022-05-15T12:17:10Z</time>
      </trkpt>
      <trkpt lat="47.23102" lon="4.95191">
        <ele>453</ele>
        <time>2022-05-15T12:17:11Z</time>
      </trkpt>
      <trkpt lat="47.23101" lon="4.95189">
        <ele>453</ele>
        <time>2022-05-15T12:17:12Z</time>
      </trkpt>
      <trkpt lat="47.23101" lon="4.95187">
        <ele>452</ele>
        <time>2022-05-15T12:17:13Z</time>
      </trkpt>
      <trkpt lat="47.23101" lon="4.95185">
        <ele>451</ele>
        <time>2022-05-15T12:17:14Z</time>
      </trkpt>
      <trkpt lat="47.23101" lon="4.95183">
        <ele>451</ele>
        <time>2022-05-15T12:17:15Z</time>
      </trkpt>
      <trkpt lat="47.23101" lon="4.95181">
        <ele>450</ele>
        <time>2022-05-15T12:17:16Z</time>
      </trkpt>
      <trkpt lat="47.23101" lon="4.9518">
        <ele>450</ele>
        <time>2022-05-15T12:17:17Z</time>
      </trkpt>
      <trkpt lat="47.23101" lon="4.95178">
        <ele>450</ele>
        <time>2022-05-15T12:17:18Z</time>
      </trkpt>
      <trkpt lat="47.23101" lon="4.95176">
        <ele>450</ele>
        <time>2022-05-15T12:17:19Z</time>
      </trkpt>
      <trkpt lat="47.231" lon="4.95174">
        <ele>451</ele>
        <time>2022-05-15T12:17:21Z</time>
      </trkpt>
      <trkpt lat="47.231" lon="4.95173">
        <ele>450</ele>
        <time>2022-05-15T12:17:22Z</time>
      </trkpt>
      <trkpt lat="47.231" lon="4.95171">
        <ele>448</ele>
        <time>2022-05-15T12:17:23Z</time>
      </trkpt>
      <trkpt lat="47.23101" lon="4.95169">
        <ele>448</ele>
        <time>2022-05-15T12:17:24Z</time>
      </trkpt>
      <trkpt lat="47.23101" lon="4.95168">
        <ele>448</ele>
        <time>2022-05-15T12:17:25Z</time>
      </trkpt>
      <trkpt lat="47.23102" lon="4.95167">
        <ele>449</ele>
        <time>2022-05-15T12:17:26Z</time>
      </trkpt>
      <trkpt lat="47.23102" lon="4.95165">
        <ele>451</ele>
        <time>2022-05-15T12:17:28Z</time>
      </trkpt>
      <trkpt lat="47.23101" lon="4.95163">
        <ele>451</ele>
        <time>2022-05-15T12:17:30Z</time>
      </trkpt>
      <trkpt lat="47.23101" lon="4.95161">
        <ele>450</ele>
        <time>2022-05-15T12:17:31Z</time>
      </trkpt>
      <trkpt lat="47.23101" lon="4.9516">
        <ele>450</ele>
        <time>2022-05-15T12:17:32Z</time>
      </trkpt>
      <trkpt lat="47.23101" lon="4.95156">
        <ele>449</ele>
        <time>2022-05-15T12:17:34Z</time>
      </trkpt>
      <trkpt lat="47.23101" lon="4.95154">
        <ele>448</ele>
        <time>2022-05-15T12:17:35Z</time>
      </trkpt>
      <trkpt lat="47.23101" lon="4.95152">
        <ele>447</ele>
        <time>2022-05-15T12:17:36Z</time>
      </trkpt>
      <trkpt lat="47.23101" lon="4.9515">
        <ele>447</ele>
        <time>2022-05-15T12:17:37Z</time>
      </trkpt>
      <trkpt lat="47.23101" lon="4.95148">
        <ele>446</ele>
        <time>2022-05-15T12:17:38Z</time>
      </trkpt>
      <trkpt lat="47.23101" lon="4.95146">
        <ele>446</ele>
        <time>2022-05-15T12:17:39Z</time>
      </trkpt>
      <trkpt lat="47.23101" lon="4.95144">
        <ele>446</ele>
        <time>2022-05-15T12:17:40Z</time>
      </trkpt>
      <trkpt lat="47.23101" lon="4.95142">
        <ele>445</ele>
        <time>2022-05-15T12:17:41Z</time>
      </trkpt>
      <trkpt lat="47.23101" lon="4.95141">
        <ele>445</ele>
        <time>2022-05-15T12:17:43Z</time>
      </trkpt>
      <trkpt lat="47.23101" lon="4.95139">
        <ele>447</ele>
        <time>2022-05-15T12:17:45Z</time>
      </trkpt>
      <trkpt lat="47.23101" lon="4.95137">
        <ele>446</ele>
        <time>2022-05-15T12:17:47Z</time>
      </trkpt>
      <trkpt lat="47.23101" lon="4.95135">
        <ele>446</ele>
        <time>2022-05-15T12:17:49Z</time>
      </trkpt>
      <trkpt lat="47.23102" lon="4.95132">
        <ele>446</ele>
        <time>2022-05-15T12:17:51Z</time>
      </trkpt>
      <trkpt lat="47.23102" lon="4.9513">
        <ele>446</ele>
        <time>2022-05-15T12:17:52Z</time>
      </trkpt>
      <trkpt lat="47.23102" lon="4.95128">
        <ele>445</ele>
        <time>2022-05-15T12:17:53Z</time>
      </trkpt>
      <trkpt lat="47.23102" lon="4.95127">
        <ele>446</ele>
        <time>2022-05-15T12:17:54Z</time>
      </trkpt>
      <trkpt lat="47.23102" lon="4.95125">
        <ele>445</ele>
        <time>2022-05-15T12:17:55Z</time>
      </trkpt>
      <trkpt lat="47.23102" lon="4.95123">
        <ele>446</ele>
        <time>2022-05-15T12:17:56Z</time>
      </trkpt>
      <trkpt lat="47.23103" lon="4.95122">
        <ele>446</ele>
        <time>2022-05-15T12:17:57Z</time>
      </trkpt>
      <trkpt lat="47.23103" lon="4.95119">
        <ele>448</ele>
        <time>2022-05-15T12:17:59Z</time>
      </trkpt>
      <trkpt lat="47.23103" lon="4.95117">
        <ele>449</ele>
        <time>2022-05-15T12:18:01Z</time>
      </trkpt>
      <trkpt lat="47.23102" lon="4.95115">
        <ele>449</ele>
        <time>2022-05-15T12:18:02Z</time>
      </trkpt>
      <trkpt lat="47.23102" lon="4.95113">
        <ele>448</ele>
        <time>2022-05-15T12:18:03Z</time>
      </trkpt>
      <trkpt lat="47.23102" lon="4.95112">
        <ele>449</ele>
        <time>2022-05-15T12:18:04Z</time>
      </trkpt>
      <trkpt lat="47.23102" lon="4.95111">
        <ele>449</ele>
        <time>2022-05-15T12:18:05Z</time>
      </trkpt>
      <trkpt lat="47.23102" lon="4.95108">
        <ele>451</ele>
        <time>2022-05-15T12:18:07Z</time>
      </trkpt>
      <trkpt lat="47.23101" lon="4.95106">
        <ele>451</ele>
        <time>2022-05-15T12:18:08Z</time>
      </trkpt>
      <trkpt lat="47.23101" lon="4.95105">
        <ele>451</ele>
        <time>2022-05-15T12:18:09Z</time>
      </trkpt>
      <trkpt lat="47.23101" lon="4.95103">
        <ele>451</ele>
        <time>2022-05-15T12:18:10Z</time>
      </trkpt>
      <trkpt lat="47.231" lon="4.95101">
        <ele>451</ele>
        <time>2022-05-15T12:18:12Z</time>
      </trkpt>
      <trkpt lat="47.231" lon="4.951">
        <ele>451</ele>
        <time>2022-05-15T12:18:13Z</time>
      </trkpt>
      <trkpt lat="47.23099" lon="4.95098">
        <ele>451</ele>
        <time>2022-05-15T12:18:14Z</time>
      </trkpt>
      <trkpt lat="47.23099" lon="4.95097">
        <ele>451</ele>
        <time>2022-05-15T12:18:15Z</time>
      </trkpt>
      <trkpt lat="47.23099" lon="4.95095">
        <ele>451</ele>
        <time>2022-05-15T12:18:17Z</time>
      </trkpt>
      <trkpt lat="47.23099" lon="4.95092">
        <ele>452</ele>
        <time>2022-05-15T12:18:19Z</time>
      </trkpt>
      <trkpt lat="47.23099" lon="4.95091">
        <ele>454</ele>
        <time>2022-05-15T12:18:20Z</time>
      </trkpt>
      <trkpt lat="47.23099" lon="4.95089">
        <ele>454</ele>
        <time>2022-05-15T12:18:22Z</time>
      </trkpt>
      <trkpt lat="47.23098" lon="4.95087">
        <ele>454</ele>
        <time>2022-05-15T12:18:23Z</time>
      </trkpt>
      <trkpt lat="47.23098" lon="4.95086">
        <ele>453</ele>
        <time>2022-05-15T12:18:24Z</time>
      </trkpt>
      <trkpt lat="47.23098" lon="4.95084">
        <ele>453</ele>
        <time>2022-05-15T12:18:25Z</time>
      </trkpt>
      <trkpt lat="47.23098" lon="4.95082">
        <ele>454</ele>
        <time>2022-05-15T12:18:26Z</time>
      </trkpt>
      <trkpt lat="47.23098" lon="4.9508">
        <ele>455</ele>
        <time>2022-05-15T12:18:27Z</time>
      </trkpt>
      <trkpt lat="47.23098" lon="4.95078">
        <ele>453</ele>
        <time>2022-05-15T12:18:28Z</time>
      </trkpt>
      <trkpt lat="47.23097" lon="4.95077">
        <ele>453</ele>
        <time>2022-05-15T12:18:29Z</time>
      </trkpt>
      <trkpt lat="47.23097" lon="4.95075">
        <ele>453</ele>
        <time>2022-05-15T12:18:30Z</time>
      </trkpt>
      <trkpt lat="47.23097" lon="4.95073">
        <ele>453</ele>
        <time>2022-05-15T12:18:31Z</time>
      </trkpt>
      <trkpt lat="47.23096" lon="4.95071">
        <ele>452</ele>
        <time>2022-05-15T12:18:32Z</time>
      </trkpt>
      <trkpt lat="47.23096" lon="4.9507">
        <ele>452</ele>
        <time>2022-05-15T12:18:33Z</time>
      </trkpt>
      <trkpt lat="47.23097" lon="4.95065">
        <ele>452</ele>
        <time>2022-05-15T12:18:35Z</time>
      </trkpt>
      <trkpt lat="47.23097" lon="4.95063">
        <ele>452</ele>
        <time>2022-05-15T12:18:36Z</time>
      </trkpt>
      <trkpt lat="47.23097" lon="4.95062">
        <ele>452</ele>
        <time>2022-05-15T12:18:37Z</time>
      </trkpt>
      <trkpt lat="47.23097" lon="4.9506">
        <ele>452</ele>
        <time>2022-05-15T12:18:38Z</time>
      </trkpt>
      <trkpt lat="47.23098" lon="4.95058">
        <ele>452</ele>
        <time>2022-05-15T12:18:39Z</time>
      </trkpt>
      <trkpt lat="47.23098" lon="4.95056">
        <ele>452</ele>
        <time>2022-05-15T12:18:40Z</time>
      </trkpt>
      <trkpt lat="47.23098" lon="4.95054">
        <ele>452</ele>
        <time>2022-05-15T12:18:41Z</time>
      </trkpt>
      <trkpt lat="47.23098" lon="4.95053">
        <ele>452</ele>
        <time>2022-05-15T12:18:42Z</time>
      </trkpt>
      <trkpt lat="47.23098" lon="4.95051">
        <ele>452</ele>
        <time>2022-05-15T12:18:43Z</time>
      </trkpt>
      <trkpt lat="47.23098" lon="4.9505">
        <ele>452</ele>
        <time>2022-05-15T12:18:44Z</time>
      </trkpt>
      <trkpt lat="47.23099" lon="4.95048">
        <ele>452</ele>
        <time>2022-05-15T12:18:45Z</time>
      </trkpt>
      <trkpt lat="47.23099" lon="4.95046">
        <ele>452</ele>
        <time>2022-05-15T12:18:47Z</time>
      </trkpt>
      <trkpt lat="47.23099" lon="4.95043">
        <ele>452</ele>
        <time>2022-05-15T12:18:49Z</time>
      </trkpt>
      <trkpt lat="47.23099" lon="4.95042">
        <ele>452</ele>
        <time>2022-05-15T12:18:50Z</time>
      </trkpt>
      <trkpt lat="47.23099" lon="4.9504">
        <ele>452</ele>
        <time>2022-05-15T12:18:51Z</time>
      </trkpt>
      <trkpt lat="47.23099" lon="4.95039">
        <ele>453</ele>
        <time>2022-05-15T12:18:52Z</time>
      </trkpt>
      <trkpt lat="47.231" lon="4.95037">
        <ele>452</ele>
        <time>2022-05-15T12:18:53Z</time>
      </trkpt>
      <trkpt lat="47.231" lon="4.95035">
        <ele>451</ele>
        <time>2022-05-15T12:18:54Z</time>
      </trkpt>
      <trkpt lat="47.231" lon="4.95034">
        <ele>451</ele>
        <time>2022-05-15T12:18:55Z</time>
      </trkpt>
      <trkpt lat="47.231" lon="4.95032">
        <ele>452</ele>
        <time>2022-05-15T12:18:56Z</time>
      </trkpt>
      <trkpt lat="47.231" lon="4.95031">
        <ele>452</ele>
        <time>2022-05-15T12:18:57Z</time>
      </trkpt>
      <trkpt lat="47.23101" lon="4.95029">
        <ele>453</ele>
        <time>2022-05-15T12:18:58Z</time>
      </trkpt>
      <trkpt lat="47.23101" lon="4.95028">
        <ele>454</ele>
        <time>2022-05-15T12:18:59Z</time>
      </trkpt>
      <trkpt lat="47.23101" lon="4.95026">
        <ele>455</ele>
        <time>2022-05-15T12:19:00Z</time>
      </trkpt>
      <trkpt lat="47.23101" lon="4.95024">
        <ele>455</ele>
        <time>2022-05-15T12:19:02Z</time>
      </trkpt>
      <trkpt lat="47.23101" lon="4.95022">
        <ele>455</ele>
        <time>2022-05-15T12:19:04Z</time>
      </trkpt>
      <trkpt lat="47.23102" lon="4.95019">
        <ele>454</ele>
        <time>2022-05-15T12:19:06Z</time>
      </trkpt>
      <trkpt lat="47.23102" lon="4.95016">
        <ele>455</ele>
        <time>2022-05-15T12:19:08Z</time>
      </trkpt>
      <trkpt lat="47.23102" lon="4.95015">
        <ele>455</ele>
        <time>2022-05-15T12:19:09Z</time>
      </trkpt>
      <trkpt lat="47.23102" lon="4.95013">
        <ele>454</ele>
        <time>2022-05-15T12:19:10Z</time>
      </trkpt>
      <trkpt lat="47.23102" lon="4.95012">
        <ele>454</ele>
        <time>2022-05-15T12:19:11Z</time>
      </trkpt>
      <trkpt lat="47.23102" lon="4.9501">
        <ele>454</ele>
        <time>2022-05-15T12:19:12Z</time>
      </trkpt>
      <trkpt lat="47.23102" lon="4.95009">
        <ele>455</ele>
        <time>2022-05-15T12:19:13Z</time>
      </trkpt>
      <trkpt lat="47.23102" lon="4.95007">
        <ele>455</ele>
        <time>2022-05-15T12:19:14Z</time>
      </trkpt>
      <trkpt lat="47.23102" lon="4.95006">
        <ele>455</ele>
        <time>2022-05-15T12:19:15Z</time>
      </trkpt>
      <trkpt lat="47.23102" lon="4.95004">
        <ele>455</ele>
        <time>2022-05-15T12:19:16Z</time>
      </trkpt>
      <trkpt lat="47.23102" lon="4.95002">
        <ele>456</ele>
        <time>2022-05-15T12:19:18Z</time>
      </trkpt>
      <trkpt lat="47.23102" lon="4.95">
        <ele>456</ele>
        <time>2022-05-15T12:19:19Z</time>
      </trkpt>
      <trkpt lat="47.23102" lon="4.94998">
        <ele>457</ele>
        <time>2022-05-15T12:19:20Z</time>
      </trkpt>
      <trkpt lat="47.23102" lon="4.94997">
        <ele>457</ele>
        <time>2022-05-15T12:19:21Z</time>
      </trkpt>
      <trkpt lat="47.23102" lon="4.94995">
        <ele>455</ele>
        <time>2022-05-15T12:19:22Z</time>
      </trkpt>
      <trkpt lat="47.23102" lon="4.94994">
        <ele>456</ele>
        <time>2022-05-15T12:19:23Z</time>
      </trkpt>
      <trkpt lat="47.23102" lon="4.94992">
        <ele>456</ele>
        <time>2022-05-15T12:19:24Z</time>
      </trkpt>
      <trkpt lat="47.23101" lon="4.94991">
        <ele>456</ele>
        <time>2022-05-15T12:19:25Z</time>
      </trkpt>
      <trkpt lat="47.23101" lon="4.94989">
        <ele>456</ele>
        <time>2022-05-15T12:19:26Z</time>
      </trkpt>
      <trkpt lat="47.23101" lon="4.94988">
        <ele>456</ele>
        <time>2022-05-15T12:19:27Z</time>
      </trkpt>
      <trkpt lat="47.23102" lon="4.94986">
        <ele>455</ele>
        <time>2022-05-15T12:19:28Z</time>
      </trkpt>
      <trkpt lat="47.23102" lon="4.94985">
        <ele>455</ele>
        <time>2022-05-15T12:19:29Z</time>
      </trkpt>
      <trkpt lat="47.23102" lon="4.94983">
        <ele>456</ele>
        <time>2022-05-15T12:19:30Z</time>
      </trkpt>
      <trkpt lat="47.23103" lon="4.94982">
        <ele>456</ele>
        <time>2022-05-15T12:19:31Z</time>
      </trkpt>
      <trkpt lat="47.23103" lon="4.9498">
        <ele>455</ele>
        <time>2022-05-15T12:19:32Z</time>
      </trkpt>
      <trkpt lat="47.23103" lon="4.94978">
        <ele>455</ele>
        <time>2022-05-15T12:19:33Z</time>
      </trkpt>
      <trkpt lat="47.23103" lon="4.94976">
        <ele>455</ele>
        <time>2022-05-15T12:19:34Z</time>
      </trkpt>
      <trkpt lat="47.23104" lon="4.94973">
        <ele>455</ele>
        <time>2022-05-15T12:19:36Z</time>
      </trkpt>
      <trkpt lat="47.23104" lon="4.94972">
        <ele>455</ele>
        <time>2022-05-15T12:19:37Z</time>
      </trkpt>
      <trkpt lat="47.23104" lon="4.9497">
        <ele>455</ele>
        <time>2022-05-15T12:19:39Z</time>
      </trkpt>
      <trkpt lat="47.23104" lon="4.94968">
        <ele>455</ele>
        <time>2022-05-15T12:19:52Z</time>
      </trkpt>
      <trkpt lat="47.23104" lon="4.94967">
        <ele>455</ele>
        <time>2022-05-15T12:19:53Z</time>
      </trkpt>
      <trkpt lat="47.23104" lon="4.94965">
        <ele>455</ele>
        <time>2022-05-15T12:19:54Z</time>
      </trkpt>
      <trkpt lat="47.23105" lon="4.94964">
        <ele>455</ele>
        <time>2022-05-15T12:19:55Z</time>
      </trkpt>
      <trkpt lat="47.23105" lon="4.94962">
        <ele>455</ele>
        <time>2022-05-15T12:19:56Z</time>
      </trkpt>
      <trkpt lat="47.23105" lon="4.94961">
        <ele>456</ele>
        <time>2022-05-15T12:19:57Z</time>
      </trkpt>
      <trkpt lat="47.23105" lon="4.9496">
        <ele>456</ele>
        <time>2022-05-15T12:19:58Z</time>
      </trkpt>
      <trkpt lat="47.23106" lon="4.94958">
        <ele>456</ele>
        <time>2022-05-15T12:19:59Z</time>
      </trkpt>
      <trkpt lat="47.23106" lon="4.94956">
        <ele>456</ele>
        <time>2022-05-15T12:20:00Z</time>
      </trkpt>
      <trkpt lat="47.23106" lon="4.94954">
        <ele>457</ele>
        <time>2022-05-15T12:20:01Z</time>
      </trkpt>
      <trkpt lat="47.23107" lon="4.94953">
        <ele>457</ele>
        <time>2022-05-15T12:20:02Z</time>
      </trkpt>
      <trkpt lat="47.23108" lon="4.94951">
        <ele>457</ele>
        <time>2022-05-15T12:20:03Z</time>
      </trkpt>
      <trkpt lat="47.23109" lon="4.9495">
        <ele>458</ele>
        <time>2022-05-15T12:20:04Z</time>
      </trkpt>
      <trkpt lat="47.23109" lon="4.94948">
        <ele>457</ele>
        <time>2022-05-15T12:20:06Z</time>
      </trkpt>
      <trkpt lat="47.2311" lon="4.94946">
        <ele>457</ele>
        <time>2022-05-15T12:20:07Z</time>
      </trkpt>
      <trkpt lat="47.2311" lon="4.94944">
        <ele>457</ele>
        <time>2022-05-15T12:20:08Z</time>
      </trkpt>
      <trkpt lat="47.2311" lon="4.94942">
        <ele>457</ele>
        <time>2022-05-15T12:20:09Z</time>
      </trkpt>
      <trkpt lat="47.23111" lon="4.94941">
        <ele>457</ele>
        <time>2022-05-15T12:20:10Z</time>
      </trkpt>
      <trkpt lat="47.23111" lon="4.9494">
        <ele>457</ele>
        <time>2022-05-15T12:20:11Z</time>
      </trkpt>
      <trkpt lat="47.23112" lon="4.94938">
        <ele>458</ele>
        <time>2022-05-15T12:20:12Z</time>
      </trkpt>
      <trkpt lat="47.23112" lon="4.94937">
        <ele>457</ele>
        <time>2022-05-15T12:20:13Z</time>
      </trkpt>
      <trkpt lat="47.23113" lon="4.94936">
        <ele>457</ele>
        <time>2022-05-15T12:20:14Z</time>
      </trkpt>
      <trkpt lat="47.23114" lon="4.94934">
        <ele>457</ele>
        <time>2022-05-15T12:20:15Z</time>
      </trkpt>
      <trkpt lat="47.23114" lon="4.94932">
        <ele>457</ele>
        <time>2022-05-15T12:20:16Z</time>
      </trkpt>
      <trkpt lat="47.23114" lon="4.94931">
        <ele>457</ele>
        <time>2022-05-15T12:20:17Z</time>
      </trkpt>
      <trkpt lat="47.23115" lon="4.9493">
        <ele>457</ele>
        <time>2022-05-15T12:20:18Z</time>
      </trkpt>
      <trkpt lat="47.23116" lon="4.94928">
        <ele>457</ele>
        <time>2022-05-15T12:20:20Z</time>
      </trkpt>
      <trkpt lat="47.23117" lon="4.94927">
        <ele>457</ele>
        <time>2022-05-15T12:20:21Z</time>
      </trkpt>
      <trkpt lat="47.23118" lon="4.94926">
        <ele>457</ele>
        <time>2022-05-15T12:20:22Z</time>
      </trkpt>
      <trkpt lat="47.23119" lon="4.94925">
        <ele>456</ele>
        <time>2022-05-15T12:20:23Z</time>
      </trkpt>
      <trkpt lat="47.23119" lon="4.94924">
        <ele>457</ele>
        <time>2022-05-15T12:20:24Z</time>
      </trkpt>
      <trkpt lat="47.2312" lon="4.94923">
        <ele>457</ele>
        <time>2022-05-15T12:20:25Z</time>
      </trkpt>
      <trkpt lat="47.23121" lon="4.94922">
        <ele>458</ele>
        <time>2022-05-15T12:20:27Z</time>
      </trkpt>
      <trkpt lat="47.23122" lon="4.94921">
        <ele>457</ele>
        <time>2022-05-15T12:20:28Z</time>
      </trkpt>
      <trkpt lat="47.23123" lon="4.9492">
        <ele>457</ele>
        <time>2022-05-15T12:20:29Z</time>
      </trkpt>
      <trkpt lat="47.23124" lon="4.94919">
        <ele>456</ele>
        <time>2022-05-15T12:20:30Z</time>
      </trkpt>
      <trkpt lat="47.23125" lon="4.94918">
        <ele>456</ele>
        <time>2022-05-15T12:20:31Z</time>
      </trkpt>
      <trkpt lat="47.23125" lon="4.94916">
        <ele>456</ele>
        <time>2022-05-15T12:20:32Z</time>
      </trkpt>
      <trkpt lat="47.23126" lon="4.94915">
        <ele>455</ele>
        <time>2022-05-15T12:20:33Z</time>
      </trkpt>
      <trkpt lat="47.23126" lon="4.94914">
        <ele>455</ele>
        <time>2022-05-15T12:20:35Z</time>
      </trkpt>
      <trkpt lat="47.23127" lon="4.94911">
        <ele>456</ele>
        <time>2022-05-15T12:20:37Z</time>
      </trkpt>
      <trkpt lat="47.23128" lon="4.9491">
        <ele>456</ele>
        <time>2022-05-15T12:20:38Z</time>
      </trkpt>
      <trkpt lat="47.23129" lon="4.94909">
        <ele>456</ele>
        <time>2022-05-15T12:20:39Z</time>
      </trkpt>
      <trkpt lat="47.2313" lon="4.94908">
        <ele>456</ele>
        <time>2022-05-15T12:20:40Z</time>
      </trkpt>
      <trkpt lat="47.2313" lon="4.94907">
        <ele>457</ele>
        <time>2022-05-15T12:20:41Z</time>
      </trkpt>
      <trkpt lat="47.23131" lon="4.94906">
        <ele>456</ele>
        <time>2022-05-15T12:20:42Z</time>
      </trkpt>
      <trkpt lat="47.23132" lon="4.94905">
        <ele>457</ele>
        <time>2022-05-15T12:20:43Z</time>
      </trkpt>
      <trkpt lat="47.23133" lon="4.94904">
        <ele>457</ele>
        <time>2022-05-15T12:20:44Z</time>
      </trkpt>
      <trkpt lat="47.23134" lon="4.94903">
        <ele>457</ele>
        <time>2022-05-15T12:20:45Z</time>
      </trkpt>
      <trkpt lat="47.23135" lon="4.94902">
        <ele>457</ele>
        <time>2022-05-15T12:20:46Z</time>
      </trkpt>
      <trkpt lat="47.23136" lon="4.94901">
        <ele>457</ele>
        <time>2022-05-15T12:20:47Z</time>
      </trkpt>
      <trkpt lat="47.23137" lon="4.94901">
        <ele>457</ele>
        <time>2022-05-15T12:20:48Z</time>
      </trkpt>
      <trkpt lat="47.23138" lon="4.949">
        <ele>457</ele>
        <time>2022-05-15T12:20:49Z</time>
      </trkpt>
      <trkpt lat="47.23139" lon="4.949">
        <ele>456</ele>
        <time>2022-05-15T12:20:50Z</time>
      </trkpt>
      <trkpt lat="47.2314" lon="4.94899">
        <ele>457</ele>
        <time>2022-05-15T12:20:51Z</time>
      </trkpt>
      <trkpt lat="47.23141" lon="4.94899">
        <ele>456</ele>
        <time>2022-05-15T12:20:52Z</time>
      </trkpt>
      <trkpt lat="47.23142" lon="4.94899">
        <ele>456</ele>
        <time>2022-05-15T12:20:53Z</time>
      </trkpt>
      <trkpt lat="47.23143" lon="4.94898">
        <ele>456</ele>
        <time>2022-05-15T12:20:54Z</time>
      </trkpt>
      <trkpt lat="47.23145" lon="4.94898">
        <ele>456</ele>
        <time>2022-05-15T12:20:55Z</time>
      </trkpt>
      <trkpt lat="47.23146" lon="4.94897">
        <ele>456</ele>
        <time>2022-05-15T12:20:56Z</time>
      </trkpt>
      <trkpt lat="47.23146" lon="4.94896">
        <ele>455</ele>
        <time>2022-05-15T12:20:57Z</time>
      </trkpt>
      <trkpt lat="47.23147" lon="4.94896">
        <ele>453</ele>
        <time>2022-05-15T12:20:58Z</time>
      </trkpt>
      <trkpt lat="47.23148" lon="4.94895">
        <ele>454</ele>
        <time>2022-05-15T12:20:59Z</time>
      </trkpt>
      <trkpt lat="47.23149" lon="4.94893">
        <ele>454</ele>
        <time>2022-05-15T12:21:00Z</time>
      </trkpt>
      <trkpt lat="47.2315" lon="4.94893">
        <ele>454</ele>
        <time>2022-05-15T12:21:01Z</time>
      </trkpt>
      <trkpt lat="47.23151" lon="4.94893">
        <ele>453</ele>
        <time>2022-05-15T12:21:02Z</time>
      </trkpt>
      <trkpt lat="47.23152" lon="4.94893">
        <ele>453</ele>
        <time>2022-05-15T12:21:03Z</time>
      </trkpt>
      <trkpt lat="47.23153" lon="4.94892">
        <ele>453</ele>
        <time>2022-05-15T12:21:04Z</time>
      </trkpt>
      <trkpt lat="47.23154" lon="4.94892">
        <ele>456</ele>
        <time>2022-05-15T12:21:06Z</time>
      </trkpt>
      <trkpt lat="47.23156" lon="4.9489">
        <ele>453</ele>
        <time>2022-05-15T12:21:08Z</time>
      </trkpt>
      <trkpt lat="47.23157" lon="4.94889">
        <ele>455</ele>
        <time>2022-05-15T12:21:09Z</time>
      </trkpt>
      <trkpt lat="47.23158" lon="4.94888">
        <ele>455</ele>
        <time>2022-05-15T12:21:10Z</time>
      </trkpt>
      <trkpt lat="47.23159" lon="4.94887">
        <ele>456</ele>
        <time>2022-05-15T12:21:11Z</time>
      </trkpt>
      <trkpt lat="47.2316" lon="4.94886">
        <ele>456</ele>
        <time>2022-05-15T12:21:12Z</time>
      </trkpt>
      <trkpt lat="47.2316" lon="4.94885">
        <ele>456</ele>
        <time>2022-05-15T12:21:13Z</time>
      </trkpt>
      <trkpt lat="47.23161" lon="4.94884">
        <ele>457</ele>
        <time>2022-05-15T12:21:14Z</time>
      </trkpt>
      <trkpt lat="47.23162" lon="4.94882">
        <ele>456</ele>
        <time>2022-05-15T12:21:16Z</time>
      </trkpt>
      <trkpt lat="47.23163" lon="4.94881">
        <ele>457</ele>
        <time>2022-05-15T12:21:17Z</time>
      </trkpt>
      <trkpt lat="47.23163" lon="4.94878">
        <ele>457</ele>
        <time>2022-05-15T12:21:19Z</time>
      </trkpt>
      <trkpt lat="47.23163" lon="4.94877">
        <ele>458</ele>
        <time>2022-05-15T12:21:20Z</time>
      </trkpt>
      <trkpt lat="47.23162" lon="4.94875">
        <ele>458</ele>
        <time>2022-05-15T12:21:21Z</time>
      </trkpt>
      <trkpt lat="47.23162" lon="4.94874">
        <ele>458</ele>
        <time>2022-05-15T12:21:22Z</time>
      </trkpt>
      <trkpt lat="47.23162" lon="4.94872">
        <ele>458</ele>
        <time>2022-05-15T12:21:23Z</time>
      </trkpt>
      <trkpt lat="47.23163" lon="4.9487">
        <ele>456</ele>
        <time>2022-05-15T12:21:25Z</time>
      </trkpt>
      <trkpt lat="47.23164" lon="4.94867">
        <ele>455</ele>
        <time>2022-05-15T12:21:27Z</time>
      </trkpt>
      <trkpt lat="47.23164" lon="4.94865">
        <ele>454</ele>
        <time>2022-05-15T12:21:28Z</time>
      </trkpt>
      <trkpt lat="47.23165" lon="4.94864">
        <ele>454</ele>
        <time>2022-05-15T12:21:29Z</time>
      </trkpt>
      <trkpt lat="47.23165" lon="4.94862">
        <ele>454</ele>
        <time>2022-05-15T12:21:30Z</time>
      </trkpt>
      <trkpt lat="47.23165" lon="4.94861">
        <ele>454</ele>
        <time>2022-05-15T12:21:31Z</time>
      </trkpt>
      <trkpt lat="47.23165" lon="4.94859">
        <ele>455</ele>
        <time>2022-05-15T12:21:32Z</time>
      </trkpt>
      <trkpt lat="47.23166" lon="4.94857">
        <ele>457</ele>
        <time>2022-05-15T12:21:34Z</time>
      </trkpt>
      <trkpt lat="47.23166" lon="4.94856">
        <ele>459</ele>
        <time>2022-05-15T12:21:35Z</time>
      </trkpt>
      <trkpt lat="47.23166" lon="4.94854">
        <ele>457</ele>
        <time>2022-05-15T12:21:36Z</time>
      </trkpt>
      <trkpt lat="47.23166" lon="4.94852">
        <ele>458</ele>
        <time>2022-05-15T12:21:38Z</time>
      </trkpt>
      <trkpt lat="47.23165" lon="4.9485">
        <ele>459</ele>
        <time>2022-05-15T12:21:39Z</time>
      </trkpt>
      <trkpt lat="47.23166" lon="4.94849">
        <ele>458</ele>
        <time>2022-05-15T12:21:42Z</time>
      </trkpt>
      <trkpt lat="47.23166" lon="4.94846">
        <ele>458</ele>
        <time>2022-05-15T12:21:44Z</time>
      </trkpt>
      <trkpt lat="47.23167" lon="4.94845">
        <ele>458</ele>
        <time>2022-05-15T12:21:45Z</time>
      </trkpt>
      <trkpt lat="47.23166" lon="4.94843">
        <ele>459</ele>
        <time>2022-05-15T12:21:47Z</time>
      </trkpt>
      <trkpt lat="47.23166" lon="4.94841">
        <ele>459</ele>
        <time>2022-05-15T12:21:48Z</time>
      </trkpt>
      <trkpt lat="47.23166" lon="4.9484">
        <ele>460</ele>
        <time>2022-05-15T12:21:49Z</time>
      </trkpt>
      <trkpt lat="47.23166" lon="4.94838">
        <ele>459</ele>
        <time>2022-05-15T12:21:50Z</time>
      </trkpt>
      <trkpt lat="47.23166" lon="4.94837">
        <ele>460</ele>
        <time>2022-05-15T12:21:51Z</time>
      </trkpt>
      <trkpt lat="47.23166" lon="4.94835">
        <ele>460</ele>
        <time>2022-05-15T12:21:52Z</time>
      </trkpt>
      <trkpt lat="47.23165" lon="4.94833">
        <ele>460</ele>
        <time>2022-05-15T12:21:53Z</time>
      </trkpt>
      <trkpt lat="47.23165" lon="4.94832">
        <ele>460</ele>
        <time>2022-05-15T12:21:54Z</time>
      </trkpt>
      <trkpt lat="47.23165" lon="4.9483">
        <ele>457</ele>
        <time>2022-05-15T12:21:56Z</time>
      </trkpt>
      <trkpt lat="47.23166" lon="4.94829">
        <ele>458</ele>
        <time>2022-05-15T12:21:58Z</time>
      </trkpt>
      <trkpt lat="47.23167" lon="4.94827">
        <ele>457</ele>
        <time>2022-05-15T12:22:00Z</time>
      </trkpt>
      <trkpt lat="47.23168" lon="4.94825">
        <ele>456</ele>
        <time>2022-05-15T12:22:02Z</time>
      </trkpt>
      <trkpt lat="47.23169" lon="4.94824">
        <ele>455</ele>
        <time>2022-05-15T12:22:03Z</time>
      </trkpt>
      <trkpt lat="47.2317" lon="4.94824">
        <ele>455</ele>
        <time>2022-05-15T12:22:04Z</time>
      </trkpt>
      <trkpt lat="47.2317" lon="4.94825">
        <ele>455</ele>
        <time>2022-05-15T12:22:05Z</time>
      </trkpt>
      <trkpt lat="47.23172" lon="4.94825">
        <ele>451</ele>
        <time>2022-05-15T12:22:06Z</time>
      </trkpt>
      <trkpt lat="47.23172" lon="4.94826">
        <ele>452</ele>
        <time>2022-05-15T12:22:07Z</time>
      </trkpt>
      <trkpt lat="47.23173" lon="4.94827">
        <ele>454</ele>
        <time>2022-05-15T12:22:10Z</time>
      </trkpt>
      <trkpt lat="47.23173" lon="4.94829">
        <ele>454</ele>
        <time>2022-05-15T12:22:12Z</time>
      </trkpt>
      <trkpt lat="47.23173" lon="4.94831">
        <ele>454</ele>
        <time>2022-05-15T12:22:13Z</time>
      </trkpt>
      <trkpt lat="47.23173" lon="4.94832">
        <ele>457</ele>
        <time>2022-05-15T12:22:15Z</time>
      </trkpt>
      <trkpt lat="47.23172" lon="4.94835">
        <ele>458</ele>
        <time>2022-05-15T12:22:17Z</time>
      </trkpt>
      <trkpt lat="47.23172" lon="4.94836">
        <ele>458</ele>
        <time>2022-05-15T12:22:18Z</time>
      </trkpt>
      <trkpt lat="47.23171" lon="4.94837">
        <ele>458</ele>
        <time>2022-05-15T12:22:19Z</time>
      </trkpt>
      <trkpt lat="47.23171" lon="4.94839">
        <ele>458</ele>
        <time>2022-05-15T12:22:21Z</time>
      </trkpt>
      <trkpt lat="47.23172" lon="4.94841">
        <ele>458</ele>
        <time>2022-05-15T12:22:22Z</time>
      </trkpt>
      <trkpt lat="47.23174" lon="4.94841">
        <ele>457</ele>
        <time>2022-05-15T12:22:23Z</time>
      </trkpt>
      <trkpt lat="47.23176" lon="4.94842">
        <ele>456</ele>
        <time>2022-05-15T12:22:25Z</time>
      </trkpt>
      <trkpt lat="47.23177" lon="4.94843">
        <ele>456</ele>
        <time>2022-05-15T12:22:26Z</time>
      </trkpt>
      <trkpt lat="47.23178" lon="4.94844">
        <ele>456</ele>
        <time>2022-05-15T12:22:27Z</time>
      </trkpt>
      <trkpt lat="47.23179" lon="4.94845">
        <ele>456</ele>
        <time>2022-05-15T12:22:28Z</time>
      </trkpt>
      <trkpt lat="47.23179" lon="4.94846">
        <ele>456</ele>
        <time>2022-05-15T12:22:32Z</time>
      </trkpt>
      <trkpt lat="47.2318" lon="4.94847">
        <ele>456</ele>
        <time>2022-05-15T12:22:33Z</time>
      </trkpt>
      <trkpt lat="47.23181" lon="4.94848">
        <ele>455</ele>
        <time>2022-05-15T12:22:37Z</time>
      </trkpt>
      <trkpt lat="47.23182" lon="4.9485">
        <ele>456</ele>
        <time>2022-05-15T12:22:38Z</time>
      </trkpt>
      <trkpt lat="47.23183" lon="4.94851">
        <ele>457</ele>
        <time>2022-05-15T12:22:39Z</time>
      </trkpt>
      <trkpt lat="47.23184" lon="4.94852">
        <ele>454</ele>
        <time>2022-05-15T12:22:40Z</time>
      </trkpt>
      <trkpt lat="47.23185" lon="4.94854">
        <ele>454</ele>
        <time>2022-05-15T12:22:41Z</time>
      </trkpt>
      <trkpt lat="47.23186" lon="4.94855">
        <ele>455</ele>
        <time>2022-05-15T12:22:42Z</time>
      </trkpt>
      <trkpt lat="47.23187" lon="4.94855">
        <ele>455</ele>
        <time>2022-05-15T12:22:43Z</time>
      </trkpt>
      <trkpt lat="47.23189" lon="4.94856">
        <ele>455</ele>
        <time>2022-05-15T12:22:45Z</time>
      </trkpt>
      <trkpt lat="47.23189" lon="4.94858">
        <ele>456</ele>
        <time>2022-05-15T12:22:47Z</time>
      </trkpt>
      <trkpt lat="47.23191" lon="4.94857">
        <ele>457</ele>
        <time>2022-05-15T12:22:49Z</time>
      </trkpt>
      <trkpt lat="47.23191" lon="4.94855">
        <ele>456</ele>
        <time>2022-05-15T12:22:50Z</time>
      </trkpt>
      <trkpt lat="47.23191" lon="4.94854">
        <ele>455</ele>
        <time>2022-05-15T12:22:51Z</time>
      </trkpt>
      <trkpt lat="47.23191" lon="4.94852">
        <ele>454</ele>
        <time>2022-05-15T12:22:53Z</time>
      </trkpt>
      <trkpt lat="47.23191" lon="4.9485">
        <ele>453</ele>
        <time>2022-05-15T12:22:54Z</time>
      </trkpt>
      <trkpt lat="47.2319" lon="4.94848">
        <ele>452</ele>
        <time>2022-05-15T12:22:55Z</time>
      </trkpt>
      <trkpt lat="47.2319" lon="4.94847">
        <ele>452</ele>
        <time>2022-05-15T12:22:56Z</time>
      </trkpt>
      <trkpt lat="47.2319" lon="4.94845">
        <ele>453</ele>
        <time>2022-05-15T12:22:57Z</time>
      </trkpt>
      <trkpt lat="47.2319" lon="4.94844">
        <ele>454</ele>
        <time>2022-05-15T12:22:58Z</time>
      </trkpt>
      <trkpt lat="47.2319" lon="4.94842">
        <ele>454</ele>
        <time>2022-05-15T12:22:59Z</time>
      </trkpt>
      <trkpt lat="47.23189" lon="4.9484">
        <ele>454</ele>
        <time>2022-05-15T12:23:00Z</time>
      </trkpt>
      <trkpt lat="47.2319" lon="4.94839">
        <ele>454</ele>
        <time>2022-05-15T12:23:01Z</time>
      </trkpt>
      <trkpt lat="47.2319" lon="4.94837">
        <ele>455</ele>
        <time>2022-05-15T12:23:02Z</time>
      </trkpt>
      <trkpt lat="47.2319" lon="4.94835">
        <ele>454</ele>
        <time>2022-05-15T12:23:03Z</time>
      </trkpt>
      <trkpt lat="47.2319" lon="4.94833">
        <ele>455</ele>
        <time>2022-05-15T12:23:04Z</time>
      </trkpt>
      <trkpt lat="47.23189" lon="4.94831">
        <ele>455</ele>
        <time>2022-05-15T12:23:05Z</time>
      </trkpt>
      <trkpt lat="47.23189" lon="4.94829">
        <ele>456</ele>
        <time>2022-05-15T12:23:06Z</time>
      </trkpt>
      <trkpt lat="47.23189" lon="4.94828">
        <ele>455</ele>
        <time>2022-05-15T12:23:07Z</time>
      </trkpt>
      <trkpt lat="47.2319" lon="4.94825">
        <ele>456</ele>
        <time>2022-05-15T12:23:09Z</time>
      </trkpt>
      <trkpt lat="47.2319" lon="4.94824">
        <ele>456</ele>
        <time>2022-05-15T12:23:10Z</time>
      </trkpt>
      <trkpt lat="47.2319" lon="4.94822">
        <ele>456</ele>
        <time>2022-05-15T12:23:11Z</time>
      </trkpt>
      <trkpt lat="47.2319" lon="4.94821">
        <ele>457</ele>
        <time>2022-05-15T12:23:12Z</time>
      </trkpt>
      <trkpt lat="47.2319" lon="4.94819">
        <ele>457</ele>
        <time>2022-05-15T12:23:13Z</time>
      </trkpt>
      <trkpt lat="47.23191" lon="4.94817">
        <ele>457</ele>
        <time>2022-05-15T12:23:14Z</time>
      </trkpt>
      <trkpt lat="47.23191" lon="4.94815">
        <ele>457</ele>
        <time>2022-05-15T12:23:15Z</time>
      </trkpt>
      <trkpt lat="47.23191" lon="4.94814">
        <ele>457</ele>
        <time>2022-05-15T12:23:17Z</time>
      </trkpt>
      <trkpt lat="47.23191" lon="4.94811">
        <ele>458</ele>
        <time>2022-05-15T12:23:19Z</time>
      </trkpt>
      <trkpt lat="47.23191" lon="4.94809">
        <ele>459</ele>
        <time>2022-05-15T12:23:21Z</time>
      </trkpt>
      <trkpt lat="47.23191" lon="4.94807">
        <ele>459</ele>
        <time>2022-05-15T12:23:23Z</time>
      </trkpt>
      <trkpt lat="47.23192" lon="4.94805">
        <ele>459</ele>
        <time>2022-05-15T12:23:24Z</time>
      </trkpt>
      <trkpt lat="47.23192" lon="4.94804">
        <ele>460</ele>
        <time>2022-05-15T12:23:25Z</time>
      </trkpt>
      <trkpt lat="47.23193" lon="4.94802">
        <ele>460</ele>
        <time>2022-05-15T12:23:26Z</time>
      </trkpt>
      <trkpt lat="47.23193" lon="4.94801">
        <ele>459</ele>
        <time>2022-05-15T12:23:27Z</time>
      </trkpt>
      <trkpt lat="47.23193" lon="4.94799">
        <ele>460</ele>
        <time>2022-05-15T12:23:28Z</time>
      </trkpt>
      <trkpt lat="47.23193" lon="4.94798">
        <ele>460</ele>
        <time>2022-05-15T12:23:29Z</time>
      </trkpt>
      <trkpt lat="47.23194" lon="4.94796">
        <ele>460</ele>
        <time>2022-05-15T12:23:30Z</time>
      </trkpt>
      <trkpt lat="47.23194" lon="4.94794">
        <ele>460</ele>
        <time>2022-05-15T12:23:31Z</time>
      </trkpt>
      <trkpt lat="47.23194" lon="4.94793">
        <ele>461</ele>
        <time>2022-05-15T12:23:32Z</time>
      </trkpt>
      <trkpt lat="47.23194" lon="4.94789">
        <ele>462</ele>
        <time>2022-05-15T12:23:34Z</time>
      </trkpt>
      <trkpt lat="47.23194" lon="4.94788">
        <ele>462</ele>
        <time>2022-05-15T12:23:35Z</time>
      </trkpt>
      <trkpt lat="47.23195" lon="4.94784">
        <ele>462</ele>
        <time>2022-05-15T12:23:37Z</time>
      </trkpt>
      <trkpt lat="47.23196" lon="4.94781">
        <ele>461</ele>
        <time>2022-05-15T12:23:39Z</time>
      </trkpt>
      <trkpt lat="47.23196" lon="4.94779">
        <ele>461</ele>
        <time>2022-05-15T12:23:40Z</time>
      </trkpt>
      <trkpt lat="47.23197" lon="4.94778">
        <ele>461</ele>
        <time>2022-05-15T12:23:41Z</time>
      </trkpt>
      <trkpt lat="47.23197" lon="4.94776">
        <ele>461</ele>
        <time>2022-05-15T12:23:42Z</time>
      </trkpt>
      <trkpt lat="47.23197" lon="4.94775">
        <ele>460</ele>
        <time>2022-05-15T12:23:43Z</time>
      </trkpt>
      <trkpt lat="47.23198" lon="4.94773">
        <ele>461</ele>
        <time>2022-05-15T12:23:44Z</time>
      </trkpt>
      <trkpt lat="47.23198" lon="4.94771">
        <ele>461</ele>
        <time>2022-05-15T12:23:45Z</time>
      </trkpt>
      <trkpt lat="47.23198" lon="4.94769">
        <ele>461</ele>
        <time>2022-05-15T12:23:46Z</time>
      </trkpt>
      <trkpt lat="47.23197" lon="4.94767">
        <ele>460</ele>
        <time>2022-05-15T12:23:47Z</time>
      </trkpt>
      <trkpt lat="47.23197" lon="4.94765">
        <ele>460</ele>
        <time>2022-05-15T12:23:48Z</time>
      </trkpt>
      <trkpt lat="47.23197" lon="4.94763">
        <ele>461</ele>
        <time>2022-05-15T12:23:49Z</time>
      </trkpt>
      <trkpt lat="47.23197" lon="4.94762">
        <ele>461</ele>
        <time>2022-05-15T12:23:50Z</time>
      </trkpt>
      <trkpt lat="47.23197" lon="4.9476">
        <ele>461</ele>
        <time>2022-05-15T12:23:51Z</time>
      </trkpt>
      <trkpt lat="47.23198" lon="4.94759">
        <ele>461</ele>
        <time>2022-05-15T12:23:52Z</time>
      </trkpt>
      <trkpt lat="47.23198" lon="4.94757">
        <ele>461</ele>
        <time>2022-05-15T12:23:53Z</time>
      </trkpt>
      <trkpt lat="47.23198" lon="4.94756">
        <ele>461</ele>
        <time>2022-05-15T12:23:54Z</time>
      </trkpt>
      <trkpt lat="47.23198" lon="4.94754">
        <ele>461</ele>
        <time>2022-05-15T12:23:55Z</time>
      </trkpt>
      <trkpt lat="47.23198" lon="4.94752">
        <ele>459</ele>
        <time>2022-05-15T12:23:56Z</time>
      </trkpt>
      <trkpt lat="47.23198" lon="4.9475">
        <ele>458</ele>
        <time>2022-05-15T12:23:57Z</time>
      </trkpt>
      <trkpt lat="47.23199" lon="4.94748">
        <ele>457</ele>
        <time>2022-05-15T12:23:58Z</time>
      </trkpt>
      <trkpt lat="47.23199" lon="4.94746">
        <ele>458</ele>
        <time>2022-05-15T12:23:59Z</time>
      </trkpt>
      <trkpt lat="47.23199" lon="4.94744">
        <ele>458</ele>
        <time>2022-05-15T12:24:00Z</time>
      </trkpt>
      <trkpt lat="47.23199" lon="4.94742">
        <ele>459</ele>
        <time>2022-05-15T12:24:02Z</time>
      </trkpt>
      <trkpt lat="47.23199" lon="4.9474">
        <ele>460</ele>
        <time>2022-05-15T12:24:03Z</time>
      </trkpt>
      <trkpt lat="47.232" lon="4.94738">
        <ele>460</ele>
        <time>2022-05-15T12:24:04Z</time>
      </trkpt>
      <trkpt lat="47.232" lon="4.94737">
        <ele>460</ele>
        <time>2022-05-15T12:24:05Z</time>
      </trkpt>
      <trkpt lat="47.23201" lon="4.94735">
        <ele>460</ele>
        <time>2022-05-15T12:24:06Z</time>
      </trkpt>
      <trkpt lat="47.23201" lon="4.94734">
        <ele>460</ele>
        <time>2022-05-15T12:24:07Z</time>
      </trkpt>
      <trkpt lat="47.23202" lon="4.94732">
        <ele>460</ele>
        <time>2022-05-15T12:24:08Z</time>
      </trkpt>
      <trkpt lat="47.23202" lon="4.9473">
        <ele>461</ele>
        <time>2022-05-15T12:24:09Z</time>
      </trkpt>
      <trkpt lat="47.23203" lon="4.94728">
        <ele>460</ele>
        <time>2022-05-15T12:24:10Z</time>
      </trkpt>
      <trkpt lat="47.23203" lon="4.94726">
        <ele>459</ele>
        <time>2022-05-15T12:24:11Z</time>
      </trkpt>
      <trkpt lat="47.23204" lon="4.94725">
        <ele>458</ele>
        <time>2022-05-15T12:24:12Z</time>
      </trkpt>
      <trkpt lat="47.23205" lon="4.94723">
        <ele>459</ele>
        <time>2022-05-15T12:24:13Z</time>
      </trkpt>
      <trkpt lat="47.23206" lon="4.94722">
        <ele>458</ele>
        <time>2022-05-15T12:24:14Z</time>
      </trkpt>
      <trkpt lat="47.23206" lon="4.9472">
        <ele>458</ele>
        <time>2022-05-15T12:24:15Z</time>
      </trkpt>
      <trkpt lat="47.23207" lon="4.94719">
        <ele>458</ele>
        <time>2022-05-15T12:24:16Z</time>
      </trkpt>
      <trkpt lat="47.23208" lon="4.94718">
        <ele>458</ele>
        <time>2022-05-15T12:24:17Z</time>
      </trkpt>
      <trkpt lat="47.23208" lon="4.94716">
        <ele>458</ele>
        <time>2022-05-15T12:24:18Z</time>
      </trkpt>
      <trkpt lat="47.23209" lon="4.94715">
        <ele>458</ele>
        <time>2022-05-15T12:24:19Z</time>
      </trkpt>
      <trkpt lat="47.23209" lon="4.94713">
        <ele>458</ele>
        <time>2022-05-15T12:24:20Z</time>
      </trkpt>
      <trkpt lat="47.23209" lon="4.94711">
        <ele>457</ele>
        <time>2022-05-15T12:24:21Z</time>
      </trkpt>
      <trkpt lat="47.2321" lon="4.94709">
        <ele>457</ele>
        <time>2022-05-15T12:24:22Z</time>
      </trkpt>
      <trkpt lat="47.2321" lon="4.94708">
        <ele>457</ele>
        <time>2022-05-15T12:24:23Z</time>
      </trkpt>
      <trkpt lat="47.23211" lon="4.94707">
        <ele>458</ele>
        <time>2022-05-15T12:24:24Z</time>
      </trkpt>
      <trkpt lat="47.23211" lon="4.94705">
        <ele>458</ele>
        <time>2022-05-15T12:24:25Z</time>
      </trkpt>
      <trkpt lat="47.23212" lon="4.94704">
        <ele>457</ele>
        <time>2022-05-15T12:24:26Z</time>
      </trkpt>
      <trkpt lat="47.23213" lon="4.94703">
        <ele>456</ele>
        <time>2022-05-15T12:24:27Z</time>
      </trkpt>
      <trkpt lat="47.23213" lon="4.94701">
        <ele>456</ele>
        <time>2022-05-15T12:24:28Z</time>
      </trkpt>
      <trkpt lat="47.23214" lon="4.947">
        <ele>456</ele>
        <time>2022-05-15T12:24:29Z</time>
      </trkpt>
      <trkpt lat="47.23214" lon="4.94698">
        <ele>457</ele>
        <time>2022-05-15T12:24:30Z</time>
      </trkpt>
      <trkpt lat="47.23215" lon="4.94697">
        <ele>457</ele>
        <time>2022-05-15T12:24:31Z</time>
      </trkpt>
      <trkpt lat="47.23215" lon="4.94695">
        <ele>457</ele>
        <time>2022-05-15T12:24:32Z</time>
      </trkpt>
      <trkpt lat="47.23216" lon="4.94693">
        <ele>458</ele>
        <time>2022-05-15T12:24:34Z</time>
      </trkpt>
      <trkpt lat="47.23216" lon="4.94692">
        <ele>459</ele>
        <time>2022-05-15T12:24:36Z</time>
      </trkpt>
      <trkpt lat="47.23217" lon="4.94689">
        <ele>459</ele>
        <time>2022-05-15T12:24:38Z</time>
      </trkpt>
      <trkpt lat="47.23218" lon="4.94686">
        <ele>459</ele>
        <time>2022-05-15T12:24:40Z</time>
      </trkpt>
      <trkpt lat="47.23219" lon="4.94685">
        <ele>459</ele>
        <time>2022-05-15T12:24:41Z</time>
      </trkpt>
      <trkpt lat="47.23219" lon="4.94683">
        <ele>458</ele>
        <time>2022-05-15T12:24:42Z</time>
      </trkpt>
      <trkpt lat="47.23219" lon="4.94681">
        <ele>458</ele>
        <time>2022-05-15T12:24:43Z</time>
      </trkpt>
      <trkpt lat="47.2322" lon="4.94679">
        <ele>458</ele>
        <time>2022-05-15T12:24:44Z</time>
      </trkpt>
      <trkpt lat="47.2322" lon="4.94677">
        <ele>458</ele>
        <time>2022-05-15T12:24:45Z</time>
      </trkpt>
      <trkpt lat="47.23221" lon="4.94674">
        <ele>457</ele>
        <time>2022-05-15T12:24:46Z</time>
      </trkpt>
      <trkpt lat="47.23221" lon="4.94673">
        <ele>458</ele>
        <time>2022-05-15T12:24:47Z</time>
      </trkpt>
      <trkpt lat="47.23221" lon="4.94672">
        <ele>458</ele>
        <time>2022-05-15T12:24:48Z</time>
      </trkpt>
      <trkpt lat="47.23221" lon="4.94669">
        <ele>458</ele>
        <time>2022-05-15T12:24:50Z</time>
      </trkpt>
      <trkpt lat="47.23222" lon="4.94667">
        <ele>457</ele>
        <time>2022-05-15T12:24:51Z</time>
      </trkpt>
      <trkpt lat="47.23222" lon="4.94665">
        <ele>456</ele>
        <time>2022-05-15T12:24:52Z</time>
      </trkpt>
      <trkpt lat="47.23222" lon="4.94663">
        <ele>456</ele>
        <time>2022-05-15T12:24:53Z</time>
      </trkpt>
      <trkpt lat="47.23222" lon="4.94662">
        <ele>455</ele>
        <time>2022-05-15T12:24:54Z</time>
      </trkpt>
      <trkpt lat="47.23222" lon="4.9466">
        <ele>455</ele>
        <time>2022-05-15T12:24:55Z</time>
      </trkpt>
      <trkpt lat="47.23222" lon="4.94657">
        <ele>455</ele>
        <time>2022-05-15T12:24:57Z</time>
      </trkpt>
      <trkpt lat="47.23222" lon="4.94656">
        <ele>455</ele>
        <time>2022-05-15T12:24:58Z</time>
      </trkpt>
      <trkpt lat="47.23222" lon="4.94654">
        <ele>455</ele>
        <time>2022-05-15T12:24:59Z</time>
      </trkpt>
      <trkpt lat="47.23222" lon="4.94653">
        <ele>455</ele>
        <time>2022-05-15T12:25:00Z</time>
      </trkpt>
      <trkpt lat="47.23222" lon="4.94651">
        <ele>455</ele>
        <time>2022-05-15T12:25:01Z</time>
      </trkpt>
      <trkpt lat="47.23222" lon="4.9465">
        <ele>455</ele>
        <time>2022-05-15T12:25:02Z</time>
      </trkpt>
      <trkpt lat="47.23222" lon="4.94649">
        <ele>455</ele>
        <time>2022-05-15T12:25:03Z</time>
      </trkpt>
      <trkpt lat="47.23223" lon="4.94646">
        <ele>455</ele>
        <time>2022-05-15T12:25:05Z</time>
      </trkpt>
      <trkpt lat="47.23223" lon="4.94645">
        <ele>456</ele>
        <time>2022-05-15T12:25:06Z</time>
      </trkpt>
      <trkpt lat="47.23224" lon="4.94642">
        <ele>458</ele>
        <time>2022-05-15T12:25:08Z</time>
      </trkpt>
      <trkpt lat="47.23225" lon="4.94642">
        <ele>458</ele>
        <time>2022-05-15T12:25:13Z</time>
      </trkpt>
      <trkpt lat="47.23227" lon="4.94639">
        <ele>458</ele>
        <time>2022-05-15T12:25:15Z</time>
      </trkpt>
      <trkpt lat="47.23227" lon="4.94638">
        <ele>457</ele>
        <time>2022-05-15T12:25:16Z</time>
      </trkpt>
      <trkpt lat="47.23228" lon="4.94637">
        <ele>457</ele>
        <time>2022-05-15T12:25:17Z</time>
      </trkpt>
      <trkpt lat="47.23229" lon="4.94635">
        <ele>457</ele>
        <time>2022-05-15T12:25:18Z</time>
      </trkpt>
      <trkpt lat="47.23229" lon="4.94633">
        <ele>458</ele>
        <time>2022-05-15T12:25:19Z</time>
      </trkpt>
      <trkpt lat="47.2323" lon="4.94632">
        <ele>458</ele>
        <time>2022-05-15T12:25:20Z</time>
      </trkpt>
      <trkpt lat="47.23231" lon="4.94631">
        <ele>459</ele>
        <time>2022-05-15T12:25:21Z</time>
      </trkpt>
      <trkpt lat="47.23232" lon="4.94629">
        <ele>460</ele>
        <time>2022-05-15T12:25:23Z</time>
      </trkpt>
      <trkpt lat="47.23232" lon="4.94628">
        <ele>459</ele>
        <time>2022-05-15T12:25:24Z</time>
      </trkpt>
      <trkpt lat="47.23232" lon="4.94626">
        <ele>460</ele>
        <time>2022-05-15T12:25:25Z</time>
      </trkpt>
      <trkpt lat="47.23233" lon="4.94625">
        <ele>460</ele>
        <time>2022-05-15T12:25:26Z</time>
      </trkpt>
      <trkpt lat="47.23233" lon="4.94624">
        <ele>460</ele>
        <time>2022-05-15T12:25:27Z</time>
      </trkpt>
      <trkpt lat="47.23234" lon="4.94622">
        <ele>462</ele>
        <time>2022-05-15T12:25:28Z</time>
      </trkpt>
      <trkpt lat="47.23235" lon="4.94621">
        <ele>461</ele>
        <time>2022-05-15T12:25:29Z</time>
      </trkpt>
      <trkpt lat="47.23236" lon="4.94618">
        <ele>461</ele>
        <time>2022-05-15T12:25:31Z</time>
      </trkpt>
      <trkpt lat="47.23236" lon="4.94617">
        <ele>461</ele>
        <time>2022-05-15T12:25:32Z</time>
      </trkpt>
      <trkpt lat="47.23237" lon="4.94616">
        <ele>461</ele>
        <time>2022-05-15T12:25:33Z</time>
      </trkpt>
      <trkpt lat="47.23237" lon="4.94614">
        <ele>461</ele>
        <time>2022-05-15T12:25:34Z</time>
      </trkpt>
      <trkpt lat="47.23238" lon="4.94613">
        <ele>461</ele>
        <time>2022-05-15T12:25:35Z</time>
      </trkpt>
      <trkpt lat="47.23238" lon="4.94611">
        <ele>461</ele>
        <time>2022-05-15T12:25:36Z</time>
      </trkpt>
      <trkpt lat="47.23239" lon="4.9461">
        <ele>461</ele>
        <time>2022-05-15T12:25:37Z</time>
      </trkpt>
      <trkpt lat="47.23239" lon="4.94608">
        <ele>461</ele>
        <time>2022-05-15T12:25:38Z</time>
      </trkpt>
      <trkpt lat="47.2324" lon="4.94606">
        <ele>462</ele>
        <time>2022-05-15T12:25:39Z</time>
      </trkpt>
      <trkpt lat="47.23241" lon="4.94604">
        <ele>463</ele>
        <time>2022-05-15T12:25:41Z</time>
      </trkpt>
      <trkpt lat="47.23242" lon="4.94603">
        <ele>464</ele>
        <time>2022-05-15T12:25:42Z</time>
      </trkpt>
      <trkpt lat="47.23242" lon="4.94601">
        <ele>463</ele>
        <time>2022-05-15T12:25:43Z</time>
      </trkpt>
      <trkpt lat="47.23243" lon="4.94599">
        <ele>463</ele>
        <time>2022-05-15T12:25:44Z</time>
      </trkpt>
      <trkpt lat="47.23243" lon="4.94597">
        <ele>463</ele>
        <time>2022-05-15T12:25:45Z</time>
      </trkpt>
      <trkpt lat="47.23244" lon="4.94596">
        <ele>463</ele>
        <time>2022-05-15T12:25:46Z</time>
      </trkpt>
      <trkpt lat="47.23244" lon="4.94594">
        <ele>463</ele>
        <time>2022-05-15T12:25:47Z</time>
      </trkpt>
      <trkpt lat="47.23244" lon="4.94592">
        <ele>462</ele>
        <time>2022-05-15T12:25:48Z</time>
      </trkpt>
      <trkpt lat="47.23245" lon="4.94591">
        <ele>462</ele>
        <time>2022-05-15T12:25:49Z</time>
      </trkpt>
      <trkpt lat="47.23245" lon="4.94589">
        <ele>462</ele>
        <time>2022-05-15T12:25:50Z</time>
      </trkpt>
      <trkpt lat="47.23246" lon="4.94588">
        <ele>461</ele>
        <time>2022-05-15T12:25:51Z</time>
      </trkpt>
      <trkpt lat="47.23246" lon="4.94586">
        <ele>462</ele>
        <time>2022-05-15T12:25:52Z</time>
      </trkpt>
      <trkpt lat="47.23247" lon="4.94585">
        <ele>462</ele>
        <time>2022-05-15T12:25:53Z</time>
      </trkpt>
      <trkpt lat="47.23247" lon="4.94584">
        <ele>463</ele>
        <time>2022-05-15T12:25:54Z</time>
      </trkpt>
      <trkpt lat="47.23247" lon="4.94582">
        <ele>463</ele>
        <time>2022-05-15T12:25:55Z</time>
      </trkpt>
      <trkpt lat="47.23248" lon="4.94581">
        <ele>463</ele>
        <time>2022-05-15T12:25:56Z</time>
      </trkpt>
      <trkpt lat="47.23248" lon="4.9458">
        <ele>463</ele>
        <time>2022-05-15T12:25:57Z</time>
      </trkpt>
      <trkpt lat="47.23249" lon="4.94578">
        <ele>464</ele>
        <time>2022-05-15T12:25:58Z</time>
      </trkpt>
      <trkpt lat="47.2325" lon="4.94577">
        <ele>464</ele>
        <time>2022-05-15T12:25:59Z</time>
      </trkpt>
      <trkpt lat="47.2325" lon="4.94576">
        <ele>464</ele>
        <time>2022-05-15T12:26:00Z</time>
      </trkpt>
      <trkpt lat="47.23251" lon="4.94574">
        <ele>464</ele>
        <time>2022-05-15T12:26:01Z</time>
      </trkpt>
      <trkpt lat="47.23252" lon="4.94573">
        <ele>464</ele>
        <time>2022-05-15T12:26:02Z</time>
      </trkpt>
      <trkpt lat="47.23253" lon="4.94572">
        <ele>465</ele>
        <time>2022-05-15T12:26:03Z</time>
      </trkpt>
      <trkpt lat="47.23253" lon="4.94571">
        <ele>465</ele>
        <time>2022-05-15T12:26:04Z</time>
      </trkpt>
      <trkpt lat="47.23254" lon="4.94569">
        <ele>465</ele>
        <time>2022-05-15T12:26:05Z</time>
      </trkpt>
      <trkpt lat="47.23254" lon="4.94568">
        <ele>465</ele>
        <time>2022-05-15T12:26:06Z</time>
      </trkpt>
      <trkpt lat="47.23255" lon="4.94567">
        <ele>465</ele>
        <time>2022-05-15T12:26:07Z</time>
      </trkpt>
      <trkpt lat="47.23256" lon="4.94566">
        <ele>467</ele>
        <time>2022-05-15T12:26:08Z</time>
      </trkpt>
      <trkpt lat="47.23257" lon="4.94564">
        <ele>467</ele>
        <time>2022-05-15T12:26:09Z</time>
      </trkpt>
      <trkpt lat="47.23257" lon="4.94563">
        <ele>467</ele>
        <time>2022-05-15T12:26:10Z</time>
      </trkpt>
      <trkpt lat="47.23258" lon="4.94562">
        <ele>467</ele>
        <time>2022-05-15T12:26:11Z</time>
      </trkpt>
      <trkpt lat="47.23259" lon="4.94561">
        <ele>467</ele>
        <time>2022-05-15T12:26:12Z</time>
      </trkpt>
      <trkpt lat="47.23259" lon="4.9456">
        <ele>468</ele>
        <time>2022-05-15T12:26:13Z</time>
      </trkpt>
      <trkpt lat="47.2326" lon="4.94559">
        <ele>468</ele>
        <time>2022-05-15T12:26:14Z</time>
      </trkpt>
      <trkpt lat="47.2326" lon="4.94557">
        <ele>467</ele>
        <time>2022-05-15T12:26:15Z</time>
      </trkpt>
      <trkpt lat="47.23261" lon="4.94555">
        <ele>467</ele>
        <time>2022-05-15T12:26:17Z</time>
      </trkpt>
      <trkpt lat="47.23262" lon="4.94554">
        <ele>467</ele>
        <time>2022-05-15T12:26:18Z</time>
      </trkpt>
      <trkpt lat="47.23263" lon="4.94553">
        <ele>468</ele>
        <time>2022-05-15T12:26:19Z</time>
      </trkpt>
      <trkpt lat="47.23264" lon="4.94551">
        <ele>469</ele>
        <time>2022-05-15T12:26:21Z</time>
      </trkpt>
      <trkpt lat="47.23264" lon="4.94549">
        <ele>469</ele>
        <time>2022-05-15T12:26:23Z</time>
      </trkpt>
      <trkpt lat="47.23265" lon="4.94547">
        <ele>468</ele>
        <time>2022-05-15T12:26:24Z</time>
      </trkpt>
      <trkpt lat="47.23265" lon="4.94546">
        <ele>467</ele>
        <time>2022-05-15T12:26:25Z</time>
      </trkpt>
      <trkpt lat="47.23265" lon="4.94544">
        <ele>467</ele>
        <time>2022-05-15T12:26:26Z</time>
      </trkpt>
      <trkpt lat="47.23265" lon="4.94543">
        <ele>467</ele>
        <time>2022-05-15T12:26:27Z</time>
      </trkpt>
      <trkpt lat="47.23265" lon="4.94541">
        <ele>468</ele>
        <time>2022-05-15T12:26:28Z</time>
      </trkpt>
      <trkpt lat="47.23265" lon="4.94539">
        <ele>468</ele>
        <time>2022-05-15T12:26:29Z</time>
      </trkpt>
      <trkpt lat="47.23265" lon="4.94538">
        <ele>469</ele>
        <time>2022-05-15T12:26:30Z</time>
      </trkpt>
      <trkpt lat="47.23264" lon="4.94536">
        <ele>469</ele>
        <time>2022-05-15T12:26:31Z</time>
      </trkpt>
      <trkpt lat="47.23264" lon="4.94535">
        <ele>470</ele>
        <time>2022-05-15T12:26:32Z</time>
      </trkpt>
      <trkpt lat="47.23264" lon="4.94533">
        <ele>469</ele>
        <time>2022-05-15T12:26:33Z</time>
      </trkpt>
      <trkpt lat="47.23263" lon="4.94532">
        <ele>470</ele>
        <time>2022-05-15T12:26:34Z</time>
      </trkpt>
      <trkpt lat="47.23262" lon="4.94531">
        <ele>470</ele>
        <time>2022-05-15T12:26:35Z</time>
      </trkpt>
      <trkpt lat="47.23262" lon="4.9453">
        <ele>470</ele>
        <time>2022-05-15T12:26:36Z</time>
      </trkpt>
      <trkpt lat="47.23261" lon="4.94529">
        <ele>470</ele>
        <time>2022-05-15T12:26:37Z</time>
      </trkpt>
      <trkpt lat="47.2326" lon="4.94527">
        <ele>469</ele>
        <time>2022-05-15T12:26:38Z</time>
      </trkpt>
      <trkpt lat="47.23258" lon="4.94526">
        <ele>469</ele>
        <time>2022-05-15T12:26:40Z</time>
      </trkpt>
      <trkpt lat="47.23257" lon="4.94524">
        <ele>468</ele>
        <time>2022-05-15T12:26:42Z</time>
      </trkpt>
      <trkpt lat="47.23256" lon="4.94523">
        <ele>467</ele>
        <time>2022-05-15T12:26:43Z</time>
      </trkpt>
      <trkpt lat="47.23255" lon="4.94522">
        <ele>467</ele>
        <time>2022-05-15T12:26:44Z</time>
      </trkpt>
      <trkpt lat="47.23254" lon="4.94521">
        <ele>467</ele>
        <time>2022-05-15T12:26:46Z</time>
      </trkpt>
      <trkpt lat="47.23252" lon="4.9452">
        <ele>466</ele>
        <time>2022-05-15T12:26:48Z</time>
      </trkpt>
      <trkpt lat="47.23251" lon="4.94519">
        <ele>466</ele>
        <time>2022-05-15T12:26:49Z</time>
      </trkpt>
      <trkpt lat="47.2325" lon="4.94518">
        <ele>466</ele>
        <time>2022-05-15T12:26:50Z</time>
      </trkpt>
      <trkpt lat="47.2325" lon="4.94517">
        <ele>466</ele>
        <time>2022-05-15T12:26:51Z</time>
      </trkpt>
      <trkpt lat="47.23249" lon="4.94516">
        <ele>467</ele>
        <time>2022-05-15T12:26:52Z</time>
      </trkpt>
      <trkpt lat="47.23248" lon="4.94514">
        <ele>467</ele>
        <time>2022-05-15T12:26:53Z</time>
      </trkpt>
      <trkpt lat="47.23247" lon="4.94513">
        <ele>466</ele>
        <time>2022-05-15T12:26:54Z</time>
      </trkpt>
      <trkpt lat="47.23247" lon="4.94512">
        <ele>467</ele>
        <time>2022-05-15T12:26:55Z</time>
      </trkpt>
      <trkpt lat="47.23246" lon="4.9451">
        <ele>467</ele>
        <time>2022-05-15T12:26:56Z</time>
      </trkpt>
      <trkpt lat="47.23245" lon="4.94509">
        <ele>467</ele>
        <time>2022-05-15T12:26:57Z</time>
      </trkpt>
      <trkpt lat="47.23245" lon="4.94508">
        <ele>467</ele>
        <time>2022-05-15T12:26:58Z</time>
      </trkpt>
      <trkpt lat="47.23244" lon="4.94507">
        <ele>468</ele>
        <time>2022-05-15T12:26:59Z</time>
      </trkpt>
      <trkpt lat="47.23243" lon="4.94506">
        <ele>467</ele>
        <time>2022-05-15T12:27:00Z</time>
      </trkpt>
      <trkpt lat="47.23242" lon="4.94504">
        <ele>466</ele>
        <time>2022-05-15T12:27:01Z</time>
      </trkpt>
      <trkpt lat="47.23241" lon="4.94504">
        <ele>466</ele>
        <time>2022-05-15T12:27:02Z</time>
      </trkpt>
      <trkpt lat="47.2324" lon="4.94503">
        <ele>466</ele>
        <time>2022-05-15T12:27:03Z</time>
      </trkpt>
      <trkpt lat="47.23239" lon="4.94501">
        <ele>466</ele>
        <time>2022-05-15T12:27:04Z</time>
      </trkpt>
      <trkpt lat="47.23238" lon="4.945">
        <ele>466</ele>
        <time>2022-05-15T12:27:05Z</time>
      </trkpt>
      <trkpt lat="47.23237" lon="4.94499">
        <ele>466</ele>
        <time>2022-05-15T12:27:06Z</time>
      </trkpt>
      <trkpt lat="47.23237" lon="4.94498">
        <ele>466</ele>
        <time>2022-05-15T12:27:07Z</time>
      </trkpt>
      <trkpt lat="47.23236" lon="4.94497">
        <ele>467</ele>
        <time>2022-05-15T12:27:08Z</time>
      </trkpt>
      <trkpt lat="47.23235" lon="4.94496">
        <ele>467</ele>
        <time>2022-05-15T12:27:09Z</time>
      </trkpt>
      <trkpt lat="47.23234" lon="4.94495">
        <ele>466</ele>
        <time>2022-05-15T12:27:10Z</time>
      </trkpt>
      <trkpt lat="47.23233" lon="4.94494">
        <ele>466</ele>
        <time>2022-05-15T12:27:11Z</time>
      </trkpt>
      <trkpt lat="47.23232" lon="4.94493">
        <ele>466</ele>
        <time>2022-05-15T12:27:12Z</time>
      </trkpt>
      <trkpt lat="47.23231" lon="4.94491">
        <ele>465</ele>
        <time>2022-05-15T12:27:13Z</time>
      </trkpt>
      <trkpt lat="47.2323" lon="4.9449">
        <ele>465</ele>
        <time>2022-05-15T12:27:14Z</time>
      </trkpt>
      <trkpt lat="47.2323" lon="4.94489">
        <ele>465</ele>
        <time>2022-05-15T12:27:15Z</time>
      </trkpt>
      <trkpt lat="47.23229" lon="4.94488">
        <ele>465</ele>
        <time>2022-05-15T12:27:16Z</time>
      </trkpt>
      <trkpt lat="47.23228" lon="4.94486">
        <ele>465</ele>
        <time>2022-05-15T12:27:18Z</time>
      </trkpt>
      <trkpt lat="47.23227" lon="4.94485">
        <ele>466</ele>
        <time>2022-05-15T12:27:19Z</time>
      </trkpt>
      <trkpt lat="47.23226" lon="4.94484">
        <ele>466</ele>
        <time>2022-05-15T12:27:20Z</time>
      </trkpt>
      <trkpt lat="47.23225" lon="4.94483">
        <ele>466</ele>
        <time>2022-05-15T12:27:21Z</time>
      </trkpt>
      <trkpt lat="47.23224" lon="4.94483">
        <ele>467</ele>
        <time>2022-05-15T12:27:22Z</time>
      </trkpt>
      <trkpt lat="47.23222" lon="4.94481">
        <ele>467</ele>
        <time>2022-05-15T12:27:24Z</time>
      </trkpt>
      <trkpt lat="47.23222" lon="4.9448">
        <ele>468</ele>
        <time>2022-05-15T12:27:25Z</time>
      </trkpt>
      <trkpt lat="47.23221" lon="4.94479">
        <ele>469</ele>
        <time>2022-05-15T12:27:26Z</time>
      </trkpt>
      <trkpt lat="47.2322" lon="4.94478">
        <ele>470</ele>
        <time>2022-05-15T12:27:28Z</time>
      </trkpt>
      <trkpt lat="47.23219" lon="4.94477">
        <ele>470</ele>
        <time>2022-05-15T12:27:29Z</time>
      </trkpt>
      <trkpt lat="47.23218" lon="4.94476">
        <ele>470</ele>
        <time>2022-05-15T12:27:30Z</time>
      </trkpt>
      <trkpt lat="47.23217" lon="4.94475">
        <ele>471</ele>
        <time>2022-05-15T12:27:31Z</time>
      </trkpt>
      <trkpt lat="47.23216" lon="4.94474">
        <ele>470</ele>
        <time>2022-05-15T12:27:32Z</time>
      </trkpt>
      <trkpt lat="47.23215" lon="4.94473">
        <ele>471</ele>
        <time>2022-05-15T12:27:33Z</time>
      </trkpt>
      <trkpt lat="47.23215" lon="4.94473">
        <ele>469</ele>
        <time>2022-05-15T12:27:34Z</time>
      </trkpt>
      <trkpt lat="47.23214" lon="4.94472">
        <ele>469</ele>
        <time>2022-05-15T12:27:35Z</time>
      </trkpt>
      <trkpt lat="47.23213" lon="4.94471">
        <ele>468</ele>
        <time>2022-05-15T12:27:36Z</time>
      </trkpt>
      <trkpt lat="47.23211" lon="4.9447">
        <ele>469</ele>
        <time>2022-05-15T12:27:38Z</time>
      </trkpt>
      <trkpt lat="47.2321" lon="4.94469">
        <ele>470</ele>
        <time>2022-05-15T12:27:40Z</time>
      </trkpt>
      <trkpt lat="47.23208" lon="4.94467">
        <ele>470</ele>
        <time>2022-05-15T12:27:43Z</time>
      </trkpt>
      <trkpt lat="47.23207" lon="4.94467">
        <ele>470</ele>
        <time>2022-05-15T12:27:44Z</time>
      </trkpt>
      <trkpt lat="47.23206" lon="4.94466">
        <ele>470</ele>
        <time>2022-05-15T12:27:45Z</time>
      </trkpt>
      <trkpt lat="47.23204" lon="4.94466">
        <ele>470</ele>
        <time>2022-05-15T12:27:46Z</time>
      </trkpt>
      <trkpt lat="47.23203" lon="4.94465">
        <ele>469</ele>
        <time>2022-05-15T12:27:47Z</time>
      </trkpt>
      <trkpt lat="47.23202" lon="4.94465">
        <ele>469</ele>
        <time>2022-05-15T12:27:48Z</time>
      </trkpt>
      <trkpt lat="47.23201" lon="4.94464">
        <ele>470</ele>
        <time>2022-05-15T12:27:49Z</time>
      </trkpt>
      <trkpt lat="47.232" lon="4.94464">
        <ele>470</ele>
        <time>2022-05-15T12:27:50Z</time>
      </trkpt>
      <trkpt lat="47.23198" lon="4.94464">
        <ele>471</ele>
        <time>2022-05-15T12:27:51Z</time>
      </trkpt>
      <trkpt lat="47.23197" lon="4.94463">
        <ele>471</ele>
        <time>2022-05-15T12:27:52Z</time>
      </trkpt>
      <trkpt lat="47.23196" lon="4.94462">
        <ele>472</ele>
        <time>2022-05-15T12:27:53Z</time>
      </trkpt>
      <trkpt lat="47.23195" lon="4.94461">
        <ele>471</ele>
        <time>2022-05-15T12:27:54Z</time>
      </trkpt>
      <trkpt lat="47.23194" lon="4.94461">
        <ele>472</ele>
        <time>2022-05-15T12:27:55Z</time>
      </trkpt>
      <trkpt lat="47.23193" lon="4.9446">
        <ele>472</ele>
        <time>2022-05-15T12:27:56Z</time>
      </trkpt>
      <trkpt lat="47.23192" lon="4.94459">
        <ele>472</ele>
        <time>2022-05-15T12:27:58Z</time>
      </trkpt>
      <trkpt lat="47.23191" lon="4.94458">
        <ele>472</ele>
        <time>2022-05-15T12:27:59Z</time>
      </trkpt>
      <trkpt lat="47.2319" lon="4.94457">
        <ele>472</ele>
        <time>2022-05-15T12:28:00Z</time>
      </trkpt>
      <trkpt lat="47.23188" lon="4.94456">
        <ele>472</ele>
        <time>2022-05-15T12:28:02Z</time>
      </trkpt>
      <trkpt lat="47.23187" lon="4.94456">
        <ele>472</ele>
        <time>2022-05-15T12:28:03Z</time>
      </trkpt>
      <trkpt lat="47.23186" lon="4.94455">
        <ele>472</ele>
        <time>2022-05-15T12:28:04Z</time>
      </trkpt>
      <trkpt lat="47.23185" lon="4.94454">
        <ele>473</ele>
        <time>2022-05-15T12:28:05Z</time>
      </trkpt>
      <trkpt lat="47.23184" lon="4.94454">
        <ele>473</ele>
        <time>2022-05-15T12:28:06Z</time>
      </trkpt>
      <trkpt lat="47.23183" lon="4.94453">
        <ele>472</ele>
        <time>2022-05-15T12:28:07Z</time>
      </trkpt>
      <trkpt lat="47.23182" lon="4.94452">
        <ele>471</ele>
        <time>2022-05-15T12:28:08Z</time>
      </trkpt>
      <trkpt lat="47.23181" lon="4.94452">
        <ele>472</ele>
        <time>2022-05-15T12:28:09Z</time>
      </trkpt>
      <trkpt lat="47.2318" lon="4.94451">
        <ele>472</ele>
        <time>2022-05-15T12:28:10Z</time>
      </trkpt>
      <trkpt lat="47.23179" lon="4.9445">
        <ele>473</ele>
        <time>2022-05-15T12:28:11Z</time>
      </trkpt>
      <trkpt lat="47.23178" lon="4.94449">
        <ele>473</ele>
        <time>2022-05-15T12:28:12Z</time>
      </trkpt>
      <trkpt lat="47.23177" lon="4.94448">
        <ele>473</ele>
        <time>2022-05-15T12:28:13Z</time>
      </trkpt>
      <trkpt lat="47.23176" lon="4.94448">
        <ele>472</ele>
        <time>2022-05-15T12:28:14Z</time>
      </trkpt>
      <trkpt lat="47.23175" lon="4.94447">
        <ele>472</ele>
        <time>2022-05-15T12:28:15Z</time>
      </trkpt>
      <trkpt lat="47.23175" lon="4.94447">
        <ele>473</ele>
        <time>2022-05-15T12:28:16Z</time>
      </trkpt>
      <trkpt lat="47.23174" lon="4.94446">
        <ele>473</ele>
        <time>2022-05-15T12:28:17Z</time>
      </trkpt>
      <trkpt lat="47.23173" lon="4.94446">
        <ele>473</ele>
        <time>2022-05-15T12:28:18Z</time>
      </trkpt>
      <trkpt lat="47.23172" lon="4.94445">
        <ele>474</ele>
        <time>2022-05-15T12:28:19Z</time>
      </trkpt>
      <trkpt lat="47.23171" lon="4.94444">
        <ele>474</ele>
        <time>2022-05-15T12:28:21Z</time>
      </trkpt>
      <trkpt lat="47.2317" lon="4.94443">
        <ele>473</ele>
        <time>2022-05-15T12:28:22Z</time>
      </trkpt>
      <trkpt lat="47.23169" lon="4.94442">
        <ele>474</ele>
        <time>2022-05-15T12:28:23Z</time>
      </trkpt>
      <trkpt lat="47.23168" lon="4.9444">
        <ele>474</ele>
        <time>2022-05-15T12:28:25Z</time>
      </trkpt>
      <trkpt lat="47.23167" lon="4.94439">
        <ele>474</ele>
        <time>2022-05-15T12:28:26Z</time>
      </trkpt>
      <trkpt lat="47.23166" lon="4.94438">
        <ele>474</ele>
        <time>2022-05-15T12:28:27Z</time>
      </trkpt>
      <trkpt lat="47.23166" lon="4.94437">
        <ele>474</ele>
        <time>2022-05-15T12:28:28Z</time>
      </trkpt>
      <trkpt lat="47.23165" lon="4.94436">
        <ele>474</ele>
        <time>2022-05-15T12:28:29Z</time>
      </trkpt>
      <trkpt lat="47.23164" lon="4.94435">
        <ele>475</ele>
        <time>2022-05-15T12:28:30Z</time>
      </trkpt>
      <trkpt lat="47.23163" lon="4.94434">
        <ele>474</ele>
        <time>2022-05-15T12:28:31Z</time>
      </trkpt>
      <trkpt lat="47.23163" lon="4.94432">
        <ele>474</ele>
        <time>2022-05-15T12:28:32Z</time>
      </trkpt>
      <trkpt lat="47.23162" lon="4.94431">
        <ele>475</ele>
        <time>2022-05-15T12:28:34Z</time>
      </trkpt>
      <trkpt lat="47.23161" lon="4.9443">
        <ele>474</ele>
        <time>2022-05-15T12:28:35Z</time>
      </trkpt>
      <trkpt lat="47.2316" lon="4.94429">
        <ele>474</ele>
        <time>2022-05-15T12:28:36Z</time>
      </trkpt>
      <trkpt lat="47.23159" lon="4.94428">
        <ele>475</ele>
        <time>2022-05-15T12:28:37Z</time>
      </trkpt>
      <trkpt lat="47.23158" lon="4.94427">
        <ele>474</ele>
        <time>2022-05-15T12:28:38Z</time>
      </trkpt>
      <trkpt lat="47.23157" lon="4.94427">
        <ele>474</ele>
        <time>2022-05-15T12:28:39Z</time>
      </trkpt>
      <trkpt lat="47.23156" lon="4.94425">
        <ele>474</ele>
        <time>2022-05-15T12:28:40Z</time>
      </trkpt>
      <trkpt lat="47.23155" lon="4.94424">
        <ele>474</ele>
        <time>2022-05-15T12:28:41Z</time>
      </trkpt>
      <trkpt lat="47.23155" lon="4.94423">
        <ele>474</ele>
        <time>2022-05-15T12:28:42Z</time>
      </trkpt>
      <trkpt lat="47.23153" lon="4.94421">
        <ele>474</ele>
        <time>2022-05-15T12:28:44Z</time>
      </trkpt>
      <trkpt lat="47.23152" lon="4.9442">
        <ele>474</ele>
        <time>2022-05-15T12:28:45Z</time>
      </trkpt>
      <trkpt lat="47.23151" lon="4.94419">
        <ele>473</ele>
        <time>2022-05-15T12:28:46Z</time>
      </trkpt>
      <trkpt lat="47.2315" lon="4.94418">
        <ele>473</ele>
        <time>2022-05-15T12:28:47Z</time>
      </trkpt>
      <trkpt lat="47.23149" lon="4.94417">
        <ele>473</ele>
        <time>2022-05-15T12:28:48Z</time>
      </trkpt>
      <trkpt lat="47.23148" lon="4.94416">
        <ele>473</ele>
        <time>2022-05-15T12:28:49Z</time>
      </trkpt>
      <trkpt lat="47.23147" lon="4.94415">
        <ele>473</ele>
        <time>2022-05-15T12:28:50Z</time>
      </trkpt>
      <trkpt lat="47.23146" lon="4.94413">
        <ele>473</ele>
        <time>2022-05-15T12:28:51Z</time>
      </trkpt>
      <trkpt lat="47.23145" lon="4.94412">
        <ele>473</ele>
        <time>2022-05-15T12:28:52Z</time>
      </trkpt>
      <trkpt lat="47.23144" lon="4.94411">
        <ele>473</ele>
        <time>2022-05-15T12:28:53Z</time>
      </trkpt>
      <trkpt lat="47.23143" lon="4.9441">
        <ele>473</ele>
        <time>2022-05-15T12:28:54Z</time>
      </trkpt>
      <trkpt lat="47.23142" lon="4.94409">
        <ele>472</ele>
        <time>2022-05-15T12:28:55Z</time>
      </trkpt>
      <trkpt lat="47.23141" lon="4.94408">
        <ele>472</ele>
        <time>2022-05-15T12:28:56Z</time>
      </trkpt>
      <trkpt lat="47.2314" lon="4.94407">
        <ele>471</ele>
        <time>2022-05-15T12:28:57Z</time>
      </trkpt>
      <trkpt lat="47.23139" lon="4.94406">
        <ele>470</ele>
        <time>2022-05-15T12:28:58Z</time>
      </trkpt>
      <trkpt lat="47.23137" lon="4.94405">
        <ele>471</ele>
        <time>2022-05-15T12:29:00Z</time>
      </trkpt>
      <trkpt lat="47.23136" lon="4.94404">
        <ele>471</ele>
        <time>2022-05-15T12:29:01Z</time>
      </trkpt>
      <trkpt lat="47.23135" lon="4.94403">
        <ele>471</ele>
        <time>2022-05-15T12:29:02Z</time>
      </trkpt>
      <trkpt lat="47.23135" lon="4.94402">
        <ele>471</ele>
        <time>2022-05-15T12:29:03Z</time>
      </trkpt>
      <trkpt lat="47.23134" lon="4.94401">
        <ele>471</ele>
        <time>2022-05-15T12:29:04Z</time>
      </trkpt>
      <trkpt lat="47.23133" lon="4.944">
        <ele>471</ele>
        <time>2022-05-15T12:29:05Z</time>
      </trkpt>
      <trkpt lat="47.23132" lon="4.94399">
        <ele>470</ele>
        <time>2022-05-15T12:29:06Z</time>
      </trkpt>
      <trkpt lat="47.23131" lon="4.94398">
        <ele>470</ele>
        <time>2022-05-15T12:29:07Z</time>
      </trkpt>
      <trkpt lat="47.2313" lon="4.94397">
        <ele>469</ele>
        <time>2022-05-15T12:29:08Z</time>
      </trkpt>
      <trkpt lat="47.23129" lon="4.94396">
        <ele>469</ele>
        <time>2022-05-15T12:29:09Z</time>
      </trkpt>
      <trkpt lat="47.23129" lon="4.94395">
        <ele>470</ele>
        <time>2022-05-15T12:29:10Z</time>
      </trkpt>
      <trkpt lat="47.23128" lon="4.94394">
        <ele>470</ele>
        <time>2022-05-15T12:29:11Z</time>
      </trkpt>
      <trkpt lat="47.23127" lon="4.94393">
        <ele>470</ele>
        <time>2022-05-15T12:29:12Z</time>
      </trkpt>
      <trkpt lat="47.23127" lon="4.94391">
        <ele>470</ele>
        <time>2022-05-15T12:29:13Z</time>
      </trkpt>
      <trkpt lat="47.23126" lon="4.9439">
        <ele>469</ele>
        <time>2022-05-15T12:29:14Z</time>
      </trkpt>
      <trkpt lat="47.23126" lon="4.94389">
        <ele>470</ele>
        <time>2022-05-15T12:29:15Z</time>
      </trkpt>
      <trkpt lat="47.23125" lon="4.94388">
        <ele>469</ele>
        <time>2022-05-15T12:29:16Z</time>
      </trkpt>
      <trkpt lat="47.23124" lon="4.94387">
        <ele>469</ele>
        <time>2022-05-15T12:29:17Z</time>
      </trkpt>
      <trkpt lat="47.23124" lon="4.94386">
        <ele>470</ele>
        <time>2022-05-15T12:29:18Z</time>
      </trkpt>
      <trkpt lat="47.23123" lon="4.94385">
        <ele>470</ele>
        <time>2022-05-15T12:29:19Z</time>
      </trkpt>
      <trkpt lat="47.23122" lon="4.94384">
        <ele>470</ele>
        <time>2022-05-15T12:29:20Z</time>
      </trkpt>
      <trkpt lat="47.23121" lon="4.94383">
        <ele>469</ele>
        <time>2022-05-15T12:29:21Z</time>
      </trkpt>
      <trkpt lat="47.2312" lon="4.94382">
        <ele>469</ele>
        <time>2022-05-15T12:29:22Z</time>
      </trkpt>
      <trkpt lat="47.2312" lon="4.9438">
        <ele>470</ele>
        <time>2022-05-15T12:29:23Z</time>
      </trkpt>
      <trkpt lat="47.23119" lon="4.94378">
        <ele>470</ele>
        <time>2022-05-15T12:29:24Z</time>
      </trkpt>
      <trkpt lat="47.23119" lon="4.94377">
        <ele>470</ele>
        <time>2022-05-15T12:29:25Z</time>
      </trkpt>
      <trkpt lat="47.23118" lon="4.94376">
        <ele>470</ele>
        <time>2022-05-15T12:29:26Z</time>
      </trkpt>
      <trkpt lat="47.23118" lon="4.94374">
        <ele>470</ele>
        <time>2022-05-15T12:29:27Z</time>
      </trkpt>
      <trkpt lat="47.23117" lon="4.94373">
        <ele>471</ele>
        <time>2022-05-15T12:29:28Z</time>
      </trkpt>
      <trkpt lat="47.23117" lon="4.94372">
        <ele>471</ele>
        <time>2022-05-15T12:29:29Z</time>
      </trkpt>
      <trkpt lat="47.23116" lon="4.9437">
        <ele>472</ele>
        <time>2022-05-15T12:29:30Z</time>
      </trkpt>
      <trkpt lat="47.23116" lon="4.94369">
        <ele>472</ele>
        <time>2022-05-15T12:29:31Z</time>
      </trkpt>
      <trkpt lat="47.23116" lon="4.94367">
        <ele>472</ele>
        <time>2022-05-15T12:29:32Z</time>
      </trkpt>
      <trkpt lat="47.23116" lon="4.94366">
        <ele>473</ele>
        <time>2022-05-15T12:29:33Z</time>
      </trkpt>
      <trkpt lat="47.23116" lon="4.94364">
        <ele>473</ele>
        <time>2022-05-15T12:29:34Z</time>
      </trkpt>
      <trkpt lat="47.23115" lon="4.94363">
        <ele>473</ele>
        <time>2022-05-15T12:29:35Z</time>
      </trkpt>
      <trkpt lat="47.23115" lon="4.94362">
        <ele>473</ele>
        <time>2022-05-15T12:29:36Z</time>
      </trkpt>
      <trkpt lat="47.23115" lon="4.9436">
        <ele>474</ele>
        <time>2022-05-15T12:29:37Z</time>
      </trkpt>
      <trkpt lat="47.23115" lon="4.94358">
        <ele>473</ele>
        <time>2022-05-15T12:29:38Z</time>
      </trkpt>
      <trkpt lat="47.23115" lon="4.94357">
        <ele>473</ele>
        <time>2022-05-15T12:29:39Z</time>
      </trkpt>
      <trkpt lat="47.23115" lon="4.94355">
        <ele>473</ele>
        <time>2022-05-15T12:29:40Z</time>
      </trkpt>
      <trkpt lat="47.23115" lon="4.94353">
        <ele>473</ele>
        <time>2022-05-15T12:29:41Z</time>
      </trkpt>
      <trkpt lat="47.23115" lon="4.94351">
        <ele>472</ele>
        <time>2022-05-15T12:29:42Z</time>
      </trkpt>
      <trkpt lat="47.23115" lon="4.9435">
        <ele>473</ele>
        <time>2022-05-15T12:29:43Z</time>
      </trkpt>
      <trkpt lat="47.23115" lon="4.94347">
        <ele>473</ele>
        <time>2022-05-15T12:29:45Z</time>
      </trkpt>
      <trkpt lat="47.23114" lon="4.94344">
        <ele>473</ele>
        <time>2022-05-15T12:29:47Z</time>
      </trkpt>
      <trkpt lat="47.23114" lon="4.94342">
        <ele>473</ele>
        <time>2022-05-15T12:29:48Z</time>
      </trkpt>
      <trkpt lat="47.23114" lon="4.9434">
        <ele>472</ele>
        <time>2022-05-15T12:29:49Z</time>
      </trkpt>
      <trkpt lat="47.23114" lon="4.94338">
        <ele>472</ele>
        <time>2022-05-15T12:29:51Z</time>
      </trkpt>
      <trkpt lat="47.23113" lon="4.94336">
        <ele>470</ele>
        <time>2022-05-15T12:29:52Z</time>
      </trkpt>
      <trkpt lat="47.23113" lon="4.94335">
        <ele>470</ele>
        <time>2022-05-15T12:29:53Z</time>
      </trkpt>
      <trkpt lat="47.23113" lon="4.94334">
        <ele>469</ele>
        <time>2022-05-15T12:29:54Z</time>
      </trkpt>
      <trkpt lat="47.23112" lon="4.94332">
        <ele>469</ele>
        <time>2022-05-15T12:29:55Z</time>
      </trkpt>
      <trkpt lat="47.23112" lon="4.94331">
        <ele>470</ele>
        <time>2022-05-15T12:29:56Z</time>
      </trkpt>
      <trkpt lat="47.23111" lon="4.94329">
        <ele>469</ele>
        <time>2022-05-15T12:29:57Z</time>
      </trkpt>
      <trkpt lat="47.23111" lon="4.94328">
        <ele>469</ele>
        <time>2022-05-15T12:29:58Z</time>
      </trkpt>
      <trkpt lat="47.23111" lon="4.94327">
        <ele>469</ele>
        <time>2022-05-15T12:29:59Z</time>
      </trkpt>
      <trkpt lat="47.2311" lon="4.94325">
        <ele>469</ele>
        <time>2022-05-15T12:30:00Z</time>
      </trkpt>
      <trkpt lat="47.23109" lon="4.94324">
        <ele>470</ele>
        <time>2022-05-15T12:30:01Z</time>
      </trkpt>
      <trkpt lat="47.23109" lon="4.94323">
        <ele>469</ele>
        <time>2022-05-15T12:30:02Z</time>
      </trkpt>
      <trkpt lat="47.23108" lon="4.94322">
        <ele>469</ele>
        <time>2022-05-15T12:30:03Z</time>
      </trkpt>
      <trkpt lat="47.23107" lon="4.9432">
        <ele>469</ele>
        <time>2022-05-15T12:30:04Z</time>
      </trkpt>
      <trkpt lat="47.23106" lon="4.94318">
        <ele>469</ele>
        <time>2022-05-15T12:30:05Z</time>
      </trkpt>
      <trkpt lat="47.23106" lon="4.94317">
        <ele>469</ele>
        <time>2022-05-15T12:30:06Z</time>
      </trkpt>
      <trkpt lat="47.23105" lon="4.94315">
        <ele>468</ele>
        <time>2022-05-15T12:30:08Z</time>
      </trkpt>
      <trkpt lat="47.23104" lon="4.94313">
        <ele>467</ele>
        <time>2022-05-15T12:30:10Z</time>
      </trkpt>
      <trkpt lat="47.23103" lon="4.94312">
        <ele>467</ele>
        <time>2022-05-15T12:30:11Z</time>
      </trkpt>
      <trkpt lat="47.23102" lon="4.94312">
        <ele>469</ele>
        <time>2022-05-15T12:30:12Z</time>
      </trkpt>
      <trkpt lat="47.23102" lon="4.94311">
        <ele>469</ele>
        <time>2022-05-15T12:30:13Z</time>
      </trkpt>
      <trkpt lat="47.23101" lon="4.9431">
        <ele>470</ele>
        <time>2022-05-15T12:30:14Z</time>
      </trkpt>
      <trkpt lat="47.231" lon="4.94309">
        <ele>469</ele>
        <time>2022-05-15T12:30:15Z</time>
      </trkpt>
      <trkpt lat="47.23099" lon="4.94308">
        <ele>469</ele>
        <time>2022-05-15T12:30:16Z</time>
      </trkpt>
      <trkpt lat="47.23098" lon="4.94307">
        <ele>469</ele>
        <time>2022-05-15T12:30:17Z</time>
      </trkpt>
      <trkpt lat="47.23097" lon="4.94306">
        <ele>470</ele>
        <time>2022-05-15T12:30:18Z</time>
      </trkpt>
      <trkpt lat="47.23096" lon="4.94305">
        <ele>470</ele>
        <time>2022-05-15T12:30:19Z</time>
      </trkpt>
      <trkpt lat="47.23095" lon="4.94305">
        <ele>470</ele>
        <time>2022-05-15T12:30:20Z</time>
      </trkpt>
      <trkpt lat="47.23094" lon="4.94304">
        <ele>470</ele>
        <time>2022-05-15T12:30:21Z</time>
      </trkpt>
      <trkpt lat="47.23093" lon="4.94304">
        <ele>470</ele>
        <time>2022-05-15T12:30:22Z</time>
      </trkpt>
      <trkpt lat="47.23092" lon="4.94303">
        <ele>471</ele>
        <time>2022-05-15T12:30:23Z</time>
      </trkpt>
      <trkpt lat="47.23091" lon="4.94303">
        <ele>471</ele>
        <time>2022-05-15T12:30:24Z</time>
      </trkpt>
      <trkpt lat="47.2309" lon="4.94302">
        <ele>471</ele>
        <time>2022-05-15T12:30:25Z</time>
      </trkpt>
      <trkpt lat="47.23089" lon="4.943">
        <ele>471</ele>
        <time>2022-05-15T12:30:26Z</time>
      </trkpt>
      <trkpt lat="47.23088" lon="4.94299">
        <ele>471</ele>
        <time>2022-05-15T12:30:27Z</time>
      </trkpt>
      <trkpt lat="47.23087" lon="4.94298">
        <ele>471</ele>
        <time>2022-05-15T12:30:28Z</time>
      </trkpt>
      <trkpt lat="47.23086" lon="4.94297">
        <ele>471</ele>
        <time>2022-05-15T12:30:29Z</time>
      </trkpt>
      <trkpt lat="47.23086" lon="4.94295">
        <ele>472</ele>
        <time>2022-05-15T12:30:30Z</time>
      </trkpt>
      <trkpt lat="47.23085" lon="4.94294">
        <ele>472</ele>
        <time>2022-05-15T12:30:31Z</time>
      </trkpt>
      <trkpt lat="47.23084" lon="4.94292">
        <ele>471</ele>
        <time>2022-05-15T12:30:32Z</time>
      </trkpt>
      <trkpt lat="47.23083" lon="4.94291">
        <ele>471</ele>
        <time>2022-05-15T12:30:33Z</time>
      </trkpt>
      <trkpt lat="47.23083" lon="4.94289">
        <ele>472</ele>
        <time>2022-05-15T12:30:34Z</time>
      </trkpt>
      <trkpt lat="47.23082" lon="4.94288">
        <ele>472</ele>
        <time>2022-05-15T12:30:35Z</time>
      </trkpt>
      <trkpt lat="47.23082" lon="4.94287">
        <ele>471</ele>
        <time>2022-05-15T12:30:36Z</time>
      </trkpt>
      <trkpt lat="47.23081" lon="4.94285">
        <ele>471</ele>
        <time>2022-05-15T12:30:37Z</time>
      </trkpt>
      <trkpt lat="47.23081" lon="4.94284">
        <ele>471</ele>
        <time>2022-05-15T12:30:38Z</time>
      </trkpt>
      <trkpt lat="47.2308" lon="4.94282">
        <ele>471</ele>
        <time>2022-05-15T12:30:39Z</time>
      </trkpt>
      <trkpt lat="47.23079" lon="4.9428">
        <ele>471</ele>
        <time>2022-05-15T12:30:41Z</time>
      </trkpt>
      <trkpt lat="47.23079" lon="4.94279">
        <ele>470</ele>
        <time>2022-05-15T12:30:42Z</time>
      </trkpt>
      <trkpt lat="47.23078" lon="4.94277">
        <ele>470</ele>
        <time>2022-05-15T12:30:43Z</time>
      </trkpt>
      <trkpt lat="47.23078" lon="4.94276">
        <ele>470</ele>
        <time>2022-05-15T12:30:44Z</time>
      </trkpt>
      <trkpt lat="47.23076" lon="4.94273">
        <ele>472</ele>
        <time>2022-05-15T12:30:46Z</time>
      </trkpt>
      <trkpt lat="47.23075" lon="4.94271">
        <ele>471</ele>
        <time>2022-05-15T12:30:48Z</time>
      </trkpt>
      <trkpt lat="47.23075" lon="4.94269">
        <ele>471</ele>
        <time>2022-05-15T12:30:49Z</time>
      </trkpt>
      <trkpt lat="47.23074" lon="4.94268">
        <ele>471</ele>
        <time>2022-05-15T12:30:50Z</time>
      </trkpt>
      <trkpt lat="47.23073" lon="4.94266">
        <ele>472</ele>
        <time>2022-05-15T12:30:52Z</time>
      </trkpt>
      <trkpt lat="47.23072" lon="4.94265">
        <ele>472</ele>
        <time>2022-05-15T12:30:53Z</time>
      </trkpt>
      <trkpt lat="47.23071" lon="4.94264">
        <ele>471</ele>
        <time>2022-05-15T12:30:54Z</time>
      </trkpt>
      <trkpt lat="47.23071" lon="4.94263">
        <ele>471</ele>
        <time>2022-05-15T12:30:55Z</time>
      </trkpt>
      <trkpt lat="47.2307" lon="4.94261">
        <ele>471</ele>
        <time>2022-05-15T12:30:56Z</time>
      </trkpt>
      <trkpt lat="47.23069" lon="4.9426">
        <ele>471</ele>
        <time>2022-05-15T12:30:57Z</time>
      </trkpt>
      <trkpt lat="47.23068" lon="4.94259">
        <ele>472</ele>
        <time>2022-05-15T12:30:58Z</time>
      </trkpt>
      <trkpt lat="47.23068" lon="4.94257">
        <ele>471</ele>
        <time>2022-05-15T12:30:59Z</time>
      </trkpt>
      <trkpt lat="47.23067" lon="4.94256">
        <ele>471</ele>
        <time>2022-05-15T12:31:00Z</time>
      </trkpt>
      <trkpt lat="47.23066" lon="4.94254">
        <ele>471</ele>
        <time>2022-05-15T12:31:01Z</time>
      </trkpt>
      <trkpt lat="47.23066" lon="4.94252">
        <ele>471</ele>
        <time>2022-05-15T12:31:02Z</time>
      </trkpt>
      <trkpt lat="47.23066" lon="4.94251">
        <ele>470</ele>
        <time>2022-05-15T12:31:03Z</time>
      </trkpt>
      <trkpt lat="47.23066" lon="4.94249">
        <ele>469</ele>
        <time>2022-05-15T12:31:04Z</time>
      </trkpt>
      <trkpt lat="47.23066" lon="4.94247">
        <ele>469</ele>
        <time>2022-05-15T12:31:05Z</time>
      </trkpt>
      <trkpt lat="47.23065" lon="4.94245">
        <ele>468</ele>
        <time>2022-05-15T12:31:07Z</time>
      </trkpt>
      <trkpt lat="47.23065" lon="4.94244">
        <ele>466</ele>
        <time>2022-05-15T12:31:08Z</time>
      </trkpt>
      <trkpt lat="47.23065" lon="4.94242">
        <ele>466</ele>
        <time>2022-05-15T12:31:09Z</time>
      </trkpt>
      <trkpt lat="47.23065" lon="4.9424">
        <ele>466</ele>
        <time>2022-05-15T12:31:10Z</time>
      </trkpt>
      <trkpt lat="47.23064" lon="4.94239">
        <ele>466</ele>
        <time>2022-05-15T12:31:11Z</time>
      </trkpt>
      <trkpt lat="47.23064" lon="4.94237">
        <ele>466</ele>
        <time>2022-05-15T12:31:12Z</time>
      </trkpt>
      <trkpt lat="47.23064" lon="4.94235">
        <ele>466</ele>
        <time>2022-05-15T12:31:14Z</time>
      </trkpt>
      <trkpt lat="47.23063" lon="4.94233">
        <ele>466</ele>
        <time>2022-05-15T12:31:16Z</time>
      </trkpt>
      <trkpt lat="47.23062" lon="4.94231">
        <ele>467</ele>
        <time>2022-05-15T12:31:18Z</time>
      </trkpt>
      <trkpt lat="47.23061" lon="4.94229">
        <ele>466</ele>
        <time>2022-05-15T12:31:19Z</time>
      </trkpt>
      <trkpt lat="47.23061" lon="4.94227">
        <ele>465</ele>
        <time>2022-05-15T12:31:20Z</time>
      </trkpt>
      <trkpt lat="47.23061" lon="4.94226">
        <ele>464</ele>
        <time>2022-05-15T12:31:21Z</time>
      </trkpt>
      <trkpt lat="47.2306" lon="4.94224">
        <ele>464</ele>
        <time>2022-05-15T12:31:22Z</time>
      </trkpt>
      <trkpt lat="47.2306" lon="4.94223">
        <ele>465</ele>
        <time>2022-05-15T12:31:23Z</time>
      </trkpt>
      <trkpt lat="47.23059" lon="4.94221">
        <ele>466</ele>
        <time>2022-05-15T12:31:24Z</time>
      </trkpt>
      <trkpt lat="47.23059" lon="4.9422">
        <ele>467</ele>
        <time>2022-05-15T12:31:25Z</time>
      </trkpt>
      <trkpt lat="47.23058" lon="4.94219">
        <ele>466</ele>
        <time>2022-05-15T12:31:26Z</time>
      </trkpt>
      <trkpt lat="47.23058" lon="4.94217">
        <ele>464</ele>
        <time>2022-05-15T12:31:27Z</time>
      </trkpt>
      <trkpt lat="47.23058" lon="4.94215">
        <ele>465</ele>
        <time>2022-05-15T12:31:28Z</time>
      </trkpt>
      <trkpt lat="47.23057" lon="4.94214">
        <ele>466</ele>
        <time>2022-05-15T12:31:29Z</time>
      </trkpt>
      <trkpt lat="47.23056" lon="4.94212">
        <ele>467</ele>
        <time>2022-05-15T12:31:30Z</time>
      </trkpt>
      <trkpt lat="47.23056" lon="4.94211">
        <ele>466</ele>
        <time>2022-05-15T12:31:31Z</time>
      </trkpt>
      <trkpt lat="47.23055" lon="4.9421">
        <ele>466</ele>
        <time>2022-05-15T12:31:32Z</time>
      </trkpt>
      <trkpt lat="47.23054" lon="4.94209">
        <ele>466</ele>
        <time>2022-05-15T12:31:33Z</time>
      </trkpt>
      <trkpt lat="47.23053" lon="4.94208">
        <ele>466</ele>
        <time>2022-05-15T12:31:34Z</time>
      </trkpt>
      <trkpt lat="47.23052" lon="4.94206">
        <ele>466</ele>
        <time>2022-05-15T12:31:36Z</time>
      </trkpt>
      <trkpt lat="47.23051" lon="4.94205">
        <ele>467</ele>
        <time>2022-05-15T12:31:38Z</time>
      </trkpt>
      <trkpt lat="47.23049" lon="4.94204">
        <ele>466</ele>
        <time>2022-05-15T12:31:40Z</time>
      </trkpt>
      <trkpt lat="47.23048" lon="4.94203">
        <ele>466</ele>
        <time>2022-05-15T12:31:41Z</time>
      </trkpt>
      <trkpt lat="47.23047" lon="4.94202">
        <ele>465</ele>
        <time>2022-05-15T12:31:43Z</time>
      </trkpt>
      <trkpt lat="47.23046" lon="4.94201">
        <ele>465</ele>
        <time>2022-05-15T12:31:44Z</time>
      </trkpt>
      <trkpt lat="47.23046" lon="4.942">
        <ele>464</ele>
        <time>2022-05-15T12:31:45Z</time>
      </trkpt>
      <trkpt lat="47.23045" lon="4.94198">
        <ele>464</ele>
        <time>2022-05-15T12:31:46Z</time>
      </trkpt>
      <trkpt lat="47.23045" lon="4.94197">
        <ele>464</ele>
        <time>2022-05-15T12:31:47Z</time>
      </trkpt>
      <trkpt lat="47.23044" lon="4.94196">
        <ele>464</ele>
        <time>2022-05-15T12:31:48Z</time>
      </trkpt>
      <trkpt lat="47.23043" lon="4.94195">
        <ele>464</ele>
        <time>2022-05-15T12:31:49Z</time>
      </trkpt>
      <trkpt lat="47.23043" lon="4.94192">
        <ele>464</ele>
        <time>2022-05-15T12:31:51Z</time>
      </trkpt>
      <trkpt lat="47.23043" lon="4.94191">
        <ele>466</ele>
        <time>2022-05-15T12:31:53Z</time>
      </trkpt>
      <trkpt lat="47.23041" lon="4.9419">
        <ele>465</ele>
        <time>2022-05-15T12:31:55Z</time>
      </trkpt>
      <trkpt lat="47.23039" lon="4.9419">
        <ele>465</ele>
        <time>2022-05-15T12:31:57Z</time>
      </trkpt>
      <trkpt lat="47.23038" lon="4.94189">
        <ele>465</ele>
        <time>2022-05-15T12:31:58Z</time>
      </trkpt>
      <trkpt lat="47.23037" lon="4.94187">
        <ele>465</ele>
        <time>2022-05-15T12:32:00Z</time>
      </trkpt>
      <trkpt lat="47.23037" lon="4.94186">
        <ele>466</ele>
        <time>2022-05-15T12:32:01Z</time>
      </trkpt>
      <trkpt lat="47.23036" lon="4.94185">
        <ele>465</ele>
        <time>2022-05-15T12:32:02Z</time>
      </trkpt>
      <trkpt lat="47.23035" lon="4.94183">
        <ele>464</ele>
        <time>2022-05-15T12:32:04Z</time>
      </trkpt>
      <trkpt lat="47.23034" lon="4.94181">
        <ele>464</ele>
        <time>2022-05-15T12:32:06Z</time>
      </trkpt>
      <trkpt lat="47.23034" lon="4.9418">
        <ele>464</ele>
        <time>2022-05-15T12:32:07Z</time>
      </trkpt>
      <trkpt lat="47.23033" lon="4.94179">
        <ele>464</ele>
        <time>2022-05-15T12:32:08Z</time>
      </trkpt>
      <trkpt lat="47.23032" lon="4.94178">
        <ele>465</ele>
        <time>2022-05-15T12:32:10Z</time>
      </trkpt>
      <trkpt lat="47.23031" lon="4.94177">
        <ele>465</ele>
        <time>2022-05-15T12:32:11Z</time>
      </trkpt>
      <trkpt lat="47.2303" lon="4.94176">
        <ele>465</ele>
        <time>2022-05-15T12:32:12Z</time>
      </trkpt>
      <trkpt lat="47.23029" lon="4.94174">
        <ele>465</ele>
        <time>2022-05-15T12:32:13Z</time>
      </trkpt>
      <trkpt lat="47.23029" lon="4.94173">
        <ele>465</ele>
        <time>2022-05-15T12:32:14Z</time>
      </trkpt>
      <trkpt lat="47.23027" lon="4.94171">
        <ele>466</ele>
        <time>2022-05-15T12:32:16Z</time>
      </trkpt>
      <trkpt lat="47.23026" lon="4.9417">
        <ele>466</ele>
        <time>2022-05-15T12:32:18Z</time>
      </trkpt>
      <trkpt lat="47.23025" lon="4.94168">
        <ele>466</ele>
        <time>2022-05-15T12:32:19Z</time>
      </trkpt>
      <trkpt lat="47.23024" lon="4.94167">
        <ele>465</ele>
        <time>2022-05-15T12:32:20Z</time>
      </trkpt>
      <trkpt lat="47.23023" lon="4.94165">
        <ele>466</ele>
        <time>2022-05-15T12:32:22Z</time>
      </trkpt>
      <trkpt lat="47.23022" lon="4.94164">
        <ele>465</ele>
        <time>2022-05-15T12:32:23Z</time>
      </trkpt>
      <trkpt lat="47.23021" lon="4.94163">
        <ele>466</ele>
        <time>2022-05-15T12:32:24Z</time>
      </trkpt>
      <trkpt lat="47.2302" lon="4.94162">
        <ele>466</ele>
        <time>2022-05-15T12:32:25Z</time>
      </trkpt>
      <trkpt lat="47.23019" lon="4.9416">
        <ele>465</ele>
        <time>2022-05-15T12:32:26Z</time>
      </trkpt>
      <trkpt lat="47.23018" lon="4.94159">
        <ele>466</ele>
        <time>2022-05-15T12:32:28Z</time>
      </trkpt>
      <trkpt lat="47.23017" lon="4.94158">
        <ele>467</ele>
        <time>2022-05-15T12:32:30Z</time>
      </trkpt>
      <trkpt lat="47.23016" lon="4.94156">
        <ele>466</ele>
        <time>2022-05-15T12:32:32Z</time>
      </trkpt>
      <trkpt lat="47.23015" lon="4.94155">
        <ele>466</ele>
        <time>2022-05-15T12:32:34Z</time>
      </trkpt>
      <trkpt lat="47.23013" lon="4.94153">
        <ele>465</ele>
        <time>2022-05-15T12:32:36Z</time>
      </trkpt>
      <trkpt lat="47.23012" lon="4.94151">
        <ele>465</ele>
        <time>2022-05-15T12:32:38Z</time>
      </trkpt>
      <trkpt lat="47.23011" lon="4.9415">
        <ele>466</ele>
        <time>2022-05-15T12:32:39Z</time>
      </trkpt>
      <trkpt lat="47.2301" lon="4.9415">
        <ele>466</ele>
        <time>2022-05-15T12:32:40Z</time>
      </trkpt>
      <trkpt lat="47.2301" lon="4.94149">
        <ele>467</ele>
        <time>2022-05-15T12:32:41Z</time>
      </trkpt>
      <trkpt lat="47.23008" lon="4.94147">
        <ele>467</ele>
        <time>2022-05-15T12:32:43Z</time>
      </trkpt>
      <trkpt lat="47.23007" lon="4.94146">
        <ele>468</ele>
        <time>2022-05-15T12:32:44Z</time>
      </trkpt>
      <trkpt lat="47.23006" lon="4.94145">
        <ele>467</ele>
        <time>2022-05-15T12:32:45Z</time>
      </trkpt>
      <trkpt lat="47.23005" lon="4.94143">
        <ele>468</ele>
        <time>2022-05-15T12:32:47Z</time>
      </trkpt>
      <trkpt lat="47.23004" lon="4.94142">
        <ele>468</ele>
        <time>2022-05-15T12:32:48Z</time>
      </trkpt>
      <trkpt lat="47.23003" lon="4.9414">
        <ele>468</ele>
        <time>2022-05-15T12:32:49Z</time>
      </trkpt>
      <trkpt lat="47.23002" lon="4.94139">
        <ele>468</ele>
        <time>2022-05-15T12:32:50Z</time>
      </trkpt>
      <trkpt lat="47.23001" lon="4.94138">
        <ele>467</ele>
        <time>2022-05-15T12:32:51Z</time>
      </trkpt>
      <trkpt lat="47.23" lon="4.94137">
        <ele>467</ele>
        <time>2022-05-15T12:32:52Z</time>
      </trkpt>
      <trkpt lat="47.22999" lon="4.94136">
        <ele>467</ele>
        <time>2022-05-15T12:32:53Z</time>
      </trkpt>
      <trkpt lat="47.22998" lon="4.94135">
        <ele>466</ele>
        <time>2022-05-15T12:32:54Z</time>
      </trkpt>
      <trkpt lat="47.22997" lon="4.94134">
        <ele>466</ele>
        <time>2022-05-15T12:32:55Z</time>
      </trkpt>
      <trkpt lat="47.22996" lon="4.94133">
        <ele>467</ele>
        <time>2022-05-15T12:32:56Z</time>
      </trkpt>
      <trkpt lat="47.22995" lon="4.94131">
        <ele>468</ele>
        <time>2022-05-15T12:32:58Z</time>
      </trkpt>
      <trkpt lat="47.22994" lon="4.9413">
        <ele>468</ele>
        <time>2022-05-15T12:32:59Z</time>
      </trkpt>
      <trkpt lat="47.22993" lon="4.94128">
        <ele>469</ele>
        <time>2022-05-15T12:33:00Z</time>
      </trkpt>
      <trkpt lat="47.22992" lon="4.94127">
        <ele>468</ele>
        <time>2022-05-15T12:33:01Z</time>
      </trkpt>
      <trkpt lat="47.22992" lon="4.94126">
        <ele>469</ele>
        <time>2022-05-15T12:33:02Z</time>
      </trkpt>
      <trkpt lat="47.22991" lon="4.94125">
        <ele>469</ele>
        <time>2022-05-15T12:33:03Z</time>
      </trkpt>
      <trkpt lat="47.2299" lon="4.94124">
        <ele>470</ele>
        <time>2022-05-15T12:33:04Z</time>
      </trkpt>
      <trkpt lat="47.2299" lon="4.94123">
        <ele>470</ele>
        <time>2022-05-15T12:33:05Z</time>
      </trkpt>
      <trkpt lat="47.22988" lon="4.94122">
        <ele>470</ele>
        <time>2022-05-15T12:33:06Z</time>
      </trkpt>
      <trkpt lat="47.22987" lon="4.94121">
        <ele>470</ele>
        <time>2022-05-15T12:33:07Z</time>
      </trkpt>
      <trkpt lat="47.22987" lon="4.9412">
        <ele>469</ele>
        <time>2022-05-15T12:33:08Z</time>
      </trkpt>
      <trkpt lat="47.22985" lon="4.94119">
        <ele>469</ele>
        <time>2022-05-15T12:33:10Z</time>
      </trkpt>
      <trkpt lat="47.22984" lon="4.94117">
        <ele>471</ele>
        <time>2022-05-15T12:33:12Z</time>
      </trkpt>
      <trkpt lat="47.22984" lon="4.94116">
        <ele>470</ele>
        <time>2022-05-15T12:33:13Z</time>
      </trkpt>
      <trkpt lat="47.22983" lon="4.94114">
        <ele>469</ele>
        <time>2022-05-15T12:33:14Z</time>
      </trkpt>
      <trkpt lat="47.22982" lon="4.94113">
        <ele>469</ele>
        <time>2022-05-15T12:33:15Z</time>
      </trkpt>
      <trkpt lat="47.22982" lon="4.94111">
        <ele>469</ele>
        <time>2022-05-15T12:33:16Z</time>
      </trkpt>
      <trkpt lat="47.22981" lon="4.9411">
        <ele>469</ele>
        <time>2022-05-15T12:33:17Z</time>
      </trkpt>
      <trkpt lat="47.2298" lon="4.9411">
        <ele>468</ele>
        <time>2022-05-15T12:33:18Z</time>
      </trkpt>
      <trkpt lat="47.2298" lon="4.94109">
        <ele>468</ele>
        <time>2022-05-15T12:33:19Z</time>
      </trkpt>
      <trkpt lat="47.22979" lon="4.94108">
        <ele>469</ele>
        <time>2022-05-15T12:33:20Z</time>
      </trkpt>
      <trkpt lat="47.22978" lon="4.94106">
        <ele>469</ele>
        <time>2022-05-15T12:33:21Z</time>
      </trkpt>
      <trkpt lat="47.22977" lon="4.94105">
        <ele>470</ele>
        <time>2022-05-15T12:33:22Z</time>
      </trkpt>
      <trkpt lat="47.22977" lon="4.94104">
        <ele>470</ele>
        <time>2022-05-15T12:33:23Z</time>
      </trkpt>
      <trkpt lat="47.22976" lon="4.94103">
        <ele>470</ele>
        <time>2022-05-15T12:33:24Z</time>
      </trkpt>
      <trkpt lat="47.22975" lon="4.94101">
        <ele>469</ele>
        <time>2022-05-15T12:33:25Z</time>
      </trkpt>
      <trkpt lat="47.22974" lon="4.941">
        <ele>469</ele>
        <time>2022-05-15T12:33:26Z</time>
      </trkpt>
      <trkpt lat="47.22973" lon="4.94099">
        <ele>469</ele>
        <time>2022-05-15T12:33:27Z</time>
      </trkpt>
      <trkpt lat="47.22972" lon="4.94098">
        <ele>469</ele>
        <time>2022-05-15T12:33:28Z</time>
      </trkpt>
      <trkpt lat="47.22971" lon="4.94097">
        <ele>469</ele>
        <time>2022-05-15T12:33:29Z</time>
      </trkpt>
      <trkpt lat="47.2297" lon="4.94096">
        <ele>469</ele>
        <time>2022-05-15T12:33:30Z</time>
      </trkpt>
      <trkpt lat="47.22969" lon="4.94096">
        <ele>469</ele>
        <time>2022-05-15T12:33:31Z</time>
      </trkpt>
      <trkpt lat="47.22969" lon="4.94095">
        <ele>469</ele>
        <time>2022-05-15T12:33:32Z</time>
      </trkpt>
      <trkpt lat="47.22968" lon="4.94094">
        <ele>468</ele>
        <time>2022-05-15T12:33:33Z</time>
      </trkpt>
      <trkpt lat="47.22967" lon="4.94092">
        <ele>468</ele>
        <time>2022-05-15T12:33:34Z</time>
      </trkpt>
      <trkpt lat="47.22966" lon="4.94091">
        <ele>469</ele>
        <time>2022-05-15T12:33:35Z</time>
      </trkpt>
      <trkpt lat="47.22965" lon="4.9409">
        <ele>468</ele>
        <time>2022-05-15T12:33:36Z</time>
      </trkpt>
      <trkpt lat="47.22964" lon="4.94088">
        <ele>469</ele>
        <time>2022-05-15T12:33:38Z</time>
      </trkpt>
      <trkpt lat="47.22963" lon="4.94087">
        <ele>469</ele>
        <time>2022-05-15T12:33:39Z</time>
      </trkpt>
      <trkpt lat="47.22962" lon="4.94086">
        <ele>469</ele>
        <time>2022-05-15T12:33:40Z</time>
      </trkpt>
      <trkpt lat="47.2296" lon="4.94085">
        <ele>469</ele>
        <time>2022-05-15T12:33:42Z</time>
      </trkpt>
      <trkpt lat="47.22959" lon="4.94084">
        <ele>468</ele>
        <time>2022-05-15T12:33:44Z</time>
      </trkpt>
      <trkpt lat="47.22958" lon="4.94081">
        <ele>469</ele>
        <time>2022-05-15T12:33:47Z</time>
      </trkpt>
      <trkpt lat="47.22957" lon="4.94081">
        <ele>468</ele>
        <time>2022-05-15T12:33:48Z</time>
      </trkpt>
      <trkpt lat="47.22956" lon="4.94079">
        <ele>467</ele>
        <time>2022-05-15T12:33:49Z</time>
      </trkpt>
      <trkpt lat="47.22955" lon="4.94078">
        <ele>468</ele>
        <time>2022-05-15T12:33:50Z</time>
      </trkpt>
      <trkpt lat="47.22954" lon="4.94077">
        <ele>468</ele>
        <time>2022-05-15T12:33:52Z</time>
      </trkpt>
      <trkpt lat="47.22953" lon="4.94076">
        <ele>466</ele>
        <time>2022-05-15T12:33:54Z</time>
      </trkpt>
      <trkpt lat="47.22952" lon="4.94074">
        <ele>466</ele>
        <time>2022-05-15T12:33:56Z</time>
      </trkpt>
      <trkpt lat="47.22951" lon="4.94073">
        <ele>467</ele>
        <time>2022-05-15T12:33:58Z</time>
      </trkpt>
      <trkpt lat="47.2295" lon="4.94072">
        <ele>467</ele>
        <time>2022-05-15T12:33:59Z</time>
      </trkpt>
      <trkpt lat="47.22948" lon="4.94071">
        <ele>467</ele>
        <time>2022-05-15T12:34:00Z</time>
      </trkpt>
      <trkpt lat="47.22947" lon="4.94071">
        <ele>468</ele>
        <time>2022-05-15T12:34:01Z</time>
      </trkpt>
      <trkpt lat="47.22946" lon="4.94069">
        <ele>470</ele>
        <time>2022-05-15T12:34:03Z</time>
      </trkpt>
      <trkpt lat="47.22945" lon="4.94068">
        <ele>471</ele>
        <time>2022-05-15T12:34:04Z</time>
      </trkpt>
      <trkpt lat="47.22944" lon="4.94067">
        <ele>470</ele>
        <time>2022-05-15T12:34:05Z</time>
      </trkpt>
      <trkpt lat="47.22943" lon="4.94066">
        <ele>470</ele>
        <time>2022-05-15T12:34:06Z</time>
      </trkpt>
      <trkpt lat="47.22943" lon="4.94065">
        <ele>470</ele>
        <time>2022-05-15T12:34:07Z</time>
      </trkpt>
      <trkpt lat="47.22942" lon="4.94064">
        <ele>470</ele>
        <time>2022-05-15T12:34:08Z</time>
      </trkpt>
      <trkpt lat="47.22941" lon="4.94062">
        <ele>471</ele>
        <time>2022-05-15T12:34:10Z</time>
      </trkpt>
      <trkpt lat="47.2294" lon="4.94061">
        <ele>470</ele>
        <time>2022-05-15T12:34:11Z</time>
      </trkpt>
      <trkpt lat="47.22939" lon="4.9406">
        <ele>470</ele>
        <time>2022-05-15T12:34:12Z</time>
      </trkpt>
      <trkpt lat="47.22939" lon="4.94059">
        <ele>469</ele>
        <time>2022-05-15T12:34:13Z</time>
      </trkpt>
      <trkpt lat="47.22938" lon="4.94057">
        <ele>468</ele>
        <time>2022-05-15T12:34:14Z</time>
      </trkpt>
      <trkpt lat="47.22937" lon="4.94057">
        <ele>469</ele>
        <time>2022-05-15T12:34:15Z</time>
      </trkpt>
      <trkpt lat="47.22936" lon="4.94055">
        <ele>468</ele>
        <time>2022-05-15T12:34:17Z</time>
      </trkpt>
      <trkpt lat="47.22935" lon="4.94055">
        <ele>467</ele>
        <time>2022-05-15T12:34:18Z</time>
      </trkpt>
      <trkpt lat="47.22934" lon="4.94054">
        <ele>466</ele>
        <time>2022-05-15T12:34:20Z</time>
      </trkpt>
      <trkpt lat="47.22933" lon="4.94052">
        <ele>466</ele>
        <time>2022-05-15T12:34:21Z</time>
      </trkpt>
      <trkpt lat="47.22932" lon="4.94051">
        <ele>466</ele>
        <time>2022-05-15T12:34:22Z</time>
      </trkpt>
      <trkpt lat="47.22932" lon="4.9405">
        <ele>466</ele>
        <time>2022-05-15T12:34:23Z</time>
      </trkpt>
      <trkpt lat="47.22931" lon="4.94049">
        <ele>466</ele>
        <time>2022-05-15T12:34:24Z</time>
      </trkpt>
      <trkpt lat="47.2293" lon="4.94047">
        <ele>465</ele>
        <time>2022-05-15T12:34:26Z</time>
      </trkpt>
      <trkpt lat="47.22929" lon="4.94046">
        <ele>465</ele>
        <time>2022-05-15T12:34:27Z</time>
      </trkpt>
      <trkpt lat="47.22928" lon="4.94044">
        <ele>465</ele>
        <time>2022-05-15T12:34:29Z</time>
      </trkpt>
      <trkpt lat="47.22927" lon="4.94042">
        <ele>465</ele>
        <time>2022-05-15T12:34:30Z</time>
      </trkpt>
      <trkpt lat="47.22926" lon="4.94041">
        <ele>465</ele>
        <time>2022-05-15T12:34:31Z</time>
      </trkpt>
      <trkpt lat="47.22925" lon="4.94039">
        <ele>465</ele>
        <time>2022-05-15T12:34:32Z</time>
      </trkpt>
      <trkpt lat="47.22924" lon="4.94038">
        <ele>466</ele>
        <time>2022-05-15T12:34:33Z</time>
      </trkpt>
      <trkpt lat="47.22924" lon="4.94037">
        <ele>466</ele>
        <time>2022-05-15T12:34:35Z</time>
      </trkpt>
      <trkpt lat="47.22923" lon="4.94035">
        <ele>465</ele>
        <time>2022-05-15T12:34:37Z</time>
      </trkpt>
      <trkpt lat="47.22922" lon="4.94033">
        <ele>466</ele>
        <time>2022-05-15T12:34:39Z</time>
      </trkpt>
      <trkpt lat="47.22922" lon="4.94032">
        <ele>466</ele>
        <time>2022-05-15T12:34:40Z</time>
      </trkpt>
      <trkpt lat="47.2292" lon="4.9403">
        <ele>465</ele>
        <time>2022-05-15T12:34:42Z</time>
      </trkpt>
      <trkpt lat="47.2292" lon="4.9403">
        <ele>465</ele>
        <time>2022-05-15T12:34:43Z</time>
      </trkpt>
      <trkpt lat="47.22918" lon="4.94029">
        <ele>465</ele>
        <time>2022-05-15T12:34:45Z</time>
      </trkpt>
      <trkpt lat="47.22918" lon="4.94027">
        <ele>465</ele>
        <time>2022-05-15T12:34:47Z</time>
      </trkpt>
      <trkpt lat="47.22918" lon="4.94025">
        <ele>465</ele>
        <time>2022-05-15T12:34:49Z</time>
      </trkpt>
      <trkpt lat="47.22918" lon="4.94023">
        <ele>465</ele>
        <time>2022-05-15T12:34:51Z</time>
      </trkpt>
      <trkpt lat="47.22917" lon="4.94022">
        <ele>462</ele>
        <time>2022-05-15T12:34:54Z</time>
      </trkpt>
      <trkpt lat="47.22916" lon="4.94021">
        <ele>461</ele>
        <time>2022-05-15T12:34:56Z</time>
      </trkpt>
      <trkpt lat="47.22916" lon="4.94019">
        <ele>459</ele>
        <time>2022-05-15T12:34:58Z</time>
      </trkpt>
      <trkpt lat="47.22915" lon="4.94018">
        <ele>459</ele>
        <time>2022-05-15T12:35:01Z</time>
      </trkpt>
      <trkpt lat="47.22914" lon="4.94018">
        <ele>459</ele>
        <time>2022-05-15T12:35:04Z</time>
      </trkpt>
      <trkpt lat="47.22912" lon="4.94016">
        <ele>458</ele>
        <time>2022-05-15T12:35:05Z</time>
      </trkpt>
      <trkpt lat="47.22912" lon="4.94015">
        <ele>458</ele>
        <time>2022-05-15T12:35:06Z</time>
      </trkpt>
      <trkpt lat="47.22911" lon="4.94014">
        <ele>458</ele>
        <time>2022-05-15T12:35:07Z</time>
      </trkpt>
      <trkpt lat="47.2291" lon="4.94012">
        <ele>458</ele>
        <time>2022-05-15T12:35:08Z</time>
      </trkpt>
      <trkpt lat="47.22909" lon="4.94011">
        <ele>459</ele>
        <time>2022-05-15T12:35:09Z</time>
      </trkpt>
      <trkpt lat="47.22908" lon="4.9401">
        <ele>459</ele>
        <time>2022-05-15T12:35:10Z</time>
      </trkpt>
      <trkpt lat="47.22906" lon="4.94009">
        <ele>459</ele>
        <time>2022-05-15T12:35:12Z</time>
      </trkpt>
      <trkpt lat="47.22905" lon="4.94008">
        <ele>458</ele>
        <time>2022-05-15T12:35:14Z</time>
      </trkpt>
      <trkpt lat="47.22904" lon="4.94007">
        <ele>458</ele>
        <time>2022-05-15T12:35:15Z</time>
      </trkpt>
      <trkpt lat="47.22903" lon="4.94006">
        <ele>458</ele>
        <time>2022-05-15T12:35:16Z</time>
      </trkpt>
      <trkpt lat="47.22901" lon="4.94004">
        <ele>458</ele>
        <time>2022-05-15T12:35:18Z</time>
      </trkpt>
      <trkpt lat="47.22901" lon="4.94003">
        <ele>458</ele>
        <time>2022-05-15T12:35:19Z</time>
      </trkpt>
      <trkpt lat="47.229" lon="4.94002">
        <ele>456</ele>
        <time>2022-05-15T12:35:21Z</time>
      </trkpt>
      <trkpt lat="47.22899" lon="4.94001">
        <ele>454</ele>
        <time>2022-05-15T12:35:24Z</time>
      </trkpt>
      <trkpt lat="47.22898" lon="4.94">
        <ele>455</ele>
        <time>2022-05-15T12:35:25Z</time>
      </trkpt>
      <trkpt lat="47.22897" lon="4.93998">
        <ele>456</ele>
        <time>2022-05-15T12:35:27Z</time>
      </trkpt>
      <trkpt lat="47.22896" lon="4.93998">
        <ele>455</ele>
        <time>2022-05-15T12:35:28Z</time>
      </trkpt>
      <trkpt lat="47.22895" lon="4.93995">
        <ele>457</ele>
        <time>2022-05-15T12:35:30Z</time>
      </trkpt>
      <trkpt lat="47.22894" lon="4.93994">
        <ele>456</ele>
        <time>2022-05-15T12:35:31Z</time>
      </trkpt>
      <trkpt lat="47.22893" lon="4.93993">
        <ele>456</ele>
        <time>2022-05-15T12:35:32Z</time>
      </trkpt>
      <trkpt lat="47.22892" lon="4.93992">
        <ele>457</ele>
        <time>2022-05-15T12:35:33Z</time>
      </trkpt>
      <trkpt lat="47.22891" lon="4.93991">
        <ele>459</ele>
        <time>2022-05-15T12:35:35Z</time>
      </trkpt>
      <trkpt lat="47.2289" lon="4.93989">
        <ele>459</ele>
        <time>2022-05-15T12:35:36Z</time>
      </trkpt>
      <trkpt lat="47.22889" lon="4.93988">
        <ele>457</ele>
        <time>2022-05-15T12:35:37Z</time>
      </trkpt>
      <trkpt lat="47.22888" lon="4.93986">
        <ele>457</ele>
        <time>2022-05-15T12:35:39Z</time>
      </trkpt>
      <trkpt lat="47.22887" lon="4.93985">
        <ele>457</ele>
        <time>2022-05-15T12:35:41Z</time>
      </trkpt>
      <trkpt lat="47.22886" lon="4.93984">
        <ele>458</ele>
        <time>2022-05-15T12:35:42Z</time>
      </trkpt>
      <trkpt lat="47.22885" lon="4.93983">
        <ele>457</ele>
        <time>2022-05-15T12:35:44Z</time>
      </trkpt>
      <trkpt lat="47.22884" lon="4.93982">
        <ele>457</ele>
        <time>2022-05-15T12:35:46Z</time>
      </trkpt>
      <trkpt lat="47.22882" lon="4.93981">
        <ele>457</ele>
        <time>2022-05-15T12:35:47Z</time>
      </trkpt>
      <trkpt lat="47.22881" lon="4.9398">
        <ele>457</ele>
        <time>2022-05-15T12:35:48Z</time>
      </trkpt>
      <trkpt lat="47.2288" lon="4.93978">
        <ele>458</ele>
        <time>2022-05-15T12:35:50Z</time>
      </trkpt>
      <trkpt lat="47.22879" lon="4.93977">
        <ele>458</ele>
        <time>2022-05-15T12:35:52Z</time>
      </trkpt>
      <trkpt lat="47.22878" lon="4.93977">
        <ele>460</ele>
        <time>2022-05-15T12:35:54Z</time>
      </trkpt>
      <trkpt lat="47.22877" lon="4.93976">
        <ele>460</ele>
        <time>2022-05-15T12:35:56Z</time>
      </trkpt>
      <trkpt lat="47.22876" lon="4.93973">
        <ele>461</ele>
        <time>2022-05-15T12:35:59Z</time>
      </trkpt>
      <trkpt lat="47.22875" lon="4.93972">
        <ele>460</ele>
        <time>2022-05-15T12:36:00Z</time>
      </trkpt>
      <trkpt lat="47.22874" lon="4.93971">
        <ele>461</ele>
        <time>2022-05-15T12:36:01Z</time>
      </trkpt>
      <trkpt lat="47.22873" lon="4.93971">
        <ele>462</ele>
        <time>2022-05-15T12:36:02Z</time>
      </trkpt>
      <trkpt lat="47.22872" lon="4.9397">
        <ele>463</ele>
        <time>2022-05-15T12:36:03Z</time>
      </trkpt>
      <trkpt lat="47.22871" lon="4.93969">
        <ele>462</ele>
        <time>2022-05-15T12:36:05Z</time>
      </trkpt>
      <trkpt lat="47.2287" lon="4.93968">
        <ele>460</ele>
        <time>2022-05-15T12:36:07Z</time>
      </trkpt>
      <trkpt lat="47.22869" lon="4.93966">
        <ele>461</ele>
        <time>2022-05-15T12:36:09Z</time>
      </trkpt>
      <trkpt lat="47.22868" lon="4.93965">
        <ele>460</ele>
        <time>2022-05-15T12:36:10Z</time>
      </trkpt>
      <trkpt lat="47.22868" lon="4.93963">
        <ele>455</ele>
        <time>2022-05-15T12:36:12Z</time>
      </trkpt>
      <trkpt lat="47.22867" lon="4.93961">
        <ele>454</ele>
        <time>2022-05-15T12:36:13Z</time>
      </trkpt>
      <trkpt lat="47.22866" lon="4.9396">
        <ele>455</ele>
        <time>2022-05-15T12:36:14Z</time>
      </trkpt>
      <trkpt lat="47.22865" lon="4.93958">
        <ele>455</ele>
        <time>2022-05-15T12:36:15Z</time>
      </trkpt>
      <trkpt lat="47.22865" lon="4.93957">
        <ele>455</ele>
        <time>2022-05-15T12:36:16Z</time>
      </trkpt>
      <trkpt lat="47.22864" lon="4.93956">
        <ele>457</ele>
        <time>2022-05-15T12:36:17Z</time>
      </trkpt>
      <trkpt lat="47.22863" lon="4.93955">
        <ele>458</ele>
        <time>2022-05-15T12:36:18Z</time>
      </trkpt>
      <trkpt lat="47.22862" lon="4.93954">
        <ele>458</ele>
        <time>2022-05-15T12:36:19Z</time>
      </trkpt>
      <trkpt lat="47.22861" lon="4.93953">
        <ele>457</ele>
        <time>2022-05-15T12:36:20Z</time>
      </trkpt>
      <trkpt lat="47.22861" lon="4.93952">
        <ele>457</ele>
        <time>2022-05-15T12:36:21Z</time>
      </trkpt>
      <trkpt lat="47.2286" lon="4.9395">
        <ele>453</ele>
        <time>2022-05-15T12:36:23Z</time>
      </trkpt>
      <trkpt lat="47.22859" lon="4.93948">
        <ele>454</ele>
        <time>2022-05-15T12:36:25Z</time>
      </trkpt>
      <trkpt lat="47.22858" lon="4.93946">
        <ele>453</ele>
        <time>2022-05-15T12:36:27Z</time>
      </trkpt>
      <trkpt lat="47.22858" lon="4.93945">
        <ele>454</ele>
        <time>2022-05-15T12:36:28Z</time>
      </trkpt>
      <trkpt lat="47.22857" lon="4.93943">
        <ele>455</ele>
        <time>2022-05-15T12:36:30Z</time>
      </trkpt>
      <trkpt lat="47.22856" lon="4.93941">
        <ele>455</ele>
        <time>2022-05-15T12:36:31Z</time>
      </trkpt>
      <trkpt lat="47.22855" lon="4.9394">
        <ele>455</ele>
        <time>2022-05-15T12:36:32Z</time>
      </trkpt>
      <trkpt lat="47.22854" lon="4.93939">
        <ele>455</ele>
        <time>2022-05-15T12:36:34Z</time>
      </trkpt>
      <trkpt lat="47.22853" lon="4.93939">
        <ele>455</ele>
        <time>2022-05-15T12:36:36Z</time>
      </trkpt>
      <trkpt lat="47.22852" lon="4.93938">
        <ele>456</ele>
        <time>2022-05-15T12:36:37Z</time>
      </trkpt>
      <trkpt lat="47.22851" lon="4.93937">
        <ele>456</ele>
        <time>2022-05-15T12:36:38Z</time>
      </trkpt>
      <trkpt lat="47.2285" lon="4.93936">
        <ele>458</ele>
        <time>2022-05-15T12:36:39Z</time>
      </trkpt>
      <trkpt lat="47.22849" lon="4.93936">
        <ele>458</ele>
        <time>2022-05-15T12:36:40Z</time>
      </trkpt>
      <trkpt lat="47.22848" lon="4.93935">
        <ele>458</ele>
        <time>2022-05-15T12:36:41Z</time>
      </trkpt>
      <trkpt lat="47.22847" lon="4.93934">
        <ele>456</ele>
        <time>2022-05-15T12:36:42Z</time>
      </trkpt>
      <trkpt lat="47.22847" lon="4.93932">
        <ele>453</ele>
        <time>2022-05-15T12:36:43Z</time>
      </trkpt>
      <trkpt lat="47.22846" lon="4.93929">
        <ele>453</ele>
        <time>2022-05-15T12:36:44Z</time>
      </trkpt>
      <trkpt lat="47.22845" lon="4.93927">
        <ele>453</ele>
        <time>2022-05-15T12:36:45Z</time>
      </trkpt>
      <trkpt lat="47.22844" lon="4.93926">
        <ele>452</ele>
        <time>2022-05-15T12:36:46Z</time>
      </trkpt>
      <trkpt lat="47.22843" lon="4.93924">
        <ele>452</ele>
        <time>2022-05-15T12:36:47Z</time>
      </trkpt>
      <trkpt lat="47.22842" lon="4.93923">
        <ele>451</ele>
        <time>2022-05-15T12:36:48Z</time>
      </trkpt>
      <trkpt lat="47.22842" lon="4.93921">
        <ele>451</ele>
        <time>2022-05-15T12:36:49Z</time>
      </trkpt>
      <trkpt lat="47.22841" lon="4.93919">
        <ele>451</ele>
        <time>2022-05-15T12:36:51Z</time>
      </trkpt>
      <trkpt lat="47.2284" lon="4.93918">
        <ele>453</ele>
        <time>2022-05-15T12:36:53Z</time>
      </trkpt>
      <trkpt lat="47.22839" lon="4.93917">
        <ele>455</ele>
        <time>2022-05-15T12:36:54Z</time>
      </trkpt>
      <trkpt lat="47.22838" lon="4.93916">
        <ele>456</ele>
        <time>2022-05-15T12:36:55Z</time>
      </trkpt>
      <trkpt lat="47.22837" lon="4.93915">
        <ele>460</ele>
        <time>2022-05-15T12:36:56Z</time>
      </trkpt>
      <trkpt lat="47.22836" lon="4.93914">
        <ele>460</ele>
        <time>2022-05-15T12:36:57Z</time>
      </trkpt>
      <trkpt lat="47.22835" lon="4.93913">
        <ele>454</ele>
        <time>2022-05-15T12:36:58Z</time>
      </trkpt>
      <trkpt lat="47.22834" lon="4.93912">
        <ele>455</ele>
        <time>2022-05-15T12:36:59Z</time>
      </trkpt>
      <trkpt lat="47.22833" lon="4.93911">
        <ele>456</ele>
        <time>2022-05-15T12:37:00Z</time>
      </trkpt>
      <trkpt lat="47.22832" lon="4.9391">
        <ele>468</ele>
        <time>2022-05-15T12:37:02Z</time>
      </trkpt>
      <trkpt lat="47.22832" lon="4.93908">
        <ele>464</ele>
        <time>2022-05-15T12:37:05Z</time>
      </trkpt>
      <trkpt lat="47.22831" lon="4.93906">
        <ele>464</ele>
        <time>2022-05-15T12:37:07Z</time>
      </trkpt>
      <trkpt lat="47.22829" lon="4.93905">
        <ele>464</ele>
        <time>2022-05-15T12:37:08Z</time>
      </trkpt>
      <trkpt lat="47.22828" lon="4.93904">
        <ele>464</ele>
        <time>2022-05-15T12:37:09Z</time>
      </trkpt>
      <trkpt lat="47.22827" lon="4.93903">
        <ele>491</ele>
        <time>2022-05-15T12:37:11Z</time>
      </trkpt>
      <trkpt lat="47.22826" lon="4.93902">
        <ele>483</ele>
        <time>2022-05-15T12:37:13Z</time>
      </trkpt>
      <trkpt lat="47.22824" lon="4.939">
        <ele>481</ele>
        <time>2022-05-15T12:37:15Z</time>
      </trkpt>
      <trkpt lat="47.22822" lon="4.939">
        <ele>476</ele>
        <time>2022-05-15T12:37:16Z</time>
      </trkpt>
      <trkpt lat="47.22821" lon="4.93898">
        <ele>475</ele>
        <time>2022-05-15T12:37:17Z</time>
      </trkpt>
      <trkpt lat="47.2282" lon="4.93898">
        <ele>474</ele>
        <time>2022-05-15T12:37:18Z</time>
      </trkpt>
      <trkpt lat="47.22819" lon="4.93897">
        <ele>472</ele>
        <time>2022-05-15T12:37:19Z</time>
      </trkpt>
      <trkpt lat="47.22819" lon="4.93896">
        <ele>470</ele>
        <time>2022-05-15T12:37:20Z</time>
      </trkpt>
      <trkpt lat="47.22818" lon="4.93895">
        <ele>469</ele>
        <time>2022-05-15T12:37:21Z</time>
      </trkpt>
      <trkpt lat="47.22817" lon="4.93894">
        <ele>467</ele>
        <time>2022-05-15T12:37:22Z</time>
      </trkpt>
      <trkpt lat="47.22816" lon="4.93894">
        <ele>470</ele>
        <time>2022-05-15T12:37:23Z</time>
      </trkpt>
      <trkpt lat="47.22814" lon="4.93892">
        <ele>496</ele>
        <time>2022-05-15T12:37:25Z</time>
      </trkpt>
      <trkpt lat="47.22813" lon="4.93892">
        <ele>488</ele>
        <time>2022-05-15T12:37:27Z</time>
      </trkpt>
      <trkpt lat="47.22812" lon="4.93891">
        <ele>481</ele>
        <time>2022-05-15T12:37:28Z</time>
      </trkpt>
      <trkpt lat="47.22811" lon="4.9389">
        <ele>477</ele>
        <time>2022-05-15T12:37:29Z</time>
      </trkpt>
      <trkpt lat="47.2281" lon="4.93889">
        <ele>474</ele>
        <time>2022-05-15T12:37:30Z</time>
      </trkpt>
      <trkpt lat="47.22809" lon="4.93888">
        <ele>474</ele>
        <time>2022-05-15T12:37:31Z</time>
      </trkpt>
      <trkpt lat="47.22809" lon="4.93886">
        <ele>475</ele>
        <time>2022-05-15T12:37:33Z</time>
      </trkpt>
      <trkpt lat="47.22808" lon="4.93885">
        <ele>473</ele>
        <time>2022-05-15T12:37:34Z</time>
      </trkpt>
      <trkpt lat="47.22807" lon="4.93884">
        <ele>473</ele>
        <time>2022-05-15T12:37:35Z</time>
      </trkpt>
      <trkpt lat="47.22806" lon="4.93882">
        <ele>472</ele>
        <time>2022-05-15T12:37:36Z</time>
      </trkpt>
      <trkpt lat="47.22805" lon="4.93881">
        <ele>472</ele>
        <time>2022-05-15T12:37:37Z</time>
      </trkpt>
      <trkpt lat="47.22805" lon="4.9388">
        <ele>472</ele>
        <time>2022-05-15T12:37:38Z</time>
      </trkpt>
      <trkpt lat="47.22804" lon="4.93878">
        <ele>474</ele>
        <time>2022-05-15T12:37:39Z</time>
      </trkpt>
      <trkpt lat="47.22803" lon="4.93877">
        <ele>473</ele>
        <time>2022-05-15T12:37:41Z</time>
      </trkpt>
      <trkpt lat="47.22802" lon="4.93875">
        <ele>473</ele>
        <time>2022-05-15T12:37:43Z</time>
      </trkpt>
      <trkpt lat="47.22803" lon="4.93874">
        <ele>471</ele>
        <time>2022-05-15T12:37:45Z</time>
      </trkpt>
      <trkpt lat="47.22803" lon="4.93873">
        <ele>471</ele>
        <time>2022-05-15T12:37:46Z</time>
      </trkpt>
      <trkpt lat="47.22802" lon="4.93871">
        <ele>471</ele>
        <time>2022-05-15T12:37:47Z</time>
      </trkpt>
      <trkpt lat="47.22801" lon="4.9387">
        <ele>470</ele>
        <time>2022-05-15T12:37:48Z</time>
      </trkpt>
      <trkpt lat="47.228" lon="4.93868">
        <ele>471</ele>
        <time>2022-05-15T12:37:49Z</time>
      </trkpt>
      <trkpt lat="47.228" lon="4.93867">
        <ele>471</ele>
        <time>2022-05-15T12:37:50Z</time>
      </trkpt>
      <trkpt lat="47.22799" lon="4.93866">
        <ele>472</ele>
        <time>2022-05-15T12:37:52Z</time>
      </trkpt>
      <trkpt lat="47.22798" lon="4.93865">
        <ele>472</ele>
        <time>2022-05-15T12:37:53Z</time>
      </trkpt>
      <trkpt lat="47.22797" lon="4.93863">
        <ele>472</ele>
        <time>2022-05-15T12:37:54Z</time>
      </trkpt>
      <trkpt lat="47.22796" lon="4.93862">
        <ele>472</ele>
        <time>2022-05-15T12:37:55Z</time>
      </trkpt>
      <trkpt lat="47.22794" lon="4.9386">
        <ele>471</ele>
        <time>2022-05-15T12:37:57Z</time>
      </trkpt>
      <trkpt lat="47.22793" lon="4.93859">
        <ele>472</ele>
        <time>2022-05-15T12:37:58Z</time>
      </trkpt>
      <trkpt lat="47.22792" lon="4.93857">
        <ele>474</ele>
        <time>2022-05-15T12:37:59Z</time>
      </trkpt>
      <trkpt lat="47.22791" lon="4.93856">
        <ele>474</ele>
        <time>2022-05-15T12:38:00Z</time>
      </trkpt>
      <trkpt lat="47.2279" lon="4.93855">
        <ele>474</ele>
        <time>2022-05-15T12:38:01Z</time>
      </trkpt>
      <trkpt lat="47.22788" lon="4.93854">
        <ele>473</ele>
        <time>2022-05-15T12:38:03Z</time>
      </trkpt>
      <trkpt lat="47.22787" lon="4.93853">
        <ele>496</ele>
        <time>2022-05-15T12:38:04Z</time>
      </trkpt>
      <trkpt lat="47.22787" lon="4.93852">
        <ele>491</ele>
        <time>2022-05-15T12:38:05Z</time>
      </trkpt>
      <trkpt lat="47.22786" lon="4.93851">
        <ele>486</ele>
        <time>2022-05-15T12:38:06Z</time>
      </trkpt>
      <trkpt lat="47.22785" lon="4.93849">
        <ele>482</ele>
        <time>2022-05-15T12:38:08Z</time>
      </trkpt>
      <trkpt lat="47.22784" lon="4.93848">
        <ele>479</ele>
        <time>2022-05-15T12:38:10Z</time>
      </trkpt>
      <trkpt lat="47.22783" lon="4.93847">
        <ele>478</ele>
        <time>2022-05-15T12:38:11Z</time>
      </trkpt>
      <trkpt lat="47.22782" lon="4.93846">
        <ele>478</ele>
        <time>2022-05-15T12:38:12Z</time>
      </trkpt>
      <trkpt lat="47.2278" lon="4.93845">
        <ele>473</ele>
        <time>2022-05-15T12:38:14Z</time>
      </trkpt>
      <trkpt lat="47.22779" lon="4.93844">
        <ele>469</ele>
        <time>2022-05-15T12:38:16Z</time>
      </trkpt>
      <trkpt lat="47.22777" lon="4.93843">
        <ele>470</ele>
        <time>2022-05-15T12:38:18Z</time>
      </trkpt>
      <trkpt lat="47.22777" lon="4.93841">
        <ele>471</ele>
        <time>2022-05-15T12:38:20Z</time>
      </trkpt>
      <trkpt lat="47.22776" lon="4.93839">
        <ele>471</ele>
        <time>2022-05-15T12:38:22Z</time>
      </trkpt>
      <trkpt lat="47.22775" lon="4.93837">
        <ele>471</ele>
        <time>2022-05-15T12:38:23Z</time>
      </trkpt>
      <trkpt lat="47.22775" lon="4.93835">
        <ele>470</ele>
        <time>2022-05-15T12:38:24Z</time>
      </trkpt>
      <trkpt lat="47.22773" lon="4.93834">
        <ele>470</ele>
        <time>2022-05-15T12:38:25Z</time>
      </trkpt>
      <trkpt lat="47.22772" lon="4.93833">
        <ele>470</ele>
        <time>2022-05-15T12:38:26Z</time>
      </trkpt>
      <trkpt lat="47.22771" lon="4.93831">
        <ele>470</ele>
        <time>2022-05-15T12:38:27Z</time>
      </trkpt>
      <trkpt lat="47.2277" lon="4.93831">
        <ele>470</ele>
        <time>2022-05-15T12:38:28Z</time>
      </trkpt>
      <trkpt lat="47.22769" lon="4.9383">
        <ele>469</ele>
        <time>2022-05-15T12:38:29Z</time>
      </trkpt>
      <trkpt lat="47.22768" lon="4.93828">
        <ele>469</ele>
        <time>2022-05-15T12:38:30Z</time>
      </trkpt>
      <trkpt lat="47.22767" lon="4.93828">
        <ele>470</ele>
        <time>2022-05-15T12:38:31Z</time>
      </trkpt>
      <trkpt lat="47.22766" lon="4.93827">
        <ele>470</ele>
        <time>2022-05-15T12:38:32Z</time>
      </trkpt>
      <trkpt lat="47.22765" lon="4.93827">
        <ele>471</ele>
        <time>2022-05-15T12:38:33Z</time>
      </trkpt>
      <trkpt lat="47.22763" lon="4.93826">
        <ele>471</ele>
        <time>2022-05-15T12:38:35Z</time>
      </trkpt>
      <trkpt lat="47.22762" lon="4.93825">
        <ele>470</ele>
        <time>2022-05-15T12:38:37Z</time>
      </trkpt>
      <trkpt lat="47.22761" lon="4.93824">
        <ele>470</ele>
        <time>2022-05-15T12:38:38Z</time>
      </trkpt>
      <trkpt lat="47.2276" lon="4.93823">
        <ele>470</ele>
        <time>2022-05-15T12:38:39Z</time>
      </trkpt>
      <trkpt lat="47.22759" lon="4.93821">
        <ele>468</ele>
        <time>2022-05-15T12:38:40Z</time>
      </trkpt>
      <trkpt lat="47.22758" lon="4.93818">
        <ele>471</ele>
        <time>2022-05-15T12:38:41Z</time>
      </trkpt>
      <trkpt lat="47.22756" lon="4.93816">
        <ele>470</ele>
        <time>2022-05-15T12:38:42Z</time>
      </trkpt>
      <trkpt lat="47.22755" lon="4.93814">
        <ele>469</ele>
        <time>2022-05-15T12:38:43Z</time>
      </trkpt>
      <trkpt lat="47.22753" lon="4.93812">
        <ele>471</ele>
        <time>2022-05-15T12:38:44Z</time>
      </trkpt>
      <trkpt lat="47.22752" lon="4.93811">
        <ele>472</ele>
        <time>2022-05-15T12:38:45Z</time>
      </trkpt>
      <trkpt lat="47.22751" lon="4.93809">
        <ele>472</ele>
        <time>2022-05-15T12:38:46Z</time>
      </trkpt>
      <trkpt lat="47.22749" lon="4.93807">
        <ele>472</ele>
        <time>2022-05-15T12:38:47Z</time>
      </trkpt>
      <trkpt lat="47.22749" lon="4.93805">
        <ele>469</ele>
        <time>2022-05-15T12:38:48Z</time>
      </trkpt>
      <trkpt lat="47.22748" lon="4.93804">
        <ele>469</ele>
        <time>2022-05-15T12:38:49Z</time>
      </trkpt>
      <trkpt lat="47.22747" lon="4.93802">
        <ele>470</ele>
        <time>2022-05-15T12:38:50Z</time>
      </trkpt>
      <trkpt lat="47.22747" lon="4.938">
        <ele>471</ele>
        <time>2022-05-15T12:38:51Z</time>
      </trkpt>
      <trkpt lat="47.22745" lon="4.93798">
        <ele>471</ele>
        <time>2022-05-15T12:38:53Z</time>
      </trkpt>
      <trkpt lat="47.22745" lon="4.93797">
        <ele>471</ele>
        <time>2022-05-15T12:38:54Z</time>
      </trkpt>
      <trkpt lat="47.22744" lon="4.93796">
        <ele>471</ele>
        <time>2022-05-15T12:38:55Z</time>
      </trkpt>
      <trkpt lat="47.22743" lon="4.93795">
        <ele>471</ele>
        <time>2022-05-15T12:38:56Z</time>
      </trkpt>
      <trkpt lat="47.22742" lon="4.93793">
        <ele>472</ele>
        <time>2022-05-15T12:38:58Z</time>
      </trkpt>
      <trkpt lat="47.22741" lon="4.93792">
        <ele>471</ele>
        <time>2022-05-15T12:38:59Z</time>
      </trkpt>
      <trkpt lat="47.2274" lon="4.93792">
        <ele>469</ele>
        <time>2022-05-15T12:39:00Z</time>
      </trkpt>
      <trkpt lat="47.2274" lon="4.9379">
        <ele>469</ele>
        <time>2022-05-15T12:39:01Z</time>
      </trkpt>
      <trkpt lat="47.22739" lon="4.93789">
        <ele>470</ele>
        <time>2022-05-15T12:39:03Z</time>
      </trkpt>
      <trkpt lat="47.22738" lon="4.93788">
        <ele>470</ele>
        <time>2022-05-15T12:39:04Z</time>
      </trkpt>
      <trkpt lat="47.22737" lon="4.93787">
        <ele>470</ele>
        <time>2022-05-15T12:39:05Z</time>
      </trkpt>
      <trkpt lat="47.22736" lon="4.93786">
        <ele>469</ele>
        <time>2022-05-15T12:39:06Z</time>
      </trkpt>
      <trkpt lat="47.22735" lon="4.93786">
        <ele>468</ele>
        <time>2022-05-15T12:39:07Z</time>
      </trkpt>
      <trkpt lat="47.22734" lon="4.93785">
        <ele>469</ele>
        <time>2022-05-15T12:39:08Z</time>
      </trkpt>
      <trkpt lat="47.22733" lon="4.93784">
        <ele>469</ele>
        <time>2022-05-15T12:39:09Z</time>
      </trkpt>
      <trkpt lat="47.22732" lon="4.93784">
        <ele>469</ele>
        <time>2022-05-15T12:39:10Z</time>
      </trkpt>
      <trkpt lat="47.22731" lon="4.93782">
        <ele>470</ele>
        <time>2022-05-15T12:39:11Z</time>
      </trkpt>
      <trkpt lat="47.2273" lon="4.93781">
        <ele>470</ele>
        <time>2022-05-15T12:39:12Z</time>
      </trkpt>
      <trkpt lat="47.22729" lon="4.9378">
        <ele>472</ele>
        <time>2022-05-15T12:39:13Z</time>
      </trkpt>
      <trkpt lat="47.22728" lon="4.93779">
        <ele>472</ele>
        <time>2022-05-15T12:39:14Z</time>
      </trkpt>
      <trkpt lat="47.22727" lon="4.93778">
        <ele>472</ele>
        <time>2022-05-15T12:39:15Z</time>
      </trkpt>
      <trkpt lat="47.22726" lon="4.93777">
        <ele>472</ele>
        <time>2022-05-15T12:39:16Z</time>
      </trkpt>
      <trkpt lat="47.22726" lon="4.93776">
        <ele>471</ele>
        <time>2022-05-15T12:39:17Z</time>
      </trkpt>
      <trkpt lat="47.22725" lon="4.93775">
        <ele>471</ele>
        <time>2022-05-15T12:39:18Z</time>
      </trkpt>
      <trkpt lat="47.22724" lon="4.93773">
        <ele>470</ele>
        <time>2022-05-15T12:39:19Z</time>
      </trkpt>
      <trkpt lat="47.22723" lon="4.93772">
        <ele>470</ele>
        <time>2022-05-15T12:39:20Z</time>
      </trkpt>
      <trkpt lat="47.22723" lon="4.93771">
        <ele>470</ele>
        <time>2022-05-15T12:39:21Z</time>
      </trkpt>
      <trkpt lat="47.22722" lon="4.9377">
        <ele>471</ele>
        <time>2022-05-15T12:39:22Z</time>
      </trkpt>
      <trkpt lat="47.22721" lon="4.93769">
        <ele>471</ele>
        <time>2022-05-15T12:39:23Z</time>
      </trkpt>
      <trkpt lat="47.22719" lon="4.93768">
        <ele>471</ele>
        <time>2022-05-15T12:39:24Z</time>
      </trkpt>
      <trkpt lat="47.22719" lon="4.93767">
        <ele>471</ele>
        <time>2022-05-15T12:39:25Z</time>
      </trkpt>
      <trkpt lat="47.22718" lon="4.93766">
        <ele>472</ele>
        <time>2022-05-15T12:39:26Z</time>
      </trkpt>
      <trkpt lat="47.22717" lon="4.93764">
        <ele>472</ele>
        <time>2022-05-15T12:39:27Z</time>
      </trkpt>
      <trkpt lat="47.22717" lon="4.93763">
        <ele>472</ele>
        <time>2022-05-15T12:39:28Z</time>
      </trkpt>
      <trkpt lat="47.22715" lon="4.93761">
        <ele>473</ele>
        <time>2022-05-15T12:39:30Z</time>
      </trkpt>
      <trkpt lat="47.22714" lon="4.9376">
        <ele>472</ele>
        <time>2022-05-15T12:39:31Z</time>
      </trkpt>
      <trkpt lat="47.22713" lon="4.93759">
        <ele>472</ele>
        <time>2022-05-15T12:39:32Z</time>
      </trkpt>
      <trkpt lat="47.22712" lon="4.93759">
        <ele>471</ele>
        <time>2022-05-15T12:39:33Z</time>
      </trkpt>
      <trkpt lat="47.22712" lon="4.93757">
        <ele>471</ele>
        <time>2022-05-15T12:39:34Z</time>
      </trkpt>
      <trkpt lat="47.22711" lon="4.93756">
        <ele>471</ele>
        <time>2022-05-15T12:39:35Z</time>
      </trkpt>
      <trkpt lat="47.2271" lon="4.93756">
        <ele>472</ele>
        <time>2022-05-15T12:39:36Z</time>
      </trkpt>
      <trkpt lat="47.22709" lon="4.93755">
        <ele>472</ele>
        <time>2022-05-15T12:39:37Z</time>
      </trkpt>
      <trkpt lat="47.22708" lon="4.93754">
        <ele>472</ele>
        <time>2022-05-15T12:39:38Z</time>
      </trkpt>
      <trkpt lat="47.22707" lon="4.93752">
        <ele>471</ele>
        <time>2022-05-15T12:39:40Z</time>
      </trkpt>
      <trkpt lat="47.22706" lon="4.93751">
        <ele>471</ele>
        <time>2022-05-15T12:39:41Z</time>
      </trkpt>
      <trkpt lat="47.22705" lon="4.93749">
        <ele>471</ele>
        <time>2022-05-15T12:39:42Z</time>
      </trkpt>
      <trkpt lat="47.22704" lon="4.93749">
        <ele>471</ele>
        <time>2022-05-15T12:39:43Z</time>
      </trkpt>
      <trkpt lat="47.22704" lon="4.93748">
        <ele>471</ele>
        <time>2022-05-15T12:39:44Z</time>
      </trkpt>
      <trkpt lat="47.22703" lon="4.93746">
        <ele>469</ele>
        <time>2022-05-15T12:39:46Z</time>
      </trkpt>
      <trkpt lat="47.22702" lon="4.93745">
        <ele>470</ele>
        <time>2022-05-15T12:39:47Z</time>
      </trkpt>
      <trkpt lat="47.22701" lon="4.93743">
        <ele>470</ele>
        <time>2022-05-15T12:39:48Z</time>
      </trkpt>
      <trkpt lat="47.22701" lon="4.93742">
        <ele>471</ele>
        <time>2022-05-15T12:39:49Z</time>
      </trkpt>
      <trkpt lat="47.227" lon="4.93741">
        <ele>470</ele>
        <time>2022-05-15T12:39:50Z</time>
      </trkpt>
      <trkpt lat="47.22699" lon="4.9374">
        <ele>470</ele>
        <time>2022-05-15T12:39:51Z</time>
      </trkpt>
      <trkpt lat="47.22699" lon="4.93739">
        <ele>469</ele>
        <time>2022-05-15T12:39:52Z</time>
      </trkpt>
      <trkpt lat="47.22697" lon="4.93737">
        <ele>469</ele>
        <time>2022-05-15T12:39:54Z</time>
      </trkpt>
      <trkpt lat="47.22696" lon="4.93735">
        <ele>469</ele>
        <time>2022-05-15T12:39:55Z</time>
      </trkpt>
      <trkpt lat="47.22696" lon="4.93733">
        <ele>469</ele>
        <time>2022-05-15T12:39:56Z</time>
      </trkpt>
      <trkpt lat="47.22695" lon="4.93732">
        <ele>469</ele>
        <time>2022-05-15T12:39:57Z</time>
      </trkpt>
      <trkpt lat="47.22694" lon="4.9373">
        <ele>469</ele>
        <time>2022-05-15T12:39:58Z</time>
      </trkpt>
      <trkpt lat="47.22694" lon="4.93729">
        <ele>469</ele>
        <time>2022-05-15T12:39:59Z</time>
      </trkpt>
      <trkpt lat="47.22693" lon="4.93728">
        <ele>469</ele>
        <time>2022-05-15T12:40:00Z</time>
      </trkpt>
      <trkpt lat="47.22692" lon="4.93727">
        <ele>469</ele>
        <time>2022-05-15T12:40:01Z</time>
      </trkpt>
      <trkpt lat="47.22692" lon="4.93725">
        <ele>469</ele>
        <time>2022-05-15T12:40:02Z</time>
      </trkpt>
      <trkpt lat="47.22691" lon="4.93724">
        <ele>469</ele>
        <time>2022-05-15T12:40:03Z</time>
      </trkpt>
      <trkpt lat="47.2269" lon="4.93723">
        <ele>469</ele>
        <time>2022-05-15T12:40:04Z</time>
      </trkpt>
      <trkpt lat="47.2269" lon="4.93721">
        <ele>468</ele>
        <time>2022-05-15T12:40:05Z</time>
      </trkpt>
      <trkpt lat="47.22689" lon="4.9372">
        <ele>468</ele>
        <time>2022-05-15T12:40:06Z</time>
      </trkpt>
      <trkpt lat="47.22688" lon="4.93719">
        <ele>468</ele>
        <time>2022-05-15T12:40:07Z</time>
      </trkpt>
      <trkpt lat="47.22687" lon="4.93718">
        <ele>468</ele>
        <time>2022-05-15T12:40:08Z</time>
      </trkpt>
      <trkpt lat="47.22686" lon="4.93717">
        <ele>469</ele>
        <time>2022-05-15T12:40:10Z</time>
      </trkpt>
      <trkpt lat="47.22685" lon="4.93715">
        <ele>470</ele>
        <time>2022-05-15T12:40:12Z</time>
      </trkpt>
      <trkpt lat="47.22683" lon="4.93714">
        <ele>471</ele>
        <time>2022-05-15T12:40:14Z</time>
      </trkpt>
      <trkpt lat="47.22683" lon="4.93713">
        <ele>471</ele>
        <time>2022-05-15T12:40:15Z</time>
      </trkpt>
      <trkpt lat="47.22682" lon="4.93712">
        <ele>470</ele>
        <time>2022-05-15T12:40:16Z</time>
      </trkpt>
      <trkpt lat="47.22681" lon="4.9371">
        <ele>470</ele>
        <time>2022-05-15T12:40:17Z</time>
      </trkpt>
      <trkpt lat="47.2268" lon="4.93709">
        <ele>470</ele>
        <time>2022-05-15T12:40:18Z</time>
      </trkpt>
      <trkpt lat="47.2268" lon="4.93708">
        <ele>471</ele>
        <time>2022-05-15T12:40:19Z</time>
      </trkpt>
      <trkpt lat="47.22679" lon="4.93707">
        <ele>471</ele>
        <time>2022-05-15T12:40:20Z</time>
      </trkpt>
      <trkpt lat="47.22678" lon="4.93706">
        <ele>470</ele>
        <time>2022-05-15T12:40:21Z</time>
      </trkpt>
      <trkpt lat="47.22677" lon="4.93705">
        <ele>470</ele>
        <time>2022-05-15T12:40:22Z</time>
      </trkpt>
      <trkpt lat="47.22676" lon="4.93704">
        <ele>471</ele>
        <time>2022-05-15T12:40:24Z</time>
      </trkpt>
      <trkpt lat="47.22675" lon="4.93703">
        <ele>471</ele>
        <time>2022-05-15T12:40:25Z</time>
      </trkpt>
      <trkpt lat="47.22674" lon="4.93702">
        <ele>472</ele>
        <time>2022-05-15T12:40:26Z</time>
      </trkpt>
      <trkpt lat="47.22673" lon="4.93701">
        <ele>472</ele>
        <time>2022-05-15T12:40:27Z</time>
      </trkpt>
      <trkpt lat="47.22673" lon="4.93699">
        <ele>471</ele>
        <time>2022-05-15T12:40:28Z</time>
      </trkpt>
      <trkpt lat="47.22672" lon="4.93698">
        <ele>471</ele>
        <time>2022-05-15T12:40:30Z</time>
      </trkpt>
      <trkpt lat="47.22671" lon="4.93697">
        <ele>472</ele>
        <time>2022-05-15T12:40:31Z</time>
      </trkpt>
      <trkpt lat="47.2267" lon="4.93696">
        <ele>473</ele>
        <time>2022-05-15T12:40:32Z</time>
      </trkpt>
      <trkpt lat="47.22669" lon="4.93695">
        <ele>473</ele>
        <time>2022-05-15T12:40:33Z</time>
      </trkpt>
      <trkpt lat="47.22668" lon="4.93694">
        <ele>474</ele>
        <time>2022-05-15T12:40:34Z</time>
      </trkpt>
      <trkpt lat="47.22668" lon="4.93693">
        <ele>474</ele>
        <time>2022-05-15T12:40:35Z</time>
      </trkpt>
      <trkpt lat="47.22667" lon="4.93692">
        <ele>474</ele>
        <time>2022-05-15T12:40:36Z</time>
      </trkpt>
      <trkpt lat="47.22666" lon="4.9369">
        <ele>474</ele>
        <time>2022-05-15T12:40:37Z</time>
      </trkpt>
      <trkpt lat="47.22665" lon="4.93689">
        <ele>473</ele>
        <time>2022-05-15T12:40:38Z</time>
      </trkpt>
      <trkpt lat="47.22664" lon="4.93688">
        <ele>473</ele>
        <time>2022-05-15T12:40:39Z</time>
      </trkpt>
      <trkpt lat="47.22664" lon="4.93687">
        <ele>473</ele>
        <time>2022-05-15T12:40:40Z</time>
      </trkpt>
      <trkpt lat="47.22663" lon="4.93686">
        <ele>474</ele>
        <time>2022-05-15T12:40:41Z</time>
      </trkpt>
      <trkpt lat="47.22662" lon="4.93685">
        <ele>473</ele>
        <time>2022-05-15T12:40:42Z</time>
      </trkpt>
      <trkpt lat="47.22662" lon="4.93684">
        <ele>473</ele>
        <time>2022-05-15T12:40:43Z</time>
      </trkpt>
      <trkpt lat="47.22661" lon="4.93682">
        <ele>473</ele>
        <time>2022-05-15T12:40:44Z</time>
      </trkpt>
      <trkpt lat="47.2266" lon="4.93681">
        <ele>473</ele>
        <time>2022-05-15T12:40:45Z</time>
      </trkpt>
      <trkpt lat="47.22659" lon="4.9368">
        <ele>473</ele>
        <time>2022-05-15T12:40:46Z</time>
      </trkpt>
      <trkpt lat="47.22658" lon="4.93679">
        <ele>473</ele>
        <time>2022-05-15T12:40:48Z</time>
      </trkpt>
      <trkpt lat="47.22657" lon="4.93678">
        <ele>473</ele>
        <time>2022-05-15T12:40:49Z</time>
      </trkpt>
      <trkpt lat="47.22656" lon="4.93677">
        <ele>473</ele>
        <time>2022-05-15T12:40:50Z</time>
      </trkpt>
      <trkpt lat="47.22655" lon="4.93675">
        <ele>472</ele>
        <time>2022-05-15T12:40:51Z</time>
      </trkpt>
      <trkpt lat="47.22654" lon="4.93674">
        <ele>472</ele>
        <time>2022-05-15T12:40:52Z</time>
      </trkpt>
      <trkpt lat="47.22652" lon="4.93672">
        <ele>473</ele>
        <time>2022-05-15T12:40:55Z</time>
      </trkpt>
      <trkpt lat="47.22651" lon="4.93671">
        <ele>473</ele>
        <time>2022-05-15T12:40:56Z</time>
      </trkpt>
      <trkpt lat="47.2265" lon="4.9367">
        <ele>473</ele>
        <time>2022-05-15T12:40:57Z</time>
      </trkpt>
      <trkpt lat="47.22649" lon="4.93668">
        <ele>473</ele>
        <time>2022-05-15T12:40:59Z</time>
      </trkpt>
      <trkpt lat="47.22648" lon="4.93667">
        <ele>473</ele>
        <time>2022-05-15T12:41:00Z</time>
      </trkpt>
      <trkpt lat="47.22647" lon="4.93666">
        <ele>473</ele>
        <time>2022-05-15T12:41:01Z</time>
      </trkpt>
      <trkpt lat="47.22646" lon="4.93665">
        <ele>473</ele>
        <time>2022-05-15T12:41:02Z</time>
      </trkpt>
      <trkpt lat="47.22645" lon="4.93664">
        <ele>473</ele>
        <time>2022-05-15T12:41:03Z</time>
      </trkpt>
      <trkpt lat="47.22644" lon="4.93664">
        <ele>473</ele>
        <time>2022-05-15T12:41:04Z</time>
      </trkpt>
      <trkpt lat="47.22643" lon="4.93663">
        <ele>473</ele>
        <time>2022-05-15T12:41:05Z</time>
      </trkpt>
      <trkpt lat="47.22642" lon="4.93662">
        <ele>473</ele>
        <time>2022-05-15T12:41:06Z</time>
      </trkpt>
      <trkpt lat="47.22642" lon="4.93661">
        <ele>473</ele>
        <time>2022-05-15T12:41:07Z</time>
      </trkpt>
      <trkpt lat="47.22641" lon="4.9366">
        <ele>473</ele>
        <time>2022-05-15T12:41:08Z</time>
      </trkpt>
      <trkpt lat="47.2264" lon="4.93659">
        <ele>473</ele>
        <time>2022-05-15T12:41:09Z</time>
      </trkpt>
      <trkpt lat="47.22639" lon="4.93658">
        <ele>473</ele>
        <time>2022-05-15T12:41:10Z</time>
      </trkpt>
      <trkpt lat="47.22639" lon="4.93657">
        <ele>473</ele>
        <time>2022-05-15T12:41:11Z</time>
      </trkpt>
      <trkpt lat="47.22638" lon="4.93656">
        <ele>474</ele>
        <time>2022-05-15T12:41:12Z</time>
      </trkpt>
      <trkpt lat="47.22637" lon="4.93655">
        <ele>474</ele>
        <time>2022-05-15T12:41:13Z</time>
      </trkpt>
      <trkpt lat="47.22636" lon="4.93653">
        <ele>474</ele>
        <time>2022-05-15T12:41:15Z</time>
      </trkpt>
      <trkpt lat="47.22635" lon="4.93653">
        <ele>475</ele>
        <time>2022-05-15T12:41:16Z</time>
      </trkpt>
      <trkpt lat="47.22634" lon="4.93651">
        <ele>474</ele>
        <time>2022-05-15T12:41:18Z</time>
      </trkpt>
      <trkpt lat="47.22633" lon="4.93649">
        <ele>475</ele>
        <time>2022-05-15T12:41:20Z</time>
      </trkpt>
      <trkpt lat="47.22632" lon="4.93649">
        <ele>475</ele>
        <time>2022-05-15T12:41:21Z</time>
      </trkpt>
      <trkpt lat="47.22631" lon="4.93648">
        <ele>475</ele>
        <time>2022-05-15T12:41:22Z</time>
      </trkpt>
      <trkpt lat="47.2263" lon="4.93647">
        <ele>475</ele>
        <time>2022-05-15T12:41:23Z</time>
      </trkpt>
      <trkpt lat="47.22629" lon="4.93645">
        <ele>475</ele>
        <time>2022-05-15T12:41:24Z</time>
      </trkpt>
      <trkpt lat="47.22628" lon="4.93644">
        <ele>475</ele>
        <time>2022-05-15T12:41:25Z</time>
      </trkpt>
      <trkpt lat="47.22627" lon="4.93643">
        <ele>475</ele>
        <time>2022-05-15T12:41:26Z</time>
      </trkpt>
      <trkpt lat="47.22627" lon="4.93642">
        <ele>475</ele>
        <time>2022-05-15T12:41:27Z</time>
      </trkpt>
      <trkpt lat="47.22626" lon="4.93641">
        <ele>475</ele>
        <time>2022-05-15T12:41:28Z</time>
      </trkpt>
      <trkpt lat="47.22625" lon="4.9364">
        <ele>475</ele>
        <time>2022-05-15T12:41:29Z</time>
      </trkpt>
      <trkpt lat="47.22624" lon="4.93639">
        <ele>475</ele>
        <time>2022-05-15T12:41:30Z</time>
      </trkpt>
      <trkpt lat="47.22622" lon="4.93638">
        <ele>475</ele>
        <time>2022-05-15T12:41:32Z</time>
      </trkpt>
      <trkpt lat="47.22622" lon="4.93637">
        <ele>475</ele>
        <time>2022-05-15T12:41:33Z</time>
      </trkpt>
      <trkpt lat="47.22621" lon="4.93636">
        <ele>475</ele>
        <time>2022-05-15T12:41:34Z</time>
      </trkpt>
      <trkpt lat="47.22619" lon="4.93634">
        <ele>475</ele>
        <time>2022-05-15T12:41:36Z</time>
      </trkpt>
      <trkpt lat="47.22618" lon="4.93633">
        <ele>475</ele>
        <time>2022-05-15T12:41:37Z</time>
      </trkpt>
      <trkpt lat="47.22618" lon="4.93632">
        <ele>475</ele>
        <time>2022-05-15T12:41:38Z</time>
      </trkpt>
      <trkpt lat="47.22617" lon="4.93631">
        <ele>475</ele>
        <time>2022-05-15T12:41:39Z</time>
      </trkpt>
      <trkpt lat="47.22616" lon="4.9363">
        <ele>475</ele>
        <time>2022-05-15T12:41:40Z</time>
      </trkpt>
      <trkpt lat="47.22616" lon="4.93629">
        <ele>475</ele>
        <time>2022-05-15T12:41:41Z</time>
      </trkpt>
      <trkpt lat="47.22615" lon="4.93627">
        <ele>474</ele>
        <time>2022-05-15T12:41:42Z</time>
      </trkpt>
      <trkpt lat="47.22614" lon="4.93625">
        <ele>473</ele>
        <time>2022-05-15T12:41:44Z</time>
      </trkpt>
      <trkpt lat="47.22613" lon="4.93624">
        <ele>473</ele>
        <time>2022-05-15T12:41:45Z</time>
      </trkpt>
      <trkpt lat="47.22612" lon="4.93623">
        <ele>474</ele>
        <time>2022-05-15T12:41:46Z</time>
      </trkpt>
      <trkpt lat="47.22612" lon="4.93622">
        <ele>474</ele>
        <time>2022-05-15T12:41:47Z</time>
      </trkpt>
      <trkpt lat="47.22611" lon="4.9362">
        <ele>474</ele>
        <time>2022-05-15T12:41:48Z</time>
      </trkpt>
      <trkpt lat="47.2261" lon="4.93619">
        <ele>473</ele>
        <time>2022-05-15T12:41:49Z</time>
      </trkpt>
      <trkpt lat="47.22609" lon="4.93618">
        <ele>473</ele>
        <time>2022-05-15T12:41:50Z</time>
      </trkpt>
      <trkpt lat="47.22608" lon="4.93616">
        <ele>473</ele>
        <time>2022-05-15T12:41:52Z</time>
      </trkpt>
      <trkpt lat="47.22607" lon="4.93615">
        <ele>473</ele>
        <time>2022-05-15T12:41:53Z</time>
      </trkpt>
      <trkpt lat="47.22606" lon="4.93614">
        <ele>473</ele>
        <time>2022-05-15T12:41:54Z</time>
      </trkpt>
      <trkpt lat="47.22604" lon="4.93612">
        <ele>474</ele>
        <time>2022-05-15T12:41:56Z</time>
      </trkpt>
      <trkpt lat="47.22603" lon="4.93611">
        <ele>474</ele>
        <time>2022-05-15T12:41:57Z</time>
      </trkpt>
      <trkpt lat="47.22602" lon="4.93609">
        <ele>474</ele>
        <time>2022-05-15T12:41:59Z</time>
      </trkpt>
      <trkpt lat="47.22601" lon="4.93608">
        <ele>473</ele>
        <time>2022-05-15T12:42:00Z</time>
      </trkpt>
      <trkpt lat="47.226" lon="4.93607">
        <ele>473</ele>
        <time>2022-05-15T12:42:01Z</time>
      </trkpt>
      <trkpt lat="47.22599" lon="4.93605">
        <ele>474</ele>
        <time>2022-05-15T12:42:03Z</time>
      </trkpt>
      <trkpt lat="47.22598" lon="4.93603">
        <ele>474</ele>
        <time>2022-05-15T12:42:05Z</time>
      </trkpt>
      <trkpt lat="47.22597" lon="4.93601">
        <ele>475</ele>
        <time>2022-05-15T12:42:07Z</time>
      </trkpt>
      <trkpt lat="47.22596" lon="4.93601">
        <ele>475</ele>
        <time>2022-05-15T12:42:08Z</time>
      </trkpt>
      <trkpt lat="47.22596" lon="4.936">
        <ele>475</ele>
        <time>2022-05-15T12:42:09Z</time>
      </trkpt>
      <trkpt lat="47.22594" lon="4.93598">
        <ele>475</ele>
        <time>2022-05-15T12:42:11Z</time>
      </trkpt>
      <trkpt lat="47.22593" lon="4.93597">
        <ele>475</ele>
        <time>2022-05-15T12:42:12Z</time>
      </trkpt>
      <trkpt lat="47.22593" lon="4.93596">
        <ele>475</ele>
        <time>2022-05-15T12:42:13Z</time>
      </trkpt>
      <trkpt lat="47.22592" lon="4.93595">
        <ele>474</ele>
        <time>2022-05-15T12:42:14Z</time>
      </trkpt>
      <trkpt lat="47.22591" lon="4.93593">
        <ele>475</ele>
        <time>2022-05-15T12:42:15Z</time>
      </trkpt>
      <trkpt lat="47.2259" lon="4.93592">
        <ele>474</ele>
        <time>2022-05-15T12:42:16Z</time>
      </trkpt>
      <trkpt lat="47.22589" lon="4.93591">
        <ele>474</ele>
        <time>2022-05-15T12:42:17Z</time>
      </trkpt>
      <trkpt lat="47.22588" lon="4.9359">
        <ele>475</ele>
        <time>2022-05-15T12:42:18Z</time>
      </trkpt>
      <trkpt lat="47.22588" lon="4.93589">
        <ele>474</ele>
        <time>2022-05-15T12:42:19Z</time>
      </trkpt>
      <trkpt lat="47.22587" lon="4.93588">
        <ele>474</ele>
        <time>2022-05-15T12:42:20Z</time>
      </trkpt>
      <trkpt lat="47.22586" lon="4.93586">
        <ele>474</ele>
        <time>2022-05-15T12:42:21Z</time>
      </trkpt>
      <trkpt lat="47.22585" lon="4.93585">
        <ele>474</ele>
        <time>2022-05-15T12:42:23Z</time>
      </trkpt>
      <trkpt lat="47.22584" lon="4.93584">
        <ele>473</ele>
        <time>2022-05-15T12:42:25Z</time>
      </trkpt>
      <trkpt lat="47.22583" lon="4.93582">
        <ele>472</ele>
        <time>2022-05-15T12:42:27Z</time>
      </trkpt>
      <trkpt lat="47.22582" lon="4.9358">
        <ele>473</ele>
        <time>2022-05-15T12:42:29Z</time>
      </trkpt>
      <trkpt lat="47.22581" lon="4.93579">
        <ele>473</ele>
        <time>2022-05-15T12:42:30Z</time>
      </trkpt>
      <trkpt lat="47.2258" lon="4.93577">
        <ele>474</ele>
        <time>2022-05-15T12:42:32Z</time>
      </trkpt>
      <trkpt lat="47.22579" lon="4.93577">
        <ele>474</ele>
        <time>2022-05-15T12:42:33Z</time>
      </trkpt>
      <trkpt lat="47.22578" lon="4.93576">
        <ele>474</ele>
        <time>2022-05-15T12:42:34Z</time>
      </trkpt>
      <trkpt lat="47.22577" lon="4.93575">
        <ele>474</ele>
        <time>2022-05-15T12:42:35Z</time>
      </trkpt>
      <trkpt lat="47.22576" lon="4.93574">
        <ele>474</ele>
        <time>2022-05-15T12:42:36Z</time>
      </trkpt>
      <trkpt lat="47.22575" lon="4.93572">
        <ele>473</ele>
        <time>2022-05-15T12:42:38Z</time>
      </trkpt>
      <trkpt lat="47.22575" lon="4.9357">
        <ele>472</ele>
        <time>2022-05-15T12:42:39Z</time>
      </trkpt>
      <trkpt lat="47.22574" lon="4.93569">
        <ele>473</ele>
        <time>2022-05-15T12:42:40Z</time>
      </trkpt>
      <trkpt lat="47.22573" lon="4.93568">
        <ele>473</ele>
        <time>2022-05-15T12:42:41Z</time>
      </trkpt>
      <trkpt lat="47.22572" lon="4.93566">
        <ele>473</ele>
        <time>2022-05-15T12:42:43Z</time>
      </trkpt>
      <trkpt lat="47.22571" lon="4.93564">
        <ele>473</ele>
        <time>2022-05-15T12:42:45Z</time>
      </trkpt>
      <trkpt lat="47.2257" lon="4.93563">
        <ele>473</ele>
        <time>2022-05-15T12:42:46Z</time>
      </trkpt>
      <trkpt lat="47.2257" lon="4.93562">
        <ele>473</ele>
        <time>2022-05-15T12:42:47Z</time>
      </trkpt>
      <trkpt lat="47.22569" lon="4.9356">
        <ele>473</ele>
        <time>2022-05-15T12:42:48Z</time>
      </trkpt>
      <trkpt lat="47.22568" lon="4.93559">
        <ele>474</ele>
        <time>2022-05-15T12:42:49Z</time>
      </trkpt>
      <trkpt lat="47.22568" lon="4.93558">
        <ele>473</ele>
        <time>2022-05-15T12:42:50Z</time>
      </trkpt>
      <trkpt lat="47.22567" lon="4.93557">
        <ele>473</ele>
        <time>2022-05-15T12:42:51Z</time>
      </trkpt>
      <trkpt lat="47.22566" lon="4.93556">
        <ele>474</ele>
        <time>2022-05-15T12:42:52Z</time>
      </trkpt>
      <trkpt lat="47.22565" lon="4.93555">
        <ele>474</ele>
        <time>2022-05-15T12:42:53Z</time>
      </trkpt>
      <trkpt lat="47.22564" lon="4.93554">
        <ele>475</ele>
        <time>2022-05-15T12:42:54Z</time>
      </trkpt>
      <trkpt lat="47.22563" lon="4.93553">
        <ele>473</ele>
        <time>2022-05-15T12:42:55Z</time>
      </trkpt>
      <trkpt lat="47.22562" lon="4.93551">
        <ele>472</ele>
        <time>2022-05-15T12:42:57Z</time>
      </trkpt>
      <trkpt lat="47.22561" lon="4.93549">
        <ele>473</ele>
        <time>2022-05-15T12:42:58Z</time>
      </trkpt>
      <trkpt lat="47.2256" lon="4.93548">
        <ele>472</ele>
        <time>2022-05-15T12:42:59Z</time>
      </trkpt>
      <trkpt lat="47.22558" lon="4.93547">
        <ele>472</ele>
        <time>2022-05-15T12:43:01Z</time>
      </trkpt>
      <trkpt lat="47.22558" lon="4.93545">
        <ele>473</ele>
        <time>2022-05-15T12:43:03Z</time>
      </trkpt>
      <trkpt lat="47.22558" lon="4.93543">
        <ele>473</ele>
        <time>2022-05-15T12:43:05Z</time>
      </trkpt>
      <trkpt lat="47.22559" lon="4.93541">
        <ele>473</ele>
        <time>2022-05-15T12:43:06Z</time>
      </trkpt>
      <trkpt lat="47.22559" lon="4.9354">
        <ele>473</ele>
        <time>2022-05-15T12:43:07Z</time>
      </trkpt>
      <trkpt lat="47.2256" lon="4.93539">
        <ele>473</ele>
        <time>2022-05-15T12:43:08Z</time>
      </trkpt>
      <trkpt lat="47.2256" lon="4.93537">
        <ele>472</ele>
        <time>2022-05-15T12:43:09Z</time>
      </trkpt>
      <trkpt lat="47.2256" lon="4.93536">
        <ele>472</ele>
        <time>2022-05-15T12:43:10Z</time>
      </trkpt>
      <trkpt lat="47.22561" lon="4.93534">
        <ele>471</ele>
        <time>2022-05-15T12:43:11Z</time>
      </trkpt>
      <trkpt lat="47.22561" lon="4.93533">
        <ele>472</ele>
        <time>2022-05-15T12:43:12Z</time>
      </trkpt>
      <trkpt lat="47.22562" lon="4.93532">
        <ele>472</ele>
        <time>2022-05-15T12:43:13Z</time>
      </trkpt>
      <trkpt lat="47.22563" lon="4.93531">
        <ele>471</ele>
        <time>2022-05-15T12:43:14Z</time>
      </trkpt>
      <trkpt lat="47.22563" lon="4.93529">
        <ele>471</ele>
        <time>2022-05-15T12:43:15Z</time>
      </trkpt>
      <trkpt lat="47.22564" lon="4.93528">
        <ele>470</ele>
        <time>2022-05-15T12:43:16Z</time>
      </trkpt>
      <trkpt lat="47.22564" lon="4.93527">
        <ele>471</ele>
        <time>2022-05-15T12:43:17Z</time>
      </trkpt>
      <trkpt lat="47.22565" lon="4.93526">
        <ele>470</ele>
        <time>2022-05-15T12:43:18Z</time>
      </trkpt>
      <trkpt lat="47.22566" lon="4.93524">
        <ele>471</ele>
        <time>2022-05-15T12:43:19Z</time>
      </trkpt>
      <trkpt lat="47.22566" lon="4.93523">
        <ele>470</ele>
        <time>2022-05-15T12:43:20Z</time>
      </trkpt>
      <trkpt lat="47.22567" lon="4.93522">
        <ele>470</ele>
        <time>2022-05-15T12:43:21Z</time>
      </trkpt>
      <trkpt lat="47.22568" lon="4.93521">
        <ele>470</ele>
        <time>2022-05-15T12:43:22Z</time>
      </trkpt>
      <trkpt lat="47.22568" lon="4.9352">
        <ele>469</ele>
        <time>2022-05-15T12:43:23Z</time>
      </trkpt>
      <trkpt lat="47.22569" lon="4.93519">
        <ele>469</ele>
        <time>2022-05-15T12:43:24Z</time>
      </trkpt>
      <trkpt lat="47.22569" lon="4.93518">
        <ele>469</ele>
        <time>2022-05-15T12:43:25Z</time>
      </trkpt>
      <trkpt lat="47.22571" lon="4.93516">
        <ele>469</ele>
        <time>2022-05-15T12:43:27Z</time>
      </trkpt>
      <trkpt lat="47.22572" lon="4.93515">
        <ele>470</ele>
        <time>2022-05-15T12:43:29Z</time>
      </trkpt>
      <trkpt lat="47.22573" lon="4.93513">
        <ele>469</ele>
        <time>2022-05-15T12:43:30Z</time>
      </trkpt>
      <trkpt lat="47.22573" lon="4.93512">
        <ele>469</ele>
        <time>2022-05-15T12:43:31Z</time>
      </trkpt>
      <trkpt lat="47.22574" lon="4.9351">
        <ele>470</ele>
        <time>2022-05-15T12:43:33Z</time>
      </trkpt>
      <trkpt lat="47.22576" lon="4.93509">
        <ele>469</ele>
        <time>2022-05-15T12:43:35Z</time>
      </trkpt>
      <trkpt lat="47.22576" lon="4.93507">
        <ele>468</ele>
        <time>2022-05-15T12:43:36Z</time>
      </trkpt>
      <trkpt lat="47.22576" lon="4.93506">
        <ele>468</ele>
        <time>2022-05-15T12:43:37Z</time>
      </trkpt>
      <trkpt lat="47.22577" lon="4.93504">
        <ele>466</ele>
        <time>2022-05-15T12:43:38Z</time>
      </trkpt>
      <trkpt lat="47.22577" lon="4.93503">
        <ele>467</ele>
        <time>2022-05-15T12:43:39Z</time>
      </trkpt>
      <trkpt lat="47.22578" lon="4.93502">
        <ele>468</ele>
        <time>2022-05-15T12:43:40Z</time>
      </trkpt>
      <trkpt lat="47.22579" lon="4.93501">
        <ele>468</ele>
        <time>2022-05-15T12:43:41Z</time>
      </trkpt>
      <trkpt lat="47.22579" lon="4.935">
        <ele>467</ele>
        <time>2022-05-15T12:43:42Z</time>
      </trkpt>
      <trkpt lat="47.2258" lon="4.93498">
        <ele>467</ele>
        <time>2022-05-15T12:43:43Z</time>
      </trkpt>
      <trkpt lat="47.2258" lon="4.93497">
        <ele>467</ele>
        <time>2022-05-15T12:43:44Z</time>
      </trkpt>
      <trkpt lat="47.22581" lon="4.93495">
        <ele>467</ele>
        <time>2022-05-15T12:43:46Z</time>
      </trkpt>
      <trkpt lat="47.22582" lon="4.93494">
        <ele>467</ele>
        <time>2022-05-15T12:43:47Z</time>
      </trkpt>
      <trkpt lat="47.22583" lon="4.93492">
        <ele>468</ele>
        <time>2022-05-15T12:43:49Z</time>
      </trkpt>
      <trkpt lat="47.22583" lon="4.9349">
        <ele>467</ele>
        <time>2022-05-15T12:43:50Z</time>
      </trkpt>
      <trkpt lat="47.22583" lon="4.93489">
        <ele>468</ele>
        <time>2022-05-15T12:43:51Z</time>
      </trkpt>
      <trkpt lat="47.22584" lon="4.93488">
        <ele>467</ele>
        <time>2022-05-15T12:43:52Z</time>
      </trkpt>
      <trkpt lat="47.22585" lon="4.93487">
        <ele>467</ele>
        <time>2022-05-15T12:43:53Z</time>
      </trkpt>
      <trkpt lat="47.22585" lon="4.93486">
        <ele>467</ele>
        <time>2022-05-15T12:43:54Z</time>
      </trkpt>
      <trkpt lat="47.22586" lon="4.93485">
        <ele>467</ele>
        <time>2022-05-15T12:43:55Z</time>
      </trkpt>
      <trkpt lat="47.22587" lon="4.93484">
        <ele>468</ele>
        <time>2022-05-15T12:43:56Z</time>
      </trkpt>
      <trkpt lat="47.22588" lon="4.93483">
        <ele>468</ele>
        <time>2022-05-15T12:43:58Z</time>
      </trkpt>
      <trkpt lat="47.22589" lon="4.93482">
        <ele>469</ele>
        <time>2022-05-15T12:44:00Z</time>
      </trkpt>
      <trkpt lat="47.2259" lon="4.93481">
        <ele>469</ele>
        <time>2022-05-15T12:44:02Z</time>
      </trkpt>
      <trkpt lat="47.22591" lon="4.93479">
        <ele>468</ele>
        <time>2022-05-15T12:44:04Z</time>
      </trkpt>
      <trkpt lat="47.22592" lon="4.93478">
        <ele>468</ele>
        <time>2022-05-15T12:44:06Z</time>
      </trkpt>
      <trkpt lat="47.22593" lon="4.93476">
        <ele>467</ele>
        <time>2022-05-15T12:44:08Z</time>
      </trkpt>
      <trkpt lat="47.22594" lon="4.93475">
        <ele>467</ele>
        <time>2022-05-15T12:44:09Z</time>
      </trkpt>
      <trkpt lat="47.22595" lon="4.93474">
        <ele>468</ele>
        <time>2022-05-15T12:44:10Z</time>
      </trkpt>
      <trkpt lat="47.22595" lon="4.93473">
        <ele>469</ele>
        <time>2022-05-15T12:44:11Z</time>
      </trkpt>
      <trkpt lat="47.22596" lon="4.93471">
        <ele>470</ele>
        <time>2022-05-15T12:44:13Z</time>
      </trkpt>
      <trkpt lat="47.22597" lon="4.93469">
        <ele>470</ele>
        <time>2022-05-15T12:44:14Z</time>
      </trkpt>
      <trkpt lat="47.22598" lon="4.93468">
        <ele>469</ele>
        <time>2022-05-15T12:44:15Z</time>
      </trkpt>
      <trkpt lat="47.22599" lon="4.93467">
        <ele>469</ele>
        <time>2022-05-15T12:44:16Z</time>
      </trkpt>
      <trkpt lat="47.22599" lon="4.93466">
        <ele>470</ele>
        <time>2022-05-15T12:44:17Z</time>
      </trkpt>
      <trkpt lat="47.226" lon="4.93465">
        <ele>471</ele>
        <time>2022-05-15T12:44:18Z</time>
      </trkpt>
      <trkpt lat="47.22601" lon="4.93463">
        <ele>471</ele>
        <time>2022-05-15T12:44:19Z</time>
      </trkpt>
      <trkpt lat="47.22601" lon="4.93462">
        <ele>471</ele>
        <time>2022-05-15T12:44:20Z</time>
      </trkpt>
      <trkpt lat="47.22602" lon="4.93461">
        <ele>471</ele>
        <time>2022-05-15T12:44:21Z</time>
      </trkpt>
      <trkpt lat="47.22603" lon="4.9346">
        <ele>471</ele>
        <time>2022-05-15T12:44:22Z</time>
      </trkpt>
      <trkpt lat="47.22604" lon="4.93459">
        <ele>472</ele>
        <time>2022-05-15T12:44:23Z</time>
      </trkpt>
      <trkpt lat="47.22605" lon="4.93458">
        <ele>472</ele>
        <time>2022-05-15T12:44:24Z</time>
      </trkpt>
      <trkpt lat="47.22606" lon="4.93457">
        <ele>472</ele>
        <time>2022-05-15T12:44:26Z</time>
      </trkpt>
      <trkpt lat="47.22608" lon="4.93456">
        <ele>473</ele>
        <time>2022-05-15T12:44:28Z</time>
      </trkpt>
      <trkpt lat="47.22608" lon="4.93455">
        <ele>474</ele>
        <time>2022-05-15T12:44:29Z</time>
      </trkpt>
      <trkpt lat="47.22609" lon="4.93453">
        <ele>473</ele>
        <time>2022-05-15T12:44:30Z</time>
      </trkpt>
      <trkpt lat="47.2261" lon="4.93452">
        <ele>473</ele>
        <time>2022-05-15T12:44:31Z</time>
      </trkpt>
      <trkpt lat="47.22611" lon="4.93451">
        <ele>473</ele>
        <time>2022-05-15T12:44:32Z</time>
      </trkpt>
      <trkpt lat="47.22611" lon="4.93451">
        <ele>473</ele>
        <time>2022-05-15T12:44:33Z</time>
      </trkpt>
      <trkpt lat="47.22612" lon="4.93449">
        <ele>473</ele>
        <time>2022-05-15T12:44:34Z</time>
      </trkpt>
      <trkpt lat="47.22613" lon="4.93448">
        <ele>473</ele>
        <time>2022-05-15T12:44:35Z</time>
      </trkpt>
      <trkpt lat="47.22614" lon="4.93446">
        <ele>473</ele>
        <time>2022-05-15T12:44:37Z</time>
      </trkpt>
      <trkpt lat="47.22615" lon="4.93445">
        <ele>473</ele>
        <time>2022-05-15T12:44:38Z</time>
      </trkpt>
      <trkpt lat="47.22615" lon="4.93443">
        <ele>473</ele>
        <time>2022-05-15T12:44:39Z</time>
      </trkpt>
      <trkpt lat="47.22616" lon="4.93442">
        <ele>473</ele>
        <time>2022-05-15T12:44:40Z</time>
      </trkpt>
      <trkpt lat="47.22616" lon="4.9344">
        <ele>473</ele>
        <time>2022-05-15T12:44:42Z</time>
      </trkpt>
      <trkpt lat="47.22617" lon="4.93438">
        <ele>473</ele>
        <time>2022-05-15T12:44:43Z</time>
      </trkpt>
      <trkpt lat="47.22617" lon="4.93437">
        <ele>473</ele>
        <time>2022-05-15T12:44:44Z</time>
      </trkpt>
      <trkpt lat="47.22618" lon="4.93435">
        <ele>473</ele>
        <time>2022-05-15T12:44:45Z</time>
      </trkpt>
      <trkpt lat="47.22619" lon="4.93433">
        <ele>473</ele>
        <time>2022-05-15T12:44:47Z</time>
      </trkpt>
      <trkpt lat="47.22619" lon="4.93431">
        <ele>473</ele>
        <time>2022-05-15T12:44:49Z</time>
      </trkpt>
      <trkpt lat="47.22621" lon="4.93429">
        <ele>473</ele>
        <time>2022-05-15T12:44:51Z</time>
      </trkpt>
      <trkpt lat="47.22621" lon="4.93427">
        <ele>473</ele>
        <time>2022-05-15T12:44:53Z</time>
      </trkpt>
      <trkpt lat="47.22622" lon="4.93425">
        <ele>473</ele>
        <time>2022-05-15T12:44:55Z</time>
      </trkpt>
      <trkpt lat="47.22623" lon="4.93423">
        <ele>473</ele>
        <time>2022-05-15T12:44:56Z</time>
      </trkpt>
      <trkpt lat="47.22623" lon="4.93422">
        <ele>474</ele>
        <time>2022-05-15T12:44:57Z</time>
      </trkpt>
      <trkpt lat="47.22624" lon="4.9342">
        <ele>473</ele>
        <time>2022-05-15T12:44:59Z</time>
      </trkpt>
      <trkpt lat="47.22625" lon="4.93418">
        <ele>474</ele>
        <time>2022-05-15T12:45:01Z</time>
      </trkpt>
      <trkpt lat="47.22625" lon="4.93417">
        <ele>475</ele>
        <time>2022-05-15T12:45:02Z</time>
      </trkpt>
      <trkpt lat="47.22626" lon="4.93416">
        <ele>476</ele>
        <time>2022-05-15T12:45:03Z</time>
      </trkpt>
      <trkpt lat="47.22627" lon="4.93414">
        <ele>476</ele>
        <time>2022-05-15T12:45:04Z</time>
      </trkpt>
      <trkpt lat="47.22627" lon="4.93413">
        <ele>476</ele>
        <time>2022-05-15T12:45:05Z</time>
      </trkpt>
      <trkpt lat="47.22628" lon="4.93412">
        <ele>476</ele>
        <time>2022-05-15T12:45:06Z</time>
      </trkpt>
      <trkpt lat="47.22628" lon="4.93411">
        <ele>476</ele>
        <time>2022-05-15T12:45:07Z</time>
      </trkpt>
      <trkpt lat="47.22629" lon="4.93409">
        <ele>476</ele>
        <time>2022-05-15T12:45:08Z</time>
      </trkpt>
      <trkpt lat="47.2263" lon="4.93408">
        <ele>476</ele>
        <time>2022-05-15T12:45:10Z</time>
      </trkpt>
      <trkpt lat="47.22631" lon="4.93407">
        <ele>476</ele>
        <time>2022-05-15T12:45:11Z</time>
      </trkpt>
      <trkpt lat="47.22632" lon="4.93406">
        <ele>475</ele>
        <time>2022-05-15T12:45:12Z</time>
      </trkpt>
      <trkpt lat="47.22633" lon="4.93404">
        <ele>474</ele>
        <time>2022-05-15T12:45:14Z</time>
      </trkpt>
      <trkpt lat="47.22634" lon="4.93403">
        <ele>474</ele>
        <time>2022-05-15T12:45:15Z</time>
      </trkpt>
      <trkpt lat="47.22635" lon="4.93402">
        <ele>474</ele>
        <time>2022-05-15T12:45:16Z</time>
      </trkpt>
      <trkpt lat="47.22636" lon="4.93401">
        <ele>475</ele>
        <time>2022-05-15T12:45:18Z</time>
      </trkpt>
      <trkpt lat="47.22637" lon="4.934">
        <ele>475</ele>
        <time>2022-05-15T12:45:19Z</time>
      </trkpt>
      <trkpt lat="47.22638" lon="4.93399">
        <ele>475</ele>
        <time>2022-05-15T12:45:20Z</time>
      </trkpt>
      <trkpt lat="47.22639" lon="4.93398">
        <ele>475</ele>
        <time>2022-05-15T12:45:21Z</time>
      </trkpt>
      <trkpt lat="47.22639" lon="4.93397">
        <ele>475</ele>
        <time>2022-05-15T12:45:22Z</time>
      </trkpt>
      <trkpt lat="47.2264" lon="4.93395">
        <ele>475</ele>
        <time>2022-05-15T12:45:23Z</time>
      </trkpt>
      <trkpt lat="47.2264" lon="4.93394">
        <ele>474</ele>
        <time>2022-05-15T12:45:24Z</time>
      </trkpt>
      <trkpt lat="47.22642" lon="4.93392">
        <ele>476</ele>
        <time>2022-05-15T12:45:26Z</time>
      </trkpt>
      <trkpt lat="47.22643" lon="4.93391">
        <ele>475</ele>
        <time>2022-05-15T12:45:27Z</time>
      </trkpt>
      <trkpt lat="47.22644" lon="4.9339">
        <ele>475</ele>
        <time>2022-05-15T12:45:28Z</time>
      </trkpt>
      <trkpt lat="47.22645" lon="4.93388">
        <ele>473</ele>
        <time>2022-05-15T12:45:30Z</time>
      </trkpt>
      <trkpt lat="47.22645" lon="4.93386">
        <ele>472</ele>
        <time>2022-05-15T12:45:31Z</time>
      </trkpt>
      <trkpt lat="47.22645" lon="4.93385">
        <ele>473</ele>
        <time>2022-05-15T12:45:32Z</time>
      </trkpt>
      <trkpt lat="47.22646" lon="4.93384">
        <ele>473</ele>
        <time>2022-05-15T12:45:33Z</time>
      </trkpt>
      <trkpt lat="47.22647" lon="4.93382">
        <ele>475</ele>
        <time>2022-05-15T12:45:35Z</time>
      </trkpt>
      <trkpt lat="47.22648" lon="4.93381">
        <ele>476</ele>
        <time>2022-05-15T12:45:38Z</time>
      </trkpt>
      <trkpt lat="47.22649" lon="4.9338">
        <ele>476</ele>
        <time>2022-05-15T12:45:39Z</time>
      </trkpt>
      <trkpt lat="47.2265" lon="4.93378">
        <ele>476</ele>
        <time>2022-05-15T12:45:41Z</time>
      </trkpt>
      <trkpt lat="47.22651" lon="4.93377">
        <ele>476</ele>
        <time>2022-05-15T12:45:42Z</time>
      </trkpt>
      <trkpt lat="47.22652" lon="4.93375">
        <ele>477</ele>
        <time>2022-05-15T12:45:43Z</time>
      </trkpt>
      <trkpt lat="47.22653" lon="4.93374">
        <ele>476</ele>
        <time>2022-05-15T12:45:44Z</time>
      </trkpt>
      <trkpt lat="47.22654" lon="4.93373">
        <ele>477</ele>
        <time>2022-05-15T12:45:45Z</time>
      </trkpt>
      <trkpt lat="47.22654" lon="4.93371">
        <ele>475</ele>
        <time>2022-05-15T12:45:46Z</time>
      </trkpt>
      <trkpt lat="47.22655" lon="4.93369">
        <ele>475</ele>
        <time>2022-05-15T12:45:47Z</time>
      </trkpt>
      <trkpt lat="47.22656" lon="4.93368">
        <ele>475</ele>
        <time>2022-05-15T12:45:48Z</time>
      </trkpt>
      <trkpt lat="47.22657" lon="4.93366">
        <ele>474</ele>
        <time>2022-05-15T12:45:50Z</time>
      </trkpt>
      <trkpt lat="47.22658" lon="4.93365">
        <ele>475</ele>
        <time>2022-05-15T12:45:51Z</time>
      </trkpt>
      <trkpt lat="47.22659" lon="4.93363">
        <ele>475</ele>
        <time>2022-05-15T12:45:52Z</time>
      </trkpt>
      <trkpt lat="47.22659" lon="4.93361">
        <ele>475</ele>
        <time>2022-05-15T12:45:53Z</time>
      </trkpt>
      <trkpt lat="47.2266" lon="4.93359">
        <ele>476</ele>
        <time>2022-05-15T12:45:54Z</time>
      </trkpt>
      <trkpt lat="47.22661" lon="4.93358">
        <ele>470</ele>
        <time>2022-05-15T12:45:55Z</time>
      </trkpt>
      <trkpt lat="47.22662" lon="4.93356">
        <ele>470</ele>
        <time>2022-05-15T12:45:56Z</time>
      </trkpt>
      <trkpt lat="47.22662" lon="4.93355">
        <ele>471</ele>
        <time>2022-05-15T12:45:57Z</time>
      </trkpt>
      <trkpt lat="47.22663" lon="4.93354">
        <ele>473</ele>
        <time>2022-05-15T12:45:58Z</time>
      </trkpt>
      <trkpt lat="47.22664" lon="4.93351">
        <ele>474</ele>
        <time>2022-05-15T12:46:00Z</time>
      </trkpt>
      <trkpt lat="47.22665" lon="4.9335">
        <ele>475</ele>
        <time>2022-05-15T12:46:01Z</time>
      </trkpt>
      <trkpt lat="47.22665" lon="4.93349">
        <ele>475</ele>
        <time>2022-05-15T12:46:02Z</time>
      </trkpt>
      <trkpt lat="47.22666" lon="4.93347">
        <ele>475</ele>
        <time>2022-05-15T12:46:04Z</time>
      </trkpt>
      <trkpt lat="47.22667" lon="4.93346">
        <ele>475</ele>
        <time>2022-05-15T12:46:05Z</time>
      </trkpt>
      <trkpt lat="47.22668" lon="4.93345">
        <ele>475</ele>
        <time>2022-05-15T12:46:07Z</time>
      </trkpt>
      <trkpt lat="47.22669" lon="4.93343">
        <ele>477</ele>
        <time>2022-05-15T12:46:09Z</time>
      </trkpt>
      <trkpt lat="47.2267" lon="4.93341">
        <ele>476</ele>
        <time>2022-05-15T12:46:10Z</time>
      </trkpt>
      <trkpt lat="47.2267" lon="4.9334">
        <ele>475</ele>
        <time>2022-05-15T12:46:11Z</time>
      </trkpt>
      <trkpt lat="47.22671" lon="4.93338">
        <ele>476</ele>
        <time>2022-05-15T12:46:13Z</time>
      </trkpt>
      <trkpt lat="47.22673" lon="4.93336">
        <ele>473</ele>
        <time>2022-05-15T12:46:15Z</time>
      </trkpt>
      <trkpt lat="47.22674" lon="4.93334">
        <ele>475</ele>
        <time>2022-05-15T12:46:17Z</time>
      </trkpt>
      <trkpt lat="47.22675" lon="4.93333">
        <ele>475</ele>
        <time>2022-05-15T12:46:18Z</time>
      </trkpt>
      <trkpt lat="47.22675" lon="4.93332">
        <ele>474</ele>
        <time>2022-05-15T12:46:19Z</time>
      </trkpt>
      <trkpt lat="47.22676" lon="4.9333">
        <ele>473</ele>
        <time>2022-05-15T12:46:20Z</time>
      </trkpt>
      <trkpt lat="47.22677" lon="4.93329">
        <ele>474</ele>
        <time>2022-05-15T12:46:21Z</time>
      </trkpt>
      <trkpt lat="47.22677" lon="4.93328">
        <ele>474</ele>
        <time>2022-05-15T12:46:22Z</time>
      </trkpt>
      <trkpt lat="47.22678" lon="4.93326">
        <ele>475</ele>
        <time>2022-05-15T12:46:23Z</time>
      </trkpt>
      <trkpt lat="47.22678" lon="4.93324">
        <ele>476</ele>
        <time>2022-05-15T12:46:25Z</time>
      </trkpt>
      <trkpt lat="47.22679" lon="4.93322">
        <ele>477</ele>
        <time>2022-05-15T12:46:27Z</time>
      </trkpt>
      <trkpt lat="47.22679" lon="4.93321">
        <ele>478</ele>
        <time>2022-05-15T12:46:29Z</time>
      </trkpt>
      <trkpt lat="47.22681" lon="4.93319">
        <ele>479</ele>
        <time>2022-05-15T12:46:31Z</time>
      </trkpt>
      <trkpt lat="47.22682" lon="4.93318">
        <ele>479</ele>
        <time>2022-05-15T12:46:32Z</time>
      </trkpt>
      <trkpt lat="47.22682" lon="4.93317">
        <ele>479</ele>
        <time>2022-05-15T12:46:33Z</time>
      </trkpt>
      <trkpt lat="47.22683" lon="4.93315">
        <ele>478</ele>
        <time>2022-05-15T12:46:34Z</time>
      </trkpt>
      <trkpt lat="47.22684" lon="4.93314">
        <ele>477</ele>
        <time>2022-05-15T12:46:35Z</time>
      </trkpt>
      <trkpt lat="47.22685" lon="4.93312">
        <ele>476</ele>
        <time>2022-05-15T12:46:36Z</time>
      </trkpt>
      <trkpt lat="47.22686" lon="4.9331">
        <ele>476</ele>
        <time>2022-05-15T12:46:37Z</time>
      </trkpt>
      <trkpt lat="47.22687" lon="4.93309">
        <ele>476</ele>
        <time>2022-05-15T12:46:38Z</time>
      </trkpt>
      <trkpt lat="47.22687" lon="4.93307">
        <ele>475</ele>
        <time>2022-05-15T12:46:39Z</time>
      </trkpt>
      <trkpt lat="47.22688" lon="4.93306">
        <ele>475</ele>
        <time>2022-05-15T12:46:40Z</time>
      </trkpt>
      <trkpt lat="47.22689" lon="4.93305">
        <ele>475</ele>
        <time>2022-05-15T12:46:41Z</time>
      </trkpt>
      <trkpt lat="47.2269" lon="4.93304">
        <ele>474</ele>
        <time>2022-05-15T12:46:42Z</time>
      </trkpt>
      <trkpt lat="47.22691" lon="4.93303">
        <ele>474</ele>
        <time>2022-05-15T12:46:43Z</time>
      </trkpt>
      <trkpt lat="47.22692" lon="4.93301">
        <ele>470</ele>
        <time>2022-05-15T12:46:44Z</time>
      </trkpt>
      <trkpt lat="47.22693" lon="4.93299">
        <ele>470</ele>
        <time>2022-05-15T12:46:45Z</time>
      </trkpt>
      <trkpt lat="47.22694" lon="4.93297">
        <ele>470</ele>
        <time>2022-05-15T12:46:46Z</time>
      </trkpt>
      <trkpt lat="47.22695" lon="4.93296">
        <ele>471</ele>
        <time>2022-05-15T12:46:47Z</time>
      </trkpt>
      <trkpt lat="47.22696" lon="4.93295">
        <ele>472</ele>
        <time>2022-05-15T12:46:49Z</time>
      </trkpt>
      <trkpt lat="47.22697" lon="4.93293">
        <ele>472</ele>
        <time>2022-05-15T12:46:51Z</time>
      </trkpt>
      <trkpt lat="47.22698" lon="4.93292">
        <ele>472</ele>
        <time>2022-05-15T12:46:52Z</time>
      </trkpt>
      <trkpt lat="47.22698" lon="4.9329">
        <ele>473</ele>
        <time>2022-05-15T12:46:53Z</time>
      </trkpt>
      <trkpt lat="47.22699" lon="4.93289">
        <ele>473</ele>
        <time>2022-05-15T12:46:54Z</time>
      </trkpt>
      <trkpt lat="47.22699" lon="4.93287">
        <ele>472</ele>
        <time>2022-05-15T12:46:56Z</time>
      </trkpt>
      <trkpt lat="47.227" lon="4.93286">
        <ele>472</ele>
        <time>2022-05-15T12:46:58Z</time>
      </trkpt>
      <trkpt lat="47.22701" lon="4.93285">
        <ele>471</ele>
        <time>2022-05-15T12:46:59Z</time>
      </trkpt>
      <trkpt lat="47.22702" lon="4.93283">
        <ele>471</ele>
        <time>2022-05-15T12:47:01Z</time>
      </trkpt>
      <trkpt lat="47.22703" lon="4.93282">
        <ele>471</ele>
        <time>2022-05-15T12:47:03Z</time>
      </trkpt>
      <trkpt lat="47.22704" lon="4.9328">
        <ele>471</ele>
        <time>2022-05-15T12:47:05Z</time>
      </trkpt>
      <trkpt lat="47.22705" lon="4.93278">
        <ele>471</ele>
        <time>2022-05-15T12:47:06Z</time>
      </trkpt>
      <trkpt lat="47.22706" lon="4.93277">
        <ele>470</ele>
        <time>2022-05-15T12:47:07Z</time>
      </trkpt>
      <trkpt lat="47.22707" lon="4.93276">
        <ele>470</ele>
        <time>2022-05-15T12:47:08Z</time>
      </trkpt>
      <trkpt lat="47.22707" lon="4.93274">
        <ele>470</ele>
        <time>2022-05-15T12:47:09Z</time>
      </trkpt>
      <trkpt lat="47.22709" lon="4.93272">
        <ele>471</ele>
        <time>2022-05-15T12:47:11Z</time>
      </trkpt>
      <trkpt lat="47.22709" lon="4.93271">
        <ele>471</ele>
        <time>2022-05-15T12:47:12Z</time>
      </trkpt>
      <trkpt lat="47.2271" lon="4.93269">
        <ele>474</ele>
        <time>2022-05-15T12:47:14Z</time>
      </trkpt>
      <trkpt lat="47.22711" lon="4.93267">
        <ele>473</ele>
        <time>2022-05-15T12:47:16Z</time>
      </trkpt>
      <trkpt lat="47.22712" lon="4.93265">
        <ele>473</ele>
        <time>2022-05-15T12:47:18Z</time>
      </trkpt>
      <trkpt lat="47.22713" lon="4.93264">
        <ele>473</ele>
        <time>2022-05-15T12:47:19Z</time>
      </trkpt>
      <trkpt lat="47.22714" lon="4.93263">
        <ele>474</ele>
        <time>2022-05-15T12:47:21Z</time>
      </trkpt>
      <trkpt lat="47.22715" lon="4.93262">
        <ele>473</ele>
        <time>2022-05-15T12:47:22Z</time>
      </trkpt>
      <trkpt lat="47.22716" lon="4.93261">
        <ele>474</ele>
        <time>2022-05-15T12:47:23Z</time>
      </trkpt>
      <trkpt lat="47.22717" lon="4.9326">
        <ele>473</ele>
        <time>2022-05-15T12:47:25Z</time>
      </trkpt>
      <trkpt lat="47.22718" lon="4.93258">
        <ele>473</ele>
        <time>2022-05-15T12:47:26Z</time>
      </trkpt>
      <trkpt lat="47.22719" lon="4.93256">
        <ele>474</ele>
        <time>2022-05-15T12:47:28Z</time>
      </trkpt>
      <trkpt lat="47.22719" lon="4.93255">
        <ele>474</ele>
        <time>2022-05-15T12:47:29Z</time>
      </trkpt>
      <trkpt lat="47.2272" lon="4.93253">
        <ele>476</ele>
        <time>2022-05-15T12:47:31Z</time>
      </trkpt>
      <trkpt lat="47.2272" lon="4.9325">
        <ele>474</ele>
        <time>2022-05-15T12:47:33Z</time>
      </trkpt>
      <trkpt lat="47.22721" lon="4.93249">
        <ele>473</ele>
        <time>2022-05-15T12:47:34Z</time>
      </trkpt>
      <trkpt lat="47.22722" lon="4.93248">
        <ele>472</ele>
        <time>2022-05-15T12:47:35Z</time>
      </trkpt>
      <trkpt lat="47.22722" lon="4.93247">
        <ele>472</ele>
        <time>2022-05-15T12:47:36Z</time>
      </trkpt>
      <trkpt lat="47.22723" lon="4.93245">
        <ele>472</ele>
        <time>2022-05-15T12:47:37Z</time>
      </trkpt>
      <trkpt lat="47.22724" lon="4.93244">
        <ele>473</ele>
        <time>2022-05-15T12:47:38Z</time>
      </trkpt>
      <trkpt lat="47.22724" lon="4.93243">
        <ele>473</ele>
        <time>2022-05-15T12:47:39Z</time>
      </trkpt>
      <trkpt lat="47.22725" lon="4.93242">
        <ele>472</ele>
        <time>2022-05-15T12:47:40Z</time>
      </trkpt>
      <trkpt lat="47.22726" lon="4.93241">
        <ele>471</ele>
        <time>2022-05-15T12:47:41Z</time>
      </trkpt>
      <trkpt lat="47.22727" lon="4.93239">
        <ele>471</ele>
        <time>2022-05-15T12:47:43Z</time>
      </trkpt>
      <trkpt lat="47.22727" lon="4.93238">
        <ele>471</ele>
        <time>2022-05-15T12:47:44Z</time>
      </trkpt>
      <trkpt lat="47.22728" lon="4.93237">
        <ele>470</ele>
        <time>2022-05-15T12:47:45Z</time>
      </trkpt>
      <trkpt lat="47.2273" lon="4.93235">
        <ele>471</ele>
        <time>2022-05-15T12:47:47Z</time>
      </trkpt>
      <trkpt lat="47.2273" lon="4.93235">
        <ele>470</ele>
        <time>2022-05-15T12:47:48Z</time>
      </trkpt>
      <trkpt lat="47.22731" lon="4.93234">
        <ele>470</ele>
        <time>2022-05-15T12:47:49Z</time>
      </trkpt>
      <trkpt lat="47.22732" lon="4.93233">
        <ele>470</ele>
        <time>2022-05-15T12:47:50Z</time>
      </trkpt>
      <trkpt lat="47.22733" lon="4.93232">
        <ele>471</ele>
        <time>2022-05-15T12:47:51Z</time>
      </trkpt>
      <trkpt lat="47.22734" lon="4.93231">
        <ele>472</ele>
        <time>2022-05-15T12:47:52Z</time>
      </trkpt>
      <trkpt lat="47.22735" lon="4.93229">
        <ele>472</ele>
        <time>2022-05-15T12:47:54Z</time>
      </trkpt>
      <trkpt lat="47.22736" lon="4.93227">
        <ele>473</ele>
        <time>2022-05-15T12:47:56Z</time>
      </trkpt>
      <trkpt lat="47.22737" lon="4.93226">
        <ele>474</ele>
        <time>2022-05-15T12:47:57Z</time>
      </trkpt>
      <trkpt lat="47.22738" lon="4.93225">
        <ele>475</ele>
        <time>2022-05-15T12:47:58Z</time>
      </trkpt>
      <trkpt lat="47.22739" lon="4.93223">
        <ele>473</ele>
        <time>2022-05-15T12:47:59Z</time>
      </trkpt>
      <trkpt lat="47.22739" lon="4.93222">
        <ele>473</ele>
        <time>2022-05-15T12:48:00Z</time>
      </trkpt>
      <trkpt lat="47.22741" lon="4.9322">
        <ele>474</ele>
        <time>2022-05-15T12:48:02Z</time>
      </trkpt>
      <trkpt lat="47.22741" lon="4.93219">
        <ele>474</ele>
        <time>2022-05-15T12:48:03Z</time>
      </trkpt>
      <trkpt lat="47.22742" lon="4.93217">
        <ele>473</ele>
        <time>2022-05-15T12:48:05Z</time>
      </trkpt>
      <trkpt lat="47.22743" lon="4.93215">
        <ele>473</ele>
        <time>2022-05-15T12:48:06Z</time>
      </trkpt>
      <trkpt lat="47.22744" lon="4.93214">
        <ele>473</ele>
        <time>2022-05-15T12:48:07Z</time>
      </trkpt>
      <trkpt lat="47.22744" lon="4.93213">
        <ele>473</ele>
        <time>2022-05-15T12:48:08Z</time>
      </trkpt>
      <trkpt lat="47.22745" lon="4.93212">
        <ele>474</ele>
        <time>2022-05-15T12:48:09Z</time>
      </trkpt>
      <trkpt lat="47.22745" lon="4.9321">
        <ele>474</ele>
        <time>2022-05-15T12:48:10Z</time>
      </trkpt>
      <trkpt lat="47.22746" lon="4.93209">
        <ele>472</ele>
        <time>2022-05-15T12:48:11Z</time>
      </trkpt>
      <trkpt lat="47.22747" lon="4.93207">
        <ele>472</ele>
        <time>2022-05-15T12:48:13Z</time>
      </trkpt>
      <trkpt lat="47.22748" lon="4.93206">
        <ele>472</ele>
        <time>2022-05-15T12:48:14Z</time>
      </trkpt>
      <trkpt lat="47.22749" lon="4.93204">
        <ele>471</ele>
        <time>2022-05-15T12:48:15Z</time>
      </trkpt>
      <trkpt lat="47.22749" lon="4.93203">
        <ele>471</ele>
        <time>2022-05-15T12:48:16Z</time>
      </trkpt>
      <trkpt lat="47.2275" lon="4.93202">
        <ele>471</ele>
        <time>2022-05-15T12:48:17Z</time>
      </trkpt>
      <trkpt lat="47.22751" lon="4.93201">
        <ele>471</ele>
        <time>2022-05-15T12:48:18Z</time>
      </trkpt>
      <trkpt lat="47.22752" lon="4.93199">
        <ele>472</ele>
        <time>2022-05-15T12:48:20Z</time>
      </trkpt>
      <trkpt lat="47.22753" lon="4.93199">
        <ele>471</ele>
        <time>2022-05-15T12:48:21Z</time>
      </trkpt>
      <trkpt lat="47.22754" lon="4.93198">
        <ele>470</ele>
        <time>2022-05-15T12:48:22Z</time>
      </trkpt>
      <trkpt lat="47.22755" lon="4.93197">
        <ele>470</ele>
        <time>2022-05-15T12:48:23Z</time>
      </trkpt>
      <trkpt lat="47.22756" lon="4.93196">
        <ele>471</ele>
        <time>2022-05-15T12:48:25Z</time>
      </trkpt>
      <trkpt lat="47.22757" lon="4.93194">
        <ele>471</ele>
        <time>2022-05-15T12:48:27Z</time>
      </trkpt>
      <trkpt lat="47.22757" lon="4.93193">
        <ele>471</ele>
        <time>2022-05-15T12:48:28Z</time>
      </trkpt>
      <trkpt lat="47.22758" lon="4.93192">
        <ele>471</ele>
        <time>2022-05-15T12:48:29Z</time>
      </trkpt>
      <trkpt lat="47.22759" lon="4.93191">
        <ele>471</ele>
        <time>2022-05-15T12:48:30Z</time>
      </trkpt>
      <trkpt lat="47.22759" lon="4.93189">
        <ele>471</ele>
        <time>2022-05-15T12:48:31Z</time>
      </trkpt>
      <trkpt lat="47.2276" lon="4.93188">
        <ele>469</ele>
        <time>2022-05-15T12:48:32Z</time>
      </trkpt>
      <trkpt lat="47.2276" lon="4.93186">
        <ele>469</ele>
        <time>2022-05-15T12:48:33Z</time>
      </trkpt>
      <trkpt lat="47.22761" lon="4.93184">
        <ele>469</ele>
        <time>2022-05-15T12:48:35Z</time>
      </trkpt>
      <trkpt lat="47.22761" lon="4.93183">
        <ele>470</ele>
        <time>2022-05-15T12:48:36Z</time>
      </trkpt>
      <trkpt lat="47.22762" lon="4.93181">
        <ele>469</ele>
        <time>2022-05-15T12:48:37Z</time>
      </trkpt>
      <trkpt lat="47.22762" lon="4.9318">
        <ele>469</ele>
        <time>2022-05-15T12:48:38Z</time>
      </trkpt>
      <trkpt lat="47.22763" lon="4.93179">
        <ele>469</ele>
        <time>2022-05-15T12:48:39Z</time>
      </trkpt>
      <trkpt lat="47.22764" lon="4.93178">
        <ele>469</ele>
        <time>2022-05-15T12:48:40Z</time>
      </trkpt>
      <trkpt lat="47.22765" lon="4.93177">
        <ele>470</ele>
        <time>2022-05-15T12:48:42Z</time>
      </trkpt>
      <trkpt lat="47.22766" lon="4.93175">
        <ele>470</ele>
        <time>2022-05-15T12:48:44Z</time>
      </trkpt>
      <trkpt lat="47.22767" lon="4.93174">
        <ele>469</ele>
        <time>2022-05-15T12:48:45Z</time>
      </trkpt>
      <trkpt lat="47.22768" lon="4.93173">
        <ele>470</ele>
        <time>2022-05-15T12:48:46Z</time>
      </trkpt>
      <trkpt lat="47.22769" lon="4.93172">
        <ele>470</ele>
        <time>2022-05-15T12:48:47Z</time>
      </trkpt>
      <trkpt lat="47.2277" lon="4.93172">
        <ele>470</ele>
        <time>2022-05-15T12:48:48Z</time>
      </trkpt>
      <trkpt lat="47.2277" lon="4.9317">
        <ele>470</ele>
        <time>2022-05-15T12:48:49Z</time>
      </trkpt>
      <trkpt lat="47.22772" lon="4.93168">
        <ele>470</ele>
        <time>2022-05-15T12:48:51Z</time>
      </trkpt>
      <trkpt lat="47.22772" lon="4.93167">
        <ele>470</ele>
        <time>2022-05-15T12:48:52Z</time>
      </trkpt>
      <trkpt lat="47.22773" lon="4.93165">
        <ele>471</ele>
        <time>2022-05-15T12:48:54Z</time>
      </trkpt>
      <trkpt lat="47.22774" lon="4.93164">
        <ele>471</ele>
        <time>2022-05-15T12:48:55Z</time>
      </trkpt>
      <trkpt lat="47.22775" lon="4.93163">
        <ele>471</ele>
        <time>2022-05-15T12:48:56Z</time>
      </trkpt>
      <trkpt lat="47.22776" lon="4.93162">
        <ele>471</ele>
        <time>2022-05-15T12:48:57Z</time>
      </trkpt>
      <trkpt lat="47.22776" lon="4.93161">
        <ele>472</ele>
        <time>2022-05-15T12:48:58Z</time>
      </trkpt>
      <trkpt lat="47.22777" lon="4.93159">
        <ele>472</ele>
        <time>2022-05-15T12:48:59Z</time>
      </trkpt>
      <trkpt lat="47.22778" lon="4.93158">
        <ele>472</ele>
        <time>2022-05-15T12:49:00Z</time>
      </trkpt>
      <trkpt lat="47.22778" lon="4.93157">
        <ele>471</ele>
        <time>2022-05-15T12:49:01Z</time>
      </trkpt>
      <trkpt lat="47.22779" lon="4.93154">
        <ele>470</ele>
        <time>2022-05-15T12:49:03Z</time>
      </trkpt>
      <trkpt lat="47.2278" lon="4.93153">
        <ele>469</ele>
        <time>2022-05-15T12:49:04Z</time>
      </trkpt>
      <trkpt lat="47.2278" lon="4.93152">
        <ele>469</ele>
        <time>2022-05-15T12:49:05Z</time>
      </trkpt>
      <trkpt lat="47.22781" lon="4.93151">
        <ele>469</ele>
        <time>2022-05-15T12:49:06Z</time>
      </trkpt>
      <trkpt lat="47.22781" lon="4.93149">
        <ele>469</ele>
        <time>2022-05-15T12:49:07Z</time>
      </trkpt>
      <trkpt lat="47.22782" lon="4.93148">
        <ele>469</ele>
        <time>2022-05-15T12:49:08Z</time>
      </trkpt>
      <trkpt lat="47.22782" lon="4.93146">
        <ele>469</ele>
        <time>2022-05-15T12:49:10Z</time>
      </trkpt>
      <trkpt lat="47.22784" lon="4.93145">
        <ele>470</ele>
        <time>2022-05-15T12:49:12Z</time>
      </trkpt>
      <trkpt lat="47.22785" lon="4.93144">
        <ele>469</ele>
        <time>2022-05-15T12:49:14Z</time>
      </trkpt>
      <trkpt lat="47.22786" lon="4.93142">
        <ele>469</ele>
        <time>2022-05-15T12:49:16Z</time>
      </trkpt>
      <trkpt lat="47.22786" lon="4.9314">
        <ele>470</ele>
        <time>2022-05-15T12:49:18Z</time>
      </trkpt>
      <trkpt lat="47.22787" lon="4.93139">
        <ele>469</ele>
        <time>2022-05-15T12:49:20Z</time>
      </trkpt>
      <trkpt lat="47.22788" lon="4.93138">
        <ele>469</ele>
        <time>2022-05-15T12:49:22Z</time>
      </trkpt>
      <trkpt lat="47.22789" lon="4.93136">
        <ele>469</ele>
        <time>2022-05-15T12:49:24Z</time>
      </trkpt>
      <trkpt lat="47.22789" lon="4.93135">
        <ele>468</ele>
        <time>2022-05-15T12:49:26Z</time>
      </trkpt>
      <trkpt lat="47.2279" lon="4.93134">
        <ele>467</ele>
        <time>2022-05-15T12:49:28Z</time>
      </trkpt>
      <trkpt lat="47.22791" lon="4.93133">
        <ele>467</ele>
        <time>2022-05-15T12:49:30Z</time>
      </trkpt>
      <trkpt lat="47.22792" lon="4.93133">
        <ele>467</ele>
        <time>2022-05-15T12:49:33Z</time>
      </trkpt>
      <trkpt lat="47.22793" lon="4.93132">
        <ele>466</ele>
        <time>2022-05-15T12:49:35Z</time>
      </trkpt>
      <trkpt lat="47.22794" lon="4.93131">
        <ele>466</ele>
        <time>2022-05-15T12:49:37Z</time>
      </trkpt>
      <trkpt lat="47.22795" lon="4.9313">
        <ele>467</ele>
        <time>2022-05-15T12:49:39Z</time>
      </trkpt>
      <trkpt lat="47.22796" lon="4.93129">
        <ele>467</ele>
        <time>2022-05-15T12:49:41Z</time>
      </trkpt>
      <trkpt lat="47.22796" lon="4.93128">
        <ele>467</ele>
        <time>2022-05-15T12:49:43Z</time>
      </trkpt>
      <trkpt lat="47.22796" lon="4.93126">
        <ele>466</ele>
        <time>2022-05-15T12:49:50Z</time>
      </trkpt>
      <trkpt lat="47.22797" lon="4.93125">
        <ele>466</ele>
        <time>2022-05-15T12:49:52Z</time>
      </trkpt>
      <trkpt lat="47.22798" lon="4.93123">
        <ele>465</ele>
        <time>2022-05-15T12:49:54Z</time>
      </trkpt>
      <trkpt lat="47.22799" lon="4.93122">
        <ele>465</ele>
        <time>2022-05-15T12:49:56Z</time>
      </trkpt>
      <trkpt lat="47.22799" lon="4.9312">
        <ele>465</ele>
        <time>2022-05-15T12:49:58Z</time>
      </trkpt>
      <trkpt lat="47.228" lon="4.93118">
        <ele>465</ele>
        <time>2022-05-15T12:50:01Z</time>
      </trkpt>
      <trkpt lat="47.228" lon="4.93117">
        <ele>466</ele>
        <time>2022-05-15T12:50:05Z</time>
      </trkpt>
      <trkpt lat="47.228" lon="4.93115">
        <ele>464</ele>
        <time>2022-05-15T12:50:09Z</time>
      </trkpt>
      <trkpt lat="47.22801" lon="4.93114">
        <ele>465</ele>
        <time>2022-05-15T12:50:13Z</time>
      </trkpt>
      <trkpt lat="47.22801" lon="4.93113">
        <ele>463</ele>
        <time>2022-05-15T12:50:16Z</time>
      </trkpt>
      <trkpt lat="47.22802" lon="4.93112">
        <ele>463</ele>
        <time>2022-05-15T12:50:20Z</time>
      </trkpt>
      <trkpt lat="47.22803" lon="4.9311">
        <ele>463</ele>
        <time>2022-05-15T12:50:23Z</time>
      </trkpt>
      <trkpt lat="47.22803" lon="4.93109">
        <ele>462</ele>
        <time>2022-05-15T12:50:31Z</time>
      </trkpt>
      <trkpt lat="47.22804" lon="4.93107">
        <ele>462</ele>
        <time>2022-05-15T12:50:42Z</time>
      </trkpt>
      <trkpt lat="47.22804" lon="4.93106">
        <ele>462</ele>
        <time>2022-05-15T12:50:44Z</time>
      </trkpt>
      <trkpt lat="47.22805" lon="4.93105">
        <ele>462</ele>
        <time>2022-05-15T12:50:49Z</time>
      </trkpt>
      <trkpt lat="47.22806" lon="4.93105">
        <ele>461</ele>
        <time>2022-05-15T12:50:52Z</time>
      </trkpt>
      <trkpt lat="47.22807" lon="4.93103">
        <ele>461</ele>
        <time>2022-05-15T12:50:55Z</time>
      </trkpt>
      <trkpt lat="47.22808" lon="4.93102">
        <ele>459</ele>
        <time>2022-05-15T12:51:03Z</time>
      </trkpt>
      <trkpt lat="47.22809" lon="4.93101">
        <ele>460</ele>
        <time>2022-05-15T12:51:11Z</time>
      </trkpt>
      <trkpt lat="47.2281" lon="4.931">
        <ele>460</ele>
        <time>2022-05-15T12:51:16Z</time>
      </trkpt>
      <trkpt lat="47.2281" lon="4.93099">
        <ele>459</ele>
        <time>2022-05-15T12:51:19Z</time>
      </trkpt>
      <trkpt lat="47.22811" lon="4.93098">
        <ele>459</ele>
        <time>2022-05-15T12:51:25Z</time>
      </trkpt>
      <trkpt lat="47.22811" lon="4.93096">
        <ele>456</ele>
        <time>2022-05-15T12:53:12Z</time>
      </trkpt>
      <trkpt lat="47.22812" lon="4.93095">
        <ele>454</ele>
        <time>2022-05-15T12:53:13Z</time>
      </trkpt>
      <trkpt lat="47.22812" lon="4.93093">
        <ele>453</ele>
        <time>2022-05-15T12:53:15Z</time>
      </trkpt>
      <trkpt lat="47.22813" lon="4.93091">
        <ele>453</ele>
        <time>2022-05-15T12:53:18Z</time>
      </trkpt>
      <trkpt lat="47.22814" lon="4.93091">
        <ele>452</ele>
        <time>2022-05-15T12:53:22Z</time>
      </trkpt>
      <trkpt lat="47.22814" lon="4.9309">
        <ele>451</ele>
        <time>2022-05-15T12:53:26Z</time>
      </trkpt>
      <trkpt lat="47.22817" lon="4.93085">
        <ele>457</ele>
        <time>2022-05-15T12:53:37Z</time>
      </trkpt>
      <trkpt lat="47.2282" lon="4.93081">
        <ele>457</ele>
        <time>2022-05-15T12:53:38Z</time>
      </trkpt>
      <trkpt lat="47.22821" lon="4.93079">
        <ele>457</ele>
        <time>2022-05-15T12:53:39Z</time>
      </trkpt>
      <trkpt lat="47.22822" lon="4.93078">
        <ele>457</ele>
        <time>2022-05-15T12:53:40Z</time>
      </trkpt>
      <trkpt lat="47.22823" lon="4.93077">
        <ele>457</ele>
        <time>2022-05-15T12:53:42Z</time>
      </trkpt>
      <trkpt lat="47.22823" lon="4.93075">
        <ele>457</ele>
        <time>2022-05-15T12:53:47Z</time>
      </trkpt>
      <trkpt lat="47.22824" lon="4.93074">
        <ele>457</ele>
        <time>2022-05-15T12:53:51Z</time>
      </trkpt>
      <trkpt lat="47.22824" lon="4.93074">
        <ele>457</ele>
        <time>2022-05-15T12:55:52Z</time>
      </trkpt>
      <trkpt lat="47.22825" lon="4.93072">
        <ele>457</ele>
        <time>2022-05-15T12:56:14Z</time>
      </trkpt>
      <trkpt lat="47.22825" lon="4.93071">
        <ele>456</ele>
        <time>2022-05-15T12:56:16Z</time>
      </trkpt>
      <trkpt lat="47.22826" lon="4.93069">
        <ele>454</ele>
        <time>2022-05-15T12:56:18Z</time>
      </trkpt>
      <trkpt lat="47.22827" lon="4.93069">
        <ele>453</ele>
        <time>2022-05-15T12:56:19Z</time>
      </trkpt>
      <trkpt lat="47.22828" lon="4.93068">
        <ele>452</ele>
        <time>2022-05-15T12:56:21Z</time>
      </trkpt>
      <trkpt lat="47.22829" lon="4.93067">
        <ele>452</ele>
        <time>2022-05-15T12:56:23Z</time>
      </trkpt>
      <trkpt lat="47.2283" lon="4.93067">
        <ele>452</ele>
        <time>2022-05-15T12:56:25Z</time>
      </trkpt>
      <trkpt lat="47.22831" lon="4.93066">
        <ele>452</ele>
        <time>2022-05-15T12:56:28Z</time>
      </trkpt>
      <trkpt lat="47.22832" lon="4.93065">
        <ele>450</ele>
        <time>2022-05-15T12:56:31Z</time>
      </trkpt>
      <trkpt lat="47.22832" lon="4.93063">
        <ele>449</ele>
        <time>2022-05-15T12:56:34Z</time>
      </trkpt>
      <trkpt lat="47.22833" lon="4.93062">
        <ele>446</ele>
        <time>2022-05-15T12:56:36Z</time>
      </trkpt>
      <trkpt lat="47.22834" lon="4.9306">
        <ele>444</ele>
        <time>2022-05-15T12:56:38Z</time>
      </trkpt>
      <trkpt lat="47.22835" lon="4.93058">
        <ele>445</ele>
        <time>2022-05-15T12:56:40Z</time>
      </trkpt>
      <trkpt lat="47.22836" lon="4.93059">
        <ele>444</ele>
        <time>2022-05-15T12:56:41Z</time>
      </trkpt>
      <trkpt lat="47.22837" lon="4.93058">
        <ele>446</ele>
        <time>2022-05-15T12:56:46Z</time>
      </trkpt>
      <trkpt lat="47.22837" lon="4.93057">
        <ele>444</ele>
        <time>2022-05-15T12:56:47Z</time>
      </trkpt>
      <trkpt lat="47.22838" lon="4.93055">
        <ele>444</ele>
        <time>2022-05-15T12:56:49Z</time>
      </trkpt>
      <trkpt lat="47.22838" lon="4.93054">
        <ele>443</ele>
        <time>2022-05-15T12:56:51Z</time>
      </trkpt>
      <trkpt lat="47.22839" lon="4.93053">
        <ele>443</ele>
        <time>2022-05-15T12:56:53Z</time>
      </trkpt>
      <trkpt lat="47.22839" lon="4.93051">
        <ele>442</ele>
        <time>2022-05-15T12:56:55Z</time>
      </trkpt>
      <trkpt lat="47.22839" lon="4.9305">
        <ele>441</ele>
        <time>2022-05-15T12:56:57Z</time>
      </trkpt>
      <trkpt lat="47.22839" lon="4.93049">
        <ele>440</ele>
        <time>2022-05-15T12:56:58Z</time>
      </trkpt>
      <trkpt lat="47.22839" lon="4.93046">
        <ele>439</ele>
        <time>2022-05-15T12:57:00Z</time>
      </trkpt>
      <trkpt lat="47.22839" lon="4.93044">
        <ele>439</ele>
        <time>2022-05-15T12:57:01Z</time>
      </trkpt>
      <trkpt lat="47.22838" lon="4.93042">
        <ele>435</ele>
        <time>2022-05-15T12:57:02Z</time>
      </trkpt>
      <trkpt lat="47.22838" lon="4.93041">
        <ele>434</ele>
        <time>2022-05-15T12:57:03Z</time>
      </trkpt>
      <trkpt lat="47.22837" lon="4.93039">
        <ele>433</ele>
        <time>2022-05-15T12:57:04Z</time>
      </trkpt>
      <trkpt lat="47.22836" lon="4.93038">
        <ele>433</ele>
        <time>2022-05-15T12:57:05Z</time>
      </trkpt>
      <trkpt lat="47.22835" lon="4.93036">
        <ele>434</ele>
        <time>2022-05-15T12:57:07Z</time>
      </trkpt>
      <trkpt lat="47.22834" lon="4.93036">
        <ele>434</ele>
        <time>2022-05-15T12:57:08Z</time>
      </trkpt>
      <trkpt lat="47.22832" lon="4.93035">
        <ele>431</ele>
        <time>2022-05-15T12:57:11Z</time>
      </trkpt>
      <trkpt lat="47.22831" lon="4.93034">
        <ele>434</ele>
        <time>2022-05-15T12:57:14Z</time>
      </trkpt>
      <trkpt lat="47.2283" lon="4.93033">
        <ele>435</ele>
        <time>2022-05-15T12:57:17Z</time>
      </trkpt>
      <trkpt lat="47.22829" lon="4.93032">
        <ele>435</ele>
        <time>2022-05-15T12:57:19Z</time>
      </trkpt>
      <trkpt lat="47.22828" lon="4.93032">
        <ele>435</ele>
        <time>2022-05-15T12:57:20Z</time>
      </trkpt>
      <trkpt lat="47.22826" lon="4.93032">
        <ele>437</ele>
        <time>2022-05-15T12:57:21Z</time>
      </trkpt>
      <trkpt lat="47.22825" lon="4.93032">
        <ele>439</ele>
        <time>2022-05-15T12:57:23Z</time>
      </trkpt>
      <trkpt lat="47.22824" lon="4.93032">
        <ele>439</ele>
        <time>2022-05-15T12:57:24Z</time>
      </trkpt>
      <trkpt lat="47.22822" lon="4.93032">
        <ele>438</ele>
        <time>2022-05-15T12:57:25Z</time>
      </trkpt>
      <trkpt lat="47.22821" lon="4.93032">
        <ele>438</ele>
        <time>2022-05-15T12:57:26Z</time>
      </trkpt>
      <trkpt lat="47.22821" lon="4.93031">
        <ele>438</ele>
        <time>2022-05-15T12:57:27Z</time>
      </trkpt>
      <trkpt lat="47.2282" lon="4.9303">
        <ele>437</ele>
        <time>2022-05-15T12:57:28Z</time>
      </trkpt>
      <trkpt lat="47.22819" lon="4.93028">
        <ele>439</ele>
        <time>2022-05-15T12:57:30Z</time>
      </trkpt>
      <trkpt lat="47.22818" lon="4.93026">
        <ele>439</ele>
        <time>2022-05-15T12:57:33Z</time>
      </trkpt>
      <trkpt lat="47.22817" lon="4.93026">
        <ele>438</ele>
        <time>2022-05-15T12:57:34Z</time>
      </trkpt>
      <trkpt lat="47.22816" lon="4.93025">
        <ele>440</ele>
        <time>2022-05-15T12:57:36Z</time>
      </trkpt>
      <trkpt lat="47.22815" lon="4.93025">
        <ele>439</ele>
        <time>2022-05-15T12:57:37Z</time>
      </trkpt>
      <trkpt lat="47.22814" lon="4.93025">
        <ele>442</ele>
        <time>2022-05-15T12:57:39Z</time>
      </trkpt>
      <trkpt lat="47.22813" lon="4.93024">
        <ele>443</ele>
        <time>2022-05-15T12:57:41Z</time>
      </trkpt>
      <trkpt lat="47.22811" lon="4.93023">
        <ele>446</ele>
        <time>2022-05-15T12:57:43Z</time>
      </trkpt>
      <trkpt lat="47.2281" lon="4.93023">
        <ele>447</ele>
        <time>2022-05-15T12:57:45Z</time>
      </trkpt>
      <trkpt lat="47.22808" lon="4.93021">
        <ele>449</ele>
        <time>2022-05-15T12:57:47Z</time>
      </trkpt>
      <trkpt lat="47.22807" lon="4.9302">
        <ele>449</ele>
        <time>2022-05-15T12:57:48Z</time>
      </trkpt>
      <trkpt lat="47.22806" lon="4.93019">
        <ele>450</ele>
        <time>2022-05-15T12:57:49Z</time>
      </trkpt>
      <trkpt lat="47.22805" lon="4.93019">
        <ele>456</ele>
        <time>2022-05-15T12:57:51Z</time>
      </trkpt>
      <trkpt lat="47.22804" lon="4.93019">
        <ele>456</ele>
        <time>2022-05-15T12:57:52Z</time>
      </trkpt>
      <trkpt lat="47.22802" lon="4.93018">
        <ele>454</ele>
        <time>2022-05-15T12:57:54Z</time>
      </trkpt>
      <trkpt lat="47.22801" lon="4.93018">
        <ele>453</ele>
        <time>2022-05-15T12:57:55Z</time>
      </trkpt>
      <trkpt lat="47.228" lon="4.93017">
        <ele>454</ele>
        <time>2022-05-15T12:57:56Z</time>
      </trkpt>
      <trkpt lat="47.22799" lon="4.93016">
        <ele>454</ele>
        <time>2022-05-15T12:57:57Z</time>
      </trkpt>
      <trkpt lat="47.22798" lon="4.93015">
        <ele>453</ele>
        <time>2022-05-15T12:57:58Z</time>
      </trkpt>
      <trkpt lat="47.22796" lon="4.93014">
        <ele>453</ele>
        <time>2022-05-15T12:57:59Z</time>
      </trkpt>
      <trkpt lat="47.22795" lon="4.93013">
        <ele>453</ele>
        <time>2022-05-15T12:58:00Z</time>
      </trkpt>
      <trkpt lat="47.22793" lon="4.93013">
        <ele>453</ele>
        <time>2022-05-15T12:58:01Z</time>
      </trkpt>
      <trkpt lat="47.22793" lon="4.93012">
        <ele>452</ele>
        <time>2022-05-15T12:58:02Z</time>
      </trkpt>
      <trkpt lat="47.22792" lon="4.93011">
        <ele>451</ele>
        <time>2022-05-15T12:58:03Z</time>
      </trkpt>
      <trkpt lat="47.2279" lon="4.9301">
        <ele>451</ele>
        <time>2022-05-15T12:58:05Z</time>
      </trkpt>
      <trkpt lat="47.22789" lon="4.9301">
        <ele>452</ele>
        <time>2022-05-15T12:58:06Z</time>
      </trkpt>
      <trkpt lat="47.22788" lon="4.9301">
        <ele>450</ele>
        <time>2022-05-15T12:58:07Z</time>
      </trkpt>
      <trkpt lat="47.22786" lon="4.93009">
        <ele>450</ele>
        <time>2022-05-15T12:58:09Z</time>
      </trkpt>
      <trkpt lat="47.22785" lon="4.93009">
        <ele>451</ele>
        <time>2022-05-15T12:58:10Z</time>
      </trkpt>
      <trkpt lat="47.22784" lon="4.93008">
        <ele>451</ele>
        <time>2022-05-15T12:58:11Z</time>
      </trkpt>
      <trkpt lat="47.22783" lon="4.93007">
        <ele>450</ele>
        <time>2022-05-15T12:58:12Z</time>
      </trkpt>
      <trkpt lat="47.22782" lon="4.93007">
        <ele>450</ele>
        <time>2022-05-15T12:58:14Z</time>
      </trkpt>
      <trkpt lat="47.22781" lon="4.93007">
        <ele>449</ele>
        <time>2022-05-15T12:58:15Z</time>
      </trkpt>
      <trkpt lat="47.2278" lon="4.93007">
        <ele>448</ele>
        <time>2022-05-15T12:58:16Z</time>
      </trkpt>
      <trkpt lat="47.22779" lon="4.93007">
        <ele>450</ele>
        <time>2022-05-15T12:58:17Z</time>
      </trkpt>
      <trkpt lat="47.22778" lon="4.93006">
        <ele>450</ele>
        <time>2022-05-15T12:58:18Z</time>
      </trkpt>
      <trkpt lat="47.22777" lon="4.93006">
        <ele>450</ele>
        <time>2022-05-15T12:58:19Z</time>
      </trkpt>
      <trkpt lat="47.22776" lon="4.93005">
        <ele>451</ele>
        <time>2022-05-15T12:58:20Z</time>
      </trkpt>
      <trkpt lat="47.22775" lon="4.93004">
        <ele>450</ele>
        <time>2022-05-15T12:58:21Z</time>
      </trkpt>
      <trkpt lat="47.22774" lon="4.93004">
        <ele>451</ele>
        <time>2022-05-15T12:58:22Z</time>
      </trkpt>
      <trkpt lat="47.22773" lon="4.93003">
        <ele>452</ele>
        <time>2022-05-15T12:58:23Z</time>
      </trkpt>
      <trkpt lat="47.22772" lon="4.93003">
        <ele>450</ele>
        <time>2022-05-15T12:58:24Z</time>
      </trkpt>
      <trkpt lat="47.22771" lon="4.93002">
        <ele>450</ele>
        <time>2022-05-15T12:58:25Z</time>
      </trkpt>
      <trkpt lat="47.2277" lon="4.93001">
        <ele>449</ele>
        <time>2022-05-15T12:58:26Z</time>
      </trkpt>
      <trkpt lat="47.22769" lon="4.93001">
        <ele>449</ele>
        <time>2022-05-15T12:58:27Z</time>
      </trkpt>
      <trkpt lat="47.22768" lon="4.93">
        <ele>450</ele>
        <time>2022-05-15T12:58:28Z</time>
      </trkpt>
      <trkpt lat="47.22766" lon="4.93">
        <ele>450</ele>
        <time>2022-05-15T12:58:29Z</time>
      </trkpt>
      <trkpt lat="47.22764" lon="4.92999">
        <ele>451</ele>
        <time>2022-05-15T12:58:30Z</time>
      </trkpt>
      <trkpt lat="47.22763" lon="4.92999">
        <ele>452</ele>
        <time>2022-05-15T12:58:31Z</time>
      </trkpt>
      <trkpt lat="47.22762" lon="4.92999">
        <ele>455</ele>
        <time>2022-05-15T12:58:33Z</time>
      </trkpt>
      <trkpt lat="47.2276" lon="4.92998">
        <ele>456</ele>
        <time>2022-05-15T12:58:35Z</time>
      </trkpt>
      <trkpt lat="47.22759" lon="4.92997">
        <ele>455</ele>
        <time>2022-05-15T12:58:36Z</time>
      </trkpt>
      <trkpt lat="47.22758" lon="4.92997">
        <ele>452</ele>
        <time>2022-05-15T12:58:38Z</time>
      </trkpt>
      <trkpt lat="47.22757" lon="4.92996">
        <ele>452</ele>
        <time>2022-05-15T12:58:39Z</time>
      </trkpt>
      <trkpt lat="47.22757" lon="4.92995">
        <ele>446</ele>
        <time>2022-05-15T12:58:41Z</time>
      </trkpt>
      <trkpt lat="47.22757" lon="4.92993">
        <ele>446</ele>
        <time>2022-05-15T12:58:43Z</time>
      </trkpt>
      <trkpt lat="47.22756" lon="4.92992">
        <ele>447</ele>
        <time>2022-05-15T12:58:47Z</time>
      </trkpt>
      <trkpt lat="47.22755" lon="4.9299">
        <ele>447</ele>
        <time>2022-05-15T12:58:49Z</time>
      </trkpt>
      <trkpt lat="47.22754" lon="4.92989">
        <ele>447</ele>
        <time>2022-05-15T12:58:51Z</time>
      </trkpt>
      <trkpt lat="47.22753" lon="4.92988">
        <ele>448</ele>
        <time>2022-05-15T12:58:53Z</time>
      </trkpt>
      <trkpt lat="47.22752" lon="4.92987">
        <ele>444</ele>
        <time>2022-05-15T12:58:55Z</time>
      </trkpt>
      <trkpt lat="47.22751" lon="4.92986">
        <ele>444</ele>
        <time>2022-05-15T12:58:56Z</time>
      </trkpt>
      <trkpt lat="47.2275" lon="4.92984">
        <ele>444</ele>
        <time>2022-05-15T12:58:58Z</time>
      </trkpt>
      <trkpt lat="47.22749" lon="4.92983">
        <ele>446</ele>
        <time>2022-05-15T12:59:00Z</time>
      </trkpt>
      <trkpt lat="47.22748" lon="4.92981">
        <ele>445</ele>
        <time>2022-05-15T12:59:02Z</time>
      </trkpt>
      <trkpt lat="47.22747" lon="4.9298">
        <ele>446</ele>
        <time>2022-05-15T12:59:04Z</time>
      </trkpt>
      <trkpt lat="47.22746" lon="4.92977">
        <ele>442</ele>
        <time>2022-05-15T12:59:06Z</time>
      </trkpt>
      <trkpt lat="47.22746" lon="4.92976">
        <ele>442</ele>
        <time>2022-05-15T12:59:07Z</time>
      </trkpt>
      <trkpt lat="47.22745" lon="4.92976">
        <ele>442</ele>
        <time>2022-05-15T12:59:08Z</time>
      </trkpt>
      <trkpt lat="47.22743" lon="4.92974">
        <ele>441</ele>
        <time>2022-05-15T12:59:10Z</time>
      </trkpt>
      <trkpt lat="47.22743" lon="4.92974">
        <ele>440</ele>
        <time>2022-05-15T12:59:13Z</time>
      </trkpt>
      <trkpt lat="47.22742" lon="4.92972">
        <ele>440</ele>
        <time>2022-05-15T12:59:17Z</time>
      </trkpt>
      <trkpt lat="47.22741" lon="4.92972">
        <ele>440</ele>
        <time>2022-05-15T12:59:29Z</time>
      </trkpt>
      <trkpt lat="47.2274" lon="4.92972">
        <ele>439</ele>
        <time>2022-05-15T12:59:33Z</time>
      </trkpt>
      <trkpt lat="47.22738" lon="4.92972">
        <ele>442</ele>
        <time>2022-05-15T12:59:37Z</time>
      </trkpt>
      <trkpt lat="47.22737" lon="4.92972">
        <ele>442</ele>
        <time>2022-05-15T12:59:39Z</time>
      </trkpt>
      <trkpt lat="47.22736" lon="4.92971">
        <ele>440</ele>
        <time>2022-05-15T12:59:42Z</time>
      </trkpt>
      <trkpt lat="47.22735" lon="4.92972">
        <ele>440</ele>
        <time>2022-05-15T12:59:47Z</time>
      </trkpt>
      <trkpt lat="47.22733" lon="4.92972">
        <ele>444</ele>
        <time>2022-05-15T12:59:49Z</time>
      </trkpt>
      <trkpt lat="47.22732" lon="4.92972">
        <ele>445</ele>
        <time>2022-05-15T12:59:50Z</time>
      </trkpt>
      <trkpt lat="47.22732" lon="4.92969">
        <ele>438</ele>
        <time>2022-05-15T12:59:53Z</time>
      </trkpt>
      <trkpt lat="47.22733" lon="4.92968">
        <ele>438</ele>
        <time>2022-05-15T12:59:55Z</time>
      </trkpt>
      <trkpt lat="47.22731" lon="4.92967">
        <ele>438</ele>
        <time>2022-05-15T12:59:58Z</time>
      </trkpt>
      <trkpt lat="47.2273" lon="4.92967">
        <ele>441</ele>
        <time>2022-05-15T12:59:59Z</time>
      </trkpt>
      <trkpt lat="47.22729" lon="4.92966">
        <ele>442</ele>
        <time>2022-05-15T13:00:01Z</time>
      </trkpt>
      <trkpt lat="47.22727" lon="4.92966">
        <ele>437</ele>
        <time>2022-05-15T13:00:03Z</time>
      </trkpt>
      <trkpt lat="47.22726" lon="4.92965">
        <ele>435</ele>
        <time>2022-05-15T13:00:05Z</time>
      </trkpt>
      <trkpt lat="47.22725" lon="4.92965">
        <ele>437</ele>
        <time>2022-05-15T13:00:08Z</time>
      </trkpt>
      <trkpt lat="47.22724" lon="4.92965">
        <ele>441</ele>
        <time>2022-05-15T13:00:10Z</time>
      </trkpt>
      <trkpt lat="47.22723" lon="4.92965">
        <ele>441</ele>
        <time>2022-05-15T13:00:14Z</time>
      </trkpt>
      <trkpt lat="47.22722" lon="4.92965">
        <ele>443</ele>
        <time>2022-05-15T13:00:19Z</time>
      </trkpt>
      <trkpt lat="47.22721" lon="4.92964">
        <ele>444</ele>
        <time>2022-05-15T13:00:42Z</time>
      </trkpt>
      <trkpt lat="47.2272" lon="4.92963">
        <ele>440</ele>
        <time>2022-05-15T13:00:44Z</time>
      </trkpt>
      <trkpt lat="47.2272" lon="4.92962">
        <ele>442</ele>
        <time>2022-05-15T13:00:46Z</time>
      </trkpt>
      <trkpt lat="47.22719" lon="4.92961">
        <ele>442</ele>
        <time>2022-05-15T13:00:49Z</time>
      </trkpt>
      <trkpt lat="47.22718" lon="4.92961">
        <ele>444</ele>
        <time>2022-05-15T13:00:51Z</time>
      </trkpt>
      <trkpt lat="47.22717" lon="4.92961">
        <ele>445</ele>
        <time>2022-05-15T13:00:53Z</time>
      </trkpt>
      <trkpt lat="47.22716" lon="4.92961">
        <ele>444</ele>
        <time>2022-05-15T13:00:57Z</time>
      </trkpt>
      <trkpt lat="47.22715" lon="4.9296">
        <ele>445</ele>
        <time>2022-05-15T13:01:07Z</time>
      </trkpt>
      <trkpt lat="47.22714" lon="4.92959">
        <ele>445</ele>
        <time>2022-05-15T13:01:09Z</time>
      </trkpt>
      <trkpt lat="47.22712" lon="4.92959">
        <ele>444</ele>
        <time>2022-05-15T13:01:11Z</time>
      </trkpt>
      <trkpt lat="47.22712" lon="4.9296">
        <ele>445</ele>
        <time>2022-05-15T13:01:14Z</time>
      </trkpt>
      <trkpt lat="47.22711" lon="4.92959">
        <ele>445</ele>
        <time>2022-05-15T13:01:37Z</time>
      </trkpt>
      <trkpt lat="47.2271" lon="4.92958">
        <ele>443</ele>
        <time>2022-05-15T13:01:48Z</time>
      </trkpt>
      <trkpt lat="47.22708" lon="4.92958">
        <ele>445</ele>
        <time>2022-05-15T13:01:50Z</time>
      </trkpt>
      <trkpt lat="47.22707" lon="4.92958">
        <ele>447</ele>
        <time>2022-05-15T13:01:52Z</time>
      </trkpt>
      <trkpt lat="47.22706" lon="4.92958">
        <ele>447</ele>
        <time>2022-05-15T13:01:55Z</time>
      </trkpt>
      <trkpt lat="47.22706" lon="4.92957">
        <ele>448</ele>
        <time>2022-05-15T13:01:58Z</time>
      </trkpt>
      <trkpt lat="47.22705" lon="4.92956">
        <ele>448</ele>
        <time>2022-05-15T13:02:01Z</time>
      </trkpt>
      <trkpt lat="47.22704" lon="4.92955">
        <ele>448</ele>
        <time>2022-05-15T13:02:19Z</time>
      </trkpt>
      <trkpt lat="47.22703" lon="4.92954">
        <ele>449</ele>
        <time>2022-05-15T13:02:21Z</time>
      </trkpt>
      <trkpt lat="47.22702" lon="4.92954">
        <ele>450</ele>
        <time>2022-05-15T13:02:22Z</time>
      </trkpt>
      <trkpt lat="47.22701" lon="4.92952">
        <ele>450</ele>
        <time>2022-05-15T13:02:24Z</time>
      </trkpt>
      <trkpt lat="47.22699" lon="4.92951">
        <ele>450</ele>
        <time>2022-05-15T13:02:26Z</time>
      </trkpt>
      <trkpt lat="47.22698" lon="4.9295">
        <ele>450</ele>
        <time>2022-05-15T13:02:27Z</time>
      </trkpt>
      <trkpt lat="47.22698" lon="4.92949">
        <ele>451</ele>
        <time>2022-05-15T13:02:30Z</time>
      </trkpt>
      <trkpt lat="47.22699" lon="4.92948">
        <ele>452</ele>
        <time>2022-05-15T13:02:32Z</time>
      </trkpt>
      <trkpt lat="47.22699" lon="4.92947">
        <ele>451</ele>
        <time>2022-05-15T13:02:35Z</time>
      </trkpt>
      <trkpt lat="47.22698" lon="4.92945">
        <ele>459</ele>
        <time>2022-05-15T13:02:37Z</time>
      </trkpt>
      <trkpt lat="47.22697" lon="4.92943">
        <ele>455</ele>
        <time>2022-05-15T13:02:47Z</time>
      </trkpt>
      <trkpt lat="47.22696" lon="4.92942">
        <ele>452</ele>
        <time>2022-05-15T13:02:48Z</time>
      </trkpt>
      <trkpt lat="47.22696" lon="4.92941">
        <ele>452</ele>
        <time>2022-05-15T13:02:51Z</time>
      </trkpt>
      <trkpt lat="47.22696" lon="4.9294">
        <ele>451</ele>
        <time>2022-05-15T13:02:55Z</time>
      </trkpt>
      <trkpt lat="47.22695" lon="4.92939">
        <ele>452</ele>
        <time>2022-05-15T13:03:00Z</time>
      </trkpt>
      <trkpt lat="47.22694" lon="4.92939">
        <ele>454</ele>
        <time>2022-05-15T13:03:02Z</time>
      </trkpt>
      <trkpt lat="47.22693" lon="4.92938">
        <ele>456</ele>
        <time>2022-05-15T13:03:03Z</time>
      </trkpt>
      <trkpt lat="47.22692" lon="4.92937">
        <ele>457</ele>
        <time>2022-05-15T13:03:04Z</time>
      </trkpt>
      <trkpt lat="47.2269" lon="4.92936">
        <ele>457</ele>
        <time>2022-05-15T13:03:05Z</time>
      </trkpt>
      <trkpt lat="47.22689" lon="4.92936">
        <ele>459</ele>
        <time>2022-05-15T13:03:07Z</time>
      </trkpt>
      <trkpt lat="47.22688" lon="4.92935">
        <ele>459</ele>
        <time>2022-05-15T13:03:11Z</time>
      </trkpt>
      <trkpt lat="47.22687" lon="4.92935">
        <ele>458</ele>
        <time>2022-05-15T13:03:17Z</time>
      </trkpt>
      <trkpt lat="47.22686" lon="4.92934">
        <ele>458</ele>
        <time>2022-05-15T13:03:59Z</time>
      </trkpt>
      <trkpt lat="47.22686" lon="4.92932">
        <ele>459</ele>
        <time>2022-05-15T13:04:01Z</time>
      </trkpt>
      <trkpt lat="47.22685" lon="4.92931">
        <ele>460</ele>
        <time>2022-05-15T13:04:04Z</time>
      </trkpt>
      <trkpt lat="47.22684" lon="4.92931">
        <ele>461</ele>
        <time>2022-05-15T13:04:06Z</time>
      </trkpt>
      <trkpt lat="47.22683" lon="4.9293">
        <ele>461</ele>
        <time>2022-05-15T13:04:08Z</time>
      </trkpt>
      <trkpt lat="47.22682" lon="4.9293">
        <ele>461</ele>
        <time>2022-05-15T13:04:10Z</time>
      </trkpt>
      <trkpt lat="47.22681" lon="4.92929">
        <ele>462</ele>
        <time>2022-05-15T13:04:11Z</time>
      </trkpt>
      <trkpt lat="47.2268" lon="4.92929">
        <ele>463</ele>
        <time>2022-05-15T13:04:13Z</time>
      </trkpt>
      <trkpt lat="47.22679" lon="4.9293">
        <ele>464</ele>
        <time>2022-05-15T13:04:16Z</time>
      </trkpt>
      <trkpt lat="47.22678" lon="4.92931">
        <ele>463</ele>
        <time>2022-05-15T13:04:18Z</time>
      </trkpt>
      <trkpt lat="47.22677" lon="4.92931">
        <ele>464</ele>
        <time>2022-05-15T13:04:19Z</time>
      </trkpt>
      <trkpt lat="47.22676" lon="4.9293">
        <ele>463</ele>
        <time>2022-05-15T13:04:21Z</time>
      </trkpt>
      <trkpt lat="47.22675" lon="4.9293">
        <ele>465</ele>
        <time>2022-05-15T13:04:24Z</time>
      </trkpt>
      <trkpt lat="47.22673" lon="4.92929">
        <ele>465</ele>
        <time>2022-05-15T13:04:25Z</time>
      </trkpt>
      <trkpt lat="47.22672" lon="4.92929">
        <ele>465</ele>
        <time>2022-05-15T13:04:26Z</time>
      </trkpt>
      <trkpt lat="47.22671" lon="4.92928">
        <ele>464</ele>
        <time>2022-05-15T13:04:28Z</time>
      </trkpt>
      <trkpt lat="47.2267" lon="4.92927">
        <ele>464</ele>
        <time>2022-05-15T13:04:30Z</time>
      </trkpt>
      <trkpt lat="47.22669" lon="4.92926">
        <ele>463</ele>
        <time>2022-05-15T13:04:32Z</time>
      </trkpt>
      <trkpt lat="47.22668" lon="4.92925">
        <ele>463</ele>
        <time>2022-05-15T13:04:34Z</time>
      </trkpt>
      <trkpt lat="47.22667" lon="4.92923">
        <ele>464</ele>
        <time>2022-05-15T13:04:36Z</time>
      </trkpt>
      <trkpt lat="47.22667" lon="4.9292">
        <ele>464</ele>
        <time>2022-05-15T13:04:38Z</time>
      </trkpt>
      <trkpt lat="47.22667" lon="4.92919">
        <ele>463</ele>
        <time>2022-05-15T13:04:39Z</time>
      </trkpt>
      <trkpt lat="47.22666" lon="4.92918">
        <ele>465</ele>
        <time>2022-05-15T13:04:40Z</time>
      </trkpt>
      <trkpt lat="47.22665" lon="4.92917">
        <ele>466</ele>
        <time>2022-05-15T13:04:43Z</time>
      </trkpt>
      <trkpt lat="47.22664" lon="4.92915">
        <ele>465</ele>
        <time>2022-05-15T13:04:45Z</time>
      </trkpt>
      <trkpt lat="47.22664" lon="4.92914">
        <ele>464</ele>
        <time>2022-05-15T13:04:47Z</time>
      </trkpt>
      <trkpt lat="47.22664" lon="4.92913">
        <ele>464</ele>
        <time>2022-05-15T13:04:49Z</time>
      </trkpt>
      <trkpt lat="47.22664" lon="4.92911">
        <ele>465</ele>
        <time>2022-05-15T13:04:51Z</time>
      </trkpt>
      <trkpt lat="47.22664" lon="4.92909">
        <ele>465</ele>
        <time>2022-05-15T13:04:53Z</time>
      </trkpt>
      <trkpt lat="47.22664" lon="4.92907">
        <ele>465</ele>
        <time>2022-05-15T13:04:55Z</time>
      </trkpt>
      <trkpt lat="47.22664" lon="4.92905">
        <ele>464</ele>
        <time>2022-05-15T13:04:57Z</time>
      </trkpt>
      <trkpt lat="47.22663" lon="4.92903">
        <ele>465</ele>
        <time>2022-05-15T13:05:01Z</time>
      </trkpt>
      <trkpt lat="47.22662" lon="4.92901">
        <ele>464</ele>
        <time>2022-05-15T13:05:03Z</time>
      </trkpt>
      <trkpt lat="47.22662" lon="4.92899">
        <ele>465</ele>
        <time>2022-05-15T13:05:05Z</time>
      </trkpt>
      <trkpt lat="47.22662" lon="4.92897">
        <ele>465</ele>
        <time>2022-05-15T13:05:06Z</time>
      </trkpt>
      <trkpt lat="47.22662" lon="4.92896">
        <ele>465</ele>
        <time>2022-05-15T13:05:07Z</time>
      </trkpt>
      <trkpt lat="47.22662" lon="4.92894">
        <ele>464</ele>
        <time>2022-05-15T13:05:09Z</time>
      </trkpt>
      <trkpt lat="47.22661" lon="4.92892">
        <ele>464</ele>
        <time>2022-05-15T13:05:11Z</time>
      </trkpt>
      <trkpt lat="47.22661" lon="4.92889">
        <ele>464</ele>
        <time>2022-05-15T13:05:12Z</time>
      </trkpt>
      <trkpt lat="47.22661" lon="4.92887">
        <ele>466</ele>
        <time>2022-05-15T13:05:13Z</time>
      </trkpt>
      <trkpt lat="47.22661" lon="4.92886">
        <ele>466</ele>
        <time>2022-05-15T13:05:15Z</time>
      </trkpt>
      <trkpt lat="47.22661" lon="4.92884">
        <ele>467</ele>
        <time>2022-05-15T13:05:18Z</time>
      </trkpt>
      <trkpt lat="47.22661" lon="4.92882">
        <ele>466</ele>
        <time>2022-05-15T13:05:20Z</time>
      </trkpt>
      <trkpt lat="47.22661" lon="4.9288">
        <ele>467</ele>
        <time>2022-05-15T13:05:21Z</time>
      </trkpt>
      <trkpt lat="47.22661" lon="4.92879">
        <ele>467</ele>
        <time>2022-05-15T13:05:23Z</time>
      </trkpt>
      <trkpt lat="47.2266" lon="4.92877">
        <ele>468</ele>
        <time>2022-05-15T13:05:25Z</time>
      </trkpt>
      <trkpt lat="47.22659" lon="4.92876">
        <ele>467</ele>
        <time>2022-05-15T13:05:28Z</time>
      </trkpt>
      <trkpt lat="47.22658" lon="4.92874">
        <ele>467</ele>
        <time>2022-05-15T13:05:29Z</time>
      </trkpt>
      <trkpt lat="47.22657" lon="4.92873">
        <ele>467</ele>
        <time>2022-05-15T13:05:30Z</time>
      </trkpt>
      <trkpt lat="47.22656" lon="4.92871">
        <ele>466</ele>
        <time>2022-05-15T13:05:31Z</time>
      </trkpt>
      <trkpt lat="47.22656" lon="4.9287">
        <ele>467</ele>
        <time>2022-05-15T13:05:32Z</time>
      </trkpt>
      <trkpt lat="47.22655" lon="4.92869">
        <ele>466</ele>
        <time>2022-05-15T13:05:34Z</time>
      </trkpt>
      <trkpt lat="47.22654" lon="4.92867">
        <ele>466</ele>
        <time>2022-05-15T13:05:36Z</time>
      </trkpt>
      <trkpt lat="47.22653" lon="4.92866">
        <ele>467</ele>
        <time>2022-05-15T13:05:37Z</time>
      </trkpt>
      <trkpt lat="47.22652" lon="4.92866">
        <ele>467</ele>
        <time>2022-05-15T13:05:39Z</time>
      </trkpt>
      <trkpt lat="47.22651" lon="4.92867">
        <ele>465</ele>
        <time>2022-05-15T13:05:41Z</time>
      </trkpt>
      <trkpt lat="47.2265" lon="4.92867">
        <ele>465</ele>
        <time>2022-05-15T13:05:43Z</time>
      </trkpt>
      <trkpt lat="47.22649" lon="4.92868">
        <ele>466</ele>
        <time>2022-05-15T13:05:45Z</time>
      </trkpt>
      <trkpt lat="47.22648" lon="4.92869">
        <ele>467</ele>
        <time>2022-05-15T13:05:49Z</time>
      </trkpt>
      <trkpt lat="47.22648" lon="4.9287">
        <ele>468</ele>
        <time>2022-05-15T13:05:51Z</time>
      </trkpt>
      <trkpt lat="47.22646" lon="4.92871">
        <ele>469</ele>
        <time>2022-05-15T13:05:53Z</time>
      </trkpt>
      <trkpt lat="47.22645" lon="4.92872">
        <ele>468</ele>
        <time>2022-05-15T13:05:55Z</time>
      </trkpt>
      <trkpt lat="47.22645" lon="4.92874">
        <ele>468</ele>
        <time>2022-05-15T13:05:56Z</time>
      </trkpt>
      <trkpt lat="47.22644" lon="4.92875">
        <ele>468</ele>
        <time>2022-05-15T13:05:57Z</time>
      </trkpt>
      <trkpt lat="47.22643" lon="4.92875">
        <ele>469</ele>
        <time>2022-05-15T13:05:59Z</time>
      </trkpt>
      <trkpt lat="47.22641" lon="4.92877">
        <ele>470</ele>
        <time>2022-05-15T13:06:01Z</time>
      </trkpt>
      <trkpt lat="47.22641" lon="4.92878">
        <ele>472</ele>
        <time>2022-05-15T13:06:02Z</time>
      </trkpt>
      <trkpt lat="47.2264" lon="4.92881">
        <ele>471</ele>
        <time>2022-05-15T13:06:03Z</time>
      </trkpt>
      <trkpt lat="47.22639" lon="4.92883">
        <ele>472</ele>
        <time>2022-05-15T13:06:04Z</time>
      </trkpt>
      <trkpt lat="47.22639" lon="4.92884">
        <ele>472</ele>
        <time>2022-05-15T13:06:05Z</time>
      </trkpt>
      <trkpt lat="47.22637" lon="4.92884">
        <ele>472</ele>
        <time>2022-05-15T13:06:07Z</time>
      </trkpt>
      <trkpt lat="47.22636" lon="4.92885">
        <ele>473</ele>
        <time>2022-05-15T13:06:09Z</time>
      </trkpt>
      <trkpt lat="47.22635" lon="4.92887">
        <ele>474</ele>
        <time>2022-05-15T13:06:11Z</time>
      </trkpt>
      <trkpt lat="47.22634" lon="4.92888">
        <ele>472</ele>
        <time>2022-05-15T13:06:12Z</time>
      </trkpt>
      <trkpt lat="47.22632" lon="4.92888">
        <ele>471</ele>
        <time>2022-05-15T13:06:14Z</time>
      </trkpt>
      <trkpt lat="47.22631" lon="4.92888">
        <ele>471</ele>
        <time>2022-05-15T13:06:15Z</time>
      </trkpt>
      <trkpt lat="47.2263" lon="4.92889">
        <ele>471</ele>
        <time>2022-05-15T13:06:16Z</time>
      </trkpt>
      <trkpt lat="47.22628" lon="4.9289">
        <ele>470</ele>
        <time>2022-05-15T13:06:19Z</time>
      </trkpt>
      <trkpt lat="47.22627" lon="4.92891">
        <ele>469</ele>
        <time>2022-05-15T13:06:20Z</time>
      </trkpt>
      <trkpt lat="47.22626" lon="4.92891">
        <ele>470</ele>
        <time>2022-05-15T13:06:21Z</time>
      </trkpt>
      <trkpt lat="47.22625" lon="4.92892">
        <ele>469</ele>
        <time>2022-05-15T13:06:22Z</time>
      </trkpt>
      <trkpt lat="47.22624" lon="4.92893">
        <ele>468</ele>
        <time>2022-05-15T13:06:23Z</time>
      </trkpt>
      <trkpt lat="47.22622" lon="4.92893">
        <ele>467</ele>
        <time>2022-05-15T13:06:24Z</time>
      </trkpt>
      <trkpt lat="47.22621" lon="4.92893">
        <ele>467</ele>
        <time>2022-05-15T13:06:25Z</time>
      </trkpt>
      <trkpt lat="47.2262" lon="4.92893">
        <ele>467</ele>
        <time>2022-05-15T13:06:27Z</time>
      </trkpt>
      <trkpt lat="47.22618" lon="4.92893">
        <ele>467</ele>
        <time>2022-05-15T13:06:29Z</time>
      </trkpt>
      <trkpt lat="47.22617" lon="4.92893">
        <ele>469</ele>
        <time>2022-05-15T13:06:31Z</time>
      </trkpt>
      <trkpt lat="47.22616" lon="4.92893">
        <ele>468</ele>
        <time>2022-05-15T13:06:33Z</time>
      </trkpt>
      <trkpt lat="47.22615" lon="4.92893">
        <ele>469</ele>
        <time>2022-05-15T13:06:35Z</time>
      </trkpt>
      <trkpt lat="47.22613" lon="4.92894">
        <ele>469</ele>
        <time>2022-05-15T13:06:36Z</time>
      </trkpt>
      <trkpt lat="47.22612" lon="4.92894">
        <ele>469</ele>
        <time>2022-05-15T13:06:38Z</time>
      </trkpt>
      <trkpt lat="47.22611" lon="4.92894">
        <ele>469</ele>
        <time>2022-05-15T13:06:39Z</time>
      </trkpt>
      <trkpt lat="47.2261" lon="4.92893">
        <ele>468</ele>
        <time>2022-05-15T13:06:40Z</time>
      </trkpt>
      <trkpt lat="47.22608" lon="4.92893">
        <ele>468</ele>
        <time>2022-05-15T13:06:41Z</time>
      </trkpt>
      <trkpt lat="47.22607" lon="4.92893">
        <ele>466</ele>
        <time>2022-05-15T13:06:42Z</time>
      </trkpt>
      <trkpt lat="47.22605" lon="4.92893">
        <ele>465</ele>
        <time>2022-05-15T13:06:44Z</time>
      </trkpt>
      <trkpt lat="47.22604" lon="4.92893">
        <ele>465</ele>
        <time>2022-05-15T13:06:45Z</time>
      </trkpt>
      <trkpt lat="47.22603" lon="4.92893">
        <ele>465</ele>
        <time>2022-05-15T13:06:47Z</time>
      </trkpt>
      <trkpt lat="47.22601" lon="4.92893">
        <ele>465</ele>
        <time>2022-05-15T13:06:48Z</time>
      </trkpt>
      <trkpt lat="47.226" lon="4.92893">
        <ele>465</ele>
        <time>2022-05-15T13:06:49Z</time>
      </trkpt>
      <trkpt lat="47.22598" lon="4.92893">
        <ele>464</ele>
        <time>2022-05-15T13:06:50Z</time>
      </trkpt>
      <trkpt lat="47.22597" lon="4.92893">
        <ele>464</ele>
        <time>2022-05-15T13:06:51Z</time>
      </trkpt>
      <trkpt lat="47.22595" lon="4.92894">
        <ele>465</ele>
        <time>2022-05-15T13:06:53Z</time>
      </trkpt>
      <trkpt lat="47.22594" lon="4.92894">
        <ele>466</ele>
        <time>2022-05-15T13:06:54Z</time>
      </trkpt>
      <trkpt lat="47.22593" lon="4.92894">
        <ele>467</ele>
        <time>2022-05-15T13:06:56Z</time>
      </trkpt>
      <trkpt lat="47.22592" lon="4.92895">
        <ele>467</ele>
        <time>2022-05-15T13:06:57Z</time>
      </trkpt>
      <trkpt lat="47.2259" lon="4.92895">
        <ele>466</ele>
        <time>2022-05-15T13:06:58Z</time>
      </trkpt>
      <trkpt lat="47.22589" lon="4.92895">
        <ele>467</ele>
        <time>2022-05-15T13:07:00Z</time>
      </trkpt>
      <trkpt lat="47.22588" lon="4.92895">
        <ele>467</ele>
        <time>2022-05-15T13:07:01Z</time>
      </trkpt>
      <trkpt lat="47.22587" lon="4.92896">
        <ele>467</ele>
        <time>2022-05-15T13:07:02Z</time>
      </trkpt>
      <trkpt lat="47.22586" lon="4.92897">
        <ele>467</ele>
        <time>2022-05-15T13:07:03Z</time>
      </trkpt>
      <trkpt lat="47.22585" lon="4.92897">
        <ele>468</ele>
        <time>2022-05-15T13:07:04Z</time>
      </trkpt>
      <trkpt lat="47.22584" lon="4.92898">
        <ele>468</ele>
        <time>2022-05-15T13:07:05Z</time>
      </trkpt>
      <trkpt lat="47.22582" lon="4.92897">
        <ele>466</ele>
        <time>2022-05-15T13:07:07Z</time>
      </trkpt>
      <trkpt lat="47.2258" lon="4.92897">
        <ele>467</ele>
        <time>2022-05-15T13:07:09Z</time>
      </trkpt>
      <trkpt lat="47.22579" lon="4.92897">
        <ele>467</ele>
        <time>2022-05-15T13:07:10Z</time>
      </trkpt>
      <trkpt lat="47.22578" lon="4.92898">
        <ele>467</ele>
        <time>2022-05-15T13:07:11Z</time>
      </trkpt>
      <trkpt lat="47.22577" lon="4.92899">
        <ele>467</ele>
        <time>2022-05-15T13:07:12Z</time>
      </trkpt>
      <trkpt lat="47.22576" lon="4.929">
        <ele>468</ele>
        <time>2022-05-15T13:07:14Z</time>
      </trkpt>
      <trkpt lat="47.22575" lon="4.92901">
        <ele>467</ele>
        <time>2022-05-15T13:07:16Z</time>
      </trkpt>
      <trkpt lat="47.22573" lon="4.92902">
        <ele>466</ele>
        <time>2022-05-15T13:07:18Z</time>
      </trkpt>
      <trkpt lat="47.22571" lon="4.92903">
        <ele>467</ele>
        <time>2022-05-15T13:07:20Z</time>
      </trkpt>
      <trkpt lat="47.2257" lon="4.92904">
        <ele>467</ele>
        <time>2022-05-15T13:07:22Z</time>
      </trkpt>
      <trkpt lat="47.22568" lon="4.92905">
        <ele>467</ele>
        <time>2022-05-15T13:07:24Z</time>
      </trkpt>
      <trkpt lat="47.22567" lon="4.92906">
        <ele>467</ele>
        <time>2022-05-15T13:07:25Z</time>
      </trkpt>
      <trkpt lat="47.22565" lon="4.92907">
        <ele>466</ele>
        <time>2022-05-15T13:07:27Z</time>
      </trkpt>
      <trkpt lat="47.22564" lon="4.92907">
        <ele>466</ele>
        <time>2022-05-15T13:07:28Z</time>
      </trkpt>
      <trkpt lat="47.22563" lon="4.92907">
        <ele>467</ele>
        <time>2022-05-15T13:07:29Z</time>
      </trkpt>
      <trkpt lat="47.22562" lon="4.92908">
        <ele>467</ele>
        <time>2022-05-15T13:07:30Z</time>
      </trkpt>
      <trkpt lat="47.2256" lon="4.92909">
        <ele>467</ele>
        <time>2022-05-15T13:07:31Z</time>
      </trkpt>
      <trkpt lat="47.22559" lon="4.9291">
        <ele>467</ele>
        <time>2022-05-15T13:07:32Z</time>
      </trkpt>
      <trkpt lat="47.22558" lon="4.9291">
        <ele>467</ele>
        <time>2022-05-15T13:07:33Z</time>
      </trkpt>
      <trkpt lat="47.22556" lon="4.9291">
        <ele>466</ele>
        <time>2022-05-15T13:07:34Z</time>
      </trkpt>
      <trkpt lat="47.22555" lon="4.92911">
        <ele>466</ele>
        <time>2022-05-15T13:07:35Z</time>
      </trkpt>
      <trkpt lat="47.22554" lon="4.92911">
        <ele>466</ele>
        <time>2022-05-15T13:07:37Z</time>
      </trkpt>
      <trkpt lat="47.22553" lon="4.92913">
        <ele>466</ele>
        <time>2022-05-15T13:07:39Z</time>
      </trkpt>
      <trkpt lat="47.22551" lon="4.92914">
        <ele>466</ele>
        <time>2022-05-15T13:07:40Z</time>
      </trkpt>
      <trkpt lat="47.2255" lon="4.92915">
        <ele>467</ele>
        <time>2022-05-15T13:07:41Z</time>
      </trkpt>
      <trkpt lat="47.22549" lon="4.92915">
        <ele>465</ele>
        <time>2022-05-15T13:07:43Z</time>
      </trkpt>
      <trkpt lat="47.22548" lon="4.92916">
        <ele>467</ele>
        <time>2022-05-15T13:07:45Z</time>
      </trkpt>
      <trkpt lat="47.22546" lon="4.92917">
        <ele>467</ele>
        <time>2022-05-15T13:07:47Z</time>
      </trkpt>
      <trkpt lat="47.22544" lon="4.92918">
        <ele>467</ele>
        <time>2022-05-15T13:07:48Z</time>
      </trkpt>
      <trkpt lat="47.22543" lon="4.92919">
        <ele>466</ele>
        <time>2022-05-15T13:07:50Z</time>
      </trkpt>
      <trkpt lat="47.22542" lon="4.9292">
        <ele>464</ele>
        <time>2022-05-15T13:07:51Z</time>
      </trkpt>
      <trkpt lat="47.22541" lon="4.92921">
        <ele>463</ele>
        <time>2022-05-15T13:07:52Z</time>
      </trkpt>
      <trkpt lat="47.22539" lon="4.92922">
        <ele>462</ele>
        <time>2022-05-15T13:07:54Z</time>
      </trkpt>
      <trkpt lat="47.22538" lon="4.92923">
        <ele>462</ele>
        <time>2022-05-15T13:07:56Z</time>
      </trkpt>
      <trkpt lat="47.22536" lon="4.92924">
        <ele>463</ele>
        <time>2022-05-15T13:07:57Z</time>
      </trkpt>
      <trkpt lat="47.22535" lon="4.92925">
        <ele>462</ele>
        <time>2022-05-15T13:07:58Z</time>
      </trkpt>
      <trkpt lat="47.22533" lon="4.92925">
        <ele>462</ele>
        <time>2022-05-15T13:07:59Z</time>
      </trkpt>
      <trkpt lat="47.22533" lon="4.92925">
        <ele>463</ele>
        <time>2022-05-15T13:08:00Z</time>
      </trkpt>
      <trkpt lat="47.22532" lon="4.92925">
        <ele>462</ele>
        <time>2022-05-15T13:08:01Z</time>
      </trkpt>
      <trkpt lat="47.2253" lon="4.92925">
        <ele>460</ele>
        <time>2022-05-15T13:08:02Z</time>
      </trkpt>
      <trkpt lat="47.22529" lon="4.92926">
        <ele>459</ele>
        <time>2022-05-15T13:08:03Z</time>
      </trkpt>
      <trkpt lat="47.22528" lon="4.92926">
        <ele>459</ele>
        <time>2022-05-15T13:08:04Z</time>
      </trkpt>
      <trkpt lat="47.22527" lon="4.92927">
        <ele>459</ele>
        <time>2022-05-15T13:08:05Z</time>
      </trkpt>
      <trkpt lat="47.22525" lon="4.92927">
        <ele>459</ele>
        <time>2022-05-15T13:08:06Z</time>
      </trkpt>
      <trkpt lat="47.22523" lon="4.92927">
        <ele>461</ele>
        <time>2022-05-15T13:08:08Z</time>
      </trkpt>
      <trkpt lat="47.22522" lon="4.92927">
        <ele>461</ele>
        <time>2022-05-15T13:08:09Z</time>
      </trkpt>
      <trkpt lat="47.22521" lon="4.92928">
        <ele>462</ele>
        <time>2022-05-15T13:08:10Z</time>
      </trkpt>
      <trkpt lat="47.22519" lon="4.92928">
        <ele>462</ele>
        <time>2022-05-15T13:08:11Z</time>
      </trkpt>
      <trkpt lat="47.22518" lon="4.92929">
        <ele>461</ele>
        <time>2022-05-15T13:08:12Z</time>
      </trkpt>
      <trkpt lat="47.22517" lon="4.92929">
        <ele>460</ele>
        <time>2022-05-15T13:08:13Z</time>
      </trkpt>
      <trkpt lat="47.22516" lon="4.92929">
        <ele>461</ele>
        <time>2022-05-15T13:08:14Z</time>
      </trkpt>
      <trkpt lat="47.22515" lon="4.92928">
        <ele>461</ele>
        <time>2022-05-15T13:08:15Z</time>
      </trkpt>
      <trkpt lat="47.22514" lon="4.92928">
        <ele>460</ele>
        <time>2022-05-15T13:08:16Z</time>
      </trkpt>
      <trkpt lat="47.22513" lon="4.92927">
        <ele>460</ele>
        <time>2022-05-15T13:08:17Z</time>
      </trkpt>
      <trkpt lat="47.22512" lon="4.92927">
        <ele>460</ele>
        <time>2022-05-15T13:08:18Z</time>
      </trkpt>
      <trkpt lat="47.22511" lon="4.92926">
        <ele>459</ele>
        <time>2022-05-15T13:08:19Z</time>
      </trkpt>
      <trkpt lat="47.22509" lon="4.92925">
        <ele>459</ele>
        <time>2022-05-15T13:08:21Z</time>
      </trkpt>
      <trkpt lat="47.22507" lon="4.92924">
        <ele>458</ele>
        <time>2022-05-15T13:08:22Z</time>
      </trkpt>
      <trkpt lat="47.22507" lon="4.92923">
        <ele>455</ele>
        <time>2022-05-15T13:08:23Z</time>
      </trkpt>
      <trkpt lat="47.22505" lon="4.92923">
        <ele>457</ele>
        <time>2022-05-15T13:08:25Z</time>
      </trkpt>
      <trkpt lat="47.22504" lon="4.92922">
        <ele>457</ele>
        <time>2022-05-15T13:08:26Z</time>
      </trkpt>
      <trkpt lat="47.22503" lon="4.92921">
        <ele>457</ele>
        <time>2022-05-15T13:08:27Z</time>
      </trkpt>
      <trkpt lat="47.22501" lon="4.92921">
        <ele>458</ele>
        <time>2022-05-15T13:08:28Z</time>
      </trkpt>
      <trkpt lat="47.225" lon="4.9292">
        <ele>457</ele>
        <time>2022-05-15T13:08:29Z</time>
      </trkpt>
      <trkpt lat="47.225" lon="4.9292">
        <ele>457</ele>
        <time>2022-05-15T13:08:30Z</time>
      </trkpt>
      <trkpt lat="47.22498" lon="4.92918">
        <ele>457</ele>
        <time>2022-05-15T13:08:32Z</time>
      </trkpt>
      <trkpt lat="47.22497" lon="4.92917">
        <ele>457</ele>
        <time>2022-05-15T13:08:33Z</time>
      </trkpt>
      <trkpt lat="47.22496" lon="4.92917">
        <ele>459</ele>
        <time>2022-05-15T13:08:34Z</time>
      </trkpt>
      <trkpt lat="47.22495" lon="4.92916">
        <ele>458</ele>
        <time>2022-05-15T13:08:35Z</time>
      </trkpt>
      <trkpt lat="47.22494" lon="4.92916">
        <ele>458</ele>
        <time>2022-05-15T13:08:36Z</time>
      </trkpt>
      <trkpt lat="47.22493" lon="4.92915">
        <ele>456</ele>
        <time>2022-05-15T13:08:37Z</time>
      </trkpt>
      <trkpt lat="47.22491" lon="4.92914">
        <ele>458</ele>
        <time>2022-05-15T13:08:39Z</time>
      </trkpt>
      <trkpt lat="47.2249" lon="4.92913">
        <ele>458</ele>
        <time>2022-05-15T13:08:40Z</time>
      </trkpt>
      <trkpt lat="47.22489" lon="4.92912">
        <ele>457</ele>
        <time>2022-05-15T13:08:41Z</time>
      </trkpt>
      <trkpt lat="47.22488" lon="4.92911">
        <ele>457</ele>
        <time>2022-05-15T13:08:42Z</time>
      </trkpt>
      <trkpt lat="47.22488" lon="4.92909">
        <ele>456</ele>
        <time>2022-05-15T13:08:43Z</time>
      </trkpt>
      <trkpt lat="47.22486" lon="4.92908">
        <ele>456</ele>
        <time>2022-05-15T13:08:45Z</time>
      </trkpt>
      <trkpt lat="47.22485" lon="4.92907">
        <ele>455</ele>
        <time>2022-05-15T13:08:47Z</time>
      </trkpt>
      <trkpt lat="47.22484" lon="4.92906">
        <ele>456</ele>
        <time>2022-05-15T13:08:49Z</time>
      </trkpt>
      <trkpt lat="47.22482" lon="4.92904">
        <ele>455</ele>
        <time>2022-05-15T13:08:51Z</time>
      </trkpt>
      <trkpt lat="47.22481" lon="4.92903">
        <ele>455</ele>
        <time>2022-05-15T13:08:52Z</time>
      </trkpt>
      <trkpt lat="47.2248" lon="4.92902">
        <ele>456</ele>
        <time>2022-05-15T13:08:54Z</time>
      </trkpt>
      <trkpt lat="47.22479" lon="4.92901">
        <ele>456</ele>
        <time>2022-05-15T13:08:56Z</time>
      </trkpt>
      <trkpt lat="47.22477" lon="4.929">
        <ele>455</ele>
        <time>2022-05-15T13:08:58Z</time>
      </trkpt>
      <trkpt lat="47.22476" lon="4.92899">
        <ele>455</ele>
        <time>2022-05-15T13:08:59Z</time>
      </trkpt>
      <trkpt lat="47.22474" lon="4.92899">
        <ele>452</ele>
        <time>2022-05-15T13:09:01Z</time>
      </trkpt>
      <trkpt lat="47.22473" lon="4.92899">
        <ele>451</ele>
        <time>2022-05-15T13:09:10Z</time>
      </trkpt>
      <trkpt lat="47.22472" lon="4.92899">
        <ele>451</ele>
        <time>2022-05-15T13:09:13Z</time>
      </trkpt>
      <trkpt lat="47.22471" lon="4.92899">
        <ele>451</ele>
        <time>2022-05-15T13:09:14Z</time>
      </trkpt>
      <trkpt lat="47.2247" lon="4.92899">
        <ele>452</ele>
        <time>2022-05-15T13:09:17Z</time>
      </trkpt>
      <trkpt lat="47.22467" lon="4.92898">
        <ele>451</ele>
        <time>2022-05-15T13:09:22Z</time>
      </trkpt>
      <trkpt lat="47.22465" lon="4.92898">
        <ele>452</ele>
        <time>2022-05-15T13:09:24Z</time>
      </trkpt>
      <trkpt lat="47.22464" lon="4.92897">
        <ele>451</ele>
        <time>2022-05-15T13:09:26Z</time>
      </trkpt>
      <trkpt lat="47.22462" lon="4.92896">
        <ele>448</ele>
        <time>2022-05-15T13:09:28Z</time>
      </trkpt>
      <trkpt lat="47.22461" lon="4.92897">
        <ele>445</ele>
        <time>2022-05-15T13:09:30Z</time>
      </trkpt>
      <trkpt lat="47.22459" lon="4.92897">
        <ele>445</ele>
        <time>2022-05-15T13:09:32Z</time>
      </trkpt>
      <trkpt lat="47.22459" lon="4.92896">
        <ele>444</ele>
        <time>2022-05-15T13:09:33Z</time>
      </trkpt>
      <trkpt lat="47.22457" lon="4.92896">
        <ele>444</ele>
        <time>2022-05-15T13:09:35Z</time>
      </trkpt>
      <trkpt lat="47.22456" lon="4.92895">
        <ele>442</ele>
        <time>2022-05-15T13:09:37Z</time>
      </trkpt>
      <trkpt lat="47.22455" lon="4.92894">
        <ele>443</ele>
        <time>2022-05-15T13:09:39Z</time>
      </trkpt>
      <trkpt lat="47.22453" lon="4.92893">
        <ele>441</ele>
        <time>2022-05-15T13:09:41Z</time>
      </trkpt>
      <trkpt lat="47.22452" lon="4.92892">
        <ele>441</ele>
        <time>2022-05-15T13:09:42Z</time>
      </trkpt>
      <trkpt lat="47.22451" lon="4.92891">
        <ele>442</ele>
        <time>2022-05-15T13:09:43Z</time>
      </trkpt>
      <trkpt lat="47.2245" lon="4.92891">
        <ele>442</ele>
        <time>2022-05-15T13:09:44Z</time>
      </trkpt>
      <trkpt lat="47.22449" lon="4.92891">
        <ele>442</ele>
        <time>2022-05-15T13:09:45Z</time>
      </trkpt>
      <trkpt lat="47.22448" lon="4.92891">
        <ele>443</ele>
        <time>2022-05-15T13:09:46Z</time>
      </trkpt>
      <trkpt lat="47.22446" lon="4.92891">
        <ele>444</ele>
        <time>2022-05-15T13:09:48Z</time>
      </trkpt>
      <trkpt lat="47.22445" lon="4.9289">
        <ele>444</ele>
        <time>2022-05-15T13:09:49Z</time>
      </trkpt>
      <trkpt lat="47.22444" lon="4.9289">
        <ele>444</ele>
        <time>2022-05-15T13:09:50Z</time>
      </trkpt>
      <trkpt lat="47.22443" lon="4.92889">
        <ele>445</ele>
        <time>2022-05-15T13:09:51Z</time>
      </trkpt>
      <trkpt lat="47.22442" lon="4.92888">
        <ele>444</ele>
        <time>2022-05-15T13:09:53Z</time>
      </trkpt>
      <trkpt lat="47.22441" lon="4.92885">
        <ele>442</ele>
        <time>2022-05-15T13:09:55Z</time>
      </trkpt>
      <trkpt lat="47.22441" lon="4.92884">
        <ele>443</ele>
        <time>2022-05-15T13:09:57Z</time>
      </trkpt>
      <trkpt lat="47.2244" lon="4.92882">
        <ele>444</ele>
        <time>2022-05-15T13:09:59Z</time>
      </trkpt>
      <trkpt lat="47.2244" lon="4.9288">
        <ele>444</ele>
        <time>2022-05-15T13:10:01Z</time>
      </trkpt>
      <trkpt lat="47.22438" lon="4.92878">
        <ele>445</ele>
        <time>2022-05-15T13:10:03Z</time>
      </trkpt>
      <trkpt lat="47.22438" lon="4.92877">
        <ele>445</ele>
        <time>2022-05-15T13:10:04Z</time>
      </trkpt>
      <trkpt lat="47.22437" lon="4.92875">
        <ele>445</ele>
        <time>2022-05-15T13:10:05Z</time>
      </trkpt>
      <trkpt lat="47.22437" lon="4.92874">
        <ele>445</ele>
        <time>2022-05-15T13:10:06Z</time>
      </trkpt>
      <trkpt lat="47.22436" lon="4.92873">
        <ele>445</ele>
        <time>2022-05-15T13:10:07Z</time>
      </trkpt>
      <trkpt lat="47.22435" lon="4.92871">
        <ele>445</ele>
        <time>2022-05-15T13:10:09Z</time>
      </trkpt>
      <trkpt lat="47.22434" lon="4.92871">
        <ele>444</ele>
        <time>2022-05-15T13:10:11Z</time>
      </trkpt>
      <trkpt lat="47.22433" lon="4.92871">
        <ele>444</ele>
        <time>2022-05-15T13:10:13Z</time>
      </trkpt>
      <trkpt lat="47.22432" lon="4.9287">
        <ele>444</ele>
        <time>2022-05-15T13:10:15Z</time>
      </trkpt>
      <trkpt lat="47.2243" lon="4.9287">
        <ele>444</ele>
        <time>2022-05-15T13:10:17Z</time>
      </trkpt>
      <trkpt lat="47.22429" lon="4.9287">
        <ele>445</ele>
        <time>2022-05-15T13:10:21Z</time>
      </trkpt>
      <trkpt lat="47.22428" lon="4.9287">
        <ele>445</ele>
        <time>2022-05-15T13:10:24Z</time>
      </trkpt>
      <trkpt lat="47.22427" lon="4.9287">
        <ele>446</ele>
        <time>2022-05-15T13:10:27Z</time>
      </trkpt>
      <trkpt lat="47.22426" lon="4.9287">
        <ele>444</ele>
        <time>2022-05-15T13:10:29Z</time>
      </trkpt>
      <trkpt lat="47.22425" lon="4.92868">
        <ele>443</ele>
        <time>2022-05-15T13:10:31Z</time>
      </trkpt>
      <trkpt lat="47.22424" lon="4.92867">
        <ele>443</ele>
        <time>2022-05-15T13:10:35Z</time>
      </trkpt>
      <trkpt lat="47.22423" lon="4.92866">
        <ele>443</ele>
        <time>2022-05-15T13:10:37Z</time>
      </trkpt>
      <trkpt lat="47.22422" lon="4.92865">
        <ele>442</ele>
        <time>2022-05-15T13:10:39Z</time>
      </trkpt>
      <trkpt lat="47.22421" lon="4.92864">
        <ele>439</ele>
        <time>2022-05-15T13:10:41Z</time>
      </trkpt>
      <trkpt lat="47.2242" lon="4.92863">
        <ele>440</ele>
        <time>2022-05-15T13:10:43Z</time>
      </trkpt>
      <trkpt lat="47.2242" lon="4.92861">
        <ele>439</ele>
        <time>2022-05-15T13:10:45Z</time>
      </trkpt>
      <trkpt lat="47.22419" lon="4.9286">
        <ele>439</ele>
        <time>2022-05-15T13:10:48Z</time>
      </trkpt>
      <trkpt lat="47.22419" lon="4.92858">
        <ele>438</ele>
        <time>2022-05-15T13:10:50Z</time>
      </trkpt>
      <trkpt lat="47.22418" lon="4.92856">
        <ele>437</ele>
        <time>2022-05-15T13:10:52Z</time>
      </trkpt>
      <trkpt lat="47.22418" lon="4.92854">
        <ele>437</ele>
        <time>2022-05-15T13:10:54Z</time>
      </trkpt>
      <trkpt lat="47.22417" lon="4.92852">
        <ele>438</ele>
        <time>2022-05-15T13:10:56Z</time>
      </trkpt>
      <trkpt lat="47.22416" lon="4.9285">
        <ele>438</ele>
        <time>2022-05-15T13:10:58Z</time>
      </trkpt>
      <trkpt lat="47.22416" lon="4.92849">
        <ele>437</ele>
        <time>2022-05-15T13:10:59Z</time>
      </trkpt>
      <trkpt lat="47.22416" lon="4.92847">
        <ele>437</ele>
        <time>2022-05-15T13:11:01Z</time>
      </trkpt>
      <trkpt lat="47.22415" lon="4.92844">
        <ele>437</ele>
        <time>2022-05-15T13:11:03Z</time>
      </trkpt>
      <trkpt lat="47.22415" lon="4.92842">
        <ele>435</ele>
        <time>2022-05-15T13:11:05Z</time>
      </trkpt>
      <trkpt lat="47.22414" lon="4.9284">
        <ele>435</ele>
        <time>2022-05-15T13:11:07Z</time>
      </trkpt>
      <trkpt lat="47.22414" lon="4.92838">
        <ele>435</ele>
        <time>2022-05-15T13:11:09Z</time>
      </trkpt>
      <trkpt lat="47.22414" lon="4.92837">
        <ele>436</ele>
        <time>2022-05-15T13:11:10Z</time>
      </trkpt>
      <trkpt lat="47.22414" lon="4.92836">
        <ele>435</ele>
        <time>2022-05-15T13:11:11Z</time>
      </trkpt>
      <trkpt lat="47.22414" lon="4.92833">
        <ele>436</ele>
        <time>2022-05-15T13:11:13Z</time>
      </trkpt>
      <trkpt lat="47.22413" lon="4.92831">
        <ele>434</ele>
        <time>2022-05-15T13:11:15Z</time>
      </trkpt>
      <trkpt lat="47.22413" lon="4.92829">
        <ele>435</ele>
        <time>2022-05-15T13:11:17Z</time>
      </trkpt>
      <trkpt lat="47.22413" lon="4.92827">
        <ele>434</ele>
        <time>2022-05-15T13:11:19Z</time>
      </trkpt>
      <trkpt lat="47.22412" lon="4.92825">
        <ele>433</ele>
        <time>2022-05-15T13:11:21Z</time>
      </trkpt>
      <trkpt lat="47.22412" lon="4.92823">
        <ele>434</ele>
        <time>2022-05-15T13:11:24Z</time>
      </trkpt>
      <trkpt lat="47.22411" lon="4.92822">
        <ele>434</ele>
        <time>2022-05-15T13:11:28Z</time>
      </trkpt>
      <trkpt lat="47.22412" lon="4.9282">
        <ele>435</ele>
        <time>2022-05-15T13:11:31Z</time>
      </trkpt>
      <trkpt lat="47.22411" lon="4.92819">
        <ele>436</ele>
        <time>2022-05-15T13:11:59Z</time>
      </trkpt>
      <trkpt lat="47.22411" lon="4.92817">
        <ele>435</ele>
        <time>2022-05-15T13:12:01Z</time>
      </trkpt>
      <trkpt lat="47.22411" lon="4.92816">
        <ele>435</ele>
        <time>2022-05-15T13:12:03Z</time>
      </trkpt>
      <trkpt lat="47.22411" lon="4.92815">
        <ele>437</ele>
        <time>2022-05-15T13:12:06Z</time>
      </trkpt>
      <trkpt lat="47.2241" lon="4.92813">
        <ele>435</ele>
        <time>2022-05-15T13:12:09Z</time>
      </trkpt>
      <trkpt lat="47.22409" lon="4.92811">
        <ele>435</ele>
        <time>2022-05-15T13:12:11Z</time>
      </trkpt>
      <trkpt lat="47.22409" lon="4.92809">
        <ele>435</ele>
        <time>2022-05-15T13:12:13Z</time>
      </trkpt>
      <trkpt lat="47.22409" lon="4.92807">
        <ele>434</ele>
        <time>2022-05-15T13:12:15Z</time>
      </trkpt>
      <trkpt lat="47.22408" lon="4.92805">
        <ele>433</ele>
        <time>2022-05-15T13:12:17Z</time>
      </trkpt>
      <trkpt lat="47.22408" lon="4.92803">
        <ele>434</ele>
        <time>2022-05-15T13:12:19Z</time>
      </trkpt>
      <trkpt lat="47.22408" lon="4.92801">
        <ele>434</ele>
        <time>2022-05-15T13:12:21Z</time>
      </trkpt>
      <trkpt lat="47.22407" lon="4.92799">
        <ele>432</ele>
        <time>2022-05-15T13:12:23Z</time>
      </trkpt>
      <trkpt lat="47.22407" lon="4.92795">
        <ele>432</ele>
        <time>2022-05-15T13:12:25Z</time>
      </trkpt>
      <trkpt lat="47.22407" lon="4.92793">
        <ele>432</ele>
        <time>2022-05-15T13:12:27Z</time>
      </trkpt>
      <trkpt lat="47.22407" lon="4.92791">
        <ele>432</ele>
        <time>2022-05-15T13:12:28Z</time>
      </trkpt>
      <trkpt lat="47.22407" lon="4.9279">
        <ele>432</ele>
        <time>2022-05-15T13:12:29Z</time>
      </trkpt>
      <trkpt lat="47.22406" lon="4.92788">
        <ele>432</ele>
        <time>2022-05-15T13:12:30Z</time>
      </trkpt>
      <trkpt lat="47.22406" lon="4.92787">
        <ele>432</ele>
        <time>2022-05-15T13:12:31Z</time>
      </trkpt>
      <trkpt lat="47.22406" lon="4.92785">
        <ele>431</ele>
        <time>2022-05-15T13:12:32Z</time>
      </trkpt>
      <trkpt lat="47.22406" lon="4.92784">
        <ele>431</ele>
        <time>2022-05-15T13:12:33Z</time>
      </trkpt>
      <trkpt lat="47.22406" lon="4.92782">
        <ele>431</ele>
        <time>2022-05-15T13:12:34Z</time>
      </trkpt>
      <trkpt lat="47.22406" lon="4.9278">
        <ele>431</ele>
        <time>2022-05-15T13:12:35Z</time>
      </trkpt>
      <trkpt lat="47.22406" lon="4.92778">
        <ele>430</ele>
        <time>2022-05-15T13:12:36Z</time>
      </trkpt>
      <trkpt lat="47.22406" lon="4.92777">
        <ele>431</ele>
        <time>2022-05-15T13:12:37Z</time>
      </trkpt>
      <trkpt lat="47.22406" lon="4.92775">
        <ele>429</ele>
        <time>2022-05-15T13:12:38Z</time>
      </trkpt>
      <trkpt lat="47.22406" lon="4.92773">
        <ele>431</ele>
        <time>2022-05-15T13:12:40Z</time>
      </trkpt>
      <trkpt lat="47.22406" lon="4.92772">
        <ele>431</ele>
        <time>2022-05-15T13:12:41Z</time>
      </trkpt>
      <trkpt lat="47.22406" lon="4.9277">
        <ele>431</ele>
        <time>2022-05-15T13:12:42Z</time>
      </trkpt>
      <trkpt lat="47.22406" lon="4.92769">
        <ele>430</ele>
        <time>2022-05-15T13:12:43Z</time>
      </trkpt>
      <trkpt lat="47.22406" lon="4.92768">
        <ele>430</ele>
        <time>2022-05-15T13:12:44Z</time>
      </trkpt>
      <trkpt lat="47.22407" lon="4.92766">
        <ele>430</ele>
        <time>2022-05-15T13:12:46Z</time>
      </trkpt>
      <trkpt lat="47.22407" lon="4.92764">
        <ele>431</ele>
        <time>2022-05-15T13:12:47Z</time>
      </trkpt>
      <trkpt lat="47.22408" lon="4.92762">
        <ele>431</ele>
        <time>2022-05-15T13:12:48Z</time>
      </trkpt>
      <trkpt lat="47.22408" lon="4.92761">
        <ele>431</ele>
        <time>2022-05-15T13:12:49Z</time>
      </trkpt>
      <trkpt lat="47.22408" lon="4.92759">
        <ele>430</ele>
        <time>2022-05-15T13:12:50Z</time>
      </trkpt>
      <trkpt lat="47.22408" lon="4.92758">
        <ele>430</ele>
        <time>2022-05-15T13:12:51Z</time>
      </trkpt>
      <trkpt lat="47.22408" lon="4.92757">
        <ele>430</ele>
        <time>2022-05-15T13:12:52Z</time>
      </trkpt>
      <trkpt lat="47.22408" lon="4.92755">
        <ele>429</ele>
        <time>2022-05-15T13:12:53Z</time>
      </trkpt>
      <trkpt lat="47.22408" lon="4.92754">
        <ele>429</ele>
        <time>2022-05-15T13:12:54Z</time>
      </trkpt>
      <trkpt lat="47.22408" lon="4.92752">
        <ele>429</ele>
        <time>2022-05-15T13:12:55Z</time>
      </trkpt>
      <trkpt lat="47.22408" lon="4.92751">
        <ele>429</ele>
        <time>2022-05-15T13:12:56Z</time>
      </trkpt>
      <trkpt lat="47.22409" lon="4.92749">
        <ele>429</ele>
        <time>2022-05-15T13:12:57Z</time>
      </trkpt>
      <trkpt lat="47.22409" lon="4.92747">
        <ele>428</ele>
        <time>2022-05-15T13:12:58Z</time>
      </trkpt>
      <trkpt lat="47.22409" lon="4.92745">
        <ele>428</ele>
        <time>2022-05-15T13:12:59Z</time>
      </trkpt>
      <trkpt lat="47.22409" lon="4.92743">
        <ele>428</ele>
        <time>2022-05-15T13:13:01Z</time>
      </trkpt>
      <trkpt lat="47.22409" lon="4.92742">
        <ele>428</ele>
        <time>2022-05-15T13:13:03Z</time>
      </trkpt>
      <trkpt lat="47.22409" lon="4.9274">
        <ele>428</ele>
        <time>2022-05-15T13:13:05Z</time>
      </trkpt>
      <trkpt lat="47.22408" lon="4.92739">
        <ele>429</ele>
        <time>2022-05-15T13:13:07Z</time>
      </trkpt>
      <trkpt lat="47.22407" lon="4.92738">
        <ele>429</ele>
        <time>2022-05-15T13:13:09Z</time>
      </trkpt>
      <trkpt lat="47.22407" lon="4.92738">
        <ele>428</ele>
        <time>2022-05-15T13:13:16Z</time>
      </trkpt>
      <trkpt lat="47.22407" lon="4.92736">
        <ele>428</ele>
        <time>2022-05-15T13:13:19Z</time>
      </trkpt>
      <trkpt lat="47.22406" lon="4.92734">
        <ele>429</ele>
        <time>2022-05-15T13:13:20Z</time>
      </trkpt>
      <trkpt lat="47.22406" lon="4.92732">
        <ele>428</ele>
        <time>2022-05-15T13:13:22Z</time>
      </trkpt>
      <trkpt lat="47.22406" lon="4.92731">
        <ele>427</ele>
        <time>2022-05-15T13:13:24Z</time>
      </trkpt>
      <trkpt lat="47.22406" lon="4.92728">
        <ele>428</ele>
        <time>2022-05-15T13:13:32Z</time>
      </trkpt>
      <trkpt lat="47.22406" lon="4.92727">
        <ele>428</ele>
        <time>2022-05-15T13:13:37Z</time>
      </trkpt>
      <trkpt lat="47.22407" lon="4.92725">
        <ele>428</ele>
        <time>2022-05-15T13:13:39Z</time>
      </trkpt>
      <trkpt lat="47.22407" lon="4.92723">
        <ele>428</ele>
        <time>2022-05-15T13:13:41Z</time>
      </trkpt>
      <trkpt lat="47.22407" lon="4.9272">
        <ele>429</ele>
        <time>2022-05-15T13:13:43Z</time>
      </trkpt>
      <trkpt lat="47.22407" lon="4.92719">
        <ele>428</ele>
        <time>2022-05-15T13:13:44Z</time>
      </trkpt>
      <trkpt lat="47.22406" lon="4.92717">
        <ele>427</ele>
        <time>2022-05-15T13:13:46Z</time>
      </trkpt>
      <trkpt lat="47.22406" lon="4.92714">
        <ele>428</ele>
        <time>2022-05-15T13:13:48Z</time>
      </trkpt>
      <trkpt lat="47.22406" lon="4.92713">
        <ele>428</ele>
        <time>2022-05-15T13:13:49Z</time>
      </trkpt>
      <trkpt lat="47.22406" lon="4.92711">
        <ele>427</ele>
        <time>2022-05-15T13:13:50Z</time>
      </trkpt>
      <trkpt lat="47.22406" lon="4.92709">
        <ele>427</ele>
        <time>2022-05-15T13:13:52Z</time>
      </trkpt>
      <trkpt lat="47.22406" lon="4.92708">
        <ele>427</ele>
        <time>2022-05-15T13:13:53Z</time>
      </trkpt>
      <trkpt lat="47.22406" lon="4.92706">
        <ele>427</ele>
        <time>2022-05-15T13:13:54Z</time>
      </trkpt>
      <trkpt lat="47.22406" lon="4.92705">
        <ele>427</ele>
        <time>2022-05-15T13:13:55Z</time>
      </trkpt>
      <trkpt lat="47.22406" lon="4.92703">
        <ele>428</ele>
        <time>2022-05-15T13:13:56Z</time>
      </trkpt>
      <trkpt lat="47.22406" lon="4.92702">
        <ele>428</ele>
        <time>2022-05-15T13:13:57Z</time>
      </trkpt>
      <trkpt lat="47.22407" lon="4.927">
        <ele>428</ele>
        <time>2022-05-15T13:13:59Z</time>
      </trkpt>
      <trkpt lat="47.22408" lon="4.92698">
        <ele>428</ele>
        <time>2022-05-15T13:14:01Z</time>
      </trkpt>
      <trkpt lat="47.22408" lon="4.927">
        <ele>430</ele>
        <time>2022-05-15T13:14:06Z</time>
      </trkpt>
      <trkpt lat="47.22409" lon="4.92702">
        <ele>429</ele>
        <time>2022-05-15T13:14:09Z</time>
      </trkpt>
      <trkpt lat="47.22409" lon="4.92701">
        <ele>426</ele>
        <time>2022-05-15T13:14:15Z</time>
      </trkpt>
      <trkpt lat="47.22409" lon="4.92699">
        <ele>426</ele>
        <time>2022-05-15T13:14:19Z</time>
      </trkpt>
      <trkpt lat="47.22409" lon="4.92697">
        <ele>426</ele>
        <time>2022-05-15T13:14:23Z</time>
      </trkpt>
      <trkpt lat="47.22408" lon="4.92696">
        <ele>428</ele>
        <time>2022-05-15T13:14:27Z</time>
      </trkpt>
      <trkpt lat="47.22408" lon="4.92695">
        <ele>427</ele>
        <time>2022-05-15T13:14:29Z</time>
      </trkpt>
      <trkpt lat="47.22409" lon="4.92693">
        <ele>428</ele>
        <time>2022-05-15T13:14:31Z</time>
      </trkpt>
      <trkpt lat="47.2241" lon="4.92692">
        <ele>429</ele>
        <time>2022-05-15T13:14:33Z</time>
      </trkpt>
      <trkpt lat="47.2241" lon="4.9269">
        <ele>429</ele>
        <time>2022-05-15T13:14:39Z</time>
      </trkpt>
      <trkpt lat="47.2241" lon="4.92689">
        <ele>428</ele>
        <time>2022-05-15T13:14:43Z</time>
      </trkpt>
      <trkpt lat="47.2241" lon="4.92687">
        <ele>428</ele>
        <time>2022-05-15T13:14:53Z</time>
      </trkpt>
      <trkpt lat="47.2241" lon="4.92686">
        <ele>427</ele>
        <time>2022-05-15T13:14:57Z</time>
      </trkpt>
      <trkpt lat="47.2241" lon="4.92684">
        <ele>427</ele>
        <time>2022-05-15T13:15:01Z</time>
      </trkpt>
      <trkpt lat="47.2241" lon="4.92682">
        <ele>425</ele>
        <time>2022-05-15T13:15:03Z</time>
      </trkpt>
      <trkpt lat="47.2241" lon="4.92681">
        <ele>423</ele>
        <time>2022-05-15T13:15:05Z</time>
      </trkpt>
      <trkpt lat="47.2241" lon="4.92679">
        <ele>421</ele>
        <time>2022-05-15T13:15:21Z</time>
      </trkpt>
      <trkpt lat="47.22409" lon="4.92677">
        <ele>422</ele>
        <time>2022-05-15T13:15:23Z</time>
      </trkpt>
      <trkpt lat="47.2241" lon="4.92676">
        <ele>421</ele>
        <time>2022-05-15T13:15:28Z</time>
      </trkpt>
      <trkpt lat="47.22411" lon="4.92675">
        <ele>422</ele>
        <time>2022-05-15T13:15:31Z</time>
      </trkpt>
      <trkpt lat="47.22411" lon="4.92674">
        <ele>422</ele>
        <time>2022-05-15T13:15:33Z</time>
      </trkpt>
      <trkpt lat="47.22412" lon="4.92672">
        <ele>421</ele>
        <time>2022-05-15T13:15:34Z</time>
      </trkpt>
      <trkpt lat="47.22412" lon="4.92671">
        <ele>422</ele>
        <time>2022-05-15T13:15:38Z</time>
      </trkpt>
      <trkpt lat="47.22412" lon="4.92669">
        <ele>422</ele>
        <time>2022-05-15T13:15:42Z</time>
      </trkpt>
      <trkpt lat="47.22412" lon="4.92668">
        <ele>422</ele>
        <time>2022-05-15T13:15:45Z</time>
      </trkpt>
      <trkpt lat="47.22412" lon="4.92666">
        <ele>422</ele>
        <time>2022-05-15T13:15:48Z</time>
      </trkpt>
      <trkpt lat="47.22412" lon="4.92665">
        <ele>421</ele>
        <time>2022-05-15T13:15:51Z</time>
      </trkpt>
      <trkpt lat="47.22411" lon="4.92664">
        <ele>420</ele>
        <time>2022-05-15T13:15:54Z</time>
      </trkpt>
      <trkpt lat="47.22411" lon="4.92662">
        <ele>421</ele>
        <time>2022-05-15T13:15:57Z</time>
      </trkpt>
      <trkpt lat="47.2241" lon="4.92661">
        <ele>421</ele>
        <time>2022-05-15T13:16:02Z</time>
      </trkpt>
      <trkpt lat="47.2241" lon="4.92659">
        <ele>422</ele>
        <time>2022-05-15T13:16:09Z</time>
      </trkpt>
      <trkpt lat="47.22411" lon="4.92659">
        <ele>422</ele>
        <time>2022-05-15T13:16:15Z</time>
      </trkpt>
      <trkpt lat="47.22412" lon="4.92657">
        <ele>422</ele>
        <time>2022-05-15T13:16:27Z</time>
      </trkpt>
      <trkpt lat="47.22412" lon="4.92655">
        <ele>422</ele>
        <time>2022-05-15T13:16:31Z</time>
      </trkpt>
      <trkpt lat="47.22412" lon="4.92654">
        <ele>423</ele>
        <time>2022-05-15T13:16:35Z</time>
      </trkpt>
      <trkpt lat="47.22412" lon="4.92652">
        <ele>423</ele>
        <time>2022-05-15T13:16:36Z</time>
      </trkpt>
      <trkpt lat="47.22413" lon="4.92651">
        <ele>423</ele>
        <time>2022-05-15T13:16:38Z</time>
      </trkpt>
      <trkpt lat="47.22413" lon="4.92649">
        <ele>422</ele>
        <time>2022-05-15T13:16:41Z</time>
      </trkpt>
      <trkpt lat="47.22414" lon="4.92648">
        <ele>422</ele>
        <time>2022-05-15T13:16:43Z</time>
      </trkpt>
      <trkpt lat="47.22414" lon="4.92646">
        <ele>422</ele>
        <time>2022-05-15T13:16:45Z</time>
      </trkpt>
      <trkpt lat="47.22414" lon="4.92644">
        <ele>422</ele>
        <time>2022-05-15T13:16:48Z</time>
      </trkpt>
      <trkpt lat="47.22414" lon="4.92642">
        <ele>422</ele>
        <time>2022-05-15T13:16:50Z</time>
      </trkpt>
      <trkpt lat="47.22415" lon="4.9264">
        <ele>422</ele>
        <time>2022-05-15T13:16:52Z</time>
      </trkpt>
      <trkpt lat="47.22415" lon="4.92638">
        <ele>421</ele>
        <time>2022-05-15T13:16:54Z</time>
      </trkpt>
      <trkpt lat="47.22416" lon="4.92636">
        <ele>421</ele>
        <time>2022-05-15T13:16:56Z</time>
      </trkpt>
      <trkpt lat="47.22416" lon="4.92635">
        <ele>421</ele>
        <time>2022-05-15T13:16:58Z</time>
      </trkpt>
      <trkpt lat="47.22416" lon="4.92633">
        <ele>421</ele>
        <time>2022-05-15T13:17:00Z</time>
      </trkpt>
      <trkpt lat="47.22416" lon="4.92631">
        <ele>421</ele>
        <time>2022-05-15T13:17:03Z</time>
      </trkpt>
      <trkpt lat="47.22417" lon="4.92629">
        <ele>421</ele>
        <time>2022-05-15T13:17:06Z</time>
      </trkpt>
      <trkpt lat="47.22417" lon="4.92627">
        <ele>421</ele>
        <time>2022-05-15T13:17:08Z</time>
      </trkpt>
      <trkpt lat="47.22418" lon="4.92626">
        <ele>421</ele>
        <time>2022-05-15T13:17:10Z</time>
      </trkpt>
      <trkpt lat="47.22418" lon="4.92624">
        <ele>419</ele>
        <time>2022-05-15T13:17:12Z</time>
      </trkpt>
      <trkpt lat="47.2242" lon="4.92624">
        <ele>419</ele>
        <time>2022-05-15T13:17:16Z</time>
      </trkpt>
      <trkpt lat="47.2242" lon="4.92623">
        <ele>419</ele>
        <time>2022-05-15T13:17:21Z</time>
      </trkpt>
      <trkpt lat="47.22421" lon="4.92621">
        <ele>418</ele>
        <time>2022-05-15T13:17:26Z</time>
      </trkpt>
      <trkpt lat="47.22422" lon="4.92618">
        <ele>418</ele>
        <time>2022-05-15T13:17:29Z</time>
      </trkpt>
      <trkpt lat="47.22423" lon="4.92617">
        <ele>419</ele>
        <time>2022-05-15T13:17:31Z</time>
      </trkpt>
      <trkpt lat="47.22424" lon="4.92616">
        <ele>419</ele>
        <time>2022-05-15T13:17:36Z</time>
      </trkpt>
      <trkpt lat="47.22425" lon="4.92615">
        <ele>420</ele>
        <time>2022-05-15T13:17:38Z</time>
      </trkpt>
      <trkpt lat="47.22425" lon="4.92614">
        <ele>419</ele>
        <time>2022-05-15T13:17:40Z</time>
      </trkpt>
      <trkpt lat="47.22426" lon="4.92612">
        <ele>420</ele>
        <time>2022-05-15T13:17:43Z</time>
      </trkpt>
      <trkpt lat="47.22426" lon="4.92611">
        <ele>420</ele>
        <time>2022-05-15T13:17:51Z</time>
      </trkpt>
      <trkpt lat="47.22426" lon="4.92612">
        <ele>422</ele>
        <time>2022-05-15T13:17:59Z</time>
      </trkpt>
      <trkpt lat="47.22425" lon="4.92613">
        <ele>422</ele>
        <time>2022-05-15T13:18:01Z</time>
      </trkpt>
      <trkpt lat="47.22424" lon="4.92613">
        <ele>422</ele>
        <time>2022-05-15T13:18:02Z</time>
      </trkpt>
      <trkpt lat="47.22423" lon="4.92614">
        <ele>420</ele>
        <time>2022-05-15T13:18:04Z</time>
      </trkpt>
      <trkpt lat="47.22422" lon="4.92614">
        <ele>419</ele>
        <time>2022-05-15T13:18:05Z</time>
      </trkpt>
      <trkpt lat="47.22421" lon="4.92615">
        <ele>421</ele>
        <time>2022-05-15T13:18:06Z</time>
      </trkpt>
      <trkpt lat="47.2242" lon="4.92616">
        <ele>422</ele>
        <time>2022-05-15T13:18:07Z</time>
      </trkpt>
      <trkpt lat="47.2242" lon="4.92617">
        <ele>422</ele>
        <time>2022-05-15T13:18:09Z</time>
      </trkpt>
      <trkpt lat="47.22419" lon="4.92618">
        <ele>422</ele>
        <time>2022-05-15T13:18:12Z</time>
      </trkpt>
      <trkpt lat="47.22418" lon="4.92618">
        <ele>419</ele>
        <time>2022-05-15T13:18:14Z</time>
      </trkpt>
      <trkpt lat="47.22416" lon="4.92619">
        <ele>418</ele>
        <time>2022-05-15T13:18:16Z</time>
      </trkpt>
      <trkpt lat="47.22416" lon="4.92618">
        <ele>417</ele>
        <time>2022-05-15T13:18:20Z</time>
      </trkpt>
      <trkpt lat="47.22415" lon="4.92618">
        <ele>416</ele>
        <time>2022-05-15T13:18:22Z</time>
      </trkpt>
      <trkpt lat="47.22413" lon="4.92619">
        <ele>413</ele>
        <time>2022-05-15T13:18:24Z</time>
      </trkpt>
      <trkpt lat="47.22412" lon="4.92618">
        <ele>413</ele>
        <time>2022-05-15T13:18:26Z</time>
      </trkpt>
      <trkpt lat="47.22411" lon="4.92618">
        <ele>413</ele>
        <time>2022-05-15T13:18:28Z</time>
      </trkpt>
      <trkpt lat="47.2241" lon="4.92619">
        <ele>414</ele>
        <time>2022-05-15T13:18:30Z</time>
      </trkpt>
      <trkpt lat="47.22409" lon="4.9262">
        <ele>419</ele>
        <time>2022-05-15T13:18:38Z</time>
      </trkpt>
      <trkpt lat="47.22408" lon="4.92621">
        <ele>417</ele>
        <time>2022-05-15T13:18:39Z</time>
      </trkpt>
      <trkpt lat="47.22407" lon="4.92621">
        <ele>417</ele>
        <time>2022-05-15T13:18:40Z</time>
      </trkpt>
      <trkpt lat="47.22405" lon="4.92622">
        <ele>416</ele>
        <time>2022-05-15T13:18:42Z</time>
      </trkpt>
      <trkpt lat="47.22404" lon="4.92622">
        <ele>417</ele>
        <time>2022-05-15T13:18:44Z</time>
      </trkpt>
      <trkpt lat="47.22403" lon="4.92623">
        <ele>416</ele>
        <time>2022-05-15T13:18:46Z</time>
      </trkpt>
      <trkpt lat="47.22402" lon="4.92623">
        <ele>417</ele>
        <time>2022-05-15T13:18:49Z</time>
      </trkpt>
      <trkpt lat="47.22401" lon="4.92622">
        <ele>417</ele>
        <time>2022-05-15T13:18:50Z</time>
      </trkpt>
      <trkpt lat="47.224" lon="4.92622">
        <ele>417</ele>
        <time>2022-05-15T13:18:51Z</time>
      </trkpt>
      <trkpt lat="47.22398" lon="4.92621">
        <ele>414</ele>
        <time>2022-05-15T13:18:53Z</time>
      </trkpt>
      <trkpt lat="47.22397" lon="4.9262">
        <ele>414</ele>
        <time>2022-05-15T13:18:54Z</time>
      </trkpt>
      <trkpt lat="47.22396" lon="4.9262">
        <ele>413</ele>
        <time>2022-05-15T13:18:55Z</time>
      </trkpt>
      <trkpt lat="47.22395" lon="4.9262">
        <ele>414</ele>
        <time>2022-05-15T13:18:56Z</time>
      </trkpt>
      <trkpt lat="47.22394" lon="4.92619">
        <ele>414</ele>
        <time>2022-05-15T13:18:58Z</time>
      </trkpt>
      <trkpt lat="47.22392" lon="4.92619">
        <ele>410</ele>
        <time>2022-05-15T13:19:00Z</time>
      </trkpt>
      <trkpt lat="47.22391" lon="4.92619">
        <ele>410</ele>
        <time>2022-05-15T13:19:02Z</time>
      </trkpt>
      <trkpt lat="47.2239" lon="4.92618">
        <ele>410</ele>
        <time>2022-05-15T13:19:04Z</time>
      </trkpt>
      <trkpt lat="47.22388" lon="4.92618">
        <ele>411</ele>
        <time>2022-05-15T13:19:06Z</time>
      </trkpt>
      <trkpt lat="47.22387" lon="4.92618">
        <ele>411</ele>
        <time>2022-05-15T13:19:08Z</time>
      </trkpt>
      <trkpt lat="47.22386" lon="4.92618">
        <ele>413</ele>
        <time>2022-05-15T13:19:10Z</time>
      </trkpt>
      <trkpt lat="47.22385" lon="4.92619">
        <ele>414</ele>
        <time>2022-05-15T13:19:12Z</time>
      </trkpt>
      <trkpt lat="47.22384" lon="4.92619">
        <ele>415</ele>
        <time>2022-05-15T13:19:15Z</time>
      </trkpt>
      <trkpt lat="47.22383" lon="4.9262">
        <ele>414</ele>
        <time>2022-05-15T13:19:17Z</time>
      </trkpt>
      <trkpt lat="47.22381" lon="4.92619">
        <ele>413</ele>
        <time>2022-05-15T13:19:19Z</time>
      </trkpt>
      <trkpt lat="47.2238" lon="4.92619">
        <ele>412</ele>
        <time>2022-05-15T13:19:22Z</time>
      </trkpt>
    </trkseg>
  </trk>
</gpx>